<?xml version='1.0' encoding='UTF-8'?><gpx version="1.1" creator="JPX - https://github.com/jenetics/jpx" xmlns="http://www.topografix.com/GPX/1/1"><trk><trkseg><trkpt lat="44.91901493127165" lon="11.991263557605752"><ele>-5.999999999999999</ele><time>2026-03-28T10:01:11.999Z</time></trkpt><trkpt lat="44.918946820770095" lon="11.991259431364828"><ele>-6.0</ele><time>2026-03-28T10:01:13.999Z</time></trkpt><trkpt lat="44.9188775096756" lon="11.991256705817932"><ele>-6.0</ele><time>2026-03-28T10:01:15.999Z</time></trkpt><trkpt lat="44.9188118363211" lon="11.991265521719903"><ele>-6.0</ele><time>2026-03-28T10:01:18Z</time></trkpt><trkpt lat="44.91871760426086" lon="11.991261141723736"><ele>-6.0</ele><time>2026-03-28T10:01:21Z</time></trkpt><trkpt lat="44.91864576493428" lon="11.991264488544818"><ele>-5.999999999999999</ele><time>2026-03-28T10:01:23Z</time></trkpt><trkpt lat="44.91856981371159" lon="11.991278330673293"><ele>-6.0</ele><time>2026-03-28T10:01:25Z</time></trkpt><trkpt lat="44.91848996372242" lon="11.991273154233879"><ele>-6.0</ele><time>2026-03-28T10:01:27Z</time></trkpt><trkpt lat="44.918406616747134" lon="11.991270281807427"><ele>-6.0</ele><time>2026-03-28T10:01:29Z</time></trkpt><trkpt lat="44.91832355205838" lon="11.991280345740526"><ele>-6.0</ele><time>2026-03-28T10:01:31Z</time></trkpt><trkpt lat="44.91824639616018" lon="11.991263966334634"><ele>-6.0</ele><time>2026-03-28T10:01:33Z</time></trkpt><trkpt lat="44.918160649786515" lon="11.991258071885293"><ele>-6.0</ele><time>2026-03-28T10:02:13Z</time></trkpt><trkpt lat="44.918093933660316" lon="11.991257269871877"><ele>-6.0</ele><time>2026-03-28T10:02:15Z</time></trkpt><trkpt lat="44.91801567012889" lon="11.99125875533072"><ele>-6.142857142857142</ele><time>2026-03-28T10:02:16.999Z</time></trkpt><trkpt lat="44.91794291280975" lon="11.991258916732919"><ele>-6.285714285714286</ele><time>2026-03-28T10:02:18.999Z</time></trkpt><trkpt lat="44.917876847327975" lon="11.991263677354647"><ele>-6.428571428571429</ele><time>2026-03-28T10:02:20.999Z</time></trkpt><trkpt lat="44.91780276668366" lon="11.99127443237892"><ele>-6.571428571428571</ele><time>2026-03-28T10:02:22.999Z</time></trkpt><trkpt lat="44.91772426446524" lon="11.991284800037379"><ele>-6.714285714285714</ele><time>2026-03-28T10:02:24.999Z</time></trkpt><trkpt lat="44.917649148382644" lon="11.991280599680136"><ele>-6.857142857142857</ele><time>2026-03-28T10:02:26.999Z</time></trkpt><trkpt lat="44.917577876802966" lon="11.991285278200108"><ele>-7.0</ele><time>2026-03-28T10:02:28.999Z</time></trkpt><trkpt lat="44.91751341295575" lon="11.991282622370026"><ele>-7.0</ele><time>2026-03-28T10:02:30.999Z</time></trkpt><trkpt lat="44.91744878505302" lon="11.991292148852057"><ele>-7.0</ele><time>2026-03-28T10:02:32.999Z</time></trkpt><trkpt lat="44.91738893601054" lon="11.991341856653474"><ele>-7.0</ele><time>2026-03-28T10:02:35.999Z</time></trkpt><trkpt lat="44.917337043612946" lon="11.991401226864069"><ele>-7.0</ele><time>2026-03-28T10:02:38.999Z</time></trkpt><trkpt lat="44.91726884351115" lon="11.991399495561598"><ele>-7.0</ele><time>2026-03-28T10:02:40.999Z</time></trkpt><trkpt lat="44.91719603839711" lon="11.99140192282058"><ele>-7.0</ele><time>2026-03-28T10:02:42.999Z</time></trkpt><trkpt lat="44.917122865289585" lon="11.991401068009223"><ele>-7.0</ele><time>2026-03-28T10:02:44.999Z</time></trkpt><trkpt lat="44.91705460388545" lon="11.991403866473304"><ele>-7.000000000000001</ele><time>2026-03-28T10:02:46.999Z</time></trkpt><trkpt lat="44.916981517933316" lon="11.991404629668104"><ele>-7.0</ele><time>2026-03-28T10:02:48.999Z</time></trkpt><trkpt lat="44.91691334737866" lon="11.991404647542012"><ele>-7.0</ele><time>2026-03-28T10:02:50.999Z</time></trkpt><trkpt lat="44.916838395869576" lon="11.991404664431334"><ele>-7.0</ele><time>2026-03-28T10:02:52.999Z</time></trkpt><trkpt lat="44.91676543230666" lon="11.99140808292234"><ele>-7.000000000000001</ele><time>2026-03-28T10:02:54.999Z</time></trkpt><trkpt lat="44.9166966225691" lon="11.991409816576788"><ele>-7.0</ele><time>2026-03-28T10:02:56.999Z</time></trkpt><trkpt lat="44.91659825759361" lon="11.991413644646315"><ele>-6.857142857142857</ele><time>2026-03-28T10:02:59.999Z</time></trkpt><trkpt lat="44.91652427733959" lon="11.991415046906633"><ele>-6.714285714285714</ele><time>2026-03-28T10:03:01.999Z</time></trkpt><trkpt lat="44.91645058835592" lon="11.991410425665517"><ele>-6.571428571428571</ele><time>2026-03-28T10:03:03.999Z</time></trkpt><trkpt lat="44.916380805370224" lon="11.991412913836049"><ele>-6.428571428571429</ele><time>2026-03-28T10:03:05.999Z</time></trkpt><trkpt lat="44.91630870888652" lon="11.991414695270974"><ele>-6.285714285714286</ele><time>2026-03-28T10:03:07.999Z</time></trkpt><trkpt lat="44.916244202345155" lon="11.99141742250509"><ele>-6.142857142857142</ele><time>2026-03-28T10:03:09.999Z</time></trkpt><trkpt lat="44.91617173531554" lon="11.99141447065533"><ele>-6.0</ele><time>2026-03-28T10:03:11.999Z</time></trkpt><trkpt lat="44.91609809697734" lon="11.991400057970836"><ele>-6.0</ele><time>2026-03-28T10:03:13.999Z</time></trkpt><trkpt lat="44.916004082599024" lon="11.991388870602583"><ele>-6.0</ele><time>2026-03-28T10:03:16.999Z</time></trkpt><trkpt lat="44.91591258172188" lon="11.991420959595683"><ele>-6.0</ele><time>2026-03-28T10:03:19.999Z</time></trkpt><trkpt lat="44.915838827663904" lon="11.991421169501841"><ele>-6.0</ele><time>2026-03-28T10:03:21.999Z</time></trkpt><trkpt lat="44.91576644149032" lon="11.991420158494343"><ele>-6.0</ele><time>2026-03-28T10:03:24Z</time></trkpt><trkpt lat="44.91569191391777" lon="11.991420676769078"><ele>-6.0</ele><time>2026-03-28T10:03:26Z</time></trkpt><trkpt lat="44.91561932824952" lon="11.991423983338718"><ele>-5.857142857142857</ele><time>2026-03-28T10:03:28Z</time></trkpt><trkpt lat="44.915544842872066" lon="11.991422984365444"><ele>-5.714285714285714</ele><time>2026-03-28T10:03:30Z</time></trkpt><trkpt lat="44.91546809173535" lon="11.991421392314356"><ele>-5.571428571428571</ele><time>2026-03-28T10:03:32Z</time></trkpt><trkpt lat="44.91539518135928" lon="11.991422666810205"><ele>-5.428571428571429</ele><time>2026-03-28T10:03:34Z</time></trkpt><trkpt lat="44.91532260242636" lon="11.991421846239533"><ele>-5.285714285714286</ele><time>2026-03-28T10:03:36Z</time></trkpt><trkpt lat="44.91525212790154" lon="11.991425931629458"><ele>-5.142857142857142</ele><time>2026-03-28T10:03:38Z</time></trkpt><trkpt lat="44.91518282649712" lon="11.99142660000759"><ele>-5.0</ele><time>2026-03-28T10:03:40Z</time></trkpt><trkpt lat="44.91511382367809" lon="11.991429825577749"><ele>-4.857142857142857</ele><time>2026-03-28T10:03:42Z</time></trkpt><trkpt lat="44.91504420789323" lon="11.991430010039561"><ele>-4.714285714285714</ele><time>2026-03-28T10:03:44Z</time></trkpt><trkpt lat="44.91496996629485" lon="11.99143184711308"><ele>-4.571428571428571</ele><time>2026-03-28T10:03:46Z</time></trkpt><trkpt lat="44.914895532422356" lon="11.991433542629487"><ele>-4.428571428571429</ele><time>2026-03-28T10:03:48Z</time></trkpt><trkpt lat="44.914825331059426" lon="11.991431094454843"><ele>-4.285714285714286</ele><time>2026-03-28T10:03:50Z</time></trkpt><trkpt lat="44.91475433844507" lon="11.991439558509567"><ele>-4.142857142857142</ele><time>2026-03-28T10:03:52Z</time></trkpt><trkpt lat="44.91468056611764" lon="11.991435124474098"><ele>-4.0</ele><time>2026-03-28T10:03:54Z</time></trkpt><trkpt lat="44.91460921969599" lon="11.991439919960413"><ele>-3.9999999999999996</ele><time>2026-03-28T10:03:56Z</time></trkpt><trkpt lat="44.91453751512362" lon="11.991441312208075"><ele>-4.0</ele><time>2026-03-28T10:03:58Z</time></trkpt><trkpt lat="44.91446627003054" lon="11.991442099880025"><ele>-4.0</ele><time>2026-03-28T10:04:00Z</time></trkpt><trkpt lat="44.91440142810931" lon="11.991440543811477"><ele>-4.0</ele><time>2026-03-28T10:04:02Z</time></trkpt><trkpt lat="44.91430366964445" lon="11.99144325290093"><ele>-3.9999999999999996</ele><time>2026-03-28T10:04:05Z</time></trkpt><trkpt lat="44.914231944889394" lon="11.99144365347548"><ele>-4.0</ele><time>2026-03-28T10:04:07Z</time></trkpt><trkpt lat="44.914159587020244" lon="11.991446965475202"><ele>-4.166666666666666</ele><time>2026-03-28T10:04:09Z</time></trkpt><trkpt lat="44.914084565739444" lon="11.99144501987011"><ele>-4.333333333333333</ele><time>2026-03-28T10:04:11Z</time></trkpt><trkpt lat="44.914011907511416" lon="11.991444384267233"><ele>-4.5</ele><time>2026-03-28T10:04:13Z</time></trkpt><trkpt lat="44.91393781041416" lon="11.99144612650137"><ele>-4.666666666666667</ele><time>2026-03-28T10:04:15Z</time></trkpt><trkpt lat="44.91386688010432" lon="11.99144747515676"><ele>-4.833333333333334</ele><time>2026-03-28T10:04:17Z</time></trkpt><trkpt lat="44.91377789595161" lon="11.991448435254354"><ele>-5.0</ele><time>2026-03-28T10:04:20Z</time></trkpt><trkpt lat="44.913694415142075" lon="11.991445992615057"><ele>-5.0</ele><time>2026-03-28T10:04:22.999Z</time></trkpt><trkpt lat="44.913610228566235" lon="11.9914653162406"><ele>-5.0</ele><time>2026-03-28T10:04:25.999Z</time></trkpt><trkpt lat="44.913541434992226" lon="11.991390968056246"><ele>-5.0</ele><time>2026-03-28T10:04:27.999Z</time></trkpt><trkpt lat="44.91347241545476" lon="11.991325305614412"><ele>-5.0</ele><time>2026-03-28T10:04:29.999Z</time></trkpt><trkpt lat="44.913395327544194" lon="11.991319511925434"><ele>-5.0</ele><time>2026-03-28T10:04:31.999Z</time></trkpt><trkpt lat="44.913313992173364" lon="11.991329718431432"><ele>-5.0</ele><time>2026-03-28T10:04:33.999Z</time></trkpt><trkpt lat="44.91324381221012" lon="11.991325181936766"><ele>-5.0</ele><time>2026-03-28T10:04:35.999Z</time></trkpt><trkpt lat="44.913170743904764" lon="11.991330986620142"><ele>-5.0</ele><time>2026-03-28T10:04:37.999Z</time></trkpt><trkpt lat="44.91308990689297" lon="11.99133774141881"><ele>-5.0</ele><time>2026-03-28T10:04:39.999Z</time></trkpt><trkpt lat="44.913005948161455" lon="11.991335269330477"><ele>-5.0</ele><time>2026-03-28T10:04:41.999Z</time></trkpt><trkpt lat="44.91291959921404" lon="11.991333379034357"><ele>-5.0</ele><time>2026-03-28T10:04:43.999Z</time></trkpt><trkpt lat="44.9128377486619" lon="11.991325451142629"><ele>-5.0</ele><time>2026-03-28T10:04:45.999Z</time></trkpt><trkpt lat="44.912758451033014" lon="11.991319026941385"><ele>-5.0</ele><time>2026-03-28T10:04:47.999Z</time></trkpt><trkpt lat="44.912686534630275" lon="11.991319337892248"><ele>-5.0</ele><time>2026-03-28T10:04:49.999Z</time></trkpt><trkpt lat="44.91260536764799" lon="11.99131224610852"><ele>-5.0</ele><time>2026-03-28T10:04:51.999Z</time></trkpt><trkpt lat="44.91252393071356" lon="11.991305789041892"><ele>-5.0</ele><time>2026-03-28T10:04:53.999Z</time></trkpt><trkpt lat="44.912446343927854" lon="11.99130078880111"><ele>-5.0</ele><time>2026-03-28T10:04:55.999Z</time></trkpt><trkpt lat="44.91237542259052" lon="11.991300876815556"><ele>-5.0</ele><time>2026-03-28T10:04:57.999Z</time></trkpt><trkpt lat="44.91229592510037" lon="11.991296773598457"><ele>-5.166666666666667</ele><time>2026-03-28T10:04:59.999Z</time></trkpt><trkpt lat="44.912214151811476" lon="11.991289522771567"><ele>-5.333333333333334</ele><time>2026-03-28T10:05:01.999Z</time></trkpt><trkpt lat="44.91213319227952" lon="11.991284323702523"><ele>-5.5</ele><time>2026-03-28T10:05:03.999Z</time></trkpt><trkpt lat="44.91204955803563" lon="11.991280369428926"><ele>-5.666666666666667</ele><time>2026-03-28T10:05:05.999Z</time></trkpt><trkpt lat="44.91196875076614" lon="11.991274813409268"><ele>-5.833333333333333</ele><time>2026-03-28T10:05:07.999Z</time></trkpt><trkpt lat="44.91188514236866" lon="11.991272733112442"><ele>-6.0</ele><time>2026-03-28T10:05:09.999Z</time></trkpt><trkpt lat="44.91180342492001" lon="11.991266873373345"><ele>-6.166666666666667</ele><time>2026-03-28T10:05:11.999Z</time></trkpt><trkpt lat="44.91172221226023" lon="11.991257690085376"><ele>-6.333333333333334</ele><time>2026-03-28T10:05:13.999Z</time></trkpt><trkpt lat="44.91163834692386" lon="11.991258342111792"><ele>-6.5</ele><time>2026-03-28T10:05:15.999Z</time></trkpt><trkpt lat="44.91155266560981" lon="11.991256238698005"><ele>-6.666666666666667</ele><time>2026-03-28T10:05:17.999Z</time></trkpt><trkpt lat="44.91146912348696" lon="11.991250239953537"><ele>-6.833333333333334</ele><time>2026-03-28T10:05:19.999Z</time></trkpt><trkpt lat="44.911386593147284" lon="11.991244793688955"><ele>-7.0</ele><time>2026-03-28T10:05:21.999Z</time></trkpt><trkpt lat="44.911304254292894" lon="11.991242501736632"><ele>-7.000000000000001</ele><time>2026-03-28T10:05:23.999Z</time></trkpt><trkpt lat="44.91121793611356" lon="11.991236605886415"><ele>-7.0</ele><time>2026-03-28T10:05:25.999Z</time></trkpt><trkpt lat="44.911131950616145" lon="11.991231695771157"><ele>-7.0</ele><time>2026-03-28T10:05:27.999Z</time></trkpt><trkpt lat="44.91104657410811" lon="11.991227950683324"><ele>-7.0</ele><time>2026-03-28T10:05:30Z</time></trkpt><trkpt lat="44.910963169732575" lon="11.99121967532146"><ele>-7.000000000000001</ele><time>2026-03-28T10:05:32Z</time></trkpt><trkpt lat="44.91088228033904" lon="11.991218154982214"><ele>-7.0</ele><time>2026-03-28T10:05:34Z</time></trkpt><trkpt lat="44.91079996973391" lon="11.991209728149085"><ele>-7.166666666666667</ele><time>2026-03-28T10:05:36Z</time></trkpt><trkpt lat="44.9107192384082" lon="11.991200624152858"><ele>-7.333333333333334</ele><time>2026-03-28T10:05:38Z</time></trkpt><trkpt lat="44.910633164846125" lon="11.991199161406197"><ele>-7.5</ele><time>2026-03-28T10:05:40Z</time></trkpt><trkpt lat="44.91054916774632" lon="11.991201177637091"><ele>-7.666666666666666</ele><time>2026-03-28T10:05:42Z</time></trkpt><trkpt lat="44.91046254032879" lon="11.991196118381435"><ele>-7.833333333333333</ele><time>2026-03-28T10:05:44Z</time></trkpt><trkpt lat="44.91037557109806" lon="11.99118580656668"><ele>-8.0</ele><time>2026-03-28T10:05:46Z</time></trkpt><trkpt lat="44.910293292817755" lon="11.991177728393549"><ele>-7.999999999999999</ele><time>2026-03-28T10:05:48Z</time></trkpt><trkpt lat="44.91021187979789" lon="11.991173985673333"><ele>-8.0</ele><time>2026-03-28T10:05:50Z</time></trkpt><trkpt lat="44.91013199090122" lon="11.991175135033227"><ele>-8.0</ele><time>2026-03-28T10:05:52Z</time></trkpt><trkpt lat="44.91005005451622" lon="11.99116441899352"><ele>-8.0</ele><time>2026-03-28T10:05:54Z</time></trkpt><trkpt lat="44.90996645570217" lon="11.991155527761002"><ele>-7.999999999999999</ele><time>2026-03-28T10:05:56Z</time></trkpt><trkpt lat="44.90988669259401" lon="11.991133497575724"><ele>-8.0</ele><time>2026-03-28T10:05:58Z</time></trkpt><trkpt lat="44.90980213552504" lon="11.991130181327716"><ele>-7.666666666666666</ele><time>2026-03-28T10:06:00Z</time></trkpt><trkpt lat="44.90971969309094" lon="11.991127369158225"><ele>-7.333333333333333</ele><time>2026-03-28T10:06:02Z</time></trkpt><trkpt lat="44.909637175991676" lon="11.991122583743147"><ele>-7.0</ele><time>2026-03-28T10:06:04Z</time></trkpt><trkpt lat="44.90955390523997" lon="11.991125195644877"><ele>-6.666666666666666</ele><time>2026-03-28T10:06:06Z</time></trkpt><trkpt lat="44.90947135201082" lon="11.991127535512675"><ele>-6.333333333333333</ele><time>2026-03-28T10:06:08Z</time></trkpt><trkpt lat="44.90939423255362" lon="11.991104305395524"><ele>-6.0</ele><time>2026-03-28T10:06:10Z</time></trkpt><trkpt lat="44.909313693076896" lon="11.991100539859021"><ele>-5.666666666666667</ele><time>2026-03-28T10:06:12Z</time></trkpt><trkpt lat="44.90923237256536" lon="11.991103571260217"><ele>-5.333333333333333</ele><time>2026-03-28T10:06:14Z</time></trkpt><trkpt lat="44.909150741911496" lon="11.991092946393332"><ele>-5.0</ele><time>2026-03-28T10:06:16Z</time></trkpt><trkpt lat="44.90906972273014" lon="11.991087171055439"><ele>-4.666666666666666</ele><time>2026-03-28T10:06:18Z</time></trkpt><trkpt lat="44.908987086134836" lon="11.99108692016701"><ele>-4.333333333333333</ele><time>2026-03-28T10:06:20Z</time></trkpt><trkpt lat="44.90890559151514" lon="11.991078912586993"><ele>-4.0</ele><time>2026-03-28T10:06:22Z</time></trkpt><trkpt lat="44.908827489892985" lon="11.99107344678482"><ele>-3.9999999999999996</ele><time>2026-03-28T10:06:24Z</time></trkpt><trkpt lat="44.90874431615591" lon="11.991069562432209"><ele>-4.0</ele><time>2026-03-28T10:06:26Z</time></trkpt><trkpt lat="44.908659640288334" lon="11.991057088031228"><ele>-4.0</ele><time>2026-03-28T10:06:28Z</time></trkpt><trkpt lat="44.908579057265385" lon="11.991047006335826"><ele>-4.0</ele><time>2026-03-28T10:06:29.999Z</time></trkpt><trkpt lat="44.90849685704844" lon="11.991039441316984"><ele>-3.9999999999999996</ele><time>2026-03-28T10:06:31.999Z</time></trkpt><trkpt lat="44.90841748864625" lon="11.991039100269921"><ele>-4.0</ele><time>2026-03-28T10:06:33.999Z</time></trkpt><trkpt lat="44.908354755003515" lon="11.991057381979653"><ele>-3.9999999999999996</ele><time>2026-03-28T10:06:35.999Z</time></trkpt><trkpt lat="44.90827882959229" lon="11.991055411841224"><ele>-4.0</ele><time>2026-03-28T10:06:38.999Z</time></trkpt><trkpt lat="44.90824096741076" lon="11.991157584021499"><ele>-4.0</ele><time>2026-03-28T10:06:41.999Z</time></trkpt><trkpt lat="44.908266162013284" lon="11.991262277998521"><ele>-4.0</ele><time>2026-03-28T10:06:43.999Z</time></trkpt><trkpt lat="44.908279635750354" lon="11.991365532726446"><ele>-3.9999999999999996</ele><time>2026-03-28T10:06:45.999Z</time></trkpt><trkpt lat="44.90829555614175" lon="11.991472656921264"><ele>-4.0</ele><time>2026-03-28T10:06:47.999Z</time></trkpt><trkpt lat="44.90831223700081" lon="11.991571165468029"><ele>-4.166666666666666</ele><time>2026-03-28T10:06:49.999Z</time></trkpt><trkpt lat="44.90834030531487" lon="11.99170312073146"><ele>-4.333333333333333</ele><time>2026-03-28T10:06:52.999Z</time></trkpt><trkpt lat="44.90835827819684" lon="11.991811500804255"><ele>-4.5</ele><time>2026-03-28T10:06:54.999Z</time></trkpt><trkpt lat="44.90837556606022" lon="11.99192483576544"><ele>-4.666666666666667</ele><time>2026-03-28T10:06:56.999Z</time></trkpt><trkpt lat="44.90839344563972" lon="11.992039371791297"><ele>-4.833333333333334</ele><time>2026-03-28T10:06:58.999Z</time></trkpt><trkpt lat="44.90841787702935" lon="11.992150829907022"><ele>-5.0</ele><time>2026-03-28T10:07:00.999Z</time></trkpt><trkpt lat="44.90843472910969" lon="11.992266789294046"><ele>-5.333333333333334</ele><time>2026-03-28T10:07:02.999Z</time></trkpt><trkpt lat="44.90845570652778" lon="11.99238365779009"><ele>-5.666666666666667</ele><time>2026-03-28T10:07:04.999Z</time></trkpt><trkpt lat="44.908474563286" lon="11.992499312431903"><ele>-6.0</ele><time>2026-03-28T10:07:06.999Z</time></trkpt><trkpt lat="44.9084960434691" lon="11.992615544544403"><ele>-6.333333333333334</ele><time>2026-03-28T10:07:08.999Z</time></trkpt><trkpt lat="44.90851898783172" lon="11.992734393732553"><ele>-6.666666666666667</ele><time>2026-03-28T10:07:10.999Z</time></trkpt><trkpt lat="44.90853939502686" lon="11.992863710327471"><ele>-7.0</ele><time>2026-03-28T10:07:12.999Z</time></trkpt><trkpt lat="44.908570125463356" lon="11.993003431579966"><ele>-7.000000000000001</ele><time>2026-03-28T10:07:14.999Z</time></trkpt><trkpt lat="44.90861508908696" lon="11.993134227860471"><ele>-7.0</ele><time>2026-03-28T10:07:16.999Z</time></trkpt><trkpt lat="44.90863693148451" lon="11.993257684846194"><ele>-7.0</ele><time>2026-03-28T10:07:18.999Z</time></trkpt><trkpt lat="44.90865786726757" lon="11.993375635906526"><ele>-7.0</ele><time>2026-03-28T10:07:20.999Z</time></trkpt><trkpt lat="44.908678357793484" lon="11.993491185744386"><ele>-7.000000000000001</ele><time>2026-03-28T10:07:22.999Z</time></trkpt><trkpt lat="44.908698377910774" lon="11.993604082909615"><ele>-7.0</ele><time>2026-03-28T10:07:24.999Z</time></trkpt><trkpt lat="44.908718256898844" lon="11.993716184157801"><ele>-6.833333333333334</ele><time>2026-03-28T10:07:26.999Z</time></trkpt><trkpt lat="44.908739004758985" lon="11.993833185030434"><ele>-6.666666666666667</ele><time>2026-03-28T10:07:28.999Z</time></trkpt><trkpt lat="44.9087591085331" lon="11.993946553921667"><ele>-6.5</ele><time>2026-03-28T10:07:30.999Z</time></trkpt><trkpt lat="44.908779582554196" lon="11.994062010605253"><ele>-6.333333333333334</ele><time>2026-03-28T10:07:32.999Z</time></trkpt><trkpt lat="44.90880054273694" lon="11.994180342998206"><ele>-6.166666666666667</ele><time>2026-03-28T10:07:35Z</time></trkpt><trkpt lat="44.90880976163073" lon="11.994304947550855"><ele>-6.0</ele><time>2026-03-28T10:07:37Z</time></trkpt><trkpt lat="44.9088291697686" lon="11.994421427888895"><ele>-6.0</ele><time>2026-03-28T10:07:39Z</time></trkpt><trkpt lat="44.908850222204435" lon="11.994537407833976"><ele>-6.0</ele><time>2026-03-28T10:07:41Z</time></trkpt><trkpt lat="44.908873286999444" lon="11.99465331466676"><ele>-6.0</ele><time>2026-03-28T10:07:43Z</time></trkpt><trkpt lat="44.90889325918602" lon="11.994783047124354"><ele>-6.0</ele><time>2026-03-28T10:07:45Z</time></trkpt><trkpt lat="44.90891874316915" lon="11.994902287377421"><ele>-6.0</ele><time>2026-03-28T10:07:47Z</time></trkpt><trkpt lat="44.90893466425841" lon="11.995017407589973"><ele>-6.0</ele><time>2026-03-28T10:07:49Z</time></trkpt><trkpt lat="44.908950308153244" lon="11.99512986357996"><ele>-6.0</ele><time>2026-03-28T10:07:51Z</time></trkpt><trkpt lat="44.908971293659675" lon="11.995243295610175"><ele>-6.0</ele><time>2026-03-28T10:07:53Z</time></trkpt><trkpt lat="44.90899214246382" lon="11.995349811019304"><ele>-6.0</ele><time>2026-03-28T10:07:55Z</time></trkpt><trkpt lat="44.909008399926236" lon="11.995451970625895"><ele>-6.0</ele><time>2026-03-28T10:07:57Z</time></trkpt><trkpt lat="44.90903190804898" lon="11.99556039259819"><ele>-6.0</ele><time>2026-03-28T10:07:59Z</time></trkpt><trkpt lat="44.90905239405567" lon="11.995676275673858"><ele>-6.0</ele><time>2026-03-28T10:08:01Z</time></trkpt><trkpt lat="44.90907105031223" lon="11.9957939703438"><ele>-6.166666666666667</ele><time>2026-03-28T10:08:03Z</time></trkpt><trkpt lat="44.90908860846309" lon="11.99591427691561"><ele>-6.333333333333334</ele><time>2026-03-28T10:08:05Z</time></trkpt><trkpt lat="44.909106245034046" lon="11.99602553406739"><ele>-6.5</ele><time>2026-03-28T10:08:07Z</time></trkpt><trkpt lat="44.90912511506098" lon="11.99613636614929"><ele>-6.666666666666667</ele><time>2026-03-28T10:08:09Z</time></trkpt><trkpt lat="44.909144830081104" lon="11.996249587780285"><ele>-6.833333333333334</ele><time>2026-03-28T10:08:11Z</time></trkpt><trkpt lat="44.90916298958807" lon="11.996359898080776"><ele>-7.0</ele><time>2026-03-28T10:08:13Z</time></trkpt><trkpt lat="44.90918385740492" lon="11.996473933437937"><ele>-7.0</ele><time>2026-03-28T10:08:15Z</time></trkpt><trkpt lat="44.90921924208415" lon="11.996589414102884"><ele>-6.999999999999999</ele><time>2026-03-28T10:08:17Z</time></trkpt><trkpt lat="44.90922646913217" lon="11.996723675792827"><ele>-6.999999999999999</ele><time>2026-03-28T10:08:19Z</time></trkpt><trkpt lat="44.90925170935792" lon="11.996849390124579"><ele>-7.0</ele><time>2026-03-28T10:08:21Z</time></trkpt><trkpt lat="44.90927343280882" lon="11.996976240651554"><ele>-7.0</ele><time>2026-03-28T10:08:23Z</time></trkpt><trkpt lat="44.909296180307486" lon="11.997098743669842"><ele>-7.0</ele><time>2026-03-28T10:08:25Z</time></trkpt><trkpt lat="44.90931840050528" lon="11.997224633722736"><ele>-6.999999999999999</ele><time>2026-03-28T10:08:27Z</time></trkpt><trkpt lat="44.90934420663117" lon="11.997345698203826"><ele>-6.999999999999999</ele><time>2026-03-28T10:08:29Z</time></trkpt><trkpt lat="44.909361800068076" lon="11.997453131971907"><ele>-7.0</ele><time>2026-03-28T10:08:31Z</time></trkpt><trkpt lat="44.909387608652125" lon="11.997553384440605"><ele>-7.0</ele><time>2026-03-28T10:08:33Z</time></trkpt><trkpt lat="44.909233082529774" lon="11.997564402915453"><ele>-6.833333333333334</ele><time>2026-03-28T10:08:37Z</time></trkpt><trkpt lat="44.90915199593534" lon="11.997564656266428"><ele>-6.666666666666667</ele><time>2026-03-28T10:08:38.999Z</time></trkpt><trkpt lat="44.90907677887126" lon="11.997565691601503"><ele>-6.5</ele><time>2026-03-28T10:08:40.999Z</time></trkpt><trkpt lat="44.90900008346756" lon="11.997566747286381"><ele>-6.333333333333334</ele><time>2026-03-28T10:08:42.999Z</time></trkpt><trkpt lat="44.90892342192888" lon="11.997568230954256"><ele>-6.166666666666667</ele><time>2026-03-28T10:08:44.999Z</time></trkpt><trkpt lat="44.90884768228024" lon="11.997587994804666"><ele>-6.0</ele><time>2026-03-28T10:08:46.999Z</time></trkpt><trkpt lat="44.9087674352327" lon="11.99757212535898"><ele>-6.0</ele><time>2026-03-28T10:08:48.999Z</time></trkpt><trkpt lat="44.908691310933214" lon="11.997597316926669"><ele>-6.0</ele><time>2026-03-28T10:08:50.999Z</time></trkpt><trkpt lat="44.9086085484346" lon="11.997576092169014"><ele>-6.0</ele><time>2026-03-28T10:08:52.999Z</time></trkpt><trkpt lat="44.90852981474847" lon="11.997578057856332"><ele>-6.0</ele><time>2026-03-28T10:08:54.999Z</time></trkpt><trkpt lat="44.90844833108762" lon="11.99758009219845"><ele>-6.0</ele><time>2026-03-28T10:08:56.999Z</time></trkpt><trkpt lat="44.90837561838259" lon="11.997581907563653"><ele>-6.0</ele><time>2026-03-28T10:08:58.999Z</time></trkpt><trkpt lat="44.90830536173599" lon="11.997582624679467"><ele>-6.0</ele><time>2026-03-28T10:09:00.999Z</time></trkpt><trkpt lat="44.90823139015987" lon="11.997606492458594"><ele>-6.0</ele><time>2026-03-28T10:09:02.999Z</time></trkpt><trkpt lat="44.908151021484485" lon="11.99758395922597"><ele>-6.0</ele><time>2026-03-28T10:09:04.999Z</time></trkpt><trkpt lat="44.90807128969921" lon="11.997584648648276"><ele>-6.0</ele><time>2026-03-28T10:09:06.999Z</time></trkpt><trkpt lat="44.907991420413865" lon="11.99758533926099"><ele>-6.0</ele><time>2026-03-28T10:09:08.999Z</time></trkpt><trkpt lat="44.90790672112986" lon="11.997586063762649"><ele>-6.0</ele><time>2026-03-28T10:09:10.999Z</time></trkpt><trkpt lat="44.90781248173847" lon="11.997588599229799"><ele>-6.0</ele><time>2026-03-28T10:09:12.999Z</time></trkpt><trkpt lat="44.90772100936926" lon="11.997591060251937"><ele>-6.0</ele><time>2026-03-28T10:09:14.999Z</time></trkpt><trkpt lat="44.90763190510514" lon="11.997593457561598"><ele>-6.0</ele><time>2026-03-28T10:09:16.999Z</time></trkpt><trkpt lat="44.90753892485006" lon="11.997595959153195"><ele>-6.0</ele><time>2026-03-28T10:09:18.999Z</time></trkpt><trkpt lat="44.907440125268714" lon="11.997614848309986"><ele>-6.0</ele><time>2026-03-28T10:09:20.999Z</time></trkpt><trkpt lat="44.90734885682068" lon="11.997601072845423"><ele>-6.0</ele><time>2026-03-28T10:09:22.999Z</time></trkpt><trkpt lat="44.907258420760094" lon="11.997626339653257"><ele>-6.0</ele><time>2026-03-28T10:09:24.999Z</time></trkpt><trkpt lat="44.90716567099902" lon="11.997606001377221"><ele>-6.0</ele><time>2026-03-28T10:09:26.999Z</time></trkpt><trkpt lat="44.907075944842" lon="11.997631522845435"><ele>-6.0</ele><time>2026-03-28T10:09:28.999Z</time></trkpt><trkpt lat="44.90698824937766" lon="11.997610774825487"><ele>-6.0</ele><time>2026-03-28T10:09:30.999Z</time></trkpt><trkpt lat="44.90689698850337" lon="11.997613230158747"><ele>-6.0</ele><time>2026-03-28T10:09:32.999Z</time></trkpt><trkpt lat="44.90680848429422" lon="11.997615611325381"><ele>-6.0</ele><time>2026-03-28T10:09:34.999Z</time></trkpt><trkpt lat="44.906720022515835" lon="11.99761799134967"><ele>-6.0</ele><time>2026-03-28T10:09:36.999Z</time></trkpt><trkpt lat="44.90663029025839" lon="11.997620405554425"><ele>-6.0</ele><time>2026-03-28T10:09:38.999Z</time></trkpt><trkpt lat="44.906534757354805" lon="11.99762297582353"><ele>-6.0</ele><time>2026-03-28T10:09:41Z</time></trkpt><trkpt lat="44.90644962459035" lon="11.997644379677697"><ele>-6.0</ele><time>2026-03-28T10:09:43Z</time></trkpt><trkpt lat="44.90635741382906" lon="11.99762774717118"><ele>-6.0</ele><time>2026-03-28T10:09:45Z</time></trkpt><trkpt lat="44.9062626601298" lon="11.997630296474517"><ele>-6.0</ele><time>2026-03-28T10:09:47Z</time></trkpt><trkpt lat="44.90616822660195" lon="11.997632837163758"><ele>-6.0</ele><time>2026-03-28T10:09:49Z</time></trkpt><trkpt lat="44.90607905858349" lon="11.997634827509822"><ele>-6.0</ele><time>2026-03-28T10:09:51Z</time></trkpt><trkpt lat="44.905995432737186" lon="11.997636670334023"><ele>-6.0</ele><time>2026-03-28T10:09:53Z</time></trkpt><trkpt lat="44.905924406659345" lon="11.99763823550295"><ele>-6.0</ele><time>2026-03-28T10:09:55Z</time></trkpt><trkpt lat="44.90585340889234" lon="11.997639800049313"><ele>-5.999999999999999</ele><time>2026-03-28T10:09:57Z</time></trkpt><trkpt lat="44.90577551477963" lon="11.99764151656516"><ele>-6.0</ele><time>2026-03-28T10:09:59Z</time></trkpt><trkpt lat="44.905693483913204" lon="11.997643324243482"><ele>-6.0</ele><time>2026-03-28T10:10:01Z</time></trkpt><trkpt lat="44.905623645893556" lon="11.99764486323117"><ele>-6.0</ele><time>2026-03-28T10:10:03Z</time></trkpt><trkpt lat="44.90555175290121" lon="11.997646447502584"><ele>-6.0</ele><time>2026-03-28T10:10:05Z</time></trkpt><trkpt lat="44.905482758281615" lon="11.997647967904983"><ele>-5.999999999999999</ele><time>2026-03-28T10:10:07Z</time></trkpt><trkpt lat="44.90541134068826" lon="11.997649541701076"><ele>-6.0</ele><time>2026-03-28T10:10:09Z</time></trkpt><trkpt lat="44.90531748892761" lon="11.997651609869534"><ele>-6.0</ele><time>2026-03-28T10:10:12Z</time></trkpt><trkpt lat="44.90524126951276" lon="11.997653289480319"><ele>-6.0</ele><time>2026-03-28T10:10:14Z</time></trkpt><trkpt lat="44.905148307454525" lon="11.997655338043522"><ele>-6.0</ele><time>2026-03-28T10:10:17Z</time></trkpt><trkpt lat="44.905067515124706" lon="11.997657118426291"><ele>-6.0</ele><time>2026-03-28T10:10:20Z</time></trkpt><trkpt lat="44.9049937606681" lon="11.997658743719223"><ele>-6.0</ele><time>2026-03-28T10:10:22Z</time></trkpt><trkpt lat="44.904919473399936" lon="11.997680266480474"><ele>-6.0</ele><time>2026-03-28T10:10:24Z</time></trkpt><trkpt lat="44.904838867473885" lon="11.99766190878558"><ele>-5.833333333333333</ele><time>2026-03-28T10:10:26Z</time></trkpt><trkpt lat="44.904750804350684" lon="11.997663638148314"><ele>-5.666666666666667</ele><time>2026-03-28T10:10:28Z</time></trkpt><trkpt lat="44.90466330798354" lon="11.997665356376686"><ele>-5.5</ele><time>2026-03-28T10:10:30Z</time></trkpt><trkpt lat="44.904581732123425" lon="11.997666958343059"><ele>-5.333333333333334</ele><time>2026-03-28T10:10:32Z</time></trkpt><trkpt lat="44.90450555865518" lon="11.997668454216562"><ele>-5.166666666666667</ele><time>2026-03-28T10:10:34Z</time></trkpt><trkpt lat="44.90442354385635" lon="11.997670064801804"><ele>-5.0</ele><time>2026-03-28T10:10:36Z</time></trkpt><trkpt lat="44.90433618959425" lon="11.997671780243946"><ele>-5.0</ele><time>2026-03-28T10:10:38Z</time></trkpt><trkpt lat="44.90425454196511" lon="11.997673383616318"><ele>-5.0</ele><time>2026-03-28T10:10:40Z</time></trkpt><trkpt lat="44.90416720451052" lon="11.997675098727864"><ele>-5.0</ele><time>2026-03-28T10:10:42Z</time></trkpt><trkpt lat="44.90407942635059" lon="11.997676824434274"><ele>-5.0</ele><time>2026-03-28T10:10:43.999Z</time></trkpt><trkpt lat="44.90398795393295" lon="11.997678620741915"><ele>-5.0</ele><time>2026-03-28T10:10:45.999Z</time></trkpt><trkpt lat="44.90390065057503" lon="11.997680335181977"><ele>-5.0</ele><time>2026-03-28T10:10:47.999Z</time></trkpt><trkpt lat="44.90381070731504" lon="11.997682101465859"><ele>-5.0</ele><time>2026-03-28T10:10:49.999Z</time></trkpt><trkpt lat="44.90371877431919" lon="11.997683906828087"><ele>-5.0</ele><time>2026-03-28T10:10:51.999Z</time></trkpt><trkpt lat="44.90362850279619" lon="11.99768567954973"><ele>-5.0</ele><time>2026-03-28T10:10:53.999Z</time></trkpt><trkpt lat="44.90353903362915" lon="11.997687436524922"><ele>-5.0</ele><time>2026-03-28T10:10:55.999Z</time></trkpt><trkpt lat="44.90345344945142" lon="11.997689117201451"><ele>-5.0</ele><time>2026-03-28T10:10:57.999Z</time></trkpt><trkpt lat="44.90337475261455" lon="11.997690662631529"><ele>-5.0</ele><time>2026-03-28T10:10:59.999Z</time></trkpt><trkpt lat="44.90329183431601" lon="11.997692192433254"><ele>-5.166666666666667</ele><time>2026-03-28T10:11:01.999Z</time></trkpt><trkpt lat="44.903208104041944" lon="11.997716502852674"><ele>-5.333333333333334</ele><time>2026-03-28T10:11:03.999Z</time></trkpt><trkpt lat="44.90313258738044" lon="11.99769387851679"><ele>-5.5</ele><time>2026-03-28T10:11:05.999Z</time></trkpt><trkpt lat="44.903048815450276" lon="11.997694765482041"><ele>-5.666666666666667</ele><time>2026-03-28T10:11:07.999Z</time></trkpt><trkpt lat="44.90296268535429" lon="11.997695677414756"><ele>-5.833333333333333</ele><time>2026-03-28T10:11:09.999Z</time></trkpt><trkpt lat="44.90287823994664" lon="11.997719822374137"><ele>-6.0</ele><time>2026-03-28T10:11:11.999Z</time></trkpt><trkpt lat="44.9027999907666" lon="11.997720816689016"><ele>-6.0</ele><time>2026-03-28T10:11:13.999Z</time></trkpt><trkpt lat="44.90271276331556" lon="11.997698323556637"><ele>-6.0</ele><time>2026-03-28T10:11:15.999Z</time></trkpt><trkpt lat="44.902621519990156" lon="11.997723186390791"><ele>-6.0</ele><time>2026-03-28T10:11:17.999Z</time></trkpt><trkpt lat="44.90254279645226" lon="11.997722149943707"><ele>-6.0</ele><time>2026-03-28T10:11:19.999Z</time></trkpt><trkpt lat="44.90245439602875" lon="11.99772804730802"><ele>-6.0</ele><time>2026-03-28T10:11:21.999Z</time></trkpt><trkpt lat="44.902364324000956" lon="11.99770772166965"><ele>-6.0</ele><time>2026-03-28T10:11:23.999Z</time></trkpt><trkpt lat="44.90227447373835" lon="11.997710350114522"><ele>-6.0</ele><time>2026-03-28T10:11:25.999Z</time></trkpt><trkpt lat="44.90218785631893" lon="11.997712883987948"><ele>-6.0</ele><time>2026-03-28T10:11:27.999Z</time></trkpt><trkpt lat="44.90210656859419" lon="11.99773761110292"><ele>-6.0</ele><time>2026-03-28T10:11:29.999Z</time></trkpt><trkpt lat="44.90201977190533" lon="11.997717801066285"><ele>-6.0</ele><time>2026-03-28T10:11:31.999Z</time></trkpt><trkpt lat="44.90192947502553" lon="11.997720442577213"><ele>-6.0</ele><time>2026-03-28T10:11:33.999Z</time></trkpt><trkpt lat="44.90183549745309" lon="11.997723191763463"><ele>-6.0</ele><time>2026-03-28T10:11:35.999Z</time></trkpt><trkpt lat="44.90174822872048" lon="11.997744807216264"><ele>-5.833333333333333</ele><time>2026-03-28T10:11:37.999Z</time></trkpt><trkpt lat="44.90165553167214" lon="11.997751818726858"><ele>-5.666666666666667</ele><time>2026-03-28T10:11:39.999Z</time></trkpt><trkpt lat="44.901565603471674" lon="11.997731087137343"><ele>-5.5</ele><time>2026-03-28T10:11:41.999Z</time></trkpt><trkpt lat="44.901492824265105" lon="11.99773321619312"><ele>-5.333333333333334</ele><time>2026-03-28T10:11:43.999Z</time></trkpt><trkpt lat="44.90142401813684" lon="11.997757320251846"><ele>-5.166666666666667</ele><time>2026-03-28T10:11:45.999Z</time></trkpt><trkpt lat="44.901344778857485" lon="11.997756682963178"><ele>-5.0</ele><time>2026-03-28T10:11:48Z</time></trkpt><trkpt lat="44.90125685328712" lon="11.997737477181643"><ele>-5.0</ele><time>2026-03-28T10:11:50Z</time></trkpt><trkpt lat="44.90116955308651" lon="11.997738999367979"><ele>-5.0</ele><time>2026-03-28T10:11:52Z</time></trkpt><trkpt lat="44.90109507279012" lon="11.997739750695555"><ele>-5.0</ele><time>2026-03-28T10:11:54Z</time></trkpt><trkpt lat="44.90101925076665" lon="11.997741655164932"><ele>-5.0</ele><time>2026-03-28T10:11:56Z</time></trkpt><trkpt lat="44.900945093346714" lon="11.997745897219447"><ele>-5.0</ele><time>2026-03-28T10:11:58Z</time></trkpt><trkpt lat="44.9008699605242" lon="11.997770098371758"><ele>-5.0</ele><time>2026-03-28T10:12:00Z</time></trkpt><trkpt lat="44.90079945151933" lon="11.997742930752352"><ele>-4.833333333333334</ele><time>2026-03-28T10:12:02Z</time></trkpt><trkpt lat="44.900719478264726" lon="11.997716987938135"><ele>-4.666666666666667</ele><time>2026-03-28T10:12:05Z</time></trkpt><trkpt lat="44.90064135501979" lon="11.997666068594086"><ele>-4.5</ele><time>2026-03-28T10:12:08Z</time></trkpt><trkpt lat="44.900565551648924" lon="11.997630439876772"><ele>-4.333333333333333</ele><time>2026-03-28T10:12:10Z</time></trkpt><trkpt lat="44.900490005319135" lon="11.997780353004272"><ele>-4.166666666666666</ele><time>2026-03-28T10:12:11Z</time></trkpt><trkpt lat="44.90042174298636" lon="11.997782287092214"><ele>-4.0</ele><time>2026-03-28T10:12:13Z</time></trkpt><trkpt lat="44.900340656403195" lon="11.99779140270748"><ele>-4.0</ele><time>2026-03-28T10:12:15Z</time></trkpt><trkpt lat="44.9002639227228" lon="11.997796872439443"><ele>-3.9999999999999996</ele><time>2026-03-28T10:12:17Z</time></trkpt><trkpt lat="44.90019387037904" lon="11.997798829620319"><ele>-4.0</ele><time>2026-03-28T10:12:19Z</time></trkpt><trkpt lat="44.90013058980908" lon="11.997800523671108"><ele>-4.0</ele><time>2026-03-28T10:12:21Z</time></trkpt><trkpt lat="44.9000576557153" lon="11.99780288798767"><ele>-3.9999999999999996</ele><time>2026-03-28T10:12:23Z</time></trkpt><trkpt lat="44.8999812358679" lon="11.997809369241187"><ele>-4.0</ele><time>2026-03-28T10:12:25Z</time></trkpt><trkpt lat="44.89990252564215" lon="11.99781428855836"><ele>-4.0</ele><time>2026-03-28T10:12:27Z</time></trkpt><trkpt lat="44.89982099441626" lon="11.997814565781814"><ele>-3.9999999999999996</ele><time>2026-03-28T10:12:29Z</time></trkpt><trkpt lat="44.89974174943683" lon="11.997817692896556"><ele>-4.0</ele><time>2026-03-28T10:12:31Z</time></trkpt><trkpt lat="44.899662868662745" lon="11.997823770760828"><ele>-4.0</ele><time>2026-03-28T10:12:33Z</time></trkpt><trkpt lat="44.89959610871315" lon="11.997822441618476"><ele>-4.0</ele><time>2026-03-28T10:12:35Z</time></trkpt><trkpt lat="44.899513691839076" lon="11.997827341973517"><ele>-3.9999999999999996</ele><time>2026-03-28T10:12:37Z</time></trkpt><trkpt lat="44.89943521679113" lon="11.997827426478352"><ele>-4.0</ele><time>2026-03-28T10:12:39Z</time></trkpt><trkpt lat="44.89935242768356" lon="11.997835362288027"><ele>-3.9999999999999996</ele><time>2026-03-28T10:12:41Z</time></trkpt><trkpt lat="44.8992724041591" lon="11.997836041314846"><ele>-4.0</ele><time>2026-03-28T10:12:43Z</time></trkpt><trkpt lat="44.899190479183815" lon="11.997822520996484"><ele>-4.0</ele><time>2026-03-28T10:12:45Z</time></trkpt><trkpt lat="44.89911237714917" lon="11.997829411384842"><ele>-4.0</ele><time>2026-03-28T10:12:47Z</time></trkpt><trkpt lat="44.89904320639119" lon="11.997825388734784"><ele>-3.9999999999999996</ele><time>2026-03-28T10:12:49Z</time></trkpt><trkpt lat="44.89896403195084" lon="11.997831097575695"><ele>-4.0</ele><time>2026-03-28T10:12:51Z</time></trkpt><trkpt lat="44.89888224218729" lon="11.99783545128462"><ele>-4.0</ele><time>2026-03-28T10:12:53Z</time></trkpt><trkpt lat="44.89880011397869" lon="11.997835669570378"><ele>-3.9999999999999996</ele><time>2026-03-28T10:12:55Z</time></trkpt><trkpt lat="44.89871775479286" lon="11.997835189201018"><ele>-4.0</ele><time>2026-03-28T10:12:57Z</time></trkpt><trkpt lat="44.89865329917608" lon="11.997837820451004"><ele>-4.0</ele><time>2026-03-28T10:12:59Z</time></trkpt><trkpt lat="44.89858974044159" lon="11.997843441734174"><ele>-3.9999999999999996</ele><time>2026-03-28T10:13:01Z</time></trkpt><trkpt lat="44.898514673064085" lon="11.99784353271283"><ele>-4.0</ele><time>2026-03-28T10:13:02.999Z</time></trkpt><trkpt lat="44.89844232375115" lon="11.99784495369622"><ele>-4.0</ele><time>2026-03-28T10:13:04.999Z</time></trkpt><trkpt lat="44.89836326878643" lon="11.997846171844822"><ele>-4.166666666666666</ele><time>2026-03-28T10:13:06.999Z</time></trkpt><trkpt lat="44.89828268022447" lon="11.997859375398198"><ele>-4.333333333333333</ele><time>2026-03-28T10:13:08.999Z</time></trkpt><trkpt lat="44.89820431674279" lon="11.99786563619244"><ele>-4.5</ele><time>2026-03-28T10:13:10.999Z</time></trkpt><trkpt lat="44.89813135906845" lon="11.997869290445626"><ele>-4.666666666666667</ele><time>2026-03-28T10:13:12.999Z</time></trkpt><trkpt lat="44.89805775600073" lon="11.997868117636456"><ele>-4.833333333333334</ele><time>2026-03-28T10:13:14.999Z</time></trkpt><trkpt lat="44.8979690050519" lon="11.99786988998632"><ele>-5.0</ele><time>2026-03-28T10:13:17.999Z</time></trkpt><trkpt lat="44.89789865668483" lon="11.997860522833514"><ele>-5.0</ele><time>2026-03-28T10:13:59Z</time></trkpt><trkpt lat="44.897833550459836" lon="11.997857088949008"><ele>-5.0</ele><time>2026-03-28T10:14:05Z</time></trkpt><trkpt lat="44.89776603565616" lon="11.997906755211693"><ele>-5.0</ele><time>2026-03-28T10:14:10Z</time></trkpt><trkpt lat="44.897750966559144" lon="11.99802416094648"><ele>-5.0</ele><time>2026-03-28T10:14:13Z</time></trkpt><trkpt lat="44.897762748409676" lon="11.99814497224473"><ele>-5.0</ele><time>2026-03-28T10:14:16Z</time></trkpt><trkpt lat="44.89776766256095" lon="11.99825177673239"><ele>-5.0</ele><time>2026-03-28T10:14:19Z</time></trkpt><trkpt lat="44.897775906019085" lon="11.998357219318924"><ele>-5.0</ele><time>2026-03-28T10:14:23Z</time></trkpt><trkpt lat="44.89777721453263" lon="11.998473940132847"><ele>-5.0</ele><time>2026-03-28T10:14:27Z</time></trkpt><trkpt lat="44.89778197971996" lon="11.998586779793426"><ele>-5.0</ele><time>2026-03-28T10:14:32Z</time></trkpt><trkpt lat="44.897780715892175" lon="11.998711065940402"><ele>-5.0</ele><time>2026-03-28T10:14:35Z</time></trkpt><trkpt lat="44.89778116543115" lon="11.998803741483595"><ele>-5.0</ele><time>2026-03-28T10:14:37Z</time></trkpt><trkpt lat="44.89778285346174" lon="11.99890715239775"><ele>-5.0</ele><time>2026-03-28T10:14:39Z</time></trkpt><trkpt lat="44.897784582941625" lon="11.998997124482036"><ele>-5.0</ele><time>2026-03-28T10:14:41Z</time></trkpt><trkpt lat="44.89778386355875" lon="11.999096356706733"><ele>-5.0</ele><time>2026-03-28T10:14:44Z</time></trkpt><trkpt lat="44.89778629864896" lon="11.999209751332025"><ele>-5.0</ele><time>2026-03-28T10:14:47Z</time></trkpt><trkpt lat="44.897789142239354" lon="11.999301915637568"><ele>-5.0</ele><time>2026-03-28T10:14:49.999Z</time></trkpt><trkpt lat="44.89778900717374" lon="11.999432891236005"><ele>-5.0</ele><time>2026-03-28T10:14:52.999Z</time></trkpt><trkpt lat="44.897788896000066" lon="11.999545207766326"><ele>-5.0</ele><time>2026-03-28T10:14:55.999Z</time></trkpt><trkpt lat="44.89778686944892" lon="11.999634101164025"><ele>-5.166666666666667</ele><time>2026-03-28T10:14:57.999Z</time></trkpt><trkpt lat="44.8977889756398" lon="11.999734678276521"><ele>-5.333333333333334</ele><time>2026-03-28T10:14:59.999Z</time></trkpt><trkpt lat="44.897786893828645" lon="11.999867220786804"><ele>-5.5</ele><time>2026-03-28T10:15:02.999Z</time></trkpt><trkpt lat="44.897786007647376" lon="11.999971368654156"><ele>-5.666666666666667</ele><time>2026-03-28T10:15:04.999Z</time></trkpt><trkpt lat="44.89779265874195" lon="12.000067412475303"><ele>-5.833333333333333</ele><time>2026-03-28T10:15:06.999Z</time></trkpt><trkpt lat="44.897790800270286" lon="12.00017237569484"><ele>-6.0</ele><time>2026-03-28T10:15:08.999Z</time></trkpt><trkpt lat="44.897789958063946" lon="12.000286678378261"><ele>-6.0</ele><time>2026-03-28T10:15:10.999Z</time></trkpt><trkpt lat="44.89779310486812" lon="12.000375491067315"><ele>-6.0</ele><time>2026-03-28T10:15:12.999Z</time></trkpt><trkpt lat="44.897790185601764" lon="12.000480724087495"><ele>-6.0</ele><time>2026-03-28T10:15:15.999Z</time></trkpt><trkpt lat="44.89779149432208" lon="12.000609658002848"><ele>-6.0</ele><time>2026-03-28T10:15:18.999Z</time></trkpt><trkpt lat="44.897795182691546" lon="12.000747319453684"><ele>-6.0</ele><time>2026-03-28T10:15:21.999Z</time></trkpt><trkpt lat="44.89779749962177" lon="12.00084487996869"><ele>-6.0</ele><time>2026-03-28T10:15:23.999Z</time></trkpt><trkpt lat="44.89779370320423" lon="12.000949613295552"><ele>-6.0</ele><time>2026-03-28T10:15:25.999Z</time></trkpt><trkpt lat="44.89779338351637" lon="12.001071182748928"><ele>-6.0</ele><time>2026-03-28T10:15:28.999Z</time></trkpt><trkpt lat="44.89779597659356" lon="12.001191350283129"><ele>-6.0</ele><time>2026-03-28T10:15:31.999Z</time></trkpt><trkpt lat="44.89779411260709" lon="12.001297905604755"><ele>-6.0</ele><time>2026-03-28T10:15:34.999Z</time></trkpt><trkpt lat="44.89779691571312" lon="12.001424271870098"><ele>-6.0</ele><time>2026-03-28T10:15:37.999Z</time></trkpt><trkpt lat="44.89779586050923" lon="12.001560896796223"><ele>-6.0</ele><time>2026-03-28T10:15:40.999Z</time></trkpt><trkpt lat="44.89779518007875" lon="12.00167535359009"><ele>-5.999999999999999</ele><time>2026-03-28T10:15:42.999Z</time></trkpt><trkpt lat="44.897795904252476" lon="12.00177548774846"><ele>-6.0</ele><time>2026-03-28T10:15:44.999Z</time></trkpt><trkpt lat="44.89779598848753" lon="12.001875161131023"><ele>-6.0</ele><time>2026-03-28T10:15:46.999Z</time></trkpt><trkpt lat="44.8977980247175" lon="12.001997755907526"><ele>-6.0</ele><time>2026-03-28T10:15:48.999Z</time></trkpt><trkpt lat="44.89779806594535" lon="12.00210326357425"><ele>-6.0</ele><time>2026-03-28T10:15:50.999Z</time></trkpt><trkpt lat="44.89780036512467" lon="12.002214073113"><ele>-5.999999999999999</ele><time>2026-03-28T10:15:52.999Z</time></trkpt><trkpt lat="44.897799342985024" lon="12.00230565562965"><ele>-6.0</ele><time>2026-03-28T10:15:54.999Z</time></trkpt><trkpt lat="44.89779810267825" lon="12.00239524242612"><ele>-6.0</ele><time>2026-03-28T10:15:56.999Z</time></trkpt><trkpt lat="44.897796020430675" lon="12.002488873384886"><ele>-6.0</ele><time>2026-03-28T10:15:59Z</time></trkpt><trkpt lat="44.897800531876086" lon="12.002620890500772"><ele>-6.0</ele><time>2026-03-28T10:16:02Z</time></trkpt><trkpt lat="44.897802166577904" lon="12.002730981268735"><ele>-6.0</ele><time>2026-03-28T10:16:04Z</time></trkpt><trkpt lat="44.89780553838043" lon="12.002856791315695"><ele>-6.0</ele><time>2026-03-28T10:16:07Z</time></trkpt><trkpt lat="44.89780593888831" lon="12.002970985782174"><ele>-6.0</ele><time>2026-03-28T10:16:10Z</time></trkpt><trkpt lat="44.89780356001192" lon="12.003078759611101"><ele>-5.833333333333333</ele><time>2026-03-28T10:16:12Z</time></trkpt><trkpt lat="44.897809046880745" lon="12.003175413994656"><ele>-5.666666666666667</ele><time>2026-03-28T10:16:14Z</time></trkpt><trkpt lat="44.89780854112427" lon="12.003289236925301"><ele>-5.5</ele><time>2026-03-28T10:16:16Z</time></trkpt><trkpt lat="44.89780544568588" lon="12.003404535254944"><ele>-5.333333333333334</ele><time>2026-03-28T10:16:18Z</time></trkpt><trkpt lat="44.89781502607127" lon="12.0035018370182"><ele>-5.166666666666667</ele><time>2026-03-28T10:16:20Z</time></trkpt><trkpt lat="44.89780917146452" lon="12.003643573631992"><ele>-5.0</ele><time>2026-03-28T10:16:23Z</time></trkpt><trkpt lat="44.89781013400468" lon="12.003761506007196"><ele>-5.0</ele><time>2026-03-28T10:16:25Z</time></trkpt><trkpt lat="44.89781008633481" lon="12.003865460795224"><ele>-5.0</ele><time>2026-03-28T10:16:27Z</time></trkpt><trkpt lat="44.89781134556524" lon="12.003965608293933"><ele>-5.0</ele><time>2026-03-28T10:16:29Z</time></trkpt><trkpt lat="44.89781077468504" lon="12.004083436111385"><ele>-5.0</ele><time>2026-03-28T10:16:31Z</time></trkpt><trkpt lat="44.89781245442485" lon="12.004199158692533"><ele>-5.0</ele><time>2026-03-28T10:16:33Z</time></trkpt><trkpt lat="44.897811978790145" lon="12.004310863199624"><ele>-5.0</ele><time>2026-03-28T10:16:35Z</time></trkpt><trkpt lat="44.897813212029995" lon="12.004419468142354"><ele>-5.166666666666667</ele><time>2026-03-28T10:16:37Z</time></trkpt><trkpt lat="44.897810234069574" lon="12.004544535359711"><ele>-5.333333333333334</ele><time>2026-03-28T10:16:40Z</time></trkpt><trkpt lat="44.89783884277794" lon="12.004649476291936"><ele>-5.5</ele><time>2026-03-28T10:16:42Z</time></trkpt><trkpt lat="44.89781261125695" lon="12.004737666112144"><ele>-5.666666666666667</ele><time>2026-03-28T10:16:45Z</time></trkpt><trkpt lat="44.89783027554789" lon="12.004848019944472"><ele>-5.833333333333333</ele><time>2026-03-28T10:16:49Z</time></trkpt><trkpt lat="44.897807001599354" lon="12.004946472408369"><ele>-6.0</ele><time>2026-03-28T10:16:53Z</time></trkpt><trkpt lat="44.89781339560032" lon="12.005084150977964"><ele>-6.285714285714285</ele><time>2026-03-28T10:16:56Z</time></trkpt><trkpt lat="44.89782182278776" lon="12.005178164222883"><ele>-6.571428571428571</ele><time>2026-03-28T10:16:58Z</time></trkpt><trkpt lat="44.89781838634613" lon="12.005302533781258"><ele>-6.857142857142857</ele><time>2026-03-28T10:17:01Z</time></trkpt><trkpt lat="44.897830875932776" lon="12.005436052723"><ele>-7.142857142857142</ele><time>2026-03-28T10:17:04Z</time></trkpt><trkpt lat="44.89782634620214" lon="12.005525070602447"><ele>-7.428571428571428</ele><time>2026-03-28T10:17:05.999Z</time></trkpt><trkpt lat="44.8978274516393" lon="12.005614871079324"><ele>-7.7142857142857135</ele><time>2026-03-28T10:17:07.999Z</time></trkpt><trkpt lat="44.89783389982514" lon="12.005711571757487"><ele>-8.0</ele><time>2026-03-28T10:17:09.999Z</time></trkpt><trkpt lat="44.89784069038091" lon="12.005826613111315"><ele>-7.666666666666666</ele><time>2026-03-28T10:17:11.999Z</time></trkpt><trkpt lat="44.897835276265525" lon="12.005921778875251"><ele>-7.333333333333333</ele><time>2026-03-28T10:17:13.999Z</time></trkpt><trkpt lat="44.89783619858502" lon="12.006049009389773"><ele>-7.0</ele><time>2026-03-28T10:17:16.999Z</time></trkpt><trkpt lat="44.89783597429991" lon="12.006164156707491"><ele>-6.666666666666666</ele><time>2026-03-28T10:17:18.999Z</time></trkpt><trkpt lat="44.897829992576504" lon="12.006270880824289"><ele>-6.333333333333333</ele><time>2026-03-28T10:17:20.999Z</time></trkpt><trkpt lat="44.897837554487595" lon="12.00636991444949"><ele>-6.0</ele><time>2026-03-28T10:17:22.999Z</time></trkpt><trkpt lat="44.8978374771712" lon="12.006467087428183"><ele>-6.0</ele><time>2026-03-28T10:17:24.999Z</time></trkpt><trkpt lat="44.89783740751416" lon="12.006572141611171"><ele>-6.0</ele><time>2026-03-28T10:17:26.999Z</time></trkpt><trkpt lat="44.897834105576386" lon="12.006690614441087"><ele>-6.0</ele><time>2026-03-28T10:17:28.999Z</time></trkpt><trkpt lat="44.897835660963956" lon="12.006802580851208"><ele>-6.0</ele><time>2026-03-28T10:17:30.999Z</time></trkpt><trkpt lat="44.897839773829794" lon="12.006908692583359"><ele>-6.0</ele><time>2026-03-28T10:17:32.999Z</time></trkpt><trkpt lat="44.897845079767265" lon="12.00704781875392"><ele>-6.0</ele><time>2026-03-28T10:17:35.999Z</time></trkpt><trkpt lat="44.8978425881661" lon="12.007155589467308"><ele>-5.999999999999999</ele><time>2026-03-28T10:17:37.999Z</time></trkpt><trkpt lat="44.89785330240745" lon="12.007256815513083"><ele>-6.0</ele><time>2026-03-28T10:17:39.999Z</time></trkpt><trkpt lat="44.89785426197944" lon="12.00736533874341"><ele>-6.0</ele><time>2026-03-28T10:17:41.999Z</time></trkpt><trkpt lat="44.89785344244296" lon="12.00747376012792"><ele>-6.0</ele><time>2026-03-28T10:17:43.999Z</time></trkpt><trkpt lat="44.897845313328794" lon="12.007582605281701"><ele>-6.0</ele><time>2026-03-28T10:17:45.999Z</time></trkpt><trkpt lat="44.89784611157145" lon="12.007679897790176"><ele>-5.999999999999999</ele><time>2026-03-28T10:17:47.999Z</time></trkpt><trkpt lat="44.89784429863658" lon="12.007777812620162"><ele>-6.0</ele><time>2026-03-28T10:17:49.999Z</time></trkpt><trkpt lat="44.89784471998203" lon="12.007887809981055"><ele>-5.999999999999999</ele><time>2026-03-28T10:17:51.999Z</time></trkpt><trkpt lat="44.89784553233445" lon="12.007987288714688"><ele>-6.0</ele><time>2026-03-28T10:17:53.999Z</time></trkpt><trkpt lat="44.89784364064643" lon="12.008080689963109"><ele>-6.0</ele><time>2026-03-28T10:17:55.999Z</time></trkpt><trkpt lat="44.89784924826807" lon="12.008175009994655"><ele>-6.0</ele><time>2026-03-28T10:17:57.999Z</time></trkpt><trkpt lat="44.897845718767215" lon="12.008292213015169"><ele>-6.0</ele><time>2026-03-28T10:17:59.999Z</time></trkpt><trkpt lat="44.89784819842273" lon="12.008406853896828"><ele>-5.999999999999999</ele><time>2026-03-28T10:18:01.999Z</time></trkpt><trkpt lat="44.89784799539294" lon="12.008512271630055"><ele>-6.0</ele><time>2026-03-28T10:18:03.999Z</time></trkpt><trkpt lat="44.897851725179436" lon="12.008629429173704"><ele>-6.0</ele><time>2026-03-28T10:18:06Z</time></trkpt><trkpt lat="44.89785331141696" lon="12.008752994593966"><ele>-6.0</ele><time>2026-03-28T10:18:08Z</time></trkpt><trkpt lat="44.89784742498998" lon="12.008877071853878"><ele>-6.0</ele><time>2026-03-28T10:18:10Z</time></trkpt><trkpt lat="44.897844173142865" lon="12.008995957054031"><ele>-6.0</ele><time>2026-03-28T10:18:12Z</time></trkpt><trkpt lat="44.89784954219301" lon="12.009104081860865"><ele>-6.0</ele><time>2026-03-28T10:18:14Z</time></trkpt><trkpt lat="44.89785471773718" lon="12.009207598647723"><ele>-6.0</ele><time>2026-03-28T10:18:16Z</time></trkpt><trkpt lat="44.897856520075536" lon="12.009327568881533"><ele>-6.0</ele><time>2026-03-28T10:18:18Z</time></trkpt><trkpt lat="44.89785689990106" lon="12.009458547123918"><ele>-6.0</ele><time>2026-03-28T10:18:20Z</time></trkpt><trkpt lat="44.897856190141425" lon="12.00957490355068"><ele>-6.0</ele><time>2026-03-28T10:18:22Z</time></trkpt><trkpt lat="44.89785176000617" lon="12.009678380431495"><ele>-6.0</ele><time>2026-03-28T10:18:24Z</time></trkpt><trkpt lat="44.8978533574778" lon="12.009778625610917"><ele>-6.0</ele><time>2026-03-28T10:18:26Z</time></trkpt><trkpt lat="44.89785402391774" lon="12.00989712404691"><ele>-6.0</ele><time>2026-03-28T10:18:28Z</time></trkpt><trkpt lat="44.897860567503415" lon="12.010016695619735"><ele>-6.0</ele><time>2026-03-28T10:18:30Z</time></trkpt><trkpt lat="44.897860729068775" lon="12.010133223439855"><ele>-6.0</ele><time>2026-03-28T10:18:32Z</time></trkpt><trkpt lat="44.89786095143278" lon="12.010231048987569"><ele>-6.0</ele><time>2026-03-28T10:18:34Z</time></trkpt><trkpt lat="44.89785421884889" lon="12.01033557336529"><ele>-6.0</ele><time>2026-03-28T10:18:36Z</time></trkpt><trkpt lat="44.897859971131716" lon="12.010436919240508"><ele>-6.0</ele><time>2026-03-28T10:18:38Z</time></trkpt><trkpt lat="44.897862922723" lon="12.010551607681492"><ele>-6.0</ele><time>2026-03-28T10:18:40Z</time></trkpt><trkpt lat="44.89786133102116" lon="12.010654095542176"><ele>-6.0</ele><time>2026-03-28T10:18:42Z</time></trkpt><trkpt lat="44.89785862466875" lon="12.010768739380302"><ele>-6.0</ele><time>2026-03-28T10:18:44Z</time></trkpt><trkpt lat="44.89786046608929" lon="12.010889071636692"><ele>-6.0</ele><time>2026-03-28T10:18:46Z</time></trkpt><trkpt lat="44.89786347189632" lon="12.010992815247862"><ele>-6.0</ele><time>2026-03-28T10:18:48Z</time></trkpt><trkpt lat="44.89786267146224" lon="12.011086937116167"><ele>-6.0</ele><time>2026-03-28T10:18:50Z</time></trkpt><trkpt lat="44.89786072238564" lon="12.011181916949791"><ele>-6.0</ele><time>2026-03-28T10:18:52Z</time></trkpt><trkpt lat="44.89786378520454" lon="12.011298043187391"><ele>-5.833333333333333</ele><time>2026-03-28T10:18:54Z</time></trkpt><trkpt lat="44.8978633804927" lon="12.011415333047125"><ele>-5.666666666666667</ele><time>2026-03-28T10:18:56Z</time></trkpt><trkpt lat="44.89786735811873" lon="12.011511710510401"><ele>-5.5</ele><time>2026-03-28T10:18:58Z</time></trkpt><trkpt lat="44.89786223475625" lon="12.011614052876178"><ele>-5.333333333333334</ele><time>2026-03-28T10:19:00Z</time></trkpt><trkpt lat="44.897865153418174" lon="12.01173056464344"><ele>-5.166666666666667</ele><time>2026-03-28T10:19:02Z</time></trkpt><trkpt lat="44.89786715562284" lon="12.011844348675474"><ele>-5.0</ele><time>2026-03-28T10:19:04Z</time></trkpt><trkpt lat="44.89786540468544" lon="12.011962026208256"><ele>-4.833333333333334</ele><time>2026-03-28T10:19:06Z</time></trkpt><trkpt lat="44.89786493860244" lon="12.012087928341275"><ele>-4.666666666666667</ele><time>2026-03-28T10:19:08Z</time></trkpt><trkpt lat="44.89786942902321" lon="12.012208359732186"><ele>-4.5</ele><time>2026-03-28T10:19:10Z</time></trkpt><trkpt lat="44.89787614236619" lon="12.012334329473791"><ele>-4.333333333333333</ele><time>2026-03-28T10:19:12Z</time></trkpt><trkpt lat="44.89787347891023" lon="12.012452569833668"><ele>-4.166666666666666</ele><time>2026-03-28T10:19:14Z</time></trkpt><trkpt lat="44.89787027635429" lon="12.01255204781868"><ele>-4.0</ele><time>2026-03-28T10:19:16Z</time></trkpt><trkpt lat="44.89787200239302" lon="12.012672306037649"><ele>-3.9999999999999996</ele><time>2026-03-28T10:19:17.999Z</time></trkpt><trkpt lat="44.89787817492073" lon="12.012786097981502"><ele>-4.0</ele><time>2026-03-28T10:19:19.999Z</time></trkpt><trkpt lat="44.89787743011967" lon="12.012894170030638"><ele>-4.0</ele><time>2026-03-28T10:19:21.999Z</time></trkpt><trkpt lat="44.897874558760435" lon="12.013003574981154"><ele>-4.0</ele><time>2026-03-28T10:19:23.999Z</time></trkpt><trkpt lat="44.897873358841586" lon="12.013125375469853"><ele>-3.9999999999999996</ele><time>2026-03-28T10:19:25.999Z</time></trkpt><trkpt lat="44.89787552028181" lon="12.013240005206693"><ele>-4.0</ele><time>2026-03-28T10:19:27.999Z</time></trkpt><trkpt lat="44.89787437310872" lon="12.013347499985919"><ele>-3.833333333333333</ele><time>2026-03-28T10:19:29.999Z</time></trkpt><trkpt lat="44.897875147706884" lon="12.013464442769749"><ele>-3.6666666666666665</ele><time>2026-03-28T10:19:31.999Z</time></trkpt><trkpt lat="44.89787836069101" lon="12.013573850078457"><ele>-3.5</ele><time>2026-03-28T10:19:33.999Z</time></trkpt><trkpt lat="44.89787841567965" lon="12.01367981658013"><ele>-3.333333333333333</ele><time>2026-03-28T10:19:35.999Z</time></trkpt><trkpt lat="44.89788113240481" lon="12.013800136317196"><ele>-3.1666666666666665</ele><time>2026-03-28T10:19:37.999Z</time></trkpt><trkpt lat="44.8978823726832" lon="12.013907820453504"><ele>-3.0</ele><time>2026-03-28T10:19:39.999Z</time></trkpt><trkpt lat="44.89788105626928" lon="12.014009368755193"><ele>-2.9999999999999996</ele><time>2026-03-28T10:19:41.999Z</time></trkpt><trkpt lat="44.8978851660925" lon="12.014109005749548"><ele>-3.0</ele><time>2026-03-28T10:19:43.999Z</time></trkpt><trkpt lat="44.89787747428337" lon="12.01421178657324"><ele>-3.0</ele><time>2026-03-28T10:19:45.999Z</time></trkpt><trkpt lat="44.89787983451646" lon="12.014304308809479"><ele>-3.0</ele><time>2026-03-28T10:19:47.999Z</time></trkpt><trkpt lat="44.897878646519835" lon="12.014415119523566"><ele>-3.0</ele><time>2026-03-28T10:19:49.999Z</time></trkpt><trkpt lat="44.89788044821076" lon="12.014534925357335"><ele>-2.9999999999999996</ele><time>2026-03-28T10:19:51.999Z</time></trkpt><trkpt lat="44.89788199593363" lon="12.014637604374645"><ele>-3.0</ele><time>2026-03-28T10:19:53.999Z</time></trkpt><trkpt lat="44.897882979460654" lon="12.01473557689552"><ele>-3.1666666666666665</ele><time>2026-03-28T10:19:55.999Z</time></trkpt><trkpt lat="44.8978833282397" lon="12.014826387795086"><ele>-3.333333333333333</ele><time>2026-03-28T10:19:57.999Z</time></trkpt><trkpt lat="44.89788385434148" lon="12.014939852829107"><ele>-3.5</ele><time>2026-03-28T10:19:59.999Z</time></trkpt><trkpt lat="44.89788650982015" lon="12.015054661083925"><ele>-3.6666666666666665</ele><time>2026-03-28T10:20:01.999Z</time></trkpt><trkpt lat="44.897885053010754" lon="12.015160415076387"><ele>-3.833333333333333</ele><time>2026-03-28T10:20:03.999Z</time></trkpt><trkpt lat="44.897884276375464" lon="12.015267615685856"><ele>-4.0</ele><time>2026-03-28T10:20:05.999Z</time></trkpt><trkpt lat="44.8978820842224" lon="12.015391077555725"><ele>-3.9999999999999996</ele><time>2026-03-28T10:20:07.999Z</time></trkpt><trkpt lat="44.89788582397554" lon="12.0155176482198"><ele>-4.0</ele><time>2026-03-28T10:20:09.999Z</time></trkpt><trkpt lat="44.897887383939356" lon="12.015635917713247"><ele>-4.0</ele><time>2026-03-28T10:20:12Z</time></trkpt><trkpt lat="44.89788671951185" lon="12.015750880065788"><ele>-4.0</ele><time>2026-03-28T10:20:14Z</time></trkpt><trkpt lat="44.897890035996035" lon="12.015853935828224"><ele>-3.9999999999999996</ele><time>2026-03-28T10:20:16Z</time></trkpt><trkpt lat="44.89788819393541" lon="12.015967427554259"><ele>-4.0</ele><time>2026-03-28T10:20:18Z</time></trkpt><trkpt lat="44.89789676707165" lon="12.01608090554023"><ele>-3.9999999999999996</ele><time>2026-03-28T10:20:20Z</time></trkpt><trkpt lat="44.8979016137483" lon="12.016191496342131"><ele>-4.0</ele><time>2026-03-28T10:20:22Z</time></trkpt><trkpt lat="44.89789486674029" lon="12.016289380713935"><ele>-4.0</ele><time>2026-03-28T10:20:24Z</time></trkpt><trkpt lat="44.897891212235805" lon="12.016402191174295"><ele>-4.0</ele><time>2026-03-28T10:20:26Z</time></trkpt><trkpt lat="44.897894904368194" lon="12.016515604080686"><ele>-3.9999999999999996</ele><time>2026-03-28T10:20:28Z</time></trkpt><trkpt lat="44.89789157072235" lon="12.01661832797444"><ele>-4.0</ele><time>2026-03-28T10:20:30Z</time></trkpt><trkpt lat="44.897896442728495" lon="12.016737423871572"><ele>-3.9999999999999996</ele><time>2026-03-28T10:20:32Z</time></trkpt><trkpt lat="44.897893927940814" lon="12.016858471749435"><ele>-4.0</ele><time>2026-03-28T10:20:34Z</time></trkpt><trkpt lat="44.89789795645939" lon="12.01696733482762"><ele>-4.0</ele><time>2026-03-28T10:20:36Z</time></trkpt><trkpt lat="44.897894412616346" lon="12.017068130771504"><ele>-4.0</ele><time>2026-03-28T10:20:38Z</time></trkpt><trkpt lat="44.89789839859473" lon="12.01718242406688"><ele>-3.9999999999999996</ele><time>2026-03-28T10:20:40Z</time></trkpt><trkpt lat="44.897899799965174" lon="12.01729127226285"><ele>-4.0</ele><time>2026-03-28T10:20:42Z</time></trkpt><trkpt lat="44.897901803979906" lon="12.017397501074727"><ele>-4.166666666666666</ele><time>2026-03-28T10:20:44Z</time></trkpt><trkpt lat="44.89789616574973" lon="12.017520091711202"><ele>-4.333333333333333</ele><time>2026-03-28T10:20:46Z</time></trkpt><trkpt lat="44.89789642300599" lon="12.01764050846879"><ele>-4.5</ele><time>2026-03-28T10:20:48Z</time></trkpt><trkpt lat="44.897898622777504" lon="12.017757410142927"><ele>-4.666666666666667</ele><time>2026-03-28T10:20:50Z</time></trkpt><trkpt lat="44.89790387484718" lon="12.017865834475337"><ele>-4.833333333333334</ele><time>2026-03-28T10:20:52Z</time></trkpt><trkpt lat="44.897901629207176" lon="12.01797226688789"><ele>-5.0</ele><time>2026-03-28T10:20:54Z</time></trkpt><trkpt lat="44.89789953782371" lon="12.018072274403352"><ele>-5.0</ele><time>2026-03-28T10:20:56Z</time></trkpt><trkpt lat="44.89790103622765" lon="12.01818810672953"><ele>-5.0</ele><time>2026-03-28T10:20:58Z</time></trkpt><trkpt lat="44.8979051606963" lon="12.018309082664233"><ele>-5.0</ele><time>2026-03-28T10:21:00Z</time></trkpt><trkpt lat="44.89791455493624" lon="12.018422340646204"><ele>-5.0</ele><time>2026-03-28T10:21:02Z</time></trkpt><trkpt lat="44.89791030908658" lon="12.018527800932135"><ele>-5.0</ele><time>2026-03-28T10:21:04Z</time></trkpt><trkpt lat="44.897911868380504" lon="12.018636419593733"><ele>-5.0</ele><time>2026-03-28T10:21:06Z</time></trkpt><trkpt lat="44.89791275959381" lon="12.018752436318566"><ele>-5.0</ele><time>2026-03-28T10:21:08Z</time></trkpt><trkpt lat="44.897914262010474" lon="12.01885560689675"><ele>-5.0</ele><time>2026-03-28T10:21:10Z</time></trkpt><trkpt lat="44.89791431889608" lon="12.018960507922761"><ele>-5.0</ele><time>2026-03-28T10:21:12Z</time></trkpt><trkpt lat="44.89791249383928" lon="12.0190805832802"><ele>-5.0</ele><time>2026-03-28T10:21:14Z</time></trkpt><trkpt lat="44.89791809318061" lon="12.019189205762709"><ele>-5.0</ele><time>2026-03-28T10:21:16Z</time></trkpt><trkpt lat="44.8979136176638" lon="12.019288804240933"><ele>-5.0</ele><time>2026-03-28T10:21:17.999Z</time></trkpt><trkpt lat="44.897914339474006" lon="12.01940343298868"><ele>-5.166666666666667</ele><time>2026-03-28T10:21:19.999Z</time></trkpt><trkpt lat="44.89791552876748" lon="12.019529961253987"><ele>-5.333333333333334</ele><time>2026-03-28T10:21:21.999Z</time></trkpt><trkpt lat="44.897918416933784" lon="12.019654276099642"><ele>-5.5</ele><time>2026-03-28T10:21:23.999Z</time></trkpt><trkpt lat="44.89792083004796" lon="12.01977201078874"><ele>-5.666666666666667</ele><time>2026-03-28T10:21:25.999Z</time></trkpt><trkpt lat="44.89791722645765" lon="12.019880035938732"><ele>-5.833333333333333</ele><time>2026-03-28T10:21:27.999Z</time></trkpt><trkpt lat="44.897918563275425" lon="12.019998217929839"><ele>-6.0</ele><time>2026-03-28T10:21:29.999Z</time></trkpt><trkpt lat="44.897922842465796" lon="12.020118418360195"><ele>-6.0</ele><time>2026-03-28T10:21:31.999Z</time></trkpt><trkpt lat="44.89792216940569" lon="12.02023104003097"><ele>-6.0</ele><time>2026-03-28T10:21:33.999Z</time></trkpt><trkpt lat="44.897923358922164" lon="12.020350495020557"><ele>-6.0</ele><time>2026-03-28T10:21:35.999Z</time></trkpt><trkpt lat="44.897924551611574" lon="12.020482699850241"><ele>-6.0</ele><time>2026-03-28T10:21:37.999Z</time></trkpt><trkpt lat="44.897929006331694" lon="12.020614159451469"><ele>-6.0</ele><time>2026-03-28T10:21:39.999Z</time></trkpt><trkpt lat="44.897926562420835" lon="12.020748184612481"><ele>-6.0</ele><time>2026-03-28T10:21:41.999Z</time></trkpt><trkpt lat="44.897927257938285" lon="12.020869615393261"><ele>-5.666666666666667</ele><time>2026-03-28T10:21:43.999Z</time></trkpt><trkpt lat="44.897935247786975" lon="12.020987502249133"><ele>-5.333333333333333</ele><time>2026-03-28T10:21:45.999Z</time></trkpt><trkpt lat="44.897929802698364" lon="12.02110007556404"><ele>-5.0</ele><time>2026-03-28T10:21:47.999Z</time></trkpt><trkpt lat="44.89793105357804" lon="12.021207520538237"><ele>-4.666666666666666</ele><time>2026-03-28T10:21:49.999Z</time></trkpt><trkpt lat="44.89793184484828" lon="12.021322153448146"><ele>-4.333333333333333</ele><time>2026-03-28T10:21:51.999Z</time></trkpt><trkpt lat="44.89793623239153" lon="12.021439507548836"><ele>-4.0</ele><time>2026-03-28T10:21:53.999Z</time></trkpt><trkpt lat="44.89794098718469" lon="12.02156595510495"><ele>-3.833333333333333</ele><time>2026-03-28T10:21:55.999Z</time></trkpt><trkpt lat="44.89793987261092" lon="12.021678474157115"><ele>-3.6666666666666665</ele><time>2026-03-28T10:21:57.999Z</time></trkpt><trkpt lat="44.89792975653719" lon="12.021777952968062"><ele>-3.5</ele><time>2026-03-28T10:21:59.999Z</time></trkpt><trkpt lat="44.897892639842325" lon="12.02189293603218"><ele>-3.333333333333333</ele><time>2026-03-28T10:22:02.999Z</time></trkpt><trkpt lat="44.89784130348348" lon="12.02196053033187"><ele>-3.1666666666666665</ele><time>2026-03-28T10:22:04.999Z</time></trkpt><trkpt lat="44.89778277682301" lon="12.0218405391408"><ele>-3.0</ele><time>2026-03-28T10:22:06.999Z</time></trkpt><trkpt lat="44.89771456594968" lon="12.021794284352232"><ele>-3.0</ele><time>2026-03-28T10:22:08.999Z</time></trkpt><trkpt lat="44.897639374253956" lon="12.021744201707532"><ele>-3.0</ele><time>2026-03-28T10:22:10.999Z</time></trkpt><trkpt lat="44.89756506876557" lon="12.021694815974335"><ele>-3.0</ele><time>2026-03-28T10:22:12.999Z</time></trkpt><trkpt lat="44.897491124438154" lon="12.021652139933561"><ele>-3.0</ele><time>2026-03-28T10:22:14.999Z</time></trkpt><trkpt lat="44.897408285222944" lon="12.021612983098533"><ele>-3.0</ele><time>2026-03-28T10:22:17Z</time></trkpt><trkpt lat="44.8973296817284" lon="12.021585418915388"><ele>-3.0</ele><time>2026-03-28T10:22:19Z</time></trkpt><trkpt lat="44.89725776661166" lon="12.021561539979572"><ele>-2.9999999999999996</ele><time>2026-03-28T10:22:21Z</time></trkpt><trkpt lat="44.89719600659028" lon="12.021540956552318"><ele>-3.0</ele><time>2026-03-28T10:22:23Z</time></trkpt><trkpt lat="44.897125113746554" lon="12.021517212031247"><ele>-3.0</ele><time>2026-03-28T10:22:25Z</time></trkpt><trkpt lat="44.89704608212812" lon="12.02149074157667"><ele>-3.0</ele><time>2026-03-28T10:22:27Z</time></trkpt><trkpt lat="44.8969715635481" lon="12.021467095539565"><ele>-3.0</ele><time>2026-03-28T10:22:29Z</time></trkpt><trkpt lat="44.89690118120495" lon="12.021446379552504"><ele>-2.9999999999999996</ele><time>2026-03-28T10:22:31Z</time></trkpt><trkpt lat="44.89683794970488" lon="12.021431155840924"><ele>-3.0</ele><time>2026-03-28T10:22:33Z</time></trkpt><trkpt lat="44.89674091169717" lon="12.021417308886525"><ele>-3.3333333333333335</ele><time>2026-03-28T10:22:36Z</time></trkpt><trkpt lat="44.89665610979465" lon="12.021421193932579"><ele>-3.666666666666667</ele><time>2026-03-28T10:22:38Z</time></trkpt><trkpt lat="44.896573511618634" lon="12.021457936509623"><ele>-4.0</ele><time>2026-03-28T10:22:40Z</time></trkpt><trkpt lat="44.896520616988106" lon="12.021521425950505"><ele>-4.333333333333334</ele><time>2026-03-28T10:22:42Z</time></trkpt><trkpt lat="44.89644577599266" lon="12.021477844127894"><ele>-4.666666666666667</ele><time>2026-03-28T10:22:45Z</time></trkpt><trkpt lat="44.89637080119404" lon="12.021450801718512"><ele>-5.0</ele><time>2026-03-28T10:22:53Z</time></trkpt><trkpt lat="44.89630936579538" lon="12.021428510342409"><ele>-5.0</ele><time>2026-03-28T10:22:55Z</time></trkpt><trkpt lat="44.896238489278446" lon="12.021402208259078"><ele>-5.0</ele><time>2026-03-28T10:22:57Z</time></trkpt><trkpt lat="44.896174962375675" lon="12.02137725943322"><ele>-5.0</ele><time>2026-03-28T10:22:59Z</time></trkpt><trkpt lat="44.896103671713135" lon="12.021346817100644"><ele>-5.0</ele><time>2026-03-28T10:23:01Z</time></trkpt><trkpt lat="44.89602218486906" lon="12.021309510786981"><ele>-5.0</ele><time>2026-03-28T10:23:03Z</time></trkpt><trkpt lat="44.89594090195682" lon="12.021267227302143"><ele>-5.0</ele><time>2026-03-28T10:23:05Z</time></trkpt><trkpt lat="44.89585762883538" lon="12.021220485047978"><ele>-4.8</ele><time>2026-03-28T10:23:07Z</time></trkpt><trkpt lat="44.89577602133597" lon="12.021172775852882"><ele>-4.6</ele><time>2026-03-28T10:23:09Z</time></trkpt><trkpt lat="44.89569316194703" lon="12.02112316837609"><ele>-4.4</ele><time>2026-03-28T10:23:11Z</time></trkpt><trkpt lat="44.89560850073491" lon="12.021068755886919"><ele>-4.2</ele><time>2026-03-28T10:23:13Z</time></trkpt><trkpt lat="44.895528336762105" lon="12.021010695824192"><ele>-4.0</ele><time>2026-03-28T10:23:15Z</time></trkpt><trkpt lat="44.895448749989086" lon="12.020948242766137"><ele>-4.0</ele><time>2026-03-28T10:23:17Z</time></trkpt><trkpt lat="44.89537079089671" lon="12.020882572515953"><ele>-4.0</ele><time>2026-03-28T10:23:19Z</time></trkpt><trkpt lat="44.8952914959529" lon="12.020812255810112"><ele>-4.0</ele><time>2026-03-28T10:23:21Z</time></trkpt><trkpt lat="44.89521460431559" lon="12.020739988780328"><ele>-4.0</ele><time>2026-03-28T10:23:23Z</time></trkpt><trkpt lat="44.89513759077004" lon="12.020666288264726"><ele>-4.0</ele><time>2026-03-28T10:23:24.999Z</time></trkpt><trkpt lat="44.89506079704368" lon="12.020591343985735"><ele>-4.0</ele><time>2026-03-28T10:23:26.999Z</time></trkpt><trkpt lat="44.89495747729878" lon="12.020564950100368"><ele>-4.0</ele><time>2026-03-28T10:23:28.999Z</time></trkpt><trkpt lat="44.89487744939179" lon="12.020486438456699"><ele>-4.0</ele><time>2026-03-28T10:23:30.999Z</time></trkpt><trkpt lat="44.89480064360884" lon="12.020404281377973"><ele>-4.0</ele><time>2026-03-28T10:23:32.999Z</time></trkpt><trkpt lat="44.894720981071146" lon="12.020330330355751"><ele>-4.0</ele><time>2026-03-28T10:23:34.999Z</time></trkpt><trkpt lat="44.89464257201631" lon="12.020253933731519"><ele>-4.0</ele><time>2026-03-28T10:23:36.999Z</time></trkpt><trkpt lat="44.89456666369651" lon="12.020173090710777"><ele>-4.0</ele><time>2026-03-28T10:23:38.999Z</time></trkpt><trkpt lat="44.89448889700572" lon="12.020096969798313"><ele>-4.0</ele><time>2026-03-28T10:23:40.999Z</time></trkpt><trkpt lat="44.89441342313343" lon="12.02001717060632"><ele>-4.0</ele><time>2026-03-28T10:23:42.999Z</time></trkpt><trkpt lat="44.894336707469726" lon="12.019936878408743"><ele>-4.0</ele><time>2026-03-28T10:23:44.999Z</time></trkpt><trkpt lat="44.89425873095094" lon="12.019852197322853"><ele>-3.8000000000000003</ele><time>2026-03-28T10:23:46.999Z</time></trkpt><trkpt lat="44.89418060845729" lon="12.019776711658746"><ele>-3.6000000000000005</ele><time>2026-03-28T10:23:48.999Z</time></trkpt><trkpt lat="44.89410491279401" lon="12.019697224761767"><ele>-3.4</ele><time>2026-03-28T10:23:50.999Z</time></trkpt><trkpt lat="44.89402948512069" lon="12.01961828655345"><ele>-3.2</ele><time>2026-03-28T10:23:52.999Z</time></trkpt><trkpt lat="44.89395363769368" lon="12.019539131666802"><ele>-3.0</ele><time>2026-03-28T10:23:54.999Z</time></trkpt><trkpt lat="44.89387706096993" lon="12.019463477881517"><ele>-3.0</ele><time>2026-03-28T10:23:56.999Z</time></trkpt><trkpt lat="44.8937970645118" lon="12.019389343691174"><ele>-3.0</ele><time>2026-03-28T10:23:58.999Z</time></trkpt><trkpt lat="44.89372269242298" lon="12.01930650075086"><ele>-3.0</ele><time>2026-03-28T10:24:00.999Z</time></trkpt><trkpt lat="44.893644417803834" lon="12.019226500706372"><ele>-3.0</ele><time>2026-03-28T10:24:02.999Z</time></trkpt><trkpt lat="44.89356550444482" lon="12.019150000140533"><ele>-3.0</ele><time>2026-03-28T10:24:04.999Z</time></trkpt><trkpt lat="44.89348850234822" lon="12.019069377967751"><ele>-3.2</ele><time>2026-03-28T10:24:06.999Z</time></trkpt><trkpt lat="44.89341245585253" lon="12.018993796016849"><ele>-3.4</ele><time>2026-03-28T10:24:08.999Z</time></trkpt><trkpt lat="44.893332646029656" lon="12.018919888017143"><ele>-3.6000000000000005</ele><time>2026-03-28T10:24:10.999Z</time></trkpt><trkpt lat="44.89325174418827" lon="12.01884616568899"><ele>-3.8000000000000003</ele><time>2026-03-28T10:24:12.999Z</time></trkpt><trkpt lat="44.89317049048048" lon="12.018776409953048"><ele>-4.0</ele><time>2026-03-28T10:24:14.999Z</time></trkpt><trkpt lat="44.89308410411114" lon="12.018713520998064"><ele>-4.0</ele><time>2026-03-28T10:24:16.999Z</time></trkpt><trkpt lat="44.89299711064793" lon="12.018656462095038"><ele>-4.0</ele><time>2026-03-28T10:24:18.999Z</time></trkpt><trkpt lat="44.89290801401824" lon="12.018608354861508"><ele>-4.0</ele><time>2026-03-28T10:24:20.999Z</time></trkpt><trkpt lat="44.892815561262616" lon="12.018554120336304"><ele>-4.0</ele><time>2026-03-28T10:24:23Z</time></trkpt><trkpt lat="44.89272524807064" lon="12.018507170445965"><ele>-4.0</ele><time>2026-03-28T10:24:25Z</time></trkpt><trkpt lat="44.892636776638135" lon="12.01846201490378"><ele>-4.0</ele><time>2026-03-28T10:24:27Z</time></trkpt><trkpt lat="44.8925532043686" lon="12.01841412096191"><ele>-4.0</ele><time>2026-03-28T10:24:29Z</time></trkpt><trkpt lat="44.892469562598414" lon="12.01837310768987"><ele>-4.0</ele><time>2026-03-28T10:24:31Z</time></trkpt><trkpt lat="44.89238328740396" lon="12.01833229522775"><ele>-4.0</ele><time>2026-03-28T10:24:33Z</time></trkpt><trkpt lat="44.892293839601685" lon="12.018284614139302"><ele>-4.0</ele><time>2026-03-28T10:24:35Z</time></trkpt><trkpt lat="44.892204724706964" lon="12.018237264715086"><ele>-4.0</ele><time>2026-03-28T10:24:37Z</time></trkpt><trkpt lat="44.892116042369814" lon="12.018190855228417"><ele>-4.0</ele><time>2026-03-28T10:24:39Z</time></trkpt><trkpt lat="44.89202895963145" lon="12.01814510311863"><ele>-4.0</ele><time>2026-03-28T10:24:41Z</time></trkpt><trkpt lat="44.891939213875645" lon="12.018096935605637"><ele>-4.0</ele><time>2026-03-28T10:24:43Z</time></trkpt><trkpt lat="44.89185138843319" lon="12.018049852013554"><ele>-4.0</ele><time>2026-03-28T10:24:45Z</time></trkpt><trkpt lat="44.89175722890499" lon="12.018002317467058"><ele>-4.2</ele><time>2026-03-28T10:24:47Z</time></trkpt><trkpt lat="44.89167021218658" lon="12.017957637259043"><ele>-4.4</ele><time>2026-03-28T10:24:49Z</time></trkpt><trkpt lat="44.89158658341604" lon="12.017912893429585"><ele>-4.6</ele><time>2026-03-28T10:24:51Z</time></trkpt><trkpt lat="44.89150110246434" lon="12.017865711948312"><ele>-4.8</ele><time>2026-03-28T10:24:53Z</time></trkpt><trkpt lat="44.891410246309896" lon="12.017820608050013"><ele>-5.0</ele><time>2026-03-28T10:24:55Z</time></trkpt><trkpt lat="44.891323327974774" lon="12.017776400906374"><ele>-5.0</ele><time>2026-03-28T10:24:57Z</time></trkpt><trkpt lat="44.89124195859767" lon="12.017728992053952"><ele>-5.0</ele><time>2026-03-28T10:24:59Z</time></trkpt><trkpt lat="44.891161023349134" lon="12.017689500108863"><ele>-5.0</ele><time>2026-03-28T10:25:01Z</time></trkpt><trkpt lat="44.891085146156286" lon="12.01765122328291"><ele>-5.0</ele><time>2026-03-28T10:25:03Z</time></trkpt><trkpt lat="44.891006376091944" lon="12.017603994645958"><ele>-5.0</ele><time>2026-03-28T10:25:05Z</time></trkpt><trkpt lat="44.890917751095515" lon="12.017561445758753"><ele>-5.0</ele><time>2026-03-28T10:25:07Z</time></trkpt><trkpt lat="44.8908303308285" lon="12.017511626392443"><ele>-4.833333333333334</ele><time>2026-03-28T10:25:09Z</time></trkpt><trkpt lat="44.890757044842644" lon="12.017428496794144"><ele>-4.666666666666667</ele><time>2026-03-28T10:25:11Z</time></trkpt><trkpt lat="44.89067647439175" lon="12.017386110851321"><ele>-4.5</ele><time>2026-03-28T10:25:13Z</time></trkpt><trkpt lat="44.89059896730903" lon="12.017345335712943"><ele>-4.333333333333333</ele><time>2026-03-28T10:25:15Z</time></trkpt><trkpt lat="44.8905049266932" lon="12.017341232526299"><ele>-4.166666666666666</ele><time>2026-03-28T10:25:17Z</time></trkpt><trkpt lat="44.890417634910065" lon="12.017299339378198"><ele>-4.0</ele><time>2026-03-28T10:25:19Z</time></trkpt><trkpt lat="44.8903495019187" lon="12.017213340187174"><ele>-3.9999999999999996</ele><time>2026-03-28T10:25:21Z</time></trkpt><trkpt lat="44.890274016905295" lon="12.017173471353074"><ele>-4.0</ele><time>2026-03-28T10:25:23Z</time></trkpt><trkpt lat="44.89020212712426" lon="12.017135501385713"><ele>-4.0</ele><time>2026-03-28T10:25:25Z</time></trkpt><trkpt lat="44.89013250507572" lon="12.017098729187914"><ele>-4.0</ele><time>2026-03-28T10:25:27Z</time></trkpt><trkpt lat="44.890054290366066" lon="12.017057418592737"><ele>-3.9999999999999996</ele><time>2026-03-28T10:25:28.999Z</time></trkpt><trkpt lat="44.88996947646435" lon="12.017012622504243"><ele>-4.0</ele><time>2026-03-28T10:25:30.999Z</time></trkpt><trkpt lat="44.8898914991276" lon="12.016971436242034"><ele>-3.833333333333333</ele><time>2026-03-28T10:25:32.999Z</time></trkpt><trkpt lat="44.889810837012966" lon="12.016929000910228"><ele>-3.6666666666666665</ele><time>2026-03-28T10:25:34.999Z</time></trkpt><trkpt lat="44.889737308550835" lon="12.016890256807088"><ele>-3.5</ele><time>2026-03-28T10:25:36.999Z</time></trkpt><trkpt lat="44.88967184968652" lon="12.016855764726117"><ele>-3.333333333333333</ele><time>2026-03-28T10:25:38.999Z</time></trkpt><trkpt lat="44.8896034121905" lon="12.016819703184467"><ele>-3.1666666666666665</ele><time>2026-03-28T10:25:40.999Z</time></trkpt><trkpt lat="44.88953196293693" lon="12.01678204849887"><ele>-3.0</ele><time>2026-03-28T10:25:42.999Z</time></trkpt><trkpt lat="44.88946635887616" lon="12.016747431780834"><ele>-2.9999999999999996</ele><time>2026-03-28T10:25:44.999Z</time></trkpt><trkpt lat="44.889394795008755" lon="12.016709670245051"><ele>-3.0</ele><time>2026-03-28T10:25:46.999Z</time></trkpt><trkpt lat="44.889326297765244" lon="12.01667352689365"><ele>-3.0</ele><time>2026-03-28T10:25:48.999Z</time></trkpt><trkpt lat="44.889259939661606" lon="12.01663851225362"><ele>-3.0</ele><time>2026-03-28T10:25:50.999Z</time></trkpt><trkpt lat="44.88919563593287" lon="12.016604581644195"><ele>-3.0</ele><time>2026-03-28T10:25:52.999Z</time></trkpt><trkpt lat="44.88913408451681" lon="12.016572103325258"><ele>-2.9999999999999996</ele><time>2026-03-28T10:25:54.999Z</time></trkpt><trkpt lat="44.88907389024295" lon="12.016540341103362"><ele>-3.0</ele><time>2026-03-28T10:25:56.999Z</time></trkpt><trkpt lat="44.889010601259805" lon="12.016506945913127"><ele>-3.2857142857142856</ele><time>2026-03-28T10:25:58.999Z</time></trkpt><trkpt lat="44.88894212792207" lon="12.016470815172179"><ele>-3.571428571428571</ele><time>2026-03-28T10:26:00.999Z</time></trkpt><trkpt lat="44.88887709678321" lon="12.01643650072963"><ele>-3.8571428571428568</ele><time>2026-03-28T10:26:02.999Z</time></trkpt><trkpt lat="44.888811450344875" lon="12.016401861625615"><ele>-4.142857142857142</ele><time>2026-03-28T10:26:04.999Z</time></trkpt><trkpt lat="44.888746625364014" lon="12.016367655971399"><ele>-4.428571428571429</ele><time>2026-03-28T10:26:06.999Z</time></trkpt><trkpt lat="44.8886814899099" lon="12.016332928043612"><ele>-4.714285714285714</ele><time>2026-03-28T10:26:08.999Z</time></trkpt><trkpt lat="44.888617900811774" lon="12.016298873388337"><ele>-5.0</ele><time>2026-03-28T10:26:10.999Z</time></trkpt><trkpt lat="44.888551240119696" lon="12.016265438853734"><ele>-5.0</ele><time>2026-03-28T10:26:12.999Z</time></trkpt><trkpt lat="44.88848976562942" lon="12.01623442585536"><ele>-5.0</ele><time>2026-03-28T10:26:14.999Z</time></trkpt><trkpt lat="44.8884208866873" lon="12.016217919762857"><ele>-5.0</ele><time>2026-03-28T10:26:16.999Z</time></trkpt><trkpt lat="44.88836380114249" lon="12.016167799677108"><ele>-5.0</ele><time>2026-03-28T10:26:18.999Z</time></trkpt><trkpt lat="44.88832212160182" lon="12.01609539939441"><ele>-5.0</ele><time>2026-03-28T10:26:20.999Z</time></trkpt><trkpt lat="44.888271895240266" lon="12.016002414020067"><ele>-5.0</ele><time>2026-03-28T10:26:22.999Z</time></trkpt><trkpt lat="44.88825376898285" lon="12.015899811961644"><ele>-5.0</ele><time>2026-03-28T10:26:24.999Z</time></trkpt><trkpt lat="44.88819936439722" lon="12.015803892853057"><ele>-4.6</ele><time>2026-03-28T10:26:27.999Z</time></trkpt><trkpt lat="44.8880770503023" lon="12.015898286730089"><ele>-4.2</ele><time>2026-03-28T10:26:29Z</time></trkpt><trkpt lat="44.88800942322842" lon="12.015907496003608"><ele>-3.8</ele><time>2026-03-28T10:26:31Z</time></trkpt><trkpt lat="44.8879745323527" lon="12.016001843276975"><ele>-3.4</ele><time>2026-03-28T10:26:34Z</time></trkpt><trkpt lat="44.88788195697776" lon="12.01590861556511"><ele>-3.0</ele><time>2026-03-28T10:26:35Z</time></trkpt><trkpt lat="44.887798767050235" lon="12.015864053369269"><ele>-3.0</ele><time>2026-03-28T10:26:37Z</time></trkpt><trkpt lat="44.887719607601575" lon="12.015821918296789"><ele>-3.0</ele><time>2026-03-28T10:26:39Z</time></trkpt><trkpt lat="44.88764831629096" lon="12.015783971348954"><ele>-3.0</ele><time>2026-03-28T10:26:41Z</time></trkpt><trkpt lat="44.88758288185237" lon="12.015749141902692"><ele>-3.0</ele><time>2026-03-28T10:26:43Z</time></trkpt><trkpt lat="44.88751246264326" lon="12.015711659159239"><ele>-3.0</ele><time>2026-03-28T10:26:45Z</time></trkpt><trkpt lat="44.88742946355466" lon="12.015667480373166"><ele>-3.0</ele><time>2026-03-28T10:26:47Z</time></trkpt><trkpt lat="44.88734337618273" lon="12.015621657732662"><ele>-3.2</ele><time>2026-03-28T10:26:49Z</time></trkpt><trkpt lat="44.88725638992464" lon="12.01557582009646"><ele>-3.4</ele><time>2026-03-28T10:26:51Z</time></trkpt><trkpt lat="44.88716924829967" lon="12.015529970707595"><ele>-3.6000000000000005</ele><time>2026-03-28T10:26:53Z</time></trkpt><trkpt lat="44.88708091141754" lon="12.01548349253043"><ele>-3.8000000000000003</ele><time>2026-03-28T10:26:55Z</time></trkpt><trkpt lat="44.886992838510274" lon="12.015437397307048"><ele>-4.0</ele><time>2026-03-28T10:26:57Z</time></trkpt><trkpt lat="44.886903521333764" lon="12.015388926597032"><ele>-4.0</ele><time>2026-03-28T10:26:59Z</time></trkpt><trkpt lat="44.886813391832945" lon="12.015340015032834"><ele>-4.0</ele><time>2026-03-28T10:27:01Z</time></trkpt><trkpt lat="44.88672559598157" lon="12.015292369898905"><ele>-4.0</ele><time>2026-03-28T10:27:03Z</time></trkpt><trkpt lat="44.8866360419868" lon="12.015243853994196"><ele>-4.0</ele><time>2026-03-28T10:27:05Z</time></trkpt><trkpt lat="44.88654647435384" lon="12.015195338180105"><ele>-4.0</ele><time>2026-03-28T10:27:07Z</time></trkpt><trkpt lat="44.886459649395974" lon="12.01514741247647"><ele>-4.0</ele><time>2026-03-28T10:27:09Z</time></trkpt><trkpt lat="44.886374397350735" lon="12.015096959302594"><ele>-4.0</ele><time>2026-03-28T10:27:11Z</time></trkpt><trkpt lat="44.886289479982416" lon="12.015040644544818"><ele>-4.0</ele><time>2026-03-28T10:27:13Z</time></trkpt><trkpt lat="44.886206214513884" lon="12.014977435441574"><ele>-4.0</ele><time>2026-03-28T10:27:15Z</time></trkpt><trkpt lat="44.88612336834394" lon="12.014907080332708"><ele>-4.0</ele><time>2026-03-28T10:27:17Z</time></trkpt><trkpt lat="44.88604439620778" lon="12.014834252872246"><ele>-4.0</ele><time>2026-03-28T10:27:19Z</time></trkpt><trkpt lat="44.88596380367727" lon="12.01476049739477"><ele>-4.0</ele><time>2026-03-28T10:27:21Z</time></trkpt><trkpt lat="44.885895521814696" lon="12.014673491216758"><ele>-4.0</ele><time>2026-03-28T10:27:23Z</time></trkpt><trkpt lat="44.88582396611417" lon="12.014587861701017"><ele>-4.0</ele><time>2026-03-28T10:27:25Z</time></trkpt><trkpt lat="44.885750808920676" lon="12.01449716816629"><ele>-4.0</ele><time>2026-03-28T10:27:27Z</time></trkpt><trkpt lat="44.885679913165696" lon="12.01440637914654"><ele>-4.0</ele><time>2026-03-28T10:27:29Z</time></trkpt><trkpt lat="44.88560897864244" lon="12.014315257888384"><ele>-4.0</ele><time>2026-03-28T10:27:31Z</time></trkpt><trkpt lat="44.88553943943353" lon="12.014225929083107"><ele>-4.0</ele><time>2026-03-28T10:27:33Z</time></trkpt><trkpt lat="44.88546988739434" lon="12.01413658383728"><ele>-4.0</ele><time>2026-03-28T10:27:35Z</time></trkpt><trkpt lat="44.88540022687868" lon="12.01404709915842"><ele>-4.0</ele><time>2026-03-28T10:27:37Z</time></trkpt><trkpt lat="44.8853318512959" lon="12.013959265125136"><ele>-4.0</ele><time>2026-03-28T10:27:38.999Z</time></trkpt><trkpt lat="44.885263167684336" lon="12.013871035440891"><ele>-4.0</ele><time>2026-03-28T10:27:40.999Z</time></trkpt><trkpt lat="44.88519449397431" lon="12.013782818381461"><ele>-4.0</ele><time>2026-03-28T10:27:42.999Z</time></trkpt><trkpt lat="44.88512465542503" lon="12.013693105128027"><ele>-4.0</ele><time>2026-03-28T10:27:44.999Z</time></trkpt><trkpt lat="44.88505453370326" lon="12.013603028000361"><ele>-4.0</ele><time>2026-03-28T10:27:46.999Z</time></trkpt><trkpt lat="44.88498558031334" lon="12.0135144517217"><ele>-4.0</ele><time>2026-03-28T10:27:48.999Z</time></trkpt><trkpt lat="44.88491533164116" lon="12.013424211499535"><ele>-4.0</ele><time>2026-03-28T10:27:50.999Z</time></trkpt><trkpt lat="44.88484330533088" lon="12.013331687832045"><ele>-4.0</ele><time>2026-03-28T10:27:52.999Z</time></trkpt><trkpt lat="44.88477082802651" lon="12.013238584806883"><ele>-4.0</ele><time>2026-03-28T10:27:54.999Z</time></trkpt><trkpt lat="44.88469897367117" lon="12.013146282006018"><ele>-4.0</ele><time>2026-03-28T10:27:56.999Z</time></trkpt><trkpt lat="44.884629282211606" lon="12.013056757653125"><ele>-4.2</ele><time>2026-03-28T10:27:58.999Z</time></trkpt><trkpt lat="44.884558768258216" lon="12.01296617670936"><ele>-4.4</ele><time>2026-03-28T10:28:00.999Z</time></trkpt><trkpt lat="44.884488476125206" lon="12.012875880669327"><ele>-4.6</ele><time>2026-03-28T10:28:02.999Z</time></trkpt><trkpt lat="44.88441796405184" lon="12.012785302108364"><ele>-4.8</ele><time>2026-03-28T10:28:04.999Z</time></trkpt><trkpt lat="44.88434834583584" lon="12.012695871840068"><ele>-5.0</ele><time>2026-03-28T10:28:06.999Z</time></trkpt><trkpt lat="44.88428068975078" lon="12.012608962059993"><ele>-4.8</ele><time>2026-03-28T10:28:08.999Z</time></trkpt><trkpt lat="44.884212342818884" lon="12.012521164828351"><ele>-4.6</ele><time>2026-03-28T10:28:10.999Z</time></trkpt><trkpt lat="44.88414363574202" lon="12.012432904927254"><ele>-4.4</ele><time>2026-03-28T10:28:12.999Z</time></trkpt><trkpt lat="44.88407433333056" lon="12.012343880391047"><ele>-4.2</ele><time>2026-03-28T10:28:14.999Z</time></trkpt><trkpt lat="44.88400509114183" lon="12.01225493311676"><ele>-4.0</ele><time>2026-03-28T10:28:16.999Z</time></trkpt><trkpt lat="44.88393449451775" lon="12.012164245923469"><ele>-4.0</ele><time>2026-03-28T10:28:18.999Z</time></trkpt><trkpt lat="44.883862773171515" lon="12.012072114017204"><ele>-4.0</ele><time>2026-03-28T10:28:20.999Z</time></trkpt><trkpt lat="44.88379297313457" lon="12.011982450164863"><ele>-4.0</ele><time>2026-03-28T10:28:22.999Z</time></trkpt><trkpt lat="44.883725065099185" lon="12.011895216678031"><ele>-4.0</ele><time>2026-03-28T10:28:24.999Z</time></trkpt><trkpt lat="44.88365884635404" lon="12.011810153333972"><ele>-4.0</ele><time>2026-03-28T10:28:26.999Z</time></trkpt><trkpt lat="44.88359371630033" lon="12.011726488384914"><ele>-4.2</ele><time>2026-03-28T10:28:28.999Z</time></trkpt><trkpt lat="44.88352700131623" lon="12.011640788997656"><ele>-4.4</ele><time>2026-03-28T10:28:30.999Z</time></trkpt><trkpt lat="44.88345534256114" lon="12.011548737512577"><ele>-4.6</ele><time>2026-03-28T10:28:32.999Z</time></trkpt><trkpt lat="44.883383727349155" lon="12.011456745646312"><ele>-4.8</ele><time>2026-03-28T10:28:35Z</time></trkpt><trkpt lat="44.883309761054946" lon="12.01136253840783"><ele>-5.0</ele><time>2026-03-28T10:28:37Z</time></trkpt><trkpt lat="44.88323376623611" lon="12.01126536146761"><ele>-5.0</ele><time>2026-03-28T10:28:39Z</time></trkpt><trkpt lat="44.88315467271349" lon="12.011164222104396"><ele>-5.0</ele><time>2026-03-28T10:28:41Z</time></trkpt><trkpt lat="44.88307705815033" lon="12.011064973926551"><ele>-5.0</ele><time>2026-03-28T10:28:43Z</time></trkpt><trkpt lat="44.88297767211488" lon="12.011000758861796"><ele>-5.0</ele><time>2026-03-28T10:28:45Z</time></trkpt><trkpt lat="44.88290509375503" lon="12.01090553166427"><ele>-5.0</ele><time>2026-03-28T10:28:47Z</time></trkpt><trkpt lat="44.88283145092108" lon="12.010815340589057"><ele>-5.0</ele><time>2026-03-28T10:28:49Z</time></trkpt><trkpt lat="44.882764030644935" lon="12.010729982906577"><ele>-5.0</ele><time>2026-03-28T10:28:51Z</time></trkpt><trkpt lat="44.882700663462344" lon="12.010648197279586"><ele>-5.0</ele><time>2026-03-28T10:28:53Z</time></trkpt><trkpt lat="44.882641504867486" lon="12.010574647541727"><ele>-5.0</ele><time>2026-03-28T10:28:55Z</time></trkpt><trkpt lat="44.88258143168905" lon="12.010508569453117"><ele>-5.0</ele><time>2026-03-28T10:28:57Z</time></trkpt><trkpt lat="44.882524284104285" lon="12.010420003675366"><ele>-5.0</ele><time>2026-03-28T10:28:59Z</time></trkpt><trkpt lat="44.88245561360954" lon="12.010331105413437"><ele>-5.0</ele><time>2026-03-28T10:29:01Z</time></trkpt><trkpt lat="44.882383676989726" lon="12.010241104626788"><ele>-5.0</ele><time>2026-03-28T10:29:03Z</time></trkpt><trkpt lat="44.882313495644084" lon="12.01015207767537"><ele>-5.0</ele><time>2026-03-28T10:29:05Z</time></trkpt><trkpt lat="44.88224237819085" lon="12.010062687973399"><ele>-5.0</ele><time>2026-03-28T10:29:07Z</time></trkpt><trkpt lat="44.882173584670326" lon="12.009968278230579"><ele>-5.0</ele><time>2026-03-28T10:29:09Z</time></trkpt><trkpt lat="44.88210018810417" lon="12.009877842625336"><ele>-5.0</ele><time>2026-03-28T10:29:11Z</time></trkpt><trkpt lat="44.882032076258064" lon="12.009797994358676"><ele>-5.0</ele><time>2026-03-28T10:29:13Z</time></trkpt><trkpt lat="44.8819663258857" lon="12.009724244542618"><ele>-5.0</ele><time>2026-03-28T10:29:15Z</time></trkpt><trkpt lat="44.881907675516814" lon="12.009651462754537"><ele>-5.0</ele><time>2026-03-28T10:29:17Z</time></trkpt><trkpt lat="44.881844436045064" lon="12.00959917778102"><ele>-5.0</ele><time>2026-03-28T10:29:19Z</time></trkpt><trkpt lat="44.88178658364877" lon="12.009546458336153"><ele>-5.0</ele><time>2026-03-28T10:29:21Z</time></trkpt><trkpt lat="44.88173257807595" lon="12.009496815437041"><ele>-4.666666666666667</ele><time>2026-03-28T10:29:23Z</time></trkpt><trkpt lat="44.88166011404069" lon="12.009429802639515"><ele>-4.333333333333334</ele><time>2026-03-28T10:29:26Z</time></trkpt><trkpt lat="44.88160725992434" lon="12.009381272723159"><ele>-4.0</ele><time>2026-03-28T10:29:28Z</time></trkpt><trkpt lat="44.8815320188889" lon="12.009324131402703"><ele>-3.666666666666667</ele><time>2026-03-28T10:29:30Z</time></trkpt><trkpt lat="44.88145159177906" lon="12.009265571600876"><ele>-3.3333333333333335</ele><time>2026-03-28T10:29:32Z</time></trkpt><trkpt lat="44.88137193750668" lon="12.009209271887283"><ele>-3.0</ele><time>2026-03-28T10:29:34Z</time></trkpt><trkpt lat="44.881298114397815" lon="12.009163125915508"><ele>-3.1428571428571423</ele><time>2026-03-28T10:29:36Z</time></trkpt><trkpt lat="44.88122757805882" lon="12.00912725256123"><ele>-3.2857142857142856</ele><time>2026-03-28T10:29:38Z</time></trkpt><trkpt lat="44.88116163005514" lon="12.009092077174058"><ele>-3.4285714285714284</ele><time>2026-03-28T10:29:40Z</time></trkpt><trkpt lat="44.88110177966171" lon="12.009056849247974"><ele>-3.571428571428571</ele><time>2026-03-28T10:29:41.999Z</time></trkpt><trkpt lat="44.88103461072452" lon="12.009025304210617"><ele>-3.714285714285714</ele><time>2026-03-28T10:29:43.999Z</time></trkpt><trkpt lat="44.88097102075205" lon="12.008993786725016"><ele>-3.8571428571428568</ele><time>2026-03-28T10:29:45.999Z</time></trkpt><trkpt lat="44.88091048026261" lon="12.008961971434044"><ele>-4.0</ele><time>2026-03-28T10:29:47.999Z</time></trkpt><trkpt lat="44.8808214147015" lon="12.00891926456837"><ele>-3.9999999999999996</ele><time>2026-03-28T10:29:50.999Z</time></trkpt><trkpt lat="44.88074312366684" lon="12.008879096711814"><ele>-4.0</ele><time>2026-03-28T10:29:53.999Z</time></trkpt><trkpt lat="44.880678816585586" lon="12.008840551911142"><ele>-4.0</ele><time>2026-03-28T10:29:55.999Z</time></trkpt><trkpt lat="44.88060191618504" lon="12.008791456132482"><ele>-4.0</ele><time>2026-03-28T10:29:57.999Z</time></trkpt><trkpt lat="44.880521672587" lon="12.008740539621712"><ele>-3.9999999999999996</ele><time>2026-03-28T10:29:59.999Z</time></trkpt><trkpt lat="44.88044191640878" lon="12.008708823584946"><ele>-4.0</ele><time>2026-03-28T10:30:01.999Z</time></trkpt><trkpt lat="44.8803743224107" lon="12.00866478892191"><ele>-3.9999999999999996</ele><time>2026-03-28T10:30:03.999Z</time></trkpt><trkpt lat="44.880308324709176" lon="12.0086365330681"><ele>-4.0</ele><time>2026-03-28T10:30:05.999Z</time></trkpt><trkpt lat="44.8802442565464" lon="12.008659150527707"><ele>-4.0</ele><time>2026-03-28T10:30:07.999Z</time></trkpt><trkpt lat="44.88018466609586" lon="12.008726597288948"><ele>-4.0</ele><time>2026-03-28T10:30:09.999Z</time></trkpt><trkpt lat="44.88014517833316" lon="12.008843930395583"><ele>-3.9999999999999996</ele><time>2026-03-28T10:30:11.999Z</time></trkpt><trkpt lat="44.880113504540205" lon="12.008964680769994"><ele>-4.0</ele><time>2026-03-28T10:30:13.999Z</time></trkpt><trkpt lat="44.88007854983392" lon="12.009085812359526"><ele>-4.0</ele><time>2026-03-28T10:30:15.999Z</time></trkpt><trkpt lat="44.88004867968247" lon="12.009206866885911"><ele>-4.0</ele><time>2026-03-28T10:30:17.999Z</time></trkpt><trkpt lat="44.88001715958458" lon="12.009328788390917"><ele>-4.0</ele><time>2026-03-28T10:30:19.999Z</time></trkpt><trkpt lat="44.8799859500619" lon="12.009449952190186"><ele>-4.0</ele><time>2026-03-28T10:30:21.999Z</time></trkpt><trkpt lat="44.879954988693655" lon="12.009573585261807"><ele>-4.0</ele><time>2026-03-28T10:30:23.999Z</time></trkpt><trkpt lat="44.87992256639532" lon="12.009696056521703"><ele>-4.0</ele><time>2026-03-28T10:30:25.999Z</time></trkpt><trkpt lat="44.87989138523852" lon="12.009821659972648"><ele>-4.0</ele><time>2026-03-28T10:30:27.999Z</time></trkpt><trkpt lat="44.879856324396975" lon="12.0099458529766"><ele>-4.0</ele><time>2026-03-28T10:30:29.999Z</time></trkpt><trkpt lat="44.87982304652588" lon="12.01006971830531"><ele>-4.0</ele><time>2026-03-28T10:30:31.999Z</time></trkpt><trkpt lat="44.87979098761943" lon="12.010194198562726"><ele>-4.0</ele><time>2026-03-28T10:30:33.999Z</time></trkpt><trkpt lat="44.879756572256774" lon="12.010319688894716"><ele>-4.0</ele><time>2026-03-28T10:30:35.999Z</time></trkpt><trkpt lat="44.87972321311243" lon="12.010442735735014"><ele>-4.0</ele><time>2026-03-28T10:30:37.999Z</time></trkpt><trkpt lat="44.879696735421454" lon="12.010575218805664"><ele>-4.0</ele><time>2026-03-28T10:30:39.999Z</time></trkpt><trkpt lat="44.87965855670076" lon="12.010695826684547"><ele>-4.0</ele><time>2026-03-28T10:30:42Z</time></trkpt><trkpt lat="44.87963019671218" lon="12.010825019515634"><ele>-4.0</ele><time>2026-03-28T10:30:44Z</time></trkpt><trkpt lat="44.87959359365881" lon="12.010948693440316"><ele>-4.0</ele><time>2026-03-28T10:30:46Z</time></trkpt><trkpt lat="44.879560285917925" lon="12.0110754898698"><ele>-4.0</ele><time>2026-03-28T10:30:48Z</time></trkpt><trkpt lat="44.87952556230819" lon="12.011202420729434"><ele>-4.0</ele><time>2026-03-28T10:30:50Z</time></trkpt><trkpt lat="44.8794943784384" lon="12.011328031565577"><ele>-4.0</ele><time>2026-03-28T10:30:52Z</time></trkpt><trkpt lat="44.879460283755236" lon="12.011450504236503"><ele>-4.0</ele><time>2026-03-28T10:30:54Z</time></trkpt><trkpt lat="44.87942798388199" lon="12.011573351013942"><ele>-4.2</ele><time>2026-03-28T10:30:56Z</time></trkpt><trkpt lat="44.87939397311589" lon="12.011699499756993"><ele>-4.4</ele><time>2026-03-28T10:30:58Z</time></trkpt><trkpt lat="44.879360204490766" lon="12.011821763502121"><ele>-4.6</ele><time>2026-03-28T10:31:00Z</time></trkpt><trkpt lat="44.87932695856579" lon="12.011949447481282"><ele>-4.8</ele><time>2026-03-28T10:31:02Z</time></trkpt><trkpt lat="44.879295873167536" lon="12.012074041132026"><ele>-5.0</ele><time>2026-03-28T10:31:04Z</time></trkpt><trkpt lat="44.879260686691126" lon="12.012196457560313"><ele>-4.833333333333334</ele><time>2026-03-28T10:31:06Z</time></trkpt><trkpt lat="44.87923094034796" lon="12.012313710920665"><ele>-4.666666666666667</ele><time>2026-03-28T10:31:08Z</time></trkpt><trkpt lat="44.87920255533529" lon="12.012428704602044"><ele>-4.5</ele><time>2026-03-28T10:31:10Z</time></trkpt><trkpt lat="44.87917006329791" lon="12.012543565673935"><ele>-4.333333333333333</ele><time>2026-03-28T10:31:12Z</time></trkpt><trkpt lat="44.879139210056245" lon="12.012668715531081"><ele>-4.166666666666666</ele><time>2026-03-28T10:31:14Z</time></trkpt><trkpt lat="44.87911238059514" lon="12.01278374821159"><ele>-4.0</ele><time>2026-03-28T10:31:16Z</time></trkpt><trkpt lat="44.8790904286805" lon="12.01288972280907"><ele>-3.9999999999999996</ele><time>2026-03-28T10:31:18Z</time></trkpt><trkpt lat="44.879067545299584" lon="12.012982061172016"><ele>-4.0</ele><time>2026-03-28T10:31:20Z</time></trkpt><trkpt lat="44.87903792544331" lon="12.013107052926607"><ele>-4.0</ele><time>2026-03-28T10:31:23Z</time></trkpt><trkpt lat="44.87900907857513" lon="12.013212002594964"><ele>-4.0</ele><time>2026-03-28T10:31:25Z</time></trkpt><trkpt lat="44.87898624848109" lon="12.013307847882404"><ele>-3.9999999999999996</ele><time>2026-03-28T10:31:27Z</time></trkpt><trkpt lat="44.87896185437348" lon="12.013391304320766"><ele>-4.0</ele><time>2026-03-28T10:31:29Z</time></trkpt><trkpt lat="44.87893143645661" lon="12.013510827179623"><ele>-4.166666666666666</ele><time>2026-03-28T10:31:32Z</time></trkpt><trkpt lat="44.87890274560847" lon="12.013615569005177"><ele>-4.333333333333333</ele><time>2026-03-28T10:31:34Z</time></trkpt><trkpt lat="44.8788684641662" lon="12.013731195823636"><ele>-4.5</ele><time>2026-03-28T10:31:36Z</time></trkpt><trkpt lat="44.87883364744829" lon="12.01384534912239"><ele>-4.666666666666667</ele><time>2026-03-28T10:31:38Z</time></trkpt><trkpt lat="44.87879956021447" lon="12.013964066756632"><ele>-4.833333333333334</ele><time>2026-03-28T10:31:40Z</time></trkpt><trkpt lat="44.878767327049246" lon="12.01408765693409"><ele>-5.0</ele><time>2026-03-28T10:31:42Z</time></trkpt><trkpt lat="44.87873504498437" lon="12.014209864377356"><ele>-5.0</ele><time>2026-03-28T10:31:44Z</time></trkpt><trkpt lat="44.87870275382541" lon="12.014333327437253"><ele>-5.0</ele><time>2026-03-28T10:31:46Z</time></trkpt><trkpt lat="44.87866995505819" lon="12.014463202805997"><ele>-5.0</ele><time>2026-03-28T10:31:48Z</time></trkpt><trkpt lat="44.87864385167937" lon="12.01458468815237"><ele>-5.0</ele><time>2026-03-28T10:31:49.999Z</time></trkpt><trkpt lat="44.87862043319774" lon="12.01469583716664"><ele>-5.0</ele><time>2026-03-28T10:31:51.999Z</time></trkpt><trkpt lat="44.878591344538265" lon="12.01479886481508"><ele>-5.0</ele><time>2026-03-28T10:31:53.999Z</time></trkpt><trkpt lat="44.87856574543634" lon="12.014897037376352"><ele>-4.833333333333334</ele><time>2026-03-28T10:31:55.999Z</time></trkpt><trkpt lat="44.878536035794696" lon="12.014994087676035"><ele>-4.666666666666667</ele><time>2026-03-28T10:31:57.999Z</time></trkpt><trkpt lat="44.87850681090794" lon="12.015105535188841"><ele>-4.5</ele><time>2026-03-28T10:31:59.999Z</time></trkpt><trkpt lat="44.87848599460504" lon="12.01520979828697"><ele>-4.333333333333333</ele><time>2026-03-28T10:32:01.999Z</time></trkpt><trkpt lat="44.8784563563041" lon="12.015309362546203"><ele>-4.166666666666666</ele><time>2026-03-28T10:32:03.999Z</time></trkpt><trkpt lat="44.87843040346501" lon="12.015423820770263"><ele>-4.0</ele><time>2026-03-28T10:32:05.999Z</time></trkpt><trkpt lat="44.87840260187245" lon="12.015524735655791"><ele>-4.0</ele><time>2026-03-28T10:32:07.999Z</time></trkpt><trkpt lat="44.878379445372516" lon="12.015622039777838"><ele>-3.9999999999999996</ele><time>2026-03-28T10:32:09.999Z</time></trkpt><trkpt lat="44.87835392887649" lon="12.015719923597546"><ele>-4.0</ele><time>2026-03-28T10:32:11.999Z</time></trkpt><trkpt lat="44.87834466413648" lon="12.01583703607422"><ele>-4.0</ele><time>2026-03-28T10:32:13.999Z</time></trkpt><trkpt lat="44.87832798519709" lon="12.015942831457824"><ele>-3.9999999999999996</ele><time>2026-03-28T10:32:15.999Z</time></trkpt><trkpt lat="44.87829316377353" lon="12.016019262179805"><ele>-4.0</ele><time>2026-03-28T10:32:17.999Z</time></trkpt><trkpt lat="44.87826623540502" lon="12.016121982693864"><ele>-4.0</ele><time>2026-03-28T10:32:44.999Z</time></trkpt><trkpt lat="44.8782416290557" lon="12.016215845690091"><ele>-3.8571428571428568</ele><time>2026-03-28T10:32:48Z</time></trkpt><trkpt lat="44.87824452983063" lon="12.016308713621303"><ele>-3.714285714285714</ele><time>2026-03-28T10:34:41.999Z</time></trkpt><trkpt lat="44.87830141903021" lon="12.016357212131439"><ele>-3.571428571428571</ele><time>2026-03-28T10:34:45.999Z</time></trkpt><trkpt lat="44.87836527859953" lon="12.01636315733511"><ele>-3.4285714285714284</ele><time>2026-03-28T10:34:48.999Z</time></trkpt><trkpt lat="44.878429023299205" lon="12.016385242520707"><ele>-3.2857142857142856</ele><time>2026-03-28T10:34:51.999Z</time></trkpt><trkpt lat="44.878382034801916" lon="12.016308427183583"><ele>-3.1428571428571423</ele><time>2026-03-28T10:42:15.999Z</time></trkpt><trkpt lat="44.87830526268437" lon="12.016295890228104"><ele>-3.0</ele><time>2026-03-28T10:42:20.999Z</time></trkpt><trkpt lat="44.87823858329469" lon="12.016282979717499"><ele>-3.0</ele><time>2026-03-28T10:42:24.999Z</time></trkpt><trkpt lat="44.87818506822747" lon="12.016352131127448"><ele>-3.0</ele><time>2026-03-28T10:42:27.999Z</time></trkpt><trkpt lat="44.87814087308067" lon="12.016490892684782"><ele>-3.0</ele><time>2026-03-28T10:42:29.999Z</time></trkpt><trkpt lat="44.87809760357859" lon="12.016628073579142"><ele>-3.0</ele><time>2026-03-28T10:42:31.999Z</time></trkpt><trkpt lat="44.87806593415645" lon="12.016747953014287"><ele>-3.0</ele><time>2026-03-28T10:42:33.999Z</time></trkpt><trkpt lat="44.878037286376504" lon="12.0168720396852"><ele>-2.8</ele><time>2026-03-28T10:42:35.999Z</time></trkpt><trkpt lat="44.87800306465049" lon="12.01699204689462"><ele>-2.5999999999999996</ele><time>2026-03-28T10:42:37.999Z</time></trkpt><trkpt lat="44.877969238610866" lon="12.01711386710727"><ele>-2.4000000000000004</ele><time>2026-03-28T10:42:39.999Z</time></trkpt><trkpt lat="44.877937778514" lon="12.017238567894179"><ele>-2.2</ele><time>2026-03-28T10:42:41.999Z</time></trkpt><trkpt lat="44.87790585817224" lon="12.017363158414403"><ele>-2.0</ele><time>2026-03-28T10:42:43.999Z</time></trkpt><trkpt lat="44.87787657241299" lon="12.01748897490495"><ele>-2.0</ele><time>2026-03-28T10:42:45.999Z</time></trkpt><trkpt lat="44.87784490267891" lon="12.017612956096933"><ele>-2.0</ele><time>2026-03-28T10:42:47.999Z</time></trkpt><trkpt lat="44.877812829499625" lon="12.01773980923652"><ele>-2.0</ele><time>2026-03-28T10:42:49.999Z</time></trkpt><trkpt lat="44.877779566614976" lon="12.017865116684838"><ele>-2.0</ele><time>2026-03-28T10:42:51.999Z</time></trkpt><trkpt lat="44.87774613252007" lon="12.017990618666484"><ele>-2.0</ele><time>2026-03-28T10:42:53.999Z</time></trkpt><trkpt lat="44.87771418272666" lon="12.018119221595818"><ele>-2.0</ele><time>2026-03-28T10:42:55.999Z</time></trkpt><trkpt lat="44.87767704663498" lon="12.018241654751169"><ele>-2.0</ele><time>2026-03-28T10:42:57.999Z</time></trkpt><trkpt lat="44.877636345826204" lon="12.018354467018886"><ele>-2.0</ele><time>2026-03-28T10:42:59.999Z</time></trkpt><trkpt lat="44.877588062554466" lon="12.018468474279413"><ele>-2.0</ele><time>2026-03-28T10:43:01.999Z</time></trkpt><trkpt lat="44.87754246399492" lon="12.018588272892735"><ele>-2.0</ele><time>2026-03-28T10:43:03.999Z</time></trkpt><trkpt lat="44.87748837838252" lon="12.018689881553783"><ele>-2.2</ele><time>2026-03-28T10:43:05.999Z</time></trkpt><trkpt lat="44.87743152955428" lon="12.018788482852486"><ele>-2.4000000000000004</ele><time>2026-03-28T10:43:07.999Z</time></trkpt><trkpt lat="44.87736431067753" lon="12.018879021210362"><ele>-2.5999999999999996</ele><time>2026-03-28T10:43:09.999Z</time></trkpt><trkpt lat="44.877286184480134" lon="12.018966269986395"><ele>-2.8</ele><time>2026-03-28T10:43:11.999Z</time></trkpt><trkpt lat="44.877207640800336" lon="12.019054770216139"><ele>-3.0</ele><time>2026-03-28T10:43:13.999Z</time></trkpt><trkpt lat="44.87712917882347" lon="12.019137824946949"><ele>-3.0</ele><time>2026-03-28T10:43:15.999Z</time></trkpt><trkpt lat="44.877050007906625" lon="12.019214026225962"><ele>-3.0</ele><time>2026-03-28T10:43:17.999Z</time></trkpt><trkpt lat="44.87697327771061" lon="12.019290102338408"><ele>-3.0</ele><time>2026-03-28T10:43:19.999Z</time></trkpt><trkpt lat="44.87689764500522" lon="12.019365498637194"><ele>-3.0</ele><time>2026-03-28T10:43:21.999Z</time></trkpt><trkpt lat="44.876820781500534" lon="12.019442675208666"><ele>-3.0</ele><time>2026-03-28T10:43:23.999Z</time></trkpt><trkpt lat="44.87674289882989" lon="12.019516122262697"><ele>-3.0</ele><time>2026-03-28T10:43:25.999Z</time></trkpt><trkpt lat="44.87666564696581" lon="12.019595613643425"><ele>-3.0</ele><time>2026-03-28T10:43:27.999Z</time></trkpt><trkpt lat="44.876587943030195" lon="12.019672609576357"><ele>-3.0</ele><time>2026-03-28T10:43:30Z</time></trkpt><trkpt lat="44.87650953591615" lon="12.01974921957169"><ele>-3.0</ele><time>2026-03-28T10:43:32Z</time></trkpt><trkpt lat="44.876432754607926" lon="12.019825638988559"><ele>-3.0</ele><time>2026-03-28T10:43:33.999Z</time></trkpt><trkpt lat="44.876354396777614" lon="12.01990829550442"><ele>-3.2</ele><time>2026-03-28T10:43:35.999Z</time></trkpt><trkpt lat="44.87627395263429" lon="12.019988051731595"><ele>-3.4</ele><time>2026-03-28T10:43:37.999Z</time></trkpt><trkpt lat="44.876197126756885" lon="12.02006673262763"><ele>-3.6000000000000005</ele><time>2026-03-28T10:43:39.999Z</time></trkpt><trkpt lat="44.876115585331775" lon="12.020142971720102"><ele>-3.8000000000000003</ele><time>2026-03-28T10:43:41.999Z</time></trkpt><trkpt lat="44.876035225683836" lon="12.020220514019458"><ele>-4.0</ele><time>2026-03-28T10:43:43.999Z</time></trkpt><trkpt lat="44.875955711807684" lon="12.020303215956863"><ele>-4.4</ele><time>2026-03-28T10:43:45.999Z</time></trkpt><trkpt lat="44.87587577738645" lon="12.020385235466533"><ele>-4.800000000000001</ele><time>2026-03-28T10:43:47.999Z</time></trkpt><trkpt lat="44.875797811429834" lon="12.020465605441727"><ele>-5.199999999999999</ele><time>2026-03-28T10:43:49.999Z</time></trkpt><trkpt lat="44.87571399758276" lon="12.020541589977856"><ele>-5.6</ele><time>2026-03-28T10:43:51.999Z</time></trkpt><trkpt lat="44.87563547313691" lon="12.0206245500111"><ele>-6.0</ele><time>2026-03-28T10:43:53.999Z</time></trkpt><trkpt lat="44.87556070540159" lon="12.020715710919147"><ele>-6.0</ele><time>2026-03-28T10:43:55.999Z</time></trkpt><trkpt lat="44.87548544276466" lon="12.020805727766163"><ele>-6.0</ele><time>2026-03-28T10:43:57.999Z</time></trkpt><trkpt lat="44.87541517680929" lon="12.020911467683426"><ele>-6.0</ele><time>2026-03-28T10:43:59.999Z</time></trkpt><trkpt lat="44.87535957930041" lon="12.021018775555858"><ele>-6.0</ele><time>2026-03-28T10:44:01.999Z</time></trkpt><trkpt lat="44.87531220763882" lon="12.021127928926783"><ele>-6.0</ele><time>2026-03-28T10:44:03.999Z</time></trkpt><trkpt lat="44.87527339342483" lon="12.021245316914152"><ele>-5.3999999999999995</ele><time>2026-03-28T10:44:05.999Z</time></trkpt><trkpt lat="44.87524244096572" lon="12.021369057693354"><ele>-4.8</ele><time>2026-03-28T10:44:07.999Z</time></trkpt><trkpt lat="44.87521840614363" lon="12.021493061818614"><ele>-4.199999999999999</ele><time>2026-03-28T10:44:09.999Z</time></trkpt><trkpt lat="44.87520141531132" lon="12.021616551577969"><ele>-3.5999999999999996</ele><time>2026-03-28T10:44:11.999Z</time></trkpt><trkpt lat="44.87519331262055" lon="12.021744261320881"><ele>-3.0</ele><time>2026-03-28T10:44:13.999Z</time></trkpt><trkpt lat="44.875186565489216" lon="12.021871035466784"><ele>-3.0</ele><time>2026-03-28T10:44:15.999Z</time></trkpt><trkpt lat="44.87518008287546" lon="12.022001686135518"><ele>-3.0</ele><time>2026-03-28T10:44:17.999Z</time></trkpt><trkpt lat="44.87517423905832" lon="12.022130204361247"><ele>-3.0</ele><time>2026-03-28T10:44:19.999Z</time></trkpt><trkpt lat="44.8751671377696" lon="12.02226027117401"><ele>-3.0</ele><time>2026-03-28T10:44:21.999Z</time></trkpt><trkpt lat="44.87516102190251" lon="12.02239133007664"><ele>-3.0</ele><time>2026-03-28T10:44:23.999Z</time></trkpt><trkpt lat="44.87515503397152" lon="12.022519080621116"><ele>-3.2</ele><time>2026-03-28T10:44:25.999Z</time></trkpt><trkpt lat="44.875146199586574" lon="12.022652401715595"><ele>-3.4</ele><time>2026-03-28T10:44:27.999Z</time></trkpt><trkpt lat="44.87514043691073" lon="12.022783169388445"><ele>-3.6000000000000005</ele><time>2026-03-28T10:44:29.999Z</time></trkpt><trkpt lat="44.87513296393578" lon="12.02292030837105"><ele>-3.8000000000000003</ele><time>2026-03-28T10:44:31.999Z</time></trkpt><trkpt lat="44.87512374339825" lon="12.023051741730821"><ele>-4.0</ele><time>2026-03-28T10:44:33.999Z</time></trkpt><trkpt lat="44.875111985077694" lon="12.023189021415764"><ele>-3.8000000000000003</ele><time>2026-03-28T10:44:35.999Z</time></trkpt><trkpt lat="44.87510302211457" lon="12.023328176595381"><ele>-3.6000000000000005</ele><time>2026-03-28T10:44:37.999Z</time></trkpt><trkpt lat="44.87509744171884" lon="12.023469307162332"><ele>-3.4</ele><time>2026-03-28T10:44:39.999Z</time></trkpt><trkpt lat="44.875090764129865" lon="12.023610134464082"><ele>-3.2</ele><time>2026-03-28T10:44:41.999Z</time></trkpt><trkpt lat="44.875081852206904" lon="12.023747639051022"><ele>-3.0</ele><time>2026-03-28T10:44:43.999Z</time></trkpt><trkpt lat="44.87507232489007" lon="12.023886345504991"><ele>-3.0</ele><time>2026-03-28T10:44:45.999Z</time></trkpt><trkpt lat="44.87505817030702" lon="12.024094236008178"><ele>-3.0</ele><time>2026-03-28T10:44:48.999Z</time></trkpt><trkpt lat="44.87505205368851" lon="12.024232575395867"><ele>-3.0</ele><time>2026-03-28T10:44:50.999Z</time></trkpt><trkpt lat="44.87504337988525" lon="12.024369554347222"><ele>-3.0</ele><time>2026-03-28T10:44:52.999Z</time></trkpt><trkpt lat="44.8750362447728" lon="12.024500491206933"><ele>-3.0</ele><time>2026-03-28T10:44:54.999Z</time></trkpt><trkpt lat="44.8750283858407" lon="12.024632920660869"><ele>-3.0</ele><time>2026-03-28T10:44:56.999Z</time></trkpt><trkpt lat="44.875020307455685" lon="12.024759977954762"><ele>-3.0</ele><time>2026-03-28T10:44:58.999Z</time></trkpt><trkpt lat="44.87501243845632" lon="12.024890677397327"><ele>-3.0</ele><time>2026-03-28T10:45:00.999Z</time></trkpt><trkpt lat="44.87500945251404" lon="12.025026236402075"><ele>-3.0</ele><time>2026-03-28T10:45:02.999Z</time></trkpt><trkpt lat="44.875001616512634" lon="12.025155551362218"><ele>-3.0</ele><time>2026-03-28T10:45:04.999Z</time></trkpt><trkpt lat="44.87499514830568" lon="12.025284762600705"><ele>-3.0</ele><time>2026-03-28T10:45:06.999Z</time></trkpt><trkpt lat="44.87498609457735" lon="12.025421179094304"><ele>-3.0</ele><time>2026-03-28T10:45:08.999Z</time></trkpt><trkpt lat="44.874973317424676" lon="12.025554246610803"><ele>-3.0</ele><time>2026-03-28T10:45:10.999Z</time></trkpt><trkpt lat="44.87495729477955" lon="12.025687389410683"><ele>-3.0</ele><time>2026-03-28T10:45:12.999Z</time></trkpt><trkpt lat="44.87494666150024" lon="12.025823064587353"><ele>-3.0</ele><time>2026-03-28T10:45:14.999Z</time></trkpt><trkpt lat="44.8749124184133" lon="12.025950129653586"><ele>-3.0</ele><time>2026-03-28T10:45:16.999Z</time></trkpt><trkpt lat="44.874871965969454" lon="12.026074567698847"><ele>-3.0</ele><time>2026-03-28T10:45:18.999Z</time></trkpt><trkpt lat="44.874830283107954" lon="12.026192036747016"><ele>-3.0</ele><time>2026-03-28T10:45:20.999Z</time></trkpt><trkpt lat="44.87478115207137" lon="12.026305169151096"><ele>-3.0</ele><time>2026-03-28T10:45:22.999Z</time></trkpt><trkpt lat="44.87472725841697" lon="12.026420713136028"><ele>-3.0</ele><time>2026-03-28T10:45:24.999Z</time></trkpt><trkpt lat="44.87466088091083" lon="12.026517536825095"><ele>-3.0</ele><time>2026-03-28T10:45:26.999Z</time></trkpt><trkpt lat="44.87459448287137" lon="12.026617074582575"><ele>-3.0</ele><time>2026-03-28T10:45:28.999Z</time></trkpt><trkpt lat="44.87452737383828" lon="12.02671329989158"><ele>-3.0</ele><time>2026-03-28T10:45:30.999Z</time></trkpt><trkpt lat="44.874454790631184" lon="12.026810602347783"><ele>-3.0</ele><time>2026-03-28T10:45:32.999Z</time></trkpt><trkpt lat="44.87438803031511" lon="12.026909591227826"><ele>-3.0</ele><time>2026-03-28T10:45:35Z</time></trkpt><trkpt lat="44.8743197650356" lon="12.027006362771816"><ele>-3.4</ele><time>2026-03-28T10:45:37Z</time></trkpt><trkpt lat="44.87424853440841" lon="12.027107294976014"><ele>-3.8</ele><time>2026-03-28T10:45:39Z</time></trkpt><trkpt lat="44.87417900886399" lon="12.027205128208887"><ele>-4.2</ele><time>2026-03-28T10:45:41Z</time></trkpt><trkpt lat="44.87410960351087" lon="12.027306450905845"><ele>-4.6</ele><time>2026-03-28T10:45:43Z</time></trkpt><trkpt lat="44.87404160818434" lon="12.027409426272463"><ele>-5.0</ele><time>2026-03-28T10:45:45Z</time></trkpt><trkpt lat="44.87396888622898" lon="12.027507104771718"><ele>-5.0</ele><time>2026-03-28T10:45:47Z</time></trkpt><trkpt lat="44.87390033347542" lon="12.027608017038819"><ele>-5.0</ele><time>2026-03-28T10:45:49Z</time></trkpt><trkpt lat="44.87383177941052" lon="12.027705851802253"><ele>-5.0</ele><time>2026-03-28T10:45:51Z</time></trkpt><trkpt lat="44.87376346372792" lon="12.027807380378736"><ele>-5.0</ele><time>2026-03-28T10:45:53Z</time></trkpt><trkpt lat="44.87369629002336" lon="12.027901539539227"><ele>-5.0</ele><time>2026-03-28T10:45:55Z</time></trkpt><trkpt lat="44.87363246306098" lon="12.027997309036722"><ele>-5.0</ele><time>2026-03-28T10:45:56.999Z</time></trkpt><trkpt lat="44.87356481771374" lon="12.028092448001356"><ele>-5.0</ele><time>2026-03-28T10:45:58.999Z</time></trkpt><trkpt lat="44.873495763993866" lon="12.028188096994292"><ele>-5.0</ele><time>2026-03-28T10:46:00.999Z</time></trkpt><trkpt lat="44.87343060304066" lon="12.028287320551406"><ele>-5.0</ele><time>2026-03-28T10:46:02.999Z</time></trkpt><trkpt lat="44.87336544427486" lon="12.028381768698111"><ele>-5.0</ele><time>2026-03-28T10:46:04.999Z</time></trkpt><trkpt lat="44.87329830088399" lon="12.028479489766946"><ele>-4.8</ele><time>2026-03-28T10:46:06.999Z</time></trkpt><trkpt lat="44.87323385215461" lon="12.028577111305617"><ele>-4.6</ele><time>2026-03-28T10:46:08.999Z</time></trkpt><trkpt lat="44.87316982107481" lon="12.028674135507895"><ele>-4.4</ele><time>2026-03-28T10:46:10.999Z</time></trkpt><trkpt lat="44.87310368846125" lon="12.02876745334989"><ele>-4.2</ele><time>2026-03-28T10:46:12.999Z</time></trkpt><trkpt lat="44.87303706288906" lon="12.02886415263725"><ele>-4.0</ele><time>2026-03-28T10:46:14.999Z</time></trkpt><trkpt lat="44.872970114893896" lon="12.028960693460695"><ele>-4.0</ele><time>2026-03-28T10:46:16.999Z</time></trkpt><trkpt lat="44.872904303997956" lon="12.029057582152548"><ele>-4.0</ele><time>2026-03-28T10:46:18.999Z</time></trkpt><trkpt lat="44.87283227416761" lon="12.02916038965273"><ele>-4.0</ele><time>2026-03-28T10:46:20.999Z</time></trkpt><trkpt lat="44.87277073646885" lon="12.029261685842759"><ele>-4.0</ele><time>2026-03-28T10:46:22.999Z</time></trkpt><trkpt lat="44.87270247517718" lon="12.029364875733298"><ele>-4.0</ele><time>2026-03-28T10:46:24.999Z</time></trkpt><trkpt lat="44.87263720095774" lon="12.029466033125292"><ele>-4.0</ele><time>2026-03-28T10:46:26.999Z</time></trkpt><trkpt lat="44.87256635251273" lon="12.029561723626225"><ele>-4.0</ele><time>2026-03-28T10:46:28.999Z</time></trkpt><trkpt lat="44.87249710584213" lon="12.029655006468456"><ele>-4.0</ele><time>2026-03-28T10:46:30.999Z</time></trkpt><trkpt lat="44.87243003836656" lon="12.029754244492134"><ele>-4.0</ele><time>2026-03-28T10:46:32.999Z</time></trkpt><trkpt lat="44.87235917855882" lon="12.029854239731264"><ele>-4.0</ele><time>2026-03-28T10:46:34.999Z</time></trkpt><trkpt lat="44.87229183595196" lon="12.029952405899076"><ele>-4.0</ele><time>2026-03-28T10:46:36.999Z</time></trkpt><trkpt lat="44.87222467266124" lon="12.030051873587325"><ele>-4.0</ele><time>2026-03-28T10:46:38.999Z</time></trkpt><trkpt lat="44.872158133214825" lon="12.030148616310575"><ele>-4.0</ele><time>2026-03-28T10:46:40.999Z</time></trkpt><trkpt lat="44.872090570140585" lon="12.030247862405867"><ele>-4.0</ele><time>2026-03-28T10:46:42.999Z</time></trkpt><trkpt lat="44.87202296705641" lon="12.030346147352303"><ele>-4.0</ele><time>2026-03-28T10:46:44.999Z</time></trkpt><trkpt lat="44.871955840851506" lon="12.030442844199538"><ele>-4.0</ele><time>2026-03-28T10:46:46.999Z</time></trkpt><trkpt lat="44.87188880392035" lon="12.030538920727777"><ele>-4.0</ele><time>2026-03-28T10:46:48.999Z</time></trkpt><trkpt lat="44.8718252032883" lon="12.030635308746756"><ele>-4.0</ele><time>2026-03-28T10:46:50.999Z</time></trkpt><trkpt lat="44.871763322278014" lon="12.030727616387635"><ele>-4.0</ele><time>2026-03-28T10:46:52.999Z</time></trkpt><trkpt lat="44.87169803169599" lon="12.030823514478186"><ele>-4.0</ele><time>2026-03-28T10:46:54.999Z</time></trkpt><trkpt lat="44.87163124237715" lon="12.030918319185636"><ele>-3.6</ele><time>2026-03-28T10:46:56.999Z</time></trkpt><trkpt lat="44.87156701988458" lon="12.031008824134913"><ele>-3.2</ele><time>2026-03-28T10:46:58.999Z</time></trkpt><trkpt lat="44.871500903727394" lon="12.031101411633893"><ele>-2.8000000000000003</ele><time>2026-03-28T10:47:00.999Z</time></trkpt><trkpt lat="44.871438667160305" lon="12.031198879617067"><ele>-2.4000000000000004</ele><time>2026-03-28T10:47:02.999Z</time></trkpt><trkpt lat="44.87137493748508" lon="12.03129199680762"><ele>-2.0</ele><time>2026-03-28T10:47:04.999Z</time></trkpt><trkpt lat="44.871306824163256" lon="12.031382572236263"><ele>-2.0</ele><time>2026-03-28T10:47:06.999Z</time></trkpt><trkpt lat="44.87124395580484" lon="12.031480870162063"><ele>-2.0</ele><time>2026-03-28T10:47:08.999Z</time></trkpt><trkpt lat="44.87117874653732" lon="12.03157549677667"><ele>-2.0</ele><time>2026-03-28T10:47:10.999Z</time></trkpt><trkpt lat="44.871108228751304" lon="12.031671092535076"><ele>-2.0</ele><time>2026-03-28T10:47:12.999Z</time></trkpt><trkpt lat="44.87104034307402" lon="12.031772089534511"><ele>-2.0</ele><time>2026-03-28T10:47:14.999Z</time></trkpt><trkpt lat="44.87097401567764" lon="12.031868926302021"><ele>-2.4000000000000004</ele><time>2026-03-28T10:47:16.999Z</time></trkpt><trkpt lat="44.87090554425727" lon="12.031975381915196"><ele>-2.8000000000000003</ele><time>2026-03-28T10:47:18.999Z</time></trkpt><trkpt lat="44.870832505911636" lon="12.032083713259683"><ele>-3.2</ele><time>2026-03-28T10:47:20.999Z</time></trkpt><trkpt lat="44.870760007376006" lon="12.032187212165342"><ele>-3.6</ele><time>2026-03-28T10:47:22.999Z</time></trkpt><trkpt lat="44.87068582429442" lon="12.032294759576255"><ele>-4.0</ele><time>2026-03-28T10:47:24.999Z</time></trkpt><trkpt lat="44.870616993853695" lon="12.03240225018669"><ele>-4.0</ele><time>2026-03-28T10:47:26.999Z</time></trkpt><trkpt lat="44.87054771583433" lon="12.032501082556765"><ele>-4.0</ele><time>2026-03-28T10:47:29Z</time></trkpt><trkpt lat="44.87047990342672" lon="12.032599814585309"><ele>-4.0</ele><time>2026-03-28T10:47:31Z</time></trkpt><trkpt lat="44.870417815210516" lon="12.03269560960947"><ele>-4.0</ele><time>2026-03-28T10:47:33Z</time></trkpt><trkpt lat="44.87034893721719" lon="12.03278901623389"><ele>-4.0</ele><time>2026-03-28T10:47:35Z</time></trkpt><trkpt lat="44.870285572582304" lon="12.032890417221095"><ele>-4.0</ele><time>2026-03-28T10:47:37Z</time></trkpt><trkpt lat="44.8702187485602" lon="12.03298434812209"><ele>-4.0</ele><time>2026-03-28T10:47:39Z</time></trkpt><trkpt lat="44.87015329972168" lon="12.033078757104416"><ele>-4.0</ele><time>2026-03-28T10:47:41Z</time></trkpt><trkpt lat="44.870086551265004" lon="12.033176215111302"><ele>-4.0</ele><time>2026-03-28T10:47:43Z</time></trkpt><trkpt lat="44.87001628644651" lon="12.03327584982434"><ele>-4.0</ele><time>2026-03-28T10:47:45Z</time></trkpt><trkpt lat="44.86994720776712" lon="12.033375805782956"><ele>-3.8000000000000003</ele><time>2026-03-28T10:47:47Z</time></trkpt><trkpt lat="44.86987886991729" lon="12.033475348150894"><ele>-3.6000000000000005</ele><time>2026-03-28T10:47:49Z</time></trkpt><trkpt lat="44.869810363576455" lon="12.033577176793411"><ele>-3.4</ele><time>2026-03-28T10:47:51Z</time></trkpt><trkpt lat="44.86973981823591" lon="12.033675857724978"><ele>-3.2</ele><time>2026-03-28T10:47:53Z</time></trkpt><trkpt lat="44.869668707084074" lon="12.033773782578688"><ele>-3.0</ele><time>2026-03-28T10:47:55Z</time></trkpt><trkpt lat="44.86959742732138" lon="12.033878524184477"><ele>-3.0</ele><time>2026-03-28T10:47:57Z</time></trkpt><trkpt lat="44.86952418512165" lon="12.033981483471818"><ele>-3.0</ele><time>2026-03-28T10:47:59Z</time></trkpt><trkpt lat="44.86945436002985" lon="12.034087270156158"><ele>-3.0</ele><time>2026-03-28T10:48:01Z</time></trkpt><trkpt lat="44.869383944014714" lon="12.034187733821705"><ele>-3.0</ele><time>2026-03-28T10:48:03Z</time></trkpt><trkpt lat="44.86931282123252" lon="12.034291427022907"><ele>-3.0</ele><time>2026-03-28T10:48:05Z</time></trkpt><trkpt lat="44.86924074906831" lon="12.034390797139809"><ele>-3.2</ele><time>2026-03-28T10:48:07Z</time></trkpt><trkpt lat="44.869170834612724" lon="12.034491293457272"><ele>-3.4</ele><time>2026-03-28T10:48:09Z</time></trkpt><trkpt lat="44.869103721975044" lon="12.034592505477198"><ele>-3.6000000000000005</ele><time>2026-03-28T10:48:11Z</time></trkpt><trkpt lat="44.86903561322292" lon="12.034688356882883"><ele>-3.8000000000000003</ele><time>2026-03-28T10:48:13Z</time></trkpt><trkpt lat="44.86896805547038" lon="12.034786041563201"><ele>-4.0</ele><time>2026-03-28T10:48:15Z</time></trkpt><trkpt lat="44.868902386200546" lon="12.03488121032157"><ele>-4.0</ele><time>2026-03-28T10:48:17Z</time></trkpt><trkpt lat="44.8688347361399" lon="12.034977425728677"><ele>-4.0</ele><time>2026-03-28T10:48:19Z</time></trkpt><trkpt lat="44.86876784584182" lon="12.035073621634435"><ele>-4.0</ele><time>2026-03-28T10:48:21Z</time></trkpt><trkpt lat="44.868702547882606" lon="12.035176678232583"><ele>-4.0</ele><time>2026-03-28T10:48:23Z</time></trkpt><trkpt lat="44.86863419246497" lon="12.035276318211245"><ele>-4.0</ele><time>2026-03-28T10:48:25Z</time></trkpt><trkpt lat="44.868561623682595" lon="12.035377291978067"><ele>-4.0</ele><time>2026-03-28T10:48:27Z</time></trkpt><trkpt lat="44.86849469725497" lon="12.035474886409931"><ele>-4.0</ele><time>2026-03-28T10:48:29Z</time></trkpt><trkpt lat="44.86842504376208" lon="12.035570803095581"><ele>-4.0</ele><time>2026-03-28T10:48:31Z</time></trkpt><trkpt lat="44.86835989599735" lon="12.035667074331078"><ele>-4.0</ele><time>2026-03-28T10:48:33Z</time></trkpt><trkpt lat="44.86829686126778" lon="12.035762428054808"><ele>-4.0</ele><time>2026-03-28T10:48:35Z</time></trkpt><trkpt lat="44.86823774138593" lon="12.035855524127443"><ele>-4.333333333333333</ele><time>2026-03-28T10:48:37Z</time></trkpt><trkpt lat="44.86817552655946" lon="12.035936685710439"><ele>-4.666666666666666</ele><time>2026-03-28T10:48:39Z</time></trkpt><trkpt lat="44.86812083186078" lon="12.036018246261193"><ele>-5.0</ele><time>2026-03-28T10:48:41Z</time></trkpt><trkpt lat="44.86807641176358" lon="12.03609356053006"><ele>-5.333333333333333</ele><time>2026-03-28T10:48:43Z</time></trkpt><trkpt lat="44.86802346845578" lon="12.036195785133195"><ele>-5.666666666666667</ele><time>2026-03-28T10:48:46Z</time></trkpt><trkpt lat="44.86798038863034" lon="12.036283033147644"><ele>-6.0</ele><time>2026-03-28T10:48:48Z</time></trkpt><trkpt lat="44.86794280359852" lon="12.03638873943105"><ele>-6.0</ele><time>2026-03-28T10:48:50Z</time></trkpt><trkpt lat="44.867916831057414" lon="12.036495109360523"><ele>-6.0</ele><time>2026-03-28T10:48:52Z</time></trkpt><trkpt lat="44.867894230844264" lon="12.036594289905274"><ele>-6.0</ele><time>2026-03-28T10:48:54Z</time></trkpt><trkpt lat="44.867883628240016" lon="12.036686004212829"><ele>-6.0</ele><time>2026-03-28T10:48:56Z</time></trkpt><trkpt lat="44.86787578925921" lon="12.036810085202445"><ele>-6.0</ele><time>2026-03-28T10:48:59Z</time></trkpt><trkpt lat="44.86786878376954" lon="12.036938452789904"><ele>-6.0</ele><time>2026-03-28T10:49:02Z</time></trkpt><trkpt lat="44.867866920538845" lon="12.037047899074647"><ele>-6.166666666666667</ele><time>2026-03-28T10:49:04Z</time></trkpt><trkpt lat="44.86787053628699" lon="12.037148741831151"><ele>-6.333333333333334</ele><time>2026-03-28T10:49:06Z</time></trkpt><trkpt lat="44.86786527561285" lon="12.03724212382806"><ele>-6.5</ele><time>2026-03-28T10:49:07.999Z</time></trkpt><trkpt lat="44.86786316885946" lon="12.037360195210445"><ele>-6.666666666666667</ele><time>2026-03-28T10:49:09.999Z</time></trkpt><trkpt lat="44.867860994589115" lon="12.037483151157991"><ele>-6.833333333333334</ele><time>2026-03-28T10:49:11.999Z</time></trkpt><trkpt lat="44.86786195479317" lon="12.037600221589694"><ele>-7.0</ele><time>2026-03-28T10:49:13.999Z</time></trkpt><trkpt lat="44.867865879049916" lon="12.037706976431174"><ele>-6.666666666666667</ele><time>2026-03-28T10:49:15.999Z</time></trkpt><trkpt lat="44.86786589063309" lon="12.037809575029579"><ele>-6.333333333333334</ele><time>2026-03-28T10:49:17.999Z</time></trkpt><trkpt lat="44.86786647654261" lon="12.037914154391542"><ele>-6.0</ele><time>2026-03-28T10:49:19.999Z</time></trkpt><trkpt lat="44.86786397456667" lon="12.038042788526814"><ele>-5.666666666666667</ele><time>2026-03-28T10:49:21.999Z</time></trkpt><trkpt lat="44.86786081759858" lon="12.038176717864479"><ele>-5.333333333333334</ele><time>2026-03-28T10:49:23.999Z</time></trkpt><trkpt lat="44.86786114865166" lon="12.038309721779855"><ele>-5.0</ele><time>2026-03-28T10:49:25.999Z</time></trkpt><trkpt lat="44.86786272858926" lon="12.038444187432075"><ele>-5.0</ele><time>2026-03-28T10:49:27.999Z</time></trkpt><trkpt lat="44.86786586273812" lon="12.038576456120254"><ele>-5.0</ele><time>2026-03-28T10:49:29.999Z</time></trkpt><trkpt lat="44.86786894727562" lon="12.03870982540231"><ele>-5.0</ele><time>2026-03-28T10:49:31.999Z</time></trkpt><trkpt lat="44.867869001323676" lon="12.03884338885612"><ele>-5.0</ele><time>2026-03-28T10:49:33.999Z</time></trkpt><trkpt lat="44.867867779593766" lon="12.0389788487029"><ele>-5.0</ele><time>2026-03-28T10:49:36Z</time></trkpt><trkpt lat="44.86787061577913" lon="12.039112937593652"><ele>-5.2</ele><time>2026-03-28T10:49:38Z</time></trkpt><trkpt lat="44.86787081063082" lon="12.039245817749936"><ele>-5.4</ele><time>2026-03-28T10:49:40Z</time></trkpt><trkpt lat="44.867872308292206" lon="12.039376112707453"><ele>-5.6</ele><time>2026-03-28T10:49:42Z</time></trkpt><trkpt lat="44.867871777286204" lon="12.039508124037159"><ele>-5.8</ele><time>2026-03-28T10:49:44Z</time></trkpt><trkpt lat="44.86787222635161" lon="12.039637946549433"><ele>-6.0</ele><time>2026-03-28T10:49:46Z</time></trkpt><trkpt lat="44.86787606759195" lon="12.03976813858182"><ele>-6.0</ele><time>2026-03-28T10:49:48Z</time></trkpt><trkpt lat="44.86787551544125" lon="12.039898775695347"><ele>-6.0</ele><time>2026-03-28T10:49:50Z</time></trkpt><trkpt lat="44.86787513337038" lon="12.040030663932876"><ele>-6.0</ele><time>2026-03-28T10:49:52Z</time></trkpt><trkpt lat="44.867878513476455" lon="12.040156786354885"><ele>-6.0</ele><time>2026-03-28T10:49:54Z</time></trkpt><trkpt lat="44.867877765505995" lon="12.040284874904508"><ele>-6.0</ele><time>2026-03-28T10:49:56Z</time></trkpt><trkpt lat="44.867880420699194" lon="12.040409294515074"><ele>-5.8</ele><time>2026-03-28T10:49:58Z</time></trkpt><trkpt lat="44.86788411754598" lon="12.040539168649525"><ele>-5.6</ele><time>2026-03-28T10:50:00Z</time></trkpt><trkpt lat="44.86788685476645" lon="12.040674569177137"><ele>-5.4</ele><time>2026-03-28T10:50:02Z</time></trkpt><trkpt lat="44.86788862447913" lon="12.040809829136153"><ele>-5.2</ele><time>2026-03-28T10:50:04Z</time></trkpt><trkpt lat="44.86789247972053" lon="12.040940934061895"><ele>-5.0</ele><time>2026-03-28T10:50:06Z</time></trkpt><trkpt lat="44.86789358850433" lon="12.041072723183888"><ele>-4.8</ele><time>2026-03-28T10:50:08Z</time></trkpt><trkpt lat="44.86789525921525" lon="12.041210133783329"><ele>-4.6</ele><time>2026-03-28T10:50:10Z</time></trkpt><trkpt lat="44.86789615093006" lon="12.041355750681449"><ele>-4.4</ele><time>2026-03-28T10:50:12Z</time></trkpt><trkpt lat="44.867900027499246" lon="12.041503731413558"><ele>-4.2</ele><time>2026-03-28T10:50:14Z</time></trkpt><trkpt lat="44.86790370894565" lon="12.041658481679365"><ele>-4.0</ele><time>2026-03-28T10:50:16Z</time></trkpt><trkpt lat="44.86790512665567" lon="12.041817860932536"><ele>-4.0</ele><time>2026-03-28T10:50:18Z</time></trkpt><trkpt lat="44.867903201562484" lon="12.041967875268552"><ele>-4.0</ele><time>2026-03-28T10:50:20Z</time></trkpt><trkpt lat="44.867904328747564" lon="12.04212288339976"><ele>-4.0</ele><time>2026-03-28T10:50:22Z</time></trkpt><trkpt lat="44.86790213757429" lon="12.042272307837733"><ele>-4.0</ele><time>2026-03-28T10:50:24Z</time></trkpt><trkpt lat="44.867906025678025" lon="12.042418265913613"><ele>-4.0</ele><time>2026-03-28T10:50:26Z</time></trkpt><trkpt lat="44.86790598301677" lon="12.04255983059318"><ele>-4.2</ele><time>2026-03-28T10:50:28Z</time></trkpt><trkpt lat="44.867909582151725" lon="12.042699123456112"><ele>-4.4</ele><time>2026-03-28T10:50:30Z</time></trkpt><trkpt lat="44.86790929649861" lon="12.04284014738641"><ele>-4.6</ele><time>2026-03-28T10:50:32Z</time></trkpt><trkpt lat="44.86790708108288" lon="12.042975894658314"><ele>-4.8</ele><time>2026-03-28T10:50:34Z</time></trkpt><trkpt lat="44.86790860488533" lon="12.043109144032707"><ele>-5.0</ele><time>2026-03-28T10:50:36Z</time></trkpt><trkpt lat="44.86791014051298" lon="12.04324405221972"><ele>-5.0</ele><time>2026-03-28T10:50:38Z</time></trkpt><trkpt lat="44.867909926578655" lon="12.043377348494383"><ele>-5.0</ele><time>2026-03-28T10:50:40Z</time></trkpt><trkpt lat="44.86791130602875" lon="12.043503232543108"><ele>-5.0</ele><time>2026-03-28T10:50:42Z</time></trkpt><trkpt lat="44.86791001589179" lon="12.043626875170508"><ele>-5.0</ele><time>2026-03-28T10:50:44Z</time></trkpt><trkpt lat="44.867905628715796" lon="12.04374989607172"><ele>-5.0</ele><time>2026-03-28T10:50:46Z</time></trkpt><trkpt lat="44.86790378321467" lon="12.04386583519991"><ele>-5.0</ele><time>2026-03-28T10:50:48Z</time></trkpt><trkpt lat="44.867893951529076" lon="12.04398011790653"><ele>-5.0</ele><time>2026-03-28T10:50:50Z</time></trkpt><trkpt lat="44.867877933482454" lon="12.044091332161415"><ele>-5.0</ele><time>2026-03-28T10:50:52Z</time></trkpt><trkpt lat="44.86785424536825" lon="12.044192574572506"><ele>-5.0</ele><time>2026-03-28T10:50:54Z</time></trkpt><trkpt lat="44.86782512019154" lon="12.044281500135138"><ele>-5.0</ele><time>2026-03-28T10:50:56Z</time></trkpt><trkpt lat="44.86780431705276" lon="12.04437392338492"><ele>-5.0</ele><time>2026-03-28T10:50:58Z</time></trkpt><trkpt lat="44.86781806358157" lon="12.044466711489724"><ele>-5.0</ele><time>2026-03-28T10:51:00Z</time></trkpt><trkpt lat="44.86782096554041" lon="12.044572658785821"><ele>-5.0</ele><time>2026-03-28T10:51:02Z</time></trkpt><trkpt lat="44.86779015020406" lon="12.044672096371103"><ele>-5.0</ele><time>2026-03-28T10:51:05Z</time></trkpt><trkpt lat="44.867707618605145" lon="12.044704246645901"><ele>-5.0</ele><time>2026-03-28T10:51:08Z</time></trkpt><trkpt lat="44.86767983103828" lon="12.04480696406576"><ele>-5.0</ele><time>2026-03-28T10:51:12Z</time></trkpt><trkpt lat="44.8677471354275" lon="12.04482990156911"><ele>-5.0</ele><time>2026-03-28T10:51:14Z</time></trkpt><trkpt lat="44.86773381037645" lon="12.044719943964983"><ele>-5.0</ele><time>2026-03-28T10:51:17Z</time></trkpt><trkpt lat="44.86772903128794" lon="12.04462125936168"><ele>-5.0</ele><time>2026-03-28T10:51:20Z</time></trkpt><trkpt lat="44.8676488806699" lon="12.044587407193001"><ele>-5.0</ele><time>2026-03-28T10:51:23Z</time></trkpt><trkpt lat="44.86758092492289" lon="12.044647173218916"><ele>-5.0</ele><time>2026-03-28T10:51:24.999Z</time></trkpt><trkpt lat="44.867546713220825" lon="12.044729371283237"><ele>-5.0</ele><time>2026-03-28T10:51:26.999Z</time></trkpt><trkpt lat="44.867610677207914" lon="12.044730597197807"><ele>-5.0</ele><time>2026-03-28T10:51:28.999Z</time></trkpt><trkpt lat="44.86765121438855" lon="12.04465912043581"><ele>-5.0</ele><time>2026-03-28T10:51:31.999Z</time></trkpt><trkpt lat="44.86759009761538" lon="12.044607659045953"><ele>-5.0</ele><time>2026-03-28T10:51:35.999Z</time></trkpt><trkpt lat="44.86753642335016" lon="12.04469631931398"><ele>-5.0</ele><time>2026-03-28T10:51:38.999Z</time></trkpt><trkpt lat="44.86745456972869" lon="12.044749473789608"><ele>-5.0</ele><time>2026-03-28T10:51:41Z</time></trkpt><trkpt lat="44.86737669212256" lon="12.044824418915434"><ele>-5.0</ele><time>2026-03-28T10:51:43Z</time></trkpt><trkpt lat="44.86729292798371" lon="12.044886223226825"><ele>-5.0</ele><time>2026-03-28T10:51:45Z</time></trkpt><trkpt lat="44.86721029172289" lon="12.0449457049473"><ele>-5.0</ele><time>2026-03-28T10:51:47Z</time></trkpt><trkpt lat="44.867124863757844" lon="12.045003530944038"><ele>-5.0</ele><time>2026-03-28T10:51:49Z</time></trkpt><trkpt lat="44.8670423972011" lon="12.045061918363475"><ele>-4.8</ele><time>2026-03-28T10:51:51Z</time></trkpt><trkpt lat="44.86696593905537" lon="12.045125210380306"><ele>-4.6</ele><time>2026-03-28T10:51:53Z</time></trkpt><trkpt lat="44.86688110469819" lon="12.045184353369777"><ele>-4.4</ele><time>2026-03-28T10:51:55Z</time></trkpt><trkpt lat="44.8668026608823" lon="12.045244242089103"><ele>-4.2</ele><time>2026-03-28T10:51:57Z</time></trkpt><trkpt lat="44.86671938174058" lon="12.045300846407372"><ele>-4.0</ele><time>2026-03-28T10:51:59Z</time></trkpt><trkpt lat="44.866635043298345" lon="12.045356240202254"><ele>-4.0</ele><time>2026-03-28T10:52:01Z</time></trkpt><trkpt lat="44.86654781325969" lon="12.045420936185375"><ele>-4.0</ele><time>2026-03-28T10:52:03Z</time></trkpt><trkpt lat="44.86646098029016" lon="12.045481571542"><ele>-4.0</ele><time>2026-03-28T10:52:05Z</time></trkpt><trkpt lat="44.86637488717596" lon="12.045544521824192"><ele>-4.0</ele><time>2026-03-28T10:52:07Z</time></trkpt><trkpt lat="44.86628946238867" lon="12.045601825800151"><ele>-4.0</ele><time>2026-03-28T10:52:09Z</time></trkpt><trkpt lat="44.8662031868538" lon="12.045668081631824"><ele>-4.0</ele><time>2026-03-28T10:52:11Z</time></trkpt><trkpt lat="44.86611819697543" lon="12.045728509327907"><ele>-4.0</ele><time>2026-03-28T10:52:13Z</time></trkpt><trkpt lat="44.86603277477441" lon="12.045786444238303"><ele>-4.0</ele><time>2026-03-28T10:52:15Z</time></trkpt><trkpt lat="44.865946652229205" lon="12.045851254516956"><ele>-4.0</ele><time>2026-03-28T10:52:17Z</time></trkpt><trkpt lat="44.86586677674141" lon="12.045913573422014"><ele>-4.0</ele><time>2026-03-28T10:52:19Z</time></trkpt><trkpt lat="44.86578257852632" lon="12.045972303492443"><ele>-4.0</ele><time>2026-03-28T10:52:21Z</time></trkpt><trkpt lat="44.865701685533594" lon="12.046037033257196"><ele>-4.0</ele><time>2026-03-28T10:52:23Z</time></trkpt><trkpt lat="44.865617078631004" lon="12.04609431220528"><ele>-4.0</ele><time>2026-03-28T10:52:25Z</time></trkpt><trkpt lat="44.865532252949315" lon="12.046147841120614"><ele>-4.0</ele><time>2026-03-28T10:52:27Z</time></trkpt><trkpt lat="44.865450855666985" lon="12.046208856567734"><ele>-4.0</ele><time>2026-03-28T10:52:29Z</time></trkpt><trkpt lat="44.86536798137361" lon="12.046267317192966"><ele>-4.0</ele><time>2026-03-28T10:52:31Z</time></trkpt><trkpt lat="44.86528199179013" lon="12.046327323834499"><ele>-4.0</ele><time>2026-03-28T10:52:33Z</time></trkpt><trkpt lat="44.86519719245585" lon="12.046389003579703"><ele>-4.0</ele><time>2026-03-28T10:52:35Z</time></trkpt><trkpt lat="44.86511264280328" lon="12.046449979660364"><ele>-4.0</ele><time>2026-03-28T10:52:37Z</time></trkpt><trkpt lat="44.8650240907029" lon="12.046511592684592"><ele>-4.0</ele><time>2026-03-28T10:52:39Z</time></trkpt><trkpt lat="44.864937823199725" lon="12.046572623044776"><ele>-4.4</ele><time>2026-03-28T10:52:41Z</time></trkpt><trkpt lat="44.864853935573215" lon="12.046636756419511"><ele>-4.800000000000001</ele><time>2026-03-28T10:52:43Z</time></trkpt><trkpt lat="44.86477191327295" lon="12.046697724839996"><ele>-5.199999999999999</ele><time>2026-03-28T10:52:45Z</time></trkpt><trkpt lat="44.86469045104615" lon="12.04675572296807"><ele>-5.6</ele><time>2026-03-28T10:52:47Z</time></trkpt><trkpt lat="44.864604177220606" lon="12.046809704070828"><ele>-6.0</ele><time>2026-03-28T10:52:49Z</time></trkpt><trkpt lat="44.86452023339981" lon="12.046872728293398"><ele>-6.0</ele><time>2026-03-28T10:52:51Z</time></trkpt><trkpt lat="44.86443597178536" lon="12.046929941181684"><ele>-6.0</ele><time>2026-03-28T10:52:53Z</time></trkpt><trkpt lat="44.86435228995233" lon="12.046995010470518"><ele>-6.0</ele><time>2026-03-28T10:52:55Z</time></trkpt><trkpt lat="44.864268838215885" lon="12.047054560523737"><ele>-6.0</ele><time>2026-03-28T10:52:57Z</time></trkpt><trkpt lat="44.86417995163395" lon="12.047112610580381"><ele>-6.0</ele><time>2026-03-28T10:52:59Z</time></trkpt><trkpt lat="44.86409659554881" lon="12.047176368591224"><ele>-6.4</ele><time>2026-03-28T10:53:01Z</time></trkpt><trkpt lat="44.864010905802054" lon="12.047238185487595"><ele>-6.8</ele><time>2026-03-28T10:53:03Z</time></trkpt><trkpt lat="44.86392605032292" lon="12.047299522684702"><ele>-7.200000000000001</ele><time>2026-03-28T10:53:05Z</time></trkpt><trkpt lat="44.863841331429725" lon="12.047361022424028"><ele>-7.6000000000000005</ele><time>2026-03-28T10:53:07Z</time></trkpt><trkpt lat="44.86375366320613" lon="12.047418809378009"><ele>-8.0</ele><time>2026-03-28T10:53:09Z</time></trkpt><trkpt lat="44.863665364038134" lon="12.047482268073116"><ele>-8.0</ele><time>2026-03-28T10:53:11Z</time></trkpt><trkpt lat="44.863580790389975" lon="12.047546114680673"><ele>-8.0</ele><time>2026-03-28T10:53:13Z</time></trkpt><trkpt lat="44.863495381797385" lon="12.047607481777195"><ele>-8.0</ele><time>2026-03-28T10:53:15Z</time></trkpt><trkpt lat="44.86341106285814" lon="12.047672328929158"><ele>-8.0</ele><time>2026-03-28T10:53:17Z</time></trkpt><trkpt lat="44.863324516466434" lon="12.047735074124622"><ele>-8.0</ele><time>2026-03-28T10:53:19Z</time></trkpt><trkpt lat="44.8632384330239" lon="12.047796498573902"><ele>-7.6000000000000005</ele><time>2026-03-28T10:53:20.999Z</time></trkpt><trkpt lat="44.86315144030013" lon="12.047861916104514"><ele>-7.200000000000001</ele><time>2026-03-28T10:53:22.999Z</time></trkpt><trkpt lat="44.86306703683975" lon="12.047921691474734"><ele>-6.8</ele><time>2026-03-28T10:53:24.999Z</time></trkpt><trkpt lat="44.862981356010586" lon="12.047985677197842"><ele>-6.4</ele><time>2026-03-28T10:53:26.999Z</time></trkpt><trkpt lat="44.86289716795301" lon="12.048044004886076"><ele>-6.0</ele><time>2026-03-28T10:53:28.999Z</time></trkpt><trkpt lat="44.86281293012204" lon="12.048107507433144"><ele>-6.0</ele><time>2026-03-28T10:53:30.999Z</time></trkpt><trkpt lat="44.86272817410698" lon="12.048167596360255"><ele>-6.0</ele><time>2026-03-28T10:53:32.999Z</time></trkpt><trkpt lat="44.86264002590803" lon="12.04822953177802"><ele>-6.0</ele><time>2026-03-28T10:53:34.999Z</time></trkpt><trkpt lat="44.86255206962384" lon="12.048289289052919"><ele>-6.0</ele><time>2026-03-28T10:53:36.999Z</time></trkpt><trkpt lat="44.86246318413546" lon="12.048353169481"><ele>-6.0</ele><time>2026-03-28T10:53:38.999Z</time></trkpt><trkpt lat="44.862376172398804" lon="12.048419265232289"><ele>-6.0</ele><time>2026-03-28T10:53:40.999Z</time></trkpt><trkpt lat="44.862289096567004" lon="12.048480567009245"><ele>-6.0</ele><time>2026-03-28T10:53:42.999Z</time></trkpt><trkpt lat="44.862202068949465" lon="12.048543503629077"><ele>-6.0</ele><time>2026-03-28T10:53:44.999Z</time></trkpt><trkpt lat="44.862115642798635" lon="12.048606671772543"><ele>-6.0</ele><time>2026-03-28T10:53:47Z</time></trkpt><trkpt lat="44.86202978822634" lon="12.04866958570699"><ele>-6.0</ele><time>2026-03-28T10:53:49Z</time></trkpt><trkpt lat="44.861944992906125" lon="12.048730614424958"><ele>-6.0</ele><time>2026-03-28T10:53:51Z</time></trkpt><trkpt lat="44.861862304019446" lon="12.048792848234212"><ele>-6.0</ele><time>2026-03-28T10:53:53Z</time></trkpt><trkpt lat="44.861777100986316" lon="12.048855922373761"><ele>-6.0</ele><time>2026-03-28T10:53:55Z</time></trkpt><trkpt lat="44.86169160737238" lon="12.048914345372122"><ele>-6.0</ele><time>2026-03-28T10:53:57Z</time></trkpt><trkpt lat="44.861604482232345" lon="12.04897788253553"><ele>-6.0</ele><time>2026-03-28T10:53:59Z</time></trkpt><trkpt lat="44.861519667809965" lon="12.049044269023533"><ele>-5.8</ele><time>2026-03-28T10:54:01Z</time></trkpt><trkpt lat="44.8614343627437" lon="12.04910189270164"><ele>-5.6</ele><time>2026-03-28T10:54:03Z</time></trkpt><trkpt lat="44.861353098572195" lon="12.049163964194442"><ele>-5.4</ele><time>2026-03-28T10:54:05Z</time></trkpt><trkpt lat="44.86126807584366" lon="12.049222597830653"><ele>-5.2</ele><time>2026-03-28T10:54:07Z</time></trkpt><trkpt lat="44.86119101695427" lon="12.049281072242442"><ele>-5.0</ele><time>2026-03-28T10:54:09Z</time></trkpt><trkpt lat="44.86110834785324" lon="12.049339854090944"><ele>-4.8</ele><time>2026-03-28T10:54:11Z</time></trkpt><trkpt lat="44.861023110662195" lon="12.049399622875221"><ele>-4.6</ele><time>2026-03-28T10:54:13Z</time></trkpt><trkpt lat="44.860938301151805" lon="12.049461958052067"><ele>-4.4</ele><time>2026-03-28T10:54:15Z</time></trkpt><trkpt lat="44.86085466749347" lon="12.04951667638625"><ele>-4.2</ele><time>2026-03-28T10:54:17Z</time></trkpt><trkpt lat="44.86076799092689" lon="12.049575671412338"><ele>-4.0</ele><time>2026-03-28T10:54:19Z</time></trkpt><trkpt lat="44.86068459282589" lon="12.049635781312697"><ele>-4.6</ele><time>2026-03-28T10:54:21Z</time></trkpt><trkpt lat="44.86060175639758" lon="12.049694575284105"><ele>-5.2</ele><time>2026-03-28T10:54:23Z</time></trkpt><trkpt lat="44.86051989313926" lon="12.049750614901127"><ele>-5.799999999999999</ele><time>2026-03-28T10:54:25Z</time></trkpt><trkpt lat="44.860437696253406" lon="12.049812357680993"><ele>-6.3999999999999995</ele><time>2026-03-28T10:54:27Z</time></trkpt><trkpt lat="44.86035447606927" lon="12.049872726520748"><ele>-7.0</ele><time>2026-03-28T10:54:29Z</time></trkpt><trkpt lat="44.86026819949694" lon="12.049934161334344"><ele>-7.0</ele><time>2026-03-28T10:54:31Z</time></trkpt><trkpt lat="44.86018315830401" lon="12.049994157531557"><ele>-6.999999999999999</ele><time>2026-03-28T10:54:33Z</time></trkpt><trkpt lat="44.860100154827954" lon="12.050055555044361"><ele>-6.999999999999999</ele><time>2026-03-28T10:54:35Z</time></trkpt><trkpt lat="44.86001681367167" lon="12.050112529730898"><ele>-7.0</ele><time>2026-03-28T10:54:37Z</time></trkpt><trkpt lat="44.85993711109057" lon="12.050174666925418"><ele>-7.0</ele><time>2026-03-28T10:54:39Z</time></trkpt><trkpt lat="44.85985600891995" lon="12.050229660282715"><ele>-7.0</ele><time>2026-03-28T10:54:41Z</time></trkpt><trkpt lat="44.859773158710325" lon="12.050295674225579"><ele>-6.999999999999999</ele><time>2026-03-28T10:54:43Z</time></trkpt><trkpt lat="44.85969068974299" lon="12.050364980743215"><ele>-6.999999999999999</ele><time>2026-03-28T10:54:45Z</time></trkpt><trkpt lat="44.85960521487042" lon="12.050416527180639"><ele>-7.0</ele><time>2026-03-28T10:54:47Z</time></trkpt><trkpt lat="44.85951891074339" lon="12.050474346089468"><ele>-7.0</ele><time>2026-03-28T10:54:49Z</time></trkpt><trkpt lat="44.85942762417477" lon="12.05053726999054"><ele>-7.0</ele><time>2026-03-28T10:54:51Z</time></trkpt><trkpt lat="44.85933012085994" lon="12.050608798241724"><ele>-6.999999999999999</ele><time>2026-03-28T10:54:53Z</time></trkpt><trkpt lat="44.859231348469706" lon="12.050681887274205"><ele>-6.999999999999999</ele><time>2026-03-28T10:54:55Z</time></trkpt><trkpt lat="44.85912983226176" lon="12.050753306155066"><ele>-7.0</ele><time>2026-03-28T10:54:57Z</time></trkpt><trkpt lat="44.859027951350065" lon="12.050822482259296"><ele>-7.0</ele><time>2026-03-28T10:54:59Z</time></trkpt><trkpt lat="44.85893217631376" lon="12.050892454450443"><ele>-6.8</ele><time>2026-03-28T10:55:01Z</time></trkpt><trkpt lat="44.85883933957265" lon="12.050961349110016"><ele>-6.6</ele><time>2026-03-28T10:55:03Z</time></trkpt><trkpt lat="44.85875294035195" lon="12.051034107360675"><ele>-6.3999999999999995</ele><time>2026-03-28T10:55:05Z</time></trkpt><trkpt lat="44.858671240443826" lon="12.051107120828057"><ele>-6.199999999999999</ele><time>2026-03-28T10:55:07Z</time></trkpt><trkpt lat="44.85859932796937" lon="12.051188888821445"><ele>-6.0</ele><time>2026-03-28T10:55:09Z</time></trkpt><trkpt lat="44.858532606322306" lon="12.051271119452828"><ele>-6.0</ele><time>2026-03-28T10:55:11Z</time></trkpt><trkpt lat="44.85847661675829" lon="12.051364405284984"><ele>-6.0</ele><time>2026-03-28T10:55:13Z</time></trkpt><trkpt lat="44.858432041806594" lon="12.051464983663662"><ele>-6.0</ele><time>2026-03-28T10:55:14.999Z</time></trkpt><trkpt lat="44.85839093700256" lon="12.05156179721844"><ele>-6.0</ele><time>2026-03-28T10:55:16.999Z</time></trkpt><trkpt lat="44.8583673717486" lon="12.051670966122275"><ele>-6.0</ele><time>2026-03-28T10:55:19.999Z</time></trkpt><trkpt lat="44.858303117395685" lon="12.051662742431906"><ele>-6.0</ele><time>2026-03-28T10:55:23.999Z</time></trkpt><trkpt lat="44.858297461979674" lon="12.05157214439771"><ele>-6.0</ele><time>2026-03-28T10:55:31.999Z</time></trkpt><trkpt lat="44.85829658804886" lon="12.051481915285029"><ele>-6.0</ele><time>2026-03-28T10:55:37.999Z</time></trkpt><trkpt lat="44.85833793345887" lon="12.051397223374535"><ele>-6.0</ele><time>2026-03-28T10:59:27.999Z</time></trkpt><trkpt lat="44.858317924442744" lon="12.051488291012733"><ele>-6.0</ele><time>2026-03-28T10:59:47.999Z</time></trkpt><trkpt lat="44.858320796854684" lon="12.051579302324676"><ele>-6.0</ele><time>2026-03-28T10:59:55.999Z</time></trkpt><trkpt lat="44.8583444814631" lon="12.051673090189766"><ele>-6.0</ele><time>2026-03-28T11:00:20Z</time></trkpt><trkpt lat="44.858307508411656" lon="12.051820877014848"><ele>-6.0</ele><time>2026-03-28T11:00:51Z</time></trkpt><trkpt lat="44.85829172827124" lon="12.05191856734465"><ele>-6.0</ele><time>2026-03-28T11:00:53Z</time></trkpt><trkpt lat="44.858283446746185" lon="12.052015734517443"><ele>-6.0</ele><time>2026-03-28T11:00:55Z</time></trkpt><trkpt lat="44.85827590766972" lon="12.052136785263023"><ele>-6.0</ele><time>2026-03-28T11:00:57Z</time></trkpt><trkpt lat="44.85827662055792" lon="12.052270654391608"><ele>-6.0</ele><time>2026-03-28T11:00:59Z</time></trkpt><trkpt lat="44.858278086775655" lon="12.052400355875267"><ele>-6.0</ele><time>2026-03-28T11:01:01Z</time></trkpt><trkpt lat="44.858278808847764" lon="12.052527049387358"><ele>-6.199999999999999</ele><time>2026-03-28T11:01:03Z</time></trkpt><trkpt lat="44.85828137978057" lon="12.052649915866029"><ele>-6.3999999999999995</ele><time>2026-03-28T11:01:05Z</time></trkpt><trkpt lat="44.85827627513598" lon="12.052776848572506"><ele>-6.6</ele><time>2026-03-28T11:01:07Z</time></trkpt><trkpt lat="44.85827680045951" lon="12.052907806690715"><ele>-6.8</ele><time>2026-03-28T11:01:09Z</time></trkpt><trkpt lat="44.85828090539335" lon="12.053039409462533"><ele>-7.0</ele><time>2026-03-28T11:01:11Z</time></trkpt><trkpt lat="44.858279897929236" lon="12.053169406320986"><ele>-6.8</ele><time>2026-03-28T11:01:12.999Z</time></trkpt><trkpt lat="44.85828256632189" lon="12.053300684662652"><ele>-6.6</ele><time>2026-03-28T11:01:14.999Z</time></trkpt><trkpt lat="44.85828277396613" lon="12.053438386513129"><ele>-6.3999999999999995</ele><time>2026-03-28T11:01:16.999Z</time></trkpt><trkpt lat="44.858282487982834" lon="12.053574405726117"><ele>-6.199999999999999</ele><time>2026-03-28T11:01:18.999Z</time></trkpt><trkpt lat="44.85828421735169" lon="12.053712788182596"><ele>-6.0</ele><time>2026-03-28T11:01:20.999Z</time></trkpt><trkpt lat="44.85828510932988" lon="12.053848878368045"><ele>-6.0</ele><time>2026-03-28T11:01:22.999Z</time></trkpt><trkpt lat="44.85828665685284" lon="12.053983585025135"><ele>-6.0</ele><time>2026-03-28T11:01:24.999Z</time></trkpt><trkpt lat="44.85828758050329" lon="12.054116719244314"><ele>-6.0</ele><time>2026-03-28T11:01:26.999Z</time></trkpt><trkpt lat="44.85828975628517" lon="12.054249918028228"><ele>-6.0</ele><time>2026-03-28T11:01:28.999Z</time></trkpt><trkpt lat="44.85828878020369" lon="12.054383215638174"><ele>-6.0</ele><time>2026-03-28T11:01:30.999Z</time></trkpt><trkpt lat="44.8582884054605" lon="12.054515920793055"><ele>-6.0</ele><time>2026-03-28T11:01:32.999Z</time></trkpt><trkpt lat="44.85829158076888" lon="12.054647862610388"><ele>-6.0</ele><time>2026-03-28T11:01:34.999Z</time></trkpt><trkpt lat="44.85829263280544" lon="12.054781695390437"><ele>-6.0</ele><time>2026-03-28T11:01:36.999Z</time></trkpt><trkpt lat="44.858293378400056" lon="12.054918315137481"><ele>-6.0</ele><time>2026-03-28T11:01:38.999Z</time></trkpt><trkpt lat="44.85829229555087" lon="12.055049675456285"><ele>-6.0</ele><time>2026-03-28T11:01:40.999Z</time></trkpt><trkpt lat="44.8582942178079" lon="12.055185909744115"><ele>-6.0</ele><time>2026-03-28T11:01:42.999Z</time></trkpt><trkpt lat="44.858297028623944" lon="12.055321991583428"><ele>-6.0</ele><time>2026-03-28T11:01:44.999Z</time></trkpt><trkpt lat="44.858294834535286" lon="12.055459496831178"><ele>-6.0</ele><time>2026-03-28T11:01:46.999Z</time></trkpt><trkpt lat="44.85829755848201" lon="12.055592473201688"><ele>-6.0</ele><time>2026-03-28T11:01:48.999Z</time></trkpt><trkpt lat="44.85829993249027" lon="12.05572957472836"><ele>-6.0</ele><time>2026-03-28T11:01:50.999Z</time></trkpt><trkpt lat="44.85830014806385" lon="12.055863115137765"><ele>-6.0</ele><time>2026-03-28T11:01:52.999Z</time></trkpt><trkpt lat="44.858299048297475" lon="12.05599136538571"><ele>-6.0</ele><time>2026-03-28T11:01:54.999Z</time></trkpt><trkpt lat="44.8583009357033" lon="12.05612323507895"><ele>-6.0</ele><time>2026-03-28T11:01:56.999Z</time></trkpt><trkpt lat="44.858301315990175" lon="12.056254931525656"><ele>-6.0</ele><time>2026-03-28T11:01:58.999Z</time></trkpt><trkpt lat="44.85830403184226" lon="12.05638495856129"><ele>-6.0</ele><time>2026-03-28T11:02:00.999Z</time></trkpt><trkpt lat="44.858307199826825" lon="12.0565165553448"><ele>-6.0</ele><time>2026-03-28T11:02:02.999Z</time></trkpt><trkpt lat="44.85830797105053" lon="12.056647413921173"><ele>-6.0</ele><time>2026-03-28T11:02:04.999Z</time></trkpt><trkpt lat="44.85830486675986" lon="12.056777643066587"><ele>-6.0</ele><time>2026-03-28T11:02:06.999Z</time></trkpt><trkpt lat="44.85830445980812" lon="12.056909311758297"><ele>-6.0</ele><time>2026-03-28T11:02:08.999Z</time></trkpt><trkpt lat="44.85830533338739" lon="12.057043907671614"><ele>-6.0</ele><time>2026-03-28T11:02:11Z</time></trkpt><trkpt lat="44.858304678458595" lon="12.057177060602166"><ele>-6.0</ele><time>2026-03-28T11:02:13Z</time></trkpt><trkpt lat="44.858303925188125" lon="12.057315351550859"><ele>-6.0</ele><time>2026-03-28T11:02:15Z</time></trkpt><trkpt lat="44.858306623188035" lon="12.057448010127732"><ele>-6.0</ele><time>2026-03-28T11:02:17Z</time></trkpt><trkpt lat="44.85830574817318" lon="12.057582069985617"><ele>-6.0</ele><time>2026-03-28T11:02:19Z</time></trkpt><trkpt lat="44.858310549715156" lon="12.05771380320055"><ele>-6.0</ele><time>2026-03-28T11:02:21Z</time></trkpt><trkpt lat="44.8583132198787" lon="12.057846864760249"><ele>-5.8</ele><time>2026-03-28T11:02:23Z</time></trkpt><trkpt lat="44.85830749494588" lon="12.057981049890772"><ele>-5.6</ele><time>2026-03-28T11:02:25Z</time></trkpt><trkpt lat="44.85830915052515" lon="12.058117157744332"><ele>-5.4</ele><time>2026-03-28T11:02:27Z</time></trkpt><trkpt lat="44.85831418375429" lon="12.058245493543012"><ele>-5.2</ele><time>2026-03-28T11:02:29Z</time></trkpt><trkpt lat="44.85831399061116" lon="12.058375221816018"><ele>-5.0</ele><time>2026-03-28T11:02:31Z</time></trkpt><trkpt lat="44.858317157389365" lon="12.05850359530897"><ele>-5.0</ele><time>2026-03-28T11:02:33Z</time></trkpt><trkpt lat="44.85831814509356" lon="12.05863431545049"><ele>-5.0</ele><time>2026-03-28T11:02:35Z</time></trkpt><trkpt lat="44.858315852262585" lon="12.058766711017523"><ele>-5.0</ele><time>2026-03-28T11:02:37Z</time></trkpt><trkpt lat="44.85831757050176" lon="12.058900535884055"><ele>-5.0</ele><time>2026-03-28T11:02:39Z</time></trkpt><trkpt lat="44.85831967544347" lon="12.059037740293437"><ele>-5.0</ele><time>2026-03-28T11:02:41Z</time></trkpt><trkpt lat="44.85832297406998" lon="12.059176638659874"><ele>-5.0</ele><time>2026-03-28T11:02:43Z</time></trkpt><trkpt lat="44.85831956520808" lon="12.059318376938865"><ele>-5.0</ele><time>2026-03-28T11:02:45Z</time></trkpt><trkpt lat="44.85832082472129" lon="12.05945862943032"><ele>-5.0</ele><time>2026-03-28T11:02:47Z</time></trkpt><trkpt lat="44.85832076154924" lon="12.059600307365212"><ele>-5.0</ele><time>2026-03-28T11:02:49Z</time></trkpt><trkpt lat="44.85831914156684" lon="12.059746489731156"><ele>-5.0</ele><time>2026-03-28T11:02:51Z</time></trkpt><trkpt lat="44.85831926675909" lon="12.05989014904559"><ele>-4.8</ele><time>2026-03-28T11:02:53Z</time></trkpt><trkpt lat="44.85832034202875" lon="12.060030733802789"><ele>-4.6</ele><time>2026-03-28T11:02:55Z</time></trkpt><trkpt lat="44.858319234495795" lon="12.060171234221064"><ele>-4.4</ele><time>2026-03-28T11:02:57Z</time></trkpt><trkpt lat="44.85831536839353" lon="12.060306737856793"><ele>-4.2</ele><time>2026-03-28T11:02:59Z</time></trkpt><trkpt lat="44.85831667580813" lon="12.060440874364405"><ele>-4.0</ele><time>2026-03-28T11:03:01Z</time></trkpt><trkpt lat="44.85831711074657" lon="12.060581069660106"><ele>-4.0</ele><time>2026-03-28T11:03:03Z</time></trkpt><trkpt lat="44.85831642896439" lon="12.060721897050533"><ele>-4.0</ele><time>2026-03-28T11:03:05Z</time></trkpt><trkpt lat="44.858318883327186" lon="12.060858426417196"><ele>-4.0</ele><time>2026-03-28T11:03:07Z</time></trkpt><trkpt lat="44.858320911381114" lon="12.060997015985093"><ele>-4.0</ele><time>2026-03-28T11:03:09Z</time></trkpt><trkpt lat="44.85832079797687" lon="12.06113598592516"><ele>-4.0</ele><time>2026-03-28T11:03:11Z</time></trkpt><trkpt lat="44.85832452823133" lon="12.061273864925747"><ele>-4.0</ele><time>2026-03-28T11:03:13Z</time></trkpt><trkpt lat="44.858320460017126" lon="12.06141199065033"><ele>-4.0</ele><time>2026-03-28T11:03:15Z</time></trkpt><trkpt lat="44.858317920624515" lon="12.061548248234045"><ele>-4.0</ele><time>2026-03-28T11:03:17Z</time></trkpt><trkpt lat="44.85832121108091" lon="12.061685924770705"><ele>-4.0</ele><time>2026-03-28T11:03:19Z</time></trkpt><trkpt lat="44.8583249814158" lon="12.061820770263699"><ele>-4.0</ele><time>2026-03-28T11:03:21Z</time></trkpt><trkpt lat="44.85832651980991" lon="12.061957404305636"><ele>-4.0</ele><time>2026-03-28T11:03:22.999Z</time></trkpt><trkpt lat="44.8583242507271" lon="12.062095740536801"><ele>-4.0</ele><time>2026-03-28T11:03:24.999Z</time></trkpt><trkpt lat="44.8583271641634" lon="12.062229451249358"><ele>-4.0</ele><time>2026-03-28T11:03:26.999Z</time></trkpt><trkpt lat="44.85832576016841" lon="12.062362105866637"><ele>-4.0</ele><time>2026-03-28T11:03:28.999Z</time></trkpt><trkpt lat="44.85832717925766" lon="12.062497261509485"><ele>-4.0</ele><time>2026-03-28T11:03:30.999Z</time></trkpt><trkpt lat="44.858327594470616" lon="12.062631559399382"><ele>-4.0</ele><time>2026-03-28T11:03:32.999Z</time></trkpt><trkpt lat="44.85832637808313" lon="12.06276833969955"><ele>-4.0</ele><time>2026-03-28T11:03:34.999Z</time></trkpt><trkpt lat="44.85832740191926" lon="12.06290783670849"><ele>-4.0</ele><time>2026-03-28T11:03:36.999Z</time></trkpt><trkpt lat="44.85832781758306" lon="12.06304845974772"><ele>-4.0</ele><time>2026-03-28T11:03:38.999Z</time></trkpt><trkpt lat="44.85832922868799" lon="12.063188975622873"><ele>-4.0</ele><time>2026-03-28T11:03:40.999Z</time></trkpt><trkpt lat="44.85833036792748" lon="12.063327347421364"><ele>-4.4</ele><time>2026-03-28T11:03:42.999Z</time></trkpt><trkpt lat="44.85833002704652" lon="12.063472575629863"><ele>-4.800000000000001</ele><time>2026-03-28T11:03:44.999Z</time></trkpt><trkpt lat="44.8583325734837" lon="12.063615287333697"><ele>-5.199999999999999</ele><time>2026-03-28T11:03:46.999Z</time></trkpt><trkpt lat="44.85833245655304" lon="12.063757983282134"><ele>-5.6</ele><time>2026-03-28T11:03:48.999Z</time></trkpt><trkpt lat="44.85833224697011" lon="12.063899502117565"><ele>-6.0</ele><time>2026-03-28T11:03:50.999Z</time></trkpt><trkpt lat="44.85833282628529" lon="12.064039547507452"><ele>-6.199999999999999</ele><time>2026-03-28T11:03:52.999Z</time></trkpt><trkpt lat="44.85833361591024" lon="12.064182214907918"><ele>-6.3999999999999995</ele><time>2026-03-28T11:03:54.999Z</time></trkpt><trkpt lat="44.85833588484397" lon="12.064321392296218"><ele>-6.6</ele><time>2026-03-28T11:03:56.999Z</time></trkpt><trkpt lat="44.858335473176474" lon="12.064461638605769"><ele>-6.8</ele><time>2026-03-28T11:03:58.999Z</time></trkpt><trkpt lat="44.85833515786318" lon="12.064599801873479"><ele>-7.0</ele><time>2026-03-28T11:04:00.999Z</time></trkpt><trkpt lat="44.85833806983142" lon="12.06473396884792"><ele>-7.0</ele><time>2026-03-28T11:04:02.999Z</time></trkpt><trkpt lat="44.858335823945744" lon="12.06486920045114"><ele>-6.999999999999999</ele><time>2026-03-28T11:04:04.999Z</time></trkpt><trkpt lat="44.85833906884586" lon="12.065003319711982"><ele>-6.999999999999999</ele><time>2026-03-28T11:04:06.999Z</time></trkpt><trkpt lat="44.8583391883545" lon="12.065138282604527"><ele>-7.0</ele><time>2026-03-28T11:04:08.999Z</time></trkpt><trkpt lat="44.85833730224802" lon="12.065270498781464"><ele>-7.0</ele><time>2026-03-28T11:04:10.999Z</time></trkpt><trkpt lat="44.85833965396949" lon="12.065406979409236"><ele>-7.199999999999999</ele><time>2026-03-28T11:04:12.999Z</time></trkpt><trkpt lat="44.8583371883695" lon="12.06554754270639"><ele>-7.3999999999999995</ele><time>2026-03-28T11:04:14.999Z</time></trkpt><trkpt lat="44.858338729194855" lon="12.065684507688598"><ele>-7.6000000000000005</ele><time>2026-03-28T11:04:17Z</time></trkpt><trkpt lat="44.858339410545916" lon="12.06582044674284"><ele>-7.800000000000001</ele><time>2026-03-28T11:04:19Z</time></trkpt><trkpt lat="44.85834087332396" lon="12.065961019194987"><ele>-8.0</ele><time>2026-03-28T11:04:21Z</time></trkpt><trkpt lat="44.85834261153805" lon="12.066101193385423"><ele>-8.0</ele><time>2026-03-28T11:04:23Z</time></trkpt><trkpt lat="44.85834160596501" lon="12.066244479947578"><ele>-8.0</ele><time>2026-03-28T11:04:25Z</time></trkpt><trkpt lat="44.858340037217765" lon="12.066385779420969"><ele>-8.0</ele><time>2026-03-28T11:04:27Z</time></trkpt><trkpt lat="44.85834132596881" lon="12.066525620852904"><ele>-8.0</ele><time>2026-03-28T11:04:29Z</time></trkpt><trkpt lat="44.85834069650594" lon="12.066665507083009"><ele>-8.0</ele><time>2026-03-28T11:04:31Z</time></trkpt><trkpt lat="44.85834172742921" lon="12.066804839601629"><ele>-7.6000000000000005</ele><time>2026-03-28T11:04:33Z</time></trkpt><trkpt lat="44.85834233553817" lon="12.066943669731154"><ele>-7.200000000000001</ele><time>2026-03-28T11:04:35Z</time></trkpt><trkpt lat="44.85834146093153" lon="12.067081516317238"><ele>-6.8</ele><time>2026-03-28T11:04:37Z</time></trkpt><trkpt lat="44.858340743219614" lon="12.067219856993525"><ele>-6.4</ele><time>2026-03-28T11:04:39Z</time></trkpt><trkpt lat="44.85834333125528" lon="12.06735646982477"><ele>-6.0</ele><time>2026-03-28T11:04:41Z</time></trkpt><trkpt lat="44.85834169982598" lon="12.067493855931795"><ele>-5.6</ele><time>2026-03-28T11:04:43Z</time></trkpt><trkpt lat="44.8583439090094" lon="12.067627503319272"><ele>-5.199999999999999</ele><time>2026-03-28T11:04:45Z</time></trkpt><trkpt lat="44.85834554997388" lon="12.067761069148654"><ele>-4.800000000000001</ele><time>2026-03-28T11:04:47Z</time></trkpt><trkpt lat="44.858346548113126" lon="12.067900205163776"><ele>-4.4</ele><time>2026-03-28T11:04:49Z</time></trkpt><trkpt lat="44.85834716462364" lon="12.068040890949607"><ele>-4.0</ele><time>2026-03-28T11:04:51Z</time></trkpt><trkpt lat="44.85834826712392" lon="12.068177184762737"><ele>-4.0</ele><time>2026-03-28T11:04:53Z</time></trkpt><trkpt lat="44.85834895681773" lon="12.068310631318576"><ele>-4.0</ele><time>2026-03-28T11:04:55Z</time></trkpt><trkpt lat="44.85834970975397" lon="12.06844322029496"><ele>-4.0</ele><time>2026-03-28T11:04:57Z</time></trkpt><trkpt lat="44.858353402874926" lon="12.068584023543057"><ele>-4.0</ele><time>2026-03-28T11:04:59Z</time></trkpt><trkpt lat="44.85835511193059" lon="12.06871684693793"><ele>-4.0</ele><time>2026-03-28T11:05:01Z</time></trkpt><trkpt lat="44.85835474034626" lon="12.06884821242897"><ele>-4.0</ele><time>2026-03-28T11:05:03Z</time></trkpt><trkpt lat="44.858356147093104" lon="12.068981230751502"><ele>-4.0</ele><time>2026-03-28T11:05:05Z</time></trkpt><trkpt lat="44.858358407247955" lon="12.069113640511862"><ele>-4.0</ele><time>2026-03-28T11:05:07Z</time></trkpt><trkpt lat="44.858363393981996" lon="12.069245509026768"><ele>-4.0</ele><time>2026-03-28T11:05:09Z</time></trkpt><trkpt lat="44.85836286294132" lon="12.069379844344013"><ele>-4.0</ele><time>2026-03-28T11:05:11Z</time></trkpt><trkpt lat="44.85836277562472" lon="12.069514735987402"><ele>-4.0</ele><time>2026-03-28T11:05:13Z</time></trkpt><trkpt lat="44.85836468290352" lon="12.06965020117288"><ele>-4.0</ele><time>2026-03-28T11:05:15Z</time></trkpt><trkpt lat="44.858365280867126" lon="12.069790241666228"><ele>-4.0</ele><time>2026-03-28T11:05:17Z</time></trkpt><trkpt lat="44.85836659955493" lon="12.069931208540797"><ele>-4.0</ele><time>2026-03-28T11:05:18.999Z</time></trkpt><trkpt lat="44.858367436705954" lon="12.070067185296173"><ele>-4.0</ele><time>2026-03-28T11:05:20.999Z</time></trkpt><trkpt lat="44.85836754724222" lon="12.070202656977166"><ele>-4.0</ele><time>2026-03-28T11:05:22.999Z</time></trkpt><trkpt lat="44.85836803520248" lon="12.070339136394185"><ele>-4.0</ele><time>2026-03-28T11:05:24.999Z</time></trkpt><trkpt lat="44.85837154159104" lon="12.070473680925746"><ele>-4.0</ele><time>2026-03-28T11:05:26.999Z</time></trkpt><trkpt lat="44.858372313814115" lon="12.070608360353189"><ele>-4.0</ele><time>2026-03-28T11:05:28.999Z</time></trkpt><trkpt lat="44.858371623373806" lon="12.070744519046881"><ele>-4.0</ele><time>2026-03-28T11:05:30.999Z</time></trkpt><trkpt lat="44.85837217826548" lon="12.07088443110729"><ele>-4.0</ele><time>2026-03-28T11:05:32.999Z</time></trkpt><trkpt lat="44.85837330599865" lon="12.07102728343207"><ele>-4.0</ele><time>2026-03-28T11:05:34.999Z</time></trkpt><trkpt lat="44.85837456178258" lon="12.07117468619212"><ele>-4.0</ele><time>2026-03-28T11:05:36.999Z</time></trkpt><trkpt lat="44.85837405482465" lon="12.071326199040087"><ele>-4.0</ele><time>2026-03-28T11:05:38.999Z</time></trkpt><trkpt lat="44.858375517545674" lon="12.07147930323811"><ele>-4.0</ele><time>2026-03-28T11:05:40.999Z</time></trkpt><trkpt lat="44.85837665003134" lon="12.071630052300176"><ele>-4.0</ele><time>2026-03-28T11:05:42.999Z</time></trkpt><trkpt lat="44.85837741742842" lon="12.071777806356126"><ele>-4.0</ele><time>2026-03-28T11:05:44.999Z</time></trkpt><trkpt lat="44.858377940946916" lon="12.071922148209783"><ele>-4.0</ele><time>2026-03-28T11:05:46.999Z</time></trkpt><trkpt lat="44.858380034741195" lon="12.072065128122079"><ele>-4.0</ele><time>2026-03-28T11:05:48.999Z</time></trkpt><trkpt lat="44.85838135323207" lon="12.072205685487056"><ele>-4.0</ele><time>2026-03-28T11:05:50.999Z</time></trkpt><trkpt lat="44.85838456521961" lon="12.072343220837057"><ele>-4.2</ele><time>2026-03-28T11:05:52.999Z</time></trkpt><trkpt lat="44.85838198915929" lon="12.07248684339985"><ele>-4.4</ele><time>2026-03-28T11:05:54.999Z</time></trkpt><trkpt lat="44.85838291183265" lon="12.07262496399757"><ele>-4.6</ele><time>2026-03-28T11:05:56.999Z</time></trkpt><trkpt lat="44.85838071240535" lon="12.072765700981217"><ele>-4.8</ele><time>2026-03-28T11:05:58.999Z</time></trkpt><trkpt lat="44.85838394418783" lon="12.07290224766076"><ele>-5.0</ele><time>2026-03-28T11:06:00.999Z</time></trkpt><trkpt lat="44.85838370325918" lon="12.073040352915294"><ele>-5.0</ele><time>2026-03-28T11:06:02.999Z</time></trkpt><trkpt lat="44.85838891502884" lon="12.073180967353135"><ele>-5.0</ele><time>2026-03-28T11:06:04.999Z</time></trkpt><trkpt lat="44.85838769594912" lon="12.073318485908752"><ele>-5.0</ele><time>2026-03-28T11:06:06.999Z</time></trkpt><trkpt lat="44.85839093345429" lon="12.073452751836758"><ele>-5.0</ele><time>2026-03-28T11:06:08.999Z</time></trkpt><trkpt lat="44.85839219685824" lon="12.073589185781822"><ele>-5.0</ele><time>2026-03-28T11:06:10.999Z</time></trkpt><trkpt lat="44.85839015818382" lon="12.073725547012126"><ele>-4.8</ele><time>2026-03-28T11:06:12.999Z</time></trkpt><trkpt lat="44.85839216149536" lon="12.073859994726483"><ele>-4.6</ele><time>2026-03-28T11:06:14.999Z</time></trkpt><trkpt lat="44.858393121073235" lon="12.073994109874816"><ele>-4.4</ele><time>2026-03-28T11:06:16.999Z</time></trkpt><trkpt lat="44.85839449022444" lon="12.074122611807423"><ele>-4.2</ele><time>2026-03-28T11:06:18.999Z</time></trkpt><trkpt lat="44.858393622286904" lon="12.0742543028476"><ele>-4.0</ele><time>2026-03-28T11:06:20.999Z</time></trkpt><trkpt lat="44.858392846727284" lon="12.074385834710725"><ele>-3.833333333333333</ele><time>2026-03-28T11:06:23Z</time></trkpt><trkpt lat="44.858394053980504" lon="12.074518004847311"><ele>-3.6666666666666665</ele><time>2026-03-28T11:06:25Z</time></trkpt><trkpt lat="44.858396218686835" lon="12.07464480312398"><ele>-3.5</ele><time>2026-03-28T11:06:27Z</time></trkpt><trkpt lat="44.85839660685829" lon="12.07477162431672"><ele>-3.333333333333333</ele><time>2026-03-28T11:06:29Z</time></trkpt><trkpt lat="44.858397480026" lon="12.074893693292642"><ele>-3.1666666666666665</ele><time>2026-03-28T11:06:31Z</time></trkpt><trkpt lat="44.8583976842283" lon="12.075012532032623"><ele>-3.0</ele><time>2026-03-28T11:06:33Z</time></trkpt><trkpt lat="44.858399081048645" lon="12.075138250480173"><ele>-3.2</ele><time>2026-03-28T11:06:35Z</time></trkpt><trkpt lat="44.85840019664965" lon="12.075271167488761"><ele>-3.4</ele><time>2026-03-28T11:06:37Z</time></trkpt><trkpt lat="44.85840018281764" lon="12.075410759004448"><ele>-3.6000000000000005</ele><time>2026-03-28T11:06:39Z</time></trkpt><trkpt lat="44.85840168617143" lon="12.075554840622452"><ele>-3.8000000000000003</ele><time>2026-03-28T11:06:41Z</time></trkpt><trkpt lat="44.85840061367815" lon="12.075708537678167"><ele>-4.0</ele><time>2026-03-28T11:06:43Z</time></trkpt><trkpt lat="44.85840402342511" lon="12.075859162450588"><ele>-4.0</ele><time>2026-03-28T11:06:45Z</time></trkpt><trkpt lat="44.85840675649146" lon="12.076003081148567"><ele>-4.0</ele><time>2026-03-28T11:06:47Z</time></trkpt><trkpt lat="44.858410998255735" lon="12.076142505271028"><ele>-4.0</ele><time>2026-03-28T11:06:49Z</time></trkpt><trkpt lat="44.85841028311177" lon="12.076280265978546"><ele>-4.0</ele><time>2026-03-28T11:06:51Z</time></trkpt><trkpt lat="44.85841654210536" lon="12.076407028663843"><ele>-4.0</ele><time>2026-03-28T11:06:53Z</time></trkpt><trkpt lat="44.85842173925399" lon="12.076528490693168"><ele>-4.166666666666666</ele><time>2026-03-28T11:06:55Z</time></trkpt><trkpt lat="44.85841392435312" lon="12.07664791609182"><ele>-4.333333333333333</ele><time>2026-03-28T11:06:57Z</time></trkpt><trkpt lat="44.858417935850696" lon="12.076757554312028"><ele>-4.5</ele><time>2026-03-28T11:06:59Z</time></trkpt><trkpt lat="44.858415724817235" lon="12.076863344777038"><ele>-4.666666666666667</ele><time>2026-03-28T11:07:01Z</time></trkpt><trkpt lat="44.85840430486303" lon="12.076960342092129"><ele>-4.833333333333334</ele><time>2026-03-28T11:07:03Z</time></trkpt><trkpt lat="44.85840724506339" lon="12.077068132261722"><ele>-5.0</ele><time>2026-03-28T11:07:05Z</time></trkpt><trkpt lat="44.85841524658985" lon="12.077193803699133"><ele>-5.0</ele><time>2026-03-28T11:07:07Z</time></trkpt><trkpt lat="44.85841759093049" lon="12.07731803471879"><ele>-5.0</ele><time>2026-03-28T11:07:09Z</time></trkpt><trkpt lat="44.8584135107216" lon="12.07743870031547"><ele>-5.0</ele><time>2026-03-28T11:07:11Z</time></trkpt><trkpt lat="44.858418401979414" lon="12.07754925415642"><ele>-5.0</ele><time>2026-03-28T11:07:13Z</time></trkpt><trkpt lat="44.85841556373116" lon="12.077651547825637"><ele>-5.0</ele><time>2026-03-28T11:07:15Z</time></trkpt><trkpt lat="44.858416415901864" lon="12.077748061557447"><ele>-5.0</ele><time>2026-03-28T11:07:17Z</time></trkpt><trkpt lat="44.85841659986001" lon="12.077838722962007"><ele>-4.857142857142857</ele><time>2026-03-28T11:07:19Z</time></trkpt><trkpt lat="44.85842359909313" lon="12.07793543054752"><ele>-4.714285714285714</ele><time>2026-03-28T11:07:21Z</time></trkpt><trkpt lat="44.85842556467022" lon="12.078048111008135"><ele>-4.571428571428571</ele><time>2026-03-28T11:07:23Z</time></trkpt><trkpt lat="44.85842646427876" lon="12.078152264845153"><ele>-4.428571428571429</ele><time>2026-03-28T11:07:25Z</time></trkpt><trkpt lat="44.85842191988564" lon="12.078248983995348"><ele>-4.285714285714286</ele><time>2026-03-28T11:07:27Z</time></trkpt><trkpt lat="44.8584206317996" lon="12.078344160954558"><ele>-4.142857142857142</ele><time>2026-03-28T11:07:29Z</time></trkpt><trkpt lat="44.85842346239547" lon="12.07844745361815"><ele>-4.0</ele><time>2026-03-28T11:07:30.999Z</time></trkpt><trkpt lat="44.8584257111406" lon="12.078564846172515"><ele>-3.9999999999999996</ele><time>2026-03-28T11:07:32.999Z</time></trkpt><trkpt lat="44.85842441195839" lon="12.07867503116036"><ele>-4.0</ele><time>2026-03-28T11:07:34.999Z</time></trkpt><trkpt lat="44.85842828068618" lon="12.078782409053208"><ele>-4.0</ele><time>2026-03-28T11:07:36.999Z</time></trkpt><trkpt lat="44.85842720747822" lon="12.078898881573625"><ele>-4.0</ele><time>2026-03-28T11:07:38.999Z</time></trkpt><trkpt lat="44.85842839654612" lon="12.079030396798096"><ele>-3.9999999999999996</ele><time>2026-03-28T11:07:40.999Z</time></trkpt><trkpt lat="44.8584354053601" lon="12.079164711414062"><ele>-4.0</ele><time>2026-03-28T11:07:42.999Z</time></trkpt><trkpt lat="44.85843268248444" lon="12.07929697218705"><ele>-4.2</ele><time>2026-03-28T11:07:44.999Z</time></trkpt><trkpt lat="44.85843562834988" lon="12.07942727424732"><ele>-4.4</ele><time>2026-03-28T11:07:46.999Z</time></trkpt><trkpt lat="44.85843124388909" lon="12.079559398993961"><ele>-4.6</ele><time>2026-03-28T11:07:48.999Z</time></trkpt><trkpt lat="44.8584287684571" lon="12.079688016969161"><ele>-4.8</ele><time>2026-03-28T11:07:50.999Z</time></trkpt><trkpt lat="44.85842875037326" lon="12.079823251876034"><ele>-5.0</ele><time>2026-03-28T11:07:52.999Z</time></trkpt><trkpt lat="44.85842899032913" lon="12.079953557409766"><ele>-5.166666666666667</ele><time>2026-03-28T11:07:54.999Z</time></trkpt><trkpt lat="44.85842374861847" lon="12.080085127878263"><ele>-5.333333333333334</ele><time>2026-03-28T11:07:56.999Z</time></trkpt><trkpt lat="44.85842383452754" lon="12.08021455434467"><ele>-5.5</ele><time>2026-03-28T11:07:58.999Z</time></trkpt><trkpt lat="44.85842337982415" lon="12.080337875433518"><ele>-5.666666666666667</ele><time>2026-03-28T11:08:00.999Z</time></trkpt><trkpt lat="44.85842472776558" lon="12.080456839708667"><ele>-5.833333333333333</ele><time>2026-03-28T11:08:02.999Z</time></trkpt><trkpt lat="44.858427123058796" lon="12.080582724384824"><ele>-6.0</ele><time>2026-03-28T11:08:04.999Z</time></trkpt><trkpt lat="44.85842543239831" lon="12.080717907462553"><ele>-5.8</ele><time>2026-03-28T11:08:06.999Z</time></trkpt><trkpt lat="44.85843324698669" lon="12.080850064412855"><ele>-5.6</ele><time>2026-03-28T11:08:08.999Z</time></trkpt><trkpt lat="44.85843291171962" lon="12.08098406153485"><ele>-5.4</ele><time>2026-03-28T11:08:10.999Z</time></trkpt><trkpt lat="44.85843448128868" lon="12.081114911514337"><ele>-5.2</ele><time>2026-03-28T11:08:12.999Z</time></trkpt><trkpt lat="44.858436963721005" lon="12.081251516981686"><ele>-5.0</ele><time>2026-03-28T11:08:14.999Z</time></trkpt><trkpt lat="44.85843457653269" lon="12.08138782407172"><ele>-5.0</ele><time>2026-03-28T11:08:16.999Z</time></trkpt><trkpt lat="44.858435221351954" lon="12.081527120533698"><ele>-5.0</ele><time>2026-03-28T11:08:18.999Z</time></trkpt><trkpt lat="44.858433881333035" lon="12.081666080262114"><ele>-5.0</ele><time>2026-03-28T11:08:20.999Z</time></trkpt><trkpt lat="44.858439395293" lon="12.081803944075332"><ele>-5.0</ele><time>2026-03-28T11:08:22.999Z</time></trkpt><trkpt lat="44.85843586732803" lon="12.081940318656313"><ele>-5.0</ele><time>2026-03-28T11:08:24.999Z</time></trkpt><trkpt lat="44.858437057362515" lon="12.082069077529953"><ele>-5.0</ele><time>2026-03-28T11:08:26.999Z</time></trkpt><trkpt lat="44.85843064840692" lon="12.08219320496704"><ele>-5.0</ele><time>2026-03-28T11:08:29Z</time></trkpt><trkpt lat="44.85842928019834" lon="12.082316017294202"><ele>-5.0</ele><time>2026-03-28T11:08:31Z</time></trkpt><trkpt lat="44.8584279038988" lon="12.08244736614611"><ele>-5.0</ele><time>2026-03-28T11:08:33Z</time></trkpt><trkpt lat="44.858430850060095" lon="12.08257474181665"><ele>-5.0</ele><time>2026-03-28T11:08:35Z</time></trkpt><trkpt lat="44.858429584609176" lon="12.082709727472649"><ele>-4.8</ele><time>2026-03-28T11:08:37Z</time></trkpt><trkpt lat="44.85843161982605" lon="12.082841101034301"><ele>-4.6</ele><time>2026-03-28T11:08:39Z</time></trkpt><trkpt lat="44.85843173585165" lon="12.08297397425416"><ele>-4.4</ele><time>2026-03-28T11:08:41Z</time></trkpt><trkpt lat="44.85843495638247" lon="12.083110408084965"><ele>-4.2</ele><time>2026-03-28T11:08:43Z</time></trkpt><trkpt lat="44.85843414627417" lon="12.083248701967243"><ele>-4.0</ele><time>2026-03-28T11:08:45Z</time></trkpt><trkpt lat="44.85843598860266" lon="12.083388987268112"><ele>-4.0</ele><time>2026-03-28T11:08:47Z</time></trkpt><trkpt lat="44.85844001675417" lon="12.083524491287799"><ele>-4.0</ele><time>2026-03-28T11:08:49Z</time></trkpt><trkpt lat="44.85843967500186" lon="12.083662110666351"><ele>-4.0</ele><time>2026-03-28T11:08:51Z</time></trkpt><trkpt lat="44.85844465647469" lon="12.083798231703742"><ele>-4.0</ele><time>2026-03-28T11:08:53Z</time></trkpt><trkpt lat="44.85844710426113" lon="12.083932920493353"><ele>-4.0</ele><time>2026-03-28T11:08:55Z</time></trkpt><trkpt lat="44.85844211307888" lon="12.084062864191301"><ele>-3.9999999999999996</ele><time>2026-03-28T11:08:57Z</time></trkpt><trkpt lat="44.858446266326" lon="12.084190426723861"><ele>-4.0</ele><time>2026-03-28T11:08:59Z</time></trkpt><trkpt lat="44.85845048454598" lon="12.084303705917163"><ele>-4.0</ele><time>2026-03-28T11:09:01Z</time></trkpt><trkpt lat="44.85845322628411" lon="12.084398009673954"><ele>-4.0</ele><time>2026-03-28T11:09:03Z</time></trkpt><trkpt lat="44.85844826793941" lon="12.084501556464184"><ele>-3.9999999999999996</ele><time>2026-03-28T11:09:05Z</time></trkpt><trkpt lat="44.85845432215572" lon="12.084619995573942"><ele>-4.0</ele><time>2026-03-28T11:09:07Z</time></trkpt><trkpt lat="44.858451908739674" lon="12.084741061587847"><ele>-3.6666666666666665</ele><time>2026-03-28T11:09:09Z</time></trkpt><trkpt lat="44.858451781828826" lon="12.084860033834365"><ele>-3.333333333333333</ele><time>2026-03-28T11:09:11Z</time></trkpt><trkpt lat="44.85845261858695" lon="12.084974301989703"><ele>-3.0</ele><time>2026-03-28T11:09:13Z</time></trkpt><trkpt lat="44.85845670903714" lon="12.08506321057607"><ele>-2.6666666666666665</ele><time>2026-03-28T11:09:15Z</time></trkpt><trkpt lat="44.858453739633596" lon="12.085172196847063"><ele>-2.333333333333333</ele><time>2026-03-28T11:09:18Z</time></trkpt><trkpt lat="44.858462975353" lon="12.085267339187212"><ele>-2.0</ele><time>2026-03-28T11:09:21Z</time></trkpt><trkpt lat="44.85846604218624" lon="12.085392373993347"><ele>-2.0</ele><time>2026-03-28T11:09:25Z</time></trkpt><trkpt lat="44.85849854779377" lon="12.085477526982281"><ele>-1.9999999999999998</ele><time>2026-03-28T11:09:28Z</time></trkpt><trkpt lat="44.858561293837624" lon="12.085495596204252"><ele>-2.0</ele><time>2026-03-28T11:09:30Z</time></trkpt><trkpt lat="44.85864725493685" lon="12.085468756656809"><ele>-2.0</ele><time>2026-03-28T11:09:32Z</time></trkpt><trkpt lat="44.858721146059565" lon="12.085433191106965"><ele>-1.9999999999999998</ele><time>2026-03-28T11:09:34Z</time></trkpt><trkpt lat="44.85878775536049" lon="12.085394057004489"><ele>-2.0</ele><time>2026-03-28T11:09:36Z</time></trkpt><trkpt lat="44.85885388575198" lon="12.085378982979709"><ele>-2.0</ele><time>2026-03-28T11:09:37.999Z</time></trkpt><trkpt lat="44.85891757504572" lon="12.085356123320098"><ele>-2.0</ele><time>2026-03-28T11:09:39.999Z</time></trkpt><trkpt lat="44.85900536567828" lon="12.08534257243465"><ele>-1.9999999999999998</ele><time>2026-03-28T11:09:42.999Z</time></trkpt><trkpt lat="44.85906798050401" lon="12.0853317719243"><ele>-2.0</ele><time>2026-03-28T11:09:44.999Z</time></trkpt><trkpt lat="44.85914679081607" lon="12.085296312236597"><ele>-2.0</ele><time>2026-03-28T11:09:46.999Z</time></trkpt><trkpt lat="44.85922034717938" lon="12.085277397021029"><ele>-1.9999999999999998</ele><time>2026-03-28T11:09:48.999Z</time></trkpt><trkpt lat="44.85928734350563" lon="12.08526096322091"><ele>-2.0</ele><time>2026-03-28T11:09:50.999Z</time></trkpt><trkpt lat="44.85935474715001" lon="12.085245500517988"><ele>-2.0</ele><time>2026-03-28T11:09:52.999Z</time></trkpt><trkpt lat="44.85941602616066" lon="12.085220644443009"><ele>-1.8333333333333333</ele><time>2026-03-28T11:09:54.999Z</time></trkpt><trkpt lat="44.859479659703936" lon="12.085211920533975"><ele>-1.6666666666666665</ele><time>2026-03-28T11:09:56.999Z</time></trkpt><trkpt lat="44.85956273170233" lon="12.085186706047715"><ele>-1.5</ele><time>2026-03-28T11:09:58.999Z</time></trkpt><trkpt lat="44.85964714551309" lon="12.085158521835277"><ele>-1.3333333333333333</ele><time>2026-03-28T11:10:00.999Z</time></trkpt><trkpt lat="44.859730531711435" lon="12.085131547675719"><ele>-1.1666666666666665</ele><time>2026-03-28T11:10:02.999Z</time></trkpt><trkpt lat="44.85980756819006" lon="12.085099961535253"><ele>-1.0</ele><time>2026-03-28T11:10:04.999Z</time></trkpt><trkpt lat="44.859878395205165" lon="12.085082971280777"><ele>-1.0</ele><time>2026-03-28T11:10:06.999Z</time></trkpt><trkpt lat="44.859947420227606" lon="12.085066142442916"><ele>-0.9999999999999999</ele><time>2026-03-28T11:10:08.999Z</time></trkpt><trkpt lat="44.86001090920683" lon="12.085044970656641"><ele>-1.0</ele><time>2026-03-28T11:10:10.999Z</time></trkpt><trkpt lat="44.86007472603059" lon="12.085036237661951"><ele>-1.0</ele><time>2026-03-28T11:10:12.999Z</time></trkpt><trkpt lat="44.86014749019035" lon="12.085015395592505"><ele>-0.9999999999999999</ele><time>2026-03-28T11:10:14.999Z</time></trkpt><trkpt lat="44.86020921893482" lon="12.084989278119808"><ele>-1.0</ele><time>2026-03-28T11:10:16.999Z</time></trkpt><trkpt lat="44.860272923810975" lon="12.084969520077543"><ele>-1.0</ele><time>2026-03-28T11:10:18.999Z</time></trkpt><trkpt lat="44.860341945047715" lon="12.084945617016187"><ele>-1.2000000000000002</ele><time>2026-03-28T11:10:20.999Z</time></trkpt><trkpt lat="44.860428225433026" lon="12.084928293921516"><ele>-1.4000000000000001</ele><time>2026-03-28T11:10:22.999Z</time></trkpt><trkpt lat="44.860518484617124" lon="12.08490017443251"><ele>-1.6</ele><time>2026-03-28T11:10:24.999Z</time></trkpt><trkpt lat="44.86061149615464" lon="12.084870843266726"><ele>-1.8</ele><time>2026-03-28T11:10:26.999Z</time></trkpt><trkpt lat="44.860701320358345" lon="12.08483186166372"><ele>-2.0</ele><time>2026-03-28T11:10:28.999Z</time></trkpt><trkpt lat="44.86079549806162" lon="12.084791300810888"><ele>-2.0</ele><time>2026-03-28T11:10:30.999Z</time></trkpt><trkpt lat="44.860885650710436" lon="12.084752459382273"><ele>-2.0</ele><time>2026-03-28T11:10:32.999Z</time></trkpt><trkpt lat="44.860978900463984" lon="12.084705277252311"><ele>-2.0</ele><time>2026-03-28T11:10:35Z</time></trkpt><trkpt lat="44.86106657916725" lon="12.084657524227287"><ele>-2.0</ele><time>2026-03-28T11:10:37Z</time></trkpt><trkpt lat="44.86115696558534" lon="12.084606248311912"><ele>-2.0</ele><time>2026-03-28T11:10:39Z</time></trkpt><trkpt lat="44.86124944966218" lon="12.084556143033964"><ele>-1.6</ele><time>2026-03-28T11:10:41Z</time></trkpt><trkpt lat="44.861337944403274" lon="12.084507139534361"><ele>-1.2000000000000002</ele><time>2026-03-28T11:10:43Z</time></trkpt><trkpt lat="44.86142715243935" lon="12.084463580500715"><ele>-0.8</ele><time>2026-03-28T11:10:45Z</time></trkpt><trkpt lat="44.86151629592686" lon="12.084415124716571"><ele>-0.4</ele><time>2026-03-28T11:10:47Z</time></trkpt><trkpt lat="44.86160464562418" lon="12.084362310915512"><ele>0.0</ele><time>2026-03-28T11:10:49Z</time></trkpt><trkpt lat="44.86169125497546" lon="12.084316872507921"><ele>0.0</ele><time>2026-03-28T11:10:51Z</time></trkpt><trkpt lat="44.86177477715235" lon="12.084271187196823"><ele>0.0</ele><time>2026-03-28T11:10:53Z</time></trkpt><trkpt lat="44.861853661860906" lon="12.08422805925205"><ele>0.0</ele><time>2026-03-28T11:10:55Z</time></trkpt><trkpt lat="44.86192030398225" lon="12.084179006779275"><ele>0.0</ele><time>2026-03-28T11:10:57Z</time></trkpt><trkpt lat="44.8619880265918" lon="12.084144474781464"><ele>0.0</ele><time>2026-03-28T11:10:59Z</time></trkpt><trkpt lat="44.862052858490465" lon="12.084111139598116"><ele>0.0</ele><time>2026-03-28T11:11:01Z</time></trkpt><trkpt lat="44.862113540625806" lon="12.08408030299172"><ele>0.0</ele><time>2026-03-28T11:11:03Z</time></trkpt><trkpt lat="44.86217754172001" lon="12.084046615743485"><ele>0.0</ele><time>2026-03-28T11:11:05Z</time></trkpt><trkpt lat="44.86225671156255" lon="12.084008093624702"><ele>0.0</ele><time>2026-03-28T11:11:07Z</time></trkpt><trkpt lat="44.86234281527078" lon="12.083967944036454"><ele>0.0</ele><time>2026-03-28T11:11:09Z</time></trkpt><trkpt lat="44.86242961875623" lon="12.083924817869354"><ele>0.0</ele><time>2026-03-28T11:11:11Z</time></trkpt><trkpt lat="44.862515399266684" lon="12.083883189703501"><ele>0.0</ele><time>2026-03-28T11:11:13Z</time></trkpt><trkpt lat="44.86260372011431" lon="12.083836907884498"><ele>-0.2</ele><time>2026-03-28T11:11:15Z</time></trkpt><trkpt lat="44.86269225705617" lon="12.083788307472929"><ele>-0.4</ele><time>2026-03-28T11:11:17Z</time></trkpt><trkpt lat="44.86277570063914" lon="12.083744011319542"><ele>-0.6000000000000001</ele><time>2026-03-28T11:11:19Z</time></trkpt><trkpt lat="44.86286078066463" lon="12.083697900669867"><ele>-0.8</ele><time>2026-03-28T11:11:21Z</time></trkpt><trkpt lat="44.86294713720418" lon="12.083653836471157"><ele>-1.0</ele><time>2026-03-28T11:11:23Z</time></trkpt><trkpt lat="44.86303643593322" lon="12.083609557118763"><ele>-1.0</ele><time>2026-03-28T11:11:25Z</time></trkpt><trkpt lat="44.86311894795425" lon="12.083560937670999"><ele>-1.0</ele><time>2026-03-28T11:11:27Z</time></trkpt><trkpt lat="44.86320551298381" lon="12.08351548647312"><ele>-1.0</ele><time>2026-03-28T11:11:29Z</time></trkpt><trkpt lat="44.86329035500291" lon="12.083469520207546"><ele>-1.0</ele><time>2026-03-28T11:11:31Z</time></trkpt><trkpt lat="44.863376233281826" lon="12.083423111212596"><ele>-1.0</ele><time>2026-03-28T11:11:33Z</time></trkpt><trkpt lat="44.86346255174518" lon="12.083378282811257"><ele>-0.8</ele><time>2026-03-28T11:11:35Z</time></trkpt><trkpt lat="44.86354952831208" lon="12.083329572459157"><ele>-0.6000000000000001</ele><time>2026-03-28T11:11:37Z</time></trkpt><trkpt lat="44.863633874668324" lon="12.083278767338038"><ele>-0.4</ele><time>2026-03-28T11:11:39Z</time></trkpt><trkpt lat="44.86372584278695" lon="12.083236337548515"><ele>-0.2</ele><time>2026-03-28T11:11:41Z</time></trkpt><trkpt lat="44.86381004736628" lon="12.08319179173759"><ele>0.0</ele><time>2026-03-28T11:11:43Z</time></trkpt><trkpt lat="44.863897435830864" lon="12.08315543763902"><ele>0.0</ele><time>2026-03-28T11:11:45Z</time></trkpt><trkpt lat="44.863985835773555" lon="12.08312518749573"><ele>0.0</ele><time>2026-03-28T11:11:47Z</time></trkpt><trkpt lat="44.864076568655555" lon="12.083095108356277"><ele>0.0</ele><time>2026-03-28T11:11:49Z</time></trkpt><trkpt lat="44.86416525621048" lon="12.083069019220034"><ele>0.0</ele><time>2026-03-28T11:11:50.999Z</time></trkpt><trkpt lat="44.86425587026438" lon="12.083052139849489"><ele>0.0</ele><time>2026-03-28T11:11:52.999Z</time></trkpt><trkpt lat="44.86434127432533" lon="12.083042480535958"><ele>0.0</ele><time>2026-03-28T11:11:54.999Z</time></trkpt><trkpt lat="44.864433255457485" lon="12.08304013395562"><ele>0.0</ele><time>2026-03-28T11:11:56.999Z</time></trkpt><trkpt lat="44.86452432391682" lon="12.083024714195828"><ele>0.0</ele><time>2026-03-28T11:11:58.999Z</time></trkpt><trkpt lat="44.86460455972391" lon="12.083032779300062"><ele>0.0</ele><time>2026-03-28T11:12:00.999Z</time></trkpt><trkpt lat="44.86469139511575" lon="12.083032869864368"><ele>0.0</ele><time>2026-03-28T11:12:02.999Z</time></trkpt><trkpt lat="44.864759181852605" lon="12.083040474976938"><ele>0.0</ele><time>2026-03-28T11:12:04.999Z</time></trkpt><trkpt lat="44.86483072834378" lon="12.083059050026149"><ele>0.0</ele><time>2026-03-28T11:12:06.999Z</time></trkpt><trkpt lat="44.86489501426584" lon="12.083068335021089"><ele>0.0</ele><time>2026-03-28T11:12:08.999Z</time></trkpt><trkpt lat="44.864958799709854" lon="12.083076617480062"><ele>0.0</ele><time>2026-03-28T11:12:10.999Z</time></trkpt><trkpt lat="44.86502338254832" lon="12.083097408598201"><ele>0.0</ele><time>2026-03-28T11:12:12.999Z</time></trkpt><trkpt lat="44.86510932138254" lon="12.083109998213708"><ele>0.0</ele><time>2026-03-28T11:12:14.999Z</time></trkpt><trkpt lat="44.86519684115374" lon="12.083135606230755"><ele>0.0</ele><time>2026-03-28T11:12:16.999Z</time></trkpt><trkpt lat="44.865282985369205" lon="12.083147692102829"><ele>-0.3333333333333333</ele><time>2026-03-28T11:12:18.999Z</time></trkpt><trkpt lat="44.86536453974668" lon="12.083165708832537"><ele>-0.6666666666666666</ele><time>2026-03-28T11:12:20.999Z</time></trkpt><trkpt lat="44.86545480626666" lon="12.083186409225426"><ele>-1.0</ele><time>2026-03-28T11:12:22.999Z</time></trkpt><trkpt lat="44.86553792684561" lon="12.08319697380783"><ele>-1.3333333333333333</ele><time>2026-03-28T11:12:24.999Z</time></trkpt><trkpt lat="44.86561770913548" lon="12.083197658862064"><ele>-1.6666666666666665</ele><time>2026-03-28T11:12:26.999Z</time></trkpt><trkpt lat="44.86569285600468" lon="12.083215471367037"><ele>-2.0</ele><time>2026-03-28T11:12:28.999Z</time></trkpt><trkpt lat="44.86576517237888" lon="12.083224303645943"><ele>-1.9999999999999998</ele><time>2026-03-28T11:12:30.999Z</time></trkpt><trkpt lat="44.86584306465698" lon="12.083240079752022"><ele>-2.0</ele><time>2026-03-28T11:12:32.999Z</time></trkpt><trkpt lat="44.865929778116794" lon="12.083252360779277"><ele>-2.0</ele><time>2026-03-28T11:12:34.999Z</time></trkpt><trkpt lat="44.866017449909776" lon="12.083272486285932"><ele>-2.0</ele><time>2026-03-28T11:12:36.999Z</time></trkpt><trkpt lat="44.866108165760004" lon="12.083289722900124"><ele>-1.9999999999999998</ele><time>2026-03-28T11:12:38.999Z</time></trkpt><trkpt lat="44.86619943435049" lon="12.083309196912204"><ele>-2.0</ele><time>2026-03-28T11:12:41Z</time></trkpt><trkpt lat="44.866290679367054" lon="12.083324264433761"><ele>-1.8</ele><time>2026-03-28T11:12:43Z</time></trkpt><trkpt lat="44.86638188333441" lon="12.083342336103067"><ele>-1.6</ele><time>2026-03-28T11:12:45Z</time></trkpt><trkpt lat="44.86647421685111" lon="12.083358612846181"><ele>-1.4000000000000001</ele><time>2026-03-28T11:12:47Z</time></trkpt><trkpt lat="44.86656686744252" lon="12.083375223917951"><ele>-1.2000000000000002</ele><time>2026-03-28T11:12:49Z</time></trkpt><trkpt lat="44.866655957659255" lon="12.083394182199854"><ele>-1.0</ele><time>2026-03-28T11:12:51Z</time></trkpt><trkpt lat="44.866747341397684" lon="12.083409510930268"><ele>-1.3333333333333333</ele><time>2026-03-28T11:12:53Z</time></trkpt><trkpt lat="44.86683787992543" lon="12.083436073171303"><ele>-1.6666666666666665</ele><time>2026-03-28T11:12:55Z</time></trkpt><trkpt lat="44.866924796063756" lon="12.083454672908491"><ele>-2.0</ele><time>2026-03-28T11:12:57Z</time></trkpt><trkpt lat="44.86701259644373" lon="12.083483548919038"><ele>-2.3333333333333335</ele><time>2026-03-28T11:12:59Z</time></trkpt><trkpt lat="44.86709978094744" lon="12.083508488322638"><ele>-2.6666666666666665</ele><time>2026-03-28T11:13:01Z</time></trkpt><trkpt lat="44.867182295966394" lon="12.083539273456722"><ele>-3.0</ele><time>2026-03-28T11:13:03Z</time></trkpt><trkpt lat="44.86725440618629" lon="12.083563791892896"><ele>-3.0</ele><time>2026-03-28T11:13:05Z</time></trkpt><trkpt lat="44.867315325316206" lon="12.083606782597899"><ele>-3.0</ele><time>2026-03-28T11:13:08Z</time></trkpt><trkpt lat="44.86726298156018" lon="12.083532580551863"><ele>-3.0</ele><time>2026-03-28T11:13:15Z</time></trkpt><trkpt lat="44.86718074170866" lon="12.08350013474627"><ele>-3.0</ele><time>2026-03-28T11:13:17Z</time></trkpt><trkpt lat="44.867104485807836" lon="12.083473060114121"><ele>-3.0</ele><time>2026-03-28T11:13:19Z</time></trkpt><trkpt lat="44.86703320138822" lon="12.083453072594562"><ele>-3.0</ele><time>2026-03-28T11:13:21Z</time></trkpt><trkpt lat="44.86696422509843" lon="12.083431283498731"><ele>-3.0</ele><time>2026-03-28T11:13:23Z</time></trkpt><trkpt lat="44.866898451117876" lon="12.083405540071919"><ele>-3.0</ele><time>2026-03-28T11:13:25Z</time></trkpt><trkpt lat="44.866835340698444" lon="12.083388424564797"><ele>-3.0</ele><time>2026-03-28T11:13:27Z</time></trkpt><trkpt lat="44.86674768998421" lon="12.08336982198948"><ele>-3.0</ele><time>2026-03-28T11:13:30Z</time></trkpt><trkpt lat="44.86666438994503" lon="12.08336450861313"><ele>-3.0</ele><time>2026-03-28T11:13:33Z</time></trkpt><trkpt lat="44.86658854815318" lon="12.08334599450531"><ele>-3.0</ele><time>2026-03-28T11:13:36Z</time></trkpt><trkpt lat="44.866519563834466" lon="12.083323888691288"><ele>-2.6666666666666665</ele><time>2026-03-28T11:13:39Z</time></trkpt><trkpt lat="44.86645001708849" lon="12.083309082587542"><ele>-2.3333333333333335</ele><time>2026-03-28T11:13:42Z</time></trkpt><trkpt lat="44.86635740354997" lon="12.083307901676351"><ele>-2.0</ele><time>2026-03-28T11:13:46Z</time></trkpt><trkpt lat="44.86639998810484" lon="12.083374636536176"><ele>-1.6666666666666665</ele><time>2026-03-28T11:13:49Z</time></trkpt><trkpt lat="44.86647673149329" lon="12.083375437202557"><ele>-1.3333333333333333</ele><time>2026-03-28T11:13:51Z</time></trkpt><trkpt lat="44.86656935582476" lon="12.083387991765663"><ele>-1.0</ele><time>2026-03-28T11:13:54Z</time></trkpt><trkpt lat="44.86665576860829" lon="12.083407612418327"><ele>-1.0</ele><time>2026-03-28T11:13:57Z</time></trkpt><trkpt lat="44.86672782501263" lon="12.083417984806665"><ele>-0.9999999999999999</ele><time>2026-03-28T11:13:59Z</time></trkpt><trkpt lat="44.866790302017584" lon="12.083435345158321"><ele>-1.0</ele><time>2026-03-28T11:14:01Z</time></trkpt><trkpt lat="44.86685598937832" lon="12.083452189779953"><ele>-1.0</ele><time>2026-03-28T11:14:03Z</time></trkpt><trkpt lat="44.86694117626581" lon="12.083473660642188"><ele>-0.9999999999999999</ele><time>2026-03-28T11:14:06Z</time></trkpt><trkpt lat="44.867002670250045" lon="12.083493900321828"><ele>-1.0</ele><time>2026-03-28T11:14:08Z</time></trkpt><trkpt lat="44.86708396336058" lon="12.083529514688896"><ele>-1.0</ele><time>2026-03-28T11:14:09.999Z</time></trkpt><trkpt lat="44.867171391279115" lon="12.083560875887256"><ele>-1.4</ele><time>2026-03-28T11:14:11.999Z</time></trkpt><trkpt lat="44.86725981222487" lon="12.083602421932275"><ele>-1.8</ele><time>2026-03-28T11:14:13.999Z</time></trkpt><trkpt lat="44.86734133185718" lon="12.083642111432352"><ele>-2.1999999999999997</ele><time>2026-03-28T11:14:15.999Z</time></trkpt><trkpt lat="44.867426206257164" lon="12.083685684166715"><ele>-2.6</ele><time>2026-03-28T11:14:17.999Z</time></trkpt><trkpt lat="44.867512358006614" lon="12.08373122931474"><ele>-3.0</ele><time>2026-03-28T11:14:19.999Z</time></trkpt><trkpt lat="44.867595728237305" lon="12.08378035414139"><ele>-3.2</ele><time>2026-03-28T11:14:21.999Z</time></trkpt><trkpt lat="44.86768232846938" lon="12.083827569743685"><ele>-3.4</ele><time>2026-03-28T11:14:23.999Z</time></trkpt><trkpt lat="44.86776799986149" lon="12.083876665934508"><ele>-3.6000000000000005</ele><time>2026-03-28T11:14:25.999Z</time></trkpt><trkpt lat="44.86785369494086" lon="12.08392309994348"><ele>-3.8000000000000003</ele><time>2026-03-28T11:14:27.999Z</time></trkpt><trkpt lat="44.86793898384392" lon="12.083972296277377"><ele>-4.0</ele><time>2026-03-28T11:14:29.999Z</time></trkpt><trkpt lat="44.86802081706539" lon="12.08401553102775"><ele>-4.0</ele><time>2026-03-28T11:14:31.999Z</time></trkpt><trkpt lat="44.86809477224308" lon="12.08405231313931"><ele>-3.9999999999999996</ele><time>2026-03-28T11:14:33.999Z</time></trkpt><trkpt lat="44.86816307525724" lon="12.08408886573445"><ele>-4.0</ele><time>2026-03-28T11:14:35.999Z</time></trkpt><trkpt lat="44.86822978332284" lon="12.084122763993049"><ele>-4.0</ele><time>2026-03-28T11:14:37.999Z</time></trkpt><trkpt lat="44.86829293101107" lon="12.084154829826572"><ele>-3.9999999999999996</ele><time>2026-03-28T11:14:39.999Z</time></trkpt><trkpt lat="44.868355483059986" lon="12.08418551076083"><ele>-4.0</ele><time>2026-03-28T11:14:41.999Z</time></trkpt><trkpt lat="44.86843813202667" lon="12.084241110962243"><ele>-4.0</ele><time>2026-03-28T11:14:44.999Z</time></trkpt><trkpt lat="44.86847944104957" lon="12.084356619610608"><ele>-3.4999999999999996</ele><time>2026-03-28T11:14:48Z</time></trkpt><trkpt lat="44.86846290407034" lon="12.084451591179889"><ele>-3.0</ele><time>2026-03-28T11:14:50Z</time></trkpt><trkpt lat="44.868443674532536" lon="12.08455181621018"><ele>-2.5</ele><time>2026-03-28T11:14:52Z</time></trkpt><trkpt lat="44.868425443159566" lon="12.084658975896255"><ele>-2.0</ele><time>2026-03-28T11:14:54Z</time></trkpt><trkpt lat="44.86840307002781" lon="12.084773748745581"><ele>-1.5</ele><time>2026-03-28T11:14:56Z</time></trkpt><trkpt lat="44.868382825590466" lon="12.08489627628887"><ele>-1.0</ele><time>2026-03-28T11:14:58Z</time></trkpt><trkpt lat="44.86836897801819" lon="12.085023410434134"><ele>-0.8</ele><time>2026-03-28T11:15:00Z</time></trkpt><trkpt lat="44.86834858914464" lon="12.08514910917365"><ele>-0.6000000000000001</ele><time>2026-03-28T11:15:02Z</time></trkpt><trkpt lat="44.868339391326636" lon="12.08528375502043"><ele>-0.4</ele><time>2026-03-28T11:15:04Z</time></trkpt><trkpt lat="44.86833281219744" lon="12.085424542906889"><ele>-0.2</ele><time>2026-03-28T11:15:06Z</time></trkpt><trkpt lat="44.86831125299904" lon="12.08556215068723"><ele>0.0</ele><time>2026-03-28T11:15:08Z</time></trkpt><trkpt lat="44.868282623921274" lon="12.085706842406159"><ele>-0.8</ele><time>2026-03-28T11:15:10Z</time></trkpt><trkpt lat="44.86826631267358" lon="12.085854551244786"><ele>-1.6</ele><time>2026-03-28T11:15:12Z</time></trkpt><trkpt lat="44.868263886028025" lon="12.086003524934233"><ele>-2.4000000000000004</ele><time>2026-03-28T11:15:14Z</time></trkpt><trkpt lat="44.86823869569512" lon="12.086152111996201"><ele>-3.2</ele><time>2026-03-28T11:15:16Z</time></trkpt><trkpt lat="44.86822135742139" lon="12.0862970347389"><ele>-4.0</ele><time>2026-03-28T11:15:18Z</time></trkpt><trkpt lat="44.86820912529632" lon="12.086435134538446"><ele>-4.0</ele><time>2026-03-28T11:15:20Z</time></trkpt><trkpt lat="44.86819641701838" lon="12.086570987823045"><ele>-4.0</ele><time>2026-03-28T11:15:22Z</time></trkpt><trkpt lat="44.86818225878671" lon="12.086710019165945"><ele>-4.0</ele><time>2026-03-28T11:15:24Z</time></trkpt><trkpt lat="44.86816744493056" lon="12.08684566351343"><ele>-4.0</ele><time>2026-03-28T11:15:26Z</time></trkpt><trkpt lat="44.86815715503337" lon="12.086977183065054"><ele>-4.0</ele><time>2026-03-28T11:15:28Z</time></trkpt><trkpt lat="44.868137630542954" lon="12.087106776591764"><ele>-3.833333333333333</ele><time>2026-03-28T11:15:30Z</time></trkpt><trkpt lat="44.86812916961628" lon="12.087233973346656"><ele>-3.6666666666666665</ele><time>2026-03-28T11:15:32Z</time></trkpt><trkpt lat="44.86811336202492" lon="12.087358365846114"><ele>-3.5</ele><time>2026-03-28T11:15:34Z</time></trkpt><trkpt lat="44.86810250533678" lon="12.08747713610929"><ele>-3.333333333333333</ele><time>2026-03-28T11:15:36Z</time></trkpt><trkpt lat="44.86808741129581" lon="12.087598226761198"><ele>-3.1666666666666665</ele><time>2026-03-28T11:15:38Z</time></trkpt><trkpt lat="44.86807446626299" lon="12.08773143688009"><ele>-3.0</ele><time>2026-03-28T11:15:40Z</time></trkpt><trkpt lat="44.86806165318202" lon="12.087865200999447"><ele>-3.0</ele><time>2026-03-28T11:15:42Z</time></trkpt><trkpt lat="44.86804465661446" lon="12.087995085169709"><ele>-3.0</ele><time>2026-03-28T11:15:44Z</time></trkpt><trkpt lat="44.868031592737104" lon="12.088124751304589"><ele>-3.0</ele><time>2026-03-28T11:15:46Z</time></trkpt><trkpt lat="44.86801650477035" lon="12.088253015052384"><ele>-3.0</ele><time>2026-03-28T11:15:48Z</time></trkpt><trkpt lat="44.86800494298108" lon="12.088383313054482"><ele>-3.0</ele><time>2026-03-28T11:15:50Z</time></trkpt><trkpt lat="44.867990565188585" lon="12.088515387681127"><ele>-3.4</ele><time>2026-03-28T11:15:52Z</time></trkpt><trkpt lat="44.867978619830936" lon="12.088647436158386"><ele>-3.8</ele><time>2026-03-28T11:15:54Z</time></trkpt><trkpt lat="44.86796299614424" lon="12.08877251744042"><ele>-4.2</ele><time>2026-03-28T11:15:56Z</time></trkpt><trkpt lat="44.86795178159081" lon="12.088899795099792"><ele>-4.6</ele><time>2026-03-28T11:15:57.999Z</time></trkpt><trkpt lat="44.86793896186464" lon="12.089030032978542"><ele>-5.0</ele><time>2026-03-28T11:15:59.999Z</time></trkpt><trkpt lat="44.867924362617934" lon="12.08916054508303"><ele>-5.166666666666667</ele><time>2026-03-28T11:16:01.999Z</time></trkpt><trkpt lat="44.867908306772875" lon="12.089286793313828"><ele>-5.333333333333334</ele><time>2026-03-28T11:16:03.999Z</time></trkpt><trkpt lat="44.867899201435705" lon="12.089408634926142"><ele>-5.5</ele><time>2026-03-28T11:16:05.999Z</time></trkpt><trkpt lat="44.86788272663084" lon="12.089533543596545"><ele>-5.666666666666667</ele><time>2026-03-28T11:16:07.999Z</time></trkpt><trkpt lat="44.86786651096272" lon="12.089656146301868"><ele>-5.833333333333333</ele><time>2026-03-28T11:16:09.999Z</time></trkpt><trkpt lat="44.867856712929694" lon="12.089765563422885"><ele>-6.0</ele><time>2026-03-28T11:16:11.999Z</time></trkpt><trkpt lat="44.867841177923886" lon="12.089870287808816"><ele>-5.8</ele><time>2026-03-28T11:16:13.999Z</time></trkpt><trkpt lat="44.86782628592296" lon="12.089984666675168"><ele>-5.6</ele><time>2026-03-28T11:16:15.999Z</time></trkpt><trkpt lat="44.86781497520625" lon="12.090113834721405"><ele>-5.4</ele><time>2026-03-28T11:16:17.999Z</time></trkpt><trkpt lat="44.86780202135696" lon="12.090244781927538"><ele>-5.2</ele><time>2026-03-28T11:16:19.999Z</time></trkpt><trkpt lat="44.867788896210236" lon="12.090378184371433"><ele>-5.0</ele><time>2026-03-28T11:16:21.999Z</time></trkpt><trkpt lat="44.86777469496185" lon="12.090502728074293"><ele>-5.0</ele><time>2026-03-28T11:16:23.999Z</time></trkpt><trkpt lat="44.867761088800144" lon="12.090619023437728"><ele>-5.0</ele><time>2026-03-28T11:16:25.999Z</time></trkpt><trkpt lat="44.8677498784784" lon="12.090734791794706"><ele>-5.0</ele><time>2026-03-28T11:16:27.999Z</time></trkpt><trkpt lat="44.867736586419" lon="12.090858214905449"><ele>-5.0</ele><time>2026-03-28T11:16:29.999Z</time></trkpt><trkpt lat="44.867731053513495" lon="12.090986184052438"><ele>-5.0</ele><time>2026-03-28T11:16:31.999Z</time></trkpt><trkpt lat="44.86771591130106" lon="12.091107575885268"><ele>-5.0</ele><time>2026-03-28T11:16:33.999Z</time></trkpt><trkpt lat="44.867697995035385" lon="12.091230191114528"><ele>-5.0</ele><time>2026-03-28T11:16:35.999Z</time></trkpt><trkpt lat="44.86769028487294" lon="12.091348508689627"><ele>-5.0</ele><time>2026-03-28T11:16:37.999Z</time></trkpt><trkpt lat="44.867676109292276" lon="12.091461153626806"><ele>-5.0</ele><time>2026-03-28T11:16:39.999Z</time></trkpt><trkpt lat="44.86766171119914" lon="12.091585677883078"><ele>-5.0</ele><time>2026-03-28T11:16:41.999Z</time></trkpt><trkpt lat="44.867646387172435" lon="12.0917149210599"><ele>-5.0</ele><time>2026-03-28T11:16:43.999Z</time></trkpt><trkpt lat="44.86763619813001" lon="12.091843443827322"><ele>-5.0</ele><time>2026-03-28T11:16:45.999Z</time></trkpt><trkpt lat="44.8676238607936" lon="12.091969536805728"><ele>-5.0</ele><time>2026-03-28T11:16:47.999Z</time></trkpt><trkpt lat="44.86761381146462" lon="12.092096131410091"><ele>-5.0</ele><time>2026-03-28T11:16:49.999Z</time></trkpt><trkpt lat="44.86759385967135" lon="12.09222358793851"><ele>-5.0</ele><time>2026-03-28T11:16:51.999Z</time></trkpt><trkpt lat="44.86757291160731" lon="12.092349898302585"><ele>-5.0</ele><time>2026-03-28T11:16:54Z</time></trkpt><trkpt lat="44.867564838628006" lon="12.092477311335653"><ele>-5.0</ele><time>2026-03-28T11:16:56Z</time></trkpt><trkpt lat="44.867555877050115" lon="12.092601527386384"><ele>-4.833333333333334</ele><time>2026-03-28T11:16:58Z</time></trkpt><trkpt lat="44.86754205075729" lon="12.092711937115858"><ele>-4.666666666666667</ele><time>2026-03-28T11:17:00Z</time></trkpt><trkpt lat="44.86753012628926" lon="12.092814081235511"><ele>-4.5</ele><time>2026-03-28T11:17:02Z</time></trkpt><trkpt lat="44.867523484845854" lon="12.092919030476576"><ele>-4.333333333333333</ele><time>2026-03-28T11:17:04Z</time></trkpt><trkpt lat="44.867510496764226" lon="12.093042541552427"><ele>-4.166666666666666</ele><time>2026-03-28T11:17:06Z</time></trkpt><trkpt lat="44.86750366049842" lon="12.09316233353983"><ele>-4.0</ele><time>2026-03-28T11:17:08Z</time></trkpt><trkpt lat="44.867489378702004" lon="12.093265820021893"><ele>-4.5</ele><time>2026-03-28T11:17:10Z</time></trkpt><trkpt lat="44.86747143694315" lon="12.093374700486056"><ele>-5.0</ele><time>2026-03-28T11:17:12Z</time></trkpt><trkpt lat="44.867456710948346" lon="12.093492640281381"><ele>-5.5</ele><time>2026-03-28T11:17:14Z</time></trkpt><trkpt lat="44.867452443224224" lon="12.093603806316443"><ele>-6.0</ele><time>2026-03-28T11:17:16Z</time></trkpt><trkpt lat="44.867437710333576" lon="12.093707689526227"><ele>-6.500000000000001</ele><time>2026-03-28T11:17:18Z</time></trkpt><trkpt lat="44.86742061290338" lon="12.09380711755104"><ele>-7.0</ele><time>2026-03-28T11:17:20Z</time></trkpt><trkpt lat="44.867414906896634" lon="12.093908058224732"><ele>-7.000000000000001</ele><time>2026-03-28T11:17:22Z</time></trkpt><trkpt lat="44.86740410211542" lon="12.094001683688779"><ele>-7.0</ele><time>2026-03-28T11:17:24Z</time></trkpt><trkpt lat="44.86740118693463" lon="12.094097558642865"><ele>-7.0</ele><time>2026-03-28T11:17:26Z</time></trkpt><trkpt lat="44.867390755503585" lon="12.094215061603185"><ele>-7.0</ele><time>2026-03-28T11:17:28Z</time></trkpt><trkpt lat="44.86737390919507" lon="12.094341419767668"><ele>-7.000000000000001</ele><time>2026-03-28T11:17:30Z</time></trkpt><trkpt lat="44.86735886114976" lon="12.09446782063156"><ele>-7.0</ele><time>2026-03-28T11:17:32Z</time></trkpt><trkpt lat="44.86734935374733" lon="12.094592743338117"><ele>-6.833333333333334</ele><time>2026-03-28T11:17:34Z</time></trkpt><trkpt lat="44.867338706706526" lon="12.094712469532496"><ele>-6.666666666666667</ele><time>2026-03-28T11:17:36Z</time></trkpt><trkpt lat="44.867324038214974" lon="12.094817378789552"><ele>-6.5</ele><time>2026-03-28T11:17:38Z</time></trkpt><trkpt lat="44.86731389194595" lon="12.094922950002543"><ele>-6.333333333333334</ele><time>2026-03-28T11:17:40Z</time></trkpt><trkpt lat="44.867303465061696" lon="12.095046696389707"><ele>-6.166666666666667</ele><time>2026-03-28T11:17:42Z</time></trkpt><trkpt lat="44.86729077679829" lon="12.095171146642675"><ele>-6.0</ele><time>2026-03-28T11:17:44Z</time></trkpt><trkpt lat="44.867275034716734" lon="12.09528256800026"><ele>-6.0</ele><time>2026-03-28T11:17:46Z</time></trkpt><trkpt lat="44.8672624168381" lon="12.09538981821295"><ele>-6.0</ele><time>2026-03-28T11:17:48Z</time></trkpt><trkpt lat="44.86725146110837" lon="12.095494708804457"><ele>-6.0</ele><time>2026-03-28T11:17:50Z</time></trkpt><trkpt lat="44.867245518514856" lon="12.095588793210224"><ele>-6.0</ele><time>2026-03-28T11:17:52Z</time></trkpt><trkpt lat="44.86723127627183" lon="12.095696142308165"><ele>-6.0</ele><time>2026-03-28T11:17:54Z</time></trkpt><trkpt lat="44.86721718188773" lon="12.095819176986012"><ele>-6.0</ele><time>2026-03-28T11:17:56Z</time></trkpt><trkpt lat="44.867203084900474" lon="12.095928181176866"><ele>-6.0</ele><time>2026-03-28T11:17:58Z</time></trkpt><trkpt lat="44.86719488994431" lon="12.096031999709936"><ele>-6.0</ele><time>2026-03-28T11:18:00Z</time></trkpt><trkpt lat="44.867181102049024" lon="12.096128721655088"><ele>-6.0</ele><time>2026-03-28T11:18:02Z</time></trkpt><trkpt lat="44.86717244737878" lon="12.096230539534563"><ele>-6.0</ele><time>2026-03-28T11:18:04Z</time></trkpt><trkpt lat="44.86716137112322" lon="12.096353509342523"><ele>-6.0</ele><time>2026-03-28T11:18:06Z</time></trkpt><trkpt lat="44.86715047758712" lon="12.096481567814598"><ele>-6.0</ele><time>2026-03-28T11:18:08Z</time></trkpt><trkpt lat="44.867134559394565" lon="12.0966056551814"><ele>-6.0</ele><time>2026-03-28T11:18:10Z</time></trkpt><trkpt lat="44.86712247589713" lon="12.096728149712993"><ele>-6.0</ele><time>2026-03-28T11:18:12Z</time></trkpt><trkpt lat="44.86710715841085" lon="12.09684485165194"><ele>-6.0</ele><time>2026-03-28T11:18:13.999Z</time></trkpt><trkpt lat="44.8670984433376" lon="12.096952509166908"><ele>-6.0</ele><time>2026-03-28T11:18:15.999Z</time></trkpt><trkpt lat="44.86708459456045" lon="12.097051938577762"><ele>-6.0</ele><time>2026-03-28T11:18:17.999Z</time></trkpt><trkpt lat="44.86707461156795" lon="12.097171901035635"><ele>-6.0</ele><time>2026-03-28T11:18:19.999Z</time></trkpt><trkpt lat="44.86707051952138" lon="12.097285797796438"><ele>-6.0</ele><time>2026-03-28T11:18:21.999Z</time></trkpt><trkpt lat="44.86706050698299" lon="12.097393184389226"><ele>-6.0</ele><time>2026-03-28T11:18:23.999Z</time></trkpt><trkpt lat="44.8670462663367" lon="12.097516595861588"><ele>-6.0</ele><time>2026-03-28T11:18:25.999Z</time></trkpt><trkpt lat="44.86703202572387" lon="12.09763186053031"><ele>-6.0</ele><time>2026-03-28T11:18:27.999Z</time></trkpt><trkpt lat="44.86702578067759" lon="12.097743069556309"><ele>-6.0</ele><time>2026-03-28T11:18:29.999Z</time></trkpt><trkpt lat="44.867013862531486" lon="12.097849150093182"><ele>-6.0</ele><time>2026-03-28T11:18:31.999Z</time></trkpt><trkpt lat="44.867002720944264" lon="12.097951213188097"><ele>-6.0</ele><time>2026-03-28T11:18:33.999Z</time></trkpt><trkpt lat="44.8669895363929" lon="12.098061630746109"><ele>-6.0</ele><time>2026-03-28T11:18:35.999Z</time></trkpt><trkpt lat="44.866976313527914" lon="12.098169532871317"><ele>-6.0</ele><time>2026-03-28T11:18:37.999Z</time></trkpt><trkpt lat="44.86696334614205" lon="12.098273873639908"><ele>-6.0</ele><time>2026-03-28T11:18:39.999Z</time></trkpt><trkpt lat="44.86695277784177" lon="12.098392100438668"><ele>-6.0</ele><time>2026-03-28T11:18:41.999Z</time></trkpt><trkpt lat="44.86694259114899" lon="12.098509367748594"><ele>-6.0</ele><time>2026-03-28T11:18:43.999Z</time></trkpt><trkpt lat="44.86693342457907" lon="12.098617325643316"><ele>-6.0</ele><time>2026-03-28T11:18:45.999Z</time></trkpt><trkpt lat="44.86692057546047" lon="12.098719091568851"><ele>-6.0</ele><time>2026-03-28T11:18:47.999Z</time></trkpt><trkpt lat="44.86691153774087" lon="12.09882450742429"><ele>-6.0</ele><time>2026-03-28T11:18:49.999Z</time></trkpt><trkpt lat="44.86689601473784" lon="12.098929469918792"><ele>-6.0</ele><time>2026-03-28T11:18:51.999Z</time></trkpt><trkpt lat="44.866891006922266" lon="12.099036572292864"><ele>-6.0</ele><time>2026-03-28T11:18:53.999Z</time></trkpt><trkpt lat="44.866874242635795" lon="12.099160853836214"><ele>-6.0</ele><time>2026-03-28T11:18:55.999Z</time></trkpt><trkpt lat="44.86686521674052" lon="12.099285020534493"><ele>-6.0</ele><time>2026-03-28T11:18:57.999Z</time></trkpt><trkpt lat="44.8668471202452" lon="12.09939742810239"><ele>-6.0</ele><time>2026-03-28T11:19:00Z</time></trkpt><trkpt lat="44.866838715260904" lon="12.099511259632546"><ele>-6.0</ele><time>2026-03-28T11:19:02Z</time></trkpt><trkpt lat="44.8668236604623" lon="12.09963626774766"><ele>-6.0</ele><time>2026-03-28T11:19:04Z</time></trkpt><trkpt lat="44.866810151348034" lon="12.0997647291091"><ele>-6.0</ele><time>2026-03-28T11:19:06Z</time></trkpt><trkpt lat="44.86679948898125" lon="12.099888097448405"><ele>-6.0</ele><time>2026-03-28T11:19:08Z</time></trkpt><trkpt lat="44.86678487960195" lon="12.10000122515897"><ele>-6.0</ele><time>2026-03-28T11:19:10Z</time></trkpt><trkpt lat="44.86677569500546" lon="12.10010426970384"><ele>-6.0</ele><time>2026-03-28T11:19:12Z</time></trkpt><trkpt lat="44.86676281824907" lon="12.100198665810005"><ele>-6.0</ele><time>2026-03-28T11:19:14Z</time></trkpt><trkpt lat="44.86676128556795" lon="12.100296663659659"><ele>-6.0</ele><time>2026-03-28T11:19:16Z</time></trkpt><trkpt lat="44.86674713554257" lon="12.100416468319775"><ele>-6.0</ele><time>2026-03-28T11:19:18Z</time></trkpt><trkpt lat="44.86673691617276" lon="12.100539551793405"><ele>-6.0</ele><time>2026-03-28T11:19:20Z</time></trkpt><trkpt lat="44.86672340094663" lon="12.100646043725188"><ele>-6.0</ele><time>2026-03-28T11:19:22Z</time></trkpt><trkpt lat="44.86671209066979" lon="12.100756014441076"><ele>-6.0</ele><time>2026-03-28T11:19:24Z</time></trkpt><trkpt lat="44.86669331426081" lon="12.100872471630417"><ele>-6.0</ele><time>2026-03-28T11:19:26Z</time></trkpt><trkpt lat="44.86669313759631" lon="12.100992996654664"><ele>-6.0</ele><time>2026-03-28T11:19:28Z</time></trkpt><trkpt lat="44.86667772621026" lon="12.10111718899363"><ele>-6.0</ele><time>2026-03-28T11:19:30Z</time></trkpt><trkpt lat="44.86665173806491" lon="12.101242162527262"><ele>-6.0</ele><time>2026-03-28T11:19:32Z</time></trkpt><trkpt lat="44.86664578060575" lon="12.101371251850772"><ele>-6.0</ele><time>2026-03-28T11:19:34Z</time></trkpt><trkpt lat="44.86663890865203" lon="12.101494084748053"><ele>-6.0</ele><time>2026-03-28T11:19:36Z</time></trkpt><trkpt lat="44.866623411698555" lon="12.101606432104376"><ele>-6.0</ele><time>2026-03-28T11:19:38Z</time></trkpt><trkpt lat="44.86661375923947" lon="12.101709610122205"><ele>-6.0</ele><time>2026-03-28T11:19:40Z</time></trkpt><trkpt lat="44.86660677785852" lon="12.101806745501168"><ele>-6.0</ele><time>2026-03-28T11:19:42Z</time></trkpt><trkpt lat="44.86658902499598" lon="12.101917768997323"><ele>-6.0</ele><time>2026-03-28T11:19:44Z</time></trkpt><trkpt lat="44.86657459614028" lon="12.102036036659022"><ele>-6.0</ele><time>2026-03-28T11:19:46Z</time></trkpt><trkpt lat="44.86656468519039" lon="12.102147807908178"><ele>-6.0</ele><time>2026-03-28T11:19:48Z</time></trkpt><trkpt lat="44.86655105841536" lon="12.10226741739556"><ele>-6.0</ele><time>2026-03-28T11:19:50Z</time></trkpt><trkpt lat="44.866537529952765" lon="12.102389075580874"><ele>-6.0</ele><time>2026-03-28T11:19:52Z</time></trkpt><trkpt lat="44.866531897606265" lon="12.102503599352373"><ele>-6.0</ele><time>2026-03-28T11:19:54Z</time></trkpt><trkpt lat="44.86652510151961" lon="12.102598204978632"><ele>-6.0</ele><time>2026-03-28T11:19:56Z</time></trkpt><trkpt lat="44.86651539875891" lon="12.10270810622911"><ele>-6.0</ele><time>2026-03-28T11:19:58Z</time></trkpt><trkpt lat="44.86649557900302" lon="12.102835929502232"><ele>-6.0</ele><time>2026-03-28T11:20:00Z</time></trkpt><trkpt lat="44.86648307988523" lon="12.10295807963319"><ele>-6.0</ele><time>2026-03-28T11:20:02Z</time></trkpt><trkpt lat="44.86647452106419" lon="12.103072334364054"><ele>-6.0</ele><time>2026-03-28T11:20:04Z</time></trkpt><trkpt lat="44.86646657072411" lon="12.103183099930039"><ele>-6.0</ele><time>2026-03-28T11:20:06Z</time></trkpt><trkpt lat="44.8664582521517" lon="12.103286308214408"><ele>-6.0</ele><time>2026-03-28T11:20:08Z</time></trkpt><trkpt lat="44.86643867788645" lon="12.10340415671277"><ele>-5.833333333333333</ele><time>2026-03-28T11:20:10Z</time></trkpt><trkpt lat="44.866433570674275" lon="12.103518283480401"><ele>-5.666666666666667</ele><time>2026-03-28T11:20:12Z</time></trkpt><trkpt lat="44.86642723900567" lon="12.103624753363341"><ele>-5.5</ele><time>2026-03-28T11:20:14Z</time></trkpt><trkpt lat="44.866421014048406" lon="12.103744406992181"><ele>-5.333333333333334</ele><time>2026-03-28T11:20:16Z</time></trkpt><trkpt lat="44.86640006164014" lon="12.103864002788592"><ele>-5.166666666666667</ele><time>2026-03-28T11:20:18Z</time></trkpt><trkpt lat="44.86639328485562" lon="12.103975666098897"><ele>-5.0</ele><time>2026-03-28T11:20:19.999Z</time></trkpt><trkpt lat="44.866390763659645" lon="12.104077986632856"><ele>-4.857142857142857</ele><time>2026-03-28T11:20:21.999Z</time></trkpt><trkpt lat="44.866385181826594" lon="12.104181260297988"><ele>-4.714285714285714</ele><time>2026-03-28T11:20:23.999Z</time></trkpt><trkpt lat="44.866377435010996" lon="12.104286103394887"><ele>-4.571428571428571</ele><time>2026-03-28T11:20:25.999Z</time></trkpt><trkpt lat="44.86637525529279" lon="12.10439286595341"><ele>-4.428571428571429</ele><time>2026-03-28T11:20:27.999Z</time></trkpt><trkpt lat="44.86637722130231" lon="12.10449723090015"><ele>-4.285714285714286</ele><time>2026-03-28T11:20:29.999Z</time></trkpt><trkpt lat="44.86636603947006" lon="12.104594972041282"><ele>-4.142857142857142</ele><time>2026-03-28T11:20:31.999Z</time></trkpt><trkpt lat="44.86635868160298" lon="12.104705078562917"><ele>-4.0</ele><time>2026-03-28T11:20:33.999Z</time></trkpt><trkpt lat="44.86634984455076" lon="12.104811741695006"><ele>-3.9999999999999996</ele><time>2026-03-28T11:20:35.999Z</time></trkpt><trkpt lat="44.866342439523955" lon="12.104910795134515"><ele>-4.0</ele><time>2026-03-28T11:20:37.999Z</time></trkpt><trkpt lat="44.866329999186945" lon="12.105024564457922"><ele>-4.0</ele><time>2026-03-28T11:20:39.999Z</time></trkpt><trkpt lat="44.866311430035" lon="12.105143045117709"><ele>-4.0</ele><time>2026-03-28T11:20:41.999Z</time></trkpt><trkpt lat="44.86630026623836" lon="12.105249780942748"><ele>-3.9999999999999996</ele><time>2026-03-28T11:20:43.999Z</time></trkpt><trkpt lat="44.86628952447248" lon="12.105369568144363"><ele>-4.0</ele><time>2026-03-28T11:20:45.999Z</time></trkpt><trkpt lat="44.866277189886965" lon="12.10548678020794"><ele>-3.9999999999999996</ele><time>2026-03-28T11:20:47.999Z</time></trkpt><trkpt lat="44.86627317167921" lon="12.10559391432118"><ele>-4.0</ele><time>2026-03-28T11:20:49.999Z</time></trkpt><trkpt lat="44.86626085747293" lon="12.105692104714617"><ele>-4.0</ele><time>2026-03-28T11:20:51.999Z</time></trkpt><trkpt lat="44.86624449528797" lon="12.105807778738745"><ele>-4.0</ele><time>2026-03-28T11:20:53.999Z</time></trkpt><trkpt lat="44.866236879891154" lon="12.105922442940802"><ele>-3.9999999999999996</ele><time>2026-03-28T11:20:55.999Z</time></trkpt><trkpt lat="44.866221466994524" lon="12.106021702133486"><ele>-4.0</ele><time>2026-03-28T11:20:57.999Z</time></trkpt><trkpt lat="44.86621512314904" lon="12.106134759732111"><ele>-4.166666666666666</ele><time>2026-03-28T11:20:59.999Z</time></trkpt><trkpt lat="44.8661958403378" lon="12.106263300937844"><ele>-4.333333333333333</ele><time>2026-03-28T11:21:01.999Z</time></trkpt><trkpt lat="44.866188441365125" lon="12.106387726217577"><ele>-4.5</ele><time>2026-03-28T11:21:03.999Z</time></trkpt><trkpt lat="44.866176808613375" lon="12.106500285470657"><ele>-4.666666666666667</ele><time>2026-03-28T11:21:06Z</time></trkpt><trkpt lat="44.86616305759572" lon="12.106601213008902"><ele>-4.833333333333334</ele><time>2026-03-28T11:21:08Z</time></trkpt><trkpt lat="44.86615145304077" lon="12.106711780448125"><ele>-5.0</ele><time>2026-03-28T11:21:10Z</time></trkpt><trkpt lat="44.8661417238817" lon="12.106838655477409"><ele>-5.0</ele><time>2026-03-28T11:21:12Z</time></trkpt><trkpt lat="44.86613387016933" lon="12.106953268552742"><ele>-5.0</ele><time>2026-03-28T11:21:14Z</time></trkpt><trkpt lat="44.86612894207543" lon="12.107057934601604"><ele>-5.0</ele><time>2026-03-28T11:21:16Z</time></trkpt><trkpt lat="44.86612179054537" lon="12.10716313578503"><ele>-5.0</ele><time>2026-03-28T11:21:18Z</time></trkpt><trkpt lat="44.86610790871442" lon="12.107285605685247"><ele>-5.0</ele><time>2026-03-28T11:21:20Z</time></trkpt><trkpt lat="44.866096476937244" lon="12.107397777581507"><ele>-5.0</ele><time>2026-03-28T11:21:22Z</time></trkpt><trkpt lat="44.86608884098648" lon="12.107494582931285"><ele>-4.833333333333334</ele><time>2026-03-28T11:21:24Z</time></trkpt><trkpt lat="44.86607540557865" lon="12.10760800920849"><ele>-4.666666666666667</ele><time>2026-03-28T11:21:26Z</time></trkpt><trkpt lat="44.86606961540014" lon="12.107728175243587"><ele>-4.5</ele><time>2026-03-28T11:21:28Z</time></trkpt><trkpt lat="44.86605693940274" lon="12.107833666892375"><ele>-4.333333333333333</ele><time>2026-03-28T11:21:30Z</time></trkpt><trkpt lat="44.866043630579085" lon="12.107926014514202"><ele>-4.166666666666666</ele><time>2026-03-28T11:21:32Z</time></trkpt><trkpt lat="44.866035828854294" lon="12.108047468994368"><ele>-4.0</ele><time>2026-03-28T11:21:35Z</time></trkpt><trkpt lat="44.866023404513605" lon="12.108141466964184"><ele>-4.0</ele><time>2026-03-28T11:21:38Z</time></trkpt><trkpt lat="44.86608995883288" lon="12.10816174089146"><ele>-3.9999999999999996</ele><time>2026-03-28T11:21:42Z</time></trkpt><trkpt lat="44.866150317725285" lon="12.108127659669675"><ele>-4.0</ele><time>2026-03-28T11:21:44Z</time></trkpt><trkpt lat="44.866207076848276" lon="12.108059905812214"><ele>-4.0</ele><time>2026-03-28T11:21:49Z</time></trkpt><trkpt lat="44.86613747815651" lon="12.108128559099955"><ele>-3.9999999999999996</ele><time>2026-03-28T11:24:52.999Z</time></trkpt><trkpt lat="44.86606938753884" lon="12.108130371504668"><ele>-4.0</ele><time>2026-03-28T11:24:55.999Z</time></trkpt><trkpt lat="44.86601832629258" lon="12.108188669729913"><ele>-4.0</ele><time>2026-03-28T11:24:58.999Z</time></trkpt><trkpt lat="44.8660076443308" lon="12.108308782284533"><ele>-3.833333333333333</ele><time>2026-03-28T11:25:01.999Z</time></trkpt><trkpt lat="44.8660046121372" lon="12.108436169180473"><ele>-3.6666666666666665</ele><time>2026-03-28T11:25:03.999Z</time></trkpt><trkpt lat="44.86598816294354" lon="12.108565506015442"><ele>-3.5</ele><time>2026-03-28T11:25:05.999Z</time></trkpt><trkpt lat="44.86597834196098" lon="12.108664057670698"><ele>-3.333333333333333</ele><time>2026-03-28T11:25:07.999Z</time></trkpt><trkpt lat="44.86597601687966" lon="12.10875637184004"><ele>-3.1666666666666665</ele><time>2026-03-28T11:25:09.999Z</time></trkpt><trkpt lat="44.86596145690358" lon="12.108857348244827"><ele>-3.0</ele><time>2026-03-28T11:25:11.999Z</time></trkpt><trkpt lat="44.86596103709437" lon="12.108957633936022"><ele>-2.9999999999999996</ele><time>2026-03-28T11:25:13.999Z</time></trkpt><trkpt lat="44.865947429553465" lon="12.10904872175854"><ele>-3.0</ele><time>2026-03-28T11:25:15.999Z</time></trkpt><trkpt lat="44.865929960543006" lon="12.109171916737163"><ele>-3.0</ele><time>2026-03-28T11:25:19Z</time></trkpt><trkpt lat="44.86592029673459" lon="12.109272846090025"><ele>-3.0</ele><time>2026-03-28T11:25:21Z</time></trkpt><trkpt lat="44.86590709517617" lon="12.109376213453118"><ele>-3.0</ele><time>2026-03-28T11:25:23Z</time></trkpt><trkpt lat="44.86589586218675" lon="12.109480728394919"><ele>-2.9999999999999996</ele><time>2026-03-28T11:25:25Z</time></trkpt><trkpt lat="44.865892263066215" lon="12.109583435307986"><ele>-3.0</ele><time>2026-03-28T11:25:27Z</time></trkpt><trkpt lat="44.86587943452406" lon="12.109687357633172"><ele>-3.0</ele><time>2026-03-28T11:25:29Z</time></trkpt><trkpt lat="44.86586644674332" lon="12.109814779628902"><ele>-3.0</ele><time>2026-03-28T11:25:32Z</time></trkpt><trkpt lat="44.86586041909822" lon="12.109947989477833"><ele>-3.0</ele><time>2026-03-28T11:25:35Z</time></trkpt><trkpt lat="44.865846476219836" lon="12.110046673691075"><ele>-3.0</ele><time>2026-03-28T11:25:37Z</time></trkpt><trkpt lat="44.86583279599232" lon="12.110164756739218"><ele>-3.0</ele><time>2026-03-28T11:25:39Z</time></trkpt><trkpt lat="44.865815314144015" lon="12.110275704028947"><ele>-3.0</ele><time>2026-03-28T11:25:41Z</time></trkpt><trkpt lat="44.86580550763639" lon="12.110381810643661"><ele>-3.0</ele><time>2026-03-28T11:25:43Z</time></trkpt><trkpt lat="44.865790757798834" lon="12.110488827473574"><ele>-3.0</ele><time>2026-03-28T11:25:45Z</time></trkpt><trkpt lat="44.86577625095021" lon="12.110605198313799"><ele>-3.0</ele><time>2026-03-28T11:25:47Z</time></trkpt><trkpt lat="44.8657639703391" lon="12.110714957806811"><ele>-3.0</ele><time>2026-03-28T11:25:49Z</time></trkpt><trkpt lat="44.86575825633057" lon="12.110820566388682"><ele>-3.0</ele><time>2026-03-28T11:25:51Z</time></trkpt><trkpt lat="44.865743188307725" lon="12.110919587860838"><ele>-3.0</ele><time>2026-03-28T11:25:53Z</time></trkpt><trkpt lat="44.86573804986417" lon="12.111016784196813"><ele>-2.9999999999999996</ele><time>2026-03-28T11:25:55Z</time></trkpt><trkpt lat="44.865722833602064" lon="12.11110513480902"><ele>-3.0</ele><time>2026-03-28T11:25:57Z</time></trkpt><trkpt lat="44.86571316547106" lon="12.111208624522206"><ele>-3.0</ele><time>2026-03-28T11:25:59Z</time></trkpt><trkpt lat="44.86569954244744" lon="12.111325472551936"><ele>-3.0</ele><time>2026-03-28T11:26:01Z</time></trkpt><trkpt lat="44.86568846321311" lon="12.11143331972995"><ele>-3.0</ele><time>2026-03-28T11:26:03Z</time></trkpt><trkpt lat="44.86567623942615" lon="12.11154008826309"><ele>-2.9999999999999996</ele><time>2026-03-28T11:26:05Z</time></trkpt><trkpt lat="44.865665747755905" lon="12.111641676529766"><ele>-3.0</ele><time>2026-03-28T11:26:07Z</time></trkpt><trkpt lat="44.865657342769715" lon="12.111737787574544"><ele>-3.1666666666666665</ele><time>2026-03-28T11:26:09Z</time></trkpt><trkpt lat="44.86564550313149" lon="12.111829414002033"><ele>-3.333333333333333</ele><time>2026-03-28T11:26:11Z</time></trkpt><trkpt lat="44.86563128968843" lon="12.111932223885518"><ele>-3.5</ele><time>2026-03-28T11:26:13Z</time></trkpt><trkpt lat="44.86562003556853" lon="12.112054833354392"><ele>-3.6666666666666665</ele><time>2026-03-28T11:26:15Z</time></trkpt><trkpt lat="44.86560495930423" lon="12.11217037437708"><ele>-3.833333333333333</ele><time>2026-03-28T11:26:17Z</time></trkpt><trkpt lat="44.865590921529595" lon="12.112277995047652"><ele>-4.0</ele><time>2026-03-28T11:26:19Z</time></trkpt><trkpt lat="44.865581721665556" lon="12.112386953317442"><ele>-4.5</ele><time>2026-03-28T11:26:21Z</time></trkpt><trkpt lat="44.86557094553559" lon="12.112491371242017"><ele>-5.0</ele><time>2026-03-28T11:26:23Z</time></trkpt><trkpt lat="44.865561244607434" lon="12.112595378465263"><ele>-5.5</ele><time>2026-03-28T11:26:24.999Z</time></trkpt><trkpt lat="44.86554807223772" lon="12.112714213016998"><ele>-6.0</ele><time>2026-03-28T11:26:26.999Z</time></trkpt><trkpt lat="44.86553195356874" lon="12.11284058728342"><ele>-6.500000000000001</ele><time>2026-03-28T11:26:28.999Z</time></trkpt><trkpt lat="44.86551940394039" lon="12.112969698212714"><ele>-7.0</ele><time>2026-03-28T11:26:30.999Z</time></trkpt><trkpt lat="44.86550856950647" lon="12.113091938090937"><ele>-7.000000000000001</ele><time>2026-03-28T11:26:32.999Z</time></trkpt><trkpt lat="44.86550014515342" lon="12.113211987666405"><ele>-7.0</ele><time>2026-03-28T11:26:34.999Z</time></trkpt><trkpt lat="44.86548066065554" lon="12.113319146016705"><ele>-7.0</ele><time>2026-03-28T11:26:36.999Z</time></trkpt><trkpt lat="44.865465004332655" lon="12.11343072493151"><ele>-7.0</ele><time>2026-03-28T11:26:38.999Z</time></trkpt><trkpt lat="44.86545594227561" lon="12.113559569621152"><ele>-7.000000000000001</ele><time>2026-03-28T11:26:40.999Z</time></trkpt><trkpt lat="44.865447283234225" lon="12.113688484187596"><ele>-7.0</ele><time>2026-03-28T11:26:42.999Z</time></trkpt><trkpt lat="44.86543140391826" lon="12.113807223425733"><ele>-7.000000000000001</ele><time>2026-03-28T11:26:44.999Z</time></trkpt><trkpt lat="44.86542198086598" lon="12.113922813061317"><ele>-7.0</ele><time>2026-03-28T11:26:46.999Z</time></trkpt><trkpt lat="44.86540900007277" lon="12.114032162038654"><ele>-7.0</ele><time>2026-03-28T11:26:48.999Z</time></trkpt><trkpt lat="44.86539707074349" lon="12.114135590653252"><ele>-7.0</ele><time>2026-03-28T11:26:50.999Z</time></trkpt><trkpt lat="44.86538614184864" lon="12.114253891796132"><ele>-7.000000000000001</ele><time>2026-03-28T11:26:52.999Z</time></trkpt><trkpt lat="44.86537116271426" lon="12.114381093306278"><ele>-7.0</ele><time>2026-03-28T11:26:54.999Z</time></trkpt><trkpt lat="44.865358673726305" lon="12.114505227558272"><ele>-7.000000000000001</ele><time>2026-03-28T11:26:56.999Z</time></trkpt><trkpt lat="44.86534342559918" lon="12.114629400636955"><ele>-7.0</ele><time>2026-03-28T11:26:58.999Z</time></trkpt><trkpt lat="44.865334964347035" lon="12.114750569905123"><ele>-7.0</ele><time>2026-03-28T11:27:00.999Z</time></trkpt><trkpt lat="44.865318276894406" lon="12.114866212045147"><ele>-7.0</ele><time>2026-03-28T11:27:02.999Z</time></trkpt><trkpt lat="44.86530332502148" lon="12.114975713361932"><ele>-7.000000000000001</ele><time>2026-03-28T11:27:04.999Z</time></trkpt><trkpt lat="44.865293374402945" lon="12.115099474380765"><ele>-7.0</ele><time>2026-03-28T11:27:06.999Z</time></trkpt><trkpt lat="44.865281380921125" lon="12.115226893380195"><ele>-7.0</ele><time>2026-03-28T11:27:08.999Z</time></trkpt><trkpt lat="44.86526808915015" lon="12.115356445124185"><ele>-6.999999999999999</ele><time>2026-03-28T11:27:10.999Z</time></trkpt><trkpt lat="44.865253446873616" lon="12.115486917966079"><ele>-6.999999999999999</ele><time>2026-03-28T11:27:12.999Z</time></trkpt><trkpt lat="44.86523952845108" lon="12.115615154987292"><ele>-7.0</ele><time>2026-03-28T11:27:14.999Z</time></trkpt><trkpt lat="44.8652303754238" lon="12.115742264622964"><ele>-7.0</ele><time>2026-03-28T11:27:16.999Z</time></trkpt><trkpt lat="44.865218961897384" lon="12.115869379054303"><ele>-7.0</ele><time>2026-03-28T11:27:18.999Z</time></trkpt><trkpt lat="44.86520062307486" lon="12.115994811405251"><ele>-6.999999999999999</ele><time>2026-03-28T11:27:20.999Z</time></trkpt><trkpt lat="44.865186405412736" lon="12.11612424608293"><ele>-6.999999999999999</ele><time>2026-03-28T11:27:23Z</time></trkpt><trkpt lat="44.86517394446144" lon="12.116246777597183"><ele>-7.0</ele><time>2026-03-28T11:27:25Z</time></trkpt><trkpt lat="44.86515799847732" lon="12.116371723273344"><ele>-7.0</ele><time>2026-03-28T11:27:27Z</time></trkpt><trkpt lat="44.8651425786151" lon="12.116499129054873"><ele>-7.000000000000001</ele><time>2026-03-28T11:27:29Z</time></trkpt><trkpt lat="44.86513263170187" lon="12.116624850717736"><ele>-7.0</ele><time>2026-03-28T11:27:31Z</time></trkpt><trkpt lat="44.865117962676436" lon="12.116748209793407"><ele>-7.0</ele><time>2026-03-28T11:27:33Z</time></trkpt><trkpt lat="44.86510368868164" lon="12.116869416662595"><ele>-7.0</ele><time>2026-03-28T11:27:35Z</time></trkpt><trkpt lat="44.86509776181013" lon="12.116985970768923"><ele>-7.000000000000001</ele><time>2026-03-28T11:27:37Z</time></trkpt><trkpt lat="44.865081455225614" lon="12.117103525770977"><ele>-7.0</ele><time>2026-03-28T11:27:39Z</time></trkpt><trkpt lat="44.86506678320417" lon="12.117230601304636"><ele>-6.833333333333334</ele><time>2026-03-28T11:27:41Z</time></trkpt><trkpt lat="44.86505291910569" lon="12.117358444467351"><ele>-6.666666666666667</ele><time>2026-03-28T11:27:43Z</time></trkpt><trkpt lat="44.865040970433384" lon="12.1174891185901"><ele>-6.5</ele><time>2026-03-28T11:27:45Z</time></trkpt><trkpt lat="44.86502941593245" lon="12.117619053343518"><ele>-6.333333333333334</ele><time>2026-03-28T11:27:47Z</time></trkpt><trkpt lat="44.86501619443332" lon="12.11774430228327"><ele>-6.166666666666667</ele><time>2026-03-28T11:27:49Z</time></trkpt><trkpt lat="44.864997795426945" lon="12.117856151372976"><ele>-6.0</ele><time>2026-03-28T11:27:51Z</time></trkpt><trkpt lat="44.86498774737251" lon="12.117978058495916"><ele>-6.0</ele><time>2026-03-28T11:27:53Z</time></trkpt><trkpt lat="44.86497983575426" lon="12.118108373935105"><ele>-6.0</ele><time>2026-03-28T11:27:55Z</time></trkpt><trkpt lat="44.86496509687823" lon="12.11823839612046"><ele>-6.0</ele><time>2026-03-28T11:27:57Z</time></trkpt><trkpt lat="44.86494595126649" lon="12.11836678894337"><ele>-6.0</ele><time>2026-03-28T11:27:59Z</time></trkpt><trkpt lat="44.864934129891836" lon="12.118494709161219"><ele>-6.0</ele><time>2026-03-28T11:28:01Z</time></trkpt><trkpt lat="44.864922622319405" lon="12.118627804143939"><ele>-6.199999999999999</ele><time>2026-03-28T11:28:03Z</time></trkpt><trkpt lat="44.864907589348086" lon="12.118761926086002"><ele>-6.3999999999999995</ele><time>2026-03-28T11:28:05Z</time></trkpt><trkpt lat="44.86489132330233" lon="12.118889441597682"><ele>-6.6</ele><time>2026-03-28T11:28:07Z</time></trkpt><trkpt lat="44.8648785274688" lon="12.119018722535028"><ele>-6.8</ele><time>2026-03-28T11:28:09Z</time></trkpt><trkpt lat="44.864868209027534" lon="12.119148432125135"><ele>-7.0</ele><time>2026-03-28T11:28:11Z</time></trkpt><trkpt lat="44.8648523247474" lon="12.119277718871558"><ele>-7.0</ele><time>2026-03-28T11:28:13Z</time></trkpt><trkpt lat="44.86483886369042" lon="12.119409285593472"><ele>-6.999999999999999</ele><time>2026-03-28T11:28:15Z</time></trkpt><trkpt lat="44.86482505340402" lon="12.119539510220076"><ele>-6.999999999999999</ele><time>2026-03-28T11:28:17Z</time></trkpt><trkpt lat="44.86481425084997" lon="12.119671265720148"><ele>-7.0</ele><time>2026-03-28T11:28:19Z</time></trkpt><trkpt lat="44.86480025053014" lon="12.119800482838047"><ele>-7.0</ele><time>2026-03-28T11:28:21Z</time></trkpt><trkpt lat="44.86478656703358" lon="12.119931292554618"><ele>-6.6</ele><time>2026-03-28T11:28:23Z</time></trkpt><trkpt lat="44.864774642132815" lon="12.120064810446358"><ele>-6.199999999999999</ele><time>2026-03-28T11:28:24.999Z</time></trkpt><trkpt lat="44.86475520549649" lon="12.120199582211715"><ele>-5.8</ele><time>2026-03-28T11:28:26.999Z</time></trkpt><trkpt lat="44.86474097788345" lon="12.120337617178624"><ele>-5.4</ele><time>2026-03-28T11:28:28.999Z</time></trkpt><trkpt lat="44.86473007558655" lon="12.120471263227111"><ele>-5.0</ele><time>2026-03-28T11:28:30.999Z</time></trkpt><trkpt lat="44.86471418323004" lon="12.120602665522911"><ele>-5.0</ele><time>2026-03-28T11:28:32.999Z</time></trkpt><trkpt lat="44.8647033823098" lon="12.120736759802845"><ele>-5.0</ele><time>2026-03-28T11:28:34.999Z</time></trkpt><trkpt lat="44.864685886256964" lon="12.120866954378839"><ele>-5.0</ele><time>2026-03-28T11:28:36.999Z</time></trkpt><trkpt lat="44.86467672109358" lon="12.120994944397035"><ele>-5.0</ele><time>2026-03-28T11:28:38.999Z</time></trkpt><trkpt lat="44.864661648633145" lon="12.121121582610186"><ele>-5.0</ele><time>2026-03-28T11:28:40.999Z</time></trkpt><trkpt lat="44.86464194236065" lon="12.121240175172169"><ele>-5.0</ele><time>2026-03-28T11:28:42.999Z</time></trkpt><trkpt lat="44.86463701574642" lon="12.121351867930054"><ele>-5.0</ele><time>2026-03-28T11:28:44.999Z</time></trkpt><trkpt lat="44.864621888322105" lon="12.1214559396079"><ele>-5.0</ele><time>2026-03-28T11:28:46.999Z</time></trkpt><trkpt lat="44.864611598056136" lon="12.12157245111694"><ele>-5.0</ele><time>2026-03-28T11:28:48.999Z</time></trkpt><trkpt lat="44.86460138234912" lon="12.121678605175378"><ele>-5.0</ele><time>2026-03-28T11:28:50.999Z</time></trkpt><trkpt lat="44.86459289991556" lon="12.121778866655415"><ele>-5.0</ele><time>2026-03-28T11:28:52.999Z</time></trkpt><trkpt lat="44.864582700075886" lon="12.121874940117397"><ele>-4.833333333333334</ele><time>2026-03-28T11:28:54.999Z</time></trkpt><trkpt lat="44.86456919135367" lon="12.121987417234845"><ele>-4.666666666666667</ele><time>2026-03-28T11:28:56.999Z</time></trkpt><trkpt lat="44.86456330042899" lon="12.12211717438482"><ele>-4.5</ele><time>2026-03-28T11:28:58.999Z</time></trkpt><trkpt lat="44.86455146010071" lon="12.122238483638222"><ele>-4.333333333333333</ele><time>2026-03-28T11:29:00.999Z</time></trkpt><trkpt lat="44.86454337272873" lon="12.122348499533688"><ele>-4.166666666666666</ele><time>2026-03-28T11:29:02.999Z</time></trkpt><trkpt lat="44.864535157928856" lon="12.122446135472545"><ele>-4.0</ele><time>2026-03-28T11:29:04.999Z</time></trkpt><trkpt lat="44.86452214977503" lon="12.12255651192074"><ele>-3.9999999999999996</ele><time>2026-03-28T11:29:06.999Z</time></trkpt><trkpt lat="44.864508415543675" lon="12.122666477806602"><ele>-4.0</ele><time>2026-03-28T11:29:08.999Z</time></trkpt><trkpt lat="44.86449684550031" lon="12.122803393931703"><ele>-4.0</ele><time>2026-03-28T11:29:11.999Z</time></trkpt><trkpt lat="44.8644815589388" lon="12.12292263072746"><ele>-4.0</ele><time>2026-03-28T11:29:13.999Z</time></trkpt><trkpt lat="44.86446476350048" lon="12.123038814938543"><ele>-3.9999999999999996</ele><time>2026-03-28T11:29:15.999Z</time></trkpt><trkpt lat="44.8644525886246" lon="12.123164745441441"><ele>-4.0</ele><time>2026-03-28T11:29:17.999Z</time></trkpt><trkpt lat="44.864439618620196" lon="12.123272555599426"><ele>-4.333333333333333</ele><time>2026-03-28T11:29:19.999Z</time></trkpt><trkpt lat="44.86443115352243" lon="12.123382732928157"><ele>-4.666666666666666</ele><time>2026-03-28T11:29:21.999Z</time></trkpt><trkpt lat="44.864422173786025" lon="12.123492672110672"><ele>-5.0</ele><time>2026-03-28T11:29:23.999Z</time></trkpt><trkpt lat="44.864414644992905" lon="12.123597312279099"><ele>-5.333333333333333</ele><time>2026-03-28T11:29:25.999Z</time></trkpt><trkpt lat="44.864399173310424" lon="12.123698619305836"><ele>-5.666666666666667</ele><time>2026-03-28T11:29:27.999Z</time></trkpt><trkpt lat="44.86438628745564" lon="12.123817763969015"><ele>-6.0</ele><time>2026-03-28T11:29:30Z</time></trkpt><trkpt lat="44.86437802158602" lon="12.123938229150657"><ele>-6.0</ele><time>2026-03-28T11:29:32Z</time></trkpt><trkpt lat="44.86436130216566" lon="12.124045352064902"><ele>-6.0</ele><time>2026-03-28T11:29:34Z</time></trkpt><trkpt lat="44.86435713262012" lon="12.124149183083295"><ele>-6.0</ele><time>2026-03-28T11:29:36Z</time></trkpt><trkpt lat="44.86433984726103" lon="12.12426764796556"><ele>-6.0</ele><time>2026-03-28T11:29:38Z</time></trkpt><trkpt lat="44.86433212647801" lon="12.12439796257559"><ele>-6.0</ele><time>2026-03-28T11:29:40Z</time></trkpt><trkpt lat="44.864323443273896" lon="12.124527246770619"><ele>-6.0</ele><time>2026-03-28T11:29:42Z</time></trkpt><trkpt lat="44.86431521728009" lon="12.12465242305976"><ele>-6.0</ele><time>2026-03-28T11:29:44Z</time></trkpt><trkpt lat="44.86429745696048" lon="12.124764702282858"><ele>-6.0</ele><time>2026-03-28T11:29:46Z</time></trkpt><trkpt lat="44.86428494075343" lon="12.124866560895061"><ele>-6.0</ele><time>2026-03-28T11:29:48Z</time></trkpt><trkpt lat="44.86427274862502" lon="12.12497395695096"><ele>-6.0</ele><time>2026-03-28T11:29:50Z</time></trkpt><trkpt lat="44.86426354338971" lon="12.12509967606312"><ele>-6.0</ele><time>2026-03-28T11:29:52Z</time></trkpt><trkpt lat="44.864255913730084" lon="12.125215611117461"><ele>-6.0</ele><time>2026-03-28T11:29:54Z</time></trkpt><trkpt lat="44.86424130010792" lon="12.125319392326853"><ele>-6.0</ele><time>2026-03-28T11:29:56Z</time></trkpt><trkpt lat="44.86423914855434" lon="12.125414140122018"><ele>-6.0</ele><time>2026-03-28T11:29:58Z</time></trkpt><trkpt lat="44.864231163693304" lon="12.125512801531064"><ele>-6.0</ele><time>2026-03-28T11:30:00Z</time></trkpt><trkpt lat="44.86421354213654" lon="12.125633394234557"><ele>-6.0</ele><time>2026-03-28T11:30:02Z</time></trkpt><trkpt lat="44.8641966032513" lon="12.12575894763106"><ele>-6.0</ele><time>2026-03-28T11:30:04Z</time></trkpt><trkpt lat="44.86417653757173" lon="12.125883999569016"><ele>-6.0</ele><time>2026-03-28T11:30:06Z</time></trkpt><trkpt lat="44.864172477221075" lon="12.12600739842919"><ele>-6.0</ele><time>2026-03-28T11:30:08Z</time></trkpt><trkpt lat="44.86415737545706" lon="12.126127602548612"><ele>-6.0</ele><time>2026-03-28T11:30:10Z</time></trkpt><trkpt lat="44.86414631287185" lon="12.126240272193794"><ele>-6.0</ele><time>2026-03-28T11:30:12Z</time></trkpt><trkpt lat="44.86413413549231" lon="12.126351383188421"><ele>-6.0</ele><time>2026-03-28T11:30:14Z</time></trkpt><trkpt lat="44.864122017768054" lon="12.126479724230183"><ele>-6.0</ele><time>2026-03-28T11:30:16Z</time></trkpt><trkpt lat="44.86409344635505" lon="12.126605828264513"><ele>-6.0</ele><time>2026-03-28T11:30:18Z</time></trkpt><trkpt lat="44.86408492900703" lon="12.126733710873037"><ele>-6.4</ele><time>2026-03-28T11:30:20Z</time></trkpt><trkpt lat="44.86407302130962" lon="12.12686206795889"><ele>-6.8</ele><time>2026-03-28T11:30:22Z</time></trkpt><trkpt lat="44.864057800485355" lon="12.126988552121285"><ele>-7.200000000000001</ele><time>2026-03-28T11:30:24Z</time></trkpt><trkpt lat="44.864047629995966" lon="12.127116976191271"><ele>-7.6000000000000005</ele><time>2026-03-28T11:30:26Z</time></trkpt><trkpt lat="44.86403067401473" lon="12.127244331065278"><ele>-8.0</ele><time>2026-03-28T11:30:28Z</time></trkpt><trkpt lat="44.86401070025486" lon="12.127370831245946"><ele>-7.833333333333333</ele><time>2026-03-28T11:30:29.999Z</time></trkpt><trkpt lat="44.86400337883969" lon="12.127499898668999"><ele>-7.666666666666666</ele><time>2026-03-28T11:30:31.999Z</time></trkpt><trkpt lat="44.863990478003316" lon="12.127620425784245"><ele>-7.5</ele><time>2026-03-28T11:30:33.999Z</time></trkpt><trkpt lat="44.863979493940136" lon="12.127733261827796"><ele>-7.333333333333334</ele><time>2026-03-28T11:30:35.999Z</time></trkpt><trkpt lat="44.86397003927362" lon="12.127852753601259"><ele>-7.166666666666667</ele><time>2026-03-28T11:30:37.999Z</time></trkpt><trkpt lat="44.863956441829295" lon="12.127963874146385"><ele>-7.0</ele><time>2026-03-28T11:30:39.999Z</time></trkpt><trkpt lat="44.863957934982515" lon="12.128071974951382"><ele>-7.000000000000001</ele><time>2026-03-28T11:30:41.999Z</time></trkpt><trkpt lat="44.8639338841026" lon="12.128187798812508"><ele>-7.0</ele><time>2026-03-28T11:30:43.999Z</time></trkpt><trkpt lat="44.86392876319296" lon="12.128301268425076"><ele>-7.0</ele><time>2026-03-28T11:30:45.999Z</time></trkpt><trkpt lat="44.863919686127595" lon="12.128401638633886"><ele>-7.0</ele><time>2026-03-28T11:30:47.999Z</time></trkpt><trkpt lat="44.86390767047415" lon="12.128512884609838"><ele>-7.000000000000001</ele><time>2026-03-28T11:30:49.999Z</time></trkpt><trkpt lat="44.86389186861852" lon="12.128634738759713"><ele>-7.0</ele><time>2026-03-28T11:30:51.999Z</time></trkpt><trkpt lat="44.863884872923215" lon="12.128758806577485"><ele>-6.500000000000001</ele><time>2026-03-28T11:30:53.999Z</time></trkpt><trkpt lat="44.86386557385841" lon="12.128885317420737"><ele>-6.0</ele><time>2026-03-28T11:30:55.999Z</time></trkpt><trkpt lat="44.86385350468969" lon="12.129007775427105"><ele>-5.5</ele><time>2026-03-28T11:30:57.999Z</time></trkpt><trkpt lat="44.86383681924728" lon="12.129124519950713"><ele>-5.0</ele><time>2026-03-28T11:30:59.999Z</time></trkpt><trkpt lat="44.86381684182175" lon="12.1292410985475"><ele>-4.5</ele><time>2026-03-28T11:31:01.999Z</time></trkpt><trkpt lat="44.86380173570894" lon="12.129362363347175"><ele>-4.0</ele><time>2026-03-28T11:31:03.999Z</time></trkpt><trkpt lat="44.86379885408079" lon="12.129479559719027"><ele>-3.833333333333333</ele><time>2026-03-28T11:31:05.999Z</time></trkpt><trkpt lat="44.86380424667017" lon="12.129580498191444"><ele>-3.6666666666666665</ele><time>2026-03-28T11:31:07.999Z</time></trkpt><trkpt lat="44.86382271996095" lon="12.129691999888658"><ele>-3.5</ele><time>2026-03-28T11:31:09.999Z</time></trkpt><trkpt lat="44.8638512559036" lon="12.129809702921623"><ele>-3.333333333333333</ele><time>2026-03-28T11:31:11.999Z</time></trkpt><trkpt lat="44.86390600105132" lon="12.129904601691852"><ele>-3.1666666666666665</ele><time>2026-03-28T11:31:13.999Z</time></trkpt><trkpt lat="44.863958594675836" lon="12.129978522410937"><ele>-3.0</ele><time>2026-03-28T11:31:15.999Z</time></trkpt><trkpt lat="44.86400870536619" lon="12.130076759326645"><ele>-3.3333333333333335</ele><time>2026-03-28T11:31:18.999Z</time></trkpt><trkpt lat="44.86405307772364" lon="12.130154123676554"><ele>-3.666666666666667</ele><time>2026-03-28T11:31:20.999Z</time></trkpt><trkpt lat="44.86405600778284" lon="12.130272215128626"><ele>-4.0</ele><time>2026-03-28T11:31:23.999Z</time></trkpt><trkpt lat="44.864008727974834" lon="12.130353216717413"><ele>-4.333333333333334</ele><time>2026-03-28T11:31:25.999Z</time></trkpt><trkpt lat="44.863962316293296" lon="12.130418127177713"><ele>-4.666666666666667</ele><time>2026-03-28T11:31:27.999Z</time></trkpt><trkpt lat="44.86390607570118" lon="12.130521999036825"><ele>-5.0</ele><time>2026-03-28T11:31:30.999Z</time></trkpt><trkpt lat="44.86385364628755" lon="12.130597317221579"><ele>-5.0</ele><time>2026-03-28T11:31:32.999Z</time></trkpt><trkpt lat="44.86380864400175" lon="12.130687485679386"><ele>-5.0</ele><time>2026-03-28T11:31:35Z</time></trkpt><trkpt lat="44.86375106202425" lon="12.130781643176846"><ele>-5.0</ele><time>2026-03-28T11:31:37Z</time></trkpt><trkpt lat="44.86368645986914" lon="12.130883867937264"><ele>-5.0</ele><time>2026-03-28T11:31:39Z</time></trkpt><trkpt lat="44.863620465466774" lon="12.131015071030564"><ele>-5.0</ele><time>2026-03-28T11:31:41Z</time></trkpt><trkpt lat="44.86357011049388" lon="12.131172011737384"><ele>-5.25</ele><time>2026-03-28T11:31:43Z</time></trkpt><trkpt lat="44.86353583772553" lon="12.131340788895072"><ele>-5.5</ele><time>2026-03-28T11:31:45Z</time></trkpt><trkpt lat="44.86351996984402" lon="12.131516866464821"><ele>-5.75</ele><time>2026-03-28T11:31:47Z</time></trkpt><trkpt lat="44.86349873570778" lon="12.131679617988922"><ele>-6.0</ele><time>2026-03-28T11:31:49Z</time></trkpt><trkpt lat="44.863478090635304" lon="12.131838206477369"><ele>-5.8</ele><time>2026-03-28T11:31:51Z</time></trkpt><trkpt lat="44.86346378135179" lon="12.131990331815377"><ele>-5.6</ele><time>2026-03-28T11:31:53Z</time></trkpt><trkpt lat="44.863449413394115" lon="12.132133634040995"><ele>-5.4</ele><time>2026-03-28T11:31:55Z</time></trkpt><trkpt lat="44.86343456238047" lon="12.13227727036009"><ele>-5.2</ele><time>2026-03-28T11:31:57Z</time></trkpt><trkpt lat="44.863424582820876" lon="12.132415564234147"><ele>-5.0</ele><time>2026-03-28T11:31:59Z</time></trkpt><trkpt lat="44.86340371019891" lon="12.13254565995809"><ele>-5.333333333333334</ele><time>2026-03-28T11:32:01Z</time></trkpt><trkpt lat="44.86339706097096" lon="12.132669296925226"><ele>-5.666666666666667</ele><time>2026-03-28T11:32:03Z</time></trkpt><trkpt lat="44.863379496419846" lon="12.132790653759965"><ele>-6.0</ele><time>2026-03-28T11:32:05Z</time></trkpt><trkpt lat="44.86336344711795" lon="12.132910072763103"><ele>-6.333333333333334</ele><time>2026-03-28T11:32:07Z</time></trkpt><trkpt lat="44.86335093443417" lon="12.133033323297617"><ele>-6.666666666666667</ele><time>2026-03-28T11:32:09Z</time></trkpt><trkpt lat="44.86333332277243" lon="12.133163405796791"><ele>-7.0</ele><time>2026-03-28T11:32:11Z</time></trkpt><trkpt lat="44.86332143507246" lon="12.133296311077375"><ele>-7.166666666666667</ele><time>2026-03-28T11:32:13Z</time></trkpt><trkpt lat="44.863311897898015" lon="12.13342760685107"><ele>-7.333333333333334</ele><time>2026-03-28T11:32:15Z</time></trkpt><trkpt lat="44.863295314305795" lon="12.13355327014339"><ele>-7.5</ele><time>2026-03-28T11:32:17Z</time></trkpt><trkpt lat="44.86328138096839" lon="12.133672776832222"><ele>-7.666666666666666</ele><time>2026-03-28T11:32:19Z</time></trkpt><trkpt lat="44.86327301764347" lon="12.133788777762847"><ele>-7.833333333333333</ele><time>2026-03-28T11:32:21Z</time></trkpt><trkpt lat="44.863261585036255" lon="12.13389716734209"><ele>-8.0</ele><time>2026-03-28T11:32:23Z</time></trkpt><trkpt lat="44.863249482008" lon="12.13400167297495"><ele>-7.666666666666666</ele><time>2026-03-28T11:32:25Z</time></trkpt><trkpt lat="44.86323365614043" lon="12.134105343806734"><ele>-7.333333333333333</ele><time>2026-03-28T11:32:27Z</time></trkpt><trkpt lat="44.863215372070016" lon="12.13422766164885"><ele>-7.0</ele><time>2026-03-28T11:32:29Z</time></trkpt><trkpt lat="44.86320475317277" lon="12.134358094194184"><ele>-6.666666666666666</ele><time>2026-03-28T11:32:31Z</time></trkpt><trkpt lat="44.86319036165675" lon="12.1344874211913"><ele>-6.333333333333333</ele><time>2026-03-28T11:32:33Z</time></trkpt><trkpt lat="44.863177340941945" lon="12.134619906904023"><ele>-6.0</ele><time>2026-03-28T11:32:35Z</time></trkpt><trkpt lat="44.86316423252789" lon="12.134748617811836"><ele>-6.0</ele><time>2026-03-28T11:32:37Z</time></trkpt><trkpt lat="44.86315342537905" lon="12.134872968107748"><ele>-6.0</ele><time>2026-03-28T11:32:39Z</time></trkpt><trkpt lat="44.863140718691795" lon="12.134986826601773"><ele>-6.0</ele><time>2026-03-28T11:32:41Z</time></trkpt><trkpt lat="44.863126430113546" lon="12.135105839044844"><ele>-6.0</ele><time>2026-03-28T11:32:43Z</time></trkpt><trkpt lat="44.863114162190996" lon="12.135233694328775"><ele>-6.0</ele><time>2026-03-28T11:32:45Z</time></trkpt><trkpt lat="44.863100618029286" lon="12.135359690756385"><ele>-6.0</ele><time>2026-03-28T11:32:47Z</time></trkpt><trkpt lat="44.86308386533436" lon="12.135487576272132"><ele>-6.0</ele><time>2026-03-28T11:32:49Z</time></trkpt><trkpt lat="44.86307103301431" lon="12.135617862102913"><ele>-6.0</ele><time>2026-03-28T11:32:50.999Z</time></trkpt><trkpt lat="44.863056650760264" lon="12.135747010174592"><ele>-6.0</ele><time>2026-03-28T11:32:52.999Z</time></trkpt><trkpt lat="44.863038277263946" lon="12.135879441556396"><ele>-6.0</ele><time>2026-03-28T11:32:54.999Z</time></trkpt><trkpt lat="44.863026518846084" lon="12.136009446055303"><ele>-6.0</ele><time>2026-03-28T11:32:56.999Z</time></trkpt><trkpt lat="44.86301071953201" lon="12.136139349138285"><ele>-5.8</ele><time>2026-03-28T11:32:58.999Z</time></trkpt><trkpt lat="44.862997970011506" lon="12.136269850629583"><ele>-5.6</ele><time>2026-03-28T11:33:00.999Z</time></trkpt><trkpt lat="44.86298268651822" lon="12.136402420262371"><ele>-5.4</ele><time>2026-03-28T11:33:02.999Z</time></trkpt><trkpt lat="44.862967528740135" lon="12.136531592243937"><ele>-5.2</ele><time>2026-03-28T11:33:04.999Z</time></trkpt><trkpt lat="44.86295712454272" lon="12.13666696873851"><ele>-5.0</ele><time>2026-03-28T11:33:06.999Z</time></trkpt><trkpt lat="44.862940479664026" lon="12.1367968832206"><ele>-5.166666666666667</ele><time>2026-03-28T11:33:08.999Z</time></trkpt><trkpt lat="44.862925539889446" lon="12.136927309879033"><ele>-5.333333333333334</ele><time>2026-03-28T11:33:10.999Z</time></trkpt><trkpt lat="44.86291679657852" lon="12.13705203756268"><ele>-5.5</ele><time>2026-03-28T11:33:12.999Z</time></trkpt><trkpt lat="44.86290405466454" lon="12.137174539418528"><ele>-5.666666666666667</ele><time>2026-03-28T11:33:14.999Z</time></trkpt><trkpt lat="44.86288827093907" lon="12.13729539950271"><ele>-5.833333333333333</ele><time>2026-03-28T11:33:16.999Z</time></trkpt><trkpt lat="44.8628731089991" lon="12.137419064231654"><ele>-6.0</ele><time>2026-03-28T11:33:18.999Z</time></trkpt><trkpt lat="44.86286109354039" lon="12.137541685266209"><ele>-6.0</ele><time>2026-03-28T11:33:20.999Z</time></trkpt><trkpt lat="44.862849484574156" lon="12.137666202364981"><ele>-6.0</ele><time>2026-03-28T11:33:22.999Z</time></trkpt><trkpt lat="44.862841683060545" lon="12.137787631341135"><ele>-6.0</ele><time>2026-03-28T11:33:24.999Z</time></trkpt><trkpt lat="44.86282522336812" lon="12.137906566825446"><ele>-6.0</ele><time>2026-03-28T11:33:26.999Z</time></trkpt><trkpt lat="44.86281528552455" lon="12.138022193948414"><ele>-6.0</ele><time>2026-03-28T11:33:28.999Z</time></trkpt><trkpt lat="44.86279549436356" lon="12.13813363341454"><ele>-6.0</ele><time>2026-03-28T11:33:30.999Z</time></trkpt><trkpt lat="44.86279550453144" lon="12.138245389424759"><ele>-6.0</ele><time>2026-03-28T11:33:32.999Z</time></trkpt><trkpt lat="44.862784688581186" lon="12.138350200245837"><ele>-6.0</ele><time>2026-03-28T11:33:34.999Z</time></trkpt><trkpt lat="44.86276883374298" lon="12.138451031106888"><ele>-6.0</ele><time>2026-03-28T11:33:36.999Z</time></trkpt><trkpt lat="44.86275700322396" lon="12.138558703706558"><ele>-6.0</ele><time>2026-03-28T11:33:38.999Z</time></trkpt><trkpt lat="44.862744121231806" lon="12.138666724615868"><ele>-6.0</ele><time>2026-03-28T11:33:41Z</time></trkpt><trkpt lat="44.862733438752464" lon="12.138776141953578"><ele>-6.0</ele><time>2026-03-28T11:33:43Z</time></trkpt><trkpt lat="44.862730541771505" lon="12.138889192042765"><ele>-6.0</ele><time>2026-03-28T11:33:45Z</time></trkpt><trkpt lat="44.86271862891604" lon="12.138994568022834"><ele>-6.0</ele><time>2026-03-28T11:33:47Z</time></trkpt><trkpt lat="44.862708840003386" lon="12.139103642837828"><ele>-6.0</ele><time>2026-03-28T11:33:49Z</time></trkpt><trkpt lat="44.86269231777678" lon="12.139212668727374"><ele>-6.0</ele><time>2026-03-28T11:33:51Z</time></trkpt><trkpt lat="44.86267491890257" lon="12.139331943923713"><ele>-6.0</ele><time>2026-03-28T11:33:53Z</time></trkpt><trkpt lat="44.86266304033633" lon="12.139455263862182"><ele>-6.0</ele><time>2026-03-28T11:33:55Z</time></trkpt><trkpt lat="44.862646937791936" lon="12.139581291158052"><ele>-6.0</ele><time>2026-03-28T11:33:57Z</time></trkpt><trkpt lat="44.86264022111638" lon="12.139705045622069"><ele>-6.0</ele><time>2026-03-28T11:33:59Z</time></trkpt><trkpt lat="44.86261910682681" lon="12.139824003341605"><ele>-6.0</ele><time>2026-03-28T11:34:01Z</time></trkpt><trkpt lat="44.86260302469824" lon="12.139951972549738"><ele>-6.0</ele><time>2026-03-28T11:34:03Z</time></trkpt><trkpt lat="44.862589532382465" lon="12.14008038244446"><ele>-6.0</ele><time>2026-03-28T11:34:05Z</time></trkpt><trkpt lat="44.86258338327256" lon="12.140205464226884"><ele>-6.0</ele><time>2026-03-28T11:34:07Z</time></trkpt><trkpt lat="44.862576276867095" lon="12.140322469604438"><ele>-6.0</ele><time>2026-03-28T11:34:09Z</time></trkpt><trkpt lat="44.862551658553876" lon="12.140440553428292"><ele>-6.0</ele><time>2026-03-28T11:34:11Z</time></trkpt><trkpt lat="44.862535775397845" lon="12.140564134505476"><ele>-6.0</ele><time>2026-03-28T11:34:13Z</time></trkpt><trkpt lat="44.86252137407374" lon="12.140695364480036"><ele>-6.0</ele><time>2026-03-28T11:34:15Z</time></trkpt><trkpt lat="44.86251253783815" lon="12.140820836190176"><ele>-6.0</ele><time>2026-03-28T11:34:17Z</time></trkpt><trkpt lat="44.86249389836583" lon="12.140946876284946"><ele>-6.0</ele><time>2026-03-28T11:34:19Z</time></trkpt><trkpt lat="44.86247757682922" lon="12.141074548719928"><ele>-6.0</ele><time>2026-03-28T11:34:21Z</time></trkpt><trkpt lat="44.86246471854676" lon="12.14120250621641"><ele>-6.0</ele><time>2026-03-28T11:34:23Z</time></trkpt><trkpt lat="44.86246038365348" lon="12.141322372634278"><ele>-6.0</ele><time>2026-03-28T11:34:25Z</time></trkpt><trkpt lat="44.86245213228203" lon="12.141437803389762"><ele>-6.0</ele><time>2026-03-28T11:34:27Z</time></trkpt><trkpt lat="44.862441754855254" lon="12.141546975307644"><ele>-6.0</ele><time>2026-03-28T11:34:29Z</time></trkpt><trkpt lat="44.86242719592337" lon="12.141644815898655"><ele>-6.0</ele><time>2026-03-28T11:34:31Z</time></trkpt><trkpt lat="44.862411233783035" lon="12.14174168200935"><ele>-6.0</ele><time>2026-03-28T11:34:33Z</time></trkpt><trkpt lat="44.86240163011986" lon="12.141854572532047"><ele>-6.0</ele><time>2026-03-28T11:34:35Z</time></trkpt><trkpt lat="44.862390626023796" lon="12.14196733956086"><ele>-6.0</ele><time>2026-03-28T11:34:37Z</time></trkpt><trkpt lat="44.862378150009114" lon="12.142078080390933"><ele>-6.0</ele><time>2026-03-28T11:34:39Z</time></trkpt><trkpt lat="44.862360895125576" lon="12.142201401838038"><ele>-6.0</ele><time>2026-03-28T11:34:41Z</time></trkpt><trkpt lat="44.86235129723983" lon="12.142326484990637"><ele>-6.199999999999999</ele><time>2026-03-28T11:34:43Z</time></trkpt><trkpt lat="44.862335486603726" lon="12.142450995191368"><ele>-6.3999999999999995</ele><time>2026-03-28T11:34:45Z</time></trkpt><trkpt lat="44.86232005372664" lon="12.142579137052895"><ele>-6.6</ele><time>2026-03-28T11:34:47Z</time></trkpt><trkpt lat="44.86230719318354" lon="12.142707500202757"><ele>-6.8</ele><time>2026-03-28T11:34:49Z</time></trkpt><trkpt lat="44.86228624210471" lon="12.142834803425464"><ele>-7.0</ele><time>2026-03-28T11:34:51Z</time></trkpt><trkpt lat="44.862280055115626" lon="12.142965697208298"><ele>-7.000000000000001</ele><time>2026-03-28T11:34:53Z</time></trkpt><trkpt lat="44.86226528343443" lon="12.143094177774817"><ele>-7.0</ele><time>2026-03-28T11:34:55Z</time></trkpt><trkpt lat="44.86225027952247" lon="12.1432177716832"><ele>-7.0</ele><time>2026-03-28T11:34:57Z</time></trkpt><trkpt lat="44.862247124207656" lon="12.143343184191098"><ele>-7.0</ele><time>2026-03-28T11:34:59Z</time></trkpt><trkpt lat="44.86222874121246" lon="12.14345699508567"><ele>-7.000000000000001</ele><time>2026-03-28T11:35:01Z</time></trkpt><trkpt lat="44.8622111410454" lon="12.143575165183377"><ele>-7.0</ele><time>2026-03-28T11:35:03Z</time></trkpt><trkpt lat="44.862201630552796" lon="12.143698373956392"><ele>-6.857142857142857</ele><time>2026-03-28T11:35:05Z</time></trkpt><trkpt lat="44.86218814249317" lon="12.143811181799752"><ele>-6.714285714285714</ele><time>2026-03-28T11:35:07Z</time></trkpt><trkpt lat="44.862174832346035" lon="12.143914157311313"><ele>-6.571428571428571</ele><time>2026-03-28T11:35:09Z</time></trkpt><trkpt lat="44.86217091539589" lon="12.14401596994748"><ele>-6.428571428571429</ele><time>2026-03-28T11:35:10.999Z</time></trkpt><trkpt lat="44.86216349537425" lon="12.144119325982107"><ele>-6.285714285714286</ele><time>2026-03-28T11:35:12.999Z</time></trkpt><trkpt lat="44.86215087820998" lon="12.144225643351017"><ele>-6.142857142857142</ele><time>2026-03-28T11:35:14.999Z</time></trkpt><trkpt lat="44.862134842215646" lon="12.14432181041029"><ele>-6.0</ele><time>2026-03-28T11:35:16.999Z</time></trkpt><trkpt lat="44.86212372961235" lon="12.144434935469521"><ele>-5.833333333333333</ele><time>2026-03-28T11:35:18.999Z</time></trkpt><trkpt lat="44.86210050430773" lon="12.144553622056588"><ele>-5.666666666666667</ele><time>2026-03-28T11:35:20.999Z</time></trkpt><trkpt lat="44.86209778965438" lon="12.144664841280122"><ele>-5.5</ele><time>2026-03-28T11:35:22.999Z</time></trkpt><trkpt lat="44.86208436379326" lon="12.14476203913242"><ele>-5.333333333333334</ele><time>2026-03-28T11:35:24.999Z</time></trkpt><trkpt lat="44.86206185525339" lon="12.144863378141807"><ele>-5.166666666666667</ele><time>2026-03-28T11:35:26.999Z</time></trkpt><trkpt lat="44.86205455869495" lon="12.144959501240818"><ele>-5.0</ele><time>2026-03-28T11:35:28.999Z</time></trkpt><trkpt lat="44.86204936099851" lon="12.145088929632605"><ele>-4.5</ele><time>2026-03-28T11:35:31.999Z</time></trkpt><trkpt lat="44.8620225725477" lon="12.145212949020058"><ele>-4.0</ele><time>2026-03-28T11:35:34.999Z</time></trkpt><trkpt lat="44.8620150751938" lon="12.145324116069741"><ele>-3.5</ele><time>2026-03-28T11:35:36.999Z</time></trkpt><trkpt lat="44.86200365400822" lon="12.145423962219306"><ele>-3.0</ele><time>2026-03-28T11:35:38.999Z</time></trkpt><trkpt lat="44.861998987409756" lon="12.145520729131984"><ele>-2.5</ele><time>2026-03-28T11:35:40.999Z</time></trkpt><trkpt lat="44.86199304030598" lon="12.145612826988097"><ele>-2.0</ele><time>2026-03-28T11:35:42.999Z</time></trkpt><trkpt lat="44.86197316409536" lon="12.145720358668768"><ele>-1.9999999999999998</ele><time>2026-03-28T11:35:44.999Z</time></trkpt><trkpt lat="44.86195999738619" lon="12.145847357578102"><ele>-2.0</ele><time>2026-03-28T11:35:47Z</time></trkpt><trkpt lat="44.86195432623976" lon="12.145979147679475"><ele>-2.0</ele><time>2026-03-28T11:35:49Z</time></trkpt><trkpt lat="44.86194617203762" lon="12.146103015675923"><ele>-2.0</ele><time>2026-03-28T11:35:51Z</time></trkpt><trkpt lat="44.86193557213265" lon="12.146219659633823"><ele>-1.9999999999999998</ele><time>2026-03-28T11:35:53Z</time></trkpt><trkpt lat="44.86192874051016" lon="12.146331394819715"><ele>-2.0</ele><time>2026-03-28T11:35:55Z</time></trkpt><trkpt lat="44.86192842475551" lon="12.146440210372015"><ele>-1.9999999999999998</ele><time>2026-03-28T11:35:57Z</time></trkpt><trkpt lat="44.861915440215554" lon="12.146539520211357"><ele>-2.0</ele><time>2026-03-28T11:35:59Z</time></trkpt><trkpt lat="44.86189981024822" lon="12.146638176751951"><ele>-2.0</ele><time>2026-03-28T11:36:01Z</time></trkpt><trkpt lat="44.86189571957843" lon="12.14675138648205"><ele>-2.0</ele><time>2026-03-28T11:36:03Z</time></trkpt><trkpt lat="44.86187912517479" lon="12.1468605497727"><ele>-1.9999999999999998</ele><time>2026-03-28T11:36:05Z</time></trkpt><trkpt lat="44.861878284784304" lon="12.146961300265907"><ele>-2.0</ele><time>2026-03-28T11:36:07Z</time></trkpt><trkpt lat="44.8618558118321" lon="12.14709015266976"><ele>-2.0</ele><time>2026-03-28T11:36:10Z</time></trkpt><trkpt lat="44.86184760004746" lon="12.147192352614702"><ele>-1.9999999999999998</ele><time>2026-03-28T11:36:12Z</time></trkpt><trkpt lat="44.86184607569918" lon="12.147294452430103"><ele>-2.0</ele><time>2026-03-28T11:36:14Z</time></trkpt><trkpt lat="44.861834393350904" lon="12.147381967928524"><ele>-2.0</ele><time>2026-03-28T11:36:16Z</time></trkpt><trkpt lat="44.861819440194104" lon="12.147475593526929"><ele>-1.9999999999999998</ele><time>2026-03-28T11:36:18Z</time></trkpt><trkpt lat="44.861811853308105" lon="12.14757970484721"><ele>-2.0</ele><time>2026-03-28T11:36:20Z</time></trkpt><trkpt lat="44.86180423464904" lon="12.147670324665166"><ele>-2.0</ele><time>2026-03-28T11:36:22Z</time></trkpt><trkpt lat="44.86179235351341" lon="12.147788953374382"><ele>-1.9999999999999998</ele><time>2026-03-28T11:36:25Z</time></trkpt><trkpt lat="44.86178373048085" lon="12.147897587186248"><ele>-2.0</ele><time>2026-03-28T11:36:28Z</time></trkpt><trkpt lat="44.86176816967403" lon="12.147997393396638"><ele>-2.0</ele><time>2026-03-28T11:36:30Z</time></trkpt><trkpt lat="44.861757022271156" lon="12.148109051128516"><ele>-2.0</ele><time>2026-03-28T11:36:32Z</time></trkpt><trkpt lat="44.861751143259056" lon="12.148205999318884"><ele>-1.9999999999999998</ele><time>2026-03-28T11:36:34Z</time></trkpt><trkpt lat="44.86172955315863" lon="12.148335464601812"><ele>-2.0</ele><time>2026-03-28T11:36:37Z</time></trkpt><trkpt lat="44.86171590451645" lon="12.148453364082199"><ele>-1.9999999999999998</ele><time>2026-03-28T11:36:40Z</time></trkpt><trkpt lat="44.86170258788556" lon="12.148542629952061"><ele>-2.0</ele><time>2026-03-28T11:36:42Z</time></trkpt><trkpt lat="44.86170001778708" lon="12.1486459846735"><ele>-2.0</ele><time>2026-03-28T11:36:44Z</time></trkpt><trkpt lat="44.86168610451558" lon="12.148739775489023"><ele>-2.0</ele><time>2026-03-28T11:36:46Z</time></trkpt><trkpt lat="44.86167956800439" lon="12.14887117791535"><ele>-1.9999999999999998</ele><time>2026-03-28T11:36:49Z</time></trkpt><trkpt lat="44.86167002042335" lon="12.148987686240707"><ele>-2.0</ele><time>2026-03-28T11:36:52Z</time></trkpt><trkpt lat="44.86166745457864" lon="12.149085781576131"><ele>-1.6666666666666665</ele><time>2026-03-28T11:36:55Z</time></trkpt><trkpt lat="44.86164957937264" lon="12.14917876844042"><ele>-1.3333333333333333</ele><time>2026-03-28T11:37:08.999Z</time></trkpt><trkpt lat="44.861649234996634" lon="12.149273012312579"><ele>-1.0</ele><time>2026-03-28T11:37:11.999Z</time></trkpt><trkpt lat="44.861629490733165" lon="12.149377215752681"><ele>-0.6666666666666666</ele><time>2026-03-28T11:37:13.999Z</time></trkpt><trkpt lat="44.86160983823091" lon="12.149472830959871"><ele>-0.3333333333333333</ele><time>2026-03-28T11:37:15.999Z</time></trkpt><trkpt lat="44.861594552232006" lon="12.14959421433845"><ele>0.0</ele><time>2026-03-28T11:37:17.999Z</time></trkpt><trkpt lat="44.86158835652718" lon="12.149728495707999"><ele>0.0</ele><time>2026-03-28T11:37:19.999Z</time></trkpt><trkpt lat="44.86158441435657" lon="12.149859747029675"><ele>0.0</ele><time>2026-03-28T11:37:21.999Z</time></trkpt><trkpt lat="44.861572918841134" lon="12.149986399214258"><ele>0.0</ele><time>2026-03-28T11:37:23.999Z</time></trkpt><trkpt lat="44.86155457659333" lon="12.150107538027436"><ele>0.0</ele><time>2026-03-28T11:37:25.999Z</time></trkpt><trkpt lat="44.8615445645486" lon="12.150228060691271"><ele>0.0</ele><time>2026-03-28T11:37:27.999Z</time></trkpt><trkpt lat="44.861526356371854" lon="12.150341040769781"><ele>0.0</ele><time>2026-03-28T11:37:29.999Z</time></trkpt><trkpt lat="44.86150535250165" lon="12.150462023475935"><ele>0.0</ele><time>2026-03-28T11:37:31.999Z</time></trkpt><trkpt lat="44.86148607348761" lon="12.150583002965309"><ele>0.0</ele><time>2026-03-28T11:37:33.999Z</time></trkpt><trkpt lat="44.86147116014518" lon="12.1507014319861"><ele>0.0</ele><time>2026-03-28T11:37:35.999Z</time></trkpt><trkpt lat="44.86145465721094" lon="12.150816368602928"><ele>0.0</ele><time>2026-03-28T11:37:37.999Z</time></trkpt><trkpt lat="44.86144769997499" lon="12.150930243807851"><ele>0.0</ele><time>2026-03-28T11:37:39.999Z</time></trkpt><trkpt lat="44.86144213003758" lon="12.151040124996971"><ele>0.0</ele><time>2026-03-28T11:37:41.999Z</time></trkpt><trkpt lat="44.86142042469684" lon="12.151138879678086"><ele>0.0</ele><time>2026-03-28T11:37:43.999Z</time></trkpt><trkpt lat="44.8614087700536" lon="12.151239724918476"><ele>0.0</ele><time>2026-03-28T11:37:45.999Z</time></trkpt><trkpt lat="44.861403060506795" lon="12.151337213972665"><ele>0.0</ele><time>2026-03-28T11:37:47.999Z</time></trkpt><trkpt lat="44.86139405262743" lon="12.151433278336054"><ele>0.0</ele><time>2026-03-28T11:37:49.999Z</time></trkpt><trkpt lat="44.861377079218904" lon="12.151521019221425"><ele>0.0</ele><time>2026-03-28T11:37:51.999Z</time></trkpt><trkpt lat="44.86136129888013" lon="12.151648364345228"><ele>0.0</ele><time>2026-03-28T11:37:55Z</time></trkpt><trkpt lat="44.86135442571803" lon="12.15176404275945"><ele>0.0</ele><time>2026-03-28T11:37:58Z</time></trkpt><trkpt lat="44.86134670291741" lon="12.151868322392653"><ele>0.0</ele><time>2026-03-28T11:38:01Z</time></trkpt><trkpt lat="44.86132501471696" lon="12.151967217605124"><ele>0.0</ele><time>2026-03-28T11:38:04Z</time></trkpt><trkpt lat="44.861315080756484" lon="12.152069017649387"><ele>0.0</ele><time>2026-03-28T11:38:07Z</time></trkpt><trkpt lat="44.86129684874494" lon="12.152175270893363"><ele>0.0</ele><time>2026-03-28T11:38:09Z</time></trkpt><trkpt lat="44.86128849515693" lon="12.152297605237056"><ele>0.0</ele><time>2026-03-28T11:38:11Z</time></trkpt><trkpt lat="44.86126956792881" lon="12.152407823970588"><ele>0.0</ele><time>2026-03-28T11:38:13Z</time></trkpt><trkpt lat="44.86125557274314" lon="12.152519918829578"><ele>0.0</ele><time>2026-03-28T11:38:15Z</time></trkpt><trkpt lat="44.86124622210018" lon="12.152622030971523"><ele>0.0</ele><time>2026-03-28T11:38:17Z</time></trkpt><trkpt lat="44.861233433622964" lon="12.152719173818817"><ele>0.0</ele><time>2026-03-28T11:38:19Z</time></trkpt><trkpt lat="44.86123043387221" lon="12.152809366154248"><ele>0.0</ele><time>2026-03-28T11:38:21Z</time></trkpt><trkpt lat="44.8612257707576" lon="12.152934936882641"><ele>0.0</ele><time>2026-03-28T11:38:24Z</time></trkpt><trkpt lat="44.86121650933692" lon="12.153035641587984"><ele>0.0</ele><time>2026-03-28T11:38:26Z</time></trkpt><trkpt lat="44.86120198297387" lon="12.15313334209452"><ele>0.0</ele><time>2026-03-28T11:38:28Z</time></trkpt><trkpt lat="44.86119450904654" lon="12.153224774325802"><ele>0.0</ele><time>2026-03-28T11:38:30Z</time></trkpt><trkpt lat="44.8611905940213" lon="12.153321607745893"><ele>0.0</ele><time>2026-03-28T11:38:32Z</time></trkpt><trkpt lat="44.86117780897036" lon="12.153426245845823"><ele>0.0</ele><time>2026-03-28T11:38:34Z</time></trkpt><trkpt lat="44.86116641285371" lon="12.153531550563889"><ele>0.0</ele><time>2026-03-28T11:38:36Z</time></trkpt><trkpt lat="44.86114628343074" lon="12.153633091035061"><ele>0.0</ele><time>2026-03-28T11:38:38Z</time></trkpt><trkpt lat="44.8611443790775" lon="12.153732129032324"><ele>0.0</ele><time>2026-03-28T11:38:40Z</time></trkpt><trkpt lat="44.86113035873131" lon="12.153840328316663"><ele>0.0</ele><time>2026-03-28T11:38:42Z</time></trkpt><trkpt lat="44.861106442299" lon="12.153942518470771"><ele>0.0</ele><time>2026-03-28T11:38:44Z</time></trkpt><trkpt lat="44.8610955632589" lon="12.15404854280937"><ele>0.0</ele><time>2026-03-28T11:38:46Z</time></trkpt><trkpt lat="44.861080376359396" lon="12.154147175481294"><ele>0.0</ele><time>2026-03-28T11:38:48Z</time></trkpt><trkpt lat="44.86106886144107" lon="12.154242367057352"><ele>0.0</ele><time>2026-03-28T11:38:50Z</time></trkpt><trkpt lat="44.861063727738106" lon="12.154370674775226"><ele>0.0</ele><time>2026-03-28T11:38:53Z</time></trkpt><trkpt lat="44.86104907365216" lon="12.154487961978782"><ele>0.0</ele><time>2026-03-28T11:38:56Z</time></trkpt><trkpt lat="44.86103252906307" lon="12.154587562232743"><ele>0.0</ele><time>2026-03-28T11:38:59Z</time></trkpt><trkpt lat="44.86105015121634" lon="12.154673593497504"><ele>0.0</ele><time>2026-03-28T11:42:36Z</time></trkpt><trkpt lat="44.86102026475747" lon="12.154772149238367"><ele>0.0</ele><time>2026-03-28T11:46:20Z</time></trkpt><trkpt lat="44.86099075069167" lon="12.154900992971212"><ele>0.0</ele><time>2026-03-28T11:46:24Z</time></trkpt><trkpt lat="44.86097166446335" lon="12.155012356397302"><ele>0.0</ele><time>2026-03-28T11:46:26Z</time></trkpt><trkpt lat="44.8609623764487" lon="12.155126001235457"><ele>0.0</ele><time>2026-03-28T11:46:28Z</time></trkpt><trkpt lat="44.860951259807" lon="12.15523746958594"><ele>-0.16666666666666666</ele><time>2026-03-28T11:46:30Z</time></trkpt><trkpt lat="44.860938006111176" lon="12.15536010988604"><ele>-0.3333333333333333</ele><time>2026-03-28T11:46:32Z</time></trkpt><trkpt lat="44.860920584014295" lon="12.155479236626451"><ele>-0.5</ele><time>2026-03-28T11:46:34Z</time></trkpt><trkpt lat="44.860908397909775" lon="12.155592937482636"><ele>-0.6666666666666666</ele><time>2026-03-28T11:46:36Z</time></trkpt><trkpt lat="44.860897826549625" lon="12.155706599797535"><ele>-0.8333333333333333</ele><time>2026-03-28T11:46:38Z</time></trkpt><trkpt lat="44.86088842547823" lon="12.155831269285645"><ele>-1.0</ele><time>2026-03-28T11:46:40Z</time></trkpt><trkpt lat="44.86086979954244" lon="12.155955516543633"><ele>-0.9999999999999999</ele><time>2026-03-28T11:46:42Z</time></trkpt><trkpt lat="44.86085979849865" lon="12.15608478323648"><ele>-1.0</ele><time>2026-03-28T11:46:44Z</time></trkpt><trkpt lat="44.86084794849488" lon="12.15620920749452"><ele>-1.0</ele><time>2026-03-28T11:46:46Z</time></trkpt><trkpt lat="44.8608315793564" lon="12.156331572088742"><ele>-1.0</ele><time>2026-03-28T11:46:48Z</time></trkpt><trkpt lat="44.860812962140734" lon="12.15644442282965"><ele>-0.9999999999999999</ele><time>2026-03-28T11:46:50Z</time></trkpt><trkpt lat="44.860795610227605" lon="12.156555571653147"><ele>-1.0</ele><time>2026-03-28T11:46:52Z</time></trkpt><trkpt lat="44.86077952218873" lon="12.156676008503279"><ele>-0.9999999999999999</ele><time>2026-03-28T11:46:54Z</time></trkpt><trkpt lat="44.860761738670874" lon="12.156796113902175"><ele>-1.0</ele><time>2026-03-28T11:46:56Z</time></trkpt><trkpt lat="44.860745965168235" lon="12.15691500968692"><ele>-1.0</ele><time>2026-03-28T11:46:58Z</time></trkpt><trkpt lat="44.86073229434458" lon="12.157032463856755"><ele>-1.0</ele><time>2026-03-28T11:47:00Z</time></trkpt><trkpt lat="44.8607169877256" lon="12.15715443830324"><ele>-0.9999999999999999</ele><time>2026-03-28T11:47:02Z</time></trkpt><trkpt lat="44.86070301612347" lon="12.157282061971268"><ele>-1.0</ele><time>2026-03-28T11:47:04Z</time></trkpt><trkpt lat="44.86068763734161" lon="12.157414047633802"><ele>-0.9999999999999999</ele><time>2026-03-28T11:47:06Z</time></trkpt><trkpt lat="44.86067470975" lon="12.157545076923821"><ele>-1.0</ele><time>2026-03-28T11:47:08Z</time></trkpt><trkpt lat="44.860660570060475" lon="12.157671418476195"><ele>-1.0</ele><time>2026-03-28T11:47:10Z</time></trkpt><trkpt lat="44.86064882148409" lon="12.157795157082784"><ele>-1.0</ele><time>2026-03-28T11:47:12Z</time></trkpt><trkpt lat="44.86063683192134" lon="12.157909149818135"><ele>-0.9999999999999999</ele><time>2026-03-28T11:47:14Z</time></trkpt><trkpt lat="44.86062578689962" lon="12.158020660829067"><ele>-1.0</ele><time>2026-03-28T11:47:16Z</time></trkpt><trkpt lat="44.8606139911427" lon="12.158142297161783"><ele>-1.2000000000000002</ele><time>2026-03-28T11:47:18Z</time></trkpt><trkpt lat="44.86060065980638" lon="12.158270461223967"><ele>-1.4000000000000001</ele><time>2026-03-28T11:47:20Z</time></trkpt><trkpt lat="44.86058571841119" lon="12.15839628877925"><ele>-1.6</ele><time>2026-03-28T11:47:22Z</time></trkpt><trkpt lat="44.860570273090325" lon="12.15852204328279"><ele>-1.8</ele><time>2026-03-28T11:47:24Z</time></trkpt><trkpt lat="44.86055234667019" lon="12.158650596718676"><ele>-2.0</ele><time>2026-03-28T11:47:26Z</time></trkpt><trkpt lat="44.86053614599001" lon="12.158777774233466"><ele>-1.9999999999999998</ele><time>2026-03-28T11:47:28Z</time></trkpt><trkpt lat="44.8605204810601" lon="12.158901760752281"><ele>-2.0</ele><time>2026-03-28T11:47:29.999Z</time></trkpt><trkpt lat="44.860499393654614" lon="12.159025781540967"><ele>-2.0</ele><time>2026-03-28T11:47:31.999Z</time></trkpt><trkpt lat="44.860483674136184" lon="12.159145525600634"><ele>-2.0</ele><time>2026-03-28T11:47:33.999Z</time></trkpt><trkpt lat="44.860469579784" lon="12.159263189782315"><ele>-1.9999999999999998</ele><time>2026-03-28T11:47:35.999Z</time></trkpt><trkpt lat="44.860458530053975" lon="12.159378291085043"><ele>-2.0</ele><time>2026-03-28T11:47:37.999Z</time></trkpt><trkpt lat="44.8604481892033" lon="12.159486296199097"><ele>-1.6666666666666665</ele><time>2026-03-28T11:47:39.999Z</time></trkpt><trkpt lat="44.8604370364168" lon="12.159591382601663"><ele>-1.3333333333333333</ele><time>2026-03-28T11:47:41.999Z</time></trkpt><trkpt lat="44.860428036105525" lon="12.159695035883889"><ele>-1.0</ele><time>2026-03-28T11:47:43.999Z</time></trkpt><trkpt lat="44.86041451545667" lon="12.15980854355709"><ele>-0.6666666666666666</ele><time>2026-03-28T11:47:45.999Z</time></trkpt><trkpt lat="44.86040311337154" lon="12.159932658560285"><ele>-0.3333333333333333</ele><time>2026-03-28T11:47:47.999Z</time></trkpt><trkpt lat="44.8603910373295" lon="12.160058414722302"><ele>0.0</ele><time>2026-03-28T11:47:49.999Z</time></trkpt><trkpt lat="44.860378276205" lon="12.16018424109322"><ele>0.0</ele><time>2026-03-28T11:47:51.999Z</time></trkpt><trkpt lat="44.860367624943294" lon="12.16030278446873"><ele>0.0</ele><time>2026-03-28T11:47:53.999Z</time></trkpt><trkpt lat="44.86035924954645" lon="12.160415851489812"><ele>0.0</ele><time>2026-03-28T11:47:55.999Z</time></trkpt><trkpt lat="44.86035292058013" lon="12.160529356096108"><ele>0.0</ele><time>2026-03-28T11:47:57.999Z</time></trkpt><trkpt lat="44.86033602885251" lon="12.160650083755943"><ele>0.0</ele><time>2026-03-28T11:47:59.999Z</time></trkpt><trkpt lat="44.8603198800973" lon="12.160776674679873"><ele>0.0</ele><time>2026-03-28T11:48:01.999Z</time></trkpt><trkpt lat="44.860303595841415" lon="12.160901939260313"><ele>-0.6</ele><time>2026-03-28T11:48:03.999Z</time></trkpt><trkpt lat="44.8602877973588" lon="12.161032910358703"><ele>-1.2</ele><time>2026-03-28T11:48:05.999Z</time></trkpt><trkpt lat="44.860270875685714" lon="12.16116739807362"><ele>-1.7999999999999998</ele><time>2026-03-28T11:48:07.999Z</time></trkpt><trkpt lat="44.86025487480919" lon="12.161302951819673"><ele>-2.4</ele><time>2026-03-28T11:48:09.999Z</time></trkpt><trkpt lat="44.86023678611058" lon="12.161430155537559"><ele>-3.0</ele><time>2026-03-28T11:48:11.999Z</time></trkpt><trkpt lat="44.86022277028106" lon="12.161555409327375"><ele>-3.0</ele><time>2026-03-28T11:48:13.999Z</time></trkpt><trkpt lat="44.860207173203854" lon="12.16168415148209"><ele>-3.0</ele><time>2026-03-28T11:48:15.999Z</time></trkpt><trkpt lat="44.86019276215479" lon="12.161809136037949"><ele>-3.0</ele><time>2026-03-28T11:48:17.999Z</time></trkpt><trkpt lat="44.86017979841561" lon="12.161937766489674"><ele>-3.0</ele><time>2026-03-28T11:48:19.999Z</time></trkpt><trkpt lat="44.86017057118626" lon="12.162057843356552"><ele>-3.0</ele><time>2026-03-28T11:48:21.999Z</time></trkpt><trkpt lat="44.86015536352366" lon="12.162173039153693"><ele>-3.0</ele><time>2026-03-28T11:48:24Z</time></trkpt><trkpt lat="44.86015065485338" lon="12.162281920961522"><ele>-2.8333333333333335</ele><time>2026-03-28T11:48:26Z</time></trkpt><trkpt lat="44.860148671869815" lon="12.162382730670517"><ele>-2.6666666666666665</ele><time>2026-03-28T11:48:28Z</time></trkpt><trkpt lat="44.86014117323938" lon="12.162475980140893"><ele>-2.5</ele><time>2026-03-28T11:48:30Z</time></trkpt><trkpt lat="44.86013758872685" lon="12.16260170047126"><ele>-2.333333333333333</ele><time>2026-03-28T11:48:33Z</time></trkpt><trkpt lat="44.860229760476955" lon="12.162669686701642"><ele>-2.1666666666666665</ele><time>2026-03-28T11:48:36Z</time></trkpt><trkpt lat="44.8602959482004" lon="12.16268944454314"><ele>-2.0</ele><time>2026-03-28T11:48:38Z</time></trkpt><trkpt lat="44.86036449052086" lon="12.162730690310253"><ele>-1.9999999999999998</ele><time>2026-03-28T11:48:40Z</time></trkpt><trkpt lat="44.860445473238386" lon="12.162774775641273"><ele>-2.0</ele><time>2026-03-28T11:48:42Z</time></trkpt><trkpt lat="44.86051094396669" lon="12.162791025286547"><ele>-2.0</ele><time>2026-03-28T11:48:44Z</time></trkpt><trkpt lat="44.8605910912384" lon="12.162824294930621"><ele>-2.0</ele><time>2026-03-28T11:48:46Z</time></trkpt><trkpt lat="44.860672566541176" lon="12.162860462248457"><ele>-1.9999999999999998</ele><time>2026-03-28T11:48:48Z</time></trkpt><trkpt lat="44.860753547145535" lon="12.162894710848606"><ele>-2.0</ele><time>2026-03-28T11:48:50Z</time></trkpt><trkpt lat="44.86082843454847" lon="12.16293130644106"><ele>-1.9999999999999998</ele><time>2026-03-28T11:48:52Z</time></trkpt><trkpt lat="44.860897460538354" lon="12.162963753253972"><ele>-2.0</ele><time>2026-03-28T11:48:54Z</time></trkpt><trkpt lat="44.86097438233488" lon="12.16298633861743"><ele>-2.0</ele><time>2026-03-28T11:48:56Z</time></trkpt><trkpt lat="44.86106145589192" lon="12.163018652552028"><ele>-2.0</ele><time>2026-03-28T11:48:58Z</time></trkpt><trkpt lat="44.86114682148136" lon="12.163063588060453"><ele>-1.9999999999999998</ele><time>2026-03-28T11:49:00Z</time></trkpt><trkpt lat="44.86123434488526" lon="12.163102887066426"><ele>-2.0</ele><time>2026-03-28T11:49:02Z</time></trkpt><trkpt lat="44.861319827223035" lon="12.163125568403494"><ele>-1.9999999999999998</ele><time>2026-03-28T11:49:04Z</time></trkpt><trkpt lat="44.86139807210516" lon="12.163171125506715"><ele>-2.0</ele><time>2026-03-28T11:49:06Z</time></trkpt><trkpt lat="44.86148541800817" lon="12.16320896431957"><ele>-2.0</ele><time>2026-03-28T11:49:08Z</time></trkpt><trkpt lat="44.861569602314496" lon="12.163253621959925"><ele>-2.0</ele><time>2026-03-28T11:49:10Z</time></trkpt><trkpt lat="44.86165207627152" lon="12.16329341227925"><ele>-1.9999999999999998</ele><time>2026-03-28T11:49:12Z</time></trkpt><trkpt lat="44.86172973338378" lon="12.16330193350503"><ele>-2.0</ele><time>2026-03-28T11:49:14Z</time></trkpt><trkpt lat="44.86180516290285" lon="12.163305809205324"><ele>-1.9999999999999998</ele><time>2026-03-28T11:49:16Z</time></trkpt><trkpt lat="44.861884101583115" lon="12.16330276748247"><ele>-2.0</ele><time>2026-03-28T11:49:18Z</time></trkpt><trkpt lat="44.86197240293326" lon="12.163317383067577"><ele>-2.0</ele><time>2026-03-28T11:49:20Z</time></trkpt><trkpt lat="44.86205930757687" lon="12.16335226607127"><ele>-2.0</ele><time>2026-03-28T11:49:22Z</time></trkpt><trkpt lat="44.86213283734962" lon="12.16342567176836"><ele>-1.9999999999999998</ele><time>2026-03-28T11:49:24Z</time></trkpt><trkpt lat="44.86219254858203" lon="12.16352130516692"><ele>-2.0</ele><time>2026-03-28T11:49:26Z</time></trkpt><trkpt lat="44.86221605192148" lon="12.163654458203327"><ele>-1.9999999999999998</ele><time>2026-03-28T11:49:27.999Z</time></trkpt><trkpt lat="44.86222916861063" lon="12.16375807711685"><ele>-2.0</ele><time>2026-03-28T11:49:29.999Z</time></trkpt><trkpt lat="44.86228402764909" lon="12.1638419628676"><ele>-2.0</ele><time>2026-03-28T11:49:31.999Z</time></trkpt><trkpt lat="44.86236331490393" lon="12.16386802912513"><ele>-2.0</ele><time>2026-03-28T11:49:33.999Z</time></trkpt><trkpt lat="44.862446394261795" lon="12.16389851452332"><ele>-1.9999999999999998</ele><time>2026-03-28T11:49:35.999Z</time></trkpt><trkpt lat="44.86252321213399" lon="12.163929644794763"><ele>-2.0</ele><time>2026-03-28T11:49:37.999Z</time></trkpt><trkpt lat="44.8625939031613" lon="12.163959525814164"><ele>-1.9999999999999998</ele><time>2026-03-28T11:49:39.999Z</time></trkpt><trkpt lat="44.86266632084059" lon="12.16398070478648"><ele>-2.0</ele><time>2026-03-28T11:49:41.999Z</time></trkpt><trkpt lat="44.86273510716507" lon="12.164015070398193"><ele>-2.0</ele><time>2026-03-28T11:49:43.999Z</time></trkpt><trkpt lat="44.86280059925213" lon="12.164049554501505"><ele>-2.0</ele><time>2026-03-28T11:49:45.999Z</time></trkpt><trkpt lat="44.86286668852162" lon="12.16403730556049"><ele>-1.9999999999999998</ele><time>2026-03-28T11:49:47.999Z</time></trkpt><trkpt lat="44.86292981810927" lon="12.163954807510326"><ele>-2.0</ele><time>2026-03-28T11:49:49.999Z</time></trkpt><trkpt lat="44.862993320164854" lon="12.1638697155476"><ele>-1.9999999999999998</ele><time>2026-03-28T11:49:51.999Z</time></trkpt><trkpt lat="44.86305560357839" lon="12.163840421286336"><ele>-2.0</ele><time>2026-03-28T11:49:53.999Z</time></trkpt><trkpt lat="44.86313691093638" lon="12.163893532217312"><ele>-2.0</ele><time>2026-03-28T11:49:55.999Z</time></trkpt><trkpt lat="44.863219775777836" lon="12.163953173923945"><ele>-2.0</ele><time>2026-03-28T11:49:57.999Z</time></trkpt><trkpt lat="44.86330412529406" lon="12.163990278505876"><ele>-1.9999999999999998</ele><time>2026-03-28T11:49:59.999Z</time></trkpt><trkpt lat="44.863383253194876" lon="12.164025080686633"><ele>-2.0</ele><time>2026-03-28T11:50:01.999Z</time></trkpt><trkpt lat="44.863461868062004" lon="12.164059438295618"><ele>-2.2857142857142856</ele><time>2026-03-28T11:50:03.999Z</time></trkpt><trkpt lat="44.86353640211068" lon="12.164092012435392"><ele>-2.571428571428571</ele><time>2026-03-28T11:50:05.999Z</time></trkpt><trkpt lat="44.863613778678754" lon="12.164104695328184"><ele>-2.8571428571428568</ele><time>2026-03-28T11:50:07.999Z</time></trkpt><trkpt lat="44.86367720435472" lon="12.16413629814678"><ele>-3.142857142857143</ele><time>2026-03-28T11:50:09.999Z</time></trkpt><trkpt lat="44.86373827583138" lon="12.164165399321476"><ele>-3.428571428571428</ele><time>2026-03-28T11:50:11.999Z</time></trkpt><trkpt lat="44.86381149033407" lon="12.164200970336122"><ele>-3.714285714285714</ele><time>2026-03-28T11:50:14.999Z</time></trkpt><trkpt lat="44.86386673158886" lon="12.164244829348757"><ele>-4.0</ele><time>2026-03-28T11:50:17.999Z</time></trkpt><trkpt lat="44.86396273263658" lon="12.164277370936082"><ele>-3.9999999999999996</ele><time>2026-03-28T11:50:20.999Z</time></trkpt><trkpt lat="44.864035796693514" lon="12.164299051274725"><ele>-4.0</ele><time>2026-03-28T11:50:22.999Z</time></trkpt><trkpt lat="44.864129468761156" lon="12.164349640427277"><ele>-4.0</ele><time>2026-03-28T11:50:25.999Z</time></trkpt><trkpt lat="44.8642129713837" lon="12.164384394961793"><ele>-4.0</ele><time>2026-03-28T11:50:27.999Z</time></trkpt><trkpt lat="44.86429503145251" lon="12.164420608005585"><ele>-3.9999999999999996</ele><time>2026-03-28T11:50:30Z</time></trkpt><trkpt lat="44.86437643701233" lon="12.164463821921617"><ele>-4.0</ele><time>2026-03-28T11:50:32Z</time></trkpt><trkpt lat="44.864457879923705" lon="12.164498488358998"><ele>-3.833333333333333</ele><time>2026-03-28T11:50:34Z</time></trkpt><trkpt lat="44.86453068671583" lon="12.16452631054268"><ele>-3.6666666666666665</ele><time>2026-03-28T11:50:36Z</time></trkpt><trkpt lat="44.86460166088926" lon="12.164553346042949"><ele>-3.5</ele><time>2026-03-28T11:50:38Z</time></trkpt><trkpt lat="44.86467905119246" lon="12.164597471071648"><ele>-3.333333333333333</ele><time>2026-03-28T11:50:40Z</time></trkpt><trkpt lat="44.86472171470991" lon="12.164673166202856"><ele>-3.1666666666666665</ele><time>2026-03-28T11:50:42Z</time></trkpt><trkpt lat="44.86473231976603" lon="12.164773168254436"><ele>-3.0</ele><time>2026-03-28T11:50:44Z</time></trkpt><trkpt lat="44.864703951740594" lon="12.164891318791419"><ele>-3.0</ele><time>2026-03-28T11:50:47Z</time></trkpt><trkpt lat="44.864698425615856" lon="12.164990100539198"><ele>-3.0</ele><time>2026-03-28T11:50:49Z</time></trkpt><trkpt lat="44.86468467165033" lon="12.16510252705256"><ele>-3.0</ele><time>2026-03-28T11:50:51Z</time></trkpt><trkpt lat="44.864669724231135" lon="12.165217964246919"><ele>-3.0</ele><time>2026-03-28T11:50:53Z</time></trkpt><trkpt lat="44.864666921372425" lon="12.165331641749043"><ele>-3.0</ele><time>2026-03-28T11:50:55Z</time></trkpt><trkpt lat="44.864645928950196" lon="12.165445938464122"><ele>-3.0</ele><time>2026-03-28T11:50:57Z</time></trkpt><trkpt lat="44.86463150530237" lon="12.165548931684766"><ele>-3.0</ele><time>2026-03-28T11:50:59Z</time></trkpt><trkpt lat="44.86462184126594" lon="12.165639243974882"><ele>-3.0</ele><time>2026-03-28T11:51:01Z</time></trkpt><trkpt lat="44.86460835664879" lon="12.165757609970251"><ele>-3.0</ele><time>2026-03-28T11:51:04Z</time></trkpt><trkpt lat="44.86459362659562" lon="12.165861145002133"><ele>-3.0</ele><time>2026-03-28T11:51:07Z</time></trkpt><trkpt lat="44.864579826757435" lon="12.166003033704646"><ele>-3.0</ele><time>2026-03-28T11:51:10Z</time></trkpt><trkpt lat="44.864565156224046" lon="12.16610787056954"><ele>-3.0</ele><time>2026-03-28T11:51:12Z</time></trkpt><trkpt lat="44.86455242361182" lon="12.166204607559127"><ele>-2.714285714285714</ele><time>2026-03-28T11:51:14Z</time></trkpt><trkpt lat="44.86453623857782" lon="12.166296193621037"><ele>-2.4285714285714284</ele><time>2026-03-28T11:51:16Z</time></trkpt><trkpt lat="44.86452387912865" lon="12.166385320511349"><ele>-2.142857142857143</ele><time>2026-03-28T11:51:18Z</time></trkpt><trkpt lat="44.864506549332454" lon="12.16650701008396"><ele>-1.857142857142857</ele><time>2026-03-28T11:51:21Z</time></trkpt><trkpt lat="44.864494861404225" lon="12.166596884286603"><ele>-1.5714285714285712</ele><time>2026-03-28T11:51:23Z</time></trkpt><trkpt lat="44.86447928785302" lon="12.166693922878533"><ele>-1.2857142857142856</ele><time>2026-03-28T11:51:25Z</time></trkpt><trkpt lat="44.86445953088612" lon="12.166814186818561"><ele>-1.0</ele><time>2026-03-28T11:51:27.999Z</time></trkpt><trkpt lat="44.864448295917484" lon="12.16691490769726"><ele>-0.9999999999999999</ele><time>2026-03-28T11:51:30.999Z</time></trkpt><trkpt lat="44.86443264332911" lon="12.167007706720051"><ele>-1.0</ele><time>2026-03-28T11:51:34.999Z</time></trkpt><trkpt lat="44.86440990989671" lon="12.167116049130072"><ele>-1.0</ele><time>2026-03-28T11:54:45Z</time></trkpt><trkpt lat="44.86439124471565" lon="12.167257837058386"><ele>-1.0</ele><time>2026-03-28T11:54:48Z</time></trkpt><trkpt lat="44.86437335866446" lon="12.167363930822695"><ele>-0.9999999999999999</ele><time>2026-03-28T11:54:50Z</time></trkpt><trkpt lat="44.8643624028147" lon="12.167454711765602"><ele>-1.0</ele><time>2026-03-28T11:54:52Z</time></trkpt><trkpt lat="44.86434549114257" lon="12.16754096797674"><ele>-1.0</ele><time>2026-03-28T11:54:54Z</time></trkpt><trkpt lat="44.864361884096894" lon="12.167643129379472"><ele>-0.9999999999999999</ele><time>2026-03-28T11:54:58Z</time></trkpt><trkpt lat="44.86441651460086" lon="12.167693736354018"><ele>-1.0</ele><time>2026-03-28T11:55:00Z</time></trkpt><trkpt lat="44.86448337063855" lon="12.167729547094371"><ele>-1.0</ele><time>2026-03-28T11:55:02Z</time></trkpt><trkpt lat="44.86455264832878" lon="12.167750834121987"><ele>-0.9999999999999999</ele><time>2026-03-28T11:55:04Z</time></trkpt><trkpt lat="44.86462862874299" lon="12.167775586342866"><ele>-1.0</ele><time>2026-03-28T11:55:06Z</time></trkpt><trkpt lat="44.86471433192637" lon="12.167803787318773"><ele>-1.0</ele><time>2026-03-28T11:55:08Z</time></trkpt><trkpt lat="44.864801848600905" lon="12.167826130003544"><ele>-1.0</ele><time>2026-03-28T11:55:10Z</time></trkpt><trkpt lat="44.86488785222068" lon="12.16785397648768"><ele>-1.0</ele><time>2026-03-28T11:55:12Z</time></trkpt><trkpt lat="44.864978248949924" lon="12.167872864696296"><ele>-1.0</ele><time>2026-03-28T11:55:14Z</time></trkpt><trkpt lat="44.86506903714185" lon="12.167900294374268"><ele>-1.0</ele><time>2026-03-28T11:55:16Z</time></trkpt><trkpt lat="44.86515853822635" lon="12.167923157250819"><ele>-1.0</ele><time>2026-03-28T11:55:18Z</time></trkpt><trkpt lat="44.86525092602843" lon="12.167934958201052"><ele>-0.8</ele><time>2026-03-28T11:55:20Z</time></trkpt><trkpt lat="44.86533693555906" lon="12.167963131023113"><ele>-0.6000000000000001</ele><time>2026-03-28T11:55:22Z</time></trkpt><trkpt lat="44.8654287585906" lon="12.167987977216635"><ele>-0.4</ele><time>2026-03-28T11:55:24Z</time></trkpt><trkpt lat="44.8655165957445" lon="12.168014000255829"><ele>-0.2</ele><time>2026-03-28T11:55:26Z</time></trkpt><trkpt lat="44.86560566714992" lon="12.168038438094799"><ele>0.0</ele><time>2026-03-28T11:55:28Z</time></trkpt><trkpt lat="44.86569401158342" lon="12.168059302355305"><ele>0.0</ele><time>2026-03-28T11:55:30Z</time></trkpt><trkpt lat="44.86578614260484" lon="12.168082323711792"><ele>0.0</ele><time>2026-03-28T11:55:32Z</time></trkpt><trkpt lat="44.865875678799924" lon="12.168108512939982"><ele>0.0</ele><time>2026-03-28T11:55:34Z</time></trkpt><trkpt lat="44.86596539290586" lon="12.168139021706182"><ele>0.0</ele><time>2026-03-28T11:55:36Z</time></trkpt><trkpt lat="44.866049849967006" lon="12.168154038715999"><ele>0.0</ele><time>2026-03-28T11:55:38Z</time></trkpt><trkpt lat="44.86612761101286" lon="12.168177977934585"><ele>0.0</ele><time>2026-03-28T11:55:40Z</time></trkpt><trkpt lat="44.86621271761438" lon="12.16819151826274"><ele>-0.16666666666666666</ele><time>2026-03-28T11:55:42Z</time></trkpt><trkpt lat="44.86630094033916" lon="12.168214077074225"><ele>-0.3333333333333333</ele><time>2026-03-28T11:55:44Z</time></trkpt><trkpt lat="44.8663924121454" lon="12.16823267643041"><ele>-0.5</ele><time>2026-03-28T11:55:46Z</time></trkpt><trkpt lat="44.86648302222852" lon="12.168245318536153"><ele>-0.6666666666666666</ele><time>2026-03-28T11:55:48Z</time></trkpt><trkpt lat="44.866567505873775" lon="12.168262439929558"><ele>-0.8333333333333333</ele><time>2026-03-28T11:55:50Z</time></trkpt><trkpt lat="44.86664400727905" lon="12.168287149962811"><ele>-1.0</ele><time>2026-03-28T11:55:52Z</time></trkpt><trkpt lat="44.86672808283232" lon="12.168302287390238"><ele>-0.8333333333333333</ele><time>2026-03-28T11:55:54Z</time></trkpt><trkpt lat="44.86681118333836" lon="12.168313271493343"><ele>-0.6666666666666666</ele><time>2026-03-28T11:55:56Z</time></trkpt><trkpt lat="44.86689170817319" lon="12.168334773125752"><ele>-0.5</ele><time>2026-03-28T11:55:58Z</time></trkpt><trkpt lat="44.86696489120056" lon="12.168353983487485"><ele>-0.3333333333333333</ele><time>2026-03-28T11:56:00Z</time></trkpt><trkpt lat="44.86703796649031" lon="12.168371523992917"><ele>-0.16666666666666666</ele><time>2026-03-28T11:56:02Z</time></trkpt><trkpt lat="44.867114701375606" lon="12.168393843813938"><ele>0.0</ele><time>2026-03-28T11:56:04Z</time></trkpt><trkpt lat="44.867187213037084" lon="12.168416231225045"><ele>0.0</ele><time>2026-03-28T11:56:06Z</time></trkpt><trkpt lat="44.86725426218782" lon="12.168431395189264"><ele>0.0</ele><time>2026-03-28T11:56:08Z</time></trkpt><trkpt lat="44.86731960388745" lon="12.168442538186065"><ele>0.0</ele><time>2026-03-28T11:56:10Z</time></trkpt><trkpt lat="44.86739165201142" lon="12.1684518236592"><ele>0.0</ele><time>2026-03-28T11:56:12Z</time></trkpt><trkpt lat="44.867481311789874" lon="12.168474236581314"><ele>0.0</ele><time>2026-03-28T11:56:14Z</time></trkpt><trkpt lat="44.86756574754345" lon="12.16849416702649"><ele>0.0</ele><time>2026-03-28T11:56:16Z</time></trkpt><trkpt lat="44.86764913923876" lon="12.16850564825117"><ele>0.16666666666666666</ele><time>2026-03-28T11:56:18Z</time></trkpt><trkpt lat="44.867719164115265" lon="12.16852996591225"><ele>0.3333333333333333</ele><time>2026-03-28T11:56:19.999Z</time></trkpt><trkpt lat="44.867795093503425" lon="12.168542932967094"><ele>0.5</ele><time>2026-03-28T11:56:21.999Z</time></trkpt><trkpt lat="44.86787004106534" lon="12.168561670034777"><ele>0.6666666666666666</ele><time>2026-03-28T11:56:23.999Z</time></trkpt><trkpt lat="44.867956485449334" lon="12.168572561147695"><ele>0.8333333333333333</ele><time>2026-03-28T11:56:25.999Z</time></trkpt><trkpt lat="44.868049188230934" lon="12.168589067111144"><ele>1.0</ele><time>2026-03-28T11:56:27.999Z</time></trkpt><trkpt lat="44.868141115747704" lon="12.168608888775296"><ele>1.0</ele><time>2026-03-28T11:56:29.999Z</time></trkpt><trkpt lat="44.86823120684853" lon="12.16862752579146"><ele>1.0</ele><time>2026-03-28T11:56:31.999Z</time></trkpt><trkpt lat="44.86831959568744" lon="12.168660158423327"><ele>1.0</ele><time>2026-03-28T11:56:33.999Z</time></trkpt><trkpt lat="44.86841172484584" lon="12.168675068539097"><ele>1.0</ele><time>2026-03-28T11:56:35.999Z</time></trkpt><trkpt lat="44.86850515136027" lon="12.168679657011273"><ele>1.0</ele><time>2026-03-28T11:56:37.999Z</time></trkpt><trkpt lat="44.86859942956684" lon="12.168682537261978"><ele>0.8333333333333333</ele><time>2026-03-28T11:56:39.999Z</time></trkpt><trkpt lat="44.868690136951365" lon="12.168684791932856"><ele>0.6666666666666666</ele><time>2026-03-28T11:56:41.999Z</time></trkpt><trkpt lat="44.868776575868495" lon="12.168697394931787"><ele>0.5</ele><time>2026-03-28T11:56:43.999Z</time></trkpt><trkpt lat="44.86886665424051" lon="12.168705211521868"><ele>0.3333333333333333</ele><time>2026-03-28T11:56:45.999Z</time></trkpt><trkpt lat="44.86895634809287" lon="12.168703792871607"><ele>0.16666666666666666</ele><time>2026-03-28T11:56:48Z</time></trkpt><trkpt lat="44.86903608931157" lon="12.168718886566614"><ele>0.0</ele><time>2026-03-28T11:56:50Z</time></trkpt><trkpt lat="44.86911696662845" lon="12.168722102869449"><ele>0.0</ele><time>2026-03-28T11:56:52Z</time></trkpt><trkpt lat="44.86919858533352" lon="12.168741952518138"><ele>0.0</ele><time>2026-03-28T11:56:54Z</time></trkpt><trkpt lat="44.86928424833099" lon="12.168739600323612"><ele>0.0</ele><time>2026-03-28T11:56:56Z</time></trkpt><trkpt lat="44.86937311636478" lon="12.16874715769716"><ele>0.0</ele><time>2026-03-28T11:56:58Z</time></trkpt><trkpt lat="44.86945632295207" lon="12.168773144218026"><ele>0.0</ele><time>2026-03-28T11:57:00Z</time></trkpt><trkpt lat="44.86953821424404" lon="12.168772409876645"><ele>0.0</ele><time>2026-03-28T11:57:02Z</time></trkpt><trkpt lat="44.869621078392925" lon="12.168796876309978"><ele>-0.2857142857142857</ele><time>2026-03-28T11:57:04Z</time></trkpt><trkpt lat="44.869698797898735" lon="12.1688098256102"><ele>-0.5714285714285714</ele><time>2026-03-28T11:57:06Z</time></trkpt><trkpt lat="44.86977364728007" lon="12.168827933087583"><ele>-0.8571428571428571</ele><time>2026-03-28T11:57:08Z</time></trkpt><trkpt lat="44.86984682074786" lon="12.1688584514693"><ele>-1.1428571428571428</ele><time>2026-03-28T11:57:10Z</time></trkpt><trkpt lat="44.86992594417354" lon="12.168862255737086"><ele>-1.4285714285714284</ele><time>2026-03-28T11:57:12Z</time></trkpt><trkpt lat="44.86999303215187" lon="12.168882284568156"><ele>-1.7142857142857142</ele><time>2026-03-28T11:57:14Z</time></trkpt><trkpt lat="44.87005976708042" lon="12.168911945628498"><ele>-2.0</ele><time>2026-03-28T11:57:16Z</time></trkpt><trkpt lat="44.87014009388419" lon="12.168925672800892"><ele>-1.9999999999999998</ele><time>2026-03-28T11:57:18Z</time></trkpt><trkpt lat="44.870225044973495" lon="12.168942505472078"><ele>-2.0</ele><time>2026-03-28T11:57:20Z</time></trkpt><trkpt lat="44.87030611110174" lon="12.168955359205516"><ele>-2.0</ele><time>2026-03-28T11:57:22Z</time></trkpt><trkpt lat="44.87038739121498" lon="12.168978370430908"><ele>-2.0</ele><time>2026-03-28T11:57:24Z</time></trkpt><trkpt lat="44.87046967113231" lon="12.169007628426515"><ele>-1.9999999999999998</ele><time>2026-03-28T11:57:26Z</time></trkpt><trkpt lat="44.87054856437019" lon="12.169025978494394"><ele>-2.0</ele><time>2026-03-28T11:57:28Z</time></trkpt><trkpt lat="44.87062666561" lon="12.16905078593764"><ele>-1.8333333333333333</ele><time>2026-03-28T11:57:30Z</time></trkpt><trkpt lat="44.870702969973834" lon="12.169083536433307"><ele>-1.6666666666666665</ele><time>2026-03-28T11:57:32Z</time></trkpt><trkpt lat="44.87078201176782" lon="12.169088604600834"><ele>-1.5</ele><time>2026-03-28T11:57:34Z</time></trkpt><trkpt lat="44.870854999290515" lon="12.169114918636014"><ele>-1.3333333333333333</ele><time>2026-03-28T11:57:36Z</time></trkpt><trkpt lat="44.870928771480436" lon="12.16912895356092"><ele>-1.1666666666666665</ele><time>2026-03-28T11:57:38Z</time></trkpt><trkpt lat="44.871006235170974" lon="12.16915071988087"><ele>-1.0</ele><time>2026-03-28T11:57:40Z</time></trkpt><trkpt lat="44.871082826550776" lon="12.169186002580796"><ele>-1.0</ele><time>2026-03-28T11:57:42Z</time></trkpt><trkpt lat="44.87115503053685" lon="12.16920557146736"><ele>-0.9999999999999999</ele><time>2026-03-28T11:57:44Z</time></trkpt><trkpt lat="44.87122747489703" lon="12.169208520336703"><ele>-1.0</ele><time>2026-03-28T11:57:46Z</time></trkpt><trkpt lat="44.87129466845672" lon="12.169226801956032"><ele>-1.0</ele><time>2026-03-28T11:57:48Z</time></trkpt><trkpt lat="44.8713595652603" lon="12.169260131005439"><ele>-0.9999999999999999</ele><time>2026-03-28T11:57:50Z</time></trkpt><trkpt lat="44.87142381869712" lon="12.16926385578285"><ele>-1.0</ele><time>2026-03-28T11:57:52Z</time></trkpt><trkpt lat="44.87151425838907" lon="12.169296003830533"><ele>-1.0</ele><time>2026-03-28T11:57:55Z</time></trkpt><trkpt lat="44.87157662116605" lon="12.16931869302007"><ele>-0.9999999999999999</ele><time>2026-03-28T11:57:57Z</time></trkpt><trkpt lat="44.871655906792974" lon="12.169330589214445"><ele>-1.0</ele><time>2026-03-28T11:58:00Z</time></trkpt><trkpt lat="44.87173736249561" lon="12.169346294659503"><ele>-1.0</ele><time>2026-03-28T11:58:03Z</time></trkpt><trkpt lat="44.871815329312774" lon="12.169375810493559"><ele>-1.0</ele><time>2026-03-28T11:58:26.999Z</time></trkpt><trkpt lat="44.87187864169355" lon="12.169384363184433"><ele>-0.9999999999999999</ele><time>2026-03-28T11:58:28.999Z</time></trkpt><trkpt lat="44.87195334090882" lon="12.169400697894346"><ele>-1.0</ele><time>2026-03-28T11:58:30.999Z</time></trkpt><trkpt lat="44.87202598566303" lon="12.169423011886563"><ele>-0.9999999999999999</ele><time>2026-03-28T11:58:32.999Z</time></trkpt><trkpt lat="44.872107895618925" lon="12.169452408954264"><ele>-1.0</ele><time>2026-03-28T11:58:34.999Z</time></trkpt><trkpt lat="44.87218945368084" lon="12.169467918576384"><ele>-1.0</ele><time>2026-03-28T11:58:36.999Z</time></trkpt><trkpt lat="44.872275622195616" lon="12.169488399118213"><ele>-1.0</ele><time>2026-03-28T11:58:38.999Z</time></trkpt><trkpt lat="44.872366013511815" lon="12.16951309028288"><ele>-0.9999999999999999</ele><time>2026-03-28T11:58:40.999Z</time></trkpt><trkpt lat="44.87245469860129" lon="12.169537586828394"><ele>-1.0</ele><time>2026-03-28T11:58:42.999Z</time></trkpt><trkpt lat="44.87254341272359" lon="12.169563156597663"><ele>-0.8</ele><time>2026-03-28T11:58:44.999Z</time></trkpt><trkpt lat="44.872631081112246" lon="12.169587792935458"><ele>-0.6000000000000001</ele><time>2026-03-28T11:58:46.999Z</time></trkpt><trkpt lat="44.8727224275223" lon="12.16961111578497"><ele>-0.4</ele><time>2026-03-28T11:58:48.999Z</time></trkpt><trkpt lat="44.872812889733936" lon="12.169639149543546"><ele>-0.2</ele><time>2026-03-28T11:58:50.999Z</time></trkpt><trkpt lat="44.87290227315787" lon="12.169664365980594"><ele>0.0</ele><time>2026-03-28T11:58:53Z</time></trkpt><trkpt lat="44.872997757029964" lon="12.169692129006057"><ele>0.0</ele><time>2026-03-28T11:58:55Z</time></trkpt><trkpt lat="44.87308272499867" lon="12.16971220627939"><ele>0.0</ele><time>2026-03-28T11:58:57Z</time></trkpt><trkpt lat="44.873161256142055" lon="12.169739228933828"><ele>0.0</ele><time>2026-03-28T11:58:59Z</time></trkpt><trkpt lat="44.87324255114341" lon="12.16977718260845"><ele>0.0</ele><time>2026-03-28T11:59:01Z</time></trkpt><trkpt lat="44.87332701005296" lon="12.169809754678166"><ele>0.0</ele><time>2026-03-28T11:59:03Z</time></trkpt><trkpt lat="44.873414039016545" lon="12.16983961743769"><ele>0.0</ele><time>2026-03-28T11:59:05Z</time></trkpt><trkpt lat="44.87350040049933" lon="12.169873582229046"><ele>0.16666666666666666</ele><time>2026-03-28T11:59:07Z</time></trkpt><trkpt lat="44.87358954010708" lon="12.169901458856144"><ele>0.3333333333333333</ele><time>2026-03-28T11:59:09Z</time></trkpt><trkpt lat="44.87367598589761" lon="12.16993872851075"><ele>0.5</ele><time>2026-03-28T11:59:11Z</time></trkpt><trkpt lat="44.87376392156766" lon="12.169969930280187"><ele>0.6666666666666666</ele><time>2026-03-28T11:59:13Z</time></trkpt><trkpt lat="44.873852344825536" lon="12.169994763735486"><ele>0.8333333333333333</ele><time>2026-03-28T11:59:15Z</time></trkpt><trkpt lat="44.87393377306824" lon="12.170018570290638"><ele>1.0</ele><time>2026-03-28T11:59:17Z</time></trkpt><trkpt lat="44.87401736530357" lon="12.17004540090879"><ele>0.9999999999999999</ele><time>2026-03-28T11:59:19Z</time></trkpt><trkpt lat="44.87409502874799" lon="12.170080963665148"><ele>1.0</ele><time>2026-03-28T11:59:21Z</time></trkpt><trkpt lat="44.8741632688858" lon="12.170145538991965"><ele>1.0</ele><time>2026-03-28T11:59:23Z</time></trkpt><trkpt lat="44.874181501418725" lon="12.170260592116122"><ele>1.0</ele><time>2026-03-28T11:59:25Z</time></trkpt><trkpt lat="44.87415823373969" lon="12.170366275572782"><ele>0.9999999999999999</ele><time>2026-03-28T11:59:27Z</time></trkpt><trkpt lat="44.87412056483646" lon="12.170454136639552"><ele>1.0</ele><time>2026-03-28T11:59:29Z</time></trkpt><trkpt lat="44.87408813855843" lon="12.170574812275186"><ele>0.9999999999999999</ele><time>2026-03-28T11:59:32Z</time></trkpt><trkpt lat="44.87408808574893" lon="12.170680408941514"><ele>1.0</ele><time>2026-03-28T11:59:34Z</time></trkpt><trkpt lat="44.87409787070254" lon="12.170791011892494"><ele>1.0</ele><time>2026-03-28T11:59:36Z</time></trkpt><trkpt lat="44.87409582347874" lon="12.170898452088514"><ele>1.0</ele><time>2026-03-28T11:59:38Z</time></trkpt><trkpt lat="44.87409706670702" lon="12.17100600167443"><ele>0.9999999999999999</ele><time>2026-03-28T11:59:40Z</time></trkpt><trkpt lat="44.874079877644824" lon="12.171111812593022"><ele>1.0</ele><time>2026-03-28T11:59:42Z</time></trkpt><trkpt lat="44.87407386384952" lon="12.171221422894998"><ele>0.9999999999999999</ele><time>2026-03-28T11:59:44Z</time></trkpt><trkpt lat="44.87406065459019" lon="12.17132734921367"><ele>1.0</ele><time>2026-03-28T11:59:46Z</time></trkpt><trkpt lat="44.8740325365899" lon="12.171437563780682"><ele>1.0</ele><time>2026-03-28T11:59:49Z</time></trkpt><trkpt lat="44.87399907930366" lon="12.171557997856334"><ele>1.0</ele><time>2026-03-28T11:59:52Z</time></trkpt><trkpt lat="44.87397154613075" lon="12.17166183699868"><ele>0.9999999999999999</ele><time>2026-03-28T11:59:55Z</time></trkpt><trkpt lat="44.873942600343156" lon="12.17177623121029"><ele>1.0</ele><time>2026-03-28T11:59:57Z</time></trkpt><trkpt lat="44.873921586168414" lon="12.171886291757477"><ele>0.8571428571428571</ele><time>2026-03-28T11:59:59Z</time></trkpt><trkpt lat="44.87390590847282" lon="12.171988089314343"><ele>0.7142857142857142</ele><time>2026-03-28T12:00:01Z</time></trkpt><trkpt lat="44.873890248896075" lon="12.17209554867009"><ele>0.5714285714285714</ele><time>2026-03-28T12:00:03Z</time></trkpt><trkpt lat="44.87387611056363" lon="12.172198184436237"><ele>0.42857142857142855</ele><time>2026-03-28T12:00:06Z</time></trkpt><trkpt lat="44.87386423631767" lon="12.172288570438118"><ele>0.2857142857142857</ele><time>2026-03-28T12:00:08Z</time></trkpt><trkpt lat="44.87384933983445" lon="12.172405750807563"><ele>0.14285714285714285</ele><time>2026-03-28T12:00:10Z</time></trkpt><trkpt lat="44.8738367248909" lon="12.172504983855111"><ele>0.0</ele><time>2026-03-28T12:00:12Z</time></trkpt><trkpt lat="44.87382495818778" lon="12.172597544382254"><ele>-0.2857142857142857</ele><time>2026-03-28T12:00:14Z</time></trkpt><trkpt lat="44.873809452472436" lon="12.172716047619845"><ele>-0.5714285714285714</ele><time>2026-03-28T12:00:16.999Z</time></trkpt><trkpt lat="44.873795672285965" lon="12.172815881283922"><ele>-0.8571428571428571</ele><time>2026-03-28T12:00:18.999Z</time></trkpt><trkpt lat="44.87378159633314" lon="12.172915809221953"><ele>-1.1428571428571428</ele><time>2026-03-28T12:00:20.999Z</time></trkpt><trkpt lat="44.87376531931262" lon="12.173030319101645"><ele>-1.4285714285714284</ele><time>2026-03-28T12:00:23.999Z</time></trkpt><trkpt lat="44.87375208159209" lon="12.17312344727525"><ele>-1.7142857142857142</ele><time>2026-03-28T12:00:25.999Z</time></trkpt><trkpt lat="44.87373872232298" lon="12.173217430589105"><ele>-2.0</ele><time>2026-03-28T12:00:27.999Z</time></trkpt><trkpt lat="44.87372196617662" lon="12.173333557479856"><ele>-2.0</ele><time>2026-03-28T12:00:30.999Z</time></trkpt><trkpt lat="44.87371018741963" lon="12.17342714402272"><ele>-1.9999999999999998</ele><time>2026-03-28T12:00:32.999Z</time></trkpt><trkpt lat="44.873699367927486" lon="12.173516791003284"><ele>-2.0</ele><time>2026-03-28T12:00:34.999Z</time></trkpt><trkpt lat="44.87368096637415" lon="12.173641262990158"><ele>-2.0</ele><time>2026-03-28T12:00:37.999Z</time></trkpt><trkpt lat="44.87365240755076" lon="12.173747036038224"><ele>-1.9999999999999998</ele><time>2026-03-28T12:00:40.999Z</time></trkpt><trkpt lat="44.87361251500119" lon="12.17383560823114"><ele>-2.0</ele><time>2026-03-28T12:00:44.999Z</time></trkpt><trkpt lat="44.87358035913457" lon="12.173915151149691"><ele>-2.0</ele><time>2026-03-28T12:00:48.999Z</time></trkpt><trkpt lat="44.8735470753012" lon="12.173997484281193"><ele>-2.0</ele><time>2026-03-28T12:00:50.999Z</time></trkpt><trkpt lat="44.87350950170387" lon="12.174090428854115"><ele>-2.0</ele><time>2026-03-28T12:00:52.999Z</time></trkpt><trkpt lat="44.873716099655745" lon="12.174314849142158"><ele>-2.0</ele><time>2026-03-28T12:00:53.999Z</time></trkpt><trkpt lat="44.87369709664288" lon="12.174415949948717"><ele>-2.0</ele><time>2026-03-28T12:00:55.999Z</time></trkpt><trkpt lat="44.87368051891987" lon="12.174524273630634"><ele>-1.9999999999999998</ele><time>2026-03-28T12:00:57.999Z</time></trkpt><trkpt lat="44.873666497657545" lon="12.174628701375246"><ele>-2.0</ele><time>2026-03-28T12:01:00Z</time></trkpt><trkpt lat="44.87365552153674" lon="12.17474670297828"><ele>-2.0</ele><time>2026-03-28T12:01:02Z</time></trkpt><trkpt lat="44.8736413502566" lon="12.174868491667763"><ele>-2.0</ele><time>2026-03-28T12:01:04Z</time></trkpt><trkpt lat="44.87362251577968" lon="12.174977836383194"><ele>-1.9999999999999998</ele><time>2026-03-28T12:01:06Z</time></trkpt><trkpt lat="44.8736099417867" lon="12.175079232904709"><ele>-2.0</ele><time>2026-03-28T12:01:08Z</time></trkpt><trkpt lat="44.87359798537572" lon="12.175167530157365"><ele>-2.1666666666666665</ele><time>2026-03-28T12:01:10Z</time></trkpt><trkpt lat="44.87357906926355" lon="12.175260552742168"><ele>-2.333333333333333</ele><time>2026-03-28T12:01:12Z</time></trkpt><trkpt lat="44.87357028930914" lon="12.175370235330135"><ele>-2.5</ele><time>2026-03-28T12:01:14Z</time></trkpt><trkpt lat="44.87354200233618" lon="12.175473411431614"><ele>-2.6666666666666665</ele><time>2026-03-28T12:01:16Z</time></trkpt><trkpt lat="44.873533359542165" lon="12.175572689414414"><ele>-2.8333333333333335</ele><time>2026-03-28T12:01:18Z</time></trkpt><trkpt lat="44.87352601927147" lon="12.175680199818265"><ele>-3.0</ele><time>2026-03-28T12:01:20Z</time></trkpt><trkpt lat="44.8735120495145" lon="12.175787513545082"><ele>-3.3333333333333335</ele><time>2026-03-28T12:01:22Z</time></trkpt><trkpt lat="44.873500452173545" lon="12.175896589131353"><ele>-3.666666666666667</ele><time>2026-03-28T12:01:24Z</time></trkpt><trkpt lat="44.87347208342793" lon="12.176021477098557"><ele>-4.0</ele><time>2026-03-28T12:01:27Z</time></trkpt><trkpt lat="44.87348084929275" lon="12.176113432267215"><ele>-4.333333333333334</ele><time>2026-03-28T12:01:29Z</time></trkpt><trkpt lat="44.8734646102005" lon="12.17622168391421"><ele>-4.666666666666667</ele><time>2026-03-28T12:01:31Z</time></trkpt><trkpt lat="44.87344954371614" lon="12.176326726913935"><ele>-5.0</ele><time>2026-03-28T12:01:33Z</time></trkpt><trkpt lat="44.873422627773" lon="12.176439578532378"><ele>-4.666666666666667</ele><time>2026-03-28T12:01:35Z</time></trkpt><trkpt lat="44.87340281267649" lon="12.176561481790067"><ele>-4.333333333333334</ele><time>2026-03-28T12:01:37Z</time></trkpt><trkpt lat="44.873388344758126" lon="12.176681412298862"><ele>-4.0</ele><time>2026-03-28T12:01:39Z</time></trkpt><trkpt lat="44.873371275131696" lon="12.176802886188554"><ele>-3.666666666666667</ele><time>2026-03-28T12:01:41Z</time></trkpt><trkpt lat="44.873354563072596" lon="12.17692236064544"><ele>-3.3333333333333335</ele><time>2026-03-28T12:01:43Z</time></trkpt><trkpt lat="44.87334107435182" lon="12.17703876483142"><ele>-3.0</ele><time>2026-03-28T12:01:45Z</time></trkpt><trkpt lat="44.873322278341874" lon="12.17714916521567"><ele>-2.9999999999999996</ele><time>2026-03-28T12:01:47Z</time></trkpt><trkpt lat="44.87329704031953" lon="12.17725165312451"><ele>-3.0</ele><time>2026-03-28T12:01:49Z</time></trkpt><trkpt lat="44.87327945592074" lon="12.177341474956595"><ele>-3.0</ele><time>2026-03-28T12:01:51Z</time></trkpt><trkpt lat="44.87326254362549" lon="12.177431439380916"><ele>-3.0</ele><time>2026-03-28T12:01:53Z</time></trkpt><trkpt lat="44.873244035889016" lon="12.177519967513659"><ele>-3.0</ele><time>2026-03-28T12:01:55Z</time></trkpt><trkpt lat="44.87322206357756" lon="12.177634237850858"><ele>-2.9999999999999996</ele><time>2026-03-28T12:01:58Z</time></trkpt><trkpt lat="44.873198581109904" lon="12.177755125501616"><ele>-3.0</ele><time>2026-03-28T12:02:01Z</time></trkpt><trkpt lat="44.87317890469104" lon="12.17785232153866"><ele>-2.8333333333333335</ele><time>2026-03-28T12:02:03Z</time></trkpt><trkpt lat="44.873165116855475" lon="12.177977657624734"><ele>-2.6666666666666665</ele><time>2026-03-28T12:02:06Z</time></trkpt><trkpt lat="44.87316055273619" lon="12.178115913757253"><ele>-2.5</ele><time>2026-03-28T12:02:09Z</time></trkpt><trkpt lat="44.87316938292125" lon="12.178219141922282"><ele>-2.333333333333333</ele><time>2026-03-28T12:02:11Z</time></trkpt><trkpt lat="44.873185861389025" lon="12.178335945491693"><ele>-2.1666666666666665</ele><time>2026-03-28T12:02:14Z</time></trkpt><trkpt lat="44.87319894949198" lon="12.178443187541706"><ele>-2.0</ele><time>2026-03-28T12:02:16.999Z</time></trkpt><trkpt lat="44.87321827303879" lon="12.17855954761995"><ele>-1.857142857142857</ele><time>2026-03-28T12:02:19.999Z</time></trkpt><trkpt lat="44.87322339579464" lon="12.178671848061175"><ele>-1.714285714285714</ele><time>2026-03-28T12:02:22.999Z</time></trkpt><trkpt lat="44.87321890747692" lon="12.178770283434886"><ele>-1.5714285714285714</ele><time>2026-03-28T12:02:25.999Z</time></trkpt><trkpt lat="44.873206587538064" lon="12.17888115497127"><ele>-1.4285714285714284</ele><time>2026-03-28T12:02:30.999Z</time></trkpt><trkpt lat="44.87319124467776" lon="12.178970604364682"><ele>-1.2857142857142856</ele><time>2026-03-28T12:06:51.999Z</time></trkpt><trkpt lat="44.87317945124431" lon="12.179059372609302"><ele>-1.1428571428571428</ele><time>2026-03-28T12:06:54.999Z</time></trkpt><trkpt lat="44.87315925648788" lon="12.179171476981667"><ele>-1.0</ele><time>2026-03-28T12:06:58.999Z</time></trkpt><trkpt lat="44.87313233090489" lon="12.17928151467919"><ele>-1.3333333333333333</ele><time>2026-03-28T12:07:01.999Z</time></trkpt><trkpt lat="44.87311143195502" lon="12.179380197399553"><ele>-1.6666666666666665</ele><time>2026-03-28T12:07:03.999Z</time></trkpt><trkpt lat="44.87308840928687" lon="12.179482961301686"><ele>-2.0</ele><time>2026-03-28T12:07:05.999Z</time></trkpt><trkpt lat="44.873068626870264" lon="12.17957403302457"><ele>-2.3333333333333335</ele><time>2026-03-28T12:07:07.999Z</time></trkpt><trkpt lat="44.87304257506466" lon="12.17969033541248"><ele>-2.6666666666666665</ele><time>2026-03-28T12:07:10.999Z</time></trkpt><trkpt lat="44.873020840679885" lon="12.179803752644538"><ele>-3.0</ele><time>2026-03-28T12:07:13.999Z</time></trkpt><trkpt lat="44.8729937317044" lon="12.179892732454892"><ele>-3.1666666666666665</ele><time>2026-03-28T12:07:15.999Z</time></trkpt><trkpt lat="44.872972566772084" lon="12.17999470655254"><ele>-3.333333333333333</ele><time>2026-03-28T12:07:18Z</time></trkpt><trkpt lat="44.87295334435444" lon="12.180094180947078"><ele>-3.5</ele><time>2026-03-28T12:07:20Z</time></trkpt><trkpt lat="44.87293293891061" lon="12.18018598335017"><ele>-3.6666666666666665</ele><time>2026-03-28T12:07:22Z</time></trkpt><trkpt lat="44.87290457425567" lon="12.180290703406397"><ele>-3.833333333333333</ele><time>2026-03-28T12:07:24Z</time></trkpt><trkpt lat="44.872880033961565" lon="12.180407168859794"><ele>-4.0</ele><time>2026-03-28T12:07:26Z</time></trkpt><trkpt lat="44.87285988301455" lon="12.180503498378279"><ele>-4.0</ele><time>2026-03-28T12:07:28Z</time></trkpt><trkpt lat="44.87284347580863" lon="12.180591354456048"><ele>-3.9999999999999996</ele><time>2026-03-28T12:07:30Z</time></trkpt><trkpt lat="44.87281059207148" lon="12.180707825464799"><ele>-4.0</ele><time>2026-03-28T12:07:33Z</time></trkpt><trkpt lat="44.87278923085688" lon="12.180794604634587"><ele>-4.0</ele><time>2026-03-28T12:07:35Z</time></trkpt><trkpt lat="44.872765039924715" lon="12.180907965262437"><ele>-3.9999999999999996</ele><time>2026-03-28T12:07:38Z</time></trkpt><trkpt lat="44.87274039335145" lon="12.180998874183327"><ele>-4.0</ele><time>2026-03-28T12:07:40Z</time></trkpt><trkpt lat="44.87273037615739" lon="12.18109241332626"><ele>-4.0</ele><time>2026-03-28T12:07:42Z</time></trkpt><trkpt lat="44.87271419903595" lon="12.181178816963884"><ele>-3.833333333333333</ele><time>2026-03-28T12:07:44Z</time></trkpt><trkpt lat="44.872678510666404" lon="12.181288740310537"><ele>-3.6666666666666665</ele><time>2026-03-28T12:07:47Z</time></trkpt><trkpt lat="44.872660787390984" lon="12.181386375849716"><ele>-3.5</ele><time>2026-03-28T12:07:49Z</time></trkpt><trkpt lat="44.872636130145935" lon="12.181497164725727"><ele>-3.333333333333333</ele><time>2026-03-28T12:07:51Z</time></trkpt><trkpt lat="44.87261227982039" lon="12.181583757516442"><ele>-3.1666666666666665</ele><time>2026-03-28T12:07:53Z</time></trkpt><trkpt lat="44.87258802574493" lon="12.181696638994293"><ele>-3.0</ele><time>2026-03-28T12:07:56Z</time></trkpt><trkpt lat="44.87258001196191" lon="12.18179618463139"><ele>-2.6666666666666665</ele><time>2026-03-28T12:07:58Z</time></trkpt><trkpt lat="44.87258145860188" lon="12.18190024620835"><ele>-2.3333333333333335</ele><time>2026-03-28T12:08:00Z</time></trkpt><trkpt lat="44.87259889877809" lon="12.182001036421802"><ele>-2.0</ele><time>2026-03-28T12:08:02Z</time></trkpt><trkpt lat="44.872607197886545" lon="12.182104303672059"><ele>-1.6666666666666665</ele><time>2026-03-28T12:08:04Z</time></trkpt><trkpt lat="44.87260444848509" lon="12.182209790020947"><ele>-1.3333333333333333</ele><time>2026-03-28T12:08:06Z</time></trkpt><trkpt lat="44.87259427452788" lon="12.1823221246389"><ele>-1.0</ele><time>2026-03-28T12:08:08Z</time></trkpt><trkpt lat="44.87258256380793" lon="12.182432690117231"><ele>-1.0</ele><time>2026-03-28T12:08:10Z</time></trkpt><trkpt lat="44.87256091712021" lon="12.182539348440727"><ele>-0.9999999999999999</ele><time>2026-03-28T12:08:12Z</time></trkpt><trkpt lat="44.8725382148539" lon="12.1826391874106"><ele>-1.0</ele><time>2026-03-28T12:08:14Z</time></trkpt><trkpt lat="44.8725167194135" lon="12.18273268109731"><ele>-1.0</ele><time>2026-03-28T12:08:16Z</time></trkpt><trkpt lat="44.87250357518758" lon="12.182819819046081"><ele>-0.9999999999999999</ele><time>2026-03-28T12:08:18Z</time></trkpt><trkpt lat="44.872474763567546" lon="12.182914564471925"><ele>-1.0</ele><time>2026-03-28T12:08:20Z</time></trkpt><trkpt lat="44.872456459693865" lon="12.18302287240625"><ele>-1.0</ele><time>2026-03-28T12:08:23Z</time></trkpt><trkpt lat="44.87242759885353" lon="12.18313611200414"><ele>-1.0</ele><time>2026-03-28T12:08:27Z</time></trkpt><trkpt lat="44.8724104107385" lon="12.183223188454534"><ele>-0.9999999999999999</ele><time>2026-03-28T12:08:29Z</time></trkpt><trkpt lat="44.87238696147977" lon="12.183327838974632"><ele>-1.0</ele><time>2026-03-28T12:08:30.999Z</time></trkpt><trkpt lat="44.87235769654112" lon="12.183414431117145"><ele>-1.0</ele><time>2026-03-28T12:08:32.999Z</time></trkpt><trkpt lat="44.87230862192038" lon="12.1835095770826"><ele>-0.9999999999999999</ele><time>2026-03-28T12:08:35.999Z</time></trkpt><trkpt lat="44.87228657233852" lon="12.18361416848916"><ele>-1.0</ele><time>2026-03-28T12:08:37.999Z</time></trkpt><trkpt lat="44.872274702128784" lon="12.183715071349688"><ele>-1.0</ele><time>2026-03-28T12:08:39.999Z</time></trkpt><trkpt lat="44.872258175008895" lon="12.18383159078965"><ele>-1.0</ele><time>2026-03-28T12:08:42.999Z</time></trkpt><trkpt lat="44.87222693389848" lon="12.18393289727811"><ele>-0.9999999999999999</ele><time>2026-03-28T12:08:45.999Z</time></trkpt><trkpt lat="44.87220965448047" lon="12.184021647414664"><ele>-1.0</ele><time>2026-03-28T12:08:47.999Z</time></trkpt><trkpt lat="44.87218474849657" lon="12.184124158062152"><ele>-1.0</ele><time>2026-03-28T12:08:49.999Z</time></trkpt><trkpt lat="44.87216315384447" lon="12.184239642589532"><ele>-0.9999999999999999</ele><time>2026-03-28T12:08:52.999Z</time></trkpt><trkpt lat="44.87213837610386" lon="12.184332781386418"><ele>-1.0</ele><time>2026-03-28T12:08:54.999Z</time></trkpt><trkpt lat="44.872118270255406" lon="12.184426317654173"><ele>-1.0</ele><time>2026-03-28T12:08:56.999Z</time></trkpt><trkpt lat="44.872087691244694" lon="12.18455860117218"><ele>-0.9999999999999999</ele><time>2026-03-28T12:08:59.999Z</time></trkpt><trkpt lat="44.872071021210225" lon="12.184662359814043"><ele>-1.0</ele><time>2026-03-28T12:09:01.999Z</time></trkpt><trkpt lat="44.87203469355139" lon="12.184751384673946"><ele>-1.0</ele><time>2026-03-28T12:09:03.999Z</time></trkpt><trkpt lat="44.872016178177404" lon="12.18485640576767"><ele>-1.0</ele><time>2026-03-28T12:09:06.999Z</time></trkpt><trkpt lat="44.87196934411696" lon="12.184935064054688"><ele>-0.9999999999999999</ele><time>2026-03-28T12:09:09.999Z</time></trkpt><trkpt lat="44.871940909711796" lon="12.185048206361728"><ele>-1.0</ele><time>2026-03-28T12:09:13.999Z</time></trkpt><trkpt lat="44.871915384415544" lon="12.185177978182882"><ele>-1.0</ele><time>2026-03-28T12:09:16.999Z</time></trkpt><trkpt lat="44.87189080351058" lon="12.185295206378614"><ele>-0.9999999999999999</ele><time>2026-03-28T12:09:19.999Z</time></trkpt><trkpt lat="44.871872279977914" lon="12.185383981603247"><ele>-1.0</ele><time>2026-03-28T12:09:21.999Z</time></trkpt><trkpt lat="44.871863680247685" lon="12.18547577875841"><ele>-1.0</ele><time>2026-03-28T12:09:25Z</time></trkpt><trkpt lat="44.871826746391235" lon="12.185582651172838"><ele>-0.9999999999999999</ele><time>2026-03-28T12:09:28Z</time></trkpt><trkpt lat="44.87180011230474" lon="12.185668435754952"><ele>-1.0</ele><time>2026-03-28T12:09:30Z</time></trkpt><trkpt lat="44.871788381447466" lon="12.185776169567637"><ele>-1.0</ele><time>2026-03-28T12:09:33Z</time></trkpt><trkpt lat="44.8717666864333" lon="12.185909833132861"><ele>-1.3333333333333333</ele><time>2026-03-28T12:09:36Z</time></trkpt><trkpt lat="44.871746722537196" lon="12.186009789479632"><ele>-1.6666666666666665</ele><time>2026-03-28T12:09:38Z</time></trkpt><trkpt lat="44.87173353645385" lon="12.186125529122842"><ele>-2.0</ele><time>2026-03-28T12:09:41Z</time></trkpt><trkpt lat="44.871716086942016" lon="12.186228933844697"><ele>-2.3333333333333335</ele><time>2026-03-28T12:09:44Z</time></trkpt><trkpt lat="44.87168675641867" lon="12.18631845634881"><ele>-2.6666666666666665</ele><time>2026-03-28T12:09:46Z</time></trkpt><trkpt lat="44.871660737239125" lon="12.186438235780956"><ele>-3.0</ele><time>2026-03-28T12:09:49Z</time></trkpt><trkpt lat="44.87164612916454" lon="12.186533339819324"><ele>-3.2857142857142856</ele><time>2026-03-28T12:09:52Z</time></trkpt><trkpt lat="44.87162314539582" lon="12.186617182112256"><ele>-3.571428571428571</ele><time>2026-03-28T12:09:54Z</time></trkpt><trkpt lat="44.87159962909244" lon="12.186718439835245"><ele>-3.8571428571428568</ele><time>2026-03-28T12:09:56Z</time></trkpt><trkpt lat="44.87157903222008" lon="12.18683330611265"><ele>-4.142857142857142</ele><time>2026-03-28T12:09:59Z</time></trkpt><trkpt lat="44.8715554409568" lon="12.186931449705142"><ele>-4.428571428571429</ele><time>2026-03-28T12:10:01Z</time></trkpt><trkpt lat="44.87153401174606" lon="12.187020817645966"><ele>-4.714285714285714</ele><time>2026-03-28T12:10:03Z</time></trkpt><trkpt lat="44.87151541727688" lon="12.187121120041349"><ele>-5.0</ele><time>2026-03-28T12:10:06Z</time></trkpt><trkpt lat="44.8714901935357" lon="12.187205309580674"><ele>-5.0</ele><time>2026-03-28T12:10:09Z</time></trkpt><trkpt lat="44.87146344047398" lon="12.187303237930445"><ele>-5.0</ele><time>2026-03-28T12:10:12Z</time></trkpt><trkpt lat="44.87143954399685" lon="12.187433159636106"><ele>-5.0</ele><time>2026-03-28T12:10:15Z</time></trkpt><trkpt lat="44.871412132147974" lon="12.187547789734884"><ele>-5.0</ele><time>2026-03-28T12:10:18Z</time></trkpt><trkpt lat="44.87138765948678" lon="12.18765939354956"><ele>-5.0</ele><time>2026-03-28T12:10:21Z</time></trkpt><trkpt lat="44.871375393231716" lon="12.187751030604487"><ele>-5.0</ele><time>2026-03-28T12:10:23Z</time></trkpt><trkpt lat="44.87135203572311" lon="12.187871211030112"><ele>-4.857142857142857</ele><time>2026-03-28T12:10:26Z</time></trkpt><trkpt lat="44.87132151278157" lon="12.187954208312707"><ele>-4.714285714285714</ele><time>2026-03-28T12:10:29Z</time></trkpt><trkpt lat="44.87130523368317" lon="12.18805311427776"><ele>-4.571428571428571</ele><time>2026-03-28T12:10:31Z</time></trkpt><trkpt lat="44.87128146143264" lon="12.188145998637104"><ele>-4.428571428571429</ele><time>2026-03-28T12:10:32.999Z</time></trkpt><trkpt lat="44.87125965546904" lon="12.188250493915671"><ele>-4.285714285714286</ele><time>2026-03-28T12:10:34.999Z</time></trkpt><trkpt lat="44.871230612641284" lon="12.18835317286924"><ele>-4.142857142857142</ele><time>2026-03-28T12:10:36.999Z</time></trkpt><trkpt lat="44.87121002669316" lon="12.188439704392424"><ele>-4.0</ele><time>2026-03-28T12:10:38.999Z</time></trkpt><trkpt lat="44.871182195841094" lon="12.188557932476996"><ele>-3.833333333333333</ele><time>2026-03-28T12:10:41.999Z</time></trkpt><trkpt lat="44.87116501801974" lon="12.18864377247538"><ele>-3.6666666666666665</ele><time>2026-03-28T12:10:43.999Z</time></trkpt><trkpt lat="44.871135098106464" lon="12.188753199750426"><ele>-3.5</ele><time>2026-03-28T12:10:46.999Z</time></trkpt><trkpt lat="44.87111156901459" lon="12.188862548814003"><ele>-3.333333333333333</ele><time>2026-03-28T12:10:49.999Z</time></trkpt><trkpt lat="44.87108528379972" lon="12.188963585247684"><ele>-3.1666666666666665</ele><time>2026-03-28T12:10:51.999Z</time></trkpt><trkpt lat="44.87105470146626" lon="12.18909225450081"><ele>-3.0</ele><time>2026-03-28T12:10:54.999Z</time></trkpt><trkpt lat="44.871037260185616" lon="12.189186586922053"><ele>-3.0</ele><time>2026-03-28T12:10:56.999Z</time></trkpt><trkpt lat="44.87100742663062" lon="12.18927823826565"><ele>-3.0</ele><time>2026-03-28T12:10:58.999Z</time></trkpt><trkpt lat="44.87098613852637" lon="12.189397107454305"><ele>-3.0</ele><time>2026-03-28T12:11:01.999Z</time></trkpt><trkpt lat="44.87096588453522" lon="12.189506841679533"><ele>-3.0</ele><time>2026-03-28T12:11:03.999Z</time></trkpt><trkpt lat="44.87093645175673" lon="12.189597241006824"><ele>-3.0</ele><time>2026-03-28T12:11:05.999Z</time></trkpt><trkpt lat="44.87091566511402" lon="12.18971408134795"><ele>-3.0</ele><time>2026-03-28T12:11:08.999Z</time></trkpt><trkpt lat="44.87089471542839" lon="12.18980763844391"><ele>-2.8571428571428568</ele><time>2026-03-28T12:11:10.999Z</time></trkpt><trkpt lat="44.87087043153916" lon="12.189912400176013"><ele>-2.7142857142857144</ele><time>2026-03-28T12:11:13.999Z</time></trkpt><trkpt lat="44.87084365817916" lon="12.19001927893165"><ele>-2.571428571428571</ele><time>2026-03-28T12:11:16.999Z</time></trkpt><trkpt lat="44.87081114483008" lon="12.190113640761789"><ele>-2.4285714285714284</ele><time>2026-03-28T12:11:19.999Z</time></trkpt><trkpt lat="44.87078061347527" lon="12.19020723511428"><ele>-2.2857142857142856</ele><time>2026-03-28T12:11:21.999Z</time></trkpt><trkpt lat="44.870761468166826" lon="12.19029226083998"><ele>-2.142857142857143</ele><time>2026-03-28T12:11:23.999Z</time></trkpt><trkpt lat="44.87073259895205" lon="12.19038580723383"><ele>-2.0</ele><time>2026-03-28T12:11:26.999Z</time></trkpt><trkpt lat="44.87072404323522" lon="12.19051369144364"><ele>-1.9999999999999998</ele><time>2026-03-28T12:11:30Z</time></trkpt><trkpt lat="44.870696129009886" lon="12.190609124785755"><ele>-2.0</ele><time>2026-03-28T12:11:32Z</time></trkpt><trkpt lat="44.87067283777134" lon="12.190720988992672"><ele>-2.0</ele><time>2026-03-28T12:11:35Z</time></trkpt><trkpt lat="44.870639291854935" lon="12.190815836850893"><ele>-2.0</ele><time>2026-03-28T12:11:39Z</time></trkpt><trkpt lat="44.8705891159531" lon="12.190935564760316"><ele>-1.9999999999999998</ele><time>2026-03-28T12:11:42Z</time></trkpt><trkpt lat="44.87053069016464" lon="12.191037814068178"><ele>-2.0</ele><time>2026-03-28T12:11:44Z</time></trkpt><trkpt lat="44.87049727375269" lon="12.191149311579602"><ele>-1.9999999999999998</ele><time>2026-03-28T12:11:46Z</time></trkpt><trkpt lat="44.870464406611646" lon="12.191263243457673"><ele>-2.0</ele><time>2026-03-28T12:11:48Z</time></trkpt><trkpt lat="44.870432960961786" lon="12.191367486303538"><ele>-2.0</ele><time>2026-03-28T12:11:50Z</time></trkpt><trkpt lat="44.8703993946845" lon="12.191466355097276"><ele>-2.0</ele><time>2026-03-28T12:11:52Z</time></trkpt><trkpt lat="44.87036436236458" lon="12.19155927852329"><ele>-1.9999999999999998</ele><time>2026-03-28T12:11:54Z</time></trkpt><trkpt lat="44.87033442242085" lon="12.191656704163158"><ele>-2.0</ele><time>2026-03-28T12:11:56Z</time></trkpt><trkpt lat="44.870299342092714" lon="12.191767283265406"><ele>-2.0</ele><time>2026-03-28T12:11:58Z</time></trkpt><trkpt lat="44.87026482327211" lon="12.191889486736274"><ele>-2.0</ele><time>2026-03-28T12:12:00Z</time></trkpt><trkpt lat="44.87022676120118" lon="12.192008666856637"><ele>-2.0</ele><time>2026-03-28T12:12:02Z</time></trkpt><trkpt lat="44.87018781830926" lon="12.192127361871986"><ele>-2.0</ele><time>2026-03-28T12:12:04Z</time></trkpt><trkpt lat="44.870149333707076" lon="12.192246126891998"><ele>-2.0</ele><time>2026-03-28T12:12:06Z</time></trkpt><trkpt lat="44.87011007669879" lon="12.192367375279408"><ele>-2.2</ele><time>2026-03-28T12:12:08Z</time></trkpt><trkpt lat="44.870068753269685" lon="12.192483374303334"><ele>-2.4000000000000004</ele><time>2026-03-28T12:12:10Z</time></trkpt><trkpt lat="44.870029056125134" lon="12.192602450455105"><ele>-2.5999999999999996</ele><time>2026-03-28T12:12:12Z</time></trkpt><trkpt lat="44.869985240486685" lon="12.192716845562419"><ele>-2.8</ele><time>2026-03-28T12:12:14Z</time></trkpt><trkpt lat="44.86994502432012" lon="12.192834812478194"><ele>-3.0</ele><time>2026-03-28T12:12:16Z</time></trkpt><trkpt lat="44.86990426517962" lon="12.19295378957189"><ele>-3.0</ele><time>2026-03-28T12:12:18Z</time></trkpt><trkpt lat="44.86986643579932" lon="12.193071577261229"><ele>-3.0</ele><time>2026-03-28T12:12:20Z</time></trkpt><trkpt lat="44.86982689997519" lon="12.193191520089632"><ele>-3.0</ele><time>2026-03-28T12:12:22Z</time></trkpt><trkpt lat="44.86978751868047" lon="12.193309107807234"><ele>-3.0</ele><time>2026-03-28T12:12:24Z</time></trkpt><trkpt lat="44.86975082905351" lon="12.193429985635623"><ele>-3.0</ele><time>2026-03-28T12:12:26Z</time></trkpt><trkpt lat="44.86970798840562" lon="12.193548912113643"><ele>-3.0</ele><time>2026-03-28T12:12:28Z</time></trkpt><trkpt lat="44.86967031328321" lon="12.193676303964182"><ele>-3.0</ele><time>2026-03-28T12:12:30Z</time></trkpt><trkpt lat="44.86962734120653" lon="12.193799340842894"><ele>-3.0</ele><time>2026-03-28T12:12:31.999Z</time></trkpt><trkpt lat="44.86958793766591" lon="12.193924024938536"><ele>-3.0</ele><time>2026-03-28T12:12:33.999Z</time></trkpt><trkpt lat="44.86954809601823" lon="12.194046972685365"><ele>-3.0</ele><time>2026-03-28T12:12:35.999Z</time></trkpt><trkpt lat="44.86950906454998" lon="12.194168184877263"><ele>-3.2</ele><time>2026-03-28T12:12:37.999Z</time></trkpt><trkpt lat="44.869466705136354" lon="12.194289345167476"><ele>-3.4</ele><time>2026-03-28T12:12:39.999Z</time></trkpt><trkpt lat="44.86943610181448" lon="12.194411607299381"><ele>-3.6000000000000005</ele><time>2026-03-28T12:12:41.999Z</time></trkpt><trkpt lat="44.86939631686936" lon="12.194522642235391"><ele>-3.8000000000000003</ele><time>2026-03-28T12:12:43.999Z</time></trkpt><trkpt lat="44.869353719220335" lon="12.19463992380455"><ele>-4.0</ele><time>2026-03-28T12:12:45.999Z</time></trkpt><trkpt lat="44.86931667910077" lon="12.19476060016087"><ele>-4.0</ele><time>2026-03-28T12:12:47.999Z</time></trkpt><trkpt lat="44.869274776259175" lon="12.19487807033784"><ele>-4.0</ele><time>2026-03-28T12:12:49.999Z</time></trkpt><trkpt lat="44.86923452580867" lon="12.19499687933285"><ele>-4.0</ele><time>2026-03-28T12:12:51.999Z</time></trkpt><trkpt lat="44.86919913392408" lon="12.195116757298152"><ele>-4.0</ele><time>2026-03-28T12:12:53.999Z</time></trkpt><trkpt lat="44.869160259488076" lon="12.195228871462234"><ele>-4.0</ele><time>2026-03-28T12:12:55.999Z</time></trkpt><trkpt lat="44.869124579924346" lon="12.195340723426245"><ele>-4.0</ele><time>2026-03-28T12:12:57.999Z</time></trkpt><trkpt lat="44.86908734703254" lon="12.195456250830286"><ele>-4.0</ele><time>2026-03-28T12:12:59.999Z</time></trkpt><trkpt lat="44.86904780569889" lon="12.195574874904594"><ele>-4.0</ele><time>2026-03-28T12:13:01.999Z</time></trkpt><trkpt lat="44.86900891014046" lon="12.195693450784717"><ele>-4.0</ele><time>2026-03-28T12:13:03.999Z</time></trkpt><trkpt lat="44.86897071435202" lon="12.195812550554013"><ele>-4.0</ele><time>2026-03-28T12:13:05.999Z</time></trkpt><trkpt lat="44.86892884256555" lon="12.195932403785397"><ele>-3.9999999999999996</ele><time>2026-03-28T12:13:07.999Z</time></trkpt><trkpt lat="44.86889485740863" lon="12.196048423508646"><ele>-4.0</ele><time>2026-03-28T12:13:09.999Z</time></trkpt><trkpt lat="44.868855080090604" lon="12.19615296980449"><ele>-4.0</ele><time>2026-03-28T12:13:11.999Z</time></trkpt><trkpt lat="44.868820198312726" lon="12.196260847373066"><ele>-4.0</ele><time>2026-03-28T12:13:13.999Z</time></trkpt><trkpt lat="44.86878497998018" lon="12.196362405868749"><ele>-3.9999999999999996</ele><time>2026-03-28T12:13:15.999Z</time></trkpt><trkpt lat="44.868750823187156" lon="12.196468903994663"><ele>-4.0</ele><time>2026-03-28T12:13:17.999Z</time></trkpt><trkpt lat="44.868712319401794" lon="12.196585581552869"><ele>-3.9999999999999996</ele><time>2026-03-28T12:13:19.999Z</time></trkpt><trkpt lat="44.86867380571824" lon="12.196701147043136"><ele>-4.0</ele><time>2026-03-28T12:13:21.999Z</time></trkpt><trkpt lat="44.86864230864567" lon="12.196817562834285"><ele>-4.0</ele><time>2026-03-28T12:13:23.999Z</time></trkpt><trkpt lat="44.86860847595411" lon="12.196925638783286"><ele>-4.0</ele><time>2026-03-28T12:13:25.999Z</time></trkpt><trkpt lat="44.868571938252636" lon="12.19702716952522"><ele>-3.9999999999999996</ele><time>2026-03-28T12:13:27.999Z</time></trkpt><trkpt lat="44.868539014042156" lon="12.19712759442114"><ele>-4.0</ele><time>2026-03-28T12:13:29.999Z</time></trkpt><trkpt lat="44.8685078437763" lon="12.197224791628308"><ele>-3.9999999999999996</ele><time>2026-03-28T12:13:31.999Z</time></trkpt><trkpt lat="44.86847454358427" lon="12.197317422823351"><ele>-4.0</ele><time>2026-03-28T12:13:33.999Z</time></trkpt><trkpt lat="44.86843994192124" lon="12.197420117348786"><ele>-4.0</ele><time>2026-03-28T12:13:36Z</time></trkpt><trkpt lat="44.86840153759906" lon="12.197534733415688"><ele>-4.0</ele><time>2026-03-28T12:13:38Z</time></trkpt><trkpt lat="44.8683627718176" lon="12.197653823914631"><ele>-3.9999999999999996</ele><time>2026-03-28T12:13:40Z</time></trkpt><trkpt lat="44.86832709825936" lon="12.197774806952445"><ele>-4.0</ele><time>2026-03-28T12:13:42Z</time></trkpt><trkpt lat="44.868285041586326" lon="12.197893796425127"><ele>-4.0</ele><time>2026-03-28T12:13:44Z</time></trkpt><trkpt lat="44.8682442463683" lon="12.198015363639694"><ele>-4.0</ele><time>2026-03-28T12:13:46Z</time></trkpt><trkpt lat="44.86820410376407" lon="12.198133939711944"><ele>-4.0</ele><time>2026-03-28T12:13:48Z</time></trkpt><trkpt lat="44.86816816829482" lon="12.198256266508993"><ele>-4.0</ele><time>2026-03-28T12:13:50Z</time></trkpt><trkpt lat="44.86812742763651" lon="12.198377004637733"><ele>-4.0</ele><time>2026-03-28T12:13:52Z</time></trkpt><trkpt lat="44.86809042181724" lon="12.198496624311733"><ele>-3.833333333333333</ele><time>2026-03-28T12:13:54Z</time></trkpt><trkpt lat="44.868054837704946" lon="12.198610843414128"><ele>-3.6666666666666665</ele><time>2026-03-28T12:13:56Z</time></trkpt><trkpt lat="44.868017837800984" lon="12.19872147127997"><ele>-3.5</ele><time>2026-03-28T12:13:58Z</time></trkpt><trkpt lat="44.86798272115366" lon="12.198828178113112"><ele>-3.333333333333333</ele><time>2026-03-28T12:14:00Z</time></trkpt><trkpt lat="44.86794326564399" lon="12.19893555070623"><ele>-3.1666666666666665</ele><time>2026-03-28T12:14:02Z</time></trkpt><trkpt lat="44.8679060562437" lon="12.199055927908123"><ele>-3.0</ele><time>2026-03-28T12:14:04Z</time></trkpt><trkpt lat="44.8678680522105" lon="12.19917394866293"><ele>-2.8</ele><time>2026-03-28T12:14:06Z</time></trkpt><trkpt lat="44.867832339211844" lon="12.199294027498127"><ele>-2.5999999999999996</ele><time>2026-03-28T12:14:08Z</time></trkpt><trkpt lat="44.86779374442559" lon="12.199416810507465"><ele>-2.4000000000000004</ele><time>2026-03-28T12:14:10Z</time></trkpt><trkpt lat="44.867757174932684" lon="12.199542852082647"><ele>-2.2</ele><time>2026-03-28T12:14:12Z</time></trkpt><trkpt lat="44.867715783485835" lon="12.199668934990585"><ele>-2.0</ele><time>2026-03-28T12:14:14Z</time></trkpt><trkpt lat="44.86766975266869" lon="12.199792595470248"><ele>-2.2</ele><time>2026-03-28T12:14:16Z</time></trkpt><trkpt lat="44.86762456410452" lon="12.199921213114528"><ele>-2.4000000000000004</ele><time>2026-03-28T12:14:18Z</time></trkpt><trkpt lat="44.86757941920071" lon="12.20005192528578"><ele>-2.5999999999999996</ele><time>2026-03-28T12:14:20Z</time></trkpt><trkpt lat="44.86753462365136" lon="12.200180875508977"><ele>-2.8</ele><time>2026-03-28T12:14:22Z</time></trkpt><trkpt lat="44.86749458727257" lon="12.200315293696987"><ele>-3.0</ele><time>2026-03-28T12:14:24Z</time></trkpt><trkpt lat="44.86745006729224" lon="12.200443611364797"><ele>-3.2</ele><time>2026-03-28T12:14:26Z</time></trkpt><trkpt lat="44.86740455096433" lon="12.200570694773509"><ele>-3.4</ele><time>2026-03-28T12:14:28Z</time></trkpt><trkpt lat="44.86736200951275" lon="12.200698613561334"><ele>-3.6000000000000005</ele><time>2026-03-28T12:14:30Z</time></trkpt><trkpt lat="44.86732461063771" lon="12.200825373102909"><ele>-3.8000000000000003</ele><time>2026-03-28T12:14:32Z</time></trkpt><trkpt lat="44.86728528193528" lon="12.20094469538913"><ele>-4.0</ele><time>2026-03-28T12:14:34Z</time></trkpt><trkpt lat="44.867250903028136" lon="12.201064302951512"><ele>-4.166666666666666</ele><time>2026-03-28T12:14:36Z</time></trkpt><trkpt lat="44.86721804344943" lon="12.201177290520315"><ele>-4.333333333333333</ele><time>2026-03-28T12:14:38Z</time></trkpt><trkpt lat="44.86718272472443" lon="12.201288156440903"><ele>-4.5</ele><time>2026-03-28T12:14:40Z</time></trkpt><trkpt lat="44.86714198028672" lon="12.201400792303088"><ele>-4.666666666666667</ele><time>2026-03-28T12:14:42Z</time></trkpt><trkpt lat="44.86709938883878" lon="12.201504246495395"><ele>-4.833333333333334</ele><time>2026-03-28T12:14:44Z</time></trkpt><trkpt lat="44.86706252729348" lon="12.201616061542737"><ele>-5.0</ele><time>2026-03-28T12:14:46Z</time></trkpt><trkpt lat="44.86703074258814" lon="12.201737208665039"><ele>-5.2</ele><time>2026-03-28T12:14:48Z</time></trkpt><trkpt lat="44.866987688015705" lon="12.201850498277473"><ele>-5.4</ele><time>2026-03-28T12:14:50Z</time></trkpt><trkpt lat="44.86694945425893" lon="12.201972033818752"><ele>-5.6</ele><time>2026-03-28T12:14:52Z</time></trkpt><trkpt lat="44.86691313844049" lon="12.202089091828958"><ele>-5.8</ele><time>2026-03-28T12:14:54Z</time></trkpt><trkpt lat="44.866869213931956" lon="12.202206361685606"><ele>-6.0</ele><time>2026-03-28T12:14:55.999Z</time></trkpt><trkpt lat="44.86682931992496" lon="12.202328590494787"><ele>-5.8</ele><time>2026-03-28T12:14:57.999Z</time></trkpt><trkpt lat="44.866788342414424" lon="12.202455177144456"><ele>-5.6</ele><time>2026-03-28T12:14:59.999Z</time></trkpt><trkpt lat="44.866745110137686" lon="12.202581215907134"><ele>-5.4</ele><time>2026-03-28T12:15:01.999Z</time></trkpt><trkpt lat="44.866705154661524" lon="12.202704529466528"><ele>-5.2</ele><time>2026-03-28T12:15:03.999Z</time></trkpt><trkpt lat="44.866670759112836" lon="12.202826665752573"><ele>-5.0</ele><time>2026-03-28T12:15:05.999Z</time></trkpt><trkpt lat="44.8666346111108" lon="12.202940569491938"><ele>-5.0</ele><time>2026-03-28T12:15:07.999Z</time></trkpt><trkpt lat="44.866594536064774" lon="12.20305343889232"><ele>-5.0</ele><time>2026-03-28T12:15:09.999Z</time></trkpt><trkpt lat="44.866555556394054" lon="12.203162046125165"><ele>-5.0</ele><time>2026-03-28T12:15:11.999Z</time></trkpt><trkpt lat="44.86651844781537" lon="12.203272904039254"><ele>-5.0</ele><time>2026-03-28T12:15:13.999Z</time></trkpt><trkpt lat="44.8664798078945" lon="12.203388302772128"><ele>-5.0</ele><time>2026-03-28T12:15:15.999Z</time></trkpt><trkpt lat="44.86644287322432" lon="12.203503471420474"><ele>-5.0</ele><time>2026-03-28T12:15:17.999Z</time></trkpt><trkpt lat="44.86640679227001" lon="12.203618144797668"><ele>-4.833333333333334</ele><time>2026-03-28T12:15:19.999Z</time></trkpt><trkpt lat="44.86636774358935" lon="12.203731403077937"><ele>-4.666666666666667</ele><time>2026-03-28T12:15:21.999Z</time></trkpt><trkpt lat="44.86632947828528" lon="12.20384885161295"><ele>-4.5</ele><time>2026-03-28T12:15:23.999Z</time></trkpt><trkpt lat="44.866293482847986" lon="12.203961582380655"><ele>-4.333333333333333</ele><time>2026-03-28T12:15:25.999Z</time></trkpt><trkpt lat="44.86625281261696" lon="12.20407575856509"><ele>-4.166666666666666</ele><time>2026-03-28T12:15:27.999Z</time></trkpt><trkpt lat="44.866214155564755" lon="12.204190846973779"><ele>-4.0</ele><time>2026-03-28T12:15:29.999Z</time></trkpt><trkpt lat="44.8661753396529" lon="12.204309450027571"><ele>-4.0</ele><time>2026-03-28T12:15:31.999Z</time></trkpt><trkpt lat="44.86613879910475" lon="12.204430246621982"><ele>-4.0</ele><time>2026-03-28T12:15:33.999Z</time></trkpt><trkpt lat="44.86609990662567" lon="12.20455194054161"><ele>-4.0</ele><time>2026-03-28T12:15:35.999Z</time></trkpt><trkpt lat="44.866059763824865" lon="12.204673500293566"><ele>-4.0</ele><time>2026-03-28T12:15:37.999Z</time></trkpt><trkpt lat="44.86601973311423" lon="12.204796193998568"><ele>-4.0</ele><time>2026-03-28T12:15:39.999Z</time></trkpt><trkpt lat="44.86598875355294" lon="12.204924653250695"><ele>-3.833333333333333</ele><time>2026-03-28T12:15:42Z</time></trkpt><trkpt lat="44.86595559901207" lon="12.205042874427757"><ele>-3.6666666666666665</ele><time>2026-03-28T12:15:44Z</time></trkpt><trkpt lat="44.86591967730186" lon="12.20515184567427"><ele>-3.5</ele><time>2026-03-28T12:15:46Z</time></trkpt><trkpt lat="44.86589619564662" lon="12.205260890268649"><ele>-3.333333333333333</ele><time>2026-03-28T12:15:48Z</time></trkpt><trkpt lat="44.8658773085586" lon="12.205371785935672"><ele>-3.1666666666666665</ele><time>2026-03-28T12:15:50Z</time></trkpt><trkpt lat="44.86583658605113" lon="12.205462488969092"><ele>-3.0</ele><time>2026-03-28T12:15:52Z</time></trkpt><trkpt lat="44.8658103228013" lon="12.20555882095528"><ele>-2.8333333333333335</ele><time>2026-03-28T12:15:54Z</time></trkpt><trkpt lat="44.86577229780739" lon="12.205639932712012"><ele>-2.6666666666666665</ele><time>2026-03-28T12:15:56Z</time></trkpt><trkpt lat="44.86573515649537" lon="12.205721641598851"><ele>-2.5</ele><time>2026-03-28T12:15:58Z</time></trkpt><trkpt lat="44.86569615860717" lon="12.20582105325762"><ele>-2.333333333333333</ele><time>2026-03-28T12:16:00Z</time></trkpt><trkpt lat="44.86567127963347" lon="12.20592212812098"><ele>-2.1666666666666665</ele><time>2026-03-28T12:16:02Z</time></trkpt><trkpt lat="44.86564292263225" lon="12.206026228119038"><ele>-2.0</ele><time>2026-03-28T12:16:04Z</time></trkpt><trkpt lat="44.865606559134534" lon="12.206122638665065"><ele>-2.0</ele><time>2026-03-28T12:16:06Z</time></trkpt><trkpt lat="44.86558559000403" lon="12.206221241179081"><ele>-1.9999999999999998</ele><time>2026-03-28T12:16:08Z</time></trkpt><trkpt lat="44.86556160443437" lon="12.206306073497014"><ele>-2.0</ele><time>2026-03-28T12:16:10Z</time></trkpt><trkpt lat="44.8655448229314" lon="12.20639636382511"><ele>-2.0</ele><time>2026-03-28T12:16:12Z</time></trkpt><trkpt lat="44.86551289156048" lon="12.206473767293975"><ele>-1.9999999999999998</ele><time>2026-03-28T12:16:14Z</time></trkpt><trkpt lat="44.865487309420224" lon="12.206566268343794"><ele>-2.0</ele><time>2026-03-28T12:16:16Z</time></trkpt><trkpt lat="44.86545460228229" lon="12.206677431426167"><ele>-2.0</ele><time>2026-03-28T12:16:18Z</time></trkpt><trkpt lat="44.86541879723065" lon="12.206796201737554"><ele>-2.1666666666666665</ele><time>2026-03-28T12:16:20Z</time></trkpt><trkpt lat="44.865383596363294" lon="12.206915482688554"><ele>-2.333333333333333</ele><time>2026-03-28T12:16:22Z</time></trkpt><trkpt lat="44.865344320624864" lon="12.207028239434386"><ele>-2.5</ele><time>2026-03-28T12:16:24Z</time></trkpt><trkpt lat="44.865308306498754" lon="12.207147732952661"><ele>-2.6666666666666665</ele><time>2026-03-28T12:16:26Z</time></trkpt><trkpt lat="44.8652762293802" lon="12.20725550306216"><ele>-2.8333333333333335</ele><time>2026-03-28T12:16:28Z</time></trkpt><trkpt lat="44.865237959994765" lon="12.20736604456555"><ele>-3.0</ele><time>2026-03-28T12:16:30Z</time></trkpt><trkpt lat="44.86520259163901" lon="12.20748141835798"><ele>-3.0</ele><time>2026-03-28T12:16:32Z</time></trkpt><trkpt lat="44.86516356626816" lon="12.207597185720969"><ele>-3.0</ele><time>2026-03-28T12:16:34Z</time></trkpt><trkpt lat="44.86512545704359" lon="12.207711689419803"><ele>-3.0</ele><time>2026-03-28T12:16:36Z</time></trkpt><trkpt lat="44.86509394908935" lon="12.207819387861102"><ele>-3.0</ele><time>2026-03-28T12:16:38Z</time></trkpt><trkpt lat="44.86505821069061" lon="12.207921382610914"><ele>-3.0</ele><time>2026-03-28T12:16:40Z</time></trkpt><trkpt lat="44.865023774245834" lon="12.208024137458352"><ele>-3.0</ele><time>2026-03-28T12:16:42Z</time></trkpt><trkpt lat="44.86499579453937" lon="12.208117077092622"><ele>-3.1428571428571423</ele><time>2026-03-28T12:16:44Z</time></trkpt><trkpt lat="44.86496578416001" lon="12.208203705586467"><ele>-3.2857142857142856</ele><time>2026-03-28T12:16:46Z</time></trkpt><trkpt lat="44.86493173577544" lon="12.208302528590352"><ele>-3.4285714285714284</ele><time>2026-03-28T12:16:48Z</time></trkpt><trkpt lat="44.86490204288653" lon="12.208396745051704"><ele>-3.571428571428571</ele><time>2026-03-28T12:16:50Z</time></trkpt><trkpt lat="44.86487698982034" lon="12.208487560352232"><ele>-3.714285714285714</ele><time>2026-03-28T12:16:52Z</time></trkpt><trkpt lat="44.864850017877714" lon="12.208568538664512"><ele>-3.8571428571428568</ele><time>2026-03-28T12:16:54Z</time></trkpt><trkpt lat="44.86481783619226" lon="12.20866228268083"><ele>-4.0</ele><time>2026-03-28T12:16:56Z</time></trkpt><trkpt lat="44.86477632692971" lon="12.208760725676298"><ele>-3.9999999999999996</ele><time>2026-03-28T12:16:58Z</time></trkpt><trkpt lat="44.86474545735335" lon="12.208845959778694"><ele>-4.0</ele><time>2026-03-28T12:17:00Z</time></trkpt><trkpt lat="44.86470432508212" lon="12.208957119320615"><ele>-4.0</ele><time>2026-03-28T12:17:03Z</time></trkpt><trkpt lat="44.86467755074376" lon="12.209047783801019"><ele>-4.0</ele><time>2026-03-28T12:17:05Z</time></trkpt><trkpt lat="44.8646417135668" lon="12.209162600615816"><ele>-3.9999999999999996</ele><time>2026-03-28T12:17:08Z</time></trkpt><trkpt lat="44.86461919122411" lon="12.209257231400123"><ele>-4.0</ele><time>2026-03-28T12:17:10Z</time></trkpt><trkpt lat="44.86458856360005" lon="12.209374476551192"><ele>-3.714285714285714</ele><time>2026-03-28T12:17:13Z</time></trkpt><trkpt lat="44.864560580557466" lon="12.209464864220486"><ele>-3.428571428571428</ele><time>2026-03-28T12:17:15Z</time></trkpt><trkpt lat="44.864528020681355" lon="12.209565515916875"><ele>-3.142857142857143</ele><time>2026-03-28T12:17:16.999Z</time></trkpt><trkpt lat="44.864498310336025" lon="12.20966346741862"><ele>-2.8571428571428568</ele><time>2026-03-28T12:17:18.999Z</time></trkpt><trkpt lat="44.8644697845419" lon="12.20974468268887"><ele>-2.571428571428571</ele><time>2026-03-28T12:17:20.999Z</time></trkpt><trkpt lat="44.86444054284455" lon="12.209834689398637"><ele>-2.2857142857142856</ele><time>2026-03-28T12:17:22.999Z</time></trkpt><trkpt lat="44.86440949937696" lon="12.209925802282164"><ele>-2.0</ele><time>2026-03-28T12:17:24.999Z</time></trkpt><trkpt lat="44.86437517596159" lon="12.210037146464199"><ele>-1.9999999999999998</ele><time>2026-03-28T12:17:26.999Z</time></trkpt><trkpt lat="44.86434497104879" lon="12.210134772035637"><ele>-2.0</ele><time>2026-03-28T12:17:28.999Z</time></trkpt><trkpt lat="44.864313428127275" lon="12.210225256247812"><ele>-2.0</ele><time>2026-03-28T12:17:30.999Z</time></trkpt><trkpt lat="44.864285598392996" lon="12.210311081530518"><ele>-2.0</ele><time>2026-03-28T12:17:32.999Z</time></trkpt><trkpt lat="44.86425140110235" lon="12.210417413590905"><ele>-1.9999999999999998</ele><time>2026-03-28T12:17:34.999Z</time></trkpt><trkpt lat="44.864211231720084" lon="12.21052885795821"><ele>-2.0</ele><time>2026-03-28T12:17:36.999Z</time></trkpt><trkpt lat="44.864179862427825" lon="12.210630146432292"><ele>-2.333333333333333</ele><time>2026-03-28T12:17:38.999Z</time></trkpt><trkpt lat="44.86414260465734" lon="12.210719164857919"><ele>-2.6666666666666665</ele><time>2026-03-28T12:17:40.999Z</time></trkpt><trkpt lat="44.86410839205644" lon="12.210815171482025"><ele>-3.0</ele><time>2026-03-28T12:17:42.999Z</time></trkpt><trkpt lat="44.86407283348673" lon="12.210914424881167"><ele>-3.333333333333333</ele><time>2026-03-28T12:17:44.999Z</time></trkpt><trkpt lat="44.864036296721736" lon="12.211016608645341"><ele>-3.6666666666666665</ele><time>2026-03-28T12:17:47Z</time></trkpt><trkpt lat="44.863998494064916" lon="12.211114339609328"><ele>-4.0</ele><time>2026-03-28T12:17:49Z</time></trkpt><trkpt lat="44.86396135665314" lon="12.211214744425812"><ele>-3.9999999999999996</ele><time>2026-03-28T12:17:51Z</time></trkpt><trkpt lat="44.863925335235166" lon="12.211318425210612"><ele>-4.0</ele><time>2026-03-28T12:17:53Z</time></trkpt><trkpt lat="44.86388652215212" lon="12.211428717473348"><ele>-4.0</ele><time>2026-03-28T12:17:55Z</time></trkpt><trkpt lat="44.863834495472325" lon="12.211512789344951"><ele>-4.0</ele><time>2026-03-28T12:17:57Z</time></trkpt><trkpt lat="44.86381514251985" lon="12.21163259489696"><ele>-3.9999999999999996</ele><time>2026-03-28T12:17:59Z</time></trkpt><trkpt lat="44.86378137569695" lon="12.211717416005342"><ele>-4.0</ele><time>2026-03-28T12:18:01Z</time></trkpt><trkpt lat="44.86375762930029" lon="12.211811915538613"><ele>-3.833333333333333</ele><time>2026-03-28T12:18:03Z</time></trkpt><trkpt lat="44.86371447601413" lon="12.211937885550478"><ele>-3.6666666666666665</ele><time>2026-03-28T12:18:06Z</time></trkpt><trkpt lat="44.8636935432805" lon="12.21204536992661"><ele>-3.5</ele><time>2026-03-28T12:18:08Z</time></trkpt><trkpt lat="44.863661680846405" lon="12.212155442133575"><ele>-3.333333333333333</ele><time>2026-03-28T12:18:10Z</time></trkpt><trkpt lat="44.8636398005062" lon="12.212252761402345"><ele>-3.1666666666666665</ele><time>2026-03-28T12:18:12Z</time></trkpt><trkpt lat="44.86360574239647" lon="12.212371452521449"><ele>-3.0</ele><time>2026-03-28T12:18:15Z</time></trkpt><trkpt lat="44.86357567393916" lon="12.212474731130884"><ele>-2.9999999999999996</ele><time>2026-03-28T12:18:18Z</time></trkpt><trkpt lat="44.863538120753034" lon="12.212575863002183"><ele>-3.0</ele><time>2026-03-28T12:18:21Z</time></trkpt><trkpt lat="44.863509948812634" lon="12.212667558033182"><ele>-3.0</ele><time>2026-03-28T12:18:25Z</time></trkpt><trkpt lat="44.863484946500364" lon="12.21274923108096"><ele>-3.0</ele><time>2026-03-28T12:18:28Z</time></trkpt><trkpt lat="44.86345814069173" lon="12.212833013062562"><ele>-3.0</ele><time>2026-03-28T12:18:31Z</time></trkpt><trkpt lat="44.863430751280106" lon="12.212918988456991"><ele>-2.9999999999999996</ele><time>2026-03-28T12:18:33Z</time></trkpt><trkpt lat="44.86339237424839" lon="12.213028397808984"><ele>-3.0</ele><time>2026-03-28T12:18:36Z</time></trkpt><trkpt lat="44.86335240363228" lon="12.213111997444468"><ele>-3.0</ele><time>2026-03-28T12:18:40Z</time></trkpt><trkpt lat="44.86332394403672" lon="12.213211567613266"><ele>-3.0</ele><time>2026-03-28T12:18:44Z</time></trkpt><trkpt lat="44.86330027315394" lon="12.213310004271422"><ele>-3.0</ele><time>2026-03-28T12:18:47Z</time></trkpt><trkpt lat="44.86326545018989" lon="12.213423477126515"><ele>-3.0</ele><time>2026-03-28T12:18:50Z</time></trkpt><trkpt lat="44.86323482075288" lon="12.213505961097505"><ele>-3.0</ele><time>2026-03-28T12:18:52Z</time></trkpt><trkpt lat="44.863196140676465" lon="12.213619956347232"><ele>-3.0</ele><time>2026-03-28T12:18:55Z</time></trkpt><trkpt lat="44.86316268206273" lon="12.213728240654273"><ele>-3.0</ele><time>2026-03-28T12:18:58Z</time></trkpt><trkpt lat="44.863121018315816" lon="12.213849734052433"><ele>-3.0</ele><time>2026-03-28T12:19:01Z</time></trkpt><trkpt lat="44.86309161824407" lon="12.21393409227163"><ele>-3.0</ele><time>2026-03-28T12:19:03Z</time></trkpt><trkpt lat="44.86305335724954" lon="12.214034442159827"><ele>-3.0</ele><time>2026-03-28T12:19:06Z</time></trkpt><trkpt lat="44.86303071813281" lon="12.21411738014224"><ele>-3.0</ele><time>2026-03-28T12:19:08Z</time></trkpt><trkpt lat="44.862994797746964" lon="12.214233933282818"><ele>-3.0</ele><time>2026-03-28T12:19:10.999Z</time></trkpt><trkpt lat="44.86295237878524" lon="12.214352621002519"><ele>-2.9999999999999996</ele><time>2026-03-28T12:19:13.999Z</time></trkpt><trkpt lat="44.86292219451274" lon="12.214430574834417"><ele>-3.0</ele><time>2026-03-28T12:19:17.999Z</time></trkpt><trkpt lat="44.86288808261458" lon="12.214507985214098"><ele>-3.0</ele><time>2026-03-28T12:19:20.999Z</time></trkpt><trkpt lat="44.862870374295014" lon="12.214600775644744"><ele>-3.0</ele><time>2026-03-28T12:19:23.999Z</time></trkpt><trkpt lat="44.86283494418519" lon="12.21470605925412"><ele>-3.0</ele><time>2026-03-28T12:19:27.999Z</time></trkpt><trkpt lat="44.862796866568374" lon="12.214800622655623"><ele>-2.9999999999999996</ele><time>2026-03-28T12:19:30.999Z</time></trkpt><trkpt lat="44.8627726432539" lon="12.214905883537332"><ele>-3.0</ele><time>2026-03-28T12:19:33.999Z</time></trkpt><trkpt lat="44.86273208746141" lon="12.215011321875448"><ele>-2.9999999999999996</ele><time>2026-03-28T12:19:36.999Z</time></trkpt><trkpt lat="44.8627035518188" lon="12.215112768241777"><ele>-3.0</ele><time>2026-03-28T12:19:39.999Z</time></trkpt><trkpt lat="44.862673510675116" lon="12.215194477415265"><ele>-3.0</ele><time>2026-03-28T12:19:41.999Z</time></trkpt><trkpt lat="44.8626486185341" lon="12.215277129113176"><ele>-3.0</ele><time>2026-03-28T12:19:43.999Z</time></trkpt><trkpt lat="44.86260846986188" lon="12.215397299734748"><ele>-3.0</ele><time>2026-03-28T12:19:46.999Z</time></trkpt><trkpt lat="44.86257862987907" lon="12.215476612591651"><ele>-2.9999999999999996</ele><time>2026-03-28T12:19:48.999Z</time></trkpt><trkpt lat="44.862548174295696" lon="12.21555793487102"><ele>-3.0</ele><time>2026-03-28T12:19:50.999Z</time></trkpt><trkpt lat="44.862523537438605" lon="12.21564884518143"><ele>-2.9999999999999996</ele><time>2026-03-28T12:19:53Z</time></trkpt><trkpt lat="44.86249250301328" lon="12.21573157210422"><ele>-3.0</ele><time>2026-03-28T12:19:55Z</time></trkpt><trkpt lat="44.86246552410408" lon="12.215828199018542"><ele>-3.0</ele><time>2026-03-28T12:19:57Z</time></trkpt><trkpt lat="44.862440571785804" lon="12.215917098246948"><ele>-3.0</ele><time>2026-03-28T12:19:59Z</time></trkpt><trkpt lat="44.8624088004874" lon="12.215996455968826"><ele>-3.0</ele><time>2026-03-28T12:20:01Z</time></trkpt><trkpt lat="44.862381046479676" lon="12.216083280084858"><ele>-2.9999999999999996</ele><time>2026-03-28T12:20:03Z</time></trkpt><trkpt lat="44.8623479071995" lon="12.216164965689215"><ele>-3.0</ele><time>2026-03-28T12:20:05Z</time></trkpt><trkpt lat="44.862310658306" lon="12.216286950634606"><ele>-3.0</ele><time>2026-03-28T12:20:08Z</time></trkpt><trkpt lat="44.86228184633676" lon="12.216376268320408"><ele>-3.0</ele><time>2026-03-28T12:20:10Z</time></trkpt><trkpt lat="44.8622472576078" lon="12.216475551991548"><ele>-3.0</ele><time>2026-03-28T12:20:12Z</time></trkpt><trkpt lat="44.86221389680809" lon="12.216584015471332"><ele>-3.0</ele><time>2026-03-28T12:20:15Z</time></trkpt><trkpt lat="44.862184810026186" lon="12.216665943683946"><ele>-3.0</ele><time>2026-03-28T12:20:17Z</time></trkpt><trkpt lat="44.862158142895126" lon="12.216759947560666"><ele>-3.0</ele><time>2026-03-28T12:20:19Z</time></trkpt><trkpt lat="44.86212084946921" lon="12.216862326480182"><ele>-2.6666666666666665</ele><time>2026-03-28T12:20:22Z</time></trkpt><trkpt lat="44.86207991758754" lon="12.216979424030242"><ele>-2.3333333333333335</ele><time>2026-03-28T12:20:25Z</time></trkpt><trkpt lat="44.86205453794661" lon="12.217064128247008"><ele>-2.0</ele><time>2026-03-28T12:20:28Z</time></trkpt><trkpt lat="44.8620291488141" lon="12.21715888781612"><ele>-1.6666666666666665</ele><time>2026-03-28T12:20:30Z</time></trkpt><trkpt lat="44.86199978702868" lon="12.21724920477352"><ele>-1.3333333333333333</ele><time>2026-03-28T12:20:33Z</time></trkpt><trkpt lat="44.86195641288631" lon="12.217351050932358"><ele>-1.0</ele><time>2026-03-28T12:20:36Z</time></trkpt><trkpt lat="44.8619231948427" lon="12.217462720280817"><ele>-0.9999999999999999</ele><time>2026-03-28T12:20:39Z</time></trkpt><trkpt lat="44.86187325576181" lon="12.217570825198685"><ele>-1.0</ele><time>2026-03-28T12:20:42Z</time></trkpt><trkpt lat="44.8618471469396" lon="12.217655546250207"><ele>-1.0</ele><time>2026-03-28T12:20:44Z</time></trkpt><trkpt lat="44.861823730058916" lon="12.21773910755475"><ele>-1.0</ele><time>2026-03-28T12:20:46Z</time></trkpt><trkpt lat="44.86179440742858" lon="12.217840577268502"><ele>-0.9999999999999999</ele><time>2026-03-28T12:20:48Z</time></trkpt><trkpt lat="44.86175426021968" lon="12.217968123205221"><ele>-1.0</ele><time>2026-03-28T12:20:51Z</time></trkpt><trkpt lat="44.861724371264124" lon="12.218060958799146"><ele>-1.1666666666666665</ele><time>2026-03-28T12:20:53Z</time></trkpt><trkpt lat="44.86168625864329" lon="12.218150699420198"><ele>-1.3333333333333333</ele><time>2026-03-28T12:20:55Z</time></trkpt><trkpt lat="44.861645765368316" lon="12.2182771954192"><ele>-1.5</ele><time>2026-03-28T12:20:58Z</time></trkpt><trkpt lat="44.86161714294042" lon="12.21837806055997"><ele>-1.6666666666666665</ele><time>2026-03-28T12:21:00Z</time></trkpt><trkpt lat="44.861586345559914" lon="12.21847955640985"><ele>-1.8333333333333333</ele><time>2026-03-28T12:21:02Z</time></trkpt><trkpt lat="44.861543698528166" lon="12.218579758011384"><ele>-2.0</ele><time>2026-03-28T12:21:04Z</time></trkpt><trkpt lat="44.86150967817249" lon="12.218686875197413"><ele>-2.1666666666666665</ele><time>2026-03-28T12:21:06Z</time></trkpt><trkpt lat="44.861481561008965" lon="12.21877219531365"><ele>-2.333333333333333</ele><time>2026-03-28T12:21:08Z</time></trkpt><trkpt lat="44.86144468647271" lon="12.218890532816456"><ele>-2.5</ele><time>2026-03-28T12:21:11Z</time></trkpt><trkpt lat="44.86141593941928" lon="12.218987890405002"><ele>-2.6666666666666665</ele><time>2026-03-28T12:21:13Z</time></trkpt><trkpt lat="44.861384086533846" lon="12.219093109813885"><ele>-2.8333333333333335</ele><time>2026-03-28T12:21:15Z</time></trkpt><trkpt lat="44.86134827585669" lon="12.219187620252262"><ele>-3.0</ele><time>2026-03-28T12:21:17Z</time></trkpt><trkpt lat="44.86131564782496" lon="12.219266914094568"><ele>-3.1666666666666665</ele><time>2026-03-28T12:21:18.999Z</time></trkpt><trkpt lat="44.86128397895531" lon="12.219384681727744"><ele>-3.333333333333333</ele><time>2026-03-28T12:21:21.999Z</time></trkpt><trkpt lat="44.861252716729155" lon="12.219480462185297"><ele>-3.5</ele><time>2026-03-28T12:21:23.999Z</time></trkpt><trkpt lat="44.86121346140961" lon="12.219594422316232"><ele>-3.6666666666666665</ele><time>2026-03-28T12:21:26.999Z</time></trkpt><trkpt lat="44.8611764613828" lon="12.219703675863807"><ele>-3.833333333333333</ele><time>2026-03-28T12:21:29.999Z</time></trkpt><trkpt lat="44.86114511285177" lon="12.219803911866421"><ele>-4.0</ele><time>2026-03-28T12:21:32.999Z</time></trkpt><trkpt lat="44.86110272425185" lon="12.219911510996507"><ele>-3.714285714285714</ele><time>2026-03-28T12:21:35.999Z</time></trkpt><trkpt lat="44.861061266811056" lon="12.219981060760151"><ele>-3.428571428571428</ele><time>2026-03-28T12:21:38.999Z</time></trkpt><trkpt lat="44.86106434357533" lon="12.220085167534798"><ele>-3.142857142857143</ele><time>2026-03-28T12:21:59Z</time></trkpt><trkpt lat="44.861049869566195" lon="12.220174916935203"><ele>-2.8571428571428568</ele><time>2026-03-28T12:22:14Z</time></trkpt><trkpt lat="44.861055336451805" lon="12.220271156768016"><ele>-2.571428571428571</ele><time>2026-03-28T12:22:22Z</time></trkpt><trkpt lat="44.86109147858694" lon="12.22035442472317"><ele>-2.2857142857142856</ele><time>2026-03-28T12:22:30Z</time></trkpt><trkpt lat="44.8611492555947" lon="12.220407072249456"><ele>-2.0</ele><time>2026-03-28T12:22:38Z</time></trkpt><trkpt lat="44.861252403476584" lon="12.220430224047394"><ele>-1.9999999999999998</ele><time>2026-03-28T12:22:56Z</time></trkpt><trkpt lat="44.86131931234647" lon="12.220429951611232"><ele>-2.0</ele><time>2026-03-28T12:23:03Z</time></trkpt><trkpt lat="44.86138678423006" lon="12.220426387330935"><ele>-2.0</ele><time>2026-03-28T12:23:11Z</time></trkpt><trkpt lat="44.86147520774719" lon="12.220408471617617"><ele>-2.0</ele><time>2026-03-28T12:23:37.999Z</time></trkpt><trkpt lat="44.861540183566454" lon="12.220402989059174"><ele>-1.9999999999999998</ele><time>2026-03-28T12:23:40.999Z</time></trkpt><trkpt lat="44.86162704057984" lon="12.220403554853398"><ele>-2.0</ele><time>2026-03-28T12:23:44.999Z</time></trkpt><trkpt lat="44.861740099947504" lon="12.22039256148642"><ele>-2.0</ele><time>2026-03-28T12:23:47.999Z</time></trkpt><trkpt lat="44.86181283785005" lon="12.220380957341227"><ele>-1.9999999999999998</ele><time>2026-03-28T12:23:49.999Z</time></trkpt><trkpt lat="44.86187611725463" lon="12.220375901312252"><ele>-2.0</ele><time>2026-03-28T12:23:51.999Z</time></trkpt><trkpt lat="44.861939852942314" lon="12.220372155778488"><ele>-2.0</ele><time>2026-03-28T12:23:53.999Z</time></trkpt><trkpt lat="44.862012466428936" lon="12.220359687204926"><ele>-1.9999999999999998</ele><time>2026-03-28T12:23:56.999Z</time></trkpt><trkpt lat="44.862104958760284" lon="12.220357557284627"><ele>-2.0</ele><time>2026-03-28T12:23:59.999Z</time></trkpt><trkpt lat="44.86217667098383" lon="12.220342742583302"><ele>-2.0</ele><time>2026-03-28T12:24:01.999Z</time></trkpt><trkpt lat="44.86226132410871" lon="12.220342311306572"><ele>-1.9999999999999998</ele><time>2026-03-28T12:24:05Z</time></trkpt><trkpt lat="44.86234665991816" lon="12.220337202262396"><ele>-2.0</ele><time>2026-03-28T12:24:08Z</time></trkpt><trkpt lat="44.86244159965228" lon="12.220329841448919"><ele>-2.0</ele><time>2026-03-28T12:24:11Z</time></trkpt><trkpt lat="44.862520866623264" lon="12.220324491130427"><ele>-2.0</ele><time>2026-03-28T12:24:13Z</time></trkpt><trkpt lat="44.86258811450733" lon="12.220317310111112"><ele>-1.9999999999999998</ele><time>2026-03-28T12:24:15Z</time></trkpt><trkpt lat="44.862668098034824" lon="12.220308701363688"><ele>-2.0</ele><time>2026-03-28T12:24:18Z</time></trkpt><trkpt lat="44.86273669247442" lon="12.220306574053856"><ele>-2.333333333333333</ele><time>2026-03-28T12:24:21Z</time></trkpt><trkpt lat="44.862801399508676" lon="12.220267137020247"><ele>-2.6666666666666665</ele><time>2026-03-28T12:24:26Z</time></trkpt><trkpt lat="44.86288120642884" lon="12.220300809464794"><ele>-3.0</ele><time>2026-03-28T12:24:30Z</time></trkpt><trkpt lat="44.862962698187886" lon="12.220285546530734"><ele>-3.333333333333333</ele><time>2026-03-28T12:24:33Z</time></trkpt><trkpt lat="44.86304894940759" lon="12.220281992940054"><ele>-3.6666666666666665</ele><time>2026-03-28T12:24:36Z</time></trkpt><trkpt lat="44.8631233645748" lon="12.22027685720131"><ele>-4.0</ele><time>2026-03-28T12:24:39Z</time></trkpt><trkpt lat="44.863211930793696" lon="12.220265906766183"><ele>-4.0</ele><time>2026-03-28T12:24:42Z</time></trkpt><trkpt lat="44.863276750863214" lon="12.220261504099708"><ele>-3.9999999999999996</ele><time>2026-03-28T12:24:44Z</time></trkpt><trkpt lat="44.863343176532" lon="12.22025166788258"><ele>-4.0</ele><time>2026-03-28T12:24:47Z</time></trkpt><trkpt lat="44.86342875975202" lon="12.220235458009203"><ele>-4.0</ele><time>2026-03-28T12:24:50Z</time></trkpt><trkpt lat="44.86349771806468" lon="12.220224019146304"><ele>-3.9999999999999996</ele><time>2026-03-28T12:24:52Z</time></trkpt><trkpt lat="44.86357756865859" lon="12.220210860630058"><ele>-4.0</ele><time>2026-03-28T12:24:55Z</time></trkpt><trkpt lat="44.863651038303026" lon="12.220186021545382"><ele>-4.0</ele><time>2026-03-28T12:24:58Z</time></trkpt><trkpt lat="44.86372989135553" lon="12.220173046242882"><ele>-3.833333333333333</ele><time>2026-03-28T12:25:01Z</time></trkpt><trkpt lat="44.863787243938" lon="12.22023764981914"><ele>-3.6666666666666665</ele><time>2026-03-28T12:25:04Z</time></trkpt><trkpt lat="44.86379473385139" lon="12.220344188093566"><ele>-3.5</ele><time>2026-03-28T12:25:16Z</time></trkpt><trkpt lat="44.863881026715916" lon="12.220369482009017"><ele>-3.333333333333333</ele><time>2026-03-28T12:25:20Z</time></trkpt><trkpt lat="44.863960301467024" lon="12.220349123822647"><ele>-3.1666666666666665</ele><time>2026-03-28T12:25:23Z</time></trkpt><trkpt lat="44.864022669044196" lon="12.220335618214506"><ele>-3.0</ele><time>2026-03-28T12:25:24.999Z</time></trkpt><trkpt lat="44.86410044417351" lon="12.220333562104063"><ele>-2.9999999999999996</ele><time>2026-03-28T12:25:27.999Z</time></trkpt><trkpt lat="44.86416427747716" lon="12.220334239203888"><ele>-3.0</ele><time>2026-03-28T12:25:30.999Z</time></trkpt><trkpt lat="44.86424202309105" lon="12.220321508730471"><ele>-3.0</ele><time>2026-03-28T12:25:33.999Z</time></trkpt><trkpt lat="44.86433280654351" lon="12.220317752458945"><ele>-3.0</ele><time>2026-03-28T12:25:36.999Z</time></trkpt><trkpt lat="44.86440839374091" lon="12.22031312127167"><ele>-3.0</ele><time>2026-03-28T12:25:39.999Z</time></trkpt><trkpt lat="44.86447224009237" lon="12.220308121547756"><ele>-2.9999999999999996</ele><time>2026-03-28T12:25:41.999Z</time></trkpt><trkpt lat="44.864540859029205" lon="12.22030039864156"><ele>-3.0</ele><time>2026-03-28T12:25:43.999Z</time></trkpt><trkpt lat="44.864627934678126" lon="12.220284998793932"><ele>-3.0</ele><time>2026-03-28T12:25:46.999Z</time></trkpt><trkpt lat="44.86471955852772" lon="12.220281302219883"><ele>-3.0</ele><time>2026-03-28T12:25:49.999Z</time></trkpt><trkpt lat="44.86480463991507" lon="12.220274170871098"><ele>-3.0</ele><time>2026-03-28T12:25:52.999Z</time></trkpt><trkpt lat="44.86487149702838" lon="12.220304919444573"><ele>-3.0</ele><time>2026-03-28T12:25:55.999Z</time></trkpt><trkpt lat="44.86491257427619" lon="12.220387480417651"><ele>-3.0</ele><time>2026-03-28T12:25:58.999Z</time></trkpt><trkpt lat="44.86490286799804" lon="12.220478262578679"><ele>-3.0</ele><time>2026-03-28T12:26:00.999Z</time></trkpt><trkpt lat="44.86486240076718" lon="12.220580508823913"><ele>-2.6666666666666665</ele><time>2026-03-28T12:26:03.999Z</time></trkpt><trkpt lat="44.86483279246582" lon="12.220664175732603"><ele>-2.3333333333333335</ele><time>2026-03-28T12:26:05.999Z</time></trkpt><trkpt lat="44.86479494384776" lon="12.220778074727077"><ele>-2.0</ele><time>2026-03-28T12:26:08.999Z</time></trkpt><trkpt lat="44.864760480207515" lon="12.220904137501142"><ele>-1.6666666666666665</ele><time>2026-03-28T12:26:12Z</time></trkpt><trkpt lat="44.86473306311052" lon="12.220987480489464"><ele>-1.3333333333333333</ele><time>2026-03-28T12:26:14Z</time></trkpt><trkpt lat="44.86468460582014" lon="12.22109131142968"><ele>-1.0</ele><time>2026-03-28T12:26:17Z</time></trkpt><trkpt lat="44.86466160933998" lon="12.221182462968436"><ele>-0.9999999999999999</ele><time>2026-03-28T12:26:19Z</time></trkpt><trkpt lat="44.86462574463783" lon="12.22129941607104"><ele>-1.0</ele><time>2026-03-28T12:26:22Z</time></trkpt><trkpt lat="44.86459060507643" lon="12.221424290238398"><ele>-1.0</ele><time>2026-03-28T12:26:25Z</time></trkpt><trkpt lat="44.8645523487068" lon="12.221516151016626"><ele>-1.0</ele><time>2026-03-28T12:26:27Z</time></trkpt><trkpt lat="44.86452497629223" lon="12.22161690251083"><ele>-0.9999999999999999</ele><time>2026-03-28T12:26:29Z</time></trkpt><trkpt lat="44.8644950180208" lon="12.221703644209281"><ele>-1.0</ele><time>2026-03-28T12:26:31Z</time></trkpt><trkpt lat="44.8644620739352" lon="12.221789279879896"><ele>-0.8333333333333333</ele><time>2026-03-28T12:26:33Z</time></trkpt><trkpt lat="44.86443996134474" lon="12.221874888297116"><ele>-0.6666666666666666</ele><time>2026-03-28T12:26:35Z</time></trkpt><trkpt lat="44.86439769983098" lon="12.221978324411008"><ele>-0.5</ele><time>2026-03-28T12:26:38Z</time></trkpt><trkpt lat="44.864372086824126" lon="12.222093456381776"><ele>-0.3333333333333333</ele><time>2026-03-28T12:26:41Z</time></trkpt><trkpt lat="44.86434094807431" lon="12.22218851119707"><ele>-0.16666666666666666</ele><time>2026-03-28T12:26:43Z</time></trkpt><trkpt lat="44.864312055785305" lon="12.22228316325978"><ele>0.0</ele><time>2026-03-28T12:26:45Z</time></trkpt><trkpt lat="44.864276114246664" lon="12.222368316188113"><ele>-0.3333333333333333</ele><time>2026-03-28T12:26:47Z</time></trkpt><trkpt lat="44.8642540558525" lon="12.222464258232929"><ele>-0.6666666666666666</ele><time>2026-03-28T12:26:49Z</time></trkpt><trkpt lat="44.86422019877379" lon="12.22256831951425"><ele>-1.0</ele><time>2026-03-28T12:26:51Z</time></trkpt><trkpt lat="44.86418349825206" lon="12.222681503592263"><ele>-1.3333333333333333</ele><time>2026-03-28T12:26:53Z</time></trkpt><trkpt lat="44.86415120614631" lon="12.22278106371017"><ele>-1.6666666666666665</ele><time>2026-03-28T12:26:55Z</time></trkpt><trkpt lat="44.86411586360171" lon="12.222886423811772"><ele>-2.0</ele><time>2026-03-28T12:26:57Z</time></trkpt><trkpt lat="44.864084143239694" lon="12.22298548653056"><ele>-2.0</ele><time>2026-03-28T12:26:59Z</time></trkpt><trkpt lat="44.86405170218126" lon="12.223073365044893"><ele>-1.9999999999999998</ele><time>2026-03-28T12:27:01Z</time></trkpt><trkpt lat="44.8640210022613" lon="12.223169690505385"><ele>-2.0</ele><time>2026-03-28T12:27:03Z</time></trkpt><trkpt lat="44.86398546246338" lon="12.22326647289306"><ele>-2.0</ele><time>2026-03-28T12:27:05Z</time></trkpt><trkpt lat="44.86395323228464" lon="12.223344967564246"><ele>-1.9999999999999998</ele><time>2026-03-28T12:27:07Z</time></trkpt><trkpt lat="44.86392512497895" lon="12.223436782164972"><ele>-2.0</ele><time>2026-03-28T12:27:09Z</time></trkpt><trkpt lat="44.86388570745408" lon="12.223517824491838"><ele>-2.0</ele><time>2026-03-28T12:27:11Z</time></trkpt><trkpt lat="44.86385747125932" lon="12.223639401120847"><ele>-1.9999999999999998</ele><time>2026-03-28T12:27:14Z</time></trkpt><trkpt lat="44.86384766138094" lon="12.22374807009241"><ele>-2.0</ele><time>2026-03-28T12:27:17Z</time></trkpt><trkpt lat="44.86389812290809" lon="12.223833741400073"><ele>-2.0</ele><time>2026-03-28T12:27:20Z</time></trkpt><trkpt lat="44.863963374151425" lon="12.223864925329092"><ele>-2.0</ele><time>2026-03-28T12:27:24Z</time></trkpt><trkpt lat="44.864028272579844" lon="12.223896860904963"><ele>-1.9999999999999998</ele><time>2026-03-28T12:27:27Z</time></trkpt><trkpt lat="44.86404885998564" lon="12.224021133153038"><ele>-2.0</ele><time>2026-03-28T12:27:31Z</time></trkpt><trkpt lat="44.86401363023118" lon="12.224136861615921"><ele>-2.0</ele><time>2026-03-28T12:27:33.999Z</time></trkpt><trkpt lat="44.86397172467938" lon="12.224248268656646"><ele>-1.9999999999999998</ele><time>2026-03-28T12:27:36.999Z</time></trkpt><trkpt lat="44.86393981346922" lon="12.224333114861148"><ele>-2.0</ele><time>2026-03-28T12:27:38.999Z</time></trkpt><trkpt lat="44.863901107932364" lon="12.224442784368504"><ele>-2.0</ele><time>2026-03-28T12:27:41.999Z</time></trkpt><trkpt lat="44.86387835904969" lon="12.224525618300618"><ele>-1.9999999999999998</ele><time>2026-03-28T12:27:43.999Z</time></trkpt><trkpt lat="44.86383583656184" lon="12.224603778115988"><ele>-2.0</ele><time>2026-03-28T12:27:45.999Z</time></trkpt><trkpt lat="44.86377391735399" lon="12.224641084451164"><ele>-2.0</ele><time>2026-03-28T12:27:47.999Z</time></trkpt><trkpt lat="44.863718366540844" lon="12.224685396959597"><ele>-1.9999999999999998</ele><time>2026-03-28T12:27:49.999Z</time></trkpt><trkpt lat="44.86363284207065" lon="12.224733275807168"><ele>-2.0</ele><time>2026-03-28T12:27:52.999Z</time></trkpt><trkpt lat="44.86355207079715" lon="12.224760614304248"><ele>-2.0</ele><time>2026-03-28T12:27:55.999Z</time></trkpt><trkpt lat="44.86345270364097" lon="12.224785267724247"><ele>-2.0</ele><time>2026-03-28T12:27:58.999Z</time></trkpt><trkpt lat="44.8633692285424" lon="12.224799561715717"><ele>-1.9999999999999998</ele><time>2026-03-28T12:28:00.999Z</time></trkpt><trkpt lat="44.8632812812577" lon="12.22481484124947"><ele>-2.0</ele><time>2026-03-28T12:28:02.999Z</time></trkpt><trkpt lat="44.863193473022605" lon="12.224837329950098"><ele>-2.0</ele><time>2026-03-28T12:28:04.999Z</time></trkpt><trkpt lat="44.86310513481283" lon="12.224858701692991"><ele>-2.0</ele><time>2026-03-28T12:28:06.999Z</time></trkpt><trkpt lat="44.86301681272894" lon="12.224876666265164"><ele>-2.0</ele><time>2026-03-28T12:28:08.999Z</time></trkpt><trkpt lat="44.86292757403215" lon="12.224899980566338"><ele>-2.0</ele><time>2026-03-28T12:28:10.999Z</time></trkpt><trkpt lat="44.862836719332876" lon="12.224918530602158"><ele>-2.0</ele><time>2026-03-28T12:28:12.999Z</time></trkpt><trkpt lat="44.862745402798026" lon="12.224943206468291"><ele>-2.0</ele><time>2026-03-28T12:28:14.999Z</time></trkpt><trkpt lat="44.86265498204542" lon="12.224959467770216"><ele>-2.0</ele><time>2026-03-28T12:28:17Z</time></trkpt><trkpt lat="44.86256514927935" lon="12.224983764332872"><ele>-2.0</ele><time>2026-03-28T12:28:19Z</time></trkpt><trkpt lat="44.86247279397373" lon="12.225005503953618"><ele>-2.0</ele><time>2026-03-28T12:28:21Z</time></trkpt><trkpt lat="44.862380238825146" lon="12.225031823999498"><ele>-2.0</ele><time>2026-03-28T12:28:23Z</time></trkpt><trkpt lat="44.8622898413017" lon="12.225046882398432"><ele>-2.0</ele><time>2026-03-28T12:28:25Z</time></trkpt><trkpt lat="44.862195476641" lon="12.225072038873071"><ele>-2.0</ele><time>2026-03-28T12:28:27Z</time></trkpt><trkpt lat="44.86210229374384" lon="12.22509261036266"><ele>-2.0</ele><time>2026-03-28T12:28:29Z</time></trkpt><trkpt lat="44.8620091899128" lon="12.225116303532696"><ele>-2.0</ele><time>2026-03-28T12:28:31Z</time></trkpt><trkpt lat="44.86191344975739" lon="12.22513355263556"><ele>-2.0</ele><time>2026-03-28T12:28:33Z</time></trkpt><trkpt lat="44.86181989875298" lon="12.22515797016507"><ele>-1.8</ele><time>2026-03-28T12:28:35Z</time></trkpt><trkpt lat="44.86172580483085" lon="12.225178855390158"><ele>-1.6</ele><time>2026-03-28T12:28:37Z</time></trkpt><trkpt lat="44.861634882855185" lon="12.225201970072002"><ele>-1.4000000000000001</ele><time>2026-03-28T12:28:39Z</time></trkpt><trkpt lat="44.861543130163795" lon="12.225226411062986"><ele>-1.2000000000000002</ele><time>2026-03-28T12:28:41Z</time></trkpt><trkpt lat="44.86145162627901" lon="12.225243130641656"><ele>-1.0</ele><time>2026-03-28T12:28:43Z</time></trkpt><trkpt lat="44.86135984066958" lon="12.22526745941383"><ele>-1.0</ele><time>2026-03-28T12:28:45Z</time></trkpt><trkpt lat="44.861266102379915" lon="12.225288539078294"><ele>-1.0</ele><time>2026-03-28T12:28:47Z</time></trkpt><trkpt lat="44.86117522571512" lon="12.225307638492664"><ele>-1.0</ele><time>2026-03-28T12:28:49Z</time></trkpt><trkpt lat="44.86108233514747" lon="12.225323390016909"><ele>-1.0</ele><time>2026-03-28T12:28:51Z</time></trkpt><trkpt lat="44.86098655093252" lon="12.225348377806139"><ele>-1.0</ele><time>2026-03-28T12:28:53Z</time></trkpt><trkpt lat="44.86089086459895" lon="12.225367512868347"><ele>-1.4</ele><time>2026-03-28T12:28:55Z</time></trkpt><trkpt lat="44.860792323447406" lon="12.22539210716488"><ele>-1.8</ele><time>2026-03-28T12:28:57Z</time></trkpt><trkpt lat="44.86069500747368" lon="12.225413629960718"><ele>-2.1999999999999997</ele><time>2026-03-28T12:28:59Z</time></trkpt><trkpt lat="44.86059833709521" lon="12.225439451075745"><ele>-2.6</ele><time>2026-03-28T12:29:01Z</time></trkpt><trkpt lat="44.86050270466823" lon="12.225460775186042"><ele>-3.0</ele><time>2026-03-28T12:29:03Z</time></trkpt><trkpt lat="44.860405564460166" lon="12.225485262559616"><ele>-3.0</ele><time>2026-03-28T12:29:05Z</time></trkpt><trkpt lat="44.86030891400963" lon="12.22550618501836"><ele>-3.0</ele><time>2026-03-28T12:29:07Z</time></trkpt><trkpt lat="44.860213276961595" lon="12.225527425542184"><ele>-3.0</ele><time>2026-03-28T12:29:09Z</time></trkpt><trkpt lat="44.860116054981056" lon="12.22554401534306"><ele>-3.0</ele><time>2026-03-28T12:29:11Z</time></trkpt><trkpt lat="44.86001973057625" lon="12.225573045258235"><ele>-3.0</ele><time>2026-03-28T12:29:13Z</time></trkpt><trkpt lat="44.85993005416997" lon="12.225605496769594"><ele>-2.8333333333333335</ele><time>2026-03-28T12:29:15Z</time></trkpt><trkpt lat="44.85984144973998" lon="12.225624715542347"><ele>-2.6666666666666665</ele><time>2026-03-28T12:29:17Z</time></trkpt><trkpt lat="44.85975617391194" lon="12.22563277489286"><ele>-2.5</ele><time>2026-03-28T12:29:19Z</time></trkpt><trkpt lat="44.85967213324811" lon="12.225654449648534"><ele>-2.333333333333333</ele><time>2026-03-28T12:29:21Z</time></trkpt><trkpt lat="44.85958316941367" lon="12.225674199806132"><ele>-2.1666666666666665</ele><time>2026-03-28T12:29:23Z</time></trkpt><trkpt lat="44.859493192461905" lon="12.225697093422868"><ele>-2.0</ele><time>2026-03-28T12:29:25Z</time></trkpt><trkpt lat="44.859399901977845" lon="12.22571467742769"><ele>-2.0</ele><time>2026-03-28T12:29:27Z</time></trkpt><trkpt lat="44.859308905447634" lon="12.225737896060782"><ele>-2.0</ele><time>2026-03-28T12:29:29Z</time></trkpt><trkpt lat="44.859215634122755" lon="12.225750777124992"><ele>-2.0</ele><time>2026-03-28T12:29:31Z</time></trkpt><trkpt lat="44.85912251421743" lon="12.225774619541506"><ele>-2.0</ele><time>2026-03-28T12:29:32.999Z</time></trkpt><trkpt lat="44.85902631427597" lon="12.22579071606766"><ele>-2.0</ele><time>2026-03-28T12:29:34.999Z</time></trkpt><trkpt lat="44.85893143919781" lon="12.225812134409315"><ele>-2.2</ele><time>2026-03-28T12:29:36.999Z</time></trkpt><trkpt lat="44.85883390876808" lon="12.22583253151588"><ele>-2.4000000000000004</ele><time>2026-03-28T12:29:38.999Z</time></trkpt><trkpt lat="44.858738122627486" lon="12.225852135982608"><ele>-2.5999999999999996</ele><time>2026-03-28T12:29:40.999Z</time></trkpt><trkpt lat="44.85864196716726" lon="12.225870278026203"><ele>-2.8</ele><time>2026-03-28T12:29:42.999Z</time></trkpt><trkpt lat="44.858545298952684" lon="12.22589405814538"><ele>-3.0</ele><time>2026-03-28T12:29:44.999Z</time></trkpt><trkpt lat="44.858448022137935" lon="12.225913946019865"><ele>-2.6</ele><time>2026-03-28T12:29:46.999Z</time></trkpt><trkpt lat="44.85835222849332" lon="12.22593610914406"><ele>-2.1999999999999997</ele><time>2026-03-28T12:29:48.999Z</time></trkpt><trkpt lat="44.85825716941848" lon="12.225949410194449"><ele>-1.8</ele><time>2026-03-28T12:29:50.999Z</time></trkpt><trkpt lat="44.85816259708098" lon="12.225971778668981"><ele>-1.4</ele><time>2026-03-28T12:29:52.999Z</time></trkpt><trkpt lat="44.85807050558731" lon="12.225999320218685"><ele>-1.0</ele><time>2026-03-28T12:29:54.999Z</time></trkpt><trkpt lat="44.85797752020267" lon="12.226013752282789"><ele>-1.0</ele><time>2026-03-28T12:29:56.999Z</time></trkpt><trkpt lat="44.85788531853984" lon="12.226033772987284"><ele>-1.0</ele><time>2026-03-28T12:29:58.999Z</time></trkpt><trkpt lat="44.85779406490956" lon="12.226050400873683"><ele>-1.0</ele><time>2026-03-28T12:30:00.999Z</time></trkpt><trkpt lat="44.85769863874486" lon="12.226060189271365"><ele>-1.0</ele><time>2026-03-28T12:30:02.999Z</time></trkpt><trkpt lat="44.85760570091399" lon="12.226085135620687"><ele>-1.0</ele><time>2026-03-28T12:30:04.999Z</time></trkpt><trkpt lat="44.85751128888344" lon="12.226103898393982"><ele>-1.3333333333333333</ele><time>2026-03-28T12:30:06.999Z</time></trkpt><trkpt lat="44.857418216889364" lon="12.226136954745803"><ele>-1.6666666666666665</ele><time>2026-03-28T12:30:08.999Z</time></trkpt><trkpt lat="44.85732885547433" lon="12.226165031884626"><ele>-2.0</ele><time>2026-03-28T12:30:10.999Z</time></trkpt><trkpt lat="44.85724296651735" lon="12.226192004608334"><ele>-2.3333333333333335</ele><time>2026-03-28T12:30:12.999Z</time></trkpt><trkpt lat="44.857160958314765" lon="12.226205448993253"><ele>-2.6666666666666665</ele><time>2026-03-28T12:30:14.999Z</time></trkpt><trkpt lat="44.857082830585895" lon="12.226228200257353"><ele>-3.0</ele><time>2026-03-28T12:30:16.999Z</time></trkpt><trkpt lat="44.85700972631089" lon="12.226251597291393"><ele>-3.0</ele><time>2026-03-28T12:30:18.999Z</time></trkpt><trkpt lat="44.85693682767458" lon="12.226265100563644"><ele>-3.0</ele><time>2026-03-28T12:30:20.999Z</time></trkpt><trkpt lat="44.8568670870576" lon="12.226281951155435"><ele>-3.0</ele><time>2026-03-28T12:30:23Z</time></trkpt><trkpt lat="44.85679058091089" lon="12.226295638003293"><ele>-3.0</ele><time>2026-03-28T12:30:25Z</time></trkpt><trkpt lat="44.85670162426586" lon="12.226326167665858"><ele>-3.0</ele><time>2026-03-28T12:30:27Z</time></trkpt><trkpt lat="44.85661996801839" lon="12.226344783280146"><ele>-3.0</ele><time>2026-03-28T12:30:29Z</time></trkpt><trkpt lat="44.85653961942334" lon="12.226367385888382"><ele>-3.1428571428571423</ele><time>2026-03-28T12:30:31Z</time></trkpt><trkpt lat="44.856466834507536" lon="12.226393843888408"><ele>-3.2857142857142856</ele><time>2026-03-28T12:30:33Z</time></trkpt><trkpt lat="44.85639437732962" lon="12.226413786482986"><ele>-3.4285714285714284</ele><time>2026-03-28T12:30:35Z</time></trkpt><trkpt lat="44.85632608874216" lon="12.226437941417027"><ele>-3.571428571428571</ele><time>2026-03-28T12:30:37Z</time></trkpt><trkpt lat="44.85625322045899" lon="12.226453478290448"><ele>-3.714285714285714</ele><time>2026-03-28T12:30:39Z</time></trkpt><trkpt lat="44.85617515879587" lon="12.22647788836145"><ele>-3.8571428571428568</ele><time>2026-03-28T12:30:41Z</time></trkpt><trkpt lat="44.85610853175053" lon="12.226500650494362"><ele>-4.0</ele><time>2026-03-28T12:30:43Z</time></trkpt><trkpt lat="44.85604498743889" lon="12.226522520200138"><ele>-3.9999999999999996</ele><time>2026-03-28T12:30:45Z</time></trkpt><trkpt lat="44.8559603249256" lon="12.22656052950719"><ele>-4.0</ele><time>2026-03-28T12:30:48Z</time></trkpt><trkpt lat="44.85589725831697" lon="12.226641601725374"><ele>-4.0</ele><time>2026-03-28T12:30:51Z</time></trkpt><trkpt lat="44.8558190521099" lon="12.22665772452717"><ele>-4.0</ele><time>2026-03-28T12:30:54Z</time></trkpt><trkpt lat="44.85575468386312" lon="12.226729727956622"><ele>-3.9999999999999996</ele><time>2026-03-28T12:30:57Z</time></trkpt><trkpt lat="44.85574332492655" lon="12.226839542840352"><ele>-4.0</ele><time>2026-03-28T12:30:59Z</time></trkpt><trkpt lat="44.85576272515265" lon="12.226946938354295"><ele>-3.9999999999999996</ele><time>2026-03-28T12:31:01Z</time></trkpt><trkpt lat="44.855779085347066" lon="12.22704499074662"><ele>-4.0</ele><time>2026-03-28T12:31:03Z</time></trkpt><trkpt lat="44.8557967835437" lon="12.227142566621765"><ele>-4.0</ele><time>2026-03-28T12:31:05Z</time></trkpt><trkpt lat="44.855818481962004" lon="12.227234055222592"><ele>-4.0</ele><time>2026-03-28T12:31:07Z</time></trkpt><trkpt lat="44.85583969337181" lon="12.227337652517507"><ele>-3.9999999999999996</ele><time>2026-03-28T12:31:09Z</time></trkpt><trkpt lat="44.85586446990974" lon="12.227458336230134"><ele>-4.0</ele><time>2026-03-28T12:31:11Z</time></trkpt><trkpt lat="44.85588744653408" lon="12.227582562370369"><ele>-4.0</ele><time>2026-03-28T12:31:13Z</time></trkpt><trkpt lat="44.85591558954476" lon="12.227706723704458"><ele>-4.0</ele><time>2026-03-28T12:31:15Z</time></trkpt><trkpt lat="44.855937372754475" lon="12.227834648405484"><ele>-4.0</ele><time>2026-03-28T12:31:17Z</time></trkpt><trkpt lat="44.85596784303034" lon="12.227957571666776"><ele>-4.0</ele><time>2026-03-28T12:31:19Z</time></trkpt><trkpt lat="44.85599231077922" lon="12.228080883208472"><ele>-4.0</ele><time>2026-03-28T12:31:21Z</time></trkpt><trkpt lat="44.856016141619016" lon="12.22820294027787"><ele>-3.8000000000000003</ele><time>2026-03-28T12:31:23Z</time></trkpt><trkpt lat="44.85603922251028" lon="12.22832611197418"><ele>-3.6000000000000005</ele><time>2026-03-28T12:31:25Z</time></trkpt><trkpt lat="44.85606476887658" lon="12.228447615416655"><ele>-3.4</ele><time>2026-03-28T12:31:27Z</time></trkpt><trkpt lat="44.85609141279099" lon="12.228571008516763"><ele>-3.2</ele><time>2026-03-28T12:31:29Z</time></trkpt><trkpt lat="44.85611304632173" lon="12.228698070789104"><ele>-3.0</ele><time>2026-03-28T12:31:31Z</time></trkpt><trkpt lat="44.85613929895807" lon="12.228821368780968"><ele>-3.0</ele><time>2026-03-28T12:31:33Z</time></trkpt><trkpt lat="44.85616190641229" lon="12.22894386724557"><ele>-3.0</ele><time>2026-03-28T12:31:35Z</time></trkpt><trkpt lat="44.856186857370304" lon="12.229065884340645"><ele>-3.0</ele><time>2026-03-28T12:31:36.999Z</time></trkpt><trkpt lat="44.85621214509795" lon="12.22918636755874"><ele>-3.0</ele><time>2026-03-28T12:31:38.999Z</time></trkpt><trkpt lat="44.856234387109666" lon="12.229301421704823"><ele>-3.0</ele><time>2026-03-28T12:31:40.999Z</time></trkpt><trkpt lat="44.85625619138191" lon="12.229412297609365"><ele>-3.0</ele><time>2026-03-28T12:31:42.999Z</time></trkpt><trkpt lat="44.85627821358165" lon="12.229515854635029"><ele>-2.8333333333333335</ele><time>2026-03-28T12:31:44.999Z</time></trkpt><trkpt lat="44.856300819760676" lon="12.229612051861164"><ele>-2.6666666666666665</ele><time>2026-03-28T12:31:46.999Z</time></trkpt><trkpt lat="44.85630946949741" lon="12.229728311313915"><ele>-2.5</ele><time>2026-03-28T12:31:48.999Z</time></trkpt><trkpt lat="44.856299854319964" lon="12.22984208704644"><ele>-2.333333333333333</ele><time>2026-03-28T12:31:50.999Z</time></trkpt><trkpt lat="44.85630973786279" lon="12.229955446432024"><ele>-2.1666666666666665</ele><time>2026-03-28T12:31:52.999Z</time></trkpt><trkpt lat="44.85632157908547" lon="12.230070407475003"><ele>-2.0</ele><time>2026-03-28T12:31:54.999Z</time></trkpt><trkpt lat="44.85634418690981" lon="12.23017780415995"><ele>-1.9999999999999998</ele><time>2026-03-28T12:31:56.999Z</time></trkpt><trkpt lat="44.85636824653141" lon="12.230278944693431"><ele>-2.0</ele><time>2026-03-28T12:31:58.999Z</time></trkpt><trkpt lat="44.85639034426427" lon="12.230389954336472"><ele>-2.0</ele><time>2026-03-28T12:32:00.999Z</time></trkpt><trkpt lat="44.85641172186061" lon="12.23050267902993"><ele>-2.0</ele><time>2026-03-28T12:32:02.999Z</time></trkpt><trkpt lat="44.85643383510155" lon="12.230608595431558"><ele>-1.9999999999999998</ele><time>2026-03-28T12:32:04.999Z</time></trkpt><trkpt lat="44.856455843030275" lon="12.23071165177652"><ele>-2.0</ele><time>2026-03-28T12:32:06.999Z</time></trkpt><trkpt lat="44.85647808253446" lon="12.230812234064043"><ele>-1.9999999999999998</ele><time>2026-03-28T12:32:08.999Z</time></trkpt><trkpt lat="44.85650045612441" lon="12.230922423918063"><ele>-2.0</ele><time>2026-03-28T12:32:10.999Z</time></trkpt><trkpt lat="44.85652502932834" lon="12.231035302715155"><ele>-2.0</ele><time>2026-03-28T12:32:12.999Z</time></trkpt><trkpt lat="44.85654578314433" lon="12.23114164683339"><ele>-2.0</ele><time>2026-03-28T12:32:14.999Z</time></trkpt><trkpt lat="44.856567876163815" lon="12.23123660978551"><ele>-1.9999999999999998</ele><time>2026-03-28T12:32:16.999Z</time></trkpt><trkpt lat="44.85658505921423" lon="12.2313314795451"><ele>-2.0</ele><time>2026-03-28T12:32:18.999Z</time></trkpt><trkpt lat="44.856605263060956" lon="12.231424088479134"><ele>-2.1666666666666665</ele><time>2026-03-28T12:32:20.999Z</time></trkpt><trkpt lat="44.85662951078263" lon="12.231539168581893"><ele>-2.333333333333333</ele><time>2026-03-28T12:32:22.999Z</time></trkpt><trkpt lat="44.85665327051687" lon="12.231661919087571"><ele>-2.5</ele><time>2026-03-28T12:32:24.999Z</time></trkpt><trkpt lat="44.8566786443155" lon="12.23177742554756"><ele>-2.6666666666666665</ele><time>2026-03-28T12:32:26.999Z</time></trkpt><trkpt lat="44.85670271752505" lon="12.23188645601485"><ele>-2.8333333333333335</ele><time>2026-03-28T12:32:29Z</time></trkpt><trkpt lat="44.85672325778835" lon="12.231991277898947"><ele>-3.0</ele><time>2026-03-28T12:32:31Z</time></trkpt><trkpt lat="44.85674585752996" lon="12.232107402213217"><ele>-3.0</ele><time>2026-03-28T12:32:33Z</time></trkpt><trkpt lat="44.8567666575251" lon="12.232215221655636"><ele>-3.0</ele><time>2026-03-28T12:32:35Z</time></trkpt><trkpt lat="44.856789728003655" lon="12.232313831335826"><ele>-3.0</ele><time>2026-03-28T12:32:37Z</time></trkpt><trkpt lat="44.856807421631565" lon="12.232411752980012"><ele>-3.0</ele><time>2026-03-28T12:32:39Z</time></trkpt><trkpt lat="44.856827966467684" lon="12.232516468491522"><ele>-3.0</ele><time>2026-03-28T12:32:41Z</time></trkpt><trkpt lat="44.856852968455584" lon="12.232635351197759"><ele>-3.0</ele><time>2026-03-28T12:32:43Z</time></trkpt><trkpt lat="44.856876081677655" lon="12.2327579519707"><ele>-2.6666666666666665</ele><time>2026-03-28T12:32:45Z</time></trkpt><trkpt lat="44.8568978197125" lon="12.232880252364755"><ele>-2.3333333333333335</ele><time>2026-03-28T12:32:47Z</time></trkpt><trkpt lat="44.85692167877756" lon="12.233002748653528"><ele>-2.0</ele><time>2026-03-28T12:32:49Z</time></trkpt><trkpt lat="44.85694902612908" lon="12.233120829690796"><ele>-1.6666666666666665</ele><time>2026-03-28T12:32:51Z</time></trkpt><trkpt lat="44.85697171951086" lon="12.233236830476244"><ele>-1.3333333333333333</ele><time>2026-03-28T12:32:53Z</time></trkpt><trkpt lat="44.856994681203204" lon="12.233351712295512"><ele>-1.0</ele><time>2026-03-28T12:32:55Z</time></trkpt><trkpt lat="44.85701592973298" lon="12.233460142368909"><ele>-0.9999999999999999</ele><time>2026-03-28T12:32:57Z</time></trkpt><trkpt lat="44.85703125879377" lon="12.233559052597714"><ele>-1.0</ele><time>2026-03-28T12:32:59Z</time></trkpt><trkpt lat="44.85700052809204" lon="12.23364284205551"><ele>-1.0</ele><time>2026-03-28T12:33:01Z</time></trkpt><trkpt lat="44.85693810821812" lon="12.233701927817805"><ele>-1.0</ele><time>2026-03-28T12:33:03Z</time></trkpt><trkpt lat="44.85685044231824" lon="12.233729173943212"><ele>-0.9999999999999999</ele><time>2026-03-28T12:33:05Z</time></trkpt><trkpt lat="44.85676500061293" lon="12.233760935580573"><ele>-1.0</ele><time>2026-03-28T12:33:07Z</time></trkpt><trkpt lat="44.856677880068915" lon="12.233797943784117"><ele>-0.9999999999999999</ele><time>2026-03-28T12:33:09Z</time></trkpt><trkpt lat="44.856593082381394" lon="12.233828957089562"><ele>-1.0</ele><time>2026-03-28T12:33:11Z</time></trkpt><trkpt lat="44.85651443120498" lon="12.23385809566599"><ele>-1.0</ele><time>2026-03-28T12:33:13Z</time></trkpt><trkpt lat="44.85643938135579" lon="12.233886745917296"><ele>-1.0</ele><time>2026-03-28T12:33:15Z</time></trkpt><trkpt lat="44.85637100125447" lon="12.233914257316691"><ele>-0.9999999999999999</ele><time>2026-03-28T12:33:17Z</time></trkpt><trkpt lat="44.85630896516872" lon="12.233941794283627"><ele>-1.0</ele><time>2026-03-28T12:33:19Z</time></trkpt><trkpt lat="44.856243148915276" lon="12.233961513815764"><ele>-1.0</ele><time>2026-03-28T12:33:21Z</time></trkpt><trkpt lat="44.856166156236355" lon="12.233991343589006"><ele>-0.9999999999999999</ele><time>2026-03-28T12:33:23Z</time></trkpt><trkpt lat="44.856102360236044" lon="12.234021698053052"><ele>-1.0</ele><time>2026-03-28T12:33:25Z</time></trkpt><trkpt lat="44.85603408055506" lon="12.23405378647119"><ele>-1.0</ele><time>2026-03-28T12:33:27Z</time></trkpt><trkpt lat="44.85597199718897" lon="12.234086409836387"><ele>-0.9999999999999999</ele><time>2026-03-28T12:33:29Z</time></trkpt><trkpt lat="44.85588490369347" lon="12.234123802570164"><ele>-1.0</ele><time>2026-03-28T12:33:32Z</time></trkpt><trkpt lat="44.85581952295569" lon="12.234161351253661"><ele>-1.0</ele><time>2026-03-28T12:33:34Z</time></trkpt><trkpt lat="44.85574836110391" lon="12.234201610540516"><ele>-0.8333333333333333</ele><time>2026-03-28T12:33:36Z</time></trkpt><trkpt lat="44.85568564201847" lon="12.234235575456273"><ele>-0.6666666666666666</ele><time>2026-03-28T12:33:38Z</time></trkpt><trkpt lat="44.855614388365595" lon="12.234274760267809"><ele>-0.5</ele><time>2026-03-28T12:33:40Z</time></trkpt><trkpt lat="44.855545775764014" lon="12.23430879534556"><ele>-0.3333333333333333</ele><time>2026-03-28T12:33:42Z</time></trkpt><trkpt lat="44.85547355938607" lon="12.234342653340498"><ele>-0.16666666666666666</ele><time>2026-03-28T12:33:43.999Z</time></trkpt><trkpt lat="44.855397742429695" lon="12.234393132776686"><ele>0.0</ele><time>2026-03-28T12:33:45.999Z</time></trkpt><trkpt lat="44.85532130508978" lon="12.23442321459652"><ele>0.0</ele><time>2026-03-28T12:33:47.999Z</time></trkpt><trkpt lat="44.85525629731568" lon="12.234463203679573"><ele>0.0</ele><time>2026-03-28T12:33:49.999Z</time></trkpt><trkpt lat="44.85519032448513" lon="12.23450251825294"><ele>0.0</ele><time>2026-03-28T12:33:51.999Z</time></trkpt><trkpt lat="44.855124551187004" lon="12.234532720529424"><ele>0.0</ele><time>2026-03-28T12:33:53.999Z</time></trkpt><trkpt lat="44.855065588793714" lon="12.234565733263207"><ele>0.0</ele><time>2026-03-28T12:33:55.999Z</time></trkpt><trkpt lat="44.85499262911986" lon="12.234604629884007"><ele>0.0</ele><time>2026-03-28T12:33:57.999Z</time></trkpt><trkpt lat="44.85490577514048" lon="12.234652289613097"><ele>0.0</ele><time>2026-03-28T12:33:59.999Z</time></trkpt><trkpt lat="44.85483505579223" lon="12.234732768636498"><ele>-0.3333333333333333</ele><time>2026-03-28T12:34:01.999Z</time></trkpt><trkpt lat="44.85477974967489" lon="12.234820182733586"><ele>-0.6666666666666666</ele><time>2026-03-28T12:34:03.999Z</time></trkpt><trkpt lat="44.85472552895685" lon="12.234897801932206"><ele>-1.0</ele><time>2026-03-28T12:34:05.999Z</time></trkpt><trkpt lat="44.854679782413534" lon="12.234978908409598"><ele>-1.3333333333333333</ele><time>2026-03-28T12:34:07.999Z</time></trkpt><trkpt lat="44.8546329607028" lon="12.235057964217209"><ele>-1.6666666666666665</ele><time>2026-03-28T12:34:09.999Z</time></trkpt><trkpt lat="44.85457193473452" lon="12.235161369543924"><ele>-2.0</ele><time>2026-03-28T12:34:12.999Z</time></trkpt><trkpt lat="44.85452056490039" lon="12.235248945503749"><ele>-1.9999999999999998</ele><time>2026-03-28T12:34:14.999Z</time></trkpt><trkpt lat="44.85446639849043" lon="12.235336093170993"><ele>-2.0</ele><time>2026-03-28T12:34:16.999Z</time></trkpt><trkpt lat="44.85442296157729" lon="12.235415708792413"><ele>-2.0</ele><time>2026-03-28T12:34:18.999Z</time></trkpt><trkpt lat="44.85437836862894" lon="12.235489652318902"><ele>-2.0</ele><time>2026-03-28T12:34:20.999Z</time></trkpt><trkpt lat="44.85433336638" lon="12.235556956713818"><ele>-1.9999999999999998</ele><time>2026-03-28T12:34:22.999Z</time></trkpt><trkpt lat="44.85427493508621" lon="12.235660960437814"><ele>-2.0</ele><time>2026-03-28T12:34:25.999Z</time></trkpt><trkpt lat="44.85422078809079" lon="12.23575598896901"><ele>-2.1666666666666665</ele><time>2026-03-28T12:34:28.999Z</time></trkpt><trkpt lat="44.85417581309194" lon="12.23584694048609"><ele>-2.333333333333333</ele><time>2026-03-28T12:34:31.999Z</time></trkpt><trkpt lat="44.85412394479751" lon="12.235943138388738"><ele>-2.5</ele><time>2026-03-28T12:34:35Z</time></trkpt><trkpt lat="44.85408064063151" lon="12.23601223566992"><ele>-2.6666666666666665</ele><time>2026-03-28T12:34:37Z</time></trkpt><trkpt lat="44.85404309792856" lon="12.236088083457528"><ele>-2.8333333333333335</ele><time>2026-03-28T12:34:39Z</time></trkpt><trkpt lat="44.85398942985801" lon="12.236182684636658"><ele>-3.0</ele><time>2026-03-28T12:34:42Z</time></trkpt><trkpt lat="44.8539391594594" lon="12.236277344788553"><ele>-3.0</ele><time>2026-03-28T12:34:45Z</time></trkpt><trkpt lat="44.853891096059236" lon="12.23636639528875"><ele>-3.0</ele><time>2026-03-28T12:34:48Z</time></trkpt><trkpt lat="44.85383214215653" lon="12.236461272886142"><ele>-3.0</ele><time>2026-03-28T12:34:51Z</time></trkpt><trkpt lat="44.85378780986892" lon="12.236549162709075"><ele>-3.0</ele><time>2026-03-28T12:34:53Z</time></trkpt><trkpt lat="44.85374347734897" lon="12.236635782598261"><ele>-3.0</ele><time>2026-03-28T12:34:55Z</time></trkpt><trkpt lat="44.85369912890589" lon="12.236706431968523"><ele>-3.0</ele><time>2026-03-28T12:34:57Z</time></trkpt><trkpt lat="44.85362696108304" lon="12.236695955975529"><ele>-2.6666666666666665</ele><time>2026-03-28T12:35:00Z</time></trkpt><trkpt lat="44.853571160659875" lon="12.23680608655222"><ele>-2.3333333333333335</ele><time>2026-03-28T12:35:03Z</time></trkpt><trkpt lat="44.85352750689876" lon="12.236889943024986"><ele>-2.0</ele><time>2026-03-28T12:35:05Z</time></trkpt><trkpt lat="44.85347746576558" lon="12.23696230942199"><ele>-1.6666666666666665</ele><time>2026-03-28T12:35:07Z</time></trkpt><trkpt lat="44.85343419649802" lon="12.23706369456458"><ele>-1.3333333333333333</ele><time>2026-03-28T12:35:09Z</time></trkpt><trkpt lat="44.853409832289756" lon="12.237167349879178"><ele>-1.0</ele><time>2026-03-28T12:35:11Z</time></trkpt><trkpt lat="44.85340387020538" lon="12.237265825561465"><ele>-0.8571428571428571</ele><time>2026-03-28T12:35:13Z</time></trkpt><trkpt lat="44.85341818233793" lon="12.237359981005246"><ele>-0.7142857142857142</ele><time>2026-03-28T12:35:15Z</time></trkpt><trkpt lat="44.85343626140258" lon="12.237446484537179"><ele>-0.5714285714285714</ele><time>2026-03-28T12:35:17Z</time></trkpt><trkpt lat="44.85346127480074" lon="12.23753398095903"><ele>-0.42857142857142855</ele><time>2026-03-28T12:35:19Z</time></trkpt><trkpt lat="44.8534981306637" lon="12.237642334602944"><ele>-0.2857142857142857</ele><time>2026-03-28T12:35:21Z</time></trkpt><trkpt lat="44.85353071375981" lon="12.237752705819936"><ele>-0.14285714285714285</ele><time>2026-03-28T12:35:23Z</time></trkpt><trkpt lat="44.853559316987734" lon="12.237856412258367"><ele>0.0</ele><time>2026-03-28T12:35:25Z</time></trkpt><trkpt lat="44.85359230041022" lon="12.23795497603979"><ele>0.0</ele><time>2026-03-28T12:35:27Z</time></trkpt><trkpt lat="44.85362004062473" lon="12.238047877691782"><ele>0.0</ele><time>2026-03-28T12:35:29Z</time></trkpt><trkpt lat="44.8536487987524" lon="12.238142816759895"><ele>0.0</ele><time>2026-03-28T12:35:31Z</time></trkpt><trkpt lat="44.85368112039701" lon="12.23824631319876"><ele>0.0</ele><time>2026-03-28T12:35:33Z</time></trkpt><trkpt lat="44.853713552988495" lon="12.238354933735893"><ele>0.0</ele><time>2026-03-28T12:35:35Z</time></trkpt><trkpt lat="44.85374536384754" lon="12.238454401112339"><ele>0.0</ele><time>2026-03-28T12:35:37Z</time></trkpt><trkpt lat="44.85377547543717" lon="12.238551086784422"><ele>0.16666666666666666</ele><time>2026-03-28T12:35:39Z</time></trkpt><trkpt lat="44.85380519695833" lon="12.2386419596907"><ele>0.3333333333333333</ele><time>2026-03-28T12:35:41Z</time></trkpt><trkpt lat="44.85383366359883" lon="12.238725119219941"><ele>0.5</ele><time>2026-03-28T12:35:43Z</time></trkpt><trkpt lat="44.85387028909195" lon="12.238844255552875"><ele>0.6666666666666666</ele><time>2026-03-28T12:35:46Z</time></trkpt><trkpt lat="44.853908788103126" lon="12.238957662858176"><ele>0.8333333333333333</ele><time>2026-03-28T12:35:49Z</time></trkpt><trkpt lat="44.8539383799936" lon="12.239047915594739"><ele>1.0</ele><time>2026-03-28T12:35:50.999Z</time></trkpt><trkpt lat="44.85396408734732" lon="12.239132048533211"><ele>0.9999999999999999</ele><time>2026-03-28T12:35:52.999Z</time></trkpt><trkpt lat="44.85400522505662" lon="12.239247769917753"><ele>1.0</ele><time>2026-03-28T12:35:55.999Z</time></trkpt><trkpt lat="44.85404248387386" lon="12.239357379278767"><ele>1.0</ele><time>2026-03-28T12:35:58.999Z</time></trkpt><trkpt lat="44.854076306214886" lon="12.239470219594489"><ele>1.0</ele><time>2026-03-28T12:36:01.999Z</time></trkpt><trkpt lat="44.85410571440928" lon="12.23956392254295"><ele>0.9999999999999999</ele><time>2026-03-28T12:36:03.999Z</time></trkpt><trkpt lat="44.85413206272454" lon="12.239647450098225"><ele>1.0</ele><time>2026-03-28T12:36:05.999Z</time></trkpt><trkpt lat="44.85416902205203" lon="12.239764463963658"><ele>1.3333333333333333</ele><time>2026-03-28T12:36:08.999Z</time></trkpt><trkpt lat="44.85420680953851" lon="12.2398707479675"><ele>1.6666666666666665</ele><time>2026-03-28T12:36:11.999Z</time></trkpt><trkpt lat="44.85424254299593" lon="12.239979220994268"><ele>2.0</ele><time>2026-03-28T12:36:14.999Z</time></trkpt><trkpt lat="44.854275484780956" lon="12.240083130953067"><ele>2.3333333333333335</ele><time>2026-03-28T12:36:16.999Z</time></trkpt><trkpt lat="44.85430667218739" lon="12.240174611958661"><ele>2.6666666666666665</ele><time>2026-03-28T12:36:18.999Z</time></trkpt><trkpt lat="44.8543344242068" lon="12.240263947002067"><ele>3.0</ele><time>2026-03-28T12:36:20.999Z</time></trkpt><trkpt lat="44.8543631311354" lon="12.24036172295643"><ele>2.2857142857142856</ele><time>2026-03-28T12:36:22.999Z</time></trkpt><trkpt lat="44.85439485694698" lon="12.240456723849707"><ele>1.5714285714285714</ele><time>2026-03-28T12:36:24.999Z</time></trkpt><trkpt lat="44.85442456257378" lon="12.24054611465101"><ele>0.8571428571428571</ele><time>2026-03-28T12:36:26.999Z</time></trkpt><trkpt lat="44.854448696039086" lon="12.240634217264866"><ele>0.1428571428571428</ele><time>2026-03-28T12:36:28.999Z</time></trkpt><trkpt lat="44.854479926532605" lon="12.240715218015247"><ele>-0.5714285714285713</ele><time>2026-03-28T12:36:30.999Z</time></trkpt><trkpt lat="44.85451649868573" lon="12.240835225019769"><ele>-1.2857142857142856</ele><time>2026-03-28T12:36:33.999Z</time></trkpt><trkpt lat="44.85454302033701" lon="12.240916024742734"><ele>-2.0</ele><time>2026-03-28T12:36:35.999Z</time></trkpt><trkpt lat="44.85456999063588" lon="12.241009202471908"><ele>-1.9999999999999998</ele><time>2026-03-28T12:36:37.999Z</time></trkpt><trkpt lat="44.85460072319254" lon="12.241094426529122"><ele>-2.0</ele><time>2026-03-28T12:36:39.999Z</time></trkpt><trkpt lat="44.85463881369536" lon="12.241215331759227"><ele>-2.0</ele><time>2026-03-28T12:36:43Z</time></trkpt><trkpt lat="44.854676411239566" lon="12.241326066237358"><ele>-2.0</ele><time>2026-03-28T12:36:46Z</time></trkpt><trkpt lat="44.85470313717933" lon="12.241421511859699"><ele>-1.9999999999999998</ele><time>2026-03-28T12:36:48Z</time></trkpt><trkpt lat="44.85473962337437" lon="12.241525436561417"><ele>-2.0</ele><time>2026-03-28T12:36:50Z</time></trkpt><trkpt lat="44.85476754715061" lon="12.241624741179976"><ele>-1.4999999999999998</ele><time>2026-03-28T12:36:52Z</time></trkpt><trkpt lat="44.854802196061" lon="12.241713883598493"><ele>-1.0</ele><time>2026-03-28T12:36:54Z</time></trkpt><trkpt lat="44.854832038731665" lon="12.241802546675558"><ele>-0.5</ele><time>2026-03-28T12:36:56Z</time></trkpt><trkpt lat="44.854861687212086" lon="12.241896862030442"><ele>0.0</ele><time>2026-03-28T12:36:58Z</time></trkpt><trkpt lat="44.85489398992706" lon="12.241999163923612"><ele>0.49999999999999994</ele><time>2026-03-28T12:37:00Z</time></trkpt><trkpt lat="44.854930052127266" lon="12.242108373191106"><ele>1.0</ele><time>2026-03-28T12:37:02Z</time></trkpt><trkpt lat="44.85496359242444" lon="12.24221987382016"><ele>1.3333333333333333</ele><time>2026-03-28T12:37:04Z</time></trkpt><trkpt lat="44.854999488177356" lon="12.242323316176968"><ele>1.6666666666666665</ele><time>2026-03-28T12:37:06Z</time></trkpt><trkpt lat="44.85503073453438" lon="12.24242452109608"><ele>2.0</ele><time>2026-03-28T12:37:08Z</time></trkpt><trkpt lat="44.855061996833875" lon="12.242529285078463"><ele>2.3333333333333335</ele><time>2026-03-28T12:37:10Z</time></trkpt><trkpt lat="44.8550999733998" lon="12.242642821124319"><ele>2.6666666666666665</ele><time>2026-03-28T12:37:12Z</time></trkpt><trkpt lat="44.8551349245578" lon="12.24275903876012"><ele>3.0</ele><time>2026-03-28T12:37:14Z</time></trkpt><trkpt lat="44.85517342476984" lon="12.242875269667678"><ele>2.0</ele><time>2026-03-28T12:37:16Z</time></trkpt><trkpt lat="44.855205968174936" lon="12.242991228118992"><ele>1.0</ele><time>2026-03-28T12:37:18Z</time></trkpt><trkpt lat="44.85524767937061" lon="12.24309623478213"><ele>0.0</ele><time>2026-03-28T12:37:20Z</time></trkpt><trkpt lat="44.85528100019588" lon="12.243204011987126"><ele>-1.0</ele><time>2026-03-28T12:37:22Z</time></trkpt><trkpt lat="44.85531575679414" lon="12.243320748309573"><ele>-2.0</ele><time>2026-03-28T12:37:24Z</time></trkpt><trkpt lat="44.855353834764024" lon="12.243430675818505"><ele>-3.0</ele><time>2026-03-28T12:37:26Z</time></trkpt><trkpt lat="44.855391969558774" lon="12.243538268929992"><ele>-3.0</ele><time>2026-03-28T12:37:28Z</time></trkpt><trkpt lat="44.85542471718571" lon="12.243646383603549"><ele>-3.0</ele><time>2026-03-28T12:37:30Z</time></trkpt><trkpt lat="44.85545978933939" lon="12.24376126277585"><ele>-3.0</ele><time>2026-03-28T12:37:32Z</time></trkpt><trkpt lat="44.85549082581554" lon="12.243880111275262"><ele>-3.0</ele><time>2026-03-28T12:37:34Z</time></trkpt><trkpt lat="44.855533658200144" lon="12.24399816974683"><ele>-3.0</ele><time>2026-03-28T12:37:36Z</time></trkpt><trkpt lat="44.85558282902762" lon="12.244104871374427"><ele>-3.0</ele><time>2026-03-28T12:37:38Z</time></trkpt><trkpt lat="44.85564702096762" lon="12.244182672439349"><ele>-3.0</ele><time>2026-03-28T12:37:40Z</time></trkpt><trkpt lat="44.85573161436788" lon="12.244248963684731"><ele>-3.0</ele><time>2026-03-28T12:37:42Z</time></trkpt><trkpt lat="44.85580300739482" lon="12.244171484140544"><ele>-3.0</ele><time>2026-03-28T12:37:44Z</time></trkpt><trkpt lat="44.85589776711586" lon="12.244149719110856"><ele>-3.0</ele><time>2026-03-28T12:37:46Z</time></trkpt><trkpt lat="44.85599010954303" lon="12.244135458055434"><ele>-3.0</ele><time>2026-03-28T12:37:48Z</time></trkpt><trkpt lat="44.85608155459933" lon="12.244106123379174"><ele>-3.0</ele><time>2026-03-28T12:37:50Z</time></trkpt><trkpt lat="44.85617152650991" lon="12.244078417802234"><ele>-3.0</ele><time>2026-03-28T12:37:52Z</time></trkpt><trkpt lat="44.85626962376345" lon="12.24406218753981"><ele>-3.0</ele><time>2026-03-28T12:37:54Z</time></trkpt><trkpt lat="44.856345594661484" lon="12.244031983938536"><ele>-3.0</ele><time>2026-03-28T12:37:55.999Z</time></trkpt><trkpt lat="44.85639980256662" lon="12.243965828123347"><ele>-3.0</ele><time>2026-03-28T12:37:57.999Z</time></trkpt><trkpt lat="44.85645369326424" lon="12.243904122749226"><ele>-3.0</ele><time>2026-03-28T12:37:59.999Z</time></trkpt><trkpt lat="44.85652257405525" lon="12.243891390270436"><ele>-3.0</ele><time>2026-03-28T12:38:02.999Z</time></trkpt><trkpt lat="44.85646987053272" lon="12.243944678219291"><ele>-3.0</ele><time>2026-03-28T13:17:33Z</time></trkpt><trkpt lat="44.85640139107285" lon="12.243957596903776"><ele>-3.0</ele><time>2026-03-28T13:17:41Z</time></trkpt><trkpt lat="44.85632982377268" lon="12.244006630958419"><ele>-3.0</ele><time>2026-03-28T13:17:44Z</time></trkpt><trkpt lat="44.85632487270237" lon="12.244095971185565"><ele>-3.0</ele><time>2026-03-28T13:17:48Z</time></trkpt><trkpt lat="44.856238932069296" lon="12.24410981177898"><ele>-3.0</ele><time>2026-03-28T13:17:51Z</time></trkpt><trkpt lat="44.8561529237319" lon="12.244101349335482"><ele>-3.0</ele><time>2026-03-28T13:17:54Z</time></trkpt><trkpt lat="44.85607929303444" lon="12.244118691512956"><ele>-3.0</ele><time>2026-03-28T13:17:57.001Z</time></trkpt><trkpt lat="44.85599544617437" lon="12.244143074524287"><ele>-3.0</ele><time>2026-03-28T13:18:00.001Z</time></trkpt><trkpt lat="44.85591904706802" lon="12.244159012161282"><ele>-3.0</ele><time>2026-03-28T13:18:03.001Z</time></trkpt><trkpt lat="44.855845472568376" lon="12.244175735443546"><ele>-3.0</ele><time>2026-03-28T13:18:06.001Z</time></trkpt><trkpt lat="44.85577642491432" lon="12.244198109169076"><ele>-3.0</ele><time>2026-03-28T13:18:09.001Z</time></trkpt><trkpt lat="44.85571809706615" lon="12.244265729042212"><ele>-3.0</ele><time>2026-03-28T13:18:13.001Z</time></trkpt><trkpt lat="44.85565770501767" lon="12.24418693696872"><ele>-3.0</ele><time>2026-03-28T13:18:16.001Z</time></trkpt><trkpt lat="44.85560903812904" lon="12.244123226775773"><ele>-3.0</ele><time>2026-03-28T13:18:19.001Z</time></trkpt><trkpt lat="44.85556396534218" lon="12.244046505063523"><ele>-3.0</ele><time>2026-03-28T13:18:23.001Z</time></trkpt><trkpt lat="44.85553175742535" lon="12.243962914816755"><ele>-3.0</ele><time>2026-03-28T13:18:25.001Z</time></trkpt><trkpt lat="44.85549242352713" lon="12.243848133619752"><ele>-3.0</ele><time>2026-03-28T13:18:28.001Z</time></trkpt><trkpt lat="44.85545384947913" lon="12.243744690779776"><ele>-2.9999999999999996</ele><time>2026-03-28T13:18:31.001Z</time></trkpt><trkpt lat="44.85542479581432" lon="12.243651460773156"><ele>-3.0</ele><time>2026-03-28T13:18:33.001Z</time></trkpt><trkpt lat="44.85538940587389" lon="12.243548279526767"><ele>-3.0</ele><time>2026-03-28T13:18:35.001Z</time></trkpt><trkpt lat="44.855361092593576" lon="12.243457332300641"><ele>-3.0</ele><time>2026-03-28T13:18:37.001Z</time></trkpt><trkpt lat="44.85533444588561" lon="12.243374498426654"><ele>-3.0</ele><time>2026-03-28T13:18:39.001Z</time></trkpt><trkpt lat="44.855309920100744" lon="12.243291785799451"><ele>-2.9999999999999996</ele><time>2026-03-28T13:18:41Z</time></trkpt><trkpt lat="44.855283084658815" lon="12.243211058488162"><ele>-3.0</ele><time>2026-03-28T13:18:43Z</time></trkpt><trkpt lat="44.85524768513182" lon="12.24309549846243"><ele>-3.1666666666666665</ele><time>2026-03-28T13:18:46Z</time></trkpt><trkpt lat="44.85521139781019" lon="12.242985133936083"><ele>-3.333333333333333</ele><time>2026-03-28T13:18:49Z</time></trkpt><trkpt lat="44.8551756578932" lon="12.242901110876378"><ele>-3.5</ele><time>2026-03-28T13:18:51Z</time></trkpt><trkpt lat="44.85514827540927" lon="12.242810838855949"><ele>-3.6666666666666665</ele><time>2026-03-28T13:18:53Z</time></trkpt><trkpt lat="44.85511490441202" lon="12.242691124084846"><ele>-3.833333333333333</ele><time>2026-03-28T13:18:56Z</time></trkpt><trkpt lat="44.85508759655481" lon="12.24260684049923"><ele>-4.0</ele><time>2026-03-28T13:18:58Z</time></trkpt><trkpt lat="44.85505028713486" lon="12.242498944651086"><ele>-3.1666666666666665</ele><time>2026-03-28T13:19:00Z</time></trkpt><trkpt lat="44.85502113186887" lon="12.242399276639176"><ele>-2.333333333333333</ele><time>2026-03-28T13:19:02Z</time></trkpt><trkpt lat="44.85499043196958" lon="12.242312615351821"><ele>-1.5</ele><time>2026-03-28T13:19:04Z</time></trkpt><trkpt lat="44.85496253746709" lon="12.242225344955676"><ele>-0.6666666666666666</ele><time>2026-03-28T13:19:06Z</time></trkpt><trkpt lat="44.8549368464255" lon="12.24214252982637"><ele>0.16666666666666663</ele><time>2026-03-28T13:19:08Z</time></trkpt><trkpt lat="44.85489600753885" lon="12.242021152244302"><ele>1.0</ele><time>2026-03-28T13:19:11Z</time></trkpt><trkpt lat="44.85486062875642" lon="12.2419074771504"><ele>0.9999999999999999</ele><time>2026-03-28T13:19:13Z</time></trkpt><trkpt lat="44.85482355401132" lon="12.241795839125231"><ele>1.0</ele><time>2026-03-28T13:19:15Z</time></trkpt><trkpt lat="44.85478653428378" lon="12.241685256375755"><ele>1.0</ele><time>2026-03-28T13:19:17Z</time></trkpt><trkpt lat="44.85475147022118" lon="12.24158172585196"><ele>1.0</ele><time>2026-03-28T13:19:19Z</time></trkpt><trkpt lat="44.85471402063393" lon="12.241478373026263"><ele>0.9999999999999999</ele><time>2026-03-28T13:19:21Z</time></trkpt><trkpt lat="44.854690984903314" lon="12.241383438746448"><ele>1.0</ele><time>2026-03-28T13:19:23Z</time></trkpt><trkpt lat="44.85465895989969" lon="12.241286682878792"><ele>0.4</ele><time>2026-03-28T13:19:25Z</time></trkpt><trkpt lat="44.854620116055436" lon="12.241173970041055"><ele>-0.19999999999999996</ele><time>2026-03-28T13:19:27Z</time></trkpt><trkpt lat="44.85458431405193" lon="12.241054062404926"><ele>-0.8000000000000002</ele><time>2026-03-28T13:19:29Z</time></trkpt><trkpt lat="44.85454840820163" lon="12.240942850430152"><ele>-1.4000000000000001</ele><time>2026-03-28T13:19:31Z</time></trkpt><trkpt lat="44.854510002368876" lon="12.240826107145987"><ele>-2.0</ele><time>2026-03-28T13:19:33Z</time></trkpt><trkpt lat="44.854473764714655" lon="12.24070872189112"><ele>-2.1666666666666665</ele><time>2026-03-28T13:19:35Z</time></trkpt><trkpt lat="44.85443573833115" lon="12.240600636535877"><ele>-2.333333333333333</ele><time>2026-03-28T13:19:37Z</time></trkpt><trkpt lat="44.85440285294652" lon="12.240478772328197"><ele>-2.5</ele><time>2026-03-28T13:19:39Z</time></trkpt><trkpt lat="44.85436480379054" lon="12.24036233206974"><ele>-2.6666666666666665</ele><time>2026-03-28T13:19:41Z</time></trkpt><trkpt lat="44.854328960995865" lon="12.240251828186187"><ele>-2.8333333333333335</ele><time>2026-03-28T13:19:43Z</time></trkpt><trkpt lat="44.85429734243635" lon="12.240144079948013"><ele>-3.0</ele><time>2026-03-28T13:19:45Z</time></trkpt><trkpt lat="44.85426239072692" lon="12.24005144092187"><ele>-2.3333333333333335</ele><time>2026-03-28T13:19:47Z</time></trkpt><trkpt lat="44.854236204102385" lon="12.239947655786708"><ele>-1.6666666666666667</ele><time>2026-03-28T13:19:49Z</time></trkpt><trkpt lat="44.85419566580798" lon="12.239842913575854"><ele>-1.0</ele><time>2026-03-28T13:19:51Z</time></trkpt><trkpt lat="44.854158634630316" lon="12.239727176129145"><ele>-0.33333333333333337</ele><time>2026-03-28T13:19:53Z</time></trkpt><trkpt lat="44.85411995501958" lon="12.239618954814333"><ele>0.33333333333333326</ele><time>2026-03-28T13:19:55Z</time></trkpt><trkpt lat="44.85407985147027" lon="12.239508250132266"><ele>1.0</ele><time>2026-03-28T13:19:57Z</time></trkpt><trkpt lat="44.8540469547917" lon="12.239391594784578"><ele>0.9999999999999999</ele><time>2026-03-28T13:19:59Z</time></trkpt><trkpt lat="44.85401691407488" lon="12.23928735011324"><ele>1.0</ele><time>2026-03-28T13:20:01Z</time></trkpt><trkpt lat="44.8539866126288" lon="12.23918961246805"><ele>1.0</ele><time>2026-03-28T13:20:03Z</time></trkpt><trkpt lat="44.85395148865425" lon="12.23909177413018"><ele>1.0</ele><time>2026-03-28T13:20:05Z</time></trkpt><trkpt lat="44.853920276851625" lon="12.23897796597313"><ele>0.9999999999999999</ele><time>2026-03-28T13:20:07Z</time></trkpt><trkpt lat="44.85388001692899" lon="12.238870406444121"><ele>1.0</ele><time>2026-03-28T13:20:09Z</time></trkpt><trkpt lat="44.853846532197934" lon="12.238755195638344"><ele>0.9999999999999999</ele><time>2026-03-28T13:20:11Z</time></trkpt><trkpt lat="44.85380398561397" lon="12.238644573116382"><ele>1.0</ele><time>2026-03-28T13:20:13Z</time></trkpt><trkpt lat="44.853769255503934" lon="12.238531829130624"><ele>1.0</ele><time>2026-03-28T13:20:15Z</time></trkpt><trkpt lat="44.85373161814513" lon="12.238418961861143"><ele>1.0</ele><time>2026-03-28T13:20:17Z</time></trkpt><trkpt lat="44.853698858366464" lon="12.238301860321567"><ele>0.9999999999999999</ele><time>2026-03-28T13:20:19Z</time></trkpt><trkpt lat="44.85365932133052" lon="12.238200712583398"><ele>1.0</ele><time>2026-03-28T13:20:21Z</time></trkpt><trkpt lat="44.85363395342952" lon="12.238090696628413"><ele>0.8333333333333333</ele><time>2026-03-28T13:20:23Z</time></trkpt><trkpt lat="44.85359723140381" lon="12.23800123738196"><ele>0.6666666666666666</ele><time>2026-03-28T13:20:25Z</time></trkpt><trkpt lat="44.85357414426239" lon="12.237900496687223"><ele>0.5</ele><time>2026-03-28T13:20:27Z</time></trkpt><trkpt lat="44.853538054967416" lon="12.23781608254733"><ele>0.3333333333333333</ele><time>2026-03-28T13:20:29Z</time></trkpt><trkpt lat="44.85351465320816" lon="12.237698832924469"><ele>0.16666666666666666</ele><time>2026-03-28T13:20:31Z</time></trkpt><trkpt lat="44.85346997629547" lon="12.237594539100892"><ele>0.0</ele><time>2026-03-28T13:20:33Z</time></trkpt><trkpt lat="44.853441488599124" lon="12.237486148532943"><ele>-0.16666666666666666</ele><time>2026-03-28T13:20:35Z</time></trkpt><trkpt lat="44.85341137422621" lon="12.237398955171221"><ele>-0.3333333333333333</ele><time>2026-03-28T13:20:37Z</time></trkpt><trkpt lat="44.85339510130754" lon="12.237291903987963"><ele>-0.5</ele><time>2026-03-28T13:20:39Z</time></trkpt><trkpt lat="44.85339909598694" lon="12.237199026763117"><ele>-0.6666666666666666</ele><time>2026-03-28T13:20:41Z</time></trkpt><trkpt lat="44.85342022909253" lon="12.237100928811108"><ele>-0.8333333333333333</ele><time>2026-03-28T13:20:43Z</time></trkpt><trkpt lat="44.85345659110328" lon="12.236985844379399"><ele>-1.0</ele><time>2026-03-28T13:20:45Z</time></trkpt><trkpt lat="44.85350482267435" lon="12.236880984646056"><ele>-0.9999999999999999</ele><time>2026-03-28T13:20:47Z</time></trkpt><trkpt lat="44.85355153640527" lon="12.236789660138028"><ele>-1.0</ele><time>2026-03-28T13:20:49Z</time></trkpt><trkpt lat="44.85361615443325" lon="12.23669518629684"><ele>-1.0</ele><time>2026-03-28T13:20:51Z</time></trkpt><trkpt lat="44.85365511415893" lon="12.236613294903611"><ele>-1.0</ele><time>2026-03-28T13:20:53Z</time></trkpt><trkpt lat="44.853709424549194" lon="12.236535683337356"><ele>-0.9999999999999999</ele><time>2026-03-28T13:20:55Z</time></trkpt><trkpt lat="44.85375244857151" lon="12.236462056825678"><ele>-1.0</ele><time>2026-03-28T13:20:57Z</time></trkpt><trkpt lat="44.853808860956086" lon="12.236379952854431"><ele>-1.2857142857142856</ele><time>2026-03-28T13:20:59Z</time></trkpt><trkpt lat="44.85386065139659" lon="12.236278136530547"><ele>-1.5714285714285712</ele><time>2026-03-28T13:21:02Z</time></trkpt><trkpt lat="44.85390458874422" lon="12.23620941106488"><ele>-1.857142857142857</ele><time>2026-03-28T13:21:04Z</time></trkpt><trkpt lat="44.85396480834572" lon="12.236125824914868"><ele>-2.142857142857143</ele><time>2026-03-28T13:21:07Z</time></trkpt><trkpt lat="44.85401200529331" lon="12.23605730940453"><ele>-2.4285714285714284</ele><time>2026-03-28T13:21:10Z</time></trkpt><trkpt lat="44.853949389079624" lon="12.23603582620844"><ele>-2.714285714285714</ele><time>2026-03-28T13:21:29Z</time></trkpt><trkpt lat="44.85391675942998" lon="12.236121879330266"><ele>-3.0</ele><time>2026-03-28T13:21:37Z</time></trkpt><trkpt lat="44.853876563924146" lon="12.236201011603237"><ele>-2.9999999999999996</ele><time>2026-03-28T13:21:46Z</time></trkpt><trkpt lat="44.85386738034602" lon="12.236106851978725"><ele>-3.0</ele><time>2026-03-28T13:22:34Z</time></trkpt><trkpt lat="44.85385189385439" lon="12.236020089155327"><ele>-3.0</ele><time>2026-03-28T13:22:41Z</time></trkpt><trkpt lat="44.853842067406845" lon="12.235924446288685"><ele>-3.0</ele><time>2026-03-28T13:22:48Z</time></trkpt><trkpt lat="44.85385459584524" lon="12.236013378563236"><ele>-3.0</ele><time>2026-03-28T13:23:32Z</time></trkpt><trkpt lat="44.853874372204444" lon="12.236112082922924"><ele>-2.9999999999999996</ele><time>2026-03-28T13:23:42Z</time></trkpt><trkpt lat="44.85393503944491" lon="12.236072303128216"><ele>-3.0</ele><time>2026-03-28T13:23:50Z</time></trkpt><trkpt lat="44.853957091029564" lon="12.23616673942517"><ele>-2.9999999999999996</ele><time>2026-03-28T13:24:09Z</time></trkpt><trkpt lat="44.85390893387264" lon="12.236255777572302"><ele>-3.0</ele><time>2026-03-28T13:24:12Z</time></trkpt><trkpt lat="44.85386047943457" lon="12.23634714127176"><ele>-3.0</ele><time>2026-03-28T13:24:14Z</time></trkpt><trkpt lat="44.85381841285074" lon="12.236428032781925"><ele>-3.0</ele><time>2026-03-28T13:24:16Z</time></trkpt><trkpt lat="44.85377056689545" lon="12.23650861111226"><ele>-3.0</ele><time>2026-03-28T13:24:18Z</time></trkpt><trkpt lat="44.8537316576894" lon="12.236578590139708"><ele>-2.9999999999999996</ele><time>2026-03-28T13:24:20Z</time></trkpt><trkpt lat="44.853689400347335" lon="12.236646402302119"><ele>-3.0</ele><time>2026-03-28T13:24:22Z</time></trkpt><trkpt lat="44.85362782377447" lon="12.236736988296233"><ele>-2.6666666666666665</ele><time>2026-03-28T13:24:25Z</time></trkpt><trkpt lat="44.85356208538865" lon="12.236839834309055"><ele>-2.3333333333333335</ele><time>2026-03-28T13:24:28Z</time></trkpt><trkpt lat="44.85350413146849" lon="12.236936707126372"><ele>-2.0</ele><time>2026-03-28T13:24:30Z</time></trkpt><trkpt lat="44.85345117525601" lon="12.23702898275964"><ele>-1.6666666666666665</ele><time>2026-03-28T13:24:32Z</time></trkpt><trkpt lat="44.85342268104836" lon="12.237120569829267"><ele>-1.3333333333333333</ele><time>2026-03-28T13:24:34Z</time></trkpt><trkpt lat="44.85340420457499" lon="12.237233599112615"><ele>-1.0</ele><time>2026-03-28T13:24:36Z</time></trkpt><trkpt lat="44.85340995040155" lon="12.237329645636486"><ele>-0.8333333333333333</ele><time>2026-03-28T13:24:38Z</time></trkpt><trkpt lat="44.8534253326404" lon="12.237426256718237"><ele>-0.6666666666666666</ele><time>2026-03-28T13:24:40Z</time></trkpt><trkpt lat="44.85345509894492" lon="12.237516413408459"><ele>-0.5</ele><time>2026-03-28T13:24:42Z</time></trkpt><trkpt lat="44.85348288245137" lon="12.237606175436486"><ele>-0.3333333333333333</ele><time>2026-03-28T13:24:44Z</time></trkpt><trkpt lat="44.85351632090875" lon="12.237720606669791"><ele>-0.16666666666666666</ele><time>2026-03-28T13:24:46Z</time></trkpt><trkpt lat="44.853548944734484" lon="12.23783020405474"><ele>0.0</ele><time>2026-03-28T13:24:48Z</time></trkpt><trkpt lat="44.85358663198119" lon="12.237942549134077"><ele>0.0</ele><time>2026-03-28T13:24:50Z</time></trkpt><trkpt lat="44.85362276404708" lon="12.238056368853416"><ele>0.0</ele><time>2026-03-28T13:24:52Z</time></trkpt><trkpt lat="44.85365979162638" lon="12.238167554774781"><ele>0.0</ele><time>2026-03-28T13:24:54Z</time></trkpt><trkpt lat="44.853695955218576" lon="12.238279048782529"><ele>0.0</ele><time>2026-03-28T13:24:56Z</time></trkpt><trkpt lat="44.85373410117981" lon="12.23839237189403"><ele>0.0</ele><time>2026-03-28T13:24:58Z</time></trkpt><trkpt lat="44.85377054791771" lon="12.238508812304222"><ele>0.0</ele><time>2026-03-28T13:25:00.001Z</time></trkpt><trkpt lat="44.85380673839757" lon="12.238624224467676"><ele>0.16666666666666666</ele><time>2026-03-28T13:25:02.001Z</time></trkpt><trkpt lat="44.853841421085384" lon="12.2387371833765"><ele>0.3333333333333333</ele><time>2026-03-28T13:25:04.001Z</time></trkpt><trkpt lat="44.853876272031314" lon="12.23884428272894"><ele>0.5</ele><time>2026-03-28T13:25:06.001Z</time></trkpt><trkpt lat="44.85390891672382" lon="12.23894771426774"><ele>0.6666666666666666</ele><time>2026-03-28T13:25:08.001Z</time></trkpt><trkpt lat="44.85394511182803" lon="12.23904929980479"><ele>0.8333333333333333</ele><time>2026-03-28T13:25:10.001Z</time></trkpt><trkpt lat="44.853974937834046" lon="12.239148755759226"><ele>1.0</ele><time>2026-03-28T13:25:12.001Z</time></trkpt><trkpt lat="44.854004719034656" lon="12.239245238903244"><ele>0.9999999999999999</ele><time>2026-03-28T13:25:14.001Z</time></trkpt><trkpt lat="44.85403485811128" lon="12.239338041501181"><ele>1.0</ele><time>2026-03-28T13:25:16.001Z</time></trkpt><trkpt lat="44.85406635479425" lon="12.239430481212858"><ele>1.0</ele><time>2026-03-28T13:25:18.001Z</time></trkpt><trkpt lat="44.85409138950066" lon="12.239525823605035"><ele>1.0</ele><time>2026-03-28T13:25:20.001Z</time></trkpt><trkpt lat="44.85412750439058" lon="12.239634786517511"><ele>0.9999999999999999</ele><time>2026-03-28T13:25:22.001Z</time></trkpt><trkpt lat="44.854159330004315" lon="12.239737241782622"><ele>1.0</ele><time>2026-03-28T13:25:24.001Z</time></trkpt><trkpt lat="44.85419253375802" lon="12.239834682648853"><ele>1.3333333333333333</ele><time>2026-03-28T13:25:26.001Z</time></trkpt><trkpt lat="44.85422705271417" lon="12.239930885632097"><ele>1.6666666666666665</ele><time>2026-03-28T13:25:28.001Z</time></trkpt><trkpt lat="44.8542595498794" lon="12.240034844560975"><ele>2.0</ele><time>2026-03-28T13:25:30.001Z</time></trkpt><trkpt lat="44.854290308864044" lon="12.240138694686088"><ele>2.3333333333333335</ele><time>2026-03-28T13:25:32.001Z</time></trkpt><trkpt lat="44.85433338564355" lon="12.240229033004894"><ele>2.6666666666666665</ele><time>2026-03-28T13:25:34.001Z</time></trkpt><trkpt lat="44.8543632646661" lon="12.240345183746944"><ele>3.0</ele><time>2026-03-28T13:25:36.001Z</time></trkpt><trkpt lat="44.854398187801834" lon="12.240456797699707"><ele>2.1666666666666665</ele><time>2026-03-28T13:25:38.001Z</time></trkpt><trkpt lat="44.85443023312501" lon="12.240566317633606"><ele>1.3333333333333335</ele><time>2026-03-28T13:25:40Z</time></trkpt><trkpt lat="44.854466162458216" lon="12.240668763315352"><ele>0.5</ele><time>2026-03-28T13:25:42Z</time></trkpt><trkpt lat="44.854495638853635" lon="12.240770792355573"><ele>-0.33333333333333326</ele><time>2026-03-28T13:25:44Z</time></trkpt><trkpt lat="44.85452918851088" lon="12.240872350923945"><ele>-1.1666666666666665</ele><time>2026-03-28T13:25:46Z</time></trkpt><trkpt lat="44.85455744621982" lon="12.240966663159925"><ele>-2.0</ele><time>2026-03-28T13:25:48Z</time></trkpt><trkpt lat="44.854589612182224" lon="12.241071500282464"><ele>-2.0</ele><time>2026-03-28T13:25:50Z</time></trkpt><trkpt lat="44.85462384357353" lon="12.241185669729006"><ele>-2.0</ele><time>2026-03-28T13:25:52Z</time></trkpt><trkpt lat="44.854672384443994" lon="12.241300090572114"><ele>-2.0</ele><time>2026-03-28T13:25:54Z</time></trkpt><trkpt lat="44.854696427919684" lon="12.241417331689513"><ele>-2.0</ele><time>2026-03-28T13:25:56Z</time></trkpt><trkpt lat="44.8547402974788" lon="12.24153173666954"><ele>-2.0</ele><time>2026-03-28T13:25:58Z</time></trkpt><trkpt lat="44.854775983410235" lon="12.24164846498586"><ele>-1.4999999999999998</ele><time>2026-03-28T13:26:00Z</time></trkpt><trkpt lat="44.85481252112939" lon="12.241764584795096"><ele>-1.0</ele><time>2026-03-28T13:26:02Z</time></trkpt><trkpt lat="44.85484845243022" lon="12.241878340420106"><ele>-0.5</ele><time>2026-03-28T13:26:04Z</time></trkpt><trkpt lat="44.854885678815506" lon="12.24199159479679"><ele>0.0</ele><time>2026-03-28T13:26:06Z</time></trkpt><trkpt lat="44.854922516477835" lon="12.242107077316131"><ele>0.49999999999999994</ele><time>2026-03-28T13:26:08Z</time></trkpt><trkpt lat="44.8549610724164" lon="12.242220872772167"><ele>1.0</ele><time>2026-03-28T13:26:10Z</time></trkpt><trkpt lat="44.85500827858812" lon="12.242331540842203"><ele>1.3333333333333333</ele><time>2026-03-28T13:26:12Z</time></trkpt><trkpt lat="44.85503808050918" lon="12.242443780670188"><ele>1.6666666666666665</ele><time>2026-03-28T13:26:14Z</time></trkpt><trkpt lat="44.85508264477958" lon="12.242553719283524"><ele>2.0</ele><time>2026-03-28T13:26:16Z</time></trkpt><trkpt lat="44.85511380073804" lon="12.24267056007752"><ele>2.3333333333333335</ele><time>2026-03-28T13:26:18Z</time></trkpt><trkpt lat="44.85515260489041" lon="12.24278698556596"><ele>2.6666666666666665</ele><time>2026-03-28T13:26:20Z</time></trkpt><trkpt lat="44.85518781622064" lon="12.242900431432915"><ele>3.0</ele><time>2026-03-28T13:26:22Z</time></trkpt><trkpt lat="44.8552225489104" lon="12.24301671913076"><ele>2.0</ele><time>2026-03-28T13:26:24Z</time></trkpt><trkpt lat="44.85525661830633" lon="12.24312865276295"><ele>1.0</ele><time>2026-03-28T13:26:26Z</time></trkpt><trkpt lat="44.855291484333264" lon="12.243230475661182"><ele>0.0</ele><time>2026-03-28T13:26:28Z</time></trkpt><trkpt lat="44.85532394981306" lon="12.243333025304905"><ele>-1.0</ele><time>2026-03-28T13:26:30Z</time></trkpt><trkpt lat="44.855352950637666" lon="12.243424215971263"><ele>-2.0</ele><time>2026-03-28T13:26:32Z</time></trkpt><trkpt lat="44.855382753366406" lon="12.243511174181814"><ele>-3.0</ele><time>2026-03-28T13:26:34Z</time></trkpt><trkpt lat="44.855411082033896" lon="12.243596962279128"><ele>-3.0</ele><time>2026-03-28T13:26:36Z</time></trkpt><trkpt lat="44.85543209095709" lon="12.243684863608584"><ele>-3.0</ele><time>2026-03-28T13:26:38Z</time></trkpt><trkpt lat="44.855453843550904" lon="12.24380486867662"><ele>-3.0</ele><time>2026-03-28T13:26:41Z</time></trkpt><trkpt lat="44.85549256087014" lon="12.243879431147406"><ele>-3.0</ele><time>2026-03-28T13:26:43Z</time></trkpt><trkpt lat="44.85551620414703" lon="12.244002486933747"><ele>-3.0</ele><time>2026-03-28T13:26:46Z</time></trkpt><trkpt lat="44.85555962991806" lon="12.24409904782451"><ele>-3.0</ele><time>2026-03-28T13:26:49Z</time></trkpt><trkpt lat="44.85561726934783" lon="12.244166056353945"><ele>-2.571428571428571</ele><time>2026-03-28T13:26:52Z</time></trkpt><trkpt lat="44.85566105743716" lon="12.244230102484403"><ele>-2.142857142857143</ele><time>2026-03-28T13:26:54Z</time></trkpt><trkpt lat="44.855700449625914" lon="12.244309756693196"><ele>-1.7142857142857142</ele><time>2026-03-28T13:26:56Z</time></trkpt><trkpt lat="44.85568644659001" lon="12.244408999973608"><ele>-1.2857142857142856</ele><time>2026-03-28T13:26:58Z</time></trkpt><trkpt lat="44.85571152259622" lon="12.244506730975157"><ele>-0.8571428571428571</ele><time>2026-03-28T13:28:00Z</time></trkpt><trkpt lat="44.85573715015961" lon="12.24440854369752"><ele>-0.42857142857142855</ele><time>2026-03-28T13:28:10Z</time></trkpt><trkpt lat="44.85578511246207" lon="12.244319124821846"><ele>0.0</ele><time>2026-03-28T13:28:16Z</time></trkpt><trkpt lat="44.85585110793516" lon="12.24426838691549"><ele>0.0</ele><time>2026-03-28T13:28:21Z</time></trkpt><trkpt lat="44.85593762161599" lon="12.244250478216069"><ele>0.0</ele><time>2026-03-28T13:28:24Z</time></trkpt><trkpt lat="44.855999261104955" lon="12.244213085030486"><ele>0.0</ele><time>2026-03-28T13:28:27Z</time></trkpt><trkpt lat="44.85607080719682" lon="12.244211931319354"><ele>0.0</ele><time>2026-03-28T13:28:30Z</time></trkpt><trkpt lat="44.85613635451672" lon="12.244188295790192"><ele>0.0</ele><time>2026-03-28T13:28:33Z</time></trkpt><trkpt lat="44.856203213777995" lon="12.244177214826248"><ele>0.0</ele><time>2026-03-28T13:28:36Z</time></trkpt><trkpt lat="44.85629008345966" lon="12.244166314529316"><ele>0.0</ele><time>2026-03-28T13:28:39Z</time></trkpt><trkpt lat="44.856370789615006" lon="12.244163488540941"><ele>-0.3333333333333333</ele><time>2026-03-28T13:28:41Z</time></trkpt><trkpt lat="44.85645888275121" lon="12.244168210728752"><ele>-0.6666666666666666</ele><time>2026-03-28T13:28:43Z</time></trkpt><trkpt lat="44.85655089268967" lon="12.244170766201714"><ele>-1.0</ele><time>2026-03-28T13:28:45Z</time></trkpt><trkpt lat="44.85663571586706" lon="12.244173360030134"><ele>-1.3333333333333333</ele><time>2026-03-28T13:28:47Z</time></trkpt><trkpt lat="44.856725820216454" lon="12.24419879403077"><ele>-1.6666666666666665</ele><time>2026-03-28T13:28:49Z</time></trkpt><trkpt lat="44.85679875432027" lon="12.244238633403528"><ele>-2.0</ele><time>2026-03-28T13:28:51Z</time></trkpt><trkpt lat="44.85687168192697" lon="12.244273540904505"><ele>-2.0</ele><time>2026-03-28T13:28:53Z</time></trkpt><trkpt lat="44.85693895305904" lon="12.244326104318667"><ele>-1.9999999999999998</ele><time>2026-03-28T13:28:55Z</time></trkpt><trkpt lat="44.857001543639434" lon="12.244372416687513"><ele>-2.0</ele><time>2026-03-28T13:28:57Z</time></trkpt><trkpt lat="44.85705539667389" lon="12.244430751615832"><ele>-2.0</ele><time>2026-03-28T13:28:59Z</time></trkpt><trkpt lat="44.85711442932516" lon="12.244469688004253"><ele>-1.9999999999999998</ele><time>2026-03-28T13:29:01Z</time></trkpt><trkpt lat="44.85718099094804" lon="12.244549938936977"><ele>-2.0</ele><time>2026-03-28T13:29:04Z</time></trkpt><trkpt lat="44.857237840856264" lon="12.244605046799855"><ele>-2.0</ele><time>2026-03-28T13:29:06Z</time></trkpt><trkpt lat="44.8573059566089" lon="12.24466640233261"><ele>-2.0</ele><time>2026-03-28T13:29:08Z</time></trkpt><trkpt lat="44.85735967280789" lon="12.244732772469323"><ele>-1.9999999999999998</ele><time>2026-03-28T13:29:10Z</time></trkpt><trkpt lat="44.85741997149154" lon="12.244777077931369"><ele>-2.0</ele><time>2026-03-28T13:29:12.001Z</time></trkpt><trkpt lat="44.857471546752144" lon="12.244830904124509"><ele>-2.0</ele><time>2026-03-28T13:29:14.001Z</time></trkpt><trkpt lat="44.857525688024886" lon="12.24488908797561"><ele>-1.9999999999999998</ele><time>2026-03-28T13:29:16.001Z</time></trkpt><trkpt lat="44.85758972854596" lon="12.24494775987154"><ele>-2.0</ele><time>2026-03-28T13:29:18.001Z</time></trkpt><trkpt lat="44.85764845147609" lon="12.245014614942196"><ele>-2.0</ele><time>2026-03-28T13:29:20.001Z</time></trkpt><trkpt lat="44.857715494663324" lon="12.245058542851753"><ele>-2.1666666666666665</ele><time>2026-03-28T13:29:22.001Z</time></trkpt><trkpt lat="44.85777970678558" lon="12.245093837740177"><ele>-2.333333333333333</ele><time>2026-03-28T13:29:24.001Z</time></trkpt><trkpt lat="44.8578398307239" lon="12.245129429417709"><ele>-2.5</ele><time>2026-03-28T13:29:26.001Z</time></trkpt><trkpt lat="44.85792548185956" lon="12.24516800280354"><ele>-2.6666666666666665</ele><time>2026-03-28T13:29:29Z</time></trkpt><trkpt lat="44.85800200500325" lon="12.24519713126819"><ele>-2.8333333333333335</ele><time>2026-03-28T13:29:31Z</time></trkpt><trkpt lat="44.85807517801766" lon="12.245222786663698"><ele>-3.0</ele><time>2026-03-28T13:29:33Z</time></trkpt><trkpt lat="44.858147126521125" lon="12.245244149959836"><ele>-2.9999999999999996</ele><time>2026-03-28T13:29:35Z</time></trkpt><trkpt lat="44.85821416153866" lon="12.245251435053436"><ele>-3.0</ele><time>2026-03-28T13:29:37Z</time></trkpt><trkpt lat="44.85828049416331" lon="12.245270447162836"><ele>-3.0</ele><time>2026-03-28T13:29:39Z</time></trkpt><trkpt lat="44.85834620674608" lon="12.245283266597708"><ele>-3.0</ele><time>2026-03-28T13:29:41Z</time></trkpt><trkpt lat="44.85840993652065" lon="12.245287947865096"><ele>-3.0</ele><time>2026-03-28T13:29:43Z</time></trkpt><trkpt lat="44.85848909698217" lon="12.245292182751037"><ele>-2.9999999999999996</ele><time>2026-03-28T13:29:45Z</time></trkpt><trkpt lat="44.85856351055654" lon="12.245292415036337"><ele>-3.0</ele><time>2026-03-28T13:29:47Z</time></trkpt><trkpt lat="44.85863595696495" lon="12.2452981479182"><ele>-3.0</ele><time>2026-03-28T13:29:49Z</time></trkpt><trkpt lat="44.85870397871342" lon="12.245298324226152"><ele>-3.0</ele><time>2026-03-28T13:29:51Z</time></trkpt><trkpt lat="44.85877019788616" lon="12.245290629821522"><ele>-3.0</ele><time>2026-03-28T13:29:53Z</time></trkpt><trkpt lat="44.85886018968948" lon="12.245285462810134"><ele>-3.0</ele><time>2026-03-28T13:29:56Z</time></trkpt><trkpt lat="44.85892323357473" lon="12.245281039077458"><ele>-3.0</ele><time>2026-03-28T13:29:58Z</time></trkpt><trkpt lat="44.859005532755404" lon="12.245281514605114"><ele>-3.0</ele><time>2026-03-28T13:30:00Z</time></trkpt><trkpt lat="44.8590872891732" lon="12.245277488105177"><ele>-3.0</ele><time>2026-03-28T13:30:02Z</time></trkpt><trkpt lat="44.859170445927454" lon="12.245277479710198"><ele>-3.0</ele><time>2026-03-28T13:30:04Z</time></trkpt><trkpt lat="44.85925004766104" lon="12.245286280238817"><ele>-3.0</ele><time>2026-03-28T13:30:06Z</time></trkpt><trkpt lat="44.8593311009866" lon="12.245290105430792"><ele>-3.0</ele><time>2026-03-28T13:30:08Z</time></trkpt><trkpt lat="44.85941566678768" lon="12.245287085669213"><ele>-3.0</ele><time>2026-03-28T13:30:10Z</time></trkpt><trkpt lat="44.85950414149686" lon="12.245298805654791"><ele>-3.0</ele><time>2026-03-28T13:30:12Z</time></trkpt><trkpt lat="44.859595988315974" lon="12.24528876515668"><ele>-2.8333333333333335</ele><time>2026-03-28T13:30:14Z</time></trkpt><trkpt lat="44.85968445223106" lon="12.245277662941156"><ele>-2.6666666666666665</ele><time>2026-03-28T13:30:16Z</time></trkpt><trkpt lat="44.859768786622595" lon="12.245262058675767"><ele>-2.5</ele><time>2026-03-28T13:30:18Z</time></trkpt><trkpt lat="44.85985260738094" lon="12.24526224296683"><ele>-2.333333333333333</ele><time>2026-03-28T13:30:20Z</time></trkpt><trkpt lat="44.859929785672634" lon="12.245269167645226"><ele>-2.1666666666666665</ele><time>2026-03-28T13:30:22Z</time></trkpt><trkpt lat="44.86000446615551" lon="12.245262353355345"><ele>-2.0</ele><time>2026-03-28T13:30:24Z</time></trkpt><trkpt lat="44.86008763351359" lon="12.245260637806036"><ele>-2.1666666666666665</ele><time>2026-03-28T13:30:26Z</time></trkpt><trkpt lat="44.86017104642655" lon="12.245264061498046"><ele>-2.333333333333333</ele><time>2026-03-28T13:30:28Z</time></trkpt><trkpt lat="44.86025477434989" lon="12.245265409014435"><ele>-2.5</ele><time>2026-03-28T13:30:30Z</time></trkpt><trkpt lat="44.86033294530033" lon="12.245260733912291"><ele>-2.6666666666666665</ele><time>2026-03-28T13:30:32Z</time></trkpt><trkpt lat="44.86040501998746" lon="12.245265035963174"><ele>-2.8333333333333335</ele><time>2026-03-28T13:30:34Z</time></trkpt><trkpt lat="44.860476658360085" lon="12.245266335313868"><ele>-3.0</ele><time>2026-03-28T13:30:36Z</time></trkpt><trkpt lat="44.86054297822182" lon="12.245272481067936"><ele>-3.0</ele><time>2026-03-28T13:30:38Z</time></trkpt><trkpt lat="44.86063582882378" lon="12.245270805938725"><ele>-3.0</ele><time>2026-03-28T13:30:41Z</time></trkpt><trkpt lat="44.86073306390485" lon="12.245271694001412"><ele>-3.0</ele><time>2026-03-28T13:30:44Z</time></trkpt><trkpt lat="44.86080314641257" lon="12.245275465857036"><ele>-3.0</ele><time>2026-03-28T13:30:46Z</time></trkpt><trkpt lat="44.86087183017569" lon="12.245275909035659"><ele>-3.0</ele><time>2026-03-28T13:30:48Z</time></trkpt><trkpt lat="44.86093593358936" lon="12.245273382462322"><ele>-3.0</ele><time>2026-03-28T13:30:50Z</time></trkpt><trkpt lat="44.86102942901227" lon="12.245269549426501"><ele>-3.0</ele><time>2026-03-28T13:30:53Z</time></trkpt><trkpt lat="44.861110134662916" lon="12.245272186322547"><ele>-3.0</ele><time>2026-03-28T13:30:55Z</time></trkpt><trkpt lat="44.86119656102299" lon="12.24527534919624"><ele>-3.0</ele><time>2026-03-28T13:30:57Z</time></trkpt><trkpt lat="44.86127777094665" lon="12.245283129993352"><ele>-3.0</ele><time>2026-03-28T13:30:59Z</time></trkpt><trkpt lat="44.861357562419045" lon="12.24528036239792"><ele>-3.0</ele><time>2026-03-28T13:31:01Z</time></trkpt><trkpt lat="44.86143005483452" lon="12.245277833614756"><ele>-3.0</ele><time>2026-03-28T13:31:03Z</time></trkpt><trkpt lat="44.86149806741317" lon="12.245279881119446"><ele>-3.0</ele><time>2026-03-28T13:31:05Z</time></trkpt><trkpt lat="44.861567307531395" lon="12.245269039612042"><ele>-3.0</ele><time>2026-03-28T13:31:06.999Z</time></trkpt><trkpt lat="44.861650990806226" lon="12.245278999921604"><ele>-3.0</ele><time>2026-03-28T13:31:08.999Z</time></trkpt><trkpt lat="44.86173694300708" lon="12.245283228311216"><ele>-3.0</ele><time>2026-03-28T13:31:10.999Z</time></trkpt><trkpt lat="44.861826066233746" lon="12.24528216566985"><ele>-3.0</ele><time>2026-03-28T13:31:12.999Z</time></trkpt><trkpt lat="44.861916686544454" lon="12.245284132510863"><ele>-3.0</ele><time>2026-03-28T13:31:14.999Z</time></trkpt><trkpt lat="44.8620075652778" lon="12.245290111833699"><ele>-3.0</ele><time>2026-03-28T13:31:17Z</time></trkpt><trkpt lat="44.86209632199109" lon="12.245276062087783"><ele>-3.0</ele><time>2026-03-28T13:31:19Z</time></trkpt><trkpt lat="44.8621814078073" lon="12.245276228134156"><ele>-3.0</ele><time>2026-03-28T13:31:21Z</time></trkpt><trkpt lat="44.86225985637479" lon="12.245279198868154"><ele>-3.0</ele><time>2026-03-28T13:31:23Z</time></trkpt><trkpt lat="44.862336002209005" lon="12.245279792753353"><ele>-3.0</ele><time>2026-03-28T13:31:25Z</time></trkpt><trkpt lat="44.86240834570406" lon="12.245291410722869"><ele>-3.0</ele><time>2026-03-28T13:31:27Z</time></trkpt><trkpt lat="44.8624814974959" lon="12.24529316276417"><ele>-3.0</ele><time>2026-03-28T13:31:29Z</time></trkpt><trkpt lat="44.8625645964637" lon="12.245294748746584"><ele>-3.0</ele><time>2026-03-28T13:31:31Z</time></trkpt><trkpt lat="44.862650158331626" lon="12.245301230564994"><ele>-3.0</ele><time>2026-03-28T13:31:33Z</time></trkpt><trkpt lat="44.86273649610472" lon="12.245304776181738"><ele>-3.0</ele><time>2026-03-28T13:31:35Z</time></trkpt><trkpt lat="44.86282331635867" lon="12.245309500526698"><ele>-3.0</ele><time>2026-03-28T13:31:37Z</time></trkpt><trkpt lat="44.86291020066787" lon="12.245312674257269"><ele>-3.0</ele><time>2026-03-28T13:31:39Z</time></trkpt><trkpt lat="44.86299679801456" lon="12.245319104188852"><ele>-3.0</ele><time>2026-03-28T13:31:41Z</time></trkpt><trkpt lat="44.86308515165219" lon="12.24531477266504"><ele>-3.0</ele><time>2026-03-28T13:31:43Z</time></trkpt><trkpt lat="44.86317201988539" lon="12.245328356489901"><ele>-3.0</ele><time>2026-03-28T13:31:45Z</time></trkpt><trkpt lat="44.863259837736294" lon="12.245329768055754"><ele>-3.0</ele><time>2026-03-28T13:31:47Z</time></trkpt><trkpt lat="44.86334583271087" lon="12.245331724340287"><ele>-3.0</ele><time>2026-03-28T13:31:49Z</time></trkpt><trkpt lat="44.86343384990701" lon="12.245333536514615"><ele>-3.0</ele><time>2026-03-28T13:31:51Z</time></trkpt><trkpt lat="44.863520324483474" lon="12.245338953981737"><ele>-3.0</ele><time>2026-03-28T13:31:53Z</time></trkpt><trkpt lat="44.86360809040076" lon="12.24534460256173"><ele>-3.0</ele><time>2026-03-28T13:31:55Z</time></trkpt><trkpt lat="44.86369465950147" lon="12.245346845409586"><ele>-3.0</ele><time>2026-03-28T13:31:57Z</time></trkpt><trkpt lat="44.86378230010806" lon="12.245350489750539"><ele>-3.0</ele><time>2026-03-28T13:31:59Z</time></trkpt><trkpt lat="44.86387181980851" lon="12.245351431658856"><ele>-3.0</ele><time>2026-03-28T13:32:01Z</time></trkpt><trkpt lat="44.86395706703093" lon="12.245358634547753"><ele>-3.0</ele><time>2026-03-28T13:32:03Z</time></trkpt><trkpt lat="44.86404430594837" lon="12.245363392625109"><ele>-3.0</ele><time>2026-03-28T13:32:05Z</time></trkpt><trkpt lat="44.864132338079074" lon="12.245367253016255"><ele>-3.0</ele><time>2026-03-28T13:32:07Z</time></trkpt><trkpt lat="44.864219976178106" lon="12.245367748705018"><ele>-3.0</ele><time>2026-03-28T13:32:09Z</time></trkpt><trkpt lat="44.86431169025247" lon="12.245373193441083"><ele>-3.0</ele><time>2026-03-28T13:32:11Z</time></trkpt><trkpt lat="44.86439683286139" lon="12.245376600035282"><ele>-3.0</ele><time>2026-03-28T13:32:13Z</time></trkpt><trkpt lat="44.864479054644775" lon="12.245393493424054"><ele>-3.0</ele><time>2026-03-28T13:32:15Z</time></trkpt><trkpt lat="44.86455369626954" lon="12.245415583912893"><ele>-2.9999999999999996</ele><time>2026-03-28T13:32:17Z</time></trkpt><trkpt lat="44.86461950148368" lon="12.245455223402193"><ele>-3.0</ele><time>2026-03-28T13:32:19Z</time></trkpt><trkpt lat="44.86468312472301" lon="12.245494164405622"><ele>-3.0</ele><time>2026-03-28T13:32:21Z</time></trkpt><trkpt lat="44.86474800443116" lon="12.245526746039074"><ele>-3.0</ele><time>2026-03-28T13:32:23Z</time></trkpt><trkpt lat="44.864808444988725" lon="12.24555429166118"><ele>-3.0</ele><time>2026-03-28T13:32:25Z</time></trkpt><trkpt lat="44.86487523816051" lon="12.245579358158514"><ele>-2.9999999999999996</ele><time>2026-03-28T13:32:27Z</time></trkpt><trkpt lat="44.86495891848975" lon="12.245601943113959"><ele>-3.0</ele><time>2026-03-28T13:32:29Z</time></trkpt><trkpt lat="44.865043258343206" lon="12.245622027717248"><ele>-2.8333333333333335</ele><time>2026-03-28T13:32:31Z</time></trkpt><trkpt lat="44.86512751493203" lon="12.245624455810036"><ele>-2.6666666666666665</ele><time>2026-03-28T13:32:33Z</time></trkpt><trkpt lat="44.8652087974487" lon="12.245612814995642"><ele>-2.5</ele><time>2026-03-28T13:32:35Z</time></trkpt><trkpt lat="44.86528287524734" lon="12.24559821438258"><ele>-2.333333333333333</ele><time>2026-03-28T13:32:37Z</time></trkpt><trkpt lat="44.865352702238745" lon="12.245607694908834"><ele>-2.1666666666666665</ele><time>2026-03-28T13:32:39Z</time></trkpt><trkpt lat="44.86541904120376" lon="12.245619972994803"><ele>-2.0</ele><time>2026-03-28T13:32:41Z</time></trkpt><trkpt lat="44.86551015050425" lon="12.245600554867318"><ele>-2.0</ele><time>2026-03-28T13:32:44Z</time></trkpt><trkpt lat="44.86553463039414" lon="12.245509087295082"><ele>-1.9999999999999998</ele><time>2026-03-28T13:32:46Z</time></trkpt><trkpt lat="44.86551937628601" lon="12.24540610618748"><ele>-2.0</ele><time>2026-03-28T13:32:48Z</time></trkpt><trkpt lat="44.86550734338083" lon="12.245302221205186"><ele>-2.0</ele><time>2026-03-28T13:32:50Z</time></trkpt><trkpt lat="44.86550000411919" lon="12.245204806346035"><ele>-1.9999999999999998</ele><time>2026-03-28T13:32:52Z</time></trkpt><trkpt lat="44.86549516368984" lon="12.245112970676425"><ele>-2.0</ele><time>2026-03-28T13:32:53.999Z</time></trkpt><trkpt lat="44.86548776549546" lon="12.244998242679037"><ele>-2.0</ele><time>2026-03-28T13:32:55.999Z</time></trkpt><trkpt lat="44.86549277484196" lon="12.244875060085937"><ele>-1.9999999999999998</ele><time>2026-03-28T13:32:57.999Z</time></trkpt><trkpt lat="44.86548153360562" lon="12.244751477598774"><ele>-2.0</ele><time>2026-03-28T13:32:59.999Z</time></trkpt><trkpt lat="44.86547690588183" lon="12.24462562624405"><ele>-2.0</ele><time>2026-03-28T13:33:01.999Z</time></trkpt><trkpt lat="44.86546918828783" lon="12.244498815507534"><ele>-2.0</ele><time>2026-03-28T13:33:03.999Z</time></trkpt><trkpt lat="44.86545759642095" lon="12.244375564498236"><ele>-1.9999999999999998</ele><time>2026-03-28T13:33:05.999Z</time></trkpt><trkpt lat="44.86545068009549" lon="12.244254444365884"><ele>-2.0</ele><time>2026-03-28T13:33:07.999Z</time></trkpt><trkpt lat="44.86543757892121" lon="12.244138014723823"><ele>-1.9999999999999998</ele><time>2026-03-28T13:33:09.999Z</time></trkpt><trkpt lat="44.86542924956294" lon="12.244013098670793"><ele>-2.0</ele><time>2026-03-28T13:33:11.999Z</time></trkpt><trkpt lat="44.86542059788305" lon="12.243888439439159"><ele>-2.0</ele><time>2026-03-28T13:33:13.999Z</time></trkpt><trkpt lat="44.86540822792535" lon="12.243761919346131"><ele>-2.0</ele><time>2026-03-28T13:33:15.999Z</time></trkpt><trkpt lat="44.86540212615977" lon="12.243639984839053"><ele>-1.9999999999999998</ele><time>2026-03-28T13:33:17.999Z</time></trkpt><trkpt lat="44.86538803592435" lon="12.243516317439415"><ele>-2.0</ele><time>2026-03-28T13:33:19.999Z</time></trkpt><trkpt lat="44.86538155413899" lon="12.243395070049207"><ele>-1.9999999999999998</ele><time>2026-03-28T13:33:21.999Z</time></trkpt><trkpt lat="44.8653697624126" lon="12.243269521339691"><ele>-2.0</ele><time>2026-03-28T13:33:24Z</time></trkpt><trkpt lat="44.86536153939803" lon="12.24315780183852"><ele>-2.0</ele><time>2026-03-28T13:33:26Z</time></trkpt><trkpt lat="44.865354169565784" lon="12.243045036060437"><ele>-2.0</ele><time>2026-03-28T13:33:28Z</time></trkpt><trkpt lat="44.86534731213082" lon="12.24292745619798"><ele>-1.9999999999999998</ele><time>2026-03-28T13:33:30Z</time></trkpt><trkpt lat="44.86534249187377" lon="12.242801741415802"><ele>-2.0</ele><time>2026-03-28T13:33:32Z</time></trkpt><trkpt lat="44.86533004694289" lon="12.242678462896352"><ele>-1.9999999999999998</ele><time>2026-03-28T13:33:34Z</time></trkpt><trkpt lat="44.865321795316596" lon="12.242553606740442"><ele>-2.0</ele><time>2026-03-28T13:33:36Z</time></trkpt><trkpt lat="44.865313864179505" lon="12.242430618115527"><ele>-2.0</ele><time>2026-03-28T13:33:38Z</time></trkpt><trkpt lat="44.865304232384936" lon="12.24231341409256"><ele>-2.0</ele><time>2026-03-28T13:33:40Z</time></trkpt><trkpt lat="44.86529567566529" lon="12.242202049375583"><ele>-1.9999999999999998</ele><time>2026-03-28T13:33:42Z</time></trkpt><trkpt lat="44.8652866077486" lon="12.242089613088073"><ele>-2.0</ele><time>2026-03-28T13:33:44Z</time></trkpt><trkpt lat="44.865277280529085" lon="12.241963132317222"><ele>-2.1666666666666665</ele><time>2026-03-28T13:33:46Z</time></trkpt><trkpt lat="44.865265673971116" lon="12.241844653340076"><ele>-2.333333333333333</ele><time>2026-03-28T13:33:48Z</time></trkpt><trkpt lat="44.86526090083381" lon="12.241736204326482"><ele>-2.5</ele><time>2026-03-28T13:33:50Z</time></trkpt><trkpt lat="44.865249994273356" lon="12.241630394100541"><ele>-2.6666666666666665</ele><time>2026-03-28T13:33:52Z</time></trkpt><trkpt lat="44.86524101740678" lon="12.241533960737147"><ele>-2.8333333333333335</ele><time>2026-03-28T13:33:54Z</time></trkpt><trkpt lat="44.865231178934636" lon="12.241430294129126"><ele>-3.0</ele><time>2026-03-28T13:33:56Z</time></trkpt><trkpt lat="44.86522239841267" lon="12.24131032335284"><ele>-3.0</ele><time>2026-03-28T13:33:58Z</time></trkpt><trkpt lat="44.86521238290345" lon="12.241188029771868"><ele>-3.0</ele><time>2026-03-28T13:34:00Z</time></trkpt><trkpt lat="44.8652000172822" lon="12.241067491783095"><ele>-3.0</ele><time>2026-03-28T13:34:02Z</time></trkpt><trkpt lat="44.86518554803598" lon="12.240954253027624"><ele>-3.0</ele><time>2026-03-28T13:34:04Z</time></trkpt><trkpt lat="44.86517137189811" lon="12.240855652102127"><ele>-3.0</ele><time>2026-03-28T13:34:06Z</time></trkpt><trkpt lat="44.865157833853274" lon="12.240766739360778"><ele>-3.0</ele><time>2026-03-28T13:34:08Z</time></trkpt><trkpt lat="44.865142840603994" lon="12.240672181828295"><ele>-3.1666666666666665</ele><time>2026-03-28T13:34:11Z</time></trkpt><trkpt lat="44.86514129574025" lon="12.240579860798332"><ele>-3.333333333333333</ele><time>2026-03-28T13:34:16Z</time></trkpt><trkpt lat="44.86516627266559" lon="12.24048238780324"><ele>-3.5</ele><time>2026-03-28T13:36:12Z</time></trkpt><trkpt lat="44.865158766629364" lon="12.24037685286716"><ele>-3.6666666666666665</ele><time>2026-03-28T13:36:15Z</time></trkpt><trkpt lat="44.865152788509306" lon="12.240253590223936"><ele>-3.833333333333333</ele><time>2026-03-28T13:36:18Z</time></trkpt><trkpt lat="44.865139575271954" lon="12.24014464190238"><ele>-4.0</ele><time>2026-03-28T13:36:20Z</time></trkpt><trkpt lat="44.86513629459637" lon="12.240023192691083"><ele>-3.9999999999999996</ele><time>2026-03-28T13:36:22Z</time></trkpt><trkpt lat="44.86512712205231" lon="12.239899305227848"><ele>-4.0</ele><time>2026-03-28T13:36:24Z</time></trkpt><trkpt lat="44.865112347161286" lon="12.239772752428719"><ele>-4.0</ele><time>2026-03-28T13:36:26Z</time></trkpt><trkpt lat="44.86510517049338" lon="12.239654292774086"><ele>-4.0</ele><time>2026-03-28T13:36:28Z</time></trkpt><trkpt lat="44.86509540024672" lon="12.239542041049889"><ele>-3.9999999999999996</ele><time>2026-03-28T13:36:30Z</time></trkpt><trkpt lat="44.865076430552406" lon="12.23943564385606"><ele>-4.0</ele><time>2026-03-28T13:36:32Z</time></trkpt><trkpt lat="44.86502420548644" lon="12.239362626522912"><ele>-3.833333333333333</ele><time>2026-03-28T13:36:34Z</time></trkpt><trkpt lat="44.86494772496356" lon="12.239342724803945"><ele>-3.6666666666666665</ele><time>2026-03-28T13:36:36Z</time></trkpt><trkpt lat="44.86486814732873" lon="12.239353516829738"><ele>-3.5</ele><time>2026-03-28T13:36:38Z</time></trkpt><trkpt lat="44.86477888423263" lon="12.239341162092801"><ele>-3.333333333333333</ele><time>2026-03-28T13:36:40Z</time></trkpt><trkpt lat="44.864689374682804" lon="12.239320293150667"><ele>-3.1666666666666665</ele><time>2026-03-28T13:36:42Z</time></trkpt><trkpt lat="44.86460553631106" lon="12.23928519272086"><ele>-3.0</ele><time>2026-03-28T13:36:43.999Z</time></trkpt><trkpt lat="44.86453591396317" lon="12.23920167137328"><ele>-3.0</ele><time>2026-03-28T13:36:45.999Z</time></trkpt><trkpt lat="44.86449425942927" lon="12.239086642164548"><ele>-3.0</ele><time>2026-03-28T13:36:47.999Z</time></trkpt><trkpt lat="44.86446889580972" lon="12.238967767738309"><ele>-3.0</ele><time>2026-03-28T13:36:49.999Z</time></trkpt><trkpt lat="44.86444314525592" lon="12.238848558271012"><ele>-3.0</ele><time>2026-03-28T13:36:51.999Z</time></trkpt><trkpt lat="44.86441536132562" lon="12.238728105732696"><ele>-3.0</ele><time>2026-03-28T13:36:53.999Z</time></trkpt><trkpt lat="44.86438588122871" lon="12.238608891695888"><ele>-3.0</ele><time>2026-03-28T13:36:55.999Z</time></trkpt><trkpt lat="44.86436168510502" lon="12.238489974517092"><ele>-3.0</ele><time>2026-03-28T13:36:57.999Z</time></trkpt><trkpt lat="44.8643311445187" lon="12.23837349008264"><ele>-3.0</ele><time>2026-03-28T13:36:59.999Z</time></trkpt><trkpt lat="44.86430342040214" lon="12.238256574466027"><ele>-3.0</ele><time>2026-03-28T13:37:01.999Z</time></trkpt><trkpt lat="44.8642730732294" lon="12.23814020451557"><ele>-3.0</ele><time>2026-03-28T13:37:03.999Z</time></trkpt><trkpt lat="44.86424753043933" lon="12.238023339623927"><ele>-3.0</ele><time>2026-03-28T13:37:05.999Z</time></trkpt><trkpt lat="44.86422290936424" lon="12.237906220115002"><ele>-3.0</ele><time>2026-03-28T13:37:07.999Z</time></trkpt><trkpt lat="44.864192717991216" lon="12.237788577892012"><ele>-3.0</ele><time>2026-03-28T13:37:09.999Z</time></trkpt><trkpt lat="44.86416378729256" lon="12.237670425227721"><ele>-3.0</ele><time>2026-03-28T13:37:11.999Z</time></trkpt><trkpt lat="44.86413611023063" lon="12.23755112705908"><ele>-3.0</ele><time>2026-03-28T13:37:13.999Z</time></trkpt><trkpt lat="44.86410752636842" lon="12.23743415741786"><ele>-3.0</ele><time>2026-03-28T13:37:15.999Z</time></trkpt><trkpt lat="44.86407896140221" lon="12.237317702352662"><ele>-3.0</ele><time>2026-03-28T13:37:17.999Z</time></trkpt><trkpt lat="44.864048525947155" lon="12.237202204463122"><ele>-3.0</ele><time>2026-03-28T13:37:19.999Z</time></trkpt><trkpt lat="44.86402169780811" lon="12.237082689837107"><ele>-3.0</ele><time>2026-03-28T13:37:21.999Z</time></trkpt><trkpt lat="44.86399157059989" lon="12.236967104308262"><ele>-3.0</ele><time>2026-03-28T13:37:23.999Z</time></trkpt><trkpt lat="44.86396244761736" lon="12.236852923002926"><ele>-3.0</ele><time>2026-03-28T13:37:25.999Z</time></trkpt><trkpt lat="44.86393752799298" lon="12.236733221956351"><ele>-3.0</ele><time>2026-03-28T13:37:27.999Z</time></trkpt><trkpt lat="44.863909200155994" lon="12.236616999533966"><ele>-3.0</ele><time>2026-03-28T13:37:29.999Z</time></trkpt><trkpt lat="44.86387962714591" lon="12.236503803681344"><ele>-3.0</ele><time>2026-03-28T13:37:31.999Z</time></trkpt><trkpt lat="44.86385285488772" lon="12.23638666803971"><ele>-3.0</ele><time>2026-03-28T13:37:34Z</time></trkpt><trkpt lat="44.86382410357175" lon="12.236269990465816"><ele>-3.0</ele><time>2026-03-28T13:37:36Z</time></trkpt><trkpt lat="44.86379898331029" lon="12.236153197554376"><ele>-3.0</ele><time>2026-03-28T13:37:38Z</time></trkpt><trkpt lat="44.86377780892648" lon="12.236033587808103"><ele>-3.0</ele><time>2026-03-28T13:37:40Z</time></trkpt><trkpt lat="44.8637600377905" lon="12.235908582694778"><ele>-3.0</ele><time>2026-03-28T13:37:42Z</time></trkpt><trkpt lat="44.86374554008776" lon="12.235791665886497"><ele>-3.0</ele><time>2026-03-28T13:37:44Z</time></trkpt><trkpt lat="44.86373295185642" lon="12.235680715208407"><ele>-3.1666666666666665</ele><time>2026-03-28T13:37:46Z</time></trkpt><trkpt lat="44.863723400440776" lon="12.235580823629824"><ele>-3.333333333333333</ele><time>2026-03-28T13:37:48Z</time></trkpt><trkpt lat="44.86371686603274" lon="12.235471986070813"><ele>-3.5</ele><time>2026-03-28T13:37:50Z</time></trkpt><trkpt lat="44.86370558467921" lon="12.2353477526329"><ele>-3.6666666666666665</ele><time>2026-03-28T13:37:52Z</time></trkpt><trkpt lat="44.86369742277204" lon="12.235226309860215"><ele>-3.833333333333333</ele><time>2026-03-28T13:37:54Z</time></trkpt><trkpt lat="44.86369264917552" lon="12.235105464235536"><ele>-4.0</ele><time>2026-03-28T13:37:56Z</time></trkpt><trkpt lat="44.86369168282632" lon="12.234981332253142"><ele>-3.9999999999999996</ele><time>2026-03-28T13:37:58Z</time></trkpt><trkpt lat="44.86369726842246" lon="12.23486043653478"><ele>-4.0</ele><time>2026-03-28T13:38:00Z</time></trkpt><trkpt lat="44.86371162514483" lon="12.234739380190701"><ele>-4.0</ele><time>2026-03-28T13:38:02Z</time></trkpt><trkpt lat="44.863726190897495" lon="12.234620671266585"><ele>-4.0</ele><time>2026-03-28T13:38:04Z</time></trkpt><trkpt lat="44.86374180870417" lon="12.234501710637018"><ele>-3.9999999999999996</ele><time>2026-03-28T13:38:06Z</time></trkpt><trkpt lat="44.86376185090821" lon="12.234381279904968"><ele>-4.0</ele><time>2026-03-28T13:38:08Z</time></trkpt><trkpt lat="44.86378574784575" lon="12.234261370360977"><ele>-3.9999999999999996</ele><time>2026-03-28T13:38:10Z</time></trkpt><trkpt lat="44.863812058145186" lon="12.234143151135601"><ele>-4.0</ele><time>2026-03-28T13:38:12Z</time></trkpt><trkpt lat="44.863840243878926" lon="12.234027373195472"><ele>-4.0</ele><time>2026-03-28T13:38:14Z</time></trkpt><trkpt lat="44.86386500601742" lon="12.233920559153061"><ele>-4.0</ele><time>2026-03-28T13:38:16Z</time></trkpt><trkpt lat="44.86388949389558" lon="12.233822921469333"><ele>-3.9999999999999996</ele><time>2026-03-28T13:38:18Z</time></trkpt><trkpt lat="44.86391235861237" lon="12.233715478982585"><ele>-4.0</ele><time>2026-03-28T13:38:20Z</time></trkpt><trkpt lat="44.863928387340806" lon="12.233606166652866"><ele>-3.8571428571428568</ele><time>2026-03-28T13:38:22Z</time></trkpt><trkpt lat="44.86393405321731" lon="12.23350552247339"><ele>-3.714285714285714</ele><time>2026-03-28T13:38:24Z</time></trkpt><trkpt lat="44.863928177224686" lon="12.233410944009268"><ele>-3.571428571428571</ele><time>2026-03-28T13:38:26Z</time></trkpt><trkpt lat="44.86392971716878" lon="12.233321167092233"><ele>-3.4285714285714284</ele><time>2026-03-28T13:38:28Z</time></trkpt><trkpt lat="44.863920163492814" lon="12.233192226089908"><ele>-3.2857142857142856</ele><time>2026-03-28T13:38:31Z</time></trkpt><trkpt lat="44.86391102314422" lon="12.233079983629272"><ele>-3.1428571428571423</ele><time>2026-03-28T13:38:33Z</time></trkpt><trkpt lat="44.86389915714023" lon="12.232977272570615"><ele>-3.0</ele><time>2026-03-28T13:38:35Z</time></trkpt><trkpt lat="44.86388434901948" lon="12.232878070125716"><ele>-2.8571428571428568</ele><time>2026-03-28T13:38:37Z</time></trkpt><trkpt lat="44.86387195810183" lon="12.232788583921348"><ele>-2.7142857142857144</ele><time>2026-03-28T13:38:39Z</time></trkpt><trkpt lat="44.863906235579925" lon="12.232688445716548"><ele>-2.571428571428571</ele><time>2026-03-28T13:38:42Z</time></trkpt><trkpt lat="44.86396865622639" lon="12.232639608876935"><ele>-2.4285714285714284</ele><time>2026-03-28T13:38:44Z</time></trkpt><trkpt lat="44.86402114684161" lon="12.232586771078505"><ele>-2.2857142857142856</ele><time>2026-03-28T13:38:46Z</time></trkpt><trkpt lat="44.86409483196169" lon="12.232572899843191"><ele>-2.142857142857143</ele><time>2026-03-28T13:38:47.999Z</time></trkpt><trkpt lat="44.86417875548533" lon="12.23256276844391"><ele>-2.0</ele><time>2026-03-28T13:38:49.999Z</time></trkpt><trkpt lat="44.86426628359277" lon="12.232535672521262"><ele>-1.6666666666666665</ele><time>2026-03-28T13:38:51.999Z</time></trkpt><trkpt lat="44.864354928743076" lon="12.23252197312203"><ele>-1.3333333333333333</ele><time>2026-03-28T13:38:53.999Z</time></trkpt><trkpt lat="44.86444507462954" lon="12.232501646388274"><ele>-1.0</ele><time>2026-03-28T13:38:55.999Z</time></trkpt><trkpt lat="44.86452614841707" lon="12.232472023606041"><ele>-0.6666666666666666</ele><time>2026-03-28T13:38:57.999Z</time></trkpt><trkpt lat="44.86460291680554" lon="12.232455501470568"><ele>-0.3333333333333333</ele><time>2026-03-28T13:38:59.999Z</time></trkpt><trkpt lat="44.86467365055151" lon="12.232435302146957"><ele>0.0</ele><time>2026-03-28T13:39:01.999Z</time></trkpt><trkpt lat="44.86474725283436" lon="12.232419123409805"><ele>0.0</ele><time>2026-03-28T13:39:03.999Z</time></trkpt><trkpt lat="44.86481981951665" lon="12.232407200656034"><ele>0.0</ele><time>2026-03-28T13:39:05.999Z</time></trkpt><trkpt lat="44.86489751488039" lon="12.232388840222356"><ele>0.0</ele><time>2026-03-28T13:39:07.999Z</time></trkpt><trkpt lat="44.864973442320334" lon="12.232366685555728"><ele>0.0</ele><time>2026-03-28T13:39:09.999Z</time></trkpt><trkpt lat="44.8650617914226" lon="12.23234676722969"><ele>0.0</ele><time>2026-03-28T13:39:11.999Z</time></trkpt><trkpt lat="44.86514971983073" lon="12.23232637445833"><ele>0.0</ele><time>2026-03-28T13:39:13.999Z</time></trkpt><trkpt lat="44.86524058296364" lon="12.232313152199906"><ele>0.16666666666666666</ele><time>2026-03-28T13:39:15.999Z</time></trkpt><trkpt lat="44.865324633488775" lon="12.23229115316166"><ele>0.3333333333333333</ele><time>2026-03-28T13:39:17.999Z</time></trkpt><trkpt lat="44.8654084508583" lon="12.23227693173979"><ele>0.5</ele><time>2026-03-28T13:39:19.999Z</time></trkpt><trkpt lat="44.86548893680249" lon="12.23225400593467"><ele>0.6666666666666666</ele><time>2026-03-28T13:39:21.999Z</time></trkpt><trkpt lat="44.865568436252275" lon="12.232234014381296"><ele>0.8333333333333333</ele><time>2026-03-28T13:39:23.999Z</time></trkpt><trkpt lat="44.86565513318204" lon="12.232217821238317"><ele>1.0</ele><time>2026-03-28T13:39:25.999Z</time></trkpt><trkpt lat="44.865737836786415" lon="12.232196444981833"><ele>0.9999999999999999</ele><time>2026-03-28T13:39:27.999Z</time></trkpt><trkpt lat="44.86581867428375" lon="12.232184320114703"><ele>1.0</ele><time>2026-03-28T13:39:29.999Z</time></trkpt><trkpt lat="44.86589425265442" lon="12.232164836506909"><ele>1.0</ele><time>2026-03-28T13:39:31.999Z</time></trkpt><trkpt lat="44.865963836406344" lon="12.23214933762155"><ele>1.0</ele><time>2026-03-28T13:39:33.999Z</time></trkpt><trkpt lat="44.86603056544599" lon="12.232136470696751"><ele>0.9999999999999999</ele><time>2026-03-28T13:39:35.999Z</time></trkpt><trkpt lat="44.866109026131284" lon="12.23211050747151"><ele>1.0</ele><time>2026-03-28T13:39:37.999Z</time></trkpt><trkpt lat="44.86618764572961" lon="12.23209789426587"><ele>0.33333333333333326</ele><time>2026-03-28T13:39:40Z</time></trkpt><trkpt lat="44.866263497199924" lon="12.232066308956552"><ele>-0.33333333333333337</ele><time>2026-03-28T13:39:42Z</time></trkpt><trkpt lat="44.866337116219675" lon="12.232051485919227"><ele>-1.0</ele><time>2026-03-28T13:39:44Z</time></trkpt><trkpt lat="44.86640227928963" lon="12.23203717560965"><ele>-1.6666666666666667</ele><time>2026-03-28T13:39:46Z</time></trkpt><trkpt lat="44.866491193508494" lon="12.23201528415927"><ele>-2.3333333333333335</ele><time>2026-03-28T13:39:49Z</time></trkpt><trkpt lat="44.86656992611445" lon="12.23199821109013"><ele>-3.0</ele><time>2026-03-28T13:39:52Z</time></trkpt><trkpt lat="44.86663991796611" lon="12.231983623503774"><ele>-3.0</ele><time>2026-03-28T13:39:55Z</time></trkpt><trkpt lat="44.866709985348564" lon="12.231937958194461"><ele>-3.0</ele><time>2026-03-28T13:39:59Z</time></trkpt><trkpt lat="44.866704654241225" lon="12.231808524464473"><ele>-3.0</ele><time>2026-03-28T13:40:03Z</time></trkpt><trkpt lat="44.86668051737827" lon="12.231678716986123"><ele>-3.0</ele><time>2026-03-28T13:40:06Z</time></trkpt><trkpt lat="44.86665127218024" lon="12.231562892448778"><ele>-3.0</ele><time>2026-03-28T13:40:08Z</time></trkpt><trkpt lat="44.866618204872516" lon="12.231452235988641"><ele>-3.0</ele><time>2026-03-28T13:40:10Z</time></trkpt><trkpt lat="44.86658330686669" lon="12.231344024578469"><ele>-3.0</ele><time>2026-03-28T13:40:12Z</time></trkpt><trkpt lat="44.86656160573871" lon="12.23123600738849"><ele>-3.0</ele><time>2026-03-28T13:40:14Z</time></trkpt><trkpt lat="44.86654102506891" lon="12.231135581705418"><ele>-3.0</ele><time>2026-03-28T13:40:16Z</time></trkpt><trkpt lat="44.866524018765276" lon="12.231045448661874"><ele>-3.0</ele><time>2026-03-28T13:40:18Z</time></trkpt><trkpt lat="44.86649224709997" lon="12.230923489229662"><ele>-3.0</ele><time>2026-03-28T13:40:21Z</time></trkpt><trkpt lat="44.86646704431611" lon="12.230812131688278"><ele>-3.0</ele><time>2026-03-28T13:40:24Z</time></trkpt><trkpt lat="44.86646022182058" lon="12.230691135825943"><ele>-3.1666666666666665</ele><time>2026-03-28T13:40:27Z</time></trkpt><trkpt lat="44.866413010673604" lon="12.230587808518484"><ele>-3.333333333333333</ele><time>2026-03-28T13:40:29Z</time></trkpt><trkpt lat="44.86639219842035" lon="12.230483506518825"><ele>-3.5</ele><time>2026-03-28T13:40:31Z</time></trkpt><trkpt lat="44.866377827571355" lon="12.230395276099152"><ele>-3.6666666666666665</ele><time>2026-03-28T13:40:33Z</time></trkpt><trkpt lat="44.866353180817335" lon="12.230281553873512"><ele>-3.833333333333333</ele><time>2026-03-28T13:40:36Z</time></trkpt><trkpt lat="44.86632546266128" lon="12.23018509514112"><ele>-4.0</ele><time>2026-03-28T13:40:38Z</time></trkpt><trkpt lat="44.86631316446824" lon="12.230086313059944"><ele>-3.9999999999999996</ele><time>2026-03-28T13:40:40Z</time></trkpt><trkpt lat="44.86627124052418" lon="12.229962782261785"><ele>-4.0</ele><time>2026-03-28T13:40:42.999Z</time></trkpt><trkpt lat="44.86624941459433" lon="12.229845353599014"><ele>-4.0</ele><time>2026-03-28T13:40:44.999Z</time></trkpt><trkpt lat="44.86623157442403" lon="12.229735401584534"><ele>-4.0</ele><time>2026-03-28T13:40:46.999Z</time></trkpt><trkpt lat="44.866205058730145" lon="12.22962506409794"><ele>-3.9999999999999996</ele><time>2026-03-28T13:40:48.999Z</time></trkpt><trkpt lat="44.86619496421629" lon="12.229528788389214"><ele>-4.0</ele><time>2026-03-28T13:40:50.999Z</time></trkpt><trkpt lat="44.86616092073552" lon="12.229405146640522"><ele>-3.833333333333333</ele><time>2026-03-28T13:40:53.999Z</time></trkpt><trkpt lat="44.86614330299107" lon="12.229315716318165"><ele>-3.6666666666666665</ele><time>2026-03-28T13:40:55.999Z</time></trkpt><trkpt lat="44.86611556567501" lon="12.229193830813143"><ele>-3.5</ele><time>2026-03-28T13:40:58.999Z</time></trkpt><trkpt lat="44.86610355598397" lon="12.229072936786594"><ele>-3.333333333333333</ele><time>2026-03-28T13:41:01.999Z</time></trkpt><trkpt lat="44.86607785988472" lon="12.228983979725152"><ele>-3.1666666666666665</ele><time>2026-03-28T13:41:04.999Z</time></trkpt><trkpt lat="44.86603541498756" lon="12.22887339309272"><ele>-3.0</ele><time>2026-03-28T13:41:07.999Z</time></trkpt><trkpt lat="44.866013466394854" lon="12.228772134489452"><ele>-3.0</ele><time>2026-03-28T13:41:11.999Z</time></trkpt><trkpt lat="44.866005797830695" lon="12.228669328951694"><ele>-3.0</ele><time>2026-03-28T13:41:14.999Z</time></trkpt><trkpt lat="44.86597543391876" lon="12.228574532508553"><ele>-3.0</ele><time>2026-03-28T13:41:18.999Z</time></trkpt><trkpt lat="44.86596964152303" lon="12.228472642309939"><ele>-3.0</ele><time>2026-03-28T13:41:21.999Z</time></trkpt><trkpt lat="44.865996234637194" lon="12.228583823809592"><ele>-3.0</ele><time>2026-03-28T13:42:08Z</time></trkpt><trkpt lat="44.86601519078163" lon="12.228689562671391"><ele>-3.0</ele><time>2026-03-28T13:42:11Z</time></trkpt><trkpt lat="44.86603672866041" lon="12.228800531720061"><ele>-3.0</ele><time>2026-03-28T13:42:14Z</time></trkpt><trkpt lat="44.86606007551908" lon="12.228931241518104"><ele>-3.0</ele><time>2026-03-28T13:42:16Z</time></trkpt><trkpt lat="44.866078188917356" lon="12.229029033587793"><ele>-3.0</ele><time>2026-03-28T13:42:18Z</time></trkpt><trkpt lat="44.86610195117492" lon="12.229111464243116"><ele>-3.0</ele><time>2026-03-28T13:42:20Z</time></trkpt><trkpt lat="44.86611780784847" lon="12.229203079634841"><ele>-3.0</ele><time>2026-03-28T13:42:22Z</time></trkpt><trkpt lat="44.86614151380301" lon="12.229313349533056"><ele>-3.0</ele><time>2026-03-28T13:42:24Z</time></trkpt><trkpt lat="44.86617638877721" lon="12.229415934031035"><ele>-2.8571428571428568</ele><time>2026-03-28T13:42:26Z</time></trkpt><trkpt lat="44.866196298202276" lon="12.229517454778119"><ele>-2.7142857142857144</ele><time>2026-03-28T13:42:28Z</time></trkpt><trkpt lat="44.86621038535454" lon="12.229613051638928"><ele>-2.571428571428571</ele><time>2026-03-28T13:42:30Z</time></trkpt><trkpt lat="44.86623466509759" lon="12.229711877300495"><ele>-2.4285714285714284</ele><time>2026-03-28T13:42:32Z</time></trkpt><trkpt lat="44.86626907042864" lon="12.22980360224639"><ele>-2.2857142857142856</ele><time>2026-03-28T13:42:34Z</time></trkpt><trkpt lat="44.8662895607915" lon="12.229895761586207"><ele>-2.142857142857143</ele><time>2026-03-28T13:42:36Z</time></trkpt><trkpt lat="44.86631196950087" lon="12.229998551298886"><ele>-2.0</ele><time>2026-03-28T13:42:38Z</time></trkpt><trkpt lat="44.866330392024" lon="12.230094247462642"><ele>-2.1666666666666665</ele><time>2026-03-28T13:42:40Z</time></trkpt><trkpt lat="44.86635625636807" lon="12.230182069683288"><ele>-2.333333333333333</ele><time>2026-03-28T13:42:42Z</time></trkpt><trkpt lat="44.86638094946127" lon="12.23029693401247"><ele>-2.5</ele><time>2026-03-28T13:42:44Z</time></trkpt><trkpt lat="44.86639832450762" lon="12.230415192246465"><ele>-2.6666666666666665</ele><time>2026-03-28T13:42:46Z</time></trkpt><trkpt lat="44.86642299269031" lon="12.230522841180642"><ele>-2.8333333333333335</ele><time>2026-03-28T13:42:48Z</time></trkpt><trkpt lat="44.86644132814486" lon="12.230627070596684"><ele>-3.0</ele><time>2026-03-28T13:42:49.999Z</time></trkpt><trkpt lat="44.8664708597659" lon="12.230738900744647"><ele>-3.0</ele><time>2026-03-28T13:42:51.999Z</time></trkpt><trkpt lat="44.86649925831827" lon="12.230851334216599"><ele>-3.0</ele><time>2026-03-28T13:42:53.999Z</time></trkpt><trkpt lat="44.86653028297066" lon="12.230956683090868"><ele>-3.0</ele><time>2026-03-28T13:42:55.999Z</time></trkpt><trkpt lat="44.866541705088295" lon="12.231065468235606"><ele>-3.0</ele><time>2026-03-28T13:42:57.999Z</time></trkpt><trkpt lat="44.86657266938222" lon="12.231179022326376"><ele>-3.0</ele><time>2026-03-28T13:42:59.999Z</time></trkpt><trkpt lat="44.86660671397629" lon="12.231295928663489"><ele>-3.0</ele><time>2026-03-28T13:43:01.999Z</time></trkpt><trkpt lat="44.86661434032494" lon="12.231424823399871"><ele>-3.0</ele><time>2026-03-28T13:43:03.999Z</time></trkpt><trkpt lat="44.866642631775505" lon="12.231537784288761"><ele>-3.0</ele><time>2026-03-28T13:43:05.999Z</time></trkpt><trkpt lat="44.86667878382874" lon="12.231629191597856"><ele>-3.0</ele><time>2026-03-28T13:43:07.999Z</time></trkpt><trkpt lat="44.86670215170538" lon="12.231744618231149"><ele>-3.0</ele><time>2026-03-28T13:43:10.999Z</time></trkpt><trkpt lat="44.86672741815608" lon="12.23185871581516"><ele>-3.0</ele><time>2026-03-28T13:43:13.999Z</time></trkpt><trkpt lat="44.866739650939564" lon="12.231971623594156"><ele>-3.0</ele><time>2026-03-28T13:43:16.999Z</time></trkpt><trkpt lat="44.86681670922362" lon="12.231976596341253"><ele>-2.8333333333333335</ele><time>2026-03-28T13:43:19.999Z</time></trkpt><trkpt lat="44.8668940338311" lon="12.23194322037709"><ele>-2.6666666666666665</ele><time>2026-03-28T13:43:21.999Z</time></trkpt><trkpt lat="44.86695410907873" lon="12.231907107686927"><ele>-2.5</ele><time>2026-03-28T13:43:23.999Z</time></trkpt><trkpt lat="44.86693759847111" lon="12.231796154833031"><ele>-2.333333333333333</ele><time>2026-03-28T13:43:25.999Z</time></trkpt><trkpt lat="44.86688745625034" lon="12.231675546199995"><ele>-2.1666666666666665</ele><time>2026-03-28T13:43:27.999Z</time></trkpt><trkpt lat="44.8668706005524" lon="12.231569452537927"><ele>-2.0</ele><time>2026-03-28T13:43:29.999Z</time></trkpt><trkpt lat="44.866845494955705" lon="12.231450072421886"><ele>-1.9999999999999998</ele><time>2026-03-28T13:43:31.999Z</time></trkpt><trkpt lat="44.86682083415621" lon="12.23134131600633"><ele>-2.0</ele><time>2026-03-28T13:43:33.999Z</time></trkpt><trkpt lat="44.86680036358928" lon="12.231234861938395"><ele>-2.0</ele><time>2026-03-28T13:43:35.999Z</time></trkpt><trkpt lat="44.866781611609326" lon="12.231128963570864"><ele>-2.0</ele><time>2026-03-28T13:43:37.999Z</time></trkpt><trkpt lat="44.86676355879778" lon="12.231031251002836"><ele>-1.9999999999999998</ele><time>2026-03-28T13:43:39.999Z</time></trkpt><trkpt lat="44.86673982011041" lon="12.230910330202494"><ele>-2.0</ele><time>2026-03-28T13:43:42.999Z</time></trkpt><trkpt lat="44.866724171138664" lon="12.230791919642597"><ele>-2.1666666666666665</ele><time>2026-03-28T13:43:45.999Z</time></trkpt><trkpt lat="44.86669505192879" lon="12.230698564658555"><ele>-2.333333333333333</ele><time>2026-03-28T13:43:47.999Z</time></trkpt><trkpt lat="44.86666395843506" lon="12.230580085340229"><ele>-2.5</ele><time>2026-03-28T13:43:50.999Z</time></trkpt><trkpt lat="44.86664018636554" lon="12.23047279566374"><ele>-2.6666666666666665</ele><time>2026-03-28T13:43:53Z</time></trkpt><trkpt lat="44.866615847114794" lon="12.23036001280602"><ele>-2.8333333333333335</ele><time>2026-03-28T13:43:55Z</time></trkpt><trkpt lat="44.86659115384089" lon="12.230246758471496"><ele>-3.0</ele><time>2026-03-28T13:43:57Z</time></trkpt><trkpt lat="44.8665664069458" lon="12.230151467356835"><ele>-3.1428571428571423</ele><time>2026-03-28T13:43:59Z</time></trkpt><trkpt lat="44.86655129117076" lon="12.230063812116422"><ele>-3.2857142857142856</ele><time>2026-03-28T13:44:01Z</time></trkpt><trkpt lat="44.86653038607714" lon="12.229978040819299"><ele>-3.4285714285714284</ele><time>2026-03-28T13:44:03Z</time></trkpt><trkpt lat="44.866508856599005" lon="12.229880225065644"><ele>-3.571428571428571</ele><time>2026-03-28T13:44:05Z</time></trkpt><trkpt lat="44.86649038963032" lon="12.229785226700482"><ele>-3.714285714285714</ele><time>2026-03-28T13:44:07Z</time></trkpt><trkpt lat="44.8664644624403" lon="12.229696810556824"><ele>-3.8571428571428568</ele><time>2026-03-28T13:44:09Z</time></trkpt><trkpt lat="44.86643961042907" lon="12.229582322112577"><ele>-4.0</ele><time>2026-03-28T13:44:11Z</time></trkpt><trkpt lat="44.86641233802803" lon="12.229471549545714"><ele>-3.833333333333333</ele><time>2026-03-28T13:44:13Z</time></trkpt><trkpt lat="44.86639329101056" lon="12.229356900187435"><ele>-3.6666666666666665</ele><time>2026-03-28T13:44:15Z</time></trkpt><trkpt lat="44.866367563107524" lon="12.229244632707383"><ele>-3.5</ele><time>2026-03-28T13:44:17Z</time></trkpt><trkpt lat="44.866344540436415" lon="12.22914436685429"><ele>-3.333333333333333</ele><time>2026-03-28T13:44:19Z</time></trkpt><trkpt lat="44.86632106794624" lon="12.22903750019499"><ele>-3.1666666666666665</ele><time>2026-03-28T13:44:21Z</time></trkpt><trkpt lat="44.866295960235995" lon="12.22891332277007"><ele>-3.0</ele><time>2026-03-28T13:44:23Z</time></trkpt><trkpt lat="44.86627086985811" lon="12.228791603782476"><ele>-3.0</ele><time>2026-03-28T13:44:25Z</time></trkpt><trkpt lat="44.866246111267515" lon="12.228680124132463"><ele>-3.0</ele><time>2026-03-28T13:44:27Z</time></trkpt><trkpt lat="44.86622228472641" lon="12.228579390095256"><ele>-3.0</ele><time>2026-03-28T13:44:29Z</time></trkpt><trkpt lat="44.86619891148363" lon="12.22845895632247"><ele>-3.0</ele><time>2026-03-28T13:44:31Z</time></trkpt><trkpt lat="44.86616858201693" lon="12.228336269627418"><ele>-3.0</ele><time>2026-03-28T13:44:33Z</time></trkpt><trkpt lat="44.86614426416463" lon="12.22821144841688"><ele>-3.0</ele><time>2026-03-28T13:44:35Z</time></trkpt><trkpt lat="44.86611669015873" lon="12.228102041978143"><ele>-2.9999999999999996</ele><time>2026-03-28T13:44:37Z</time></trkpt><trkpt lat="44.86609573716734" lon="12.228006427222047"><ele>-3.0</ele><time>2026-03-28T13:44:39Z</time></trkpt><trkpt lat="44.866075911388194" lon="12.227915896707355"><ele>-3.0</ele><time>2026-03-28T13:44:41Z</time></trkpt><trkpt lat="44.86605080725223" lon="12.227816455531967"><ele>-3.0</ele><time>2026-03-28T13:44:43Z</time></trkpt><trkpt lat="44.86604182764723" lon="12.227727475960648"><ele>-3.0</ele><time>2026-03-28T13:44:45Z</time></trkpt><trkpt lat="44.86601053607133" lon="12.22763265869542"><ele>-2.9999999999999996</ele><time>2026-03-28T13:44:49Z</time></trkpt><trkpt lat="44.86598788723432" lon="12.227549453424977"><ele>-3.0</ele><time>2026-03-28T13:44:52Z</time></trkpt><trkpt lat="44.86596011463741" lon="12.227442954678011"><ele>-3.0</ele><time>2026-03-28T13:44:54.999Z</time></trkpt><trkpt lat="44.86592814623454" lon="12.227310895732383"><ele>-3.0</ele><time>2026-03-28T13:44:57.999Z</time></trkpt><trkpt lat="44.865906872333085" lon="12.227223597918472"><ele>-3.0</ele><time>2026-03-28T13:44:59.999Z</time></trkpt><trkpt lat="44.86588709509235" lon="12.22713646069067"><ele>-3.0</ele><time>2026-03-28T13:45:01.999Z</time></trkpt><trkpt lat="44.865849712428464" lon="12.227019476430536"><ele>-3.0</ele><time>2026-03-28T13:45:04.999Z</time></trkpt><trkpt lat="44.86582310974016" lon="12.226925746138374"><ele>-3.0</ele><time>2026-03-28T13:45:07.999Z</time></trkpt><trkpt lat="44.86579924003385" lon="12.226822885516016"><ele>-2.9999999999999996</ele><time>2026-03-28T13:45:10.999Z</time></trkpt><trkpt lat="44.8657791077298" lon="12.226732291311452"><ele>-3.0</ele><time>2026-03-28T13:45:14.999Z</time></trkpt><trkpt lat="44.86575831768952" lon="12.22663176825023"><ele>-3.0</ele><time>2026-03-28T13:45:17.999Z</time></trkpt><trkpt lat="44.86573730484763" lon="12.226539804586588"><ele>-3.0</ele><time>2026-03-28T13:45:20.999Z</time></trkpt><trkpt lat="44.86571392668398" lon="12.226436587572541"><ele>-3.0</ele><time>2026-03-28T13:45:23.999Z</time></trkpt><trkpt lat="44.86569158297403" lon="12.226325410764604"><ele>-2.9999999999999996</ele><time>2026-03-28T13:45:26.999Z</time></trkpt><trkpt lat="44.8656720174922" lon="12.226234902881423"><ele>-3.0</ele><time>2026-03-28T13:45:28.999Z</time></trkpt><trkpt lat="44.865654279993684" lon="12.226145913262263"><ele>-3.1666666666666665</ele><time>2026-03-28T13:45:31.999Z</time></trkpt><trkpt lat="44.8656280568186" lon="12.226045239139408"><ele>-3.333333333333333</ele><time>2026-03-28T13:45:33.999Z</time></trkpt><trkpt lat="44.86561427558127" lon="12.225948368159443"><ele>-3.5</ele><time>2026-03-28T13:45:35.999Z</time></trkpt><trkpt lat="44.865611328984166" lon="12.225828555584783"><ele>-3.6666666666666665</ele><time>2026-03-28T13:45:38.999Z</time></trkpt><trkpt lat="44.86560500493283" lon="12.22569801898774"><ele>-3.833333333333333</ele><time>2026-03-28T13:45:41.999Z</time></trkpt><trkpt lat="44.865600919230836" lon="12.225572679810561"><ele>-4.0</ele><time>2026-03-28T13:45:44.999Z</time></trkpt><trkpt lat="44.86559694136587" lon="12.225439774789185"><ele>-3.9999999999999996</ele><time>2026-03-28T13:45:47.999Z</time></trkpt><trkpt lat="44.86559232702713" lon="12.22532484422428"><ele>-4.0</ele><time>2026-03-28T13:45:49.999Z</time></trkpt><trkpt lat="44.86558776003593" lon="12.225210358455293"><ele>-4.0</ele><time>2026-03-28T13:45:51.999Z</time></trkpt><trkpt lat="44.86558335986492" lon="12.225083153667905"><ele>-4.0</ele><time>2026-03-28T13:45:54.999Z</time></trkpt><trkpt lat="44.86557776456613" lon="12.224936317549696"><ele>-3.9999999999999996</ele><time>2026-03-28T13:45:58Z</time></trkpt><trkpt lat="44.86557165479673" lon="12.224840825375889"><ele>-4.0</ele><time>2026-03-28T13:46:00Z</time></trkpt><trkpt lat="44.865569633407375" lon="12.224733972486312"><ele>-3.6666666666666665</ele><time>2026-03-28T13:46:02Z</time></trkpt><trkpt lat="44.86556438330704" lon="12.224630360108936"><ele>-3.333333333333333</ele><time>2026-03-28T13:46:04Z</time></trkpt><trkpt lat="44.86556540735226" lon="12.224533555097064"><ele>-3.0</ele><time>2026-03-28T13:46:06Z</time></trkpt><trkpt lat="44.865557241151336" lon="12.224427397673868"><ele>-2.6666666666666665</ele><time>2026-03-28T13:46:08Z</time></trkpt><trkpt lat="44.86555182155627" lon="12.224305131225254"><ele>-2.333333333333333</ele><time>2026-03-28T13:46:10Z</time></trkpt><trkpt lat="44.865546152017856" lon="12.224178801360654"><ele>-2.0</ele><time>2026-03-28T13:46:12Z</time></trkpt><trkpt lat="44.86554368885446" lon="12.22406916622562"><ele>-1.8333333333333333</ele><time>2026-03-28T13:46:14Z</time></trkpt><trkpt lat="44.86553966874621" lon="12.223965702261589"><ele>-1.6666666666666665</ele><time>2026-03-28T13:46:16Z</time></trkpt><trkpt lat="44.865537870544564" lon="12.223844149248654"><ele>-1.5</ele><time>2026-03-28T13:46:19Z</time></trkpt><trkpt lat="44.86554070888275" lon="12.22371978126194"><ele>-1.3333333333333333</ele><time>2026-03-28T13:46:22Z</time></trkpt><trkpt lat="44.86555589463811" lon="12.223612824360007"><ele>-1.1666666666666665</ele><time>2026-03-28T13:46:26Z</time></trkpt><trkpt lat="44.865500052578895" lon="12.22354938356864"><ele>-1.0</ele><time>2026-03-28T13:46:30Z</time></trkpt><trkpt lat="44.865417721571035" lon="12.223546096381305"><ele>-0.9999999999999999</ele><time>2026-03-28T13:46:32Z</time></trkpt><trkpt lat="44.86533319463628" lon="12.223566918915804"><ele>-1.0</ele><time>2026-03-28T13:46:34Z</time></trkpt><trkpt lat="44.865260954564924" lon="12.223592115693956"><ele>-1.0</ele><time>2026-03-28T13:46:36Z</time></trkpt><trkpt lat="44.86518622437544" lon="12.223605360280766"><ele>-1.0</ele><time>2026-03-28T13:46:38Z</time></trkpt><trkpt lat="44.865097212657986" lon="12.223630606327612"><ele>-0.9999999999999999</ele><time>2026-03-28T13:46:40Z</time></trkpt><trkpt lat="44.86500285259166" lon="12.223660980073552"><ele>-1.0</ele><time>2026-03-28T13:46:42Z</time></trkpt><trkpt lat="44.864908368246944" lon="12.223686253600103"><ele>-0.9999999999999999</ele><time>2026-03-28T13:46:44Z</time></trkpt><trkpt lat="44.8648210975704" lon="12.22370746219937"><ele>-1.0</ele><time>2026-03-28T13:46:46Z</time></trkpt><trkpt lat="44.864737690443164" lon="12.223732437356583"><ele>-1.0</ele><time>2026-03-28T13:46:48Z</time></trkpt><trkpt lat="44.86466135468546" lon="12.223751813753955"><ele>-1.0</ele><time>2026-03-28T13:46:50Z</time></trkpt><trkpt lat="44.86458746352088" lon="12.223768289921283"><ele>-0.9999999999999999</ele><time>2026-03-28T13:46:52Z</time></trkpt><trkpt lat="44.86451053734635" lon="12.223787306647761"><ele>-1.0</ele><time>2026-03-28T13:46:54Z</time></trkpt><trkpt lat="44.86442010804735" lon="12.223812113435063"><ele>-0.9999999999999999</ele><time>2026-03-28T13:46:56Z</time></trkpt><trkpt lat="44.86433436897476" lon="12.223837950797046"><ele>-1.0</ele><time>2026-03-28T13:46:58Z</time></trkpt><trkpt lat="44.86425115684462" lon="12.223856011996398"><ele>-1.0</ele><time>2026-03-28T13:47:00Z</time></trkpt><trkpt lat="44.86417317901081" lon="12.22387037052848"><ele>-1.0</ele><time>2026-03-28T13:47:02Z</time></trkpt><trkpt lat="44.86409990509977" lon="12.223881011524782"><ele>-0.9999999999999999</ele><time>2026-03-28T13:47:04Z</time></trkpt><trkpt lat="44.86401402133523" lon="12.223864947474745"><ele>-1.0</ele><time>2026-03-28T13:47:07Z</time></trkpt><trkpt lat="44.86392711314484" lon="12.223819428588047"><ele>-1.3333333333333333</ele><time>2026-03-28T13:47:09.999Z</time></trkpt><trkpt lat="44.863865550594284" lon="12.223745769920754"><ele>-1.6666666666666665</ele><time>2026-03-28T13:47:12.999Z</time></trkpt><trkpt lat="44.86387105238703" lon="12.223639680937127"><ele>-2.0</ele><time>2026-03-28T13:47:14.999Z</time></trkpt><trkpt lat="44.86391360199962" lon="12.223548097607429"><ele>-2.3333333333333335</ele><time>2026-03-28T13:47:16.999Z</time></trkpt><trkpt lat="44.86394366791094" lon="12.223462371660236"><ele>-2.6666666666666665</ele><time>2026-03-28T13:47:18.999Z</time></trkpt><trkpt lat="44.863976620468286" lon="12.223378136260964"><ele>-3.0</ele><time>2026-03-28T13:47:20.999Z</time></trkpt><trkpt lat="44.86401323052624" lon="12.223269379076001"><ele>-3.0</ele><time>2026-03-28T13:47:22.999Z</time></trkpt><trkpt lat="44.864057056814666" lon="12.223160805721749"><ele>-3.0</ele><time>2026-03-28T13:47:24.999Z</time></trkpt><trkpt lat="44.864088660326644" lon="12.223055551076463"><ele>-3.0</ele><time>2026-03-28T13:47:26.999Z</time></trkpt><trkpt lat="44.86412234747764" lon="12.22295382546558"><ele>-3.0</ele><time>2026-03-28T13:47:28.999Z</time></trkpt><trkpt lat="44.864153686185645" lon="12.222853797017915"><ele>-3.0</ele><time>2026-03-28T13:47:30.999Z</time></trkpt><trkpt lat="44.86419439897168" lon="12.222736824653829"><ele>-3.0</ele><time>2026-03-28T13:47:32.999Z</time></trkpt><trkpt lat="44.864232686733644" lon="12.222618541140296"><ele>-2.8333333333333335</ele><time>2026-03-28T13:47:34.999Z</time></trkpt><trkpt lat="44.86426514248561" lon="12.222494652254568"><ele>-2.6666666666666665</ele><time>2026-03-28T13:47:36.999Z</time></trkpt><trkpt lat="44.86430454078743" lon="12.222388144292431"><ele>-2.5</ele><time>2026-03-28T13:47:38.999Z</time></trkpt><trkpt lat="44.864333048021024" lon="12.222286405567367"><ele>-2.333333333333333</ele><time>2026-03-28T13:47:40.999Z</time></trkpt><trkpt lat="44.8643655536604" lon="12.222181136971722"><ele>-2.1666666666666665</ele><time>2026-03-28T13:47:42.999Z</time></trkpt><trkpt lat="44.86440420937699" lon="12.22206355721511"><ele>-2.0</ele><time>2026-03-28T13:47:44.999Z</time></trkpt><trkpt lat="44.86444325435596" lon="12.221937631327295"><ele>-1.8333333333333333</ele><time>2026-03-28T13:47:46.999Z</time></trkpt><trkpt lat="44.86447883697818" lon="12.221821373554329"><ele>-1.6666666666666665</ele><time>2026-03-28T13:47:48.999Z</time></trkpt><trkpt lat="44.86451375602173" lon="12.221710703175818"><ele>-1.5</ele><time>2026-03-28T13:47:50.999Z</time></trkpt><trkpt lat="44.86455342245704" lon="12.221595179306753"><ele>-1.3333333333333333</ele><time>2026-03-28T13:47:52.999Z</time></trkpt><trkpt lat="44.86458793511736" lon="12.221488988128828"><ele>-1.1666666666666665</ele><time>2026-03-28T13:47:54.999Z</time></trkpt><trkpt lat="44.864623863787735" lon="12.22137695131938"><ele>-1.0</ele><time>2026-03-28T13:47:56.999Z</time></trkpt><trkpt lat="44.864661577621675" lon="12.221255948615733"><ele>-0.9999999999999999</ele><time>2026-03-28T13:47:58.999Z</time></trkpt><trkpt lat="44.86469775914296" lon="12.221143744457171"><ele>-1.0</ele><time>2026-03-28T13:48:00.999Z</time></trkpt><trkpt lat="44.864732004191744" lon="12.221042981478865"><ele>-1.0</ele><time>2026-03-28T13:48:02.999Z</time></trkpt><trkpt lat="44.86476170780478" lon="12.220942692866128"><ele>-1.0</ele><time>2026-03-28T13:48:05Z</time></trkpt><trkpt lat="44.86478333786896" lon="12.220847978562706"><ele>-0.9999999999999999</ele><time>2026-03-28T13:48:07Z</time></trkpt><trkpt lat="44.86482070373406" lon="12.220746800515427"><ele>-1.0</ele><time>2026-03-28T13:48:09Z</time></trkpt><trkpt lat="44.864859435539366" lon="12.22065272094555"><ele>-1.3333333333333333</ele><time>2026-03-28T13:48:11Z</time></trkpt><trkpt lat="44.86487904173964" lon="12.220559357242044"><ele>-1.6666666666666665</ele><time>2026-03-28T13:48:13Z</time></trkpt><trkpt lat="44.86490801334091" lon="12.220474667373695"><ele>-2.0</ele><time>2026-03-28T13:48:15Z</time></trkpt><trkpt lat="44.86490805284986" lon="12.220357190417415"><ele>-2.3333333333333335</ele><time>2026-03-28T13:48:18Z</time></trkpt><trkpt lat="44.864859490270746" lon="12.220274261985391"><ele>-2.6666666666666665</ele><time>2026-03-28T13:48:20Z</time></trkpt><trkpt lat="44.864773370393046" lon="12.220256528694632"><ele>-3.0</ele><time>2026-03-28T13:48:22Z</time></trkpt><trkpt lat="44.86469847310617" lon="12.220276525603072"><ele>-3.0</ele><time>2026-03-28T13:48:24Z</time></trkpt><trkpt lat="44.86461693857406" lon="12.220282526256037"><ele>-3.0</ele><time>2026-03-28T13:48:26Z</time></trkpt><trkpt lat="44.864527102575636" lon="12.22029068047241"><ele>-3.0</ele><time>2026-03-28T13:48:28Z</time></trkpt><trkpt lat="44.864444057513666" lon="12.220298557932784"><ele>-3.0</ele><time>2026-03-28T13:48:30Z</time></trkpt><trkpt lat="44.864366222405124" lon="12.22030481999208"><ele>-3.0</ele><time>2026-03-28T13:48:32Z</time></trkpt><trkpt lat="44.86429076252569" lon="12.220311803816202"><ele>-3.0</ele><time>2026-03-28T13:48:34Z</time></trkpt><trkpt lat="44.86421868764536" lon="12.220312905701572"><ele>-2.9999999999999996</ele><time>2026-03-28T13:48:36Z</time></trkpt><trkpt lat="44.864148678152425" lon="12.220328349510224"><ele>-3.0</ele><time>2026-03-28T13:48:38Z</time></trkpt><trkpt lat="44.86407951283469" lon="12.22032053092191"><ele>-3.0</ele><time>2026-03-28T13:48:40Z</time></trkpt><trkpt lat="44.864014925370974" lon="12.22031536921741"><ele>-3.0</ele><time>2026-03-28T13:48:42Z</time></trkpt><trkpt lat="44.86395103338853" lon="12.220324956852904"><ele>-3.0</ele><time>2026-03-28T13:48:44Z</time></trkpt><trkpt lat="44.863872844847556" lon="12.220348769355128"><ele>-2.9999999999999996</ele><time>2026-03-28T13:48:47Z</time></trkpt><trkpt lat="44.86378652602527" lon="12.220346705466325"><ele>-3.0</ele><time>2026-03-28T13:49:03.999Z</time></trkpt><trkpt lat="44.86378303402878" lon="12.22023910942278"><ele>-3.0</ele><time>2026-03-28T13:49:08.999Z</time></trkpt><trkpt lat="44.86371463360955" lon="12.220169638174735"><ele>-3.0</ele><time>2026-03-28T13:49:11.999Z</time></trkpt><trkpt lat="44.86364127234173" lon="12.220198721266094"><ele>-3.0</ele><time>2026-03-28T13:49:14.999Z</time></trkpt><trkpt lat="44.86356875075931" lon="12.2202172789114"><ele>-3.0</ele><time>2026-03-28T13:49:18.999Z</time></trkpt><trkpt lat="44.86348785979298" lon="12.220228369432999"><ele>-3.0</ele><time>2026-03-28T13:49:21.999Z</time></trkpt><trkpt lat="44.86340040277539" lon="12.220247214658379"><ele>-3.0</ele><time>2026-03-28T13:49:24.999Z</time></trkpt><trkpt lat="44.86331699642003" lon="12.220254669203564"><ele>-3.1666666666666665</ele><time>2026-03-28T13:49:27.999Z</time></trkpt><trkpt lat="44.86323217496829" lon="12.220263783524322"><ele>-3.333333333333333</ele><time>2026-03-28T13:49:30.999Z</time></trkpt><trkpt lat="44.86316275849132" lon="12.220270011322151"><ele>-3.5</ele><time>2026-03-28T13:49:32.999Z</time></trkpt><trkpt lat="44.863097787937" lon="12.220278288337258"><ele>-3.6666666666666665</ele><time>2026-03-28T13:49:34.999Z</time></trkpt><trkpt lat="44.86302470505526" lon="12.220281534454479"><ele>-3.833333333333333</ele><time>2026-03-28T13:49:37.999Z</time></trkpt><trkpt lat="44.862936120904514" lon="12.220285957164284"><ele>-4.0</ele><time>2026-03-28T13:49:40.999Z</time></trkpt><trkpt lat="44.86284721657457" lon="12.22029015887222"><ele>-4.0</ele><time>2026-03-28T13:49:43.999Z</time></trkpt><trkpt lat="44.86277601893024" lon="12.220301588055458"><ele>-3.9999999999999996</ele><time>2026-03-28T13:50:02.999Z</time></trkpt><trkpt lat="44.86270192176109" lon="12.22030693103012"><ele>-4.0</ele><time>2026-03-28T13:50:17Z</time></trkpt><trkpt lat="44.862632325902844" lon="12.220312404458413"><ele>-4.0</ele><time>2026-03-28T13:50:21Z</time></trkpt><trkpt lat="44.862556984853185" lon="12.220317756788626"><ele>-3.9999999999999996</ele><time>2026-03-28T13:50:25Z</time></trkpt><trkpt lat="44.862476544444355" lon="12.220327161189203"><ele>-4.0</ele><time>2026-03-28T13:50:29Z</time></trkpt><trkpt lat="44.86240690639711" lon="12.220329323427759"><ele>-4.0</ele><time>2026-03-28T13:50:32Z</time></trkpt><trkpt lat="44.86232480536276" lon="12.220335642985917"><ele>-3.714285714285714</ele><time>2026-03-28T13:50:36Z</time></trkpt><trkpt lat="44.862255772988604" lon="12.220339315142928"><ele>-3.428571428571428</ele><time>2026-03-28T13:50:40Z</time></trkpt><trkpt lat="44.86217779703761" lon="12.220340914017777"><ele>-3.142857142857143</ele><time>2026-03-28T13:50:43Z</time></trkpt><trkpt lat="44.862114184535216" lon="12.220351935468452"><ele>-2.8571428571428568</ele><time>2026-03-28T13:50:46Z</time></trkpt><trkpt lat="44.862042655069715" lon="12.220347992957224"><ele>-2.571428571428571</ele><time>2026-03-28T13:50:49Z</time></trkpt><trkpt lat="44.861977703715176" lon="12.220361634781481"><ele>-2.2857142857142856</ele><time>2026-03-28T13:50:51Z</time></trkpt><trkpt lat="44.86189991016349" lon="12.220372945940232"><ele>-2.0</ele><time>2026-03-28T13:50:54Z</time></trkpt><trkpt lat="44.86181654383213" lon="12.220376638836434"><ele>-1.9999999999999998</ele><time>2026-03-28T13:50:58Z</time></trkpt><trkpt lat="44.861735303521236" lon="12.220385763042946"><ele>-2.0</ele><time>2026-03-28T13:51:02Z</time></trkpt><trkpt lat="44.861659198178344" lon="12.220390274134447"><ele>-2.0</ele><time>2026-03-28T13:51:05Z</time></trkpt><trkpt lat="44.861588385138106" lon="12.220396575690572"><ele>-2.0</ele><time>2026-03-28T13:51:08Z</time></trkpt><trkpt lat="44.861510088933606" lon="12.220404433844898"><ele>-1.9999999999999998</ele><time>2026-03-28T13:51:12Z</time></trkpt><trkpt lat="44.86142387493025" lon="12.220411984209504"><ele>-2.0</ele><time>2026-03-28T13:51:15Z</time></trkpt><trkpt lat="44.86134901191755" lon="12.220417686278168"><ele>-1.9999999999999998</ele><time>2026-03-28T13:51:17.999Z</time></trkpt><trkpt lat="44.86127644851662" lon="12.220409979741852"><ele>-2.0</ele><time>2026-03-28T13:51:21.999Z</time></trkpt><trkpt lat="44.861187300858774" lon="12.220433668690355"><ele>-2.0</ele><time>2026-03-28T13:51:24.999Z</time></trkpt><trkpt lat="44.86111666118126" lon="12.220432013427462"><ele>-2.0</ele><time>2026-03-28T13:51:27.999Z</time></trkpt><trkpt lat="44.861072112283175" lon="12.220365392271228"><ele>-1.9999999999999998</ele><time>2026-03-28T13:51:31.999Z</time></trkpt><trkpt lat="44.86107776077541" lon="12.220251244926958"><ele>-2.0</ele><time>2026-03-28T13:51:34.999Z</time></trkpt><trkpt lat="44.861113282691434" lon="12.220148576842893"><ele>-1.9999999999999998</ele><time>2026-03-28T13:51:37.999Z</time></trkpt><trkpt lat="44.86114505154165" lon="12.220047913850092"><ele>-2.0</ele><time>2026-03-28T13:51:40.999Z</time></trkpt><trkpt lat="44.861174573603854" lon="12.219941363549848"><ele>-2.0</ele><time>2026-03-28T13:51:43.999Z</time></trkpt><trkpt lat="44.86120537237117" lon="12.219842173114912"><ele>-2.0</ele><time>2026-03-28T13:51:46.999Z</time></trkpt><trkpt lat="44.861235855071556" lon="12.219758301772451"><ele>-1.9999999999999998</ele><time>2026-03-28T13:51:49.999Z</time></trkpt><trkpt lat="44.861259939163304" lon="12.219655121555151"><ele>-2.0</ele><time>2026-03-28T13:51:53.999Z</time></trkpt><trkpt lat="44.86130156956398" lon="12.219539278131847"><ele>-2.142857142857143</ele><time>2026-03-28T13:51:56.999Z</time></trkpt><trkpt lat="44.86132749202981" lon="12.219449138716865"><ele>-2.2857142857142856</ele><time>2026-03-28T13:51:59.999Z</time></trkpt><trkpt lat="44.86136030215544" lon="12.21935064392306"><ele>-2.4285714285714284</ele><time>2026-03-28T13:52:04.999Z</time></trkpt><trkpt lat="44.861387012032715" lon="12.21925883762975"><ele>-2.571428571428571</ele><time>2026-03-28T13:52:08.999Z</time></trkpt><trkpt lat="44.86141870229473" lon="12.219164339981061"><ele>-2.7142857142857144</ele><time>2026-03-28T13:52:12.999Z</time></trkpt><trkpt lat="44.861449573438506" lon="12.219067933262654"><ele>-2.8571428571428568</ele><time>2026-03-28T13:52:18Z</time></trkpt><trkpt lat="44.861476522977874" lon="12.218979926325273"><ele>-3.0</ele><time>2026-03-28T13:52:21Z</time></trkpt><trkpt lat="44.861511441751674" lon="12.218873404838615"><ele>-3.0</ele><time>2026-03-28T13:52:26Z</time></trkpt><trkpt lat="44.861554927098574" lon="12.218747172304322"><ele>-3.0</ele><time>2026-03-28T13:52:29Z</time></trkpt><trkpt lat="44.86158277865566" lon="12.218660450116072"><ele>-3.0</ele><time>2026-03-28T13:52:31Z</time></trkpt><trkpt lat="44.86162111231057" lon="12.21855009543485"><ele>-3.0</ele><time>2026-03-28T13:52:34Z</time></trkpt><trkpt lat="44.86165783437373" lon="12.21843836875991"><ele>-3.0</ele><time>2026-03-28T13:52:37Z</time></trkpt><trkpt lat="44.86169364847357" lon="12.218329449679365"><ele>-3.0</ele><time>2026-03-28T13:52:40Z</time></trkpt><trkpt lat="44.8617253029332" lon="12.21823510043359"><ele>-2.8333333333333335</ele><time>2026-03-28T13:52:42Z</time></trkpt><trkpt lat="44.86175653647268" lon="12.218137895575593"><ele>-2.6666666666666665</ele><time>2026-03-28T13:52:44Z</time></trkpt><trkpt lat="44.86178826695479" lon="12.218041987916202"><ele>-2.5</ele><time>2026-03-28T13:52:46Z</time></trkpt><trkpt lat="44.86182178417776" lon="12.21794519162226"><ele>-2.333333333333333</ele><time>2026-03-28T13:52:48Z</time></trkpt><trkpt lat="44.86185280278958" lon="12.217846641774665"><ele>-2.1666666666666665</ele><time>2026-03-28T13:52:50Z</time></trkpt><trkpt lat="44.861883900525946" lon="12.217752370313503"><ele>-2.0</ele><time>2026-03-28T13:52:52Z</time></trkpt><trkpt lat="44.86191567464707" lon="12.217654579307462"><ele>-1.8333333333333333</ele><time>2026-03-28T13:52:54Z</time></trkpt><trkpt lat="44.86194774687084" lon="12.217556638628706"><ele>-1.6666666666666665</ele><time>2026-03-28T13:52:56Z</time></trkpt><trkpt lat="44.861979097518855" lon="12.217461519843082"><ele>-1.5</ele><time>2026-03-28T13:52:58Z</time></trkpt><trkpt lat="44.86201156961307" lon="12.217362426093969"><ele>-1.3333333333333333</ele><time>2026-03-28T13:53:00Z</time></trkpt><trkpt lat="44.86204186193054" lon="12.217266495379306"><ele>-1.1666666666666665</ele><time>2026-03-28T13:53:02Z</time></trkpt><trkpt lat="44.86207412231614" lon="12.21716994286096"><ele>-1.0</ele><time>2026-03-28T13:53:04Z</time></trkpt><trkpt lat="44.862107102889155" lon="12.217067042170394"><ele>-0.8333333333333333</ele><time>2026-03-28T13:53:06Z</time></trkpt><trkpt lat="44.86214210214126" lon="12.216971225138899"><ele>-0.6666666666666666</ele><time>2026-03-28T13:53:08Z</time></trkpt><trkpt lat="44.86217363473373" lon="12.216870188804272"><ele>-0.5</ele><time>2026-03-28T13:53:10Z</time></trkpt><trkpt lat="44.86220622617533" lon="12.216772072563371"><ele>-0.3333333333333333</ele><time>2026-03-28T13:53:12Z</time></trkpt><trkpt lat="44.8622370557148" lon="12.216679525334124"><ele>-0.16666666666666666</ele><time>2026-03-28T13:53:14Z</time></trkpt><trkpt lat="44.86226798120844" lon="12.216579573951037"><ele>0.0</ele><time>2026-03-28T13:53:16Z</time></trkpt><trkpt lat="44.862302054778375" lon="12.216479692607434"><ele>-0.42857142857142855</ele><time>2026-03-28T13:53:18Z</time></trkpt><trkpt lat="44.8623361988432" lon="12.216378590094765"><ele>-0.8571428571428571</ele><time>2026-03-28T13:53:19.999Z</time></trkpt><trkpt lat="44.86237051814052" lon="12.216279672032629"><ele>-1.2857142857142856</ele><time>2026-03-28T13:53:21.999Z</time></trkpt><trkpt lat="44.862400436904636" lon="12.216179246963616"><ele>-1.7142857142857142</ele><time>2026-03-28T13:53:23.999Z</time></trkpt><trkpt lat="44.86242883495943" lon="12.216081291114405"><ele>-2.142857142857143</ele><time>2026-03-28T13:53:25.999Z</time></trkpt><trkpt lat="44.86243724452335" lon="12.215988049606311"><ele>-2.571428571428571</ele><time>2026-03-28T13:53:27.999Z</time></trkpt><trkpt lat="44.86244491809754" lon="12.215889642832941"><ele>-3.0</ele><time>2026-03-28T13:53:29.999Z</time></trkpt><trkpt lat="44.86247604795667" lon="12.215796353133534"><ele>-2.9999999999999996</ele><time>2026-03-28T13:53:31.999Z</time></trkpt><trkpt lat="44.86250152301538" lon="12.215702855671958"><ele>-3.0</ele><time>2026-03-28T13:53:33.999Z</time></trkpt><trkpt lat="44.862520290538676" lon="12.215609815681184"><ele>-3.0</ele><time>2026-03-28T13:53:35.999Z</time></trkpt><trkpt lat="44.86255373708423" lon="12.215519895406402"><ele>-3.0</ele><time>2026-03-28T13:53:37.999Z</time></trkpt><trkpt lat="44.8625816711996" lon="12.215435525090022"><ele>-3.0</ele><time>2026-03-28T13:53:39.999Z</time></trkpt><trkpt lat="44.86261133860939" lon="12.2153545094566"><ele>-2.9999999999999996</ele><time>2026-03-28T13:53:41.999Z</time></trkpt><trkpt lat="44.86265398633452" lon="12.215229338156353"><ele>-3.0</ele><time>2026-03-28T13:53:44.999Z</time></trkpt><trkpt lat="44.862681170577424" lon="12.215143087720696"><ele>-3.0</ele><time>2026-03-28T13:53:46.999Z</time></trkpt><trkpt lat="44.862724007084545" lon="12.215024919028233"><ele>-3.0</ele><time>2026-03-28T13:53:49.999Z</time></trkpt><trkpt lat="44.86275973072893" lon="12.21490371178769"><ele>-3.0</ele><time>2026-03-28T13:53:52.999Z</time></trkpt><trkpt lat="44.86278589277313" lon="12.214817402720229"><ele>-3.0</ele><time>2026-03-28T13:53:54.999Z</time></trkpt><trkpt lat="44.862807201844596" lon="12.21472816075242"><ele>-3.0</ele><time>2026-03-28T13:53:56.999Z</time></trkpt><trkpt lat="44.86284970433065" lon="12.214645624940898"><ele>-3.0</ele><time>2026-03-28T13:53:58.999Z</time></trkpt><trkpt lat="44.86287290718972" lon="12.214561534293766"><ele>-2.9999999999999996</ele><time>2026-03-28T13:54:00.999Z</time></trkpt><trkpt lat="44.86289461892246" lon="12.21447433998514"><ele>-3.0</ele><time>2026-03-28T13:54:03.999Z</time></trkpt><trkpt lat="44.86294143822674" lon="12.214356986168086"><ele>-3.0</ele><time>2026-03-28T13:54:06.999Z</time></trkpt><trkpt lat="44.862976544021876" lon="12.214262611012195"><ele>-3.0</ele><time>2026-03-28T13:54:09.999Z</time></trkpt><trkpt lat="44.863005905524545" lon="12.214179671465985"><ele>-3.0</ele><time>2026-03-28T13:54:11.999Z</time></trkpt><trkpt lat="44.86303719268755" lon="12.214088766337978"><ele>-2.9999999999999996</ele><time>2026-03-28T13:54:13.999Z</time></trkpt><trkpt lat="44.86306753990339" lon="12.21399664428322"><ele>-3.0</ele><time>2026-03-28T13:54:15.999Z</time></trkpt><trkpt lat="44.86308942560699" lon="12.2139034670478"><ele>-2.9999999999999996</ele><time>2026-03-28T13:54:17.999Z</time></trkpt><trkpt lat="44.863120869739944" lon="12.213809966015345"><ele>-3.0</ele><time>2026-03-28T13:54:19.999Z</time></trkpt><trkpt lat="44.86315606999013" lon="12.213720443155964"><ele>-3.0</ele><time>2026-03-28T13:54:22Z</time></trkpt><trkpt lat="44.86317625844854" lon="12.213632529797572"><ele>-3.0</ele><time>2026-03-28T13:54:24Z</time></trkpt><trkpt lat="44.863207135708265" lon="12.213548790809172"><ele>-3.0</ele><time>2026-03-28T13:54:26Z</time></trkpt><trkpt lat="44.8632408669179" lon="12.21346829890634"><ele>-2.9999999999999996</ele><time>2026-03-28T13:54:28Z</time></trkpt><trkpt lat="44.86326360366675" lon="12.213380651399733"><ele>-3.0</ele><time>2026-03-28T13:54:30Z</time></trkpt><trkpt lat="44.86328645278054" lon="12.2132961648744"><ele>-3.0</ele><time>2026-03-28T13:54:32Z</time></trkpt><trkpt lat="44.86332919342638" lon="12.213188954902568"><ele>-3.0</ele><time>2026-03-28T13:54:35Z</time></trkpt><trkpt lat="44.86335858390725" lon="12.213069602640191"><ele>-3.0</ele><time>2026-03-28T13:54:38Z</time></trkpt><trkpt lat="44.86340862532906" lon="12.212974055848221"><ele>-3.0</ele><time>2026-03-28T13:54:41Z</time></trkpt><trkpt lat="44.863445022839564" lon="12.212868833153248"><ele>-3.0</ele><time>2026-03-28T13:54:44Z</time></trkpt><trkpt lat="44.86348101549239" lon="12.212783960851628"><ele>-3.0</ele><time>2026-03-28T13:54:46Z</time></trkpt><trkpt lat="44.86350369199933" lon="12.212673446508083"><ele>-3.0</ele><time>2026-03-28T13:54:49Z</time></trkpt><trkpt lat="44.86354587444713" lon="12.212560719325943"><ele>-3.0</ele><time>2026-03-28T13:54:52Z</time></trkpt><trkpt lat="44.86356991951378" lon="12.212463817925931"><ele>-3.0</ele><time>2026-03-28T13:54:56Z</time></trkpt><trkpt lat="44.863604312854804" lon="12.2123726227212"><ele>-3.0</ele><time>2026-03-28T13:54:59Z</time></trkpt><trkpt lat="44.863638769118396" lon="12.212260564831439"><ele>-3.0</ele><time>2026-03-28T13:55:02Z</time></trkpt><trkpt lat="44.86366415819987" lon="12.212143291100347"><ele>-3.0</ele><time>2026-03-28T13:55:05Z</time></trkpt><trkpt lat="44.86368498267646" lon="12.212057387851758"><ele>-3.0</ele><time>2026-03-28T13:55:08Z</time></trkpt><trkpt lat="44.86371459092222" lon="12.211955027853481"><ele>-3.0</ele><time>2026-03-28T13:55:13Z</time></trkpt><trkpt lat="44.86374703650453" lon="12.21183508950802"><ele>-3.0</ele><time>2026-03-28T13:55:17Z</time></trkpt><trkpt lat="44.86377762952292" lon="12.211733831991053"><ele>-3.0</ele><time>2026-03-28T13:55:19Z</time></trkpt><trkpt lat="44.8638126517659" lon="12.2116365348462"><ele>-3.0</ele><time>2026-03-28T13:55:22Z</time></trkpt><trkpt lat="44.86383535605375" lon="12.211519062757798"><ele>-3.0</ele><time>2026-03-28T13:55:24.999Z</time></trkpt><trkpt lat="44.863866796521634" lon="12.21143124871448"><ele>-3.1428571428571423</ele><time>2026-03-28T13:55:26.999Z</time></trkpt><trkpt lat="44.86390727474142" lon="12.21133634540851"><ele>-3.2857142857142856</ele><time>2026-03-28T13:55:28.999Z</time></trkpt><trkpt lat="44.86395239993598" lon="12.21124970332194"><ele>-3.4285714285714284</ele><time>2026-03-28T13:55:30.999Z</time></trkpt><trkpt lat="44.86398688808705" lon="12.211158744989064"><ele>-3.571428571428571</ele><time>2026-03-28T13:55:32.999Z</time></trkpt><trkpt lat="44.86401443494223" lon="12.211067065137215"><ele>-3.714285714285714</ele><time>2026-03-28T13:55:34.999Z</time></trkpt><trkpt lat="44.8640487546022" lon="12.210980734302291"><ele>-3.8571428571428568</ele><time>2026-03-28T13:55:36.999Z</time></trkpt><trkpt lat="44.864079521689206" lon="12.210887153197097"><ele>-4.0</ele><time>2026-03-28T13:55:38.999Z</time></trkpt><trkpt lat="44.86411826120235" lon="12.210789254164652"><ele>-4.0</ele><time>2026-03-28T13:55:40.999Z</time></trkpt><trkpt lat="44.864152972049816" lon="12.210692714427056"><ele>-3.9999999999999996</ele><time>2026-03-28T13:55:42.999Z</time></trkpt><trkpt lat="44.864189819811635" lon="12.210596936173443"><ele>-4.0</ele><time>2026-03-28T13:55:44.999Z</time></trkpt><trkpt lat="44.86421894728585" lon="12.210496822664396"><ele>-4.0</ele><time>2026-03-28T13:55:46.999Z</time></trkpt><trkpt lat="44.8642473193054" lon="12.21040775094623"><ele>-3.9999999999999996</ele><time>2026-03-28T13:55:48.999Z</time></trkpt><trkpt lat="44.86428204711155" lon="12.210314175214696"><ele>-4.0</ele><time>2026-03-28T13:55:50.999Z</time></trkpt><trkpt lat="44.86431086840071" lon="12.21022370866772"><ele>-4.0</ele><time>2026-03-28T13:55:52.999Z</time></trkpt><trkpt lat="44.86434650832395" lon="12.21011012496811"><ele>-3.6666666666666665</ele><time>2026-03-28T13:55:55.999Z</time></trkpt><trkpt lat="44.864379280503904" lon="12.210007326067835"><ele>-3.333333333333333</ele><time>2026-03-28T13:55:58.999Z</time></trkpt><trkpt lat="44.8644068540339" lon="12.20992520795684"><ele>-3.0</ele><time>2026-03-28T13:56:00.999Z</time></trkpt><trkpt lat="44.86443526939484" lon="12.209822297670168"><ele>-2.6666666666666665</ele><time>2026-03-28T13:56:03.999Z</time></trkpt><trkpt lat="44.864471512772056" lon="12.209728474520542"><ele>-2.333333333333333</ele><time>2026-03-28T13:56:06.999Z</time></trkpt><trkpt lat="44.86449948545415" lon="12.20963400425028"><ele>-2.0</ele><time>2026-03-28T13:56:10.999Z</time></trkpt><trkpt lat="44.86453692028323" lon="12.209534471632988"><ele>-2.0</ele><time>2026-03-28T13:56:15.999Z</time></trkpt><trkpt lat="44.86456470749952" lon="12.209453574289475"><ele>-1.9999999999999998</ele><time>2026-03-28T13:56:17.999Z</time></trkpt><trkpt lat="44.86459397998563" lon="12.209348804066856"><ele>-2.0</ele><time>2026-03-28T13:56:20.999Z</time></trkpt><trkpt lat="44.8646225038563" lon="12.20924408297024"><ele>-2.0</ele><time>2026-03-28T13:56:23.999Z</time></trkpt><trkpt lat="44.86465127117856" lon="12.209136296982203"><ele>-1.9999999999999998</ele><time>2026-03-28T13:56:26.999Z</time></trkpt><trkpt lat="44.864674114639215" lon="12.209045330616007"><ele>-2.0</ele><time>2026-03-28T13:56:30Z</time></trkpt><trkpt lat="44.86470555347994" lon="12.208956438789102"><ele>-2.0</ele><time>2026-03-28T13:56:33Z</time></trkpt><trkpt lat="44.86473795477467" lon="12.208855841698611"><ele>-2.2857142857142856</ele><time>2026-03-28T13:56:36Z</time></trkpt><trkpt lat="44.86477771089739" lon="12.208758793367178"><ele>-2.571428571428571</ele><time>2026-03-28T13:56:40Z</time></trkpt><trkpt lat="44.86481225343555" lon="12.20865125082944"><ele>-2.8571428571428568</ele><time>2026-03-28T13:56:43Z</time></trkpt><trkpt lat="44.86483575128851" lon="12.20856220711577"><ele>-3.142857142857143</ele><time>2026-03-28T13:56:45Z</time></trkpt><trkpt lat="44.86486397806262" lon="12.208477043488069"><ele>-3.428571428571428</ele><time>2026-03-28T13:56:47Z</time></trkpt><trkpt lat="44.86489412131591" lon="12.208383121576185"><ele>-3.714285714285714</ele><time>2026-03-28T13:56:49Z</time></trkpt><trkpt lat="44.86492089044794" lon="12.208286107809418"><ele>-4.0</ele><time>2026-03-28T13:56:51Z</time></trkpt><trkpt lat="44.86495801104581" lon="12.208184380183019"><ele>-3.833333333333333</ele><time>2026-03-28T13:56:53Z</time></trkpt><trkpt lat="44.86499131882175" lon="12.208083933860276"><ele>-3.6666666666666665</ele><time>2026-03-28T13:56:55Z</time></trkpt><trkpt lat="44.865022824921795" lon="12.207983591519179"><ele>-3.5</ele><time>2026-03-28T13:56:57Z</time></trkpt><trkpt lat="44.86505761054878" lon="12.207880873028946"><ele>-3.333333333333333</ele><time>2026-03-28T13:56:59Z</time></trkpt><trkpt lat="44.86508954531443" lon="12.207779482135733"><ele>-3.1666666666666665</ele><time>2026-03-28T13:57:01Z</time></trkpt><trkpt lat="44.86512509340559" lon="12.20767763734562"><ele>-3.0</ele><time>2026-03-28T13:57:03Z</time></trkpt><trkpt lat="44.86516297316132" lon="12.207581349395364"><ele>-3.0</ele><time>2026-03-28T13:57:05Z</time></trkpt><trkpt lat="44.86520712081276" lon="12.207484966731469"><ele>-3.0</ele><time>2026-03-28T13:57:07Z</time></trkpt><trkpt lat="44.86523880137654" lon="12.207379718924454"><ele>-3.0</ele><time>2026-03-28T13:57:09Z</time></trkpt><trkpt lat="44.86527380179928" lon="12.207276902444853"><ele>-3.0</ele><time>2026-03-28T13:57:11Z</time></trkpt><trkpt lat="44.86530709910092" lon="12.207183208500197"><ele>-3.0</ele><time>2026-03-28T13:57:13Z</time></trkpt><trkpt lat="44.86534375813403" lon="12.207074627237626"><ele>-3.0</ele><time>2026-03-28T13:57:15Z</time></trkpt><trkpt lat="44.86537622972941" lon="12.206961977283457"><ele>-3.0</ele><time>2026-03-28T13:57:17Z</time></trkpt><trkpt lat="44.86540854762846" lon="12.206853666157413"><ele>-3.0</ele><time>2026-03-28T13:57:19Z</time></trkpt><trkpt lat="44.86544146158805" lon="12.206752001619074"><ele>-3.0</ele><time>2026-03-28T13:57:21Z</time></trkpt><trkpt lat="44.865469697547724" lon="12.206650351772435"><ele>-3.0</ele><time>2026-03-28T13:57:23Z</time></trkpt><trkpt lat="44.86550143965995" lon="12.206549707251336"><ele>-3.0</ele><time>2026-03-28T13:57:25Z</time></trkpt><trkpt lat="44.86552899294412" lon="12.20645076470741"><ele>-3.0</ele><time>2026-03-28T13:57:27Z</time></trkpt><trkpt lat="44.86554974298824" lon="12.206355199966968"><ele>-2.8333333333333335</ele><time>2026-03-28T13:57:29Z</time></trkpt><trkpt lat="44.86557800828968" lon="12.20627336389036"><ele>-2.6666666666666665</ele><time>2026-03-28T13:57:31Z</time></trkpt><trkpt lat="44.86562173851321" lon="12.206173732331838"><ele>-2.5</ele><time>2026-03-28T13:57:33.999Z</time></trkpt><trkpt lat="44.86564957299623" lon="12.206077678643295"><ele>-2.333333333333333</ele><time>2026-03-28T13:57:36.999Z</time></trkpt><trkpt lat="44.86567153023048" lon="12.205967002886752"><ele>-2.1666666666666665</ele><time>2026-03-28T13:57:40.999Z</time></trkpt><trkpt lat="44.86571436806009" lon="12.205852309563909"><ele>-2.0</ele><time>2026-03-28T13:57:43.999Z</time></trkpt><trkpt lat="44.865750956466215" lon="12.205774746717863"><ele>-1.9999999999999998</ele><time>2026-03-28T13:57:45.999Z</time></trkpt><trkpt lat="44.86577981191774" lon="12.205669072628861"><ele>-2.0</ele><time>2026-03-28T13:57:48.999Z</time></trkpt><trkpt lat="44.86581287181039" lon="12.205567427166548"><ele>-2.0</ele><time>2026-03-28T13:57:52.999Z</time></trkpt><trkpt lat="44.86585178458053" lon="12.20545096795101"><ele>-2.0</ele><time>2026-03-28T13:57:55.999Z</time></trkpt><trkpt lat="44.86588867002919" lon="12.20535030392346"><ele>-1.9999999999999998</ele><time>2026-03-28T13:57:58.999Z</time></trkpt><trkpt lat="44.865918249458346" lon="12.20526477659812"><ele>-2.0</ele><time>2026-03-28T13:58:01.999Z</time></trkpt><trkpt lat="44.86594581391024" lon="12.205182346056066"><ele>-2.1666666666666665</ele><time>2026-03-28T13:58:03.999Z</time></trkpt><trkpt lat="44.865977774493324" lon="12.205103771518289"><ele>-2.333333333333333</ele><time>2026-03-28T13:58:05.999Z</time></trkpt><trkpt lat="44.866007366717234" lon="12.204990492590515"><ele>-2.5</ele><time>2026-03-28T13:58:08.999Z</time></trkpt><trkpt lat="44.86604624264201" lon="12.204884811925728"><ele>-2.6666666666666665</ele><time>2026-03-28T13:58:11.999Z</time></trkpt><trkpt lat="44.86608353311101" lon="12.20477737841428"><ele>-2.8333333333333335</ele><time>2026-03-28T13:58:13.999Z</time></trkpt><trkpt lat="44.86611935245251" lon="12.204677038539936"><ele>-3.0</ele><time>2026-03-28T13:58:15.999Z</time></trkpt><trkpt lat="44.86615098276761" lon="12.204585603224286"><ele>-3.1666666666666665</ele><time>2026-03-28T13:58:17.999Z</time></trkpt><trkpt lat="44.86617578995086" lon="12.204495460991827"><ele>-3.333333333333333</ele><time>2026-03-28T13:58:19.999Z</time></trkpt><trkpt lat="44.86620588991335" lon="12.204397943106699"><ele>-3.5</ele><time>2026-03-28T13:58:21.999Z</time></trkpt><trkpt lat="44.866242485490076" lon="12.204285228329402"><ele>-3.6666666666666665</ele><time>2026-03-28T13:58:23.999Z</time></trkpt><trkpt lat="44.86628250466693" lon="12.204169083741455"><ele>-3.833333333333333</ele><time>2026-03-28T13:58:25.999Z</time></trkpt><trkpt lat="44.86632015059136" lon="12.20404870247212"><ele>-4.0</ele><time>2026-03-28T13:58:27.999Z</time></trkpt><trkpt lat="44.86635911447762" lon="12.203928523538544"><ele>-4.0</ele><time>2026-03-28T13:58:29.999Z</time></trkpt><trkpt lat="44.866399207022525" lon="12.203809675180162"><ele>-4.0</ele><time>2026-03-28T13:58:31.999Z</time></trkpt><trkpt lat="44.8664391080766" lon="12.203689565854294"><ele>-4.0</ele><time>2026-03-28T13:58:34Z</time></trkpt><trkpt lat="44.86647810313611" lon="12.203569682349444"><ele>-4.0</ele><time>2026-03-28T13:58:36Z</time></trkpt><trkpt lat="44.86651777426036" lon="12.203451013379045"><ele>-4.0</ele><time>2026-03-28T13:58:38Z</time></trkpt><trkpt lat="44.86655645990117" lon="12.203332868790344"><ele>-4.0</ele><time>2026-03-28T13:58:40Z</time></trkpt><trkpt lat="44.866596851757386" lon="12.203214322690052"><ele>-4.0</ele><time>2026-03-28T13:58:42Z</time></trkpt><trkpt lat="44.866633640426805" lon="12.203092074236366"><ele>-4.0</ele><time>2026-03-28T13:58:44Z</time></trkpt><trkpt lat="44.86667167127712" lon="12.202971777656836"><ele>-4.0</ele><time>2026-03-28T13:58:46Z</time></trkpt><trkpt lat="44.86671200754985" lon="12.202854401866984"><ele>-4.0</ele><time>2026-03-28T13:58:48Z</time></trkpt><trkpt lat="44.866751680551175" lon="12.202734260960932"><ele>-4.0</ele><time>2026-03-28T13:58:50Z</time></trkpt><trkpt lat="44.866794661259675" lon="12.202609092098937"><ele>-4.0</ele><time>2026-03-28T13:58:52Z</time></trkpt><trkpt lat="44.866835446542424" lon="12.202483349445528"><ele>-4.0</ele><time>2026-03-28T13:58:54Z</time></trkpt><trkpt lat="44.86687641914924" lon="12.202355749296084"><ele>-4.0</ele><time>2026-03-28T13:58:56Z</time></trkpt><trkpt lat="44.866918299729754" lon="12.202230002098135"><ele>-4.0</ele><time>2026-03-28T13:58:58Z</time></trkpt><trkpt lat="44.86695822923008" lon="12.202104837370522"><ele>-4.2</ele><time>2026-03-28T13:59:00Z</time></trkpt><trkpt lat="44.86700167369495" lon="12.201976700742705"><ele>-4.4</ele><time>2026-03-28T13:59:02Z</time></trkpt><trkpt lat="44.86704060020279" lon="12.201848297964347"><ele>-4.6</ele><time>2026-03-28T13:59:04Z</time></trkpt><trkpt lat="44.8670814229494" lon="12.201723109905267"><ele>-4.8</ele><time>2026-03-28T13:59:06Z</time></trkpt><trkpt lat="44.86712290440259" lon="12.201598899083855"><ele>-5.0</ele><time>2026-03-28T13:59:08Z</time></trkpt><trkpt lat="44.867163623860385" lon="12.201474137167798"><ele>-5.0</ele><time>2026-03-28T13:59:10Z</time></trkpt><trkpt lat="44.86720276887506" lon="12.201349601082251"><ele>-5.0</ele><time>2026-03-28T13:59:12Z</time></trkpt><trkpt lat="44.86724677352808" lon="12.201226609989517"><ele>-5.0</ele><time>2026-03-28T13:59:14Z</time></trkpt><trkpt lat="44.867285400459025" lon="12.20110105021534"><ele>-5.0</ele><time>2026-03-28T13:59:16Z</time></trkpt><trkpt lat="44.867325230128245" lon="12.200973517367807"><ele>-5.0</ele><time>2026-03-28T13:59:18Z</time></trkpt><trkpt lat="44.867367108053195" lon="12.200848712906039"><ele>-5.0</ele><time>2026-03-28T13:59:20Z</time></trkpt><trkpt lat="44.86740824365169" lon="12.200727878723903"><ele>-5.0</ele><time>2026-03-28T13:59:22Z</time></trkpt><trkpt lat="44.86744253233066" lon="12.200613677724137"><ele>-5.0</ele><time>2026-03-28T13:59:24Z</time></trkpt><trkpt lat="44.86748083220419" lon="12.200514595008928"><ele>-5.0</ele><time>2026-03-28T13:59:26Z</time></trkpt><trkpt lat="44.86751459818669" lon="12.200416476031934"><ele>-5.0</ele><time>2026-03-28T13:59:28Z</time></trkpt><trkpt lat="44.86754028970596" lon="12.20031298416415"><ele>-5.0</ele><time>2026-03-28T13:59:30Z</time></trkpt><trkpt lat="44.86757765076816" lon="12.200219415066027"><ele>-4.833333333333334</ele><time>2026-03-28T13:59:32Z</time></trkpt><trkpt lat="44.86760783788172" lon="12.200127053492041"><ele>-4.666666666666667</ele><time>2026-03-28T13:59:34Z</time></trkpt><trkpt lat="44.867634146583285" lon="12.200042755540402"><ele>-4.5</ele><time>2026-03-28T13:59:36Z</time></trkpt><trkpt lat="44.8676623932756" lon="12.199961211805922"><ele>-4.333333333333333</ele><time>2026-03-28T13:59:38Z</time></trkpt><trkpt lat="44.86769608131161" lon="12.199857122553126"><ele>-4.166666666666666</ele><time>2026-03-28T13:59:39.999Z</time></trkpt><trkpt lat="44.86773500845295" lon="12.199745991053268"><ele>-4.0</ele><time>2026-03-28T13:59:41.999Z</time></trkpt><trkpt lat="44.86777220821032" lon="12.199628656003778"><ele>-3.6</ele><time>2026-03-28T13:59:43.999Z</time></trkpt><trkpt lat="44.86781007311528" lon="12.199513384468334"><ele>-3.2</ele><time>2026-03-28T13:59:45.999Z</time></trkpt><trkpt lat="44.86784896295158" lon="12.1993953808139"><ele>-2.8000000000000003</ele><time>2026-03-28T13:59:47.999Z</time></trkpt><trkpt lat="44.8678860493851" lon="12.199279585871698"><ele>-2.4000000000000004</ele><time>2026-03-28T13:59:49.999Z</time></trkpt><trkpt lat="44.86792707140788" lon="12.199161794929312"><ele>-2.0</ele><time>2026-03-28T13:59:51.999Z</time></trkpt><trkpt lat="44.8679650369346" lon="12.199042941324612"><ele>-2.1666666666666665</ele><time>2026-03-28T13:59:53.999Z</time></trkpt><trkpt lat="44.8680044211747" lon="12.198922366409281"><ele>-2.333333333333333</ele><time>2026-03-28T13:59:55.999Z</time></trkpt><trkpt lat="44.86804018210939" lon="12.198806257382934"><ele>-2.5</ele><time>2026-03-28T13:59:57.999Z</time></trkpt><trkpt lat="44.868068821834" lon="12.198696571017678"><ele>-2.6666666666666665</ele><time>2026-03-28T13:59:59.999Z</time></trkpt><trkpt lat="44.86810316419441" lon="12.198591864938209"><ele>-2.8333333333333335</ele><time>2026-03-28T14:00:01.999Z</time></trkpt><trkpt lat="44.86813739399394" lon="12.198489186597463"><ele>-3.0</ele><time>2026-03-28T14:00:03.999Z</time></trkpt><trkpt lat="44.868169066965336" lon="12.198395271528275"><ele>-3.0</ele><time>2026-03-28T14:00:05.999Z</time></trkpt><trkpt lat="44.86819509068589" lon="12.198307672098373"><ele>-3.0</ele><time>2026-03-28T14:00:07.999Z</time></trkpt><trkpt lat="44.86823704065171" lon="12.198192927387277"><ele>-3.0</ele><time>2026-03-28T14:00:10.999Z</time></trkpt><trkpt lat="44.86827738457567" lon="12.198086913963197"><ele>-3.0</ele><time>2026-03-28T14:00:13.999Z</time></trkpt><trkpt lat="44.86830892020134" lon="12.19799777793568"><ele>-3.0</ele><time>2026-03-28T14:00:15.999Z</time></trkpt><trkpt lat="44.8683406580532" lon="12.197897601234432"><ele>-3.0</ele><time>2026-03-28T14:00:17.999Z</time></trkpt><trkpt lat="44.86837059940248" lon="12.197796607404587"><ele>-3.1666666666666665</ele><time>2026-03-28T14:00:19.999Z</time></trkpt><trkpt lat="44.8684023371438" lon="12.197692592307941"><ele>-3.333333333333333</ele><time>2026-03-28T14:00:21.999Z</time></trkpt><trkpt lat="44.86843843114243" lon="12.197589530212609"><ele>-3.5</ele><time>2026-03-28T14:00:23.999Z</time></trkpt><trkpt lat="44.86847137720662" lon="12.197487397216719"><ele>-3.6666666666666665</ele><time>2026-03-28T14:00:25.999Z</time></trkpt><trkpt lat="44.868507117924445" lon="12.19738462817554"><ele>-3.833333333333333</ele><time>2026-03-28T14:00:27.999Z</time></trkpt><trkpt lat="44.86854012433918" lon="12.197279386736826"><ele>-4.0</ele><time>2026-03-28T14:00:29.999Z</time></trkpt><trkpt lat="44.868576614317945" lon="12.197169165608697"><ele>-4.0</ele><time>2026-03-28T14:00:31.999Z</time></trkpt><trkpt lat="44.8686181147028" lon="12.197045946975615"><ele>-4.0</ele><time>2026-03-28T14:00:33.999Z</time></trkpt><trkpt lat="44.868665503551874" lon="12.19690792041827"><ele>-4.0</ele><time>2026-03-28T14:00:35.999Z</time></trkpt><trkpt lat="44.8687117914345" lon="12.196763647525598"><ele>-4.0</ele><time>2026-03-28T14:00:37.999Z</time></trkpt><trkpt lat="44.86876275908686" lon="12.196607905218277"><ele>-4.0</ele><time>2026-03-28T14:00:40Z</time></trkpt><trkpt lat="44.86881344763148" lon="12.196452449935402"><ele>-4.0</ele><time>2026-03-28T14:00:42Z</time></trkpt><trkpt lat="44.868858528572396" lon="12.196310558267376"><ele>-4.0</ele><time>2026-03-28T14:00:44Z</time></trkpt><trkpt lat="44.868902365474916" lon="12.19617857233426"><ele>-4.0</ele><time>2026-03-28T14:00:46Z</time></trkpt><trkpt lat="44.86894391271976" lon="12.196055655857988"><ele>-4.0</ele><time>2026-03-28T14:00:48Z</time></trkpt><trkpt lat="44.8689795042589" lon="12.195941095326718"><ele>-4.0</ele><time>2026-03-28T14:00:50Z</time></trkpt><trkpt lat="44.86901574691832" lon="12.19583254084355"><ele>-3.9999999999999996</ele><time>2026-03-28T14:00:52Z</time></trkpt><trkpt lat="44.86905050851797" lon="12.19572615415181"><ele>-4.0</ele><time>2026-03-28T14:00:54Z</time></trkpt><trkpt lat="44.86908533033437" lon="12.195622236234572"><ele>-4.0</ele><time>2026-03-28T14:00:56Z</time></trkpt><trkpt lat="44.869120723060554" lon="12.195518622963032"><ele>-4.0</ele><time>2026-03-28T14:00:58Z</time></trkpt><trkpt lat="44.86915586248144" lon="12.19541383596564"><ele>-3.9999999999999996</ele><time>2026-03-28T14:01:00Z</time></trkpt><trkpt lat="44.869191243392905" lon="12.195307223518409"><ele>-4.0</ele><time>2026-03-28T14:01:02Z</time></trkpt><trkpt lat="44.86922900653459" lon="12.195183790180737"><ele>-4.0</ele><time>2026-03-28T14:01:04Z</time></trkpt><trkpt lat="44.869268764713304" lon="12.195059970104214"><ele>-4.0</ele><time>2026-03-28T14:01:06Z</time></trkpt><trkpt lat="44.86931256272659" lon="12.194936834624643"><ele>-4.0</ele><time>2026-03-28T14:01:08Z</time></trkpt><trkpt lat="44.869351780907266" lon="12.194814599508081"><ele>-4.0</ele><time>2026-03-28T14:01:10Z</time></trkpt><trkpt lat="44.86939165161815" lon="12.194690631320407"><ele>-4.0</ele><time>2026-03-28T14:01:12Z</time></trkpt><trkpt lat="44.869427560390356" lon="12.19457510403191"><ele>-3.9999999999999996</ele><time>2026-03-28T14:01:14Z</time></trkpt><trkpt lat="44.86946464389254" lon="12.194467958739457"><ele>-4.0</ele><time>2026-03-28T14:01:16Z</time></trkpt><trkpt lat="44.86949943432138" lon="12.194358633697982"><ele>-4.0</ele><time>2026-03-28T14:01:18Z</time></trkpt><trkpt lat="44.86953503693697" lon="12.194251478492225"><ele>-4.0</ele><time>2026-03-28T14:01:20Z</time></trkpt><trkpt lat="44.869564786767384" lon="12.194148884602386"><ele>-3.9999999999999996</ele><time>2026-03-28T14:01:22Z</time></trkpt><trkpt lat="44.86960035901196" lon="12.194041603373222"><ele>-4.0</ele><time>2026-03-28T14:01:24Z</time></trkpt><trkpt lat="44.869640489306164" lon="12.193930235866924"><ele>-3.833333333333333</ele><time>2026-03-28T14:01:26Z</time></trkpt><trkpt lat="44.86967510709509" lon="12.193822479772173"><ele>-3.6666666666666665</ele><time>2026-03-28T14:01:28Z</time></trkpt><trkpt lat="44.86970747412886" lon="12.193717990950475"><ele>-3.5</ele><time>2026-03-28T14:01:30Z</time></trkpt><trkpt lat="44.86974495034256" lon="12.193611611020396"><ele>-3.333333333333333</ele><time>2026-03-28T14:01:32Z</time></trkpt><trkpt lat="44.86977980359476" lon="12.193504391478607"><ele>-3.1666666666666665</ele><time>2026-03-28T14:01:34Z</time></trkpt><trkpt lat="44.86981752500003" lon="12.193397815185547"><ele>-3.0</ele><time>2026-03-28T14:01:36Z</time></trkpt><trkpt lat="44.86985076590703" lon="12.193286437753935"><ele>-3.0</ele><time>2026-03-28T14:01:38Z</time></trkpt><trkpt lat="44.869888644864965" lon="12.193180106798593"><ele>-3.0</ele><time>2026-03-28T14:01:40Z</time></trkpt><trkpt lat="44.86992334607762" lon="12.19307274323103"><ele>-3.0</ele><time>2026-03-28T14:01:42Z</time></trkpt><trkpt lat="44.8699592976598" lon="12.19296153169579"><ele>-3.0</ele><time>2026-03-28T14:01:44Z</time></trkpt><trkpt lat="44.86999366390019" lon="12.192853463890119"><ele>-3.0</ele><time>2026-03-28T14:01:46Z</time></trkpt><trkpt lat="44.87002679557626" lon="12.192745740803874"><ele>-3.0</ele><time>2026-03-28T14:01:48Z</time></trkpt><trkpt lat="44.870063883708944" lon="12.192641164804522"><ele>-3.0</ele><time>2026-03-28T14:01:49.999Z</time></trkpt><trkpt lat="44.870094171244844" lon="12.192532473554147"><ele>-3.0</ele><time>2026-03-28T14:01:51.999Z</time></trkpt><trkpt lat="44.8701291705034" lon="12.192427516165717"><ele>-3.0</ele><time>2026-03-28T14:01:53.999Z</time></trkpt><trkpt lat="44.870166772547115" lon="12.192317234604163"><ele>-3.0</ele><time>2026-03-28T14:01:55.999Z</time></trkpt><trkpt lat="44.870206052049475" lon="12.192202328489175"><ele>-3.0</ele><time>2026-03-28T14:01:57.999Z</time></trkpt><trkpt lat="44.87024541944371" lon="12.192083807671368"><ele>-3.0</ele><time>2026-03-28T14:01:59.999Z</time></trkpt><trkpt lat="44.8702816488339" lon="12.191959874866702"><ele>-2.8333333333333335</ele><time>2026-03-28T14:02:01.999Z</time></trkpt><trkpt lat="44.87032309761569" lon="12.191838375260836"><ele>-2.6666666666666665</ele><time>2026-03-28T14:02:03.999Z</time></trkpt><trkpt lat="44.870365848123065" lon="12.191719896823935"><ele>-2.5</ele><time>2026-03-28T14:02:05.999Z</time></trkpt><trkpt lat="44.87040258279532" lon="12.191603505155886"><ele>-2.333333333333333</ele><time>2026-03-28T14:02:07.999Z</time></trkpt><trkpt lat="44.87043584274114" lon="12.191499779634173"><ele>-2.1666666666666665</ele><time>2026-03-28T14:02:09.999Z</time></trkpt><trkpt lat="44.87046446053988" lon="12.191397504274326"><ele>-2.0</ele><time>2026-03-28T14:02:11.999Z</time></trkpt><trkpt lat="44.8705039883511" lon="12.191311401892733"><ele>-2.0</ele><time>2026-03-28T14:02:13.999Z</time></trkpt><trkpt lat="44.87053333051251" lon="12.191230031131719"><ele>-1.9999999999999998</ele><time>2026-03-28T14:02:15.999Z</time></trkpt><trkpt lat="44.87057842906315" lon="12.191128690551123"><ele>-2.0</ele><time>2026-03-28T14:02:18.999Z</time></trkpt><trkpt lat="44.8706172457219" lon="12.191034906356448"><ele>-2.0</ele><time>2026-03-28T14:02:21.999Z</time></trkpt><trkpt lat="44.8706598846678" lon="12.190941726272628"><ele>-1.9999999999999998</ele><time>2026-03-28T14:03:53.999Z</time></trkpt><trkpt lat="44.87065845311979" lon="12.190834624953432"><ele>-2.0</ele><time>2026-03-28T14:03:56.999Z</time></trkpt><trkpt lat="44.87065052816004" lon="12.190743483401507"><ele>-2.0</ele><time>2026-03-28T14:03:58.999Z</time></trkpt><trkpt lat="44.87068603612839" lon="12.190661273297062"><ele>-2.0</ele><time>2026-03-28T14:04:00.999Z</time></trkpt><trkpt lat="44.87071912893393" lon="12.190577504554602"><ele>-1.9999999999999998</ele><time>2026-03-28T14:04:02.999Z</time></trkpt><trkpt lat="44.87074024023667" lon="12.190489394362404"><ele>-2.0</ele><time>2026-03-28T14:04:04.999Z</time></trkpt><trkpt lat="44.870748656766054" lon="12.190393509778126"><ele>-2.0</ele><time>2026-03-28T14:04:06.999Z</time></trkpt><trkpt lat="44.87076933457612" lon="12.190289167841605"><ele>-1.9999999999999998</ele><time>2026-03-28T14:04:08.999Z</time></trkpt><trkpt lat="44.87079283466594" lon="12.190186278286662"><ele>-2.0</ele><time>2026-03-28T14:04:10.999Z</time></trkpt><trkpt lat="44.87079568115764" lon="12.190062991219108"><ele>-2.0</ele><time>2026-03-28T14:04:13.999Z</time></trkpt><trkpt lat="44.87081774692131" lon="12.18996225346847"><ele>-2.0</ele><time>2026-03-28T14:04:16.999Z</time></trkpt><trkpt lat="44.870846582461226" lon="12.18986388424686"><ele>-1.9999999999999998</ele><time>2026-03-28T14:04:19.999Z</time></trkpt><trkpt lat="44.870872085320634" lon="12.189771385823635"><ele>-2.0</ele><time>2026-03-28T14:04:22.999Z</time></trkpt><trkpt lat="44.87091014644371" lon="12.189691144221934"><ele>-2.0</ele><time>2026-03-28T14:04:26.999Z</time></trkpt><trkpt lat="44.870929855022176" lon="12.18960099875424"><ele>-1.9999999999999998</ele><time>2026-03-28T14:04:30.999Z</time></trkpt><trkpt lat="44.870964043091085" lon="12.189526142239643"><ele>-2.0</ele><time>2026-03-28T14:04:35.999Z</time></trkpt><trkpt lat="44.87098585087093" lon="12.18943427853303"><ele>-2.0</ele><time>2026-03-28T14:04:38.999Z</time></trkpt><trkpt lat="44.87101621186171" lon="12.189310720570576"><ele>-2.142857142857143</ele><time>2026-03-28T14:04:41.999Z</time></trkpt><trkpt lat="44.87103698087979" lon="12.189217407119655"><ele>-2.2857142857142856</ele><time>2026-03-28T14:04:43.999Z</time></trkpt><trkpt lat="44.87106420748929" lon="12.189106846961879"><ele>-2.4285714285714284</ele><time>2026-03-28T14:04:45.999Z</time></trkpt><trkpt lat="44.87108539178877" lon="12.188998457718403"><ele>-2.571428571428571</ele><time>2026-03-28T14:04:47.999Z</time></trkpt><trkpt lat="44.87110971379562" lon="12.188895110648707"><ele>-2.7142857142857144</ele><time>2026-03-28T14:04:49.999Z</time></trkpt><trkpt lat="44.87113095623811" lon="12.188807913896184"><ele>-2.8571428571428568</ele><time>2026-03-28T14:04:52Z</time></trkpt><trkpt lat="44.87115413509811" lon="12.18871216700031"><ele>-3.0</ele><time>2026-03-28T14:04:54Z</time></trkpt><trkpt lat="44.87117806839363" lon="12.188618469887905"><ele>-2.9999999999999996</ele><time>2026-03-28T14:04:56Z</time></trkpt><trkpt lat="44.87119979786788" lon="12.188528122285355"><ele>-3.0</ele><time>2026-03-28T14:04:58Z</time></trkpt><trkpt lat="44.871229155736394" lon="12.188399163657861"><ele>-3.0</ele><time>2026-03-28T14:05:01Z</time></trkpt><trkpt lat="44.87125217863245" lon="12.188306784430633"><ele>-3.0</ele><time>2026-03-28T14:05:03Z</time></trkpt><trkpt lat="44.8712693649303" lon="12.188219659908823"><ele>-3.0</ele><time>2026-03-28T14:05:05Z</time></trkpt><trkpt lat="44.87129506825392" lon="12.188138322507472"><ele>-2.9999999999999996</ele><time>2026-03-28T14:05:07Z</time></trkpt><trkpt lat="44.87130977360004" lon="12.18802239625702"><ele>-3.0</ele><time>2026-03-28T14:05:10Z</time></trkpt><trkpt lat="44.871336230241646" lon="12.1879108193866"><ele>-3.1666666666666665</ele><time>2026-03-28T14:05:13Z</time></trkpt><trkpt lat="44.87137274352743" lon="12.187806136965987"><ele>-3.333333333333333</ele><time>2026-03-28T14:05:17Z</time></trkpt><trkpt lat="44.87138868925444" lon="12.18769000424066"><ele>-3.5</ele><time>2026-03-28T14:05:20Z</time></trkpt><trkpt lat="44.87141626587651" lon="12.187584388569514"><ele>-3.6666666666666665</ele><time>2026-03-28T14:05:23Z</time></trkpt><trkpt lat="44.871441678330676" lon="12.187472493615758"><ele>-3.833333333333333</ele><time>2026-03-28T14:05:26Z</time></trkpt><trkpt lat="44.87146188279721" lon="12.187385672638293"><ele>-4.0</ele><time>2026-03-28T14:05:28Z</time></trkpt><trkpt lat="44.87148681847867" lon="12.18727008079866"><ele>-4.142857142857142</ele><time>2026-03-28T14:05:31Z</time></trkpt><trkpt lat="44.871513015374425" lon="12.187169849895906"><ele>-4.285714285714286</ele><time>2026-03-28T14:05:34Z</time></trkpt><trkpt lat="44.87153416896935" lon="12.187066598543062"><ele>-4.428571428571429</ele><time>2026-03-28T14:05:37Z</time></trkpt><trkpt lat="44.87155044381537" lon="12.186966023702173"><ele>-4.571428571428571</ele><time>2026-03-28T14:05:40Z</time></trkpt><trkpt lat="44.87157822820294" lon="12.186881188116866"><ele>-4.714285714285714</ele><time>2026-03-28T14:05:42Z</time></trkpt><trkpt lat="44.87159535717131" lon="12.186792038582764"><ele>-4.857142857142857</ele><time>2026-03-28T14:05:44Z</time></trkpt><trkpt lat="44.871610667041075" lon="12.18669604776864"><ele>-5.0</ele><time>2026-03-28T14:05:46Z</time></trkpt><trkpt lat="44.87163230339673" lon="12.186606460358663"><ele>-5.0</ele><time>2026-03-28T14:05:48Z</time></trkpt><trkpt lat="44.87165231635437" lon="12.186511633838432"><ele>-5.0</ele><time>2026-03-28T14:05:50Z</time></trkpt><trkpt lat="44.87167725182382" lon="12.18642673553155"><ele>-5.0</ele><time>2026-03-28T14:05:51.999Z</time></trkpt><trkpt lat="44.871697785113724" lon="12.18633460676415"><ele>-5.0</ele><time>2026-03-28T14:05:53.999Z</time></trkpt><trkpt lat="44.87172934707696" lon="12.186216666499197"><ele>-5.0</ele><time>2026-03-28T14:05:56.999Z</time></trkpt><trkpt lat="44.87174869911637" lon="12.186113365219596"><ele>-5.0</ele><time>2026-03-28T14:06:01.999Z</time></trkpt><trkpt lat="44.87177513611836" lon="12.185996735833873"><ele>-5.0</ele><time>2026-03-28T14:06:04.999Z</time></trkpt><trkpt lat="44.87179329946879" lon="12.185902691633457"><ele>-5.0</ele><time>2026-03-28T14:06:06.999Z</time></trkpt><trkpt lat="44.87182101144085" lon="12.185794501419522"><ele>-5.0</ele><time>2026-03-28T14:06:09.999Z</time></trkpt><trkpt lat="44.87184611052814" lon="12.185700665310183"><ele>-5.0</ele><time>2026-03-28T14:06:12.999Z</time></trkpt><trkpt lat="44.87188026987655" lon="12.18558676949373"><ele>-5.0</ele><time>2026-03-28T14:06:15.999Z</time></trkpt><trkpt lat="44.87190178385096" lon="12.185470169121876"><ele>-5.0</ele><time>2026-03-28T14:06:18.999Z</time></trkpt><trkpt lat="44.871919596362574" lon="12.185377777278992"><ele>-4.428571428571429</ele><time>2026-03-28T14:06:21.999Z</time></trkpt><trkpt lat="44.87193900796783" lon="12.185283194893115"><ele>-3.857142857142857</ele><time>2026-03-28T14:06:26.999Z</time></trkpt><trkpt lat="44.87195671788476" lon="12.185189193541294"><ele>-3.2857142857142856</ele><time>2026-03-28T14:06:33.999Z</time></trkpt><trkpt lat="44.871977655853385" lon="12.185100182440932"><ele>-2.7142857142857144</ele><time>2026-03-28T14:06:36.999Z</time></trkpt><trkpt lat="44.87200411102902" lon="12.184997743549244"><ele>-2.142857142857143</ele><time>2026-03-28T14:06:40.999Z</time></trkpt><trkpt lat="44.8720272503801" lon="12.184910334676742"><ele>-1.5714285714285714</ele><time>2026-03-28T14:06:43.999Z</time></trkpt><trkpt lat="44.872062293154066" lon="12.184815929591725"><ele>-1.0</ele><time>2026-03-28T14:06:47.999Z</time></trkpt><trkpt lat="44.87204722387122" lon="12.184684773419677"><ele>-1.0</ele><time>2026-03-28T14:12:14.999Z</time></trkpt><trkpt lat="44.872070673251756" lon="12.184596030800304"><ele>-0.9999999999999999</ele><time>2026-03-28T14:24:40Z</time></trkpt><trkpt lat="44.87210387168607" lon="12.184513482870601"><ele>-1.0</ele><time>2026-03-28T14:24:46.999Z</time></trkpt><trkpt lat="44.87212521538586" lon="12.184417475720483"><ele>-1.0</ele><time>2026-03-28T14:24:50.999Z</time></trkpt><trkpt lat="44.872145428245524" lon="12.184298026266973"><ele>-0.9999999999999999</ele><time>2026-03-28T14:24:54.999Z</time></trkpt><trkpt lat="44.87217483445571" lon="12.184190763418586"><ele>-1.0</ele><time>2026-03-28T14:24:57.999Z</time></trkpt><trkpt lat="44.87218753563038" lon="12.184103255331367"><ele>-1.0</ele><time>2026-03-28T14:25:00.999Z</time></trkpt><trkpt lat="44.87220488004757" lon="12.18400264539049"><ele>-0.9999999999999999</ele><time>2026-03-28T14:25:03.999Z</time></trkpt><trkpt lat="44.87222740082197" lon="12.183906333544542"><ele>-1.0</ele><time>2026-03-28T14:25:06.999Z</time></trkpt><trkpt lat="44.87225546869748" lon="12.1837923860768"><ele>-1.0</ele><time>2026-03-28T14:25:10.999Z</time></trkpt><trkpt lat="44.87228057239949" lon="12.18368006157749"><ele>-1.0</ele><time>2026-03-28T14:25:13.999Z</time></trkpt><trkpt lat="44.87230424896367" lon="12.183569841364662"><ele>-0.9999999999999999</ele><time>2026-03-28T14:25:16.999Z</time></trkpt><trkpt lat="44.872328548654565" lon="12.18346040169863"><ele>-1.0</ele><time>2026-03-28T14:25:20.999Z</time></trkpt><trkpt lat="44.87236700209507" lon="12.183345937686381"><ele>-1.0</ele><time>2026-03-28T14:25:23.999Z</time></trkpt><trkpt lat="44.87238442375517" lon="12.183259208357404"><ele>-0.9999999999999999</ele><time>2026-03-28T14:25:26.999Z</time></trkpt><trkpt lat="44.87240776229263" lon="12.18317383103218"><ele>-1.0</ele><time>2026-03-28T14:25:30.999Z</time></trkpt><trkpt lat="44.87242694001122" lon="12.183085053688842"><ele>-1.0</ele><time>2026-03-28T14:25:33.999Z</time></trkpt><trkpt lat="44.872446097685454" lon="12.182996335931788"><ele>-0.9999999999999999</ele><time>2026-03-28T14:25:36.999Z</time></trkpt><trkpt lat="44.872470983364344" lon="12.182871398778643"><ele>-1.0</ele><time>2026-03-28T14:25:39.999Z</time></trkpt><trkpt lat="44.8725043740503" lon="12.182762568528403"><ele>-1.0</ele><time>2026-03-28T14:25:42.999Z</time></trkpt><trkpt lat="44.87252832643772" lon="12.18266267810022"><ele>-1.0</ele><time>2026-03-28T14:25:45.999Z</time></trkpt><trkpt lat="44.872551686488904" lon="12.18255764700469"><ele>-0.9999999999999999</ele><time>2026-03-28T14:25:48.999Z</time></trkpt><trkpt lat="44.872573151867876" lon="12.182443017107095"><ele>-1.0</ele><time>2026-03-28T14:25:52Z</time></trkpt><trkpt lat="44.872588709677096" lon="12.182346553362994"><ele>-1.0</ele><time>2026-03-28T14:25:54Z</time></trkpt><trkpt lat="44.8725983137708" lon="12.182247174270515"><ele>-0.9999999999999999</ele><time>2026-03-28T14:25:56Z</time></trkpt><trkpt lat="44.87260818075737" lon="12.182155584942535"><ele>-1.0</ele><time>2026-03-28T14:25:58Z</time></trkpt><trkpt lat="44.872604565093845" lon="12.18205901938328"><ele>-1.0</ele><time>2026-03-28T14:26:00Z</time></trkpt><trkpt lat="44.87259674654954" lon="12.181969961079995"><ele>-1.0</ele><time>2026-03-28T14:26:02Z</time></trkpt><trkpt lat="44.872581241197125" lon="12.181870220487918"><ele>-0.9999999999999999</ele><time>2026-03-28T14:26:05Z</time></trkpt><trkpt lat="44.872573493838395" lon="12.18176752357381"><ele>-1.0</ele><time>2026-03-28T14:26:08Z</time></trkpt><trkpt lat="44.872592870314364" lon="12.181667576832973"><ele>-1.0</ele><time>2026-03-28T14:26:11Z</time></trkpt><trkpt lat="44.872622981872716" lon="12.181567534068632"><ele>-0.9999999999999999</ele><time>2026-03-28T14:26:15Z</time></trkpt><trkpt lat="44.872638788269" lon="12.181475107682992"><ele>-1.0</ele><time>2026-03-28T14:26:18Z</time></trkpt><trkpt lat="44.87265841762" lon="12.181360444657981"><ele>-1.0</ele><time>2026-03-28T14:26:22Z</time></trkpt><trkpt lat="44.87268718681517" lon="12.18124555579689"><ele>-1.2857142857142856</ele><time>2026-03-28T14:26:25Z</time></trkpt><trkpt lat="44.872711142485265" lon="12.18116180638481"><ele>-1.5714285714285712</ele><time>2026-03-28T14:26:27Z</time></trkpt><trkpt lat="44.87274173803219" lon="12.181056477490705"><ele>-1.857142857142857</ele><time>2026-03-28T14:26:30Z</time></trkpt><trkpt lat="44.87274679045706" lon="12.180962749892586"><ele>-2.142857142857143</ele><time>2026-03-28T14:26:32Z</time></trkpt><trkpt lat="44.87277905845765" lon="12.18085578770322"><ele>-2.4285714285714284</ele><time>2026-03-28T14:26:35Z</time></trkpt><trkpt lat="44.8727961603971" lon="12.180768515580404"><ele>-2.714285714285714</ele><time>2026-03-28T14:26:37Z</time></trkpt><trkpt lat="44.87282725760615" lon="12.180647377342995"><ele>-3.0</ele><time>2026-03-28T14:26:40Z</time></trkpt><trkpt lat="44.87285379366003" lon="12.180518162156249"><ele>-2.9999999999999996</ele><time>2026-03-28T14:26:43Z</time></trkpt><trkpt lat="44.87288115032587" lon="12.18040692736696"><ele>-3.0</ele><time>2026-03-28T14:26:46Z</time></trkpt><trkpt lat="44.87290244591217" lon="12.180322817252495"><ele>-3.0</ele><time>2026-03-28T14:26:49Z</time></trkpt><trkpt lat="44.87292268052088" lon="12.180228177593264"><ele>-3.0</ele><time>2026-03-28T14:26:51.999Z</time></trkpt><trkpt lat="44.87294381215232" lon="12.180139396841692"><ele>-3.0</ele><time>2026-03-28T14:26:54.999Z</time></trkpt><trkpt lat="44.87296217975225" lon="12.180033324742489"><ele>-2.9999999999999996</ele><time>2026-03-28T14:26:59.999Z</time></trkpt><trkpt lat="44.87299002097525" lon="12.179926647702999"><ele>-3.0</ele><time>2026-03-28T14:27:03.999Z</time></trkpt><trkpt lat="44.87301283620999" lon="12.179806122008868"><ele>-3.0</ele><time>2026-03-28T14:27:07.999Z</time></trkpt><trkpt lat="44.87303381933219" lon="12.179697508293659"><ele>-3.0</ele><time>2026-03-28T14:27:10.999Z</time></trkpt><trkpt lat="44.87306366871836" lon="12.179600947078722"><ele>-3.0</ele><time>2026-03-28T14:27:13.999Z</time></trkpt><trkpt lat="44.8730843227599" lon="12.17949601163456"><ele>-3.0</ele><time>2026-03-28T14:27:18.999Z</time></trkpt><trkpt lat="44.87310853029495" lon="12.179376071512957"><ele>-3.0</ele><time>2026-03-28T14:27:21.999Z</time></trkpt><trkpt lat="44.873132004359476" lon="12.179281506718654"><ele>-3.0</ele><time>2026-03-28T14:27:23.999Z</time></trkpt><trkpt lat="44.87315417611535" lon="12.179187817275434"><ele>-3.0</ele><time>2026-03-28T14:27:25.999Z</time></trkpt><trkpt lat="44.87317721493396" lon="12.179098968571639"><ele>-3.0</ele><time>2026-03-28T14:27:27.999Z</time></trkpt><trkpt lat="44.87320364834989" lon="12.178984430735829"><ele>-3.0</ele><time>2026-03-28T14:27:30.999Z</time></trkpt><trkpt lat="44.873219692748236" lon="12.178877883575245"><ele>-3.0</ele><time>2026-03-28T14:27:33.999Z</time></trkpt><trkpt lat="44.87324066352434" lon="12.178753161998797"><ele>-3.0</ele><time>2026-03-28T14:27:36.999Z</time></trkpt><trkpt lat="44.87323208731283" lon="12.178653585429162"><ele>-3.0</ele><time>2026-03-28T14:27:39.999Z</time></trkpt><trkpt lat="44.873225856474036" lon="12.17855392972304"><ele>-2.8333333333333335</ele><time>2026-03-28T14:27:44.999Z</time></trkpt><trkpt lat="44.87321439988888" lon="12.178457999829329"><ele>-2.6666666666666665</ele><time>2026-03-28T14:27:48.999Z</time></trkpt><trkpt lat="44.87318642396469" lon="12.178337594890255"><ele>-2.5</ele><time>2026-03-28T14:27:51.999Z</time></trkpt><trkpt lat="44.87318164467482" lon="12.178226505547313"><ele>-2.333333333333333</ele><time>2026-03-28T14:27:54.999Z</time></trkpt><trkpt lat="44.87316843341513" lon="12.178120750322401"><ele>-2.1666666666666665</ele><time>2026-03-28T14:27:59Z</time></trkpt><trkpt lat="44.87316684684975" lon="12.17800266462269"><ele>-2.0</ele><time>2026-03-28T14:28:03Z</time></trkpt><trkpt lat="44.8731824376571" lon="12.177882152745346"><ele>-1.9999999999999998</ele><time>2026-03-28T14:28:06Z</time></trkpt><trkpt lat="44.873196325910904" lon="12.177778359533082"><ele>-2.0</ele><time>2026-03-28T14:28:09Z</time></trkpt><trkpt lat="44.87321521777952" lon="12.177692007731428"><ele>-2.0</ele><time>2026-03-28T14:28:12Z</time></trkpt><trkpt lat="44.87323959204654" lon="12.17757263432314"><ele>-2.0</ele><time>2026-03-28T14:28:15Z</time></trkpt><trkpt lat="44.87326236565611" lon="12.177461624740237"><ele>-1.9999999999999998</ele><time>2026-03-28T14:28:18Z</time></trkpt><trkpt lat="44.8732821954142" lon="12.177362812319348"><ele>-2.0</ele><time>2026-03-28T14:28:21Z</time></trkpt><trkpt lat="44.873298072441166" lon="12.177237220352168"><ele>-2.1666666666666665</ele><time>2026-03-28T14:28:25Z</time></trkpt><trkpt lat="44.87332737552658" lon="12.177112237943343"><ele>-2.333333333333333</ele><time>2026-03-28T14:28:28Z</time></trkpt><trkpt lat="44.87334501245187" lon="12.177012449268675"><ele>-2.5</ele><time>2026-03-28T14:28:31Z</time></trkpt><trkpt lat="44.87335591525627" lon="12.17689453709655"><ele>-2.6666666666666665</ele><time>2026-03-28T14:28:35Z</time></trkpt><trkpt lat="44.87336948205644" lon="12.176800128585594"><ele>-2.8333333333333335</ele><time>2026-03-28T14:28:38Z</time></trkpt><trkpt lat="44.87339430954659" lon="12.176704533311531"><ele>-3.0</ele><time>2026-03-28T14:28:41Z</time></trkpt><trkpt lat="44.873403461781784" lon="12.176611668141055"><ele>-3.2857142857142856</ele><time>2026-03-28T14:28:44Z</time></trkpt><trkpt lat="44.87341815058454" lon="12.176494901103329"><ele>-3.571428571428571</ele><time>2026-03-28T14:28:47Z</time></trkpt><trkpt lat="44.87343111245443" lon="12.176406673734462"><ele>-3.8571428571428568</ele><time>2026-03-28T14:28:48.999Z</time></trkpt><trkpt lat="44.87345372515315" lon="12.176320825205334"><ele>-4.142857142857142</ele><time>2026-03-28T14:28:50.999Z</time></trkpt><trkpt lat="44.87347936785941" lon="12.176196902249314"><ele>-4.428571428571429</ele><time>2026-03-28T14:28:54.999Z</time></trkpt><trkpt lat="44.87348977300444" lon="12.176108547513039"><ele>-4.714285714285714</ele><time>2026-03-28T14:28:56.999Z</time></trkpt><trkpt lat="44.873505030959514" lon="12.17600716638148"><ele>-5.0</ele><time>2026-03-28T14:29:00.999Z</time></trkpt><trkpt lat="44.87351281292642" lon="12.175892221605855"><ele>-5.0</ele><time>2026-03-28T14:29:03.999Z</time></trkpt><trkpt lat="44.87350684634211" lon="12.175758019345212"><ele>-5.0</ele><time>2026-03-28T14:29:06.999Z</time></trkpt><trkpt lat="44.87352354514652" lon="12.175662370584787"><ele>-5.0</ele><time>2026-03-28T14:29:08.999Z</time></trkpt><trkpt lat="44.87353108796661" lon="12.175570842602589"><ele>-5.0</ele><time>2026-03-28T14:29:10.999Z</time></trkpt><trkpt lat="44.873538343734324" lon="12.175462229655654"><ele>-5.0</ele><time>2026-03-28T14:29:13.999Z</time></trkpt><trkpt lat="44.873561585650734" lon="12.175371563575574"><ele>-5.0</ele><time>2026-03-28T14:29:15.999Z</time></trkpt><trkpt lat="44.87357853460532" lon="12.175276354293219"><ele>-5.0</ele><time>2026-03-28T14:29:17.999Z</time></trkpt><trkpt lat="44.87358750791121" lon="12.175182760322796"><ele>-4.714285714285714</ele><time>2026-03-28T14:29:19.999Z</time></trkpt><trkpt lat="44.87360011693805" lon="12.175058231744844"><ele>-4.428571428571429</ele><time>2026-03-28T14:29:22.999Z</time></trkpt><trkpt lat="44.873618468224244" lon="12.174961818495595"><ele>-4.142857142857142</ele><time>2026-03-28T14:29:25.999Z</time></trkpt><trkpt lat="44.87363391046957" lon="12.174856337451008"><ele>-3.8571428571428568</ele><time>2026-03-28T14:29:29.999Z</time></trkpt><trkpt lat="44.87364083122983" lon="12.17475357030338"><ele>-3.571428571428571</ele><time>2026-03-28T14:29:32.999Z</time></trkpt><trkpt lat="44.87365533854762" lon="12.174659820993114"><ele>-3.2857142857142856</ele><time>2026-03-28T14:29:36.999Z</time></trkpt><trkpt lat="44.87367615729585" lon="12.174570363303975"><ele>-3.0</ele><time>2026-03-28T14:29:39.999Z</time></trkpt><trkpt lat="44.873675736699255" lon="12.174432409690919"><ele>-2.8571428571428568</ele><time>2026-03-28T14:29:42.999Z</time></trkpt><trkpt lat="44.87369403728118" lon="12.174333072778918"><ele>-2.7142857142857144</ele><time>2026-03-28T14:29:45.999Z</time></trkpt><trkpt lat="44.87372183525592" lon="12.174222715541983"><ele>-2.571428571428571</ele><time>2026-03-28T14:29:49.999Z</time></trkpt><trkpt lat="44.87373769742859" lon="12.174129371062929"><ele>-2.4285714285714284</ele><time>2026-03-28T14:29:52.999Z</time></trkpt><trkpt lat="44.8737621449055" lon="12.174029796088453"><ele>-2.2857142857142856</ele><time>2026-03-28T14:29:56.999Z</time></trkpt><trkpt lat="44.87379889864581" lon="12.173939377377536"><ele>-2.142857142857143</ele><time>2026-03-28T14:30:00.999Z</time></trkpt><trkpt lat="44.87377576976596" lon="12.173853304216456"><ele>-2.0</ele><time>2026-03-28T14:30:02.999Z</time></trkpt><trkpt lat="44.87378459388919" lon="12.173752767115904"><ele>-1.9999999999999998</ele><time>2026-03-28T14:30:06Z</time></trkpt><trkpt lat="44.873789811948754" lon="12.173626954676626"><ele>-2.0</ele><time>2026-03-28T14:30:09Z</time></trkpt><trkpt lat="44.87380756108356" lon="12.173538224297507"><ele>-2.0</ele><time>2026-03-28T14:30:11Z</time></trkpt><trkpt lat="44.87382895245696" lon="12.173421320746517"><ele>-2.0</ele><time>2026-03-28T14:30:14Z</time></trkpt><trkpt lat="44.87383335787965" lon="12.173329723555115"><ele>-1.9999999999999998</ele><time>2026-03-28T14:30:17Z</time></trkpt><trkpt lat="44.87385240104642" lon="12.17320533352909"><ele>-2.0</ele><time>2026-03-28T14:30:21Z</time></trkpt><trkpt lat="44.87386719645017" lon="12.173080147831739"><ele>-2.0</ele><time>2026-03-28T14:30:24Z</time></trkpt><trkpt lat="44.87387967640473" lon="12.172992630548833"><ele>-1.9999999999999998</ele><time>2026-03-28T14:30:27Z</time></trkpt><trkpt lat="44.873898178590544" lon="12.172889091987388"><ele>-2.0</ele><time>2026-03-28T14:30:31Z</time></trkpt><trkpt lat="44.87391078701843" lon="12.172800138097223"><ele>-2.0</ele><time>2026-03-28T14:30:34Z</time></trkpt><trkpt lat="44.8739260996582" lon="12.172698726835307"><ele>-1.9999999999999998</ele><time>2026-03-28T14:30:37Z</time></trkpt><trkpt lat="44.873935553557565" lon="12.172601022788266"><ele>-2.0</ele><time>2026-03-28T14:30:41Z</time></trkpt><trkpt lat="44.87394760421317" lon="12.172496938192134"><ele>-2.0</ele><time>2026-03-28T14:30:45Z</time></trkpt><trkpt lat="44.873956497427265" lon="12.172403190097615"><ele>-1.7142857142857142</ele><time>2026-03-28T14:30:48Z</time></trkpt><trkpt lat="44.87397487135971" lon="12.172280727133703"><ele>-1.4285714285714284</ele><time>2026-03-28T14:30:51Z</time></trkpt><trkpt lat="44.87398425334705" lon="12.17218938407809"><ele>-1.1428571428571428</ele><time>2026-03-28T14:30:53Z</time></trkpt><trkpt lat="44.87399999533204" lon="12.172101417475313"><ele>-0.8571428571428571</ele><time>2026-03-28T14:30:55Z</time></trkpt><trkpt lat="44.874020236442966" lon="12.172006710901783"><ele>-0.5714285714285714</ele><time>2026-03-28T14:30:57Z</time></trkpt><trkpt lat="44.874031699983284" lon="12.171911386770354"><ele>-0.2857142857142857</ele><time>2026-03-28T14:30:59Z</time></trkpt><trkpt lat="44.87404867624917" lon="12.171816055551187"><ele>0.0</ele><time>2026-03-28T14:31:01Z</time></trkpt><trkpt lat="44.87406207839705" lon="12.171688396190515"><ele>0.0</ele><time>2026-03-28T14:31:04Z</time></trkpt><trkpt lat="44.874062522977425" lon="12.171566287954649"><ele>0.0</ele><time>2026-03-28T14:31:06.999Z</time></trkpt><trkpt lat="44.87406171046757" lon="12.171430173379251"><ele>0.0</ele><time>2026-03-28T14:31:09.999Z</time></trkpt><trkpt lat="44.87406747463123" lon="12.171313380207204"><ele>0.0</ele><time>2026-03-28T14:31:12.999Z</time></trkpt><trkpt lat="44.87408620744091" lon="12.171196058624295"><ele>0.0</ele><time>2026-03-28T14:31:15.999Z</time></trkpt><trkpt lat="44.874088382144414" lon="12.171105597255657"><ele>0.0</ele><time>2026-03-28T14:31:17.999Z</time></trkpt><trkpt lat="44.87408612675034" lon="12.171014753751408"><ele>0.16666666666666666</ele><time>2026-03-28T14:31:19.999Z</time></trkpt><trkpt lat="44.874076848426824" lon="12.170922659923225"><ele>0.3333333333333333</ele><time>2026-03-28T14:31:22.999Z</time></trkpt><trkpt lat="44.87408676908097" lon="12.170810047373323"><ele>0.5</ele><time>2026-03-28T14:31:26.999Z</time></trkpt><trkpt lat="44.87407702250091" lon="12.170708364936694"><ele>0.6666666666666666</ele><time>2026-03-28T14:31:30.999Z</time></trkpt><trkpt lat="44.87407891616666" lon="12.170616718162268"><ele>0.8333333333333333</ele><time>2026-03-28T14:31:33.999Z</time></trkpt><trkpt lat="44.874095285847474" lon="12.170494606989545"><ele>1.0</ele><time>2026-03-28T14:31:36.999Z</time></trkpt><trkpt lat="44.874141176562055" lon="12.17039182747604"><ele>0.9999999999999999</ele><time>2026-03-28T14:31:39.999Z</time></trkpt><trkpt lat="44.87417271427324" lon="12.17028462923272"><ele>1.0</ele><time>2026-03-28T14:31:42.999Z</time></trkpt><trkpt lat="44.87418442277603" lon="12.170181169722499"><ele>1.0</ele><time>2026-03-28T14:31:45.999Z</time></trkpt><trkpt lat="44.874126807439374" lon="12.17009643560097"><ele>1.0</ele><time>2026-03-28T14:31:48.999Z</time></trkpt><trkpt lat="44.874052547814124" lon="12.170083648570404"><ele>0.9999999999999999</ele><time>2026-03-28T14:31:50.999Z</time></trkpt><trkpt lat="44.87397550552228" lon="12.170017398118336"><ele>1.0</ele><time>2026-03-28T14:31:53.999Z</time></trkpt><trkpt lat="44.87389577979191" lon="12.170002637497262"><ele>0.9999999999999999</ele><time>2026-03-28T14:31:56.999Z</time></trkpt><trkpt lat="44.87381449811302" lon="12.16996904415624"><ele>1.0</ele><time>2026-03-28T14:31:59.999Z</time></trkpt><trkpt lat="44.873743759582176" lon="12.169940241227472"><ele>1.0</ele><time>2026-03-28T14:32:01.999Z</time></trkpt><trkpt lat="44.87365983022698" lon="12.169925075287635"><ele>1.0</ele><time>2026-03-28T14:32:03.999Z</time></trkpt><trkpt lat="44.87357306344722" lon="12.169897505743135"><ele>0.9999999999999999</ele><time>2026-03-28T14:32:05.999Z</time></trkpt><trkpt lat="44.87348727623196" lon="12.169860269697056"><ele>1.0</ele><time>2026-03-28T14:32:07.999Z</time></trkpt><trkpt lat="44.873398016391135" lon="12.169822402144797"><ele>0.8333333333333333</ele><time>2026-03-28T14:32:10Z</time></trkpt><trkpt lat="44.87331624252667" lon="12.16978776469723"><ele>0.6666666666666666</ele><time>2026-03-28T14:32:12Z</time></trkpt><trkpt lat="44.87323549468518" lon="12.169761250375482"><ele>0.5</ele><time>2026-03-28T14:32:14Z</time></trkpt><trkpt lat="44.87315441094673" lon="12.169741522410217"><ele>0.3333333333333333</ele><time>2026-03-28T14:32:16Z</time></trkpt><trkpt lat="44.87307655404777" lon="12.169707362468882"><ele>0.16666666666666666</ele><time>2026-03-28T14:32:18Z</time></trkpt><trkpt lat="44.87299507646259" lon="12.169686647206204"><ele>0.0</ele><time>2026-03-28T14:32:20Z</time></trkpt><trkpt lat="44.87291750594095" lon="12.169669757453473"><ele>0.0</ele><time>2026-03-28T14:32:22Z</time></trkpt><trkpt lat="44.872841596118604" lon="12.169660687908499"><ele>0.0</ele><time>2026-03-28T14:32:24Z</time></trkpt><trkpt lat="44.87277066754549" lon="12.169637561998504"><ele>0.0</ele><time>2026-03-28T14:32:26Z</time></trkpt><trkpt lat="44.87270360599664" lon="12.169604249325548"><ele>0.0</ele><time>2026-03-28T14:32:28Z</time></trkpt><trkpt lat="44.87263904914842" lon="12.169586932127677"><ele>0.0</ele><time>2026-03-28T14:32:30Z</time></trkpt><trkpt lat="44.872574354522214" lon="12.16957076131237"><ele>0.0</ele><time>2026-03-28T14:32:32Z</time></trkpt><trkpt lat="44.87250589631182" lon="12.169554908805514"><ele>0.0</ele><time>2026-03-28T14:32:34Z</time></trkpt><trkpt lat="44.87244462955777" lon="12.169533176375534"><ele>-0.16666666666666666</ele><time>2026-03-28T14:32:36Z</time></trkpt><trkpt lat="44.872351987953074" lon="12.16950615096015"><ele>-0.3333333333333333</ele><time>2026-03-28T14:32:39Z</time></trkpt><trkpt lat="44.87227630723686" lon="12.169484186555776"><ele>-0.5</ele><time>2026-03-28T14:32:41Z</time></trkpt><trkpt lat="44.87219921877374" lon="12.169460727543902"><ele>-0.6666666666666666</ele><time>2026-03-28T14:32:43Z</time></trkpt><trkpt lat="44.87212853190022" lon="12.169435870059708"><ele>-0.8333333333333333</ele><time>2026-03-28T14:32:45Z</time></trkpt><trkpt lat="44.87204743268971" lon="12.169415853553128"><ele>-1.0</ele><time>2026-03-28T14:32:47Z</time></trkpt><trkpt lat="44.87196619830981" lon="12.169392428599375"><ele>-0.9999999999999999</ele><time>2026-03-28T14:32:49Z</time></trkpt><trkpt lat="44.871885545948764" lon="12.169366951738528"><ele>-1.0</ele><time>2026-03-28T14:32:51Z</time></trkpt><trkpt lat="44.87180632999294" lon="12.169348592922073"><ele>-1.0</ele><time>2026-03-28T14:32:53Z</time></trkpt><trkpt lat="44.871732039603664" lon="12.169329161580642"><ele>-1.0</ele><time>2026-03-28T14:32:55Z</time></trkpt><trkpt lat="44.87166332281939" lon="12.169315127813787"><ele>-0.9999999999999999</ele><time>2026-03-28T14:32:57Z</time></trkpt><trkpt lat="44.8715953677348" lon="12.1692966298532"><ele>-1.0</ele><time>2026-03-28T14:32:59Z</time></trkpt><trkpt lat="44.87152438665012" lon="12.169272603069045"><ele>-0.9999999999999999</ele><time>2026-03-28T14:33:01Z</time></trkpt><trkpt lat="44.871446876605155" lon="12.169256338105328"><ele>-1.0</ele><time>2026-03-28T14:33:03Z</time></trkpt><trkpt lat="44.87136812164431" lon="12.169232992021056"><ele>-1.0</ele><time>2026-03-28T14:33:05Z</time></trkpt><trkpt lat="44.87128656803716" lon="12.169216864928373"><ele>-1.0</ele><time>2026-03-28T14:33:06.999Z</time></trkpt><trkpt lat="44.87120216129725" lon="12.169201567803936"><ele>-0.9999999999999999</ele><time>2026-03-28T14:33:08.999Z</time></trkpt><trkpt lat="44.87112463775513" lon="12.169171546600678"><ele>-1.0</ele><time>2026-03-28T14:33:10.999Z</time></trkpt><trkpt lat="44.87104875530925" lon="12.169159263230084"><ele>-0.9999999999999999</ele><time>2026-03-28T14:33:12.999Z</time></trkpt><trkpt lat="44.87097219950456" lon="12.169144444281756"><ele>-1.0</ele><time>2026-03-28T14:33:14.999Z</time></trkpt><trkpt lat="44.870895154767695" lon="12.169111154989533"><ele>-1.0</ele><time>2026-03-28T14:33:16.999Z</time></trkpt><trkpt lat="44.87081219558009" lon="12.169090293500048"><ele>-1.0</ele><time>2026-03-28T14:33:18.999Z</time></trkpt><trkpt lat="44.8707404425408" lon="12.169061790925863"><ele>-0.9999999999999999</ele><time>2026-03-28T14:33:20.999Z</time></trkpt><trkpt lat="44.87066453033465" lon="12.169045484354518"><ele>-1.0</ele><time>2026-03-28T14:33:22.999Z</time></trkpt><trkpt lat="44.87059707485461" lon="12.16902912071437"><ele>-1.1666666666666665</ele><time>2026-03-28T14:33:24.999Z</time></trkpt><trkpt lat="44.870526707968786" lon="12.169006913362301"><ele>-1.3333333333333333</ele><time>2026-03-28T14:33:26.999Z</time></trkpt><trkpt lat="44.87044874952407" lon="12.168989797103007"><ele>-1.5</ele><time>2026-03-28T14:33:28.999Z</time></trkpt><trkpt lat="44.87037096956612" lon="12.168965592953418"><ele>-1.6666666666666665</ele><time>2026-03-28T14:33:30.999Z</time></trkpt><trkpt lat="44.87028902490727" lon="12.168954848808674"><ele>-1.8333333333333333</ele><time>2026-03-28T14:33:32.999Z</time></trkpt><trkpt lat="44.870213762869525" lon="12.168928006010633"><ele>-2.0</ele><time>2026-03-28T14:33:34.999Z</time></trkpt><trkpt lat="44.870141522171345" lon="12.168906779333291"><ele>-2.0</ele><time>2026-03-28T14:33:36.999Z</time></trkpt><trkpt lat="44.870070402397204" lon="12.168896626037053"><ele>-1.9999999999999998</ele><time>2026-03-28T14:33:38.999Z</time></trkpt><trkpt lat="44.87000631050083" lon="12.168874121838572"><ele>-2.0</ele><time>2026-03-28T14:33:40.999Z</time></trkpt><trkpt lat="44.869916526626064" lon="12.168852892018824"><ele>-2.0</ele><time>2026-03-28T14:33:43.999Z</time></trkpt><trkpt lat="44.869852948988154" lon="12.168838621228844"><ele>-1.9999999999999998</ele><time>2026-03-28T14:33:45.999Z</time></trkpt><trkpt lat="44.8697845054873" lon="12.168809321935614"><ele>-2.0</ele><time>2026-03-28T14:33:47.999Z</time></trkpt><trkpt lat="44.869718464430164" lon="12.168801524556246"><ele>-2.0</ele><time>2026-03-28T14:33:49.999Z</time></trkpt><trkpt lat="44.86965231481054" lon="12.168788426328423"><ele>-1.9999999999999998</ele><time>2026-03-28T14:33:51.999Z</time></trkpt><trkpt lat="44.86955750974811" lon="12.16877120633146"><ele>-2.0</ele><time>2026-03-28T14:33:54.999Z</time></trkpt><trkpt lat="44.869478657362095" lon="12.168758301383289"><ele>-2.0</ele><time>2026-03-28T14:33:56.999Z</time></trkpt><trkpt lat="44.86939948103738" lon="12.168739107752458"><ele>-2.0</ele><time>2026-03-28T14:33:58.999Z</time></trkpt><trkpt lat="44.8693265997739" lon="12.16872758711264"><ele>-1.9999999999999998</ele><time>2026-03-28T14:34:00.999Z</time></trkpt><trkpt lat="44.86925423818965" lon="12.168716231165577"><ele>-2.0</ele><time>2026-03-28T14:34:02.999Z</time></trkpt><trkpt lat="44.8691884380885" lon="12.168710546078978"><ele>-1.7142857142857142</ele><time>2026-03-28T14:34:04.999Z</time></trkpt><trkpt lat="44.86909780992501" lon="12.168709116917993"><ele>-1.4285714285714284</ele><time>2026-03-28T14:34:07.999Z</time></trkpt><trkpt lat="44.869032603879944" lon="12.168703636597082"><ele>-1.1428571428571428</ele><time>2026-03-28T14:34:09.999Z</time></trkpt><trkpt lat="44.86896192149686" lon="12.16869423300644"><ele>-0.8571428571428571</ele><time>2026-03-28T14:34:11.999Z</time></trkpt><trkpt lat="44.86888765637557" lon="12.168691114208869"><ele>-0.5714285714285714</ele><time>2026-03-28T14:34:13.999Z</time></trkpt><trkpt lat="44.86881413359029" lon="12.168686712450134"><ele>-0.2857142857142857</ele><time>2026-03-28T14:34:16Z</time></trkpt><trkpt lat="44.86874074135564" lon="12.168689200549995"><ele>0.0</ele><time>2026-03-28T14:34:18Z</time></trkpt><trkpt lat="44.868671351830464" lon="12.168684295922844"><ele>0.0</ele><time>2026-03-28T14:34:20Z</time></trkpt><trkpt lat="44.86860170525601" lon="12.168678168347231"><ele>0.0</ele><time>2026-03-28T14:34:22Z</time></trkpt><trkpt lat="44.868532446096985" lon="12.16866476599763"><ele>0.0</ele><time>2026-03-28T14:34:24Z</time></trkpt><trkpt lat="44.868466586129614" lon="12.168658118543798"><ele>0.0</ele><time>2026-03-28T14:34:26Z</time></trkpt><trkpt lat="44.86840257431733" lon="12.168646478489539"><ele>0.0</ele><time>2026-03-28T14:34:28Z</time></trkpt><trkpt lat="44.868333393605745" lon="12.168637439809507"><ele>0.0</ele><time>2026-03-28T14:34:30Z</time></trkpt><trkpt lat="44.86826191644572" lon="12.168628963791551"><ele>0.0</ele><time>2026-03-28T14:34:32Z</time></trkpt><trkpt lat="44.868190030843806" lon="12.16861523789585"><ele>0.16666666666666666</ele><time>2026-03-28T14:34:34Z</time></trkpt><trkpt lat="44.868119491472434" lon="12.168606831869104"><ele>0.3333333333333333</ele><time>2026-03-28T14:34:36Z</time></trkpt><trkpt lat="44.868050391179786" lon="12.168579210797999"><ele>0.5</ele><time>2026-03-28T14:34:38Z</time></trkpt><trkpt lat="44.867985507433325" lon="12.168562255695269"><ele>0.6666666666666666</ele><time>2026-03-28T14:34:40Z</time></trkpt><trkpt lat="44.86789431685789" lon="12.168547148691035"><ele>0.8333333333333333</ele><time>2026-03-28T14:34:43Z</time></trkpt><trkpt lat="44.86781433625097" lon="12.168527545191644"><ele>1.0</ele><time>2026-03-28T14:34:46Z</time></trkpt><trkpt lat="44.867729889214104" lon="12.168512741375407"><ele>0.9999999999999999</ele><time>2026-03-28T14:34:49Z</time></trkpt><trkpt lat="44.86764588699624" lon="12.168500761129433"><ele>1.0</ele><time>2026-03-28T14:34:52Z</time></trkpt><trkpt lat="44.867553625760806" lon="12.16847807274017"><ele>1.0</ele><time>2026-03-28T14:34:55Z</time></trkpt><trkpt lat="44.867482344989305" lon="12.168468032008368"><ele>1.0</ele><time>2026-03-28T14:34:57Z</time></trkpt><trkpt lat="44.86741174796394" lon="12.16845677813899"><ele>0.9999999999999999</ele><time>2026-03-28T14:34:59Z</time></trkpt><trkpt lat="44.867341381156685" lon="12.168446086786892"><ele>1.0</ele><time>2026-03-28T14:35:01Z</time></trkpt><trkpt lat="44.867271173211314" lon="12.16841901348837"><ele>0.8571428571428571</ele><time>2026-03-28T14:35:03Z</time></trkpt><trkpt lat="44.86720293349736" lon="12.168402785701176"><ele>0.7142857142857142</ele><time>2026-03-28T14:35:05Z</time></trkpt><trkpt lat="44.867134076158166" lon="12.168383206989816"><ele>0.5714285714285714</ele><time>2026-03-28T14:35:07Z</time></trkpt><trkpt lat="44.86706665005542" lon="12.16837510294376"><ele>0.42857142857142855</ele><time>2026-03-28T14:35:09Z</time></trkpt><trkpt lat="44.86699751277156" lon="12.168354894012273"><ele>0.2857142857142857</ele><time>2026-03-28T14:35:11Z</time></trkpt><trkpt lat="44.866930369611936" lon="12.168330857260422"><ele>0.14285714285714285</ele><time>2026-03-28T14:35:13Z</time></trkpt><trkpt lat="44.86686228844854" lon="12.168315218007237"><ele>0.0</ele><time>2026-03-28T14:35:14.999Z</time></trkpt><trkpt lat="44.866797057957186" lon="12.168304515869846"><ele>-0.16666666666666666</ele><time>2026-03-28T14:35:16.999Z</time></trkpt><trkpt lat="44.86673578627913" lon="12.16828385475601"><ele>-0.3333333333333333</ele><time>2026-03-28T14:35:18.999Z</time></trkpt><trkpt lat="44.86664949652907" lon="12.16826757903756"><ele>-0.5</ele><time>2026-03-28T14:35:21.999Z</time></trkpt><trkpt lat="44.86656839499358" lon="12.168241222266495"><ele>-0.6666666666666666</ele><time>2026-03-28T14:35:24.999Z</time></trkpt><trkpt lat="44.86648307578795" lon="12.168228707747044"><ele>-0.8333333333333333</ele><time>2026-03-28T14:35:27.999Z</time></trkpt><trkpt lat="44.86639194769243" lon="12.168198627760008"><ele>-1.0</ele><time>2026-03-28T14:35:30.999Z</time></trkpt><trkpt lat="44.86632696312545" lon="12.168175889953877"><ele>-0.9999999999999999</ele><time>2026-03-28T14:35:32.999Z</time></trkpt><trkpt lat="44.86623740819323" lon="12.168158650318782"><ele>-1.0</ele><time>2026-03-28T14:35:35.999Z</time></trkpt><trkpt lat="44.86614684603704" lon="12.168138459792226"><ele>-1.0</ele><time>2026-03-28T14:35:38.999Z</time></trkpt><trkpt lat="44.86606298492118" lon="12.16810891646076"><ele>-1.0</ele><time>2026-03-28T14:35:41.999Z</time></trkpt><trkpt lat="44.8659928881123" lon="12.16809823105254"><ele>-0.9999999999999999</ele><time>2026-03-28T14:35:43.999Z</time></trkpt><trkpt lat="44.86592622221503" lon="12.168079525709386"><ele>-1.0</ele><time>2026-03-28T14:35:45.999Z</time></trkpt><trkpt lat="44.86586310133311" lon="12.168078824641784"><ele>-0.8571428571428571</ele><time>2026-03-28T14:35:47.999Z</time></trkpt><trkpt lat="44.86578095933897" lon="12.1680520188873"><ele>-0.7142857142857142</ele><time>2026-03-28T14:35:50.999Z</time></trkpt><trkpt lat="44.86570576387282" lon="12.168035779181896"><ele>-0.5714285714285714</ele><time>2026-03-28T14:35:53.999Z</time></trkpt><trkpt lat="44.86563743729961" lon="12.168010673569338"><ele>-0.42857142857142855</ele><time>2026-03-28T14:35:56.999Z</time></trkpt><trkpt lat="44.865573938192775" lon="12.168001672324381"><ele>-0.2857142857142857</ele><time>2026-03-28T14:35:59.999Z</time></trkpt><trkpt lat="44.86549625996812" lon="12.167984743318579"><ele>-0.14285714285714285</ele><time>2026-03-28T14:36:03.999Z</time></trkpt><trkpt lat="44.86543037622699" lon="12.167973424432112"><ele>0.0</ele><time>2026-03-28T14:36:06.999Z</time></trkpt><trkpt lat="44.86536360475529" lon="12.167963964089132"><ele>0.0</ele><time>2026-03-28T14:36:09.999Z</time></trkpt><trkpt lat="44.86528213733975" lon="12.167953396229994"><ele>0.0</ele><time>2026-03-28T14:36:13.999Z</time></trkpt><trkpt lat="44.865213420051106" lon="12.167932243706245"><ele>0.0</ele><time>2026-03-28T14:36:15.999Z</time></trkpt><trkpt lat="44.86513463193308" lon="12.167910954716199"><ele>0.0</ele><time>2026-03-28T14:36:17.999Z</time></trkpt><trkpt lat="44.86506117234932" lon="12.16789191851528"><ele>0.0</ele><time>2026-03-28T14:36:19.999Z</time></trkpt><trkpt lat="44.864987747022674" lon="12.167871771904597"><ele>0.0</ele><time>2026-03-28T14:36:22Z</time></trkpt><trkpt lat="44.86490887762042" lon="12.167839146336805"><ele>-0.14285714285714285</ele><time>2026-03-28T14:36:24Z</time></trkpt><trkpt lat="44.864828451264145" lon="12.167808872728893"><ele>-0.2857142857142857</ele><time>2026-03-28T14:36:26Z</time></trkpt><trkpt lat="44.86475208489614" lon="12.167784837007614"><ele>-0.42857142857142855</ele><time>2026-03-28T14:36:28Z</time></trkpt><trkpt lat="44.86467629762638" lon="12.167767397136286"><ele>-0.5714285714285714</ele><time>2026-03-28T14:36:30Z</time></trkpt><trkpt lat="44.864609536941494" lon="12.167733972460285"><ele>-0.7142857142857142</ele><time>2026-03-28T14:36:32Z</time></trkpt><trkpt lat="44.864543098014124" lon="12.167708519996546"><ele>-0.8571428571428571</ele><time>2026-03-28T14:36:34Z</time></trkpt><trkpt lat="44.86448214876984" lon="12.16768119267863"><ele>-1.0</ele><time>2026-03-28T14:36:36Z</time></trkpt><trkpt lat="44.86439387843023" lon="12.167648456494298"><ele>-0.9999999999999999</ele><time>2026-03-28T14:36:39Z</time></trkpt><trkpt lat="44.86432315752098" lon="12.167608452844222"><ele>-1.0</ele><time>2026-03-28T14:36:42Z</time></trkpt><trkpt lat="44.86433859449612" lon="12.167512497523218"><ele>-1.0</ele><time>2026-03-28T14:36:44Z</time></trkpt><trkpt lat="44.86436459131008" lon="12.167427141784572"><ele>-1.0</ele><time>2026-03-28T14:36:46Z</time></trkpt><trkpt lat="44.864367486734295" lon="12.16730218091683"><ele>-0.9999999999999999</ele><time>2026-03-28T14:36:49Z</time></trkpt><trkpt lat="44.864388836930445" lon="12.16718951297973"><ele>-1.0</ele><time>2026-03-28T14:36:52Z</time></trkpt><trkpt lat="44.864406191379786" lon="12.167085041401405"><ele>-1.0</ele><time>2026-03-28T14:36:55Z</time></trkpt><trkpt lat="44.86441774905471" lon="12.16698964529476"><ele>-0.9999999999999999</ele><time>2026-03-28T14:36:58Z</time></trkpt><trkpt lat="44.86443655302613" lon="12.166889382467179"><ele>-1.0</ele><time>2026-03-28T14:37:01Z</time></trkpt><trkpt lat="44.8644540514748" lon="12.16678360077706"><ele>-1.0</ele><time>2026-03-28T14:37:04Z</time></trkpt><trkpt lat="44.86447072505508" lon="12.166686285304886"><ele>-0.9999999999999999</ele><time>2026-03-28T14:37:07Z</time></trkpt><trkpt lat="44.864485535665594" lon="12.166586536052666"><ele>-1.0</ele><time>2026-03-28T14:37:10Z</time></trkpt><trkpt lat="44.86449815835484" lon="12.166494034060367"><ele>-1.0</ele><time>2026-03-28T14:37:13Z</time></trkpt><trkpt lat="44.864519833821745" lon="12.16637836844008"><ele>-1.0</ele><time>2026-03-28T14:37:17Z</time></trkpt><trkpt lat="44.86453592736337" lon="12.166286685709029"><ele>-0.9999999999999999</ele><time>2026-03-28T14:37:20Z</time></trkpt><trkpt lat="44.86455203217162" lon="12.166182106436166"><ele>-1.0</ele><time>2026-03-28T14:37:22.999Z</time></trkpt><trkpt lat="44.86457051442441" lon="12.166062199231547"><ele>-1.0</ele><time>2026-03-28T14:37:25.999Z</time></trkpt><trkpt lat="44.864581633059714" lon="12.165961744314663"><ele>-0.9999999999999999</ele><time>2026-03-28T14:37:28.999Z</time></trkpt><trkpt lat="44.86459536177209" lon="12.1658714633171"><ele>-1.0</ele><time>2026-03-28T14:37:31.999Z</time></trkpt><trkpt lat="44.8646050880396" lon="12.165775093356311"><ele>-1.0</ele><time>2026-03-28T14:37:35.999Z</time></trkpt><trkpt lat="44.86462865421538" lon="12.165659361778372"><ele>-1.3333333333333333</ele><time>2026-03-28T14:37:39.999Z</time></trkpt><trkpt lat="44.864642485968766" lon="12.165540614672794"><ele>-1.6666666666666665</ele><time>2026-03-28T14:37:43.999Z</time></trkpt><trkpt lat="44.86465660726372" lon="12.165431267402251"><ele>-2.0</ele><time>2026-03-28T14:37:46.999Z</time></trkpt><trkpt lat="44.8646699506807" lon="12.16531147368875"><ele>-2.3333333333333335</ele><time>2026-03-28T14:37:49.999Z</time></trkpt><trkpt lat="44.86468386140081" lon="12.165192319492729"><ele>-2.6666666666666665</ele><time>2026-03-28T14:37:52.999Z</time></trkpt><trkpt lat="44.864698367960315" lon="12.165078867401325"><ele>-3.0</ele><time>2026-03-28T14:37:55.999Z</time></trkpt><trkpt lat="44.8647093156888" lon="12.164953009616664"><ele>-2.8571428571428568</ele><time>2026-03-28T14:37:58.999Z</time></trkpt><trkpt lat="44.86471557104786" lon="12.164840270219127"><ele>-2.7142857142857144</ele><time>2026-03-28T14:38:01.999Z</time></trkpt><trkpt lat="44.864736639302244" lon="12.164749658837476"><ele>-2.571428571428571</ele><time>2026-03-28T14:38:04.999Z</time></trkpt><trkpt lat="44.86472630774611" lon="12.164658604656223"><ele>-2.4285714285714284</ele><time>2026-03-28T14:38:07.999Z</time></trkpt><trkpt lat="44.86468013710498" lon="12.164588799968577"><ele>-2.2857142857142856</ele><time>2026-03-28T14:38:10.999Z</time></trkpt><trkpt lat="44.86461413279907" lon="12.164533005306518"><ele>-2.142857142857143</ele><time>2026-03-28T14:38:15.999Z</time></trkpt><trkpt lat="44.864551265092466" lon="12.16451448274098"><ele>-2.0</ele><time>2026-03-28T14:38:18.999Z</time></trkpt><trkpt lat="44.86448395167813" lon="12.164490337165088"><ele>-2.0</ele><time>2026-03-28T14:38:22.999Z</time></trkpt><trkpt lat="44.864413355556124" lon="12.1644699896675"><ele>-1.9999999999999998</ele><time>2026-03-28T14:38:29Z</time></trkpt><trkpt lat="44.86434765562678" lon="12.164431802111407"><ele>-2.0</ele><time>2026-03-28T14:38:32Z</time></trkpt><trkpt lat="44.864279059867634" lon="12.164402544833855"><ele>-2.0</ele><time>2026-03-28T14:38:34Z</time></trkpt><trkpt lat="44.864206568895845" lon="12.164371006093004"><ele>-1.9999999999999998</ele><time>2026-03-28T14:38:36Z</time></trkpt><trkpt lat="44.864135865854735" lon="12.164346885843225"><ele>-2.0</ele><time>2026-03-28T14:38:38Z</time></trkpt><trkpt lat="44.86407108010975" lon="12.164314157296511"><ele>-2.0</ele><time>2026-03-28T14:38:40Z</time></trkpt><trkpt lat="44.863988721247466" lon="12.16427973735995"><ele>-2.142857142857143</ele><time>2026-03-28T14:38:43Z</time></trkpt><trkpt lat="44.86392552961319" lon="12.16424532969463"><ele>-2.2857142857142856</ele><time>2026-03-28T14:38:46Z</time></trkpt><trkpt lat="44.863868472260876" lon="12.164203122269043"><ele>-2.4285714285714284</ele><time>2026-03-28T14:38:51Z</time></trkpt><trkpt lat="44.86383206889958" lon="12.1641003705972"><ele>-2.571428571428571</ele><time>2026-03-28T14:38:54Z</time></trkpt><trkpt lat="44.86386024661286" lon="12.16399925981131"><ele>-2.7142857142857144</ele><time>2026-03-28T14:38:56Z</time></trkpt><trkpt lat="44.863871382502644" lon="12.16391144666956"><ele>-2.8571428571428568</ele><time>2026-03-28T14:38:58Z</time></trkpt><trkpt lat="44.86388271361102" lon="12.163814646658148"><ele>-3.0</ele><time>2026-03-28T14:39:00Z</time></trkpt><trkpt lat="44.86389306072067" lon="12.163716657268326"><ele>-2.9999999999999996</ele><time>2026-03-28T14:39:02Z</time></trkpt><trkpt lat="44.86390660226856" lon="12.163620936266877"><ele>-3.0</ele><time>2026-03-28T14:39:04Z</time></trkpt><trkpt lat="44.86392163135819" lon="12.16352365805697"><ele>-3.0</ele><time>2026-03-28T14:39:06Z</time></trkpt><trkpt lat="44.86393109527209" lon="12.163428899178378"><ele>-3.0</ele><time>2026-03-28T14:39:08Z</time></trkpt><trkpt lat="44.86394008599972" lon="12.163335286864275"><ele>-3.0</ele><time>2026-03-28T14:39:10Z</time></trkpt><trkpt lat="44.86393336823746" lon="12.16323403727179"><ele>-2.9999999999999996</ele><time>2026-03-28T14:39:12Z</time></trkpt><trkpt lat="44.86391310731294" lon="12.163144183836708"><ele>-3.0</ele><time>2026-03-28T14:39:14Z</time></trkpt><trkpt lat="44.86389115565655" lon="12.163059641525216"><ele>-2.9999999999999996</ele><time>2026-03-28T14:39:16Z</time></trkpt><trkpt lat="44.86389564560265" lon="12.162967382703123"><ele>-3.0</ele><time>2026-03-28T14:39:18Z</time></trkpt><trkpt lat="44.863923672098004" lon="12.162882020876257"><ele>-3.0</ele><time>2026-03-28T14:39:20Z</time></trkpt><trkpt lat="44.86395567409022" lon="12.162803049776977"><ele>-3.0</ele><time>2026-03-28T14:39:22Z</time></trkpt><trkpt lat="44.86399523789205" lon="12.162685205518017"><ele>-3.0</ele><time>2026-03-28T14:39:25Z</time></trkpt><trkpt lat="44.86403229316528" lon="12.16256425779652"><ele>-2.9999999999999996</ele><time>2026-03-28T14:39:28Z</time></trkpt><trkpt lat="44.864059025020666" lon="12.16247914780928"><ele>-3.0</ele><time>2026-03-28T14:39:30Z</time></trkpt><trkpt lat="44.864089766980676" lon="12.162349376749646"><ele>-2.8333333333333335</ele><time>2026-03-28T14:39:32.999Z</time></trkpt><trkpt lat="44.86410539571629" lon="12.162219240139459"><ele>-2.6666666666666665</ele><time>2026-03-28T14:39:35.999Z</time></trkpt><trkpt lat="44.864096141528286" lon="12.16209155238301"><ele>-2.5</ele><time>2026-03-28T14:39:38.999Z</time></trkpt><trkpt lat="44.86407340707661" lon="12.161973295345488"><ele>-2.333333333333333</ele><time>2026-03-28T14:39:41.999Z</time></trkpt><trkpt lat="44.86404071576805" lon="12.161858371924744"><ele>-2.1666666666666665</ele><time>2026-03-28T14:39:44.999Z</time></trkpt><trkpt lat="44.8640038390602" lon="12.161747837696952"><ele>-2.0</ele><time>2026-03-28T14:39:47.999Z</time></trkpt><trkpt lat="44.86396615025605" lon="12.16164621993516"><ele>-1.9999999999999998</ele><time>2026-03-28T14:39:50.999Z</time></trkpt><trkpt lat="44.86394308362249" lon="12.161533365313593"><ele>-2.0</ele><time>2026-03-28T14:39:53.999Z</time></trkpt><trkpt lat="44.863916746442754" lon="12.16139990202609"><ele>-2.0</ele><time>2026-03-28T14:39:56.999Z</time></trkpt><trkpt lat="44.8639045295704" lon="12.161306540227665"><ele>-2.0</ele><time>2026-03-28T14:39:58.999Z</time></trkpt><trkpt lat="44.86389537015057" lon="12.161203729352358"><ele>-1.9999999999999998</ele><time>2026-03-28T14:40:00.999Z</time></trkpt><trkpt lat="44.863895824906244" lon="12.161101438683364"><ele>-2.0</ele><time>2026-03-28T14:40:02.999Z</time></trkpt><trkpt lat="44.86390677814989" lon="12.161007375517219"><ele>-2.0</ele><time>2026-03-28T14:40:04.999Z</time></trkpt><trkpt lat="44.8639217802697" lon="12.160905956251183"><ele>-1.9999999999999998</ele><time>2026-03-28T14:40:06.999Z</time></trkpt><trkpt lat="44.863947079995704" lon="12.160806447073913"><ele>-2.0</ele><time>2026-03-28T14:40:08.999Z</time></trkpt><trkpt lat="44.86397871057169" lon="12.160710436516244"><ele>-2.0</ele><time>2026-03-28T14:40:10.999Z</time></trkpt><trkpt lat="44.864010921519906" lon="12.160620491354742"><ele>-1.9999999999999998</ele><time>2026-03-28T14:40:12.999Z</time></trkpt><trkpt lat="44.864035375013096" lon="12.160528879201456"><ele>-2.0</ele><time>2026-03-28T14:40:14.999Z</time></trkpt><trkpt lat="44.86406607639164" lon="12.160443981895327"><ele>-2.0</ele><time>2026-03-28T14:40:16.999Z</time></trkpt><trkpt lat="44.864095918323756" lon="12.160355087755569"><ele>-2.142857142857143</ele><time>2026-03-28T14:40:18.999Z</time></trkpt><trkpt lat="44.864124672064406" lon="12.1602677682031"><ele>-2.2857142857142856</ele><time>2026-03-28T14:40:20.999Z</time></trkpt><trkpt lat="44.864147654580535" lon="12.160180858504033"><ele>-2.4285714285714284</ele><time>2026-03-28T14:40:23.999Z</time></trkpt><trkpt lat="44.86411124143147" lon="12.160072929702439"><ele>-2.571428571428571</ele><time>2026-03-28T14:40:26.999Z</time></trkpt><trkpt lat="44.864050283232565" lon="12.160016158355512"><ele>-2.7142857142857144</ele><time>2026-03-28T14:40:28.999Z</time></trkpt><trkpt lat="44.86397880253903" lon="12.159972924577177"><ele>-2.8571428571428568</ele><time>2026-03-28T14:40:31.999Z</time></trkpt><trkpt lat="44.86392428932268" lon="12.159918952771461"><ele>-3.0</ele><time>2026-03-28T14:40:34Z</time></trkpt><trkpt lat="44.86386110552712" lon="12.159872713775385"><ele>-2.6666666666666665</ele><time>2026-03-28T14:40:36Z</time></trkpt><trkpt lat="44.86379564198266" lon="12.159827816038645"><ele>-2.3333333333333335</ele><time>2026-03-28T14:40:38Z</time></trkpt><trkpt lat="44.8637238780434" lon="12.1597781727568"><ele>-2.0</ele><time>2026-03-28T14:40:41Z</time></trkpt><trkpt lat="44.86364916830194" lon="12.159721993439415"><ele>-1.6666666666666665</ele><time>2026-03-28T14:40:44Z</time></trkpt><trkpt lat="44.863586247336045" lon="12.1596927794475"><ele>-1.3333333333333333</ele><time>2026-03-28T14:40:47Z</time></trkpt><trkpt lat="44.8635361948082" lon="12.159601771466514"><ele>-1.0</ele><time>2026-03-28T14:40:50Z</time></trkpt><trkpt lat="44.86356703733504" lon="12.159482715119424"><ele>-0.9999999999999999</ele><time>2026-03-28T14:40:53Z</time></trkpt><trkpt lat="44.86362056223384" lon="12.159397478958141"><ele>-1.0</ele><time>2026-03-28T14:40:57Z</time></trkpt><trkpt lat="44.86364686210505" lon="12.159306229534478"><ele>-1.0</ele><time>2026-03-28T14:41:00Z</time></trkpt><trkpt lat="44.86368254529198" lon="12.15921388460163"><ele>-1.0</ele><time>2026-03-28T14:41:03Z</time></trkpt><trkpt lat="44.86372071922772" lon="12.159119323575347"><ele>-0.9999999999999999</ele><time>2026-03-28T14:41:06Z</time></trkpt><trkpt lat="44.863746250948296" lon="12.159009800115152"><ele>-1.0</ele><time>2026-03-28T14:41:10Z</time></trkpt><trkpt lat="44.86378326048685" lon="12.158898654615435"><ele>-0.8333333333333333</ele><time>2026-03-28T14:41:13Z</time></trkpt><trkpt lat="44.86379400129737" lon="12.158789174128167"><ele>-0.6666666666666666</ele><time>2026-03-28T14:41:16Z</time></trkpt><trkpt lat="44.8637851775885" lon="12.158698012479853"><ele>-0.5</ele><time>2026-03-28T14:41:18Z</time></trkpt><trkpt lat="44.86375647877091" lon="12.158595914616171"><ele>-0.3333333333333333</ele><time>2026-03-28T14:41:21Z</time></trkpt><trkpt lat="44.863726728568665" lon="12.158482213187476"><ele>-0.16666666666666666</ele><time>2026-03-28T14:41:24Z</time></trkpt><trkpt lat="44.86369202922054" lon="12.158384198958872"><ele>0.0</ele><time>2026-03-28T14:41:27Z</time></trkpt><trkpt lat="44.86365527168466" lon="12.158265493602862"><ele>-0.16666666666666666</ele><time>2026-03-28T14:41:30Z</time></trkpt><trkpt lat="44.86362793901091" lon="12.158145353908846"><ele>-0.3333333333333333</ele><time>2026-03-28T14:41:33Z</time></trkpt><trkpt lat="44.863605489703474" lon="12.158023205994288"><ele>-0.5</ele><time>2026-03-28T14:41:35.999Z</time></trkpt><trkpt lat="44.86359093446397" lon="12.157909043945667"><ele>-0.6666666666666666</ele><time>2026-03-28T14:41:39.999Z</time></trkpt><trkpt lat="44.86359374081832" lon="12.157818294209024"><ele>-0.8333333333333333</ele><time>2026-03-28T14:41:42.999Z</time></trkpt><trkpt lat="44.863579475685206" lon="12.157701162399624"><ele>-1.0</ele><time>2026-03-28T14:41:45.999Z</time></trkpt><trkpt lat="44.86358171939858" lon="12.157566338035785"><ele>-0.9999999999999999</ele><time>2026-03-28T14:41:48.999Z</time></trkpt><trkpt lat="44.86358408748157" lon="12.15743214607831"><ele>-1.0</ele><time>2026-03-28T14:41:51.999Z</time></trkpt><trkpt lat="44.86358620746136" lon="12.15734111192133"><ele>-1.0</ele><time>2026-03-28T14:41:53.999Z</time></trkpt><trkpt lat="44.863600231372075" lon="12.157213640443235"><ele>-1.0</ele><time>2026-03-28T14:41:56.999Z</time></trkpt><trkpt lat="44.86362479108704" lon="12.157091259508693"><ele>-0.9999999999999999</ele><time>2026-03-28T14:41:59.999Z</time></trkpt><trkpt lat="44.86364999821719" lon="12.157008858930533"><ele>-1.0</ele><time>2026-03-28T14:42:01.999Z</time></trkpt><trkpt lat="44.863683032625936" lon="12.156892571614682"><ele>-1.5</ele><time>2026-03-28T14:42:04.999Z</time></trkpt><trkpt lat="44.863720049003184" lon="12.156779636559895"><ele>-2.0</ele><time>2026-03-28T14:42:07.999Z</time></trkpt><trkpt lat="44.86374308869332" lon="12.156687180067957"><ele>-2.5</ele><time>2026-03-28T14:42:09.999Z</time></trkpt><trkpt lat="44.863775034632305" lon="12.15659693320177"><ele>-3.0</ele><time>2026-03-28T14:42:11.999Z</time></trkpt><trkpt lat="44.863818901481174" lon="12.156501841900145"><ele>-3.4999999999999996</ele><time>2026-03-28T14:42:13.999Z</time></trkpt><trkpt lat="44.86386517320929" lon="12.156407924082872"><ele>-4.0</ele><time>2026-03-28T14:42:15.999Z</time></trkpt><trkpt lat="44.863904082590714" lon="12.156305728815529"><ele>-3.9999999999999996</ele><time>2026-03-28T14:42:17.999Z</time></trkpt><trkpt lat="44.863943900305614" lon="12.156204389336645"><ele>-4.0</ele><time>2026-03-28T14:42:19.999Z</time></trkpt><trkpt lat="44.863982590465696" lon="12.156107697341692"><ele>-4.0</ele><time>2026-03-28T14:42:21.999Z</time></trkpt><trkpt lat="44.864022203403806" lon="12.156013865670145"><ele>-4.0</ele><time>2026-03-28T14:42:23.999Z</time></trkpt><trkpt lat="44.864054726295194" lon="12.155933110570965"><ele>-3.9999999999999996</ele><time>2026-03-28T14:42:25.999Z</time></trkpt><trkpt lat="44.86409353106296" lon="12.155820469975618"><ele>-4.0</ele><time>2026-03-28T14:42:28.999Z</time></trkpt><trkpt lat="44.864129754026166" lon="12.155698192605536"><ele>-4.0</ele><time>2026-03-28T14:42:31.999Z</time></trkpt><trkpt lat="44.86415449081441" lon="12.15560935541384"><ele>-3.9999999999999996</ele><time>2026-03-28T14:42:33.999Z</time></trkpt><trkpt lat="44.86419098428103" lon="12.155530973154896"><ele>-4.0</ele><time>2026-03-28T14:42:35.999Z</time></trkpt><trkpt lat="44.86422308726083" lon="12.155446423831114"><ele>-4.0</ele><time>2026-03-28T14:42:37.999Z</time></trkpt><trkpt lat="44.86424413999178" lon="12.155362290525574"><ele>-3.9999999999999996</ele><time>2026-03-28T14:42:40Z</time></trkpt><trkpt lat="44.8642845976653" lon="12.15524460097933"><ele>-4.0</ele><time>2026-03-28T14:42:43Z</time></trkpt><trkpt lat="44.86431548792379" lon="12.155133557833532"><ele>-4.0</ele><time>2026-03-28T14:42:46Z</time></trkpt><trkpt lat="44.86436334941527" lon="12.155025505925277"><ele>-3.9999999999999996</ele><time>2026-03-28T14:42:49Z</time></trkpt><trkpt lat="44.86438682202791" lon="12.1549233900047"><ele>-4.0</ele><time>2026-03-28T14:42:52Z</time></trkpt><trkpt lat="44.86442998406535" lon="12.15481671933247"><ele>-4.0</ele><time>2026-03-28T14:42:55Z</time></trkpt><trkpt lat="44.8644620948671" lon="12.154728950748193"><ele>-4.0</ele><time>2026-03-28T14:42:58Z</time></trkpt><trkpt lat="44.86450610794752" lon="12.15461672430492"><ele>-3.9999999999999996</ele><time>2026-03-28T14:43:02Z</time></trkpt><trkpt lat="44.86453252033137" lon="12.154533840266767"><ele>-4.0</ele><time>2026-03-28T14:43:04Z</time></trkpt><trkpt lat="44.8645662824883" lon="12.154456548207897"><ele>-3.9999999999999996</ele><time>2026-03-28T14:43:06Z</time></trkpt><trkpt lat="44.86459769507439" lon="12.154354475318712"><ele>-4.0</ele><time>2026-03-28T14:43:09Z</time></trkpt><trkpt lat="44.864629316828946" lon="12.15427213897163"><ele>-4.0</ele><time>2026-03-28T14:43:12Z</time></trkpt><trkpt lat="44.864663640490285" lon="12.154158950696663"><ele>-4.0</ele><time>2026-03-28T14:43:15Z</time></trkpt><trkpt lat="44.86469779779512" lon="12.15405354500669"><ele>-3.9999999999999996</ele><time>2026-03-28T14:43:18Z</time></trkpt><trkpt lat="44.86473205917737" lon="12.153940246826496"><ele>-4.0</ele><time>2026-03-28T14:43:21Z</time></trkpt><trkpt lat="44.86476418840937" lon="12.15382030553767"><ele>-3.9999999999999996</ele><time>2026-03-28T14:43:24Z</time></trkpt><trkpt lat="44.86479667058783" lon="12.153720446107387"><ele>-4.0</ele><time>2026-03-28T14:43:27Z</time></trkpt><trkpt lat="44.864830502233644" lon="12.153600638603077"><ele>-4.0</ele><time>2026-03-28T14:43:30Z</time></trkpt><trkpt lat="44.86485479065072" lon="12.153501564999155"><ele>-4.0</ele><time>2026-03-28T14:43:33Z</time></trkpt><trkpt lat="44.864874958610365" lon="12.153416287599839"><ele>-3.9999999999999996</ele><time>2026-03-28T14:43:36Z</time></trkpt><trkpt lat="44.86490612157368" lon="12.153296069562243"><ele>-4.0</ele><time>2026-03-28T14:43:39Z</time></trkpt><trkpt lat="44.86492147789075" lon="12.153199772313865"><ele>-3.571428571428571</ele><time>2026-03-28T14:43:41.999Z</time></trkpt><trkpt lat="44.86494744719849" lon="12.153116051246107"><ele>-3.1428571428571423</ele><time>2026-03-28T14:43:43.999Z</time></trkpt><trkpt lat="44.86497054273777" lon="12.153019386392666"><ele>-2.714285714285714</ele><time>2026-03-28T14:43:45.999Z</time></trkpt><trkpt lat="44.86498575441502" lon="12.1529318463409"><ele>-2.2857142857142856</ele><time>2026-03-28T14:43:47.999Z</time></trkpt><trkpt lat="44.86500924001073" lon="12.152818484180465"><ele>-1.857142857142857</ele><time>2026-03-28T14:43:50.999Z</time></trkpt><trkpt lat="44.86502613808259" lon="12.152711817195614"><ele>-1.4285714285714284</ele><time>2026-03-28T14:43:53.999Z</time></trkpt><trkpt lat="44.86503425951956" lon="12.152615158929157"><ele>-1.0</ele><time>2026-03-28T14:43:55.999Z</time></trkpt><trkpt lat="44.86505544070376" lon="12.152504051907663"><ele>-1.0</ele><time>2026-03-28T14:43:58.999Z</time></trkpt><trkpt lat="44.865070710858966" lon="12.15240189609208"><ele>-0.9999999999999999</ele><time>2026-03-28T14:44:01.999Z</time></trkpt><trkpt lat="44.86507657188195" lon="12.152300433330634"><ele>-1.0</ele><time>2026-03-28T14:44:03.999Z</time></trkpt><trkpt lat="44.865098201031024" lon="12.15219851454417"><ele>-1.0</ele><time>2026-03-28T14:44:05.999Z</time></trkpt><trkpt lat="44.86510491167482" lon="12.152106942485503"><ele>-0.9999999999999999</ele><time>2026-03-28T14:44:07.999Z</time></trkpt><trkpt lat="44.86511364882088" lon="12.151987085999643"><ele>-1.0</ele><time>2026-03-28T14:44:10.999Z</time></trkpt><trkpt lat="44.86511984855103" lon="12.151880541643273"><ele>-1.0</ele><time>2026-03-28T14:44:13.999Z</time></trkpt><trkpt lat="44.865127323220726" lon="12.15179042800906"><ele>-0.9999999999999999</ele><time>2026-03-28T14:44:15.999Z</time></trkpt><trkpt lat="44.86514408881212" lon="12.151668618041766"><ele>-1.0</ele><time>2026-03-28T14:44:18.999Z</time></trkpt><trkpt lat="44.86515847505529" lon="12.151559737717548"><ele>-1.0</ele><time>2026-03-28T14:44:21.999Z</time></trkpt><trkpt lat="44.86516420610991" lon="12.151439794051523"><ele>-1.0</ele><time>2026-03-28T14:44:24.999Z</time></trkpt><trkpt lat="44.86517465556004" lon="12.151348493216712"><ele>-0.9999999999999999</ele><time>2026-03-28T14:44:26.999Z</time></trkpt><trkpt lat="44.865198961273876" lon="12.151216665308773"><ele>-1.0</ele><time>2026-03-28T14:44:29.999Z</time></trkpt><trkpt lat="44.86521361758672" lon="12.151125835236494"><ele>-0.9999999999999999</ele><time>2026-03-28T14:44:31.999Z</time></trkpt><trkpt lat="44.86522566107259" lon="12.151001584391958"><ele>-1.0</ele><time>2026-03-28T14:44:34.999Z</time></trkpt><trkpt lat="44.86523307044575" lon="12.150866503994527"><ele>-1.0</ele><time>2026-03-28T14:44:37.999Z</time></trkpt><trkpt lat="44.8652437205367" lon="12.150772651239535"><ele>-1.0</ele><time>2026-03-28T14:44:39.999Z</time></trkpt><trkpt lat="44.86527224951052" lon="12.150682785026085"><ele>-0.9999999999999999</ele><time>2026-03-28T14:44:41.999Z</time></trkpt><trkpt lat="44.86528041308112" lon="12.150589717494244"><ele>-1.0</ele><time>2026-03-28T14:44:43.999Z</time></trkpt><trkpt lat="44.865288557569095" lon="12.150497506926296"><ele>-1.1666666666666665</ele><time>2026-03-28T14:44:46Z</time></trkpt><trkpt lat="44.865305374547624" lon="12.150406422775186"><ele>-1.3333333333333333</ele><time>2026-03-28T14:44:48Z</time></trkpt><trkpt lat="44.86532317316026" lon="12.150276804124658"><ele>-1.5</ele><time>2026-03-28T14:44:51Z</time></trkpt><trkpt lat="44.86533804162158" lon="12.15017035745951"><ele>-1.6666666666666665</ele><time>2026-03-28T14:44:54Z</time></trkpt><trkpt lat="44.865333500369815" lon="12.150075466066374"><ele>-1.8333333333333333</ele><time>2026-03-28T14:44:57Z</time></trkpt><trkpt lat="44.86535753944275" lon="12.14995000387466"><ele>-2.0</ele><time>2026-03-28T14:45:00Z</time></trkpt><trkpt lat="44.86537106945558" lon="12.149826526975941"><ele>-1.6666666666666665</ele><time>2026-03-28T14:45:03Z</time></trkpt><trkpt lat="44.86538167674241" lon="12.149722709896357"><ele>-1.3333333333333333</ele><time>2026-03-28T14:45:06Z</time></trkpt><trkpt lat="44.86539782217306" lon="12.149607370094081"><ele>-1.0</ele><time>2026-03-28T14:45:09Z</time></trkpt><trkpt lat="44.86540829590479" lon="12.149505407173447"><ele>-0.6666666666666666</ele><time>2026-03-28T14:45:12Z</time></trkpt><trkpt lat="44.86542629019646" lon="12.149398342705775"><ele>-0.3333333333333333</ele><time>2026-03-28T14:45:15Z</time></trkpt><trkpt lat="44.86543228062429" lon="12.149292396136149"><ele>0.0</ele><time>2026-03-28T14:45:19Z</time></trkpt><trkpt lat="44.865395314060386" lon="12.14920518959117"><ele>0.0</ele><time>2026-03-28T14:45:24Z</time></trkpt><trkpt lat="44.865317533244855" lon="12.149175038891617"><ele>0.0</ele><time>2026-03-28T14:45:27Z</time></trkpt><trkpt lat="44.86523355281719" lon="12.149159411507881"><ele>0.0</ele><time>2026-03-28T14:45:29Z</time></trkpt><trkpt lat="44.865172069399804" lon="12.149139530795615"><ele>0.0</ele><time>2026-03-28T14:45:31Z</time></trkpt><trkpt lat="44.86510644105427" lon="12.149110234009672"><ele>0.0</ele><time>2026-03-28T14:45:33Z</time></trkpt><trkpt lat="44.86504105805495" lon="12.149085206692222"><ele>0.0</ele><time>2026-03-28T14:45:35Z</time></trkpt><trkpt lat="44.8649727281799" lon="12.149059417987965"><ele>0.0</ele><time>2026-03-28T14:45:37Z</time></trkpt><trkpt lat="44.86490704893936" lon="12.149028817482176"><ele>0.0</ele><time>2026-03-28T14:45:39Z</time></trkpt><trkpt lat="44.86483521720285" lon="12.148996845447519"><ele>0.0</ele><time>2026-03-28T14:45:41Z</time></trkpt><trkpt lat="44.86475639882735" lon="12.148963576944217"><ele>0.0</ele><time>2026-03-28T14:45:43Z</time></trkpt><trkpt lat="44.864671333740795" lon="12.148939066232971"><ele>0.0</ele><time>2026-03-28T14:45:45Z</time></trkpt><trkpt lat="44.8645738233189" lon="12.148899823341704"><ele>0.0</ele><time>2026-03-28T14:45:47Z</time></trkpt><trkpt lat="44.86446672605198" lon="12.148856351584467"><ele>0.0</ele><time>2026-03-28T14:45:48.999Z</time></trkpt><trkpt lat="44.864354582591275" lon="12.148809006441963"><ele>0.0</ele><time>2026-03-28T14:45:50.999Z</time></trkpt><trkpt lat="44.86425792698047" lon="12.148756576919247"><ele>0.0</ele><time>2026-03-28T14:45:52.999Z</time></trkpt><trkpt lat="44.86417242649347" lon="12.148700075626392"><ele>0.0</ele><time>2026-03-28T14:45:54.999Z</time></trkpt><trkpt lat="44.864099093648576" lon="12.14863500566646"><ele>0.0</ele><time>2026-03-28T14:45:56.999Z</time></trkpt><trkpt lat="44.86402427289956" lon="12.14859554454605"><ele>0.0</ele><time>2026-03-28T14:45:58.999Z</time></trkpt><trkpt lat="44.863952235190304" lon="12.14856798912004"><ele>0.0</ele><time>2026-03-28T14:46:00.999Z</time></trkpt><trkpt lat="44.8638700132565" lon="12.148544937407081"><ele>0.0</ele><time>2026-03-28T14:46:02.999Z</time></trkpt><trkpt lat="44.863781839048684" lon="12.148534189763161"><ele>0.0</ele><time>2026-03-28T14:46:04.999Z</time></trkpt><trkpt lat="44.86369870233991" lon="12.148532421900011"><ele>0.0</ele><time>2026-03-28T14:46:06.999Z</time></trkpt><trkpt lat="44.86361701316441" lon="12.148532724181695"><ele>0.0</ele><time>2026-03-28T14:46:08.999Z</time></trkpt><trkpt lat="44.86353894941258" lon="12.14853293888354"><ele>0.0</ele><time>2026-03-28T14:46:10.999Z</time></trkpt><trkpt lat="44.863465477841785" lon="12.148555435593773"><ele>0.0</ele><time>2026-03-28T14:46:12.999Z</time></trkpt><trkpt lat="44.863392948769636" lon="12.148570990832562"><ele>0.0</ele><time>2026-03-28T14:46:14.999Z</time></trkpt><trkpt lat="44.86332183644293" lon="12.148593485790318"><ele>0.0</ele><time>2026-03-28T14:46:16.999Z</time></trkpt><trkpt lat="44.863252574011234" lon="12.148620260437731"><ele>0.0</ele><time>2026-03-28T14:46:18.999Z</time></trkpt><trkpt lat="44.863182977774116" lon="12.14865233372204"><ele>0.0</ele><time>2026-03-28T14:46:20.999Z</time></trkpt><trkpt lat="44.863112437700444" lon="12.148695427453466"><ele>0.0</ele><time>2026-03-28T14:46:22.999Z</time></trkpt><trkpt lat="44.86304029485377" lon="12.148735401963805"><ele>0.0</ele><time>2026-03-28T14:46:24.999Z</time></trkpt><trkpt lat="44.862968195177274" lon="12.148779465269444"><ele>0.0</ele><time>2026-03-28T14:46:26.999Z</time></trkpt><trkpt lat="44.86289486384091" lon="12.148821850587"><ele>0.0</ele><time>2026-03-28T14:46:28.999Z</time></trkpt><trkpt lat="44.86282306332736" lon="12.148866431111582"><ele>0.0</ele><time>2026-03-28T14:46:30.999Z</time></trkpt><trkpt lat="44.86275254948857" lon="12.148904640249048"><ele>0.0</ele><time>2026-03-28T14:46:32.999Z</time></trkpt><trkpt lat="44.862681341962876" lon="12.148940862199428"><ele>0.0</ele><time>2026-03-28T14:46:34.999Z</time></trkpt><trkpt lat="44.86261431306253" lon="12.148982100753557"><ele>0.0</ele><time>2026-03-28T14:46:36.999Z</time></trkpt><trkpt lat="44.86254365638232" lon="12.149018071314648"><ele>0.0</ele><time>2026-03-28T14:46:38.999Z</time></trkpt><trkpt lat="44.86247890262936" lon="12.149058813795111"><ele>0.0</ele><time>2026-03-28T14:46:40.999Z</time></trkpt><trkpt lat="44.86240936026545" lon="12.149096273038603"><ele>0.0</ele><time>2026-03-28T14:46:42.999Z</time></trkpt><trkpt lat="44.862340428338335" lon="12.149135031805969"><ele>0.0</ele><time>2026-03-28T14:46:44.999Z</time></trkpt><trkpt lat="44.86227106527355" lon="12.149170964464785"><ele>0.0</ele><time>2026-03-28T14:46:46.999Z</time></trkpt><trkpt lat="44.86220053759" lon="12.149197334855922"><ele>0.0</ele><time>2026-03-28T14:46:48.999Z</time></trkpt><trkpt lat="44.862131030222955" lon="12.1492208093925"><ele>0.0</ele><time>2026-03-28T14:46:50.999Z</time></trkpt><trkpt lat="44.86206032265816" lon="12.149231981488107"><ele>0.0</ele><time>2026-03-28T14:46:53Z</time></trkpt><trkpt lat="44.86198784484271" lon="12.14923099675552"><ele>0.0</ele><time>2026-03-28T14:46:55Z</time></trkpt><trkpt lat="44.861917733044" lon="12.14924284044051"><ele>0.0</ele><time>2026-03-28T14:46:57Z</time></trkpt><trkpt lat="44.861848296954705" lon="12.149224248081364"><ele>0.0</ele><time>2026-03-28T14:46:59Z</time></trkpt><trkpt lat="44.86177682152046" lon="12.149213394561832"><ele>0.0</ele><time>2026-03-28T14:47:01Z</time></trkpt><trkpt lat="44.86170575531796" lon="12.149186117458356"><ele>0.0</ele><time>2026-03-28T14:47:03Z</time></trkpt><trkpt lat="44.86167058008274" lon="12.14908598418912"><ele>-0.2857142857142857</ele><time>2026-03-28T14:47:05Z</time></trkpt><trkpt lat="44.86167959392996" lon="12.148971492706472"><ele>-0.5714285714285714</ele><time>2026-03-28T14:47:07Z</time></trkpt><trkpt lat="44.8616869266364" lon="12.14887060313119"><ele>-0.8571428571428571</ele><time>2026-03-28T14:47:09Z</time></trkpt><trkpt lat="44.86169360476187" lon="12.14876792233044"><ele>-1.1428571428571428</ele><time>2026-03-28T14:47:11Z</time></trkpt><trkpt lat="44.8617110305266" lon="12.148665269906076"><ele>-1.4285714285714284</ele><time>2026-03-28T14:47:13Z</time></trkpt><trkpt lat="44.861714712074125" lon="12.148558605254864"><ele>-1.7142857142857142</ele><time>2026-03-28T14:47:15Z</time></trkpt><trkpt lat="44.86172452008804" lon="12.148460669692836"><ele>-2.0</ele><time>2026-03-28T14:47:17Z</time></trkpt><trkpt lat="44.861729163573116" lon="12.148347561436589"><ele>-2.0</ele><time>2026-03-28T14:47:19Z</time></trkpt><trkpt lat="44.8617401126132" lon="12.148242845184052"><ele>-1.9999999999999998</ele><time>2026-03-28T14:47:21Z</time></trkpt><trkpt lat="44.86175730145754" lon="12.148141019049735"><ele>-2.0</ele><time>2026-03-28T14:47:23Z</time></trkpt><trkpt lat="44.86177243722133" lon="12.148038827654073"><ele>-2.0</ele><time>2026-03-28T14:47:25Z</time></trkpt><trkpt lat="44.86178263657252" lon="12.147936752197506"><ele>-1.9999999999999998</ele><time>2026-03-28T14:47:27Z</time></trkpt><trkpt lat="44.86180411648059" lon="12.147833717636056"><ele>-2.0</ele><time>2026-03-28T14:47:29Z</time></trkpt><trkpt lat="44.86181141097922" lon="12.147725471920674"><ele>-2.0</ele><time>2026-03-28T14:47:31Z</time></trkpt><trkpt lat="44.86182360821446" lon="12.14761699727757"><ele>-1.9999999999999998</ele><time>2026-03-28T14:47:33Z</time></trkpt><trkpt lat="44.861830969569006" lon="12.147499967286262"><ele>-2.0</ele><time>2026-03-28T14:47:35Z</time></trkpt><trkpt lat="44.86184417378159" lon="12.147377222970936"><ele>-2.0</ele><time>2026-03-28T14:47:37Z</time></trkpt><trkpt lat="44.861862879334964" lon="12.147255676335716"><ele>-2.0</ele><time>2026-03-28T14:47:39Z</time></trkpt><trkpt lat="44.86187337051232" lon="12.147134208210902"><ele>-1.9999999999999998</ele><time>2026-03-28T14:47:41Z</time></trkpt><trkpt lat="44.86188249733794" lon="12.147016023608563"><ele>-2.0</ele><time>2026-03-28T14:47:43Z</time></trkpt><trkpt lat="44.86189363259935" lon="12.146899255047105"><ele>-1.9999999999999998</ele><time>2026-03-28T14:47:45Z</time></trkpt><trkpt lat="44.86191056835921" lon="12.146786582851039"><ele>-2.0</ele><time>2026-03-28T14:47:47Z</time></trkpt><trkpt lat="44.861923321777006" lon="12.146670923580995"><ele>-2.0</ele><time>2026-03-28T14:47:49Z</time></trkpt><trkpt lat="44.861926836380555" lon="12.146556413848156"><ele>-2.0</ele><time>2026-03-28T14:47:51Z</time></trkpt><trkpt lat="44.86193488923906" lon="12.146446114326436"><ele>-1.9999999999999998</ele><time>2026-03-28T14:47:53Z</time></trkpt><trkpt lat="44.861941683756704" lon="12.14633569300584"><ele>-2.0</ele><time>2026-03-28T14:47:55Z</time></trkpt><trkpt lat="44.86195090811442" lon="12.146232530679892"><ele>-2.0</ele><time>2026-03-28T14:47:57Z</time></trkpt><trkpt lat="44.86195825830684" lon="12.146129674269446"><ele>-1.9999999999999998</ele><time>2026-03-28T14:47:59Z</time></trkpt><trkpt lat="44.86196489767018" lon="12.146030263881833"><ele>-2.0</ele><time>2026-03-28T14:48:01Z</time></trkpt><trkpt lat="44.86197672561187" lon="12.145928013571211"><ele>-2.0</ele><time>2026-03-28T14:48:02.999Z</time></trkpt><trkpt lat="44.86198870235518" lon="12.145829274291488"><ele>-1.9999999999999998</ele><time>2026-03-28T14:48:04.999Z</time></trkpt><trkpt lat="44.86199522613153" lon="12.145733643534996"><ele>-2.0</ele><time>2026-03-28T14:48:06.999Z</time></trkpt><trkpt lat="44.862008272543456" lon="12.145636644205869"><ele>-2.0</ele><time>2026-03-28T14:48:08.999Z</time></trkpt><trkpt lat="44.86201216895082" lon="12.145539674611662"><ele>-2.0</ele><time>2026-03-28T14:48:10.999Z</time></trkpt><trkpt lat="44.86202991748859" lon="12.145445347199125"><ele>-1.9999999999999998</ele><time>2026-03-28T14:48:12.999Z</time></trkpt><trkpt lat="44.862032673188004" lon="12.14534290288035"><ele>-2.0</ele><time>2026-03-28T14:48:14.999Z</time></trkpt><trkpt lat="44.86204904460539" lon="12.145243922962807"><ele>-2.0</ele><time>2026-03-28T14:48:16.999Z</time></trkpt><trkpt lat="44.862060501305784" lon="12.145144982484485"><ele>-1.9999999999999998</ele><time>2026-03-28T14:48:18.999Z</time></trkpt><trkpt lat="44.862073102965006" lon="12.145052194325961"><ele>-2.0</ele><time>2026-03-28T14:48:20.999Z</time></trkpt><trkpt lat="44.86207809414012" lon="12.144961154039313"><ele>-2.0</ele><time>2026-03-28T14:48:22.999Z</time></trkpt><trkpt lat="44.86209370889968" lon="12.144859770124729"><ele>-2.5</ele><time>2026-03-28T14:48:24.999Z</time></trkpt><trkpt lat="44.86210798626219" lon="12.144749508333035"><ele>-3.0</ele><time>2026-03-28T14:48:26.999Z</time></trkpt><trkpt lat="44.8621211803101" lon="12.144634247074269"><ele>-3.5</ele><time>2026-03-28T14:48:28.999Z</time></trkpt><trkpt lat="44.86213400727466" lon="12.144512843986961"><ele>-4.0</ele><time>2026-03-28T14:48:30.999Z</time></trkpt><trkpt lat="44.86215020566821" lon="12.144386271477513"><ele>-4.5</ele><time>2026-03-28T14:48:32.999Z</time></trkpt><trkpt lat="44.862160142244136" lon="12.144260511467769"><ele>-5.0</ele><time>2026-03-28T14:48:34.999Z</time></trkpt><trkpt lat="44.862176418192135" lon="12.14413515052376"><ele>-5.166666666666667</ele><time>2026-03-28T14:48:36.999Z</time></trkpt><trkpt lat="44.862197997598265" lon="12.144014245606254"><ele>-5.333333333333334</ele><time>2026-03-28T14:48:38.999Z</time></trkpt><trkpt lat="44.86220599948952" lon="12.143899581516653"><ele>-5.5</ele><time>2026-03-28T14:48:40.999Z</time></trkpt><trkpt lat="44.86222011462047" lon="12.143793437659694"><ele>-5.666666666666667</ele><time>2026-03-28T14:48:42.999Z</time></trkpt><trkpt lat="44.86223360528134" lon="12.143685645799712"><ele>-5.833333333333333</ele><time>2026-03-28T14:48:44.999Z</time></trkpt><trkpt lat="44.86223559750387" lon="12.14357797273748"><ele>-6.0</ele><time>2026-03-28T14:48:46.999Z</time></trkpt><trkpt lat="44.862248782956456" lon="12.143479818525865"><ele>-6.0</ele><time>2026-03-28T14:48:48.999Z</time></trkpt><trkpt lat="44.86225552844366" lon="12.143385834666104"><ele>-6.0</ele><time>2026-03-28T14:48:50.999Z</time></trkpt><trkpt lat="44.862270805045384" lon="12.14325672030912"><ele>-6.0</ele><time>2026-03-28T14:48:53.999Z</time></trkpt><trkpt lat="44.86228236684909" lon="12.143121233694043"><ele>-6.0</ele><time>2026-03-28T14:48:56.999Z</time></trkpt><trkpt lat="44.862293035892975" lon="12.143025013929906"><ele>-6.0</ele><time>2026-03-28T14:48:59Z</time></trkpt><trkpt lat="44.86229707533964" lon="12.142924935499959"><ele>-6.0</ele><time>2026-03-28T14:49:01Z</time></trkpt><trkpt lat="44.86230625311671" lon="12.142826006871188"><ele>-5.999999999999999</ele><time>2026-03-28T14:49:03Z</time></trkpt><trkpt lat="44.862322631787144" lon="12.142724384286119"><ele>-6.0</ele><time>2026-03-28T14:49:05Z</time></trkpt><trkpt lat="44.862333932708395" lon="12.14261892916004"><ele>-6.0</ele><time>2026-03-28T14:49:07Z</time></trkpt><trkpt lat="44.86234167742491" lon="12.142518166374664"><ele>-6.0</ele><time>2026-03-28T14:49:09Z</time></trkpt><trkpt lat="44.86234755203708" lon="12.142424580936389"><ele>-6.0</ele><time>2026-03-28T14:49:11Z</time></trkpt><trkpt lat="44.862356527765535" lon="12.142334985977827"><ele>-5.999999999999999</ele><time>2026-03-28T14:49:13Z</time></trkpt><trkpt lat="44.86235891696275" lon="12.142240862165114"><ele>-6.0</ele><time>2026-03-28T14:49:15Z</time></trkpt><trkpt lat="44.862367441588404" lon="12.142143215096048"><ele>-5.999999999999999</ele><time>2026-03-28T14:49:17Z</time></trkpt><trkpt lat="44.86237009932379" lon="12.14204843492868"><ele>-6.0</ele><time>2026-03-28T14:49:19Z</time></trkpt><trkpt lat="44.86239045007892" lon="12.141961813671378"><ele>-6.0</ele><time>2026-03-28T14:49:21Z</time></trkpt><trkpt lat="44.862406000133845" lon="12.14184180652965"><ele>-6.0</ele><time>2026-03-28T14:49:24Z</time></trkpt><trkpt lat="44.86243148689128" lon="12.14171776761625"><ele>-6.0</ele><time>2026-03-28T14:49:27Z</time></trkpt><trkpt lat="44.86243851296339" lon="12.141623798784517"><ele>-5.999999999999999</ele><time>2026-03-28T14:49:29Z</time></trkpt><trkpt lat="44.86244970743329" lon="12.14152692600021"><ele>-6.0</ele><time>2026-03-28T14:49:31Z</time></trkpt><trkpt lat="44.86245908722577" lon="12.14143522634052"><ele>-6.0</ele><time>2026-03-28T14:49:33Z</time></trkpt><trkpt lat="44.86247568603172" lon="12.141306090441802"><ele>-6.0</ele><time>2026-03-28T14:49:36Z</time></trkpt><trkpt lat="44.862481217449044" lon="12.141184062994126"><ele>-6.0</ele><time>2026-03-28T14:49:39Z</time></trkpt><trkpt lat="44.86250153319577" lon="12.141053277806593"><ele>-6.0</ele><time>2026-03-28T14:49:42Z</time></trkpt><trkpt lat="44.862505880204154" lon="12.140956405949241"><ele>-6.0</ele><time>2026-03-28T14:49:44Z</time></trkpt><trkpt lat="44.86252296050499" lon="12.140858057923314"><ele>-6.0</ele><time>2026-03-28T14:49:46Z</time></trkpt><trkpt lat="44.862528736421766" lon="12.140757062398952"><ele>-5.7142857142857135</ele><time>2026-03-28T14:49:48Z</time></trkpt><trkpt lat="44.86254229923804" lon="12.140662680035474"><ele>-5.428571428571429</ele><time>2026-03-28T14:49:50Z</time></trkpt><trkpt lat="44.86255150540231" lon="12.140565935502233"><ele>-5.142857142857142</ele><time>2026-03-28T14:49:52Z</time></trkpt><trkpt lat="44.86256491017357" lon="12.140472190864351"><ele>-4.857142857142857</ele><time>2026-03-28T14:49:54Z</time></trkpt><trkpt lat="44.86256423408016" lon="12.140372206256712"><ele>-4.571428571428571</ele><time>2026-03-28T14:49:56Z</time></trkpt><trkpt lat="44.862579974140274" lon="12.140275262789586"><ele>-4.285714285714286</ele><time>2026-03-28T14:49:58Z</time></trkpt><trkpt lat="44.86258717887503" lon="12.140177618102005"><ele>-4.0</ele><time>2026-03-28T14:49:59.999Z</time></trkpt><trkpt lat="44.86260314887086" lon="12.140087197096227"><ele>-4.0</ele><time>2026-03-28T14:50:01.999Z</time></trkpt><trkpt lat="44.8626113615258" lon="12.139995283259543"><ele>-3.9999999999999996</ele><time>2026-03-28T14:50:03.999Z</time></trkpt><trkpt lat="44.862623444033865" lon="12.139884618310287"><ele>-4.0</ele><time>2026-03-28T14:50:05.999Z</time></trkpt><trkpt lat="44.86263465875197" lon="12.13977345349462"><ele>-4.0</ele><time>2026-03-28T14:50:07.999Z</time></trkpt><trkpt lat="44.862649763189076" lon="12.139669072929694"><ele>-3.9999999999999996</ele><time>2026-03-28T14:50:09.999Z</time></trkpt><trkpt lat="44.862662865256354" lon="12.139570903527343"><ele>-4.0</ele><time>2026-03-28T14:50:11.999Z</time></trkpt><trkpt lat="44.86267205011666" lon="12.13948031443105"><ele>-4.0</ele><time>2026-03-28T14:50:13.999Z</time></trkpt><trkpt lat="44.86268206473417" lon="12.139355156290643"><ele>-4.285714285714286</ele><time>2026-03-28T14:50:16.999Z</time></trkpt><trkpt lat="44.862700764717644" lon="12.13923942167212"><ele>-4.571428571428571</ele><time>2026-03-28T14:50:19.999Z</time></trkpt><trkpt lat="44.86270619277043" lon="12.139148945837832"><ele>-4.857142857142857</ele><time>2026-03-28T14:50:21.999Z</time></trkpt><trkpt lat="44.86271566140151" lon="12.13905344839159"><ele>-5.142857142857142</ele><time>2026-03-28T14:50:23.999Z</time></trkpt><trkpt lat="44.86273192510829" lon="12.138957486720178"><ele>-5.428571428571429</ele><time>2026-03-28T14:50:25.999Z</time></trkpt><trkpt lat="44.86273987704739" lon="12.138858187511184"><ele>-5.7142857142857135</ele><time>2026-03-28T14:50:27.999Z</time></trkpt><trkpt lat="44.86275422476958" lon="12.138762722895045"><ele>-6.0</ele><time>2026-03-28T14:50:29.999Z</time></trkpt><trkpt lat="44.862762630691684" lon="12.138662915394177"><ele>-5.999999999999999</ele><time>2026-03-28T14:50:31.999Z</time></trkpt><trkpt lat="44.862776746151454" lon="12.138568797866606"><ele>-6.0</ele><time>2026-03-28T14:50:33.999Z</time></trkpt><trkpt lat="44.862781897843114" lon="12.138469791269603"><ele>-6.0</ele><time>2026-03-28T14:50:35.999Z</time></trkpt><trkpt lat="44.862795950593096" lon="12.138372865909593"><ele>-6.0</ele><time>2026-03-28T14:50:37.999Z</time></trkpt><trkpt lat="44.86280204894177" lon="12.13827238318615"><ele>-6.0</ele><time>2026-03-28T14:50:39.999Z</time></trkpt><trkpt lat="44.862807939813784" lon="12.138175769856423"><ele>-5.999999999999999</ele><time>2026-03-28T14:50:41.999Z</time></trkpt><trkpt lat="44.86282424291591" lon="12.138086072454097"><ele>-6.0</ele><time>2026-03-28T14:50:43.999Z</time></trkpt><trkpt lat="44.862833652277885" lon="12.137960288444335"><ele>-6.0</ele><time>2026-03-28T14:50:46.999Z</time></trkpt><trkpt lat="44.86284784093324" lon="12.137845094504156"><ele>-6.0</ele><time>2026-03-28T14:50:49.999Z</time></trkpt><trkpt lat="44.86286601836699" lon="12.137737220408543"><ele>-6.0</ele><time>2026-03-28T14:50:52.999Z</time></trkpt><trkpt lat="44.86286785773193" lon="12.137636901807545"><ele>-6.0</ele><time>2026-03-28T14:50:55.999Z</time></trkpt><trkpt lat="44.862887089251046" lon="12.137522984308458"><ele>-6.0</ele><time>2026-03-28T14:50:59.999Z</time></trkpt><trkpt lat="44.862898309438805" lon="12.137411224584286"><ele>-6.0</ele><time>2026-03-28T14:51:04Z</time></trkpt><trkpt lat="44.862914066074836" lon="12.13732384219471"><ele>-6.142857142857142</ele><time>2026-03-28T14:51:08Z</time></trkpt><trkpt lat="44.862910753930606" lon="12.137226752292488"><ele>-6.285714285714286</ele><time>2026-03-28T14:51:11Z</time></trkpt><trkpt lat="44.86292047264538" lon="12.137109197109293"><ele>-6.428571428571429</ele><time>2026-03-28T14:51:14Z</time></trkpt><trkpt lat="44.86294333510991" lon="12.136983704823763"><ele>-6.571428571428571</ele><time>2026-03-28T14:51:17Z</time></trkpt><trkpt lat="44.862951697312106" lon="12.136894085398891"><ele>-6.714285714285714</ele><time>2026-03-28T14:51:19Z</time></trkpt><trkpt lat="44.862964230954105" lon="12.136804437108474"><ele>-6.857142857142857</ele><time>2026-03-28T14:51:21Z</time></trkpt><trkpt lat="44.86297657174413" lon="12.136715009255228"><ele>-7.0</ele><time>2026-03-28T14:51:23Z</time></trkpt><trkpt lat="44.86298194096884" lon="12.136624490961124"><ele>-6.666666666666667</ele><time>2026-03-28T14:51:25Z</time></trkpt><trkpt lat="44.862997656337704" lon="12.13649210360677"><ele>-6.333333333333334</ele><time>2026-03-28T14:51:28Z</time></trkpt><trkpt lat="44.86300726111714" lon="12.136403782586553"><ele>-6.0</ele><time>2026-03-28T14:51:30Z</time></trkpt><trkpt lat="44.86302304670203" lon="12.136272404009976"><ele>-5.666666666666667</ele><time>2026-03-28T14:51:33Z</time></trkpt><trkpt lat="44.86303578592494" lon="12.136183223006809"><ele>-5.333333333333334</ele><time>2026-03-28T14:51:35Z</time></trkpt><trkpt lat="44.86304696761274" lon="12.136085675156476"><ele>-5.0</ele><time>2026-03-28T14:51:37Z</time></trkpt><trkpt lat="44.863058745111125" lon="12.135983474751827"><ele>-5.0</ele><time>2026-03-28T14:51:39Z</time></trkpt><trkpt lat="44.86307108419853" lon="12.135892514517876"><ele>-5.0</ele><time>2026-03-28T14:51:41Z</time></trkpt><trkpt lat="44.86307777432553" lon="12.135775195968495"><ele>-5.0</ele><time>2026-03-28T14:51:43Z</time></trkpt><trkpt lat="44.86309353606659" lon="12.135601541857865"><ele>-5.0</ele><time>2026-03-28T14:51:46Z</time></trkpt><trkpt lat="44.86310879948357" lon="12.135483081154511"><ele>-5.0</ele><time>2026-03-28T14:51:48Z</time></trkpt><trkpt lat="44.86311905275428" lon="12.135356995380098"><ele>-5.0</ele><time>2026-03-28T14:51:50Z</time></trkpt><trkpt lat="44.86312966180629" lon="12.13523718355739"><ele>-5.166666666666667</ele><time>2026-03-28T14:51:52Z</time></trkpt><trkpt lat="44.86314377881904" lon="12.135110923128213"><ele>-5.333333333333334</ele><time>2026-03-28T14:51:54Z</time></trkpt><trkpt lat="44.863154017384545" lon="12.134994485348884"><ele>-5.5</ele><time>2026-03-28T14:51:56Z</time></trkpt><trkpt lat="44.86317173759272" lon="12.134897281890956"><ele>-5.666666666666667</ele><time>2026-03-28T14:51:58Z</time></trkpt><trkpt lat="44.86317646842491" lon="12.134794741895405"><ele>-5.833333333333333</ele><time>2026-03-28T14:52:00Z</time></trkpt><trkpt lat="44.86318727232237" lon="12.134688742526137"><ele>-6.0</ele><time>2026-03-28T14:52:02Z</time></trkpt><trkpt lat="44.86320045127074" lon="12.134567169009328"><ele>-6.0</ele><time>2026-03-28T14:52:05Z</time></trkpt><trkpt lat="44.86321398586229" lon="12.134471636331426"><ele>-6.0</ele><time>2026-03-28T14:52:07Z</time></trkpt><trkpt lat="44.86322453111261" lon="12.134368221634672"><ele>-6.0</ele><time>2026-03-28T14:52:09.999Z</time></trkpt><trkpt lat="44.86323999189193" lon="12.134266270926664"><ele>-6.0</ele><time>2026-03-28T14:52:12.999Z</time></trkpt><trkpt lat="44.86324538662301" lon="12.13415940095703"><ele>-6.0</ele><time>2026-03-28T14:52:15.999Z</time></trkpt><trkpt lat="44.863258556281" lon="12.134045728346601"><ele>-6.0</ele><time>2026-03-28T14:52:18.999Z</time></trkpt><trkpt lat="44.863274586494484" lon="12.13391528302803"><ele>-6.285714285714285</ele><time>2026-03-28T14:52:21.999Z</time></trkpt><trkpt lat="44.86328330055481" lon="12.133827155693776"><ele>-6.571428571428571</ele><time>2026-03-28T14:52:23.999Z</time></trkpt><trkpt lat="44.86329397944696" lon="12.133733537336525"><ele>-6.857142857142857</ele><time>2026-03-28T14:52:25.999Z</time></trkpt><trkpt lat="44.86330420868838" lon="12.133643541410564"><ele>-7.142857142857142</ele><time>2026-03-28T14:52:27.999Z</time></trkpt><trkpt lat="44.86331774991294" lon="12.133553576851108"><ele>-7.428571428571428</ele><time>2026-03-28T14:52:29.999Z</time></trkpt><trkpt lat="44.86332793748731" lon="12.133463256932298"><ele>-7.7142857142857135</ele><time>2026-03-28T14:52:31.999Z</time></trkpt><trkpt lat="44.863337723448396" lon="12.133372258076934"><ele>-8.0</ele><time>2026-03-28T14:52:33.999Z</time></trkpt><trkpt lat="44.863350609637514" lon="12.133282463721638"><ele>-7.857142857142857</ele><time>2026-03-28T14:52:35.999Z</time></trkpt><trkpt lat="44.86335996710885" lon="12.133192918945436"><ele>-7.7142857142857135</ele><time>2026-03-28T14:52:37.999Z</time></trkpt><trkpt lat="44.86337342448243" lon="12.133064377875664"><ele>-7.571428571428571</ele><time>2026-03-28T14:52:40.999Z</time></trkpt><trkpt lat="44.86338530582452" lon="12.132975478167939"><ele>-7.428571428571429</ele><time>2026-03-28T14:52:42.999Z</time></trkpt><trkpt lat="44.863391859362146" lon="12.132886964447685"><ele>-7.285714285714286</ele><time>2026-03-28T14:52:44.999Z</time></trkpt><trkpt lat="44.863400785064755" lon="12.132798843620444"><ele>-7.142857142857142</ele><time>2026-03-28T14:52:46.999Z</time></trkpt><trkpt lat="44.86341650725188" lon="12.13266199955346"><ele>-7.0</ele><time>2026-03-28T14:52:49.999Z</time></trkpt><trkpt lat="44.86342895886376" lon="12.132560553815633"><ele>-7.000000000000001</ele><time>2026-03-28T14:52:51.999Z</time></trkpt><trkpt lat="44.86343793982235" lon="12.132449038799852"><ele>-7.0</ele><time>2026-03-28T14:52:53.999Z</time></trkpt><trkpt lat="44.86345009578638" lon="12.132327808883366"><ele>-7.0</ele><time>2026-03-28T14:52:55.999Z</time></trkpt><trkpt lat="44.86346725732871" lon="12.132208742423094"><ele>-7.0</ele><time>2026-03-28T14:52:57.999Z</time></trkpt><trkpt lat="44.86347792857286" lon="12.132088662401838"><ele>-7.000000000000001</ele><time>2026-03-28T14:52:59.999Z</time></trkpt><trkpt lat="44.863492161831466" lon="12.131964875195816"><ele>-7.0</ele><time>2026-03-28T14:53:01.999Z</time></trkpt><trkpt lat="44.8635062503691" lon="12.131840238182946"><ele>-6.833333333333334</ele><time>2026-03-28T14:53:03.999Z</time></trkpt><trkpt lat="44.86351816482115" lon="12.131715085169327"><ele>-6.666666666666667</ele><time>2026-03-28T14:53:05.999Z</time></trkpt><trkpt lat="44.86353409634391" lon="12.131593070650116"><ele>-6.5</ele><time>2026-03-28T14:53:07.999Z</time></trkpt><trkpt lat="44.86355171433841" lon="12.131470358746839"><ele>-6.333333333333334</ele><time>2026-03-28T14:53:10Z</time></trkpt><trkpt lat="44.86356484611131" lon="12.131343948168173"><ele>-6.166666666666667</ele><time>2026-03-28T14:53:12Z</time></trkpt><trkpt lat="44.86358443157216" lon="12.131224791246913"><ele>-6.0</ele><time>2026-03-28T14:53:14Z</time></trkpt><trkpt lat="44.86360987477962" lon="12.131129015571384"><ele>-5.999999999999999</ele><time>2026-03-28T14:53:16Z</time></trkpt><trkpt lat="44.86363220193031" lon="12.131045858790747"><ele>-6.0</ele><time>2026-03-28T14:53:18Z</time></trkpt><trkpt lat="44.863665062493695" lon="12.130965100071242"><ele>-6.0</ele><time>2026-03-28T14:53:20Z</time></trkpt><trkpt lat="44.863706447698675" lon="12.130880032860942"><ele>-6.0</ele><time>2026-03-28T14:53:22Z</time></trkpt><trkpt lat="44.863753718630875" lon="12.13080852753289"><ele>-6.0</ele><time>2026-03-28T14:53:24Z</time></trkpt><trkpt lat="44.8637964248379" lon="12.130725566044395"><ele>-5.999999999999999</ele><time>2026-03-28T14:53:26Z</time></trkpt><trkpt lat="44.86383940533165" lon="12.130652422163635"><ele>-6.0</ele><time>2026-03-28T14:53:28Z</time></trkpt><trkpt lat="44.863897619049915" lon="12.13055624177855"><ele>-5.857142857142857</ele><time>2026-03-28T14:53:31Z</time></trkpt><trkpt lat="44.8639580230325" lon="12.130453561920357"><ele>-5.714285714285714</ele><time>2026-03-28T14:53:34Z</time></trkpt><trkpt lat="44.86400056310554" lon="12.130379450028185"><ele>-5.571428571428571</ele><time>2026-03-28T14:53:36Z</time></trkpt><trkpt lat="44.86404173236625" lon="12.130308447132101"><ele>-5.428571428571429</ele><time>2026-03-28T14:53:38Z</time></trkpt><trkpt lat="44.86408034596709" lon="12.130234753908626"><ele>-5.285714285714286</ele><time>2026-03-28T14:53:40Z</time></trkpt><trkpt lat="44.864065524322044" lon="12.130131312409576"><ele>-5.142857142857142</ele><time>2026-03-28T14:53:42Z</time></trkpt><trkpt lat="44.864006534651544" lon="12.130051575163558"><ele>-5.0</ele><time>2026-03-28T14:53:44Z</time></trkpt><trkpt lat="44.86394745676549" lon="12.129951586563477"><ele>-4.6</ele><time>2026-03-28T14:53:46Z</time></trkpt><trkpt lat="44.86388788261256" lon="12.129843922119326"><ele>-4.2</ele><time>2026-03-28T14:53:48Z</time></trkpt><trkpt lat="44.86384184135191" lon="12.129721310666259"><ele>-3.8</ele><time>2026-03-28T14:53:50Z</time></trkpt><trkpt lat="44.86381749352188" lon="12.129576976999045"><ele>-3.4</ele><time>2026-03-28T14:53:52Z</time></trkpt><trkpt lat="44.863810635527095" lon="12.129448004485274"><ele>-3.0</ele><time>2026-03-28T14:53:54Z</time></trkpt><trkpt lat="44.863816990947846" lon="12.129331129368344"><ele>-2.9999999999999996</ele><time>2026-03-28T14:53:56Z</time></trkpt><trkpt lat="44.863828261840155" lon="12.129218142086971"><ele>-3.0</ele><time>2026-03-28T14:53:58Z</time></trkpt><trkpt lat="44.86384094399007" lon="12.129122551594731"><ele>-3.0</ele><time>2026-03-28T14:54:00Z</time></trkpt><trkpt lat="44.863855953757046" lon="12.129026542021816"><ele>-3.0</ele><time>2026-03-28T14:54:02Z</time></trkpt><trkpt lat="44.8638714028012" lon="12.128931318499445"><ele>-3.0</ele><time>2026-03-28T14:54:04Z</time></trkpt><trkpt lat="44.86388605736693" lon="12.128829349753047"><ele>-2.9999999999999996</ele><time>2026-03-28T14:54:06Z</time></trkpt><trkpt lat="44.86389057855604" lon="12.128730186955586"><ele>-3.0</ele><time>2026-03-28T14:54:08Z</time></trkpt><trkpt lat="44.86390695175504" lon="12.128641442953292"><ele>-3.1666666666666665</ele><time>2026-03-28T14:54:10Z</time></trkpt><trkpt lat="44.86392187314405" lon="12.128508579075815"><ele>-3.333333333333333</ele><time>2026-03-28T14:54:13Z</time></trkpt><trkpt lat="44.86392024473097" lon="12.128383105842286"><ele>-3.5</ele><time>2026-03-28T14:54:16Z</time></trkpt><trkpt lat="44.86394260166703" lon="12.128274102841658"><ele>-3.6666666666666665</ele><time>2026-03-28T14:54:18.999Z</time></trkpt><trkpt lat="44.86395850999732" lon="12.128159659182195"><ele>-3.833333333333333</ele><time>2026-03-28T14:54:21.999Z</time></trkpt><trkpt lat="44.863969972416555" lon="12.128025298559201"><ele>-4.0</ele><time>2026-03-28T14:54:24.999Z</time></trkpt><trkpt lat="44.86397533835383" lon="12.127896116298343"><ele>-4.5</ele><time>2026-03-28T14:54:27.999Z</time></trkpt><trkpt lat="44.86398552382365" lon="12.127803777082024"><ele>-5.0</ele><time>2026-03-28T14:54:29.999Z</time></trkpt><trkpt lat="44.863996665216945" lon="12.127712343683212"><ele>-5.5</ele><time>2026-03-28T14:54:31.999Z</time></trkpt><trkpt lat="44.863999744827446" lon="12.127618249388785"><ele>-6.0</ele><time>2026-03-28T14:54:33.999Z</time></trkpt><trkpt lat="44.86400611789144" lon="12.127524071037767"><ele>-6.500000000000001</ele><time>2026-03-28T14:54:35.999Z</time></trkpt><trkpt lat="44.86402503155919" lon="12.127393315512828"><ele>-7.0</ele><time>2026-03-28T14:54:38.999Z</time></trkpt><trkpt lat="44.864040184455355" lon="12.127266711049545"><ele>-7.166666666666667</ele><time>2026-03-28T14:54:41.999Z</time></trkpt><trkpt lat="44.864051736425225" lon="12.127178523018507"><ele>-7.333333333333334</ele><time>2026-03-28T14:54:43.999Z</time></trkpt><trkpt lat="44.86406644550594" lon="12.127051192016161"><ele>-7.5</ele><time>2026-03-28T14:54:46.999Z</time></trkpt><trkpt lat="44.86408097176536" lon="12.126920845340036"><ele>-7.666666666666666</ele><time>2026-03-28T14:54:49.999Z</time></trkpt><trkpt lat="44.86409188805968" lon="12.126785931710778"><ele>-7.833333333333333</ele><time>2026-03-28T14:54:52.999Z</time></trkpt><trkpt lat="44.864108088708804" lon="12.126657212040367"><ele>-8.0</ele><time>2026-03-28T14:54:55.999Z</time></trkpt><trkpt lat="44.86412613206932" lon="12.126530998341355"><ele>-7.666666666666666</ele><time>2026-03-28T14:54:58.999Z</time></trkpt><trkpt lat="44.86413334190836" lon="12.126437139675762"><ele>-7.333333333333333</ele><time>2026-03-28T14:55:00.999Z</time></trkpt><trkpt lat="44.864145066681594" lon="12.1263462870278"><ele>-7.0</ele><time>2026-03-28T14:55:02.999Z</time></trkpt><trkpt lat="44.86415401498604" lon="12.126215901654483"><ele>-6.666666666666666</ele><time>2026-03-28T14:55:05.999Z</time></trkpt><trkpt lat="44.86416161707514" lon="12.1260876269172"><ele>-6.333333333333333</ele><time>2026-03-28T14:55:08.999Z</time></trkpt><trkpt lat="44.864180205007216" lon="12.125965090750219"><ele>-6.0</ele><time>2026-03-28T14:55:11.999Z</time></trkpt><trkpt lat="44.8641834770718" lon="12.125874990057463"><ele>-6.0</ele><time>2026-03-28T14:55:13.999Z</time></trkpt><trkpt lat="44.864188619607376" lon="12.12578607393476"><ele>-6.0</ele><time>2026-03-28T14:55:16Z</time></trkpt><trkpt lat="44.86420573282489" lon="12.125656373824478"><ele>-6.0</ele><time>2026-03-28T14:55:19Z</time></trkpt><trkpt lat="44.86421630710469" lon="12.125566114622961"><ele>-6.0</ele><time>2026-03-28T14:55:21Z</time></trkpt><trkpt lat="44.864229969038746" lon="12.125440145131693"><ele>-6.0</ele><time>2026-03-28T14:55:24Z</time></trkpt><trkpt lat="44.86424710365067" lon="12.125314601247362"><ele>-6.0</ele><time>2026-03-28T14:55:27Z</time></trkpt><trkpt lat="44.86425549043442" lon="12.125216730131468"><ele>-6.0</ele><time>2026-03-28T14:55:29Z</time></trkpt><trkpt lat="44.86426189386659" lon="12.125125973598593"><ele>-6.0</ele><time>2026-03-28T14:55:31Z</time></trkpt><trkpt lat="44.86427566513313" lon="12.12499092136858"><ele>-6.0</ele><time>2026-03-28T14:55:34Z</time></trkpt><trkpt lat="44.86428489353792" lon="12.12489635546724"><ele>-6.0</ele><time>2026-03-28T14:55:36Z</time></trkpt><trkpt lat="44.864290650550345" lon="12.124806036970496"><ele>-6.0</ele><time>2026-03-28T14:55:38Z</time></trkpt><trkpt lat="44.864302005187966" lon="12.124674743985077"><ele>-6.0</ele><time>2026-03-28T14:55:41Z</time></trkpt><trkpt lat="44.86431761324259" lon="12.124588688756551"><ele>-5.999999999999999</ele><time>2026-03-28T14:55:43Z</time></trkpt><trkpt lat="44.86432425254122" lon="12.124496095511471"><ele>-6.0</ele><time>2026-03-28T14:55:45Z</time></trkpt><trkpt lat="44.86433098844149" lon="12.124404709031158"><ele>-6.0</ele><time>2026-03-28T14:55:47Z</time></trkpt><trkpt lat="44.86433635428273" lon="12.124275018029254"><ele>-6.0</ele><time>2026-03-28T14:55:50Z</time></trkpt><trkpt lat="44.86434636068457" lon="12.124186810152214"><ele>-6.0</ele><time>2026-03-28T14:55:52Z</time></trkpt><trkpt lat="44.864355248888494" lon="12.124098014570025"><ele>-5.999999999999999</ele><time>2026-03-28T14:55:54Z</time></trkpt><trkpt lat="44.864365088297454" lon="12.124005737412435"><ele>-6.0</ele><time>2026-03-28T14:55:56Z</time></trkpt><trkpt lat="44.86437525109703" lon="12.123878089756367"><ele>-5.999999999999999</ele><time>2026-03-28T14:55:59Z</time></trkpt><trkpt lat="44.86438830703152" lon="12.123790346706485"><ele>-6.0</ele><time>2026-03-28T14:56:01Z</time></trkpt><trkpt lat="44.864390910449856" lon="12.123699023663125"><ele>-6.0</ele><time>2026-03-28T14:56:03Z</time></trkpt><trkpt lat="44.86440689461992" lon="12.123609536781979"><ele>-6.0</ele><time>2026-03-28T14:56:05Z</time></trkpt><trkpt lat="44.86441628516554" lon="12.123511225230068"><ele>-6.0</ele><time>2026-03-28T14:56:07Z</time></trkpt><trkpt lat="44.86442257811403" lon="12.123414789678586"><ele>-5.999999999999999</ele><time>2026-03-28T14:56:09Z</time></trkpt><trkpt lat="44.86443128074" lon="12.123320282036104"><ele>-6.0</ele><time>2026-03-28T14:56:11Z</time></trkpt><trkpt lat="44.86443619672032" lon="12.123224058803174"><ele>-5.7142857142857135</ele><time>2026-03-28T14:56:13Z</time></trkpt><trkpt lat="44.864443872598265" lon="12.123129736989608"><ele>-5.428571428571429</ele><time>2026-03-28T14:56:15Z</time></trkpt><trkpt lat="44.86446148258803" lon="12.12301111566688"><ele>-5.142857142857142</ele><time>2026-03-28T14:56:18Z</time></trkpt><trkpt lat="44.864474024215085" lon="12.122893574494558"><ele>-4.857142857142857</ele><time>2026-03-28T14:56:20.999Z</time></trkpt><trkpt lat="44.864487788976405" lon="12.122802298622283"><ele>-4.571428571428571</ele><time>2026-03-28T14:56:22.999Z</time></trkpt><trkpt lat="44.86449625095193" lon="12.122699862003847"><ele>-4.285714285714286</ele><time>2026-03-28T14:56:25.999Z</time></trkpt><trkpt lat="44.86451063286579" lon="12.12261190975456"><ele>-4.0</ele><time>2026-03-28T14:56:28.999Z</time></trkpt><trkpt lat="44.864519178034314" lon="12.122488968189337"><ele>-3.8571428571428568</ele><time>2026-03-28T14:56:43.999Z</time></trkpt><trkpt lat="44.864528068862704" lon="12.122372412347678"><ele>-3.714285714285714</ele><time>2026-03-28T14:56:46.999Z</time></trkpt><trkpt lat="44.86454568069159" lon="12.122259305859522"><ele>-3.571428571428571</ele><time>2026-03-28T14:56:49.999Z</time></trkpt><trkpt lat="44.86455086134463" lon="12.12215992817143"><ele>-3.4285714285714284</ele><time>2026-03-28T14:56:51.999Z</time></trkpt><trkpt lat="44.86454675029966" lon="12.122066813761208"><ele>-3.2857142857142856</ele><time>2026-03-28T14:56:53.999Z</time></trkpt><trkpt lat="44.86455849677506" lon="12.12197455329732"><ele>-3.1428571428571423</ele><time>2026-03-28T14:56:55.999Z</time></trkpt><trkpt lat="44.86456330116118" lon="12.121879834064408"><ele>-3.0</ele><time>2026-03-28T14:56:57.999Z</time></trkpt><trkpt lat="44.86458069023936" lon="12.121785218966354"><ele>-3.0</ele><time>2026-03-28T14:56:59.999Z</time></trkpt><trkpt lat="44.86459512651508" lon="12.121686013459454"><ele>-3.0</ele><time>2026-03-28T14:57:01.999Z</time></trkpt><trkpt lat="44.86460620067092" lon="12.121578537361001"><ele>-3.0</ele><time>2026-03-28T14:57:03.999Z</time></trkpt><trkpt lat="44.86462052827213" lon="12.121466265452284"><ele>-3.0</ele><time>2026-03-28T14:57:06.999Z</time></trkpt><trkpt lat="44.86462771862797" lon="12.12136435950672"><ele>-3.0</ele><time>2026-03-28T14:57:09.999Z</time></trkpt><trkpt lat="44.86464785721273" lon="12.121242925702738"><ele>-3.0</ele><time>2026-03-28T14:57:13.999Z</time></trkpt><trkpt lat="44.864652382421056" lon="12.121142042737242"><ele>-3.3333333333333335</ele><time>2026-03-28T14:57:16.999Z</time></trkpt><trkpt lat="44.86467766813663" lon="12.121049145579319"><ele>-3.666666666666667</ele><time>2026-03-28T14:57:21Z</time></trkpt><trkpt lat="44.86468032876039" lon="12.120927402254779"><ele>-4.0</ele><time>2026-03-28T14:57:24Z</time></trkpt><trkpt lat="44.86469727915078" lon="12.120838854291138"><ele>-4.333333333333334</ele><time>2026-03-28T14:57:26Z</time></trkpt><trkpt lat="44.864707873552156" lon="12.120711621420474"><ele>-4.666666666666667</ele><time>2026-03-28T14:57:29Z</time></trkpt><trkpt lat="44.864727694558084" lon="12.120588236259044"><ele>-5.0</ele><time>2026-03-28T14:57:32Z</time></trkpt><trkpt lat="44.86473692047311" lon="12.120469081588572"><ele>-5.0</ele><time>2026-03-28T14:57:35Z</time></trkpt><trkpt lat="44.86474637833032" lon="12.12036562300423"><ele>-5.0</ele><time>2026-03-28T14:57:38Z</time></trkpt><trkpt lat="44.864767687245596" lon="12.120271802657708"><ele>-5.0</ele><time>2026-03-28T14:57:41Z</time></trkpt><trkpt lat="44.86477252305006" lon="12.120147186580397"><ele>-5.0</ele><time>2026-03-28T14:57:44Z</time></trkpt><trkpt lat="44.86478385865634" lon="12.120040551777002"><ele>-5.0</ele><time>2026-03-28T14:57:47Z</time></trkpt><trkpt lat="44.864789002071085" lon="12.119949500095665"><ele>-5.0</ele><time>2026-03-28T14:57:49Z</time></trkpt><trkpt lat="44.86480900400163" lon="12.119831602166201"><ele>-5.333333333333334</ele><time>2026-03-28T14:57:52Z</time></trkpt><trkpt lat="44.8648247148519" lon="12.1197328847176"><ele>-5.666666666666667</ele><time>2026-03-28T14:57:55Z</time></trkpt><trkpt lat="44.864820669775696" lon="12.119641117738107"><ele>-6.0</ele><time>2026-03-28T14:57:58Z</time></trkpt><trkpt lat="44.86483265504267" lon="12.119522144163296"><ele>-6.333333333333334</ele><time>2026-03-28T14:58:01Z</time></trkpt><trkpt lat="44.864848614180524" lon="12.11940557809371"><ele>-6.666666666666667</ele><time>2026-03-28T14:58:04Z</time></trkpt><trkpt lat="44.86485922423583" lon="12.119315858983875"><ele>-7.0</ele><time>2026-03-28T14:58:07Z</time></trkpt><trkpt lat="44.86487220012822" lon="12.119198804813593"><ele>-7.0</ele><time>2026-03-28T14:58:11Z</time></trkpt><trkpt lat="44.8648866372504" lon="12.119088103085648"><ele>-7.0</ele><time>2026-03-28T14:58:16Z</time></trkpt><trkpt lat="44.86489486958631" lon="12.118981345807544"><ele>-7.0</ele><time>2026-03-28T14:58:22Z</time></trkpt><trkpt lat="44.864910250167334" lon="12.11888395126515"><ele>-7.0</ele><time>2026-03-28T14:58:24.999Z</time></trkpt><trkpt lat="44.86492041025768" lon="12.118769626108515"><ele>-7.0</ele><time>2026-03-28T14:58:27.999Z</time></trkpt><trkpt lat="44.86492735898122" lon="12.11866538149833"><ele>-7.0</ele><time>2026-03-28T14:58:30.999Z</time></trkpt><trkpt lat="44.864940536559935" lon="12.118573785164283"><ele>-7.0</ele><time>2026-03-28T14:58:32.999Z</time></trkpt><trkpt lat="44.86495517323944" lon="12.118473588308131"><ele>-7.166666666666667</ele><time>2026-03-28T14:58:34.999Z</time></trkpt><trkpt lat="44.86495996948306" lon="12.118371915862603"><ele>-7.333333333333334</ele><time>2026-03-28T14:58:36.999Z</time></trkpt><trkpt lat="44.8649698537278" lon="12.118265586047094"><ele>-7.5</ele><time>2026-03-28T14:58:38.999Z</time></trkpt><trkpt lat="44.86498810644672" lon="12.118158442578347"><ele>-7.666666666666666</ele><time>2026-03-28T14:58:40.999Z</time></trkpt><trkpt lat="44.86499852117324" lon="12.11805207350655"><ele>-7.833333333333333</ele><time>2026-03-28T14:58:42.999Z</time></trkpt><trkpt lat="44.86501509904532" lon="12.11794295989419"><ele>-8.0</ele><time>2026-03-28T14:58:44.999Z</time></trkpt><trkpt lat="44.8650242802216" lon="12.11782845572895"><ele>-7.666666666666666</ele><time>2026-03-28T14:58:46.999Z</time></trkpt><trkpt lat="44.86503136129306" lon="12.11770736783807"><ele>-7.333333333333333</ele><time>2026-03-28T14:58:48.999Z</time></trkpt><trkpt lat="44.865042456412205" lon="12.117596964221208"><ele>-7.0</ele><time>2026-03-28T14:58:50.999Z</time></trkpt><trkpt lat="44.86505512714328" lon="12.117480123666247"><ele>-6.666666666666666</ele><time>2026-03-28T14:58:52.999Z</time></trkpt><trkpt lat="44.86506716537317" lon="12.117357505386732"><ele>-6.333333333333333</ele><time>2026-03-28T14:58:54.999Z</time></trkpt><trkpt lat="44.86508117922281" lon="12.117239513311654"><ele>-6.0</ele><time>2026-03-28T14:58:56.999Z</time></trkpt><trkpt lat="44.86509013807761" lon="12.11712182090395"><ele>-6.0</ele><time>2026-03-28T14:58:58.999Z</time></trkpt><trkpt lat="44.865104494772204" lon="12.117005173608886"><ele>-6.0</ele><time>2026-03-28T14:59:00.999Z</time></trkpt><trkpt lat="44.865113659333986" lon="12.116886262844133"><ele>-6.0</ele><time>2026-03-28T14:59:02.999Z</time></trkpt><trkpt lat="44.865126127210665" lon="12.116769050253701"><ele>-6.0</ele><time>2026-03-28T14:59:04.999Z</time></trkpt><trkpt lat="44.86514623775559" lon="12.11665047890393"><ele>-6.0</ele><time>2026-03-28T14:59:06.999Z</time></trkpt><trkpt lat="44.8651623160601" lon="12.116542626963778"><ele>-6.0</ele><time>2026-03-28T14:59:08.999Z</time></trkpt><trkpt lat="44.865173701588375" lon="12.116425912364454"><ele>-6.166666666666667</ele><time>2026-03-28T14:59:10.999Z</time></trkpt><trkpt lat="44.86518661606036" lon="12.116312102070728"><ele>-6.333333333333334</ele><time>2026-03-28T14:59:12.999Z</time></trkpt><trkpt lat="44.86519850607558" lon="12.1161929696459"><ele>-6.5</ele><time>2026-03-28T14:59:14.999Z</time></trkpt><trkpt lat="44.86520188045289" lon="12.116090083260904"><ele>-6.666666666666667</ele><time>2026-03-28T14:59:16.999Z</time></trkpt><trkpt lat="44.865214630574194" lon="12.115971587117848"><ele>-6.833333333333334</ele><time>2026-03-28T14:59:18.999Z</time></trkpt><trkpt lat="44.86523126301368" lon="12.115850385733923"><ele>-7.0</ele><time>2026-03-28T14:59:20.999Z</time></trkpt><trkpt lat="44.86524507802572" lon="12.115737948830938"><ele>-6.833333333333334</ele><time>2026-03-28T14:59:22.999Z</time></trkpt><trkpt lat="44.865253831170655" lon="12.115621722920828"><ele>-6.666666666666667</ele><time>2026-03-28T14:59:24.999Z</time></trkpt><trkpt lat="44.86526479735828" lon="12.115519002140704"><ele>-6.5</ele><time>2026-03-28T14:59:27Z</time></trkpt><trkpt lat="44.86527536467214" lon="12.115418046811506"><ele>-6.333333333333334</ele><time>2026-03-28T14:59:29Z</time></trkpt><trkpt lat="44.865286450442206" lon="12.115297345301848"><ele>-6.166666666666667</ele><time>2026-03-28T14:59:31Z</time></trkpt><trkpt lat="44.865295156123445" lon="12.115178013007448"><ele>-6.0</ele><time>2026-03-28T14:59:33Z</time></trkpt><trkpt lat="44.865309887239874" lon="12.115061070995743"><ele>-6.0</ele><time>2026-03-28T14:59:35Z</time></trkpt><trkpt lat="44.86531957625576" lon="12.114940467611055"><ele>-6.0</ele><time>2026-03-28T14:59:37Z</time></trkpt><trkpt lat="44.86533369064382" lon="12.114819138101112"><ele>-6.0</ele><time>2026-03-28T14:59:39Z</time></trkpt><trkpt lat="44.86534376170328" lon="12.114701661887885"><ele>-6.0</ele><time>2026-03-28T14:59:41Z</time></trkpt><trkpt lat="44.865356136892906" lon="12.11458431856698"><ele>-6.0</ele><time>2026-03-28T14:59:43Z</time></trkpt><trkpt lat="44.865367694842085" lon="12.114469556507572"><ele>-6.0</ele><time>2026-03-28T14:59:45Z</time></trkpt><trkpt lat="44.86538270584181" lon="12.114363706899027"><ele>-6.142857142857142</ele><time>2026-03-28T14:59:47Z</time></trkpt><trkpt lat="44.86539116942358" lon="12.114273980777384"><ele>-6.285714285714286</ele><time>2026-03-28T14:59:49Z</time></trkpt><trkpt lat="44.865403354878126" lon="12.114186171767281"><ele>-6.428571428571429</ele><time>2026-03-28T14:59:51Z</time></trkpt><trkpt lat="44.865411168806936" lon="12.11408866503353"><ele>-6.571428571428571</ele><time>2026-03-28T14:59:53Z</time></trkpt><trkpt lat="44.865428391434484" lon="12.113999603221107"><ele>-6.714285714285714</ele><time>2026-03-28T14:59:55Z</time></trkpt><trkpt lat="44.86543866678781" lon="12.113902587937538"><ele>-6.857142857142857</ele><time>2026-03-28T14:59:57Z</time></trkpt><trkpt lat="44.86544591198974" lon="12.113810086790298"><ele>-7.0</ele><time>2026-03-28T14:59:59Z</time></trkpt><trkpt lat="44.86545262090584" lon="12.113716195962091"><ele>-7.0</ele><time>2026-03-28T15:00:01Z</time></trkpt><trkpt lat="44.86546746512891" lon="12.113621677795127"><ele>-7.0</ele><time>2026-03-28T15:00:03Z</time></trkpt><trkpt lat="44.86547781286496" lon="12.113523369481323"><ele>-7.0</ele><time>2026-03-28T15:00:05Z</time></trkpt><trkpt lat="44.865490407281555" lon="12.113398809749789"><ele>-7.0</ele><time>2026-03-28T15:00:08Z</time></trkpt><trkpt lat="44.865499037367165" lon="12.113306666301453"><ele>-7.0</ele><time>2026-03-28T15:00:10Z</time></trkpt><trkpt lat="44.86551134093156" lon="12.113214404280614"><ele>-7.0</ele><time>2026-03-28T15:00:12Z</time></trkpt><trkpt lat="44.86552636062928" lon="12.113120335779076"><ele>-7.0</ele><time>2026-03-28T15:00:14Z</time></trkpt><trkpt lat="44.86554060006619" lon="12.113006453461825"><ele>-7.000000000000001</ele><time>2026-03-28T15:00:16Z</time></trkpt><trkpt lat="44.8655472962698" lon="12.112900794703242"><ele>-7.0</ele><time>2026-03-28T15:00:18Z</time></trkpt><trkpt lat="44.86555739685536" lon="12.112789872985225"><ele>-7.0</ele><time>2026-03-28T15:00:20Z</time></trkpt><trkpt lat="44.8655695240569" lon="12.11267407046182"><ele>-7.0</ele><time>2026-03-28T15:00:22Z</time></trkpt><trkpt lat="44.86557899910177" lon="12.112557142256039"><ele>-7.000000000000001</ele><time>2026-03-28T15:00:24Z</time></trkpt><trkpt lat="44.8655930390732" lon="12.112434345928119"><ele>-7.0</ele><time>2026-03-28T15:00:25.999Z</time></trkpt><trkpt lat="44.86560270546059" lon="12.112308282571108"><ele>-6.500000000000001</ele><time>2026-03-28T15:00:27.999Z</time></trkpt><trkpt lat="44.86561966872807" lon="12.112179877365943"><ele>-6.0</ele><time>2026-03-28T15:00:29.999Z</time></trkpt><trkpt lat="44.86563179949505" lon="12.112069809412791"><ele>-5.5</ele><time>2026-03-28T15:00:31.999Z</time></trkpt><trkpt lat="44.86564162489502" lon="12.111959900626443"><ele>-5.0</ele><time>2026-03-28T15:00:33.999Z</time></trkpt><trkpt lat="44.86565617268635" lon="12.11185744110102"><ele>-4.5</ele><time>2026-03-28T15:00:35.999Z</time></trkpt><trkpt lat="44.86566587935818" lon="12.111764355336728"><ele>-4.0</ele><time>2026-03-28T15:00:37.999Z</time></trkpt><trkpt lat="44.86567571922706" lon="12.111674596693742"><ele>-3.9999999999999996</ele><time>2026-03-28T15:00:39.999Z</time></trkpt><trkpt lat="44.86568791898855" lon="12.111585952544301"><ele>-4.0</ele><time>2026-03-28T15:00:41.999Z</time></trkpt><trkpt lat="44.86570302886921" lon="12.11146058689908"><ele>-4.0</ele><time>2026-03-28T15:00:44.999Z</time></trkpt><trkpt lat="44.86571093916834" lon="12.11134305518239"><ele>-4.0</ele><time>2026-03-28T15:00:47.999Z</time></trkpt><trkpt lat="44.86573188072112" lon="12.111224219576021"><ele>-3.9999999999999996</ele><time>2026-03-28T15:00:50.999Z</time></trkpt><trkpt lat="44.86573902160507" lon="12.111100928669215"><ele>-4.0</ele><time>2026-03-28T15:00:53.999Z</time></trkpt><trkpt lat="44.86575156016936" lon="12.110975301848574"><ele>-3.8571428571428568</ele><time>2026-03-28T15:00:56.999Z</time></trkpt><trkpt lat="44.86576168394548" lon="12.110886867001573"><ele>-3.714285714285714</ele><time>2026-03-28T15:00:58.999Z</time></trkpt><trkpt lat="44.8657708927956" lon="12.110796743224673"><ele>-3.571428571428571</ele><time>2026-03-28T15:01:00.999Z</time></trkpt><trkpt lat="44.865782738817366" lon="12.110706972167533"><ele>-3.4285714285714284</ele><time>2026-03-28T15:01:02.999Z</time></trkpt><trkpt lat="44.86579026905854" lon="12.110617507415606"><ele>-3.2857142857142856</ele><time>2026-03-28T15:01:04.999Z</time></trkpt><trkpt lat="44.86579660011306" lon="12.110527382763236"><ele>-3.1428571428571423</ele><time>2026-03-28T15:01:06.999Z</time></trkpt><trkpt lat="44.86580686685261" lon="12.110436548566112"><ele>-3.0</ele><time>2026-03-28T15:01:08.999Z</time></trkpt><trkpt lat="44.86581819870235" lon="12.110343369135068"><ele>-3.0</ele><time>2026-03-28T15:01:10.999Z</time></trkpt><trkpt lat="44.86582614582539" lon="12.110253332824765"><ele>-3.0</ele><time>2026-03-28T15:01:12.999Z</time></trkpt><trkpt lat="44.8658419509529" lon="12.110133765496576"><ele>-3.0</ele><time>2026-03-28T15:01:15.999Z</time></trkpt><trkpt lat="44.86585422649092" lon="12.110015351076555"><ele>-3.0</ele><time>2026-03-28T15:01:18.999Z</time></trkpt><trkpt lat="44.86585831656453" lon="12.109919340425977"><ele>-3.0</ele><time>2026-03-28T15:01:21.999Z</time></trkpt><trkpt lat="44.865872702714206" lon="12.109799337262892"><ele>-3.0</ele><time>2026-03-28T15:01:24.999Z</time></trkpt><trkpt lat="44.86587030246387" lon="12.10967388254492"><ele>-3.0</ele><time>2026-03-28T15:01:27.999Z</time></trkpt><trkpt lat="44.865894489978885" lon="12.109548823512993"><ele>-3.0</ele><time>2026-03-28T15:01:30.999Z</time></trkpt><trkpt lat="44.86590105412459" lon="12.109459396548948"><ele>-3.0</ele><time>2026-03-28T15:01:33Z</time></trkpt><trkpt lat="44.86591052031164" lon="12.109370925130783"><ele>-3.0</ele><time>2026-03-28T15:01:35Z</time></trkpt><trkpt lat="44.86592687679247" lon="12.109282214418133"><ele>-3.0</ele><time>2026-03-28T15:01:37Z</time></trkpt><trkpt lat="44.86594262327882" lon="12.109161092649416"><ele>-3.0</ele><time>2026-03-28T15:01:40Z</time></trkpt><trkpt lat="44.86594503105119" lon="12.109047224023431"><ele>-3.0</ele><time>2026-03-28T15:01:43Z</time></trkpt><trkpt lat="44.86594253800525" lon="12.108949174924431"><ele>-3.0</ele><time>2026-03-28T15:01:45Z</time></trkpt><trkpt lat="44.86596126617555" lon="12.108859723649738"><ele>-3.0</ele><time>2026-03-28T15:01:47Z</time></trkpt><trkpt lat="44.86598090738917" lon="12.108737045912548"><ele>-3.0</ele><time>2026-03-28T15:01:50Z</time></trkpt><trkpt lat="44.86598509004738" lon="12.108591719738559"><ele>-3.0</ele><time>2026-03-28T15:01:53Z</time></trkpt><trkpt lat="44.86599873084107" lon="12.108494877359924"><ele>-3.0</ele><time>2026-03-28T15:01:55Z</time></trkpt><trkpt lat="44.86601436476611" lon="12.10840188098931"><ele>-2.9999999999999996</ele><time>2026-03-28T15:01:57Z</time></trkpt><trkpt lat="44.86601877807478" lon="12.108304090256443"><ele>-3.0</ele><time>2026-03-28T15:01:59Z</time></trkpt><trkpt lat="44.86602278623713" lon="12.108209009630672"><ele>-3.0</ele><time>2026-03-28T15:02:01Z</time></trkpt><trkpt lat="44.86604645951919" lon="12.108126305702068"><ele>-3.0</ele><time>2026-03-28T15:02:03Z</time></trkpt><trkpt lat="44.866063536965996" lon="12.108025754536783"><ele>-3.0</ele><time>2026-03-28T15:02:06Z</time></trkpt><trkpt lat="44.86607457014976" lon="12.107935537423167"><ele>-2.9999999999999996</ele><time>2026-03-28T15:11:26.999Z</time></trkpt><trkpt lat="44.866090554923375" lon="12.107817812894767"><ele>-3.0</ele><time>2026-03-28T15:12:57Z</time></trkpt><trkpt lat="44.86608900437229" lon="12.107727419631901"><ele>-3.1428571428571423</ele><time>2026-03-28T15:13:01Z</time></trkpt><trkpt lat="44.86611052342276" lon="12.10761807702302"><ele>-3.2857142857142856</ele><time>2026-03-28T15:13:03.999Z</time></trkpt><trkpt lat="44.866121312313766" lon="12.107523581716588"><ele>-3.4285714285714284</ele><time>2026-03-28T15:13:05.999Z</time></trkpt><trkpt lat="44.866131803813516" lon="12.107430125389754"><ele>-3.571428571428571</ele><time>2026-03-28T15:13:07.999Z</time></trkpt><trkpt lat="44.86614025110736" lon="12.1073357942432"><ele>-3.714285714285714</ele><time>2026-03-28T15:13:09.999Z</time></trkpt><trkpt lat="44.86615242643576" lon="12.107241094180823"><ele>-3.8571428571428568</ele><time>2026-03-28T15:13:11.999Z</time></trkpt><trkpt lat="44.86616182236997" lon="12.107113995571483"><ele>-4.0</ele><time>2026-03-28T15:13:14.999Z</time></trkpt><trkpt lat="44.866163857466695" lon="12.107020399066275"><ele>-4.142857142857142</ele><time>2026-03-28T15:13:16.999Z</time></trkpt><trkpt lat="44.86617482299943" lon="12.106927018897364"><ele>-4.285714285714286</ele><time>2026-03-28T15:13:18.999Z</time></trkpt><trkpt lat="44.866177495382374" lon="12.10682990054638"><ele>-4.428571428571429</ele><time>2026-03-28T15:13:20.999Z</time></trkpt><trkpt lat="44.86618428141704" lon="12.106737141763391"><ele>-4.571428571428571</ele><time>2026-03-28T15:13:22.999Z</time></trkpt><trkpt lat="44.866193294408305" lon="12.106636646709491"><ele>-4.714285714285714</ele><time>2026-03-28T15:13:24.999Z</time></trkpt><trkpt lat="44.86619643305835" lon="12.106534022325254"><ele>-4.857142857142857</ele><time>2026-03-28T15:13:26.999Z</time></trkpt><trkpt lat="44.86620439942754" lon="12.10643474880962"><ele>-5.0</ele><time>2026-03-28T15:13:28.999Z</time></trkpt><trkpt lat="44.866217699896076" lon="12.106326565335769"><ele>-5.0</ele><time>2026-03-28T15:13:30.999Z</time></trkpt><trkpt lat="44.86623136539344" lon="12.106224708402808"><ele>-5.0</ele><time>2026-03-28T15:13:32.999Z</time></trkpt><trkpt lat="44.866239806238575" lon="12.106127791061905"><ele>-5.0</ele><time>2026-03-28T15:13:34.999Z</time></trkpt><trkpt lat="44.86625302911009" lon="12.106035463090599"><ele>-5.0</ele><time>2026-03-28T15:13:36.999Z</time></trkpt><trkpt lat="44.866267902660205" lon="12.10590826334649"><ele>-5.0</ele><time>2026-03-28T15:13:39.999Z</time></trkpt><trkpt lat="44.866276689908034" lon="12.10580332753929"><ele>-5.0</ele><time>2026-03-28T15:13:42.999Z</time></trkpt><trkpt lat="44.86629585394938" lon="12.105685882130711"><ele>-4.857142857142857</ele><time>2026-03-28T15:13:45.999Z</time></trkpt><trkpt lat="44.866304847777656" lon="12.105586458724831"><ele>-4.714285714285714</ele><time>2026-03-28T15:13:48.999Z</time></trkpt><trkpt lat="44.86631200089591" lon="12.10549267850343"><ele>-4.571428571428571</ele><time>2026-03-28T15:13:51.999Z</time></trkpt><trkpt lat="44.866317152153066" lon="12.10537926389572"><ele>-4.428571428571429</ele><time>2026-03-28T15:13:54.999Z</time></trkpt><trkpt lat="44.86633200190489" lon="12.105254430898631"><ele>-4.285714285714286</ele><time>2026-03-28T15:13:57.999Z</time></trkpt><trkpt lat="44.86633812104952" lon="12.105161964608264"><ele>-4.142857142857142</ele><time>2026-03-28T15:13:59.999Z</time></trkpt><trkpt lat="44.8663488813176" lon="12.105059563489297"><ele>-4.0</ele><time>2026-03-28T15:14:01.999Z</time></trkpt><trkpt lat="44.86635989086534" lon="12.10494425700015"><ele>-4.0</ele><time>2026-03-28T15:14:03.999Z</time></trkpt><trkpt lat="44.866369997356806" lon="12.10484476098063"><ele>-3.9999999999999996</ele><time>2026-03-28T15:14:05.999Z</time></trkpt><trkpt lat="44.866384421493215" lon="12.10472304886364"><ele>-4.0</ele><time>2026-03-28T15:14:09Z</time></trkpt><trkpt lat="44.866393020708585" lon="12.104604537739135"><ele>-4.0</ele><time>2026-03-28T15:14:12Z</time></trkpt><trkpt lat="44.86639087629142" lon="12.104514275555188"><ele>-3.9999999999999996</ele><time>2026-03-28T15:14:15Z</time></trkpt><trkpt lat="44.86639947136672" lon="12.104425786469724"><ele>-4.0</ele><time>2026-03-28T15:14:17Z</time></trkpt><trkpt lat="44.86640479424859" lon="12.104323222837614"><ele>-4.0</ele><time>2026-03-28T15:14:21Z</time></trkpt><trkpt lat="44.86640047576893" lon="12.104195840252387"><ele>-4.166666666666666</ele><time>2026-03-28T15:14:25Z</time></trkpt><trkpt lat="44.86640683087452" lon="12.104064739228745"><ele>-4.333333333333333</ele><time>2026-03-28T15:14:28Z</time></trkpt><trkpt lat="44.86641540907533" lon="12.10396842829575"><ele>-4.5</ele><time>2026-03-28T15:14:30Z</time></trkpt><trkpt lat="44.86642440855216" lon="12.1038730429947"><ele>-4.666666666666667</ele><time>2026-03-28T15:14:32Z</time></trkpt><trkpt lat="44.86643818405536" lon="12.10376835865301"><ele>-4.833333333333334</ele><time>2026-03-28T15:14:34Z</time></trkpt><trkpt lat="44.86644764162697" lon="12.103653861257529"><ele>-5.0</ele><time>2026-03-28T15:14:36Z</time></trkpt><trkpt lat="44.86645536889965" lon="12.10353863508614"><ele>-5.0</ele><time>2026-03-28T15:14:38Z</time></trkpt><trkpt lat="44.8664664806451" lon="12.103425279811661"><ele>-5.0</ele><time>2026-03-28T15:14:40Z</time></trkpt><trkpt lat="44.86647972481544" lon="12.103309905461325"><ele>-5.0</ele><time>2026-03-28T15:14:42Z</time></trkpt><trkpt lat="44.86649332805486" lon="12.103194487011889"><ele>-5.0</ele><time>2026-03-28T15:14:44Z</time></trkpt><trkpt lat="44.866498874198115" lon="12.103074879399202"><ele>-5.0</ele><time>2026-03-28T15:14:46Z</time></trkpt><trkpt lat="44.866506969993786" lon="12.102956094670441"><ele>-5.0</ele><time>2026-03-28T15:14:48Z</time></trkpt><trkpt lat="44.86652196567803" lon="12.102840905526971"><ele>-5.142857142857142</ele><time>2026-03-28T15:14:50Z</time></trkpt><trkpt lat="44.866534892011494" lon="12.102719210702762"><ele>-5.285714285714286</ele><time>2026-03-28T15:14:52Z</time></trkpt><trkpt lat="44.86654785752633" lon="12.102601617730029"><ele>-5.428571428571429</ele><time>2026-03-28T15:14:54Z</time></trkpt><trkpt lat="44.86655677802203" lon="12.102499097596226"><ele>-5.571428571428571</ele><time>2026-03-28T15:14:56Z</time></trkpt><trkpt lat="44.86656128468899" lon="12.102403899831613"><ele>-5.714285714285714</ele><time>2026-03-28T15:14:58Z</time></trkpt><trkpt lat="44.86656449688723" lon="12.102310465494421"><ele>-5.857142857142857</ele><time>2026-03-28T15:15:00Z</time></trkpt><trkpt lat="44.86657748579535" lon="12.102213321412917"><ele>-6.0</ele><time>2026-03-28T15:15:02Z</time></trkpt><trkpt lat="44.866593140977336" lon="12.102102033212857"><ele>-6.0</ele><time>2026-03-28T15:15:04Z</time></trkpt><trkpt lat="44.86660457560011" lon="12.101980212441262"><ele>-6.0</ele><time>2026-03-28T15:15:06Z</time></trkpt><trkpt lat="44.86661759209919" lon="12.101866210645666"><ele>-6.0</ele><time>2026-03-28T15:15:07.999Z</time></trkpt><trkpt lat="44.866629204096974" lon="12.101746438068503"><ele>-6.0</ele><time>2026-03-28T15:15:09.999Z</time></trkpt><trkpt lat="44.86664157901107" lon="12.101618168762194"><ele>-6.0</ele><time>2026-03-28T15:15:11.999Z</time></trkpt><trkpt lat="44.866651250749214" lon="12.101498486840674"><ele>-6.0</ele><time>2026-03-28T15:15:13.999Z</time></trkpt><trkpt lat="44.866659952997" lon="12.101372689066482"><ele>-6.0</ele><time>2026-03-28T15:15:15.999Z</time></trkpt><trkpt lat="44.86667444380038" lon="12.101256054674735"><ele>-6.0</ele><time>2026-03-28T15:15:17.999Z</time></trkpt><trkpt lat="44.866691012069346" lon="12.101145936429786"><ele>-6.0</ele><time>2026-03-28T15:15:19.999Z</time></trkpt><trkpt lat="44.86670181561412" lon="12.101050853212248"><ele>-6.0</ele><time>2026-03-28T15:15:21.999Z</time></trkpt><trkpt lat="44.86671418125364" lon="12.100958708172474"><ele>-6.0</ele><time>2026-03-28T15:15:23.999Z</time></trkpt><trkpt lat="44.86672655875566" lon="12.10082608096559"><ele>-6.0</ele><time>2026-03-28T15:15:26.999Z</time></trkpt><trkpt lat="44.866744009508196" lon="12.100698065093749"><ele>-6.0</ele><time>2026-03-28T15:15:29.999Z</time></trkpt><trkpt lat="44.86675522726082" lon="12.100570352722432"><ele>-6.0</ele><time>2026-03-28T15:15:32.999Z</time></trkpt><trkpt lat="44.86676191936296" lon="12.10048139408904"><ele>-6.0</ele><time>2026-03-28T15:15:34.999Z</time></trkpt><trkpt lat="44.866775231168624" lon="12.100349574422417"><ele>-6.0</ele><time>2026-03-28T15:15:37.999Z</time></trkpt><trkpt lat="44.86678314351572" lon="12.100257227435153"><ele>-6.0</ele><time>2026-03-28T15:15:39.999Z</time></trkpt><trkpt lat="44.86679533120428" lon="12.100129292996426"><ele>-6.0</ele><time>2026-03-28T15:15:42.999Z</time></trkpt><trkpt lat="44.86680595489394" lon="12.100041255539175"><ele>-5.999999999999999</ele><time>2026-03-28T15:15:44.999Z</time></trkpt><trkpt lat="44.86682051393552" lon="12.09995080762939"><ele>-6.0</ele><time>2026-03-28T15:15:46.999Z</time></trkpt><trkpt lat="44.86682698325649" lon="12.099860617121495"><ele>-6.0</ele><time>2026-03-28T15:15:48.999Z</time></trkpt><trkpt lat="44.86683518887786" lon="12.099756999622144"><ele>-6.0</ele><time>2026-03-28T15:15:50.999Z</time></trkpt><trkpt lat="44.866847299699295" lon="12.099654184860926"><ele>-6.0</ele><time>2026-03-28T15:15:52.999Z</time></trkpt><trkpt lat="44.866858913266995" lon="12.09955090892155"><ele>-5.999999999999999</ele><time>2026-03-28T15:15:54.999Z</time></trkpt><trkpt lat="44.86686940051241" lon="12.099449730891203"><ele>-6.0</ele><time>2026-03-28T15:15:56.999Z</time></trkpt><trkpt lat="44.86687933880837" lon="12.099349761323069"><ele>-5.999999999999999</ele><time>2026-03-28T15:15:58.999Z</time></trkpt><trkpt lat="44.866888071768436" lon="12.09926093100551"><ele>-6.0</ele><time>2026-03-28T15:16:00.999Z</time></trkpt><trkpt lat="44.86689714887149" lon="12.0991670577259"><ele>-6.0</ele><time>2026-03-28T15:16:02.999Z</time></trkpt><trkpt lat="44.866915767727804" lon="12.099073661915073"><ele>-6.0</ele><time>2026-03-28T15:16:04.999Z</time></trkpt><trkpt lat="44.86692159071926" lon="12.098971782616804"><ele>-6.0</ele><time>2026-03-28T15:16:06.999Z</time></trkpt><trkpt lat="44.86693016623526" lon="12.098865598885698"><ele>-5.999999999999999</ele><time>2026-03-28T15:16:08.999Z</time></trkpt><trkpt lat="44.86694382255327" lon="12.098755332639543"><ele>-6.0</ele><time>2026-03-28T15:16:10.999Z</time></trkpt><trkpt lat="44.86695827425042" lon="12.098635960799378"><ele>-6.0</ele><time>2026-03-28T15:16:12.999Z</time></trkpt><trkpt lat="44.866968737497885" lon="12.098515097247018"><ele>-6.0</ele><time>2026-03-28T15:16:15Z</time></trkpt><trkpt lat="44.866980100534676" lon="12.09838669496767"><ele>-6.0</ele><time>2026-03-28T15:16:17Z</time></trkpt><trkpt lat="44.86699101563717" lon="12.098259445712337"><ele>-6.0</ele><time>2026-03-28T15:16:19Z</time></trkpt><trkpt lat="44.86700640678804" lon="12.098137018034436"><ele>-6.0</ele><time>2026-03-28T15:16:21Z</time></trkpt><trkpt lat="44.86701951963054" lon="12.098008953780244"><ele>-6.0</ele><time>2026-03-28T15:16:23Z</time></trkpt><trkpt lat="44.86703353706366" lon="12.09787913943221"><ele>-6.0</ele><time>2026-03-28T15:16:25Z</time></trkpt><trkpt lat="44.86704386610177" lon="12.09774800243358"><ele>-6.0</ele><time>2026-03-28T15:16:27Z</time></trkpt><trkpt lat="44.867055825711155" lon="12.097623462399786"><ele>-6.0</ele><time>2026-03-28T15:16:29Z</time></trkpt><trkpt lat="44.867064387740534" lon="12.097497487272848"><ele>-6.0</ele><time>2026-03-28T15:16:31Z</time></trkpt><trkpt lat="44.86707501809977" lon="12.097376636708292"><ele>-6.0</ele><time>2026-03-28T15:16:33Z</time></trkpt><trkpt lat="44.867081776050675" lon="12.097261901183964"><ele>-6.0</ele><time>2026-03-28T15:16:35Z</time></trkpt><trkpt lat="44.86710099954356" lon="12.097140500473719"><ele>-6.0</ele><time>2026-03-28T15:16:37Z</time></trkpt><trkpt lat="44.86710969868987" lon="12.097018025277269"><ele>-6.0</ele><time>2026-03-28T15:16:39Z</time></trkpt><trkpt lat="44.86712493052844" lon="12.09690222467982"><ele>-6.0</ele><time>2026-03-28T15:16:41Z</time></trkpt><trkpt lat="44.8671346564271" lon="12.096778136484417"><ele>-6.0</ele><time>2026-03-28T15:16:43Z</time></trkpt><trkpt lat="44.86715050117462" lon="12.09665798473462"><ele>-6.0</ele><time>2026-03-28T15:16:45Z</time></trkpt><trkpt lat="44.867155922409296" lon="12.096522464092194"><ele>-6.0</ele><time>2026-03-28T15:16:47Z</time></trkpt><trkpt lat="44.867169303736404" lon="12.096386868790015"><ele>-6.0</ele><time>2026-03-28T15:16:49Z</time></trkpt><trkpt lat="44.8671855112718" lon="12.096231867175938"><ele>-6.0</ele><time>2026-03-28T15:16:51Z</time></trkpt><trkpt lat="44.86723860912387" lon="12.096075844133921"><ele>-6.0</ele><time>2026-03-28T15:16:53Z</time></trkpt><trkpt lat="44.8672557077943" lon="12.095908183184324"><ele>-6.0</ele><time>2026-03-28T15:16:55Z</time></trkpt><trkpt lat="44.86727522351578" lon="12.095732991997558"><ele>-5.666666666666667</ele><time>2026-03-28T15:16:57Z</time></trkpt><trkpt lat="44.86729496465982" lon="12.095553274309932"><ele>-5.333333333333333</ele><time>2026-03-28T15:16:59Z</time></trkpt><trkpt lat="44.867304896442995" lon="12.095459152987782"><ele>-5.0</ele><time>2026-03-28T15:17:00Z</time></trkpt><trkpt lat="44.86731468880667" lon="12.09536635310973"><ele>-4.666666666666666</ele><time>2026-03-28T15:17:01Z</time></trkpt><trkpt lat="44.86732433466326" lon="12.095274941426213"><ele>-4.333333333333333</ele><time>2026-03-28T15:17:02Z</time></trkpt><trkpt lat="44.86733473447503" lon="12.095172854582996"><ele>-4.0</ele><time>2026-03-28T15:17:03Z</time></trkpt><trkpt lat="44.867343942315394" lon="12.095077155827433"><ele>-4.0</ele><time>2026-03-28T15:17:04Z</time></trkpt><trkpt lat="44.86735288275505" lon="12.094984235927035"><ele>-3.9999999999999996</ele><time>2026-03-28T15:17:05Z</time></trkpt><trkpt lat="44.86736232131214" lon="12.094886139364322"><ele>-4.0</ele><time>2026-03-28T15:17:06Z</time></trkpt><trkpt lat="44.86737155780166" lon="12.094790142685355"><ele>-4.0</ele><time>2026-03-28T15:17:07Z</time></trkpt><trkpt lat="44.86738108506318" lon="12.094691124064973"><ele>-3.9999999999999996</ele><time>2026-03-28T15:17:08Z</time></trkpt><trkpt lat="44.867390331107096" lon="12.094595028044616"><ele>-4.0</ele><time>2026-03-28T15:17:08.999Z</time></trkpt><trkpt lat="44.86739967942883" lon="12.094497869098891"><ele>-4.0</ele><time>2026-03-28T15:17:09.999Z</time></trkpt><trkpt lat="44.86740969486164" lon="12.094393776455508"><ele>-4.285714285714286</ele><time>2026-03-28T15:17:10.999Z</time></trkpt><trkpt lat="44.86741906663272" lon="12.094296374153785"><ele>-4.571428571428571</ele><time>2026-03-28T15:17:11.999Z</time></trkpt><trkpt lat="44.86742863986762" lon="12.094196877212156"><ele>-4.857142857142857</ele><time>2026-03-28T15:17:12.999Z</time></trkpt><trkpt lat="44.86743794440814" lon="12.094100173178765"><ele>-5.142857142857142</ele><time>2026-03-28T15:17:13.999Z</time></trkpt><trkpt lat="44.86744728929143" lon="12.094003050088821"><ele>-5.428571428571429</ele><time>2026-03-28T15:17:14.999Z</time></trkpt><trkpt lat="44.867457119696844" lon="12.093900880329814"><ele>-5.7142857142857135</ele><time>2026-03-28T15:17:15.999Z</time></trkpt><trkpt lat="44.86746659627062" lon="12.093802388768072"><ele>-6.0</ele><time>2026-03-28T15:17:16.999Z</time></trkpt><trkpt lat="44.86747652678019" lon="12.093699178881227"><ele>-6.142857142857142</ele><time>2026-03-28T15:17:17.999Z</time></trkpt><trkpt lat="44.86748640036071" lon="12.093596561038382"><ele>-6.285714285714286</ele><time>2026-03-28T15:17:18.999Z</time></trkpt><trkpt lat="44.867496532067946" lon="12.093494545766797"><ele>-6.428571428571429</ele><time>2026-03-28T15:17:19.999Z</time></trkpt><trkpt lat="44.867506317886026" lon="12.093396140970006"><ele>-6.571428571428571</ele><time>2026-03-28T15:17:20.999Z</time></trkpt><trkpt lat="44.867516243435375" lon="12.093296330861055"><ele>-6.714285714285714</ele><time>2026-03-28T15:17:21.999Z</time></trkpt><trkpt lat="44.86752623395111" lon="12.093195867836036"><ele>-6.857142857142857</ele><time>2026-03-28T15:17:22.999Z</time></trkpt><trkpt lat="44.86753655709081" lon="12.093092060097183"><ele>-7.0</ele><time>2026-03-28T15:17:23.999Z</time></trkpt><trkpt lat="44.86754719410063" lon="12.09298509560665"><ele>-6.6</ele><time>2026-03-28T15:17:24.999Z</time></trkpt><trkpt lat="44.86754237312537" lon="12.09289351477127"><ele>-6.199999999999999</ele><time>2026-03-28T15:17:25.999Z</time></trkpt><trkpt lat="44.86755249135461" lon="12.092800341719666"><ele>-5.8</ele><time>2026-03-28T15:17:26.999Z</time></trkpt><trkpt lat="44.86756740853629" lon="12.092633832855917"><ele>-5.4</ele><time>2026-03-28T15:17:28.999Z</time></trkpt><trkpt lat="44.86759882252631" lon="12.092477927469425"><ele>-5.0</ele><time>2026-03-28T15:17:30.999Z</time></trkpt><trkpt lat="44.86761747308043" lon="12.092302192874728"><ele>-5.0</ele><time>2026-03-28T15:17:32.999Z</time></trkpt><trkpt lat="44.86763749958187" lon="12.092126335878692"><ele>-5.0</ele><time>2026-03-28T15:17:34.999Z</time></trkpt><trkpt lat="44.8676575889669" lon="12.091951662416697"><ele>-5.0</ele><time>2026-03-28T15:17:36.999Z</time></trkpt><trkpt lat="44.86766953446493" lon="12.091847798469386"><ele>-5.0</ele><time>2026-03-28T15:17:37.999Z</time></trkpt><trkpt lat="44.867687991127596" lon="12.091682050785591"><ele>-5.0</ele><time>2026-03-28T15:17:39.999Z</time></trkpt><trkpt lat="44.86769759674156" lon="12.091593541870703"><ele>-4.8</ele><time>2026-03-28T15:17:40.999Z</time></trkpt><trkpt lat="44.86771363475809" lon="12.091440714384433"><ele>-4.6</ele><time>2026-03-28T15:17:42.999Z</time></trkpt><trkpt lat="44.86772723747084" lon="12.091304582095654"><ele>-4.4</ele><time>2026-03-28T15:17:44.999Z</time></trkpt><trkpt lat="44.86774032659242" lon="12.091173589958744"><ele>-4.2</ele><time>2026-03-28T15:17:46.999Z</time></trkpt><trkpt lat="44.86775290842764" lon="12.091047674397627"><ele>-4.0</ele><time>2026-03-28T15:17:48.999Z</time></trkpt><trkpt lat="44.86775365716735" lon="12.090936402112682"><ele>-3.9999999999999996</ele><time>2026-03-28T15:17:50.999Z</time></trkpt><trkpt lat="44.86776332449838" lon="12.090830427110259"><ele>-4.0</ele><time>2026-03-28T15:17:52.999Z</time></trkpt><trkpt lat="44.8677746312571" lon="12.090710098305827"><ele>-4.0</ele><time>2026-03-28T15:17:54.999Z</time></trkpt><trkpt lat="44.86778310879967" lon="12.090581389832685"><ele>-4.0</ele><time>2026-03-28T15:17:56.999Z</time></trkpt><trkpt lat="44.86781095064964" lon="12.09046680462861"><ele>-3.9999999999999996</ele><time>2026-03-28T15:17:58.999Z</time></trkpt><trkpt lat="44.867822888508385" lon="12.090347334013968"><ele>-4.0</ele><time>2026-03-28T15:18:00.999Z</time></trkpt><trkpt lat="44.86782258695141" lon="12.090224881415388"><ele>-4.2</ele><time>2026-03-28T15:18:02.999Z</time></trkpt><trkpt lat="44.867847906808635" lon="12.090096957656897"><ele>-4.4</ele><time>2026-03-28T15:18:04.999Z</time></trkpt><trkpt lat="44.86784876543103" lon="12.089969048856346"><ele>-4.6</ele><time>2026-03-28T15:18:06.999Z</time></trkpt><trkpt lat="44.86786269488461" lon="12.08983919036408"><ele>-4.8</ele><time>2026-03-28T15:18:08.999Z</time></trkpt><trkpt lat="44.867872903717874" lon="12.089714255202507"><ele>-5.0</ele><time>2026-03-28T15:18:10.999Z</time></trkpt><trkpt lat="44.86788555672833" lon="12.089582032308567"><ele>-5.0</ele><time>2026-03-28T15:18:12.999Z</time></trkpt><trkpt lat="44.867899129162446" lon="12.089449925493895"><ele>-5.0</ele><time>2026-03-28T15:18:14.999Z</time></trkpt><trkpt lat="44.86791922765549" lon="12.089321971086916"><ele>-5.0</ele><time>2026-03-28T15:18:16.999Z</time></trkpt><trkpt lat="44.86792847619957" lon="12.089197653506544"><ele>-5.0</ele><time>2026-03-28T15:18:18.999Z</time></trkpt><trkpt lat="44.867942745581544" lon="12.089068671844469"><ele>-5.0</ele><time>2026-03-28T15:18:21Z</time></trkpt><trkpt lat="44.86795578906148" lon="12.088952072982922"><ele>-5.0</ele><time>2026-03-28T15:18:23Z</time></trkpt><trkpt lat="44.86797935771343" lon="12.088817233342791"><ele>-5.0</ele><time>2026-03-28T15:18:25Z</time></trkpt><trkpt lat="44.8679911469848" lon="12.088702509221307"><ele>-5.0</ele><time>2026-03-28T15:18:27Z</time></trkpt><trkpt lat="44.868004041130185" lon="12.088577033334685"><ele>-5.0</ele><time>2026-03-28T15:18:29Z</time></trkpt><trkpt lat="44.86800132809248" lon="12.088441146643838"><ele>-5.0</ele><time>2026-03-28T15:18:31Z</time></trkpt><trkpt lat="44.868030213764335" lon="12.08832234103369"><ele>-4.6</ele><time>2026-03-28T15:18:33Z</time></trkpt><trkpt lat="44.86804337655582" lon="12.088194251128932"><ele>-4.2</ele><time>2026-03-28T15:18:35Z</time></trkpt><trkpt lat="44.86805689440507" lon="12.088062705912078"><ele>-3.8</ele><time>2026-03-28T15:18:37Z</time></trkpt><trkpt lat="44.86807028899258" lon="12.087932383558716"><ele>-3.4</ele><time>2026-03-28T15:18:39Z</time></trkpt><trkpt lat="44.86806722469654" lon="12.087798928880293"><ele>-3.0</ele><time>2026-03-28T15:18:41Z</time></trkpt><trkpt lat="44.86808375921491" lon="12.087670988119969"><ele>-3.0</ele><time>2026-03-28T15:18:43Z</time></trkpt><trkpt lat="44.868095154276276" lon="12.087537317514986"><ele>-3.0</ele><time>2026-03-28T15:18:45Z</time></trkpt><trkpt lat="44.86811057166468" lon="12.08741435961038"><ele>-3.0</ele><time>2026-03-28T15:18:47Z</time></trkpt><trkpt lat="44.86812639715124" lon="12.087288351489201"><ele>-3.0</ele><time>2026-03-28T15:18:49Z</time></trkpt><trkpt lat="44.86814275466024" lon="12.087162163144505"><ele>-3.0</ele><time>2026-03-28T15:18:51Z</time></trkpt><trkpt lat="44.86815116570587" lon="12.087032119541425"><ele>-3.0</ele><time>2026-03-28T15:18:53Z</time></trkpt><trkpt lat="44.868164380137706" lon="12.08690808890764"><ele>-3.0</ele><time>2026-03-28T15:18:55Z</time></trkpt><trkpt lat="44.86817806655433" lon="12.086782425437839"><ele>-3.0</ele><time>2026-03-28T15:18:57Z</time></trkpt><trkpt lat="44.86818902288964" lon="12.086657703880148"><ele>-3.0</ele><time>2026-03-28T15:18:59Z</time></trkpt><trkpt lat="44.86820537323904" lon="12.086546048553231"><ele>-3.0</ele><time>2026-03-28T15:19:01Z</time></trkpt><trkpt lat="44.868216867531444" lon="12.08642903069953"><ele>-3.0</ele><time>2026-03-28T15:19:03Z</time></trkpt><trkpt lat="44.86824650990622" lon="12.086311736140349"><ele>-3.1666666666666665</ele><time>2026-03-28T15:19:05Z</time></trkpt><trkpt lat="44.86826042160508" lon="12.086192341085084"><ele>-3.333333333333333</ele><time>2026-03-28T15:19:07Z</time></trkpt><trkpt lat="44.86827266537777" lon="12.086075843129958"><ele>-3.5</ele><time>2026-03-28T15:19:09Z</time></trkpt><trkpt lat="44.86828565770864" lon="12.085952222779808"><ele>-3.6666666666666665</ele><time>2026-03-28T15:19:11Z</time></trkpt><trkpt lat="44.86829735372073" lon="12.08584093672853"><ele>-3.833333333333333</ele><time>2026-03-28T15:19:13Z</time></trkpt><trkpt lat="44.86831205667107" lon="12.085722517332922"><ele>-4.0</ele><time>2026-03-28T15:19:15Z</time></trkpt><trkpt lat="44.868328396028325" lon="12.085609702713173"><ele>-3.4999999999999996</ele><time>2026-03-28T15:19:17Z</time></trkpt><trkpt lat="44.868334827125125" lon="12.085491963604053"><ele>-3.0</ele><time>2026-03-28T15:19:18.999Z</time></trkpt><trkpt lat="44.86834945348547" lon="12.085382614252723"><ele>-2.5</ele><time>2026-03-28T15:19:20.999Z</time></trkpt><trkpt lat="44.868365853442825" lon="12.085277855569574"><ele>-2.0</ele><time>2026-03-28T15:19:22.999Z</time></trkpt><trkpt lat="44.86838074134008" lon="12.085153448589917"><ele>-1.5</ele><time>2026-03-28T15:19:24.999Z</time></trkpt><trkpt lat="44.86839386360215" lon="12.085028737574282"><ele>-1.0</ele><time>2026-03-28T15:19:26.999Z</time></trkpt><trkpt lat="44.86841359686672" lon="12.084906401885604"><ele>-0.9999999999999999</ele><time>2026-03-28T15:19:28.999Z</time></trkpt><trkpt lat="44.86843126887346" lon="12.084770661013195"><ele>-1.0</ele><time>2026-03-28T15:19:30.999Z</time></trkpt><trkpt lat="44.868448075225814" lon="12.08463295870534"><ele>-1.0</ele><time>2026-03-28T15:19:32.999Z</time></trkpt><trkpt lat="44.868470575840824" lon="12.084503078394773"><ele>-1.0</ele><time>2026-03-28T15:19:34.999Z</time></trkpt><trkpt lat="44.86849554102839" lon="12.084402750271886"><ele>-0.9999999999999999</ele><time>2026-03-28T15:19:36.999Z</time></trkpt><trkpt lat="44.86851169604686" lon="12.084294426526016"><ele>-1.0</ele><time>2026-03-28T15:19:39.999Z</time></trkpt><trkpt lat="44.8683933575404" lon="12.084163102585373"><ele>-0.9999999999999999</ele><time>2026-03-28T15:19:43.999Z</time></trkpt><trkpt lat="44.868316690806196" lon="12.084127602595341"><ele>-1.0</ele><time>2026-03-28T15:19:45.999Z</time></trkpt><trkpt lat="44.86825232872776" lon="12.084080283792078"><ele>-1.0</ele><time>2026-03-28T15:19:47.999Z</time></trkpt><trkpt lat="44.86818116591983" lon="12.084041112844158"><ele>-1.0</ele><time>2026-03-28T15:19:49.999Z</time></trkpt><trkpt lat="44.868107234733785" lon="12.084004167729828"><ele>-0.9999999999999999</ele><time>2026-03-28T15:19:51.999Z</time></trkpt><trkpt lat="44.868030265451935" lon="12.083964735541139"><ele>-1.0</ele><time>2026-03-28T15:19:53.999Z</time></trkpt><trkpt lat="44.867951373207454" lon="12.083926613780255"><ele>-1.3333333333333333</ele><time>2026-03-28T15:19:55.999Z</time></trkpt><trkpt lat="44.86787430977654" lon="12.083880382827354"><ele>-1.6666666666666665</ele><time>2026-03-28T15:19:57.999Z</time></trkpt><trkpt lat="44.86779861908951" lon="12.083839092796206"><ele>-2.0</ele><time>2026-03-28T15:19:59.999Z</time></trkpt><trkpt lat="44.86772327074157" lon="12.083804229337488"><ele>-2.3333333333333335</ele><time>2026-03-28T15:20:01.999Z</time></trkpt><trkpt lat="44.867649007022685" lon="12.083766835235581"><ele>-2.6666666666666665</ele><time>2026-03-28T15:20:03.999Z</time></trkpt><trkpt lat="44.86757654336847" lon="12.083726849787851"><ele>-3.0</ele><time>2026-03-28T15:20:05.999Z</time></trkpt><trkpt lat="44.867505005663084" lon="12.08368741273064"><ele>-3.0</ele><time>2026-03-28T15:20:07.999Z</time></trkpt><trkpt lat="44.867436941948505" lon="12.083647425504571"><ele>-3.0</ele><time>2026-03-28T15:20:09.999Z</time></trkpt><trkpt lat="44.867371265765" lon="12.083609008421888"><ele>-3.0</ele><time>2026-03-28T15:20:11.999Z</time></trkpt><trkpt lat="44.86730700192925" lon="12.083570354563717"><ele>-3.0</ele><time>2026-03-28T15:20:13.999Z</time></trkpt><trkpt lat="44.86723167194733" lon="12.083536806307015"><ele>-3.0</ele><time>2026-03-28T15:20:15.999Z</time></trkpt><trkpt lat="44.8671494924414" lon="12.08350944864353"><ele>-3.0</ele><time>2026-03-28T15:20:17.999Z</time></trkpt><trkpt lat="44.86706650619242" lon="12.083481765122691"><ele>-3.0</ele><time>2026-03-28T15:20:19.999Z</time></trkpt><trkpt lat="44.86698553058044" lon="12.083450117726843"><ele>-3.0</ele><time>2026-03-28T15:20:21.999Z</time></trkpt><trkpt lat="44.86690081895795" lon="12.083425181390437"><ele>-3.0</ele><time>2026-03-28T15:20:23.999Z</time></trkpt><trkpt lat="44.8668119011412" lon="12.083408121586839"><ele>-3.0</ele><time>2026-03-28T15:20:26Z</time></trkpt><trkpt lat="44.86672232898776" lon="12.083382796892405"><ele>-3.0</ele><time>2026-03-28T15:20:28Z</time></trkpt><trkpt lat="44.866632534726236" lon="12.083368788798404"><ele>-3.0</ele><time>2026-03-28T15:20:30Z</time></trkpt><trkpt lat="44.86653702997553" lon="12.083352873962948"><ele>-3.1666666666666665</ele><time>2026-03-28T15:20:32Z</time></trkpt><trkpt lat="44.86644423329186" lon="12.083331256922264"><ele>-3.333333333333333</ele><time>2026-03-28T15:20:34Z</time></trkpt><trkpt lat="44.866354019034965" lon="12.083309975617404"><ele>-3.5</ele><time>2026-03-28T15:20:36Z</time></trkpt><trkpt lat="44.866261492614896" lon="12.083293768926309"><ele>-3.6666666666666665</ele><time>2026-03-28T15:20:38Z</time></trkpt><trkpt lat="44.86617594166476" lon="12.083278217321055"><ele>-3.833333333333333</ele><time>2026-03-28T15:20:40Z</time></trkpt><trkpt lat="44.86609210693844" lon="12.083265553321759"><ele>-4.0</ele><time>2026-03-28T15:20:42Z</time></trkpt><trkpt lat="44.86600913643323" lon="12.083250102614723"><ele>-3.6</ele><time>2026-03-28T15:20:44Z</time></trkpt><trkpt lat="44.86591564001219" lon="12.083231674078803"><ele>-3.2</ele><time>2026-03-28T15:20:46Z</time></trkpt><trkpt lat="44.86580919667538" lon="12.083211101336312"><ele>-2.8000000000000003</ele><time>2026-03-28T15:20:48Z</time></trkpt><trkpt lat="44.86569388709134" lon="12.083189721885333"><ele>-2.4000000000000004</ele><time>2026-03-28T15:20:50Z</time></trkpt><trkpt lat="44.86557075779129" lon="12.083166967823878"><ele>-2.0</ele><time>2026-03-28T15:20:52Z</time></trkpt><trkpt lat="44.86550483465625" lon="12.083156367691142"><ele>-2.0</ele><time>2026-03-28T15:20:53Z</time></trkpt><trkpt lat="44.865441614249754" lon="12.083143617237731"><ele>-2.0</ele><time>2026-03-28T15:20:54Z</time></trkpt><trkpt lat="44.865321596194036" lon="12.083121454343813"><ele>-2.0</ele><time>2026-03-28T15:20:56Z</time></trkpt><trkpt lat="44.865206140425755" lon="12.083103572232753"><ele>-2.0</ele><time>2026-03-28T15:20:58Z</time></trkpt><trkpt lat="44.86510429389627" lon="12.083084279608718"><ele>-2.0</ele><time>2026-03-28T15:21:00Z</time></trkpt><trkpt lat="44.86501112895946" lon="12.083069048655107"><ele>-1.6666666666666665</ele><time>2026-03-28T15:21:02Z</time></trkpt><trkpt lat="44.86492937072427" lon="12.083055681277775"><ele>-1.3333333333333333</ele><time>2026-03-28T15:21:04Z</time></trkpt><trkpt lat="44.86485079686476" lon="12.08304178312853"><ele>-1.0</ele><time>2026-03-28T15:21:06Z</time></trkpt><trkpt lat="44.86477704957427" lon="12.083028306426913"><ele>-0.6666666666666666</ele><time>2026-03-28T15:21:08Z</time></trkpt><trkpt lat="44.86470451159834" lon="12.0830202894349"><ele>-0.3333333333333333</ele><time>2026-03-28T15:21:10Z</time></trkpt><trkpt lat="44.86463326944584" lon="12.083012709330792"><ele>0.0</ele><time>2026-03-28T15:21:12Z</time></trkpt><trkpt lat="44.86455030867768" lon="12.083001778975976"><ele>0.0</ele><time>2026-03-28T15:21:14Z</time></trkpt><trkpt lat="44.86445882360404" lon="12.083000079372434"><ele>0.0</ele><time>2026-03-28T15:21:16Z</time></trkpt><trkpt lat="44.86436745347018" lon="12.083004031760838"><ele>0.0</ele><time>2026-03-28T15:21:18Z</time></trkpt><trkpt lat="44.86426436581002" lon="12.083017124968535"><ele>0.0</ele><time>2026-03-28T15:21:20Z</time></trkpt><trkpt lat="44.864156917689854" lon="12.083036466275612"><ele>0.0</ele><time>2026-03-28T15:21:22Z</time></trkpt><trkpt lat="44.864056744922586" lon="12.083068466616483"><ele>-0.4</ele><time>2026-03-28T15:21:23.999Z</time></trkpt><trkpt lat="44.86396200614213" lon="12.083103582107732"><ele>-0.8</ele><time>2026-03-28T15:21:25.999Z</time></trkpt><trkpt lat="44.863869972560295" lon="12.083133196732481"><ele>-1.2000000000000002</ele><time>2026-03-28T15:21:27.999Z</time></trkpt><trkpt lat="44.86378616271945" lon="12.083168512229134"><ele>-1.6</ele><time>2026-03-28T15:21:29.999Z</time></trkpt><trkpt lat="44.8636995744699" lon="12.083210207863235"><ele>-2.0</ele><time>2026-03-28T15:21:31.999Z</time></trkpt><trkpt lat="44.86360733055501" lon="12.083259951184354"><ele>-1.8</ele><time>2026-03-28T15:21:33.999Z</time></trkpt><trkpt lat="44.86350879898801" lon="12.083316633306467"><ele>-1.6</ele><time>2026-03-28T15:21:35.999Z</time></trkpt><trkpt lat="44.86341441958902" lon="12.083372984963281"><ele>-1.4000000000000001</ele><time>2026-03-28T15:21:37.999Z</time></trkpt><trkpt lat="44.86332620204363" lon="12.083427092225554"><ele>-1.2000000000000002</ele><time>2026-03-28T15:21:39.999Z</time></trkpt><trkpt lat="44.863238293675785" lon="12.083471886446977"><ele>-1.0</ele><time>2026-03-28T15:21:41.999Z</time></trkpt><trkpt lat="44.86315233264082" lon="12.083520867345145"><ele>-0.9999999999999999</ele><time>2026-03-28T15:21:43.999Z</time></trkpt><trkpt lat="44.86307008003171" lon="12.083568121590192"><ele>-1.0</ele><time>2026-03-28T15:21:45.999Z</time></trkpt><trkpt lat="44.862988072578034" lon="12.083598392754803"><ele>-1.0</ele><time>2026-03-28T15:21:47.999Z</time></trkpt><trkpt lat="44.86291067338861" lon="12.083637319926567"><ele>-1.0</ele><time>2026-03-28T15:21:49.999Z</time></trkpt><trkpt lat="44.86283843209023" lon="12.083676827480017"><ele>-0.9999999999999999</ele><time>2026-03-28T15:21:51.999Z</time></trkpt><trkpt lat="44.86276378779961" lon="12.083711402466776"><ele>-1.0</ele><time>2026-03-28T15:21:53.999Z</time></trkpt><trkpt lat="44.86268805633392" lon="12.083752367905202"><ele>-0.8</ele><time>2026-03-28T15:21:55.999Z</time></trkpt><trkpt lat="44.86260941470088" lon="12.083791840450802"><ele>-0.6000000000000001</ele><time>2026-03-28T15:21:57.999Z</time></trkpt><trkpt lat="44.86251910246512" lon="12.083840991094533"><ele>-0.4</ele><time>2026-03-28T15:21:59.999Z</time></trkpt><trkpt lat="44.8624241241568" lon="12.083889170856635"><ele>-0.2</ele><time>2026-03-28T15:22:01.999Z</time></trkpt><trkpt lat="44.86232710539843" lon="12.083946405134325"><ele>0.0</ele><time>2026-03-28T15:22:03.999Z</time></trkpt><trkpt lat="44.86223389943332" lon="12.08400193011089"><ele>0.0</ele><time>2026-03-28T15:22:05.999Z</time></trkpt><trkpt lat="44.862142143728775" lon="12.084051606461788"><ele>0.0</ele><time>2026-03-28T15:22:07.999Z</time></trkpt><trkpt lat="44.86205208826826" lon="12.084095529263175"><ele>0.0</ele><time>2026-03-28T15:22:09.999Z</time></trkpt><trkpt lat="44.86196489263942" lon="12.084136029743654"><ele>0.0</ele><time>2026-03-28T15:22:11.999Z</time></trkpt><trkpt lat="44.8618817745293" lon="12.08417842375084"><ele>0.0</ele><time>2026-03-28T15:22:13.999Z</time></trkpt><trkpt lat="44.8617934839802" lon="12.084231543759682"><ele>0.0</ele><time>2026-03-28T15:22:15.999Z</time></trkpt><trkpt lat="44.86170680453901" lon="12.084283886855895"><ele>0.0</ele><time>2026-03-28T15:22:17.999Z</time></trkpt><trkpt lat="44.86162380736832" lon="12.084329104556945"><ele>0.0</ele><time>2026-03-28T15:22:19.999Z</time></trkpt><trkpt lat="44.86154570118732" lon="12.084376178421854"><ele>0.0</ele><time>2026-03-28T15:22:21.999Z</time></trkpt><trkpt lat="44.86146816079689" lon="12.084414804552623"><ele>0.0</ele><time>2026-03-28T15:22:23.999Z</time></trkpt><trkpt lat="44.861392363382855" lon="12.084447908256745"><ele>0.0</ele><time>2026-03-28T15:22:25.999Z</time></trkpt><trkpt lat="44.86131696198377" lon="12.084483384185104"><ele>0.0</ele><time>2026-03-28T15:22:27.999Z</time></trkpt><trkpt lat="44.861234485251465" lon="12.084533399801488"><ele>0.0</ele><time>2026-03-28T15:22:29.999Z</time></trkpt><trkpt lat="44.861160646000464" lon="12.084567878595344"><ele>0.0</ele><time>2026-03-28T15:22:32Z</time></trkpt><trkpt lat="44.86109267082882" lon="12.08460443062706"><ele>0.0</ele><time>2026-03-28T15:22:34Z</time></trkpt><trkpt lat="44.86101907149429" lon="12.084644467013144"><ele>0.0</ele><time>2026-03-28T15:22:36Z</time></trkpt><trkpt lat="44.860946656812736" lon="12.08468537232763"><ele>0.0</ele><time>2026-03-28T15:22:38Z</time></trkpt><trkpt lat="44.86087494723912" lon="12.084721137776807"><ele>-0.3333333333333333</ele><time>2026-03-28T15:22:40Z</time></trkpt><trkpt lat="44.86080374180085" lon="12.084757502825724"><ele>-0.6666666666666666</ele><time>2026-03-28T15:22:42Z</time></trkpt><trkpt lat="44.860723183271965" lon="12.084796133627908"><ele>-1.0</ele><time>2026-03-28T15:22:44Z</time></trkpt><trkpt lat="44.86064217739765" lon="12.084833393379819"><ele>-1.3333333333333333</ele><time>2026-03-28T15:22:46Z</time></trkpt><trkpt lat="44.86055876445173" lon="12.084865577603313"><ele>-1.6666666666666665</ele><time>2026-03-28T15:22:48Z</time></trkpt><trkpt lat="44.86047274136731" lon="12.084885303413804"><ele>-2.0</ele><time>2026-03-28T15:22:50Z</time></trkpt><trkpt lat="44.860380718827095" lon="12.084912338489907"><ele>-1.8333333333333333</ele><time>2026-03-28T15:22:52Z</time></trkpt><trkpt lat="44.86028619458091" lon="12.08494608395342"><ele>-1.6666666666666665</ele><time>2026-03-28T15:22:54Z</time></trkpt><trkpt lat="44.86019624816806" lon="12.084976306537124"><ele>-1.5</ele><time>2026-03-28T15:22:56Z</time></trkpt><trkpt lat="44.860109217175854" lon="12.085004373723395"><ele>-1.3333333333333333</ele><time>2026-03-28T15:22:58Z</time></trkpt><trkpt lat="44.86002783544951" lon="12.085032150095737"><ele>-1.1666666666666665</ele><time>2026-03-28T15:23:00Z</time></trkpt><trkpt lat="44.859947862295236" lon="12.085055464116175"><ele>-1.0</ele><time>2026-03-28T15:23:02Z</time></trkpt><trkpt lat="44.85987380695663" lon="12.085071911346468"><ele>-0.9999999999999999</ele><time>2026-03-28T15:23:04Z</time></trkpt><trkpt lat="44.85980423792301" lon="12.085099399017922"><ele>-1.0</ele><time>2026-03-28T15:23:06Z</time></trkpt><trkpt lat="44.85973037123231" lon="12.085114345726355"><ele>-1.0</ele><time>2026-03-28T15:23:08Z</time></trkpt><trkpt lat="44.859653955962486" lon="12.085128555691812"><ele>-1.0</ele><time>2026-03-28T15:23:10Z</time></trkpt><trkpt lat="44.85956287618046" lon="12.085151404302099"><ele>-0.9999999999999999</ele><time>2026-03-28T15:23:12Z</time></trkpt><trkpt lat="44.859460142363965" lon="12.085182978134378"><ele>-1.0</ele><time>2026-03-28T15:23:14Z</time></trkpt><trkpt lat="44.85935417071786" lon="12.085225395912204"><ele>-1.2000000000000002</ele><time>2026-03-28T15:23:16Z</time></trkpt><trkpt lat="44.85925167371552" lon="12.085261435611518"><ele>-1.4000000000000001</ele><time>2026-03-28T15:23:18Z</time></trkpt><trkpt lat="44.85915372047127" lon="12.085288227929192"><ele>-1.6</ele><time>2026-03-28T15:23:20Z</time></trkpt><trkpt lat="44.85905857361047" lon="12.085308324390315"><ele>-1.8</ele><time>2026-03-28T15:23:22Z</time></trkpt><trkpt lat="44.85896778823479" lon="12.085334295609345"><ele>-2.0</ele><time>2026-03-28T15:23:24Z</time></trkpt><trkpt lat="44.858881677524366" lon="12.085359476917011"><ele>-1.9999999999999998</ele><time>2026-03-28T15:23:26Z</time></trkpt><trkpt lat="44.85879841879606" lon="12.085387081048195"><ele>-2.0</ele><time>2026-03-28T15:23:28Z</time></trkpt><trkpt lat="44.858718460412355" lon="12.085407544807119"><ele>-2.0</ele><time>2026-03-28T15:23:29.999Z</time></trkpt><trkpt lat="44.85864112106839" lon="12.085429775222595"><ele>-2.0</ele><time>2026-03-28T15:23:31.999Z</time></trkpt><trkpt lat="44.85856448030368" lon="12.085435260932686"><ele>-1.9999999999999998</ele><time>2026-03-28T15:23:33.999Z</time></trkpt><trkpt lat="44.85849667045525" lon="12.085452066278267"><ele>-2.0</ele><time>2026-03-28T15:23:35.999Z</time></trkpt><trkpt lat="44.858503179932946" lon="12.085342751241084"><ele>-1.9999999999999998</ele><time>2026-03-28T15:23:37.999Z</time></trkpt><trkpt lat="44.85850212408412" lon="12.085235309498355"><ele>-2.0</ele><time>2026-03-28T15:23:39.999Z</time></trkpt><trkpt lat="44.8584930608509" lon="12.085106221259075"><ele>-2.0</ele><time>2026-03-28T15:23:42.999Z</time></trkpt><trkpt lat="44.85851171927212" lon="12.085013588678676"><ele>-2.0</ele><time>2026-03-28T15:23:45.999Z</time></trkpt><trkpt lat="44.85850956452747" lon="12.084924163667727"><ele>-1.9999999999999998</ele><time>2026-03-28T15:25:33.999Z</time></trkpt><trkpt lat="44.85849992865027" lon="12.084830999333168"><ele>-2.0</ele><time>2026-03-28T15:25:36.999Z</time></trkpt><trkpt lat="44.85849437113" lon="12.084697431693261"><ele>-2.0</ele><time>2026-03-28T15:25:39.999Z</time></trkpt><trkpt lat="44.85849570438177" lon="12.0845758176988"><ele>-2.0</ele><time>2026-03-28T15:25:41.999Z</time></trkpt><trkpt lat="44.8584944495405" lon="12.084419682223297"><ele>-2.0</ele><time>2026-03-28T15:25:43.999Z</time></trkpt><trkpt lat="44.858491732728474" lon="12.08423915174307"><ele>-2.0</ele><time>2026-03-28T15:25:45.999Z</time></trkpt><trkpt lat="44.858491271254174" lon="12.08414229157132"><ele>-2.0</ele><time>2026-03-28T15:25:46.999Z</time></trkpt><trkpt lat="44.85848885013086" lon="12.084040715453387"><ele>-2.2857142857142856</ele><time>2026-03-28T15:25:47.999Z</time></trkpt><trkpt lat="44.85848853410355" lon="12.083937677413635"><ele>-2.571428571428571</ele><time>2026-03-28T15:25:48.999Z</time></trkpt><trkpt lat="44.85848796285371" lon="12.083833354826435"><ele>-2.8571428571428568</ele><time>2026-03-28T15:25:49.999Z</time></trkpt><trkpt lat="44.85848887866773" lon="12.083727796475936"><ele>-3.142857142857143</ele><time>2026-03-28T15:25:50.999Z</time></trkpt><trkpt lat="44.85848754805855" lon="12.08362219991658"><ele>-3.428571428571428</ele><time>2026-03-28T15:25:51.999Z</time></trkpt><trkpt lat="44.85848664668787" lon="12.083516410474829"><ele>-3.714285714285714</ele><time>2026-03-28T15:25:52.999Z</time></trkpt><trkpt lat="44.85848366746074" lon="12.083410716387709"><ele>-4.0</ele><time>2026-03-28T15:25:53.999Z</time></trkpt><trkpt lat="44.85848258451877" lon="12.083303485855485"><ele>-4.0</ele><time>2026-03-28T15:25:54.999Z</time></trkpt><trkpt lat="44.85848250924166" lon="12.083194813753002"><ele>-3.9999999999999996</ele><time>2026-03-28T15:25:55.999Z</time></trkpt><trkpt lat="44.8584841228696" lon="12.083089787883047"><ele>-4.0</ele><time>2026-03-28T15:25:56.999Z</time></trkpt><trkpt lat="44.85848482458695" lon="12.082981533810264"><ele>-4.0</ele><time>2026-03-28T15:25:57.999Z</time></trkpt><trkpt lat="44.85848470809141" lon="12.082877830409087"><ele>-3.9999999999999996</ele><time>2026-03-28T15:25:58.999Z</time></trkpt><trkpt lat="44.85848311634916" lon="12.082776764165256"><ele>-4.0</ele><time>2026-03-28T15:25:59.999Z</time></trkpt><trkpt lat="44.85848486627819" lon="12.082681380512602"><ele>-4.0</ele><time>2026-03-28T15:26:00.999Z</time></trkpt><trkpt lat="44.8584855237283" lon="12.082587689288658"><ele>-4.0</ele><time>2026-03-28T15:26:01.999Z</time></trkpt><trkpt lat="44.858483309565734" lon="12.08249851970281"><ele>-4.0</ele><time>2026-03-28T15:26:02.999Z</time></trkpt><trkpt lat="44.85848302359206" lon="12.082408263535761"><ele>-4.0</ele><time>2026-03-28T15:26:03.999Z</time></trkpt><trkpt lat="44.85848300639381" lon="12.082238424079653"><ele>-4.0</ele><time>2026-03-28T15:26:05.999Z</time></trkpt><trkpt lat="44.85848273264383" lon="12.08207415435516"><ele>-4.0</ele><time>2026-03-28T15:26:07.999Z</time></trkpt><trkpt lat="44.85848063734426" lon="12.081920151544692"><ele>-4.0</ele><time>2026-03-28T15:26:09.999Z</time></trkpt><trkpt lat="44.858480815778755" lon="12.081767765150188"><ele>-4.0</ele><time>2026-03-28T15:26:11.999Z</time></trkpt><trkpt lat="44.85847809898816" lon="12.081627707823957"><ele>-4.0</ele><time>2026-03-28T15:26:13.999Z</time></trkpt><trkpt lat="44.85847887492905" lon="12.08148678239877"><ele>-4.0</ele><time>2026-03-28T15:26:15.999Z</time></trkpt><trkpt lat="44.85847749411083" lon="12.08132595834704"><ele>-4.0</ele><time>2026-03-28T15:26:17.999Z</time></trkpt><trkpt lat="44.85848016016763" lon="12.081171485825667"><ele>-4.2</ele><time>2026-03-28T15:26:19.999Z</time></trkpt><trkpt lat="44.858476770301976" lon="12.081010228186402"><ele>-4.4</ele><time>2026-03-28T15:26:21.999Z</time></trkpt><trkpt lat="44.858475343474375" lon="12.08084494071401"><ele>-4.6</ele><time>2026-03-28T15:26:23.999Z</time></trkpt><trkpt lat="44.85847625960798" lon="12.080697875286424"><ele>-4.8</ele><time>2026-03-28T15:26:25.999Z</time></trkpt><trkpt lat="44.8584748602414" lon="12.080558222958091"><ele>-5.0</ele><time>2026-03-28T15:26:27.999Z</time></trkpt><trkpt lat="44.85847659639287" lon="12.08043070560109"><ele>-5.0</ele><time>2026-03-28T15:26:29.999Z</time></trkpt><trkpt lat="44.85847447868462" lon="12.080309857825766"><ele>-5.0</ele><time>2026-03-28T15:26:31.999Z</time></trkpt><trkpt lat="44.85847342441046" lon="12.080192442632274"><ele>-5.0</ele><time>2026-03-28T15:26:33.999Z</time></trkpt><trkpt lat="44.85847342317276" lon="12.080077854176427"><ele>-5.0</ele><time>2026-03-28T15:26:35.999Z</time></trkpt><trkpt lat="44.858473375758656" lon="12.07996652112669"><ele>-5.0</ele><time>2026-03-28T15:26:37.999Z</time></trkpt><trkpt lat="44.85847251595775" lon="12.07985472069118"><ele>-5.0</ele><time>2026-03-28T15:26:39.999Z</time></trkpt><trkpt lat="44.8584721787298" lon="12.079738847391688"><ele>-5.0</ele><time>2026-03-28T15:26:41.999Z</time></trkpt><trkpt lat="44.85847019758948" lon="12.079622979683936"><ele>-5.0</ele><time>2026-03-28T15:26:44Z</time></trkpt><trkpt lat="44.858473903149616" lon="12.079508162097618"><ele>-5.0</ele><time>2026-03-28T15:26:46Z</time></trkpt><trkpt lat="44.85846798631118" lon="12.079391482128086"><ele>-5.0</ele><time>2026-03-28T15:26:48Z</time></trkpt><trkpt lat="44.858467025229785" lon="12.07927571489574"><ele>-5.0</ele><time>2026-03-28T15:26:50Z</time></trkpt><trkpt lat="44.8584648312268" lon="12.079156763141766"><ele>-5.0</ele><time>2026-03-28T15:26:52Z</time></trkpt><trkpt lat="44.858469789515034" lon="12.079040512691765"><ele>-5.0</ele><time>2026-03-28T15:26:54Z</time></trkpt><trkpt lat="44.85846750196084" lon="12.078925070531142"><ele>-5.0</ele><time>2026-03-28T15:26:56Z</time></trkpt><trkpt lat="44.85846477170121" lon="12.078809791301039"><ele>-5.0</ele><time>2026-03-28T15:26:58Z</time></trkpt><trkpt lat="44.85846490154124" lon="12.078692852708771"><ele>-5.0</ele><time>2026-03-28T15:27:00Z</time></trkpt><trkpt lat="44.85846442523417" lon="12.078574394073856"><ele>-5.0</ele><time>2026-03-28T15:27:02Z</time></trkpt><trkpt lat="44.858458412925444" lon="12.078457826176576"><ele>-5.0</ele><time>2026-03-28T15:27:04Z</time></trkpt><trkpt lat="44.85845756787144" lon="12.078340901333712"><ele>-4.833333333333334</ele><time>2026-03-28T15:27:06Z</time></trkpt><trkpt lat="44.85845863625198" lon="12.078227103727341"><ele>-4.666666666666667</ele><time>2026-03-28T15:27:08Z</time></trkpt><trkpt lat="44.85845672117186" lon="12.078112931542057"><ele>-4.5</ele><time>2026-03-28T15:27:10Z</time></trkpt><trkpt lat="44.8584558213467" lon="12.077992980993148"><ele>-4.333333333333333</ele><time>2026-03-28T15:27:12Z</time></trkpt><trkpt lat="44.85845280063337" lon="12.07787486795485"><ele>-4.166666666666666</ele><time>2026-03-28T15:27:14Z</time></trkpt><trkpt lat="44.85845334770933" lon="12.07775760445787"><ele>-4.0</ele><time>2026-03-28T15:27:16Z</time></trkpt><trkpt lat="44.85845214299769" lon="12.077635317123505"><ele>-3.9999999999999996</ele><time>2026-03-28T15:27:18Z</time></trkpt><trkpt lat="44.8584491976839" lon="12.077509658325356"><ele>-4.0</ele><time>2026-03-28T15:27:20Z</time></trkpt><trkpt lat="44.858448750197894" lon="12.077388926031782"><ele>-4.0</ele><time>2026-03-28T15:27:22Z</time></trkpt><trkpt lat="44.858446083841756" lon="12.077269239891221"><ele>-4.0</ele><time>2026-03-28T15:27:24Z</time></trkpt><trkpt lat="44.85844523306692" lon="12.077155320687861"><ele>-3.9999999999999996</ele><time>2026-03-28T15:27:26Z</time></trkpt><trkpt lat="44.85845099954825" lon="12.077048239436284"><ele>-4.0</ele><time>2026-03-28T15:27:28Z</time></trkpt><trkpt lat="44.85845941739088" lon="12.076944803702604"><ele>-4.166666666666666</ele><time>2026-03-28T15:27:30Z</time></trkpt><trkpt lat="44.85844930643156" lon="12.076847673398314"><ele>-4.333333333333333</ele><time>2026-03-28T15:27:32Z</time></trkpt><trkpt lat="44.858449045454876" lon="12.076754511470549"><ele>-4.5</ele><time>2026-03-28T15:27:34Z</time></trkpt><trkpt lat="44.85844988331418" lon="12.076628590377922"><ele>-4.666666666666667</ele><time>2026-03-28T15:27:37Z</time></trkpt><trkpt lat="44.85845476283881" lon="12.076499155611687"><ele>-4.833333333333334</ele><time>2026-03-28T15:27:39.999Z</time></trkpt><trkpt lat="44.85845842577191" lon="12.07638623944585"><ele>-5.0</ele><time>2026-03-28T15:27:41.999Z</time></trkpt><trkpt lat="44.85845808580161" lon="12.076251957394142"><ele>-4.6</ele><time>2026-03-28T15:27:43.999Z</time></trkpt><trkpt lat="44.85845805378766" lon="12.07610247081901"><ele>-4.2</ele><time>2026-03-28T15:27:45.999Z</time></trkpt><trkpt lat="44.85845589086766" lon="12.075943924463099"><ele>-3.8</ele><time>2026-03-28T15:27:47.999Z</time></trkpt><trkpt lat="44.85845646219611" lon="12.075792774182089"><ele>-3.4</ele><time>2026-03-28T15:27:49.999Z</time></trkpt><trkpt lat="44.85845763934846" lon="12.075654960480474"><ele>-3.0</ele><time>2026-03-28T15:27:51.999Z</time></trkpt><trkpt lat="44.85845707201894" lon="12.075522082657171"><ele>-3.0</ele><time>2026-03-28T15:27:53.999Z</time></trkpt><trkpt lat="44.85845462685837" lon="12.075394124860045"><ele>-3.0</ele><time>2026-03-28T15:27:55.999Z</time></trkpt><trkpt lat="44.85845351336752" lon="12.075267115621545"><ele>-3.0</ele><time>2026-03-28T15:27:57.999Z</time></trkpt><trkpt lat="44.858451442475925" lon="12.075139219772252"><ele>-3.0</ele><time>2026-03-28T15:27:59.999Z</time></trkpt><trkpt lat="44.85845352051322" lon="12.075009626810585"><ele>-3.0</ele><time>2026-03-28T15:28:01.999Z</time></trkpt><trkpt lat="44.85845199886055" lon="12.074860235706602"><ele>-3.0</ele><time>2026-03-28T15:28:03.999Z</time></trkpt><trkpt lat="44.858449133842655" lon="12.074700193943094"><ele>-3.0</ele><time>2026-03-28T15:28:05.999Z</time></trkpt><trkpt lat="44.85844780171187" lon="12.07455322799305"><ele>-3.0</ele><time>2026-03-28T15:28:07.999Z</time></trkpt><trkpt lat="44.85844461254944" lon="12.074405803302387"><ele>-3.0</ele><time>2026-03-28T15:28:09.999Z</time></trkpt><trkpt lat="44.8584419977147" lon="12.07425828593228"><ele>-3.0</ele><time>2026-03-28T15:28:11.999Z</time></trkpt><trkpt lat="44.85844097167911" lon="12.07411577874548"><ele>-3.2</ele><time>2026-03-28T15:28:13.999Z</time></trkpt><trkpt lat="44.8584381214047" lon="12.073978763219326"><ele>-3.4</ele><time>2026-03-28T15:28:15.999Z</time></trkpt><trkpt lat="44.85843528080626" lon="12.07385205916074"><ele>-3.6000000000000005</ele><time>2026-03-28T15:28:17.999Z</time></trkpt><trkpt lat="44.85843689246357" lon="12.073725239697513"><ele>-3.8000000000000003</ele><time>2026-03-28T15:28:19.999Z</time></trkpt><trkpt lat="44.858436915074456" lon="12.07359804015319"><ele>-4.0</ele><time>2026-03-28T15:28:21.999Z</time></trkpt><trkpt lat="44.85843510516047" lon="12.07347883704737"><ele>-4.0</ele><time>2026-03-28T15:28:23.999Z</time></trkpt><trkpt lat="44.85843428219648" lon="12.073366236235717"><ele>-3.9999999999999996</ele><time>2026-03-28T15:28:25.999Z</time></trkpt><trkpt lat="44.85843290033936" lon="12.073258226035335"><ele>-4.0</ele><time>2026-03-28T15:28:27.999Z</time></trkpt><trkpt lat="44.85843468063427" lon="12.073155022797058"><ele>-4.0</ele><time>2026-03-28T15:28:29.999Z</time></trkpt><trkpt lat="44.858439480102334" lon="12.07305679074981"><ele>-3.9999999999999996</ele><time>2026-03-28T15:28:31.999Z</time></trkpt><trkpt lat="44.858439254569554" lon="12.072964063472659"><ele>-4.0</ele><time>2026-03-28T15:28:33.999Z</time></trkpt><trkpt lat="44.85844175847231" lon="12.072873593700752"><ele>-4.0</ele><time>2026-03-28T15:28:35.999Z</time></trkpt><trkpt lat="44.858443744453595" lon="12.072742561930362"><ele>-3.9999999999999996</ele><time>2026-03-28T15:28:38.999Z</time></trkpt><trkpt lat="44.858444026791204" lon="12.072629237411533"><ele>-4.0</ele><time>2026-03-28T15:28:40.999Z</time></trkpt><trkpt lat="44.858442091014695" lon="12.072505985331658"><ele>-4.0</ele><time>2026-03-28T15:28:42.999Z</time></trkpt><trkpt lat="44.85844017322353" lon="12.072393102642023"><ele>-4.0</ele><time>2026-03-28T15:28:44.999Z</time></trkpt><trkpt lat="44.85843614445334" lon="12.072292170777644"><ele>-3.9999999999999996</ele><time>2026-03-28T15:28:46.999Z</time></trkpt><trkpt lat="44.85842889058982" lon="12.072197767639814"><ele>-4.0</ele><time>2026-03-28T15:28:48.999Z</time></trkpt><trkpt lat="44.85843680279588" lon="12.072100543539307"><ele>-4.0</ele><time>2026-03-28T15:28:51Z</time></trkpt><trkpt lat="44.858437892042204" lon="12.072001694668286"><ele>-3.9999999999999996</ele><time>2026-03-28T15:28:53Z</time></trkpt><trkpt lat="44.85843833938092" lon="12.07191021976206"><ele>-4.0</ele><time>2026-03-28T15:28:55Z</time></trkpt><trkpt lat="44.858431947257166" lon="12.071817044325348"><ele>-4.0</ele><time>2026-03-28T15:28:57Z</time></trkpt><trkpt lat="44.85844067475308" lon="12.071710951143354"><ele>-3.9999999999999996</ele><time>2026-03-28T15:28:59Z</time></trkpt><trkpt lat="44.85843901900909" lon="12.071588089287491"><ele>-4.0</ele><time>2026-03-28T15:29:01Z</time></trkpt><trkpt lat="44.858433929030426" lon="12.071477378429696"><ele>-4.0</ele><time>2026-03-28T15:29:03Z</time></trkpt><trkpt lat="44.85843337213557" lon="12.071377755002013"><ele>-4.0</ele><time>2026-03-28T15:29:05Z</time></trkpt><trkpt lat="44.858433603211665" lon="12.07128758193225"><ele>-3.9999999999999996</ele><time>2026-03-28T15:29:07Z</time></trkpt><trkpt lat="44.85843810637089" lon="12.07118937584094"><ele>-4.0</ele><time>2026-03-28T15:29:09Z</time></trkpt><trkpt lat="44.85844302171312" lon="12.07108778721065"><ele>-4.0</ele><time>2026-03-28T15:29:11Z</time></trkpt><trkpt lat="44.858441224634866" lon="12.070981367873562"><ele>-3.9999999999999996</ele><time>2026-03-28T15:29:13Z</time></trkpt><trkpt lat="44.85843835947866" lon="12.070882762659345"><ele>-4.0</ele><time>2026-03-28T15:29:15Z</time></trkpt><trkpt lat="44.85843461816643" lon="12.070779744274313"><ele>-4.0</ele><time>2026-03-28T15:29:17Z</time></trkpt><trkpt lat="44.858434452310874" lon="12.070670428492651"><ele>-3.9999999999999996</ele><time>2026-03-28T15:29:19Z</time></trkpt><trkpt lat="44.85842970725388" lon="12.07056074624474"><ele>-4.0</ele><time>2026-03-28T15:29:21Z</time></trkpt><trkpt lat="44.85842853135196" lon="12.070460756636956"><ele>-4.0</ele><time>2026-03-28T15:29:23Z</time></trkpt><trkpt lat="44.85842382539113" lon="12.070364957378443"><ele>-4.0</ele><time>2026-03-28T15:29:25Z</time></trkpt><trkpt lat="44.85842160116215" lon="12.070256912893067"><ele>-3.9999999999999996</ele><time>2026-03-28T15:29:27Z</time></trkpt><trkpt lat="44.85842476703028" lon="12.07013545811046"><ele>-4.0</ele><time>2026-03-28T15:29:29Z</time></trkpt><trkpt lat="44.85841834052799" lon="12.070019969769197"><ele>-4.142857142857142</ele><time>2026-03-28T15:29:31Z</time></trkpt><trkpt lat="44.858420945845715" lon="12.069913192057768"><ele>-4.285714285714286</ele><time>2026-03-28T15:29:32.999Z</time></trkpt><trkpt lat="44.858423868410526" lon="12.06980117990709"><ele>-4.428571428571429</ele><time>2026-03-28T15:29:34.999Z</time></trkpt><trkpt lat="44.85842030707196" lon="12.069692775315149"><ele>-4.571428571428571</ele><time>2026-03-28T15:29:36.999Z</time></trkpt><trkpt lat="44.85842086395187" lon="12.069588378396952"><ele>-4.714285714285714</ele><time>2026-03-28T15:29:38.999Z</time></trkpt><trkpt lat="44.858415904333135" lon="12.069491005322492"><ele>-4.857142857142857</ele><time>2026-03-28T15:29:40.999Z</time></trkpt><trkpt lat="44.85841790784651" lon="12.069398282695207"><ele>-5.0</ele><time>2026-03-28T15:29:42.999Z</time></trkpt><trkpt lat="44.85841822577778" lon="12.06928872101452"><ele>-5.0</ele><time>2026-03-28T15:29:44.999Z</time></trkpt><trkpt lat="44.85841519305137" lon="12.06917810619626"><ele>-5.0</ele><time>2026-03-28T15:29:46.999Z</time></trkpt><trkpt lat="44.85841187492103" lon="12.069073942504623"><ele>-5.0</ele><time>2026-03-28T15:29:48.999Z</time></trkpt><trkpt lat="44.858409084058174" lon="12.068964107613402"><ele>-5.0</ele><time>2026-03-28T15:29:50.999Z</time></trkpt><trkpt lat="44.8584145046974" lon="12.068852539321425"><ele>-5.0</ele><time>2026-03-28T15:29:52.999Z</time></trkpt><trkpt lat="44.858411063394485" lon="12.068733217462468"><ele>-5.0</ele><time>2026-03-28T15:29:54.999Z</time></trkpt><trkpt lat="44.85841273897579" lon="12.068619341127897"><ele>-4.833333333333334</ele><time>2026-03-28T15:29:56.999Z</time></trkpt><trkpt lat="44.858411155217404" lon="12.068505523117874"><ele>-4.666666666666667</ele><time>2026-03-28T15:29:58.999Z</time></trkpt><trkpt lat="44.85841265876744" lon="12.068398647061793"><ele>-4.5</ele><time>2026-03-28T15:30:00.999Z</time></trkpt><trkpt lat="44.85840651083237" lon="12.068297284537255"><ele>-4.333333333333333</ele><time>2026-03-28T15:30:02.999Z</time></trkpt><trkpt lat="44.85840385794229" lon="12.068191369238859"><ele>-4.166666666666666</ele><time>2026-03-28T15:30:04.999Z</time></trkpt><trkpt lat="44.85840554105945" lon="12.068081552951327"><ele>-4.0</ele><time>2026-03-28T15:30:06.999Z</time></trkpt><trkpt lat="44.858410561847506" lon="12.067972637740647"><ele>-3.9999999999999996</ele><time>2026-03-28T15:30:08.999Z</time></trkpt><trkpt lat="44.85841041491543" lon="12.067865225311463"><ele>-4.0</ele><time>2026-03-28T15:30:10.999Z</time></trkpt><trkpt lat="44.85841280588908" lon="12.067759664553137"><ele>-4.0</ele><time>2026-03-28T15:30:12.999Z</time></trkpt><trkpt lat="44.858408842237594" lon="12.06765061237943"><ele>-4.0</ele><time>2026-03-28T15:30:14.999Z</time></trkpt><trkpt lat="44.858409465618905" lon="12.067542949287512"><ele>-3.9999999999999996</ele><time>2026-03-28T15:30:16.999Z</time></trkpt><trkpt lat="44.85840861320606" lon="12.067433889599675"><ele>-4.0</ele><time>2026-03-28T15:30:18.999Z</time></trkpt><trkpt lat="44.85840981966758" lon="12.067322300617244"><ele>-4.333333333333333</ele><time>2026-03-28T15:30:20.999Z</time></trkpt><trkpt lat="44.85840846036904" lon="12.067208949400852"><ele>-4.666666666666666</ele><time>2026-03-28T15:30:22.999Z</time></trkpt><trkpt lat="44.85840279572551" lon="12.067093404073987"><ele>-5.0</ele><time>2026-03-28T15:30:24.999Z</time></trkpt><trkpt lat="44.85840309188706" lon="12.066988657942673"><ele>-5.333333333333333</ele><time>2026-03-28T15:30:26.999Z</time></trkpt><trkpt lat="44.858403483704095" lon="12.066885349480708"><ele>-5.666666666666667</ele><time>2026-03-28T15:30:28.999Z</time></trkpt><trkpt lat="44.858406238782834" lon="12.066764756597012"><ele>-6.0</ele><time>2026-03-28T15:30:30.999Z</time></trkpt><trkpt lat="44.85840546290189" lon="12.066644401547835"><ele>-6.333333333333333</ele><time>2026-03-28T15:30:32.999Z</time></trkpt><trkpt lat="44.85840235019475" lon="12.066524955934877"><ele>-6.666666666666666</ele><time>2026-03-28T15:30:34.999Z</time></trkpt><trkpt lat="44.858393303739255" lon="12.066407957414562"><ele>-7.0</ele><time>2026-03-28T15:30:36.999Z</time></trkpt><trkpt lat="44.85840607771936" lon="12.066289165434542"><ele>-7.333333333333333</ele><time>2026-03-28T15:30:38.999Z</time></trkpt><trkpt lat="44.85839626506842" lon="12.066179236530989"><ele>-7.666666666666666</ele><time>2026-03-28T15:30:40.999Z</time></trkpt><trkpt lat="44.85839668055599" lon="12.066072152136654"><ele>-8.0</ele><time>2026-03-28T15:30:42.999Z</time></trkpt><trkpt lat="44.85839694079103" lon="12.065971361692423"><ele>-8.0</ele><time>2026-03-28T15:30:44.999Z</time></trkpt><trkpt lat="44.85839745529436" lon="12.065873996949303"><ele>-7.999999999999999</ele><time>2026-03-28T15:30:46.999Z</time></trkpt><trkpt lat="44.858393557215464" lon="12.065772371812225"><ele>-8.0</ele><time>2026-03-28T15:30:48.999Z</time></trkpt><trkpt lat="44.85839499622107" lon="12.065679677964551"><ele>-8.0</ele><time>2026-03-28T15:30:50.999Z</time></trkpt><trkpt lat="44.85839220912572" lon="12.06558165133975"><ele>-7.999999999999999</ele><time>2026-03-28T15:30:52.999Z</time></trkpt><trkpt lat="44.85839477865558" lon="12.065485997942242"><ele>-8.0</ele><time>2026-03-28T15:30:54.999Z</time></trkpt><trkpt lat="44.858390924010926" lon="12.065392486785395"><ele>-8.0</ele><time>2026-03-28T15:30:57Z</time></trkpt><trkpt lat="44.85838817289079" lon="12.065295607823629"><ele>-7.833333333333333</ele><time>2026-03-28T15:30:59Z</time></trkpt><trkpt lat="44.85839174562796" lon="12.065201464992331"><ele>-7.666666666666666</ele><time>2026-03-28T15:31:01Z</time></trkpt><trkpt lat="44.85838694107891" lon="12.065104601422085"><ele>-7.5</ele><time>2026-03-28T15:31:03Z</time></trkpt><trkpt lat="44.85839273570167" lon="12.064993712671138"><ele>-7.333333333333334</ele><time>2026-03-28T15:31:05Z</time></trkpt><trkpt lat="44.858396439201194" lon="12.06486387698112"><ele>-7.166666666666667</ele><time>2026-03-28T15:31:07Z</time></trkpt><trkpt lat="44.85839474184829" lon="12.064726582782917"><ele>-7.0</ele><time>2026-03-28T15:31:09Z</time></trkpt><trkpt lat="44.858392176367616" lon="12.064589617114903"><ele>-7.0</ele><time>2026-03-28T15:31:11Z</time></trkpt><trkpt lat="44.858397789283664" lon="12.064453583975961"><ele>-6.999999999999999</ele><time>2026-03-28T15:31:13Z</time></trkpt><trkpt lat="44.85839301804484" lon="12.064317812822091"><ele>-6.999999999999999</ele><time>2026-03-28T15:31:15Z</time></trkpt><trkpt lat="44.85839265281165" lon="12.064186907780607"><ele>-7.0</ele><time>2026-03-28T15:31:17Z</time></trkpt><trkpt lat="44.85839315900498" lon="12.06405507738066"><ele>-7.0</ele><time>2026-03-28T15:31:19Z</time></trkpt><trkpt lat="44.85839394743934" lon="12.06390263755468"><ele>-6.8</ele><time>2026-03-28T15:31:21Z</time></trkpt><trkpt lat="44.85838679496079" lon="12.063757074010946"><ele>-6.6</ele><time>2026-03-28T15:31:23Z</time></trkpt><trkpt lat="44.858385131303265" lon="12.063621695710156"><ele>-6.3999999999999995</ele><time>2026-03-28T15:31:25Z</time></trkpt><trkpt lat="44.85838482524729" lon="12.063477633010793"><ele>-6.199999999999999</ele><time>2026-03-28T15:31:27Z</time></trkpt><trkpt lat="44.858380645942496" lon="12.063342551166748"><ele>-6.0</ele><time>2026-03-28T15:31:29Z</time></trkpt><trkpt lat="44.858382958674405" lon="12.063221772277243"><ele>-5.666666666666667</ele><time>2026-03-28T15:31:31Z</time></trkpt><trkpt lat="44.85838402656912" lon="12.063111991608958"><ele>-5.333333333333333</ele><time>2026-03-28T15:31:33Z</time></trkpt><trkpt lat="44.85838119285876" lon="12.063002048194662"><ele>-5.0</ele><time>2026-03-28T15:31:35Z</time></trkpt><trkpt lat="44.85837583021267" lon="12.062888786922167"><ele>-4.666666666666666</ele><time>2026-03-28T15:31:37Z</time></trkpt><trkpt lat="44.8583889779431" lon="12.062788306088052"><ele>-4.333333333333333</ele><time>2026-03-28T15:31:39Z</time></trkpt><trkpt lat="44.858380374011645" lon="12.062688755676971"><ele>-4.0</ele><time>2026-03-28T15:31:41Z</time></trkpt><trkpt lat="44.85838057802612" lon="12.062566557347967"><ele>-4.2</ele><time>2026-03-28T15:31:43Z</time></trkpt><trkpt lat="44.85838150239472" lon="12.062425720667335"><ele>-4.4</ele><time>2026-03-28T15:31:45Z</time></trkpt><trkpt lat="44.85838262763796" lon="12.062274521531831"><ele>-4.6</ele><time>2026-03-28T15:31:47Z</time></trkpt><trkpt lat="44.858375578284694" lon="12.062118020300385"><ele>-4.8</ele><time>2026-03-28T15:31:49Z</time></trkpt><trkpt lat="44.858372743023" lon="12.06197039619133"><ele>-5.0</ele><time>2026-03-28T15:31:51Z</time></trkpt><trkpt lat="44.85838482750094" lon="12.0618338686508"><ele>-5.0</ele><time>2026-03-28T15:31:53Z</time></trkpt><trkpt lat="44.85838427920314" lon="12.061707781856667"><ele>-5.0</ele><time>2026-03-28T15:31:55Z</time></trkpt><trkpt lat="44.85838372868596" lon="12.061581184576577"><ele>-5.0</ele><time>2026-03-28T15:31:57Z</time></trkpt><trkpt lat="44.85838320661957" lon="12.061461129959193"><ele>-5.0</ele><time>2026-03-28T15:31:59Z</time></trkpt><trkpt lat="44.858369539629564" lon="12.061326466630955"><ele>-5.0</ele><time>2026-03-28T15:32:01Z</time></trkpt><trkpt lat="44.858368914681684" lon="12.061185259721988"><ele>-4.8</ele><time>2026-03-28T15:32:03Z</time></trkpt><trkpt lat="44.8583650416953" lon="12.06103785492207"><ele>-4.6</ele><time>2026-03-28T15:32:04.999Z</time></trkpt><trkpt lat="44.85838110174374" lon="12.060891206361699"><ele>-4.4</ele><time>2026-03-28T15:32:06.999Z</time></trkpt><trkpt lat="44.85837168503376" lon="12.060748153477364"><ele>-4.2</ele><time>2026-03-28T15:32:08.999Z</time></trkpt><trkpt lat="44.85837381868417" lon="12.060587298380485"><ele>-4.0</ele><time>2026-03-28T15:32:10.999Z</time></trkpt><trkpt lat="44.85837465973843" lon="12.060419481504733"><ele>-3.9999999999999996</ele><time>2026-03-28T15:32:12.999Z</time></trkpt><trkpt lat="44.85837621895833" lon="12.060330528571535"><ele>-4.0</ele><time>2026-03-28T15:32:13.999Z</time></trkpt><trkpt lat="44.85837445174488" lon="12.060153326485407"><ele>-4.0</ele><time>2026-03-28T15:32:15.999Z</time></trkpt><trkpt lat="44.85837330332991" lon="12.060062171875057"><ele>-4.0</ele><time>2026-03-28T15:32:16.999Z</time></trkpt><trkpt lat="44.8583753196523" lon="12.059971685481502"><ele>-3.9999999999999996</ele><time>2026-03-28T15:32:17.999Z</time></trkpt><trkpt lat="44.85837559556203" lon="12.059876177042208"><ele>-4.0</ele><time>2026-03-28T15:32:18.999Z</time></trkpt><trkpt lat="44.858374745037125" lon="12.059778491377944"><ele>-4.142857142857142</ele><time>2026-03-28T15:32:19.999Z</time></trkpt><trkpt lat="44.85837088824369" lon="12.05968265184694"><ele>-4.285714285714286</ele><time>2026-03-28T15:32:20.999Z</time></trkpt><trkpt lat="44.85837046144205" lon="12.059582260421777"><ele>-4.428571428571429</ele><time>2026-03-28T15:32:21.999Z</time></trkpt><trkpt lat="44.858369488182454" lon="12.05948215198175"><ele>-4.571428571428571</ele><time>2026-03-28T15:32:22.999Z</time></trkpt><trkpt lat="44.85837257289676" lon="12.059386212668592"><ele>-4.714285714285714</ele><time>2026-03-28T15:32:23.999Z</time></trkpt><trkpt lat="44.85837354526183" lon="12.05928660299718"><ele>-4.857142857142857</ele><time>2026-03-28T15:32:24.999Z</time></trkpt><trkpt lat="44.858371748820126" lon="12.059189551163126"><ele>-5.0</ele><time>2026-03-28T15:32:25.999Z</time></trkpt><trkpt lat="44.85837144487691" lon="12.059091513145104"><ele>-5.0</ele><time>2026-03-28T15:32:26.999Z</time></trkpt><trkpt lat="44.858373018813914" lon="12.058995268038753"><ele>-5.0</ele><time>2026-03-28T15:32:27.999Z</time></trkpt><trkpt lat="44.85837263128093" lon="12.05889691479901"><ele>-5.0</ele><time>2026-03-28T15:32:28.999Z</time></trkpt><trkpt lat="44.85837171250313" lon="12.058798481649335"><ele>-5.0</ele><time>2026-03-28T15:32:29.999Z</time></trkpt><trkpt lat="44.85837006770224" lon="12.058697405795229"><ele>-5.0</ele><time>2026-03-28T15:32:30.999Z</time></trkpt><trkpt lat="44.85836821105059" lon="12.058600504321348"><ele>-5.0</ele><time>2026-03-28T15:32:31.999Z</time></trkpt><trkpt lat="44.85836909774953" lon="12.058500108361706"><ele>-5.0</ele><time>2026-03-28T15:32:32.999Z</time></trkpt><trkpt lat="44.858369999739494" lon="12.05839890095439"><ele>-5.0</ele><time>2026-03-28T15:32:33.999Z</time></trkpt><trkpt lat="44.858370257683106" lon="12.058296384610328"><ele>-5.0</ele><time>2026-03-28T15:32:34.999Z</time></trkpt><trkpt lat="44.85836933431011" lon="12.05819170239559"><ele>-5.0</ele><time>2026-03-28T15:32:35.999Z</time></trkpt><trkpt lat="44.85837079066702" lon="12.058084010158902"><ele>-5.0</ele><time>2026-03-28T15:32:36.999Z</time></trkpt><trkpt lat="44.85836757245243" lon="12.057979046722226"><ele>-5.0</ele><time>2026-03-28T15:32:37.999Z</time></trkpt><trkpt lat="44.85836566199219" lon="12.05787530804207"><ele>-5.0</ele><time>2026-03-28T15:32:38.999Z</time></trkpt><trkpt lat="44.85836614163021" lon="12.057770820630651"><ele>-5.0</ele><time>2026-03-28T15:32:39.999Z</time></trkpt><trkpt lat="44.85836420149208" lon="12.057671954805983"><ele>-5.0</ele><time>2026-03-28T15:32:40.999Z</time></trkpt><trkpt lat="44.85836200840461" lon="12.057576805150918"><ele>-5.0</ele><time>2026-03-28T15:32:41.999Z</time></trkpt><trkpt lat="44.85835907806713" lon="12.057481603095736"><ele>-5.0</ele><time>2026-03-28T15:32:42.999Z</time></trkpt><trkpt lat="44.85836256909938" lon="12.057390504908437"><ele>-5.0</ele><time>2026-03-28T15:32:43.999Z</time></trkpt><trkpt lat="44.858366923748484" lon="12.057219633198475"><ele>-5.0</ele><time>2026-03-28T15:32:45.999Z</time></trkpt><trkpt lat="44.858369798395145" lon="12.057057654862598"><ele>-5.0</ele><time>2026-03-28T15:32:47.999Z</time></trkpt><trkpt lat="44.858364741474716" lon="12.056904322218022"><ele>-5.2</ele><time>2026-03-28T15:32:49.999Z</time></trkpt><trkpt lat="44.85836513684362" lon="12.05675917932841"><ele>-5.4</ele><time>2026-03-28T15:32:51.999Z</time></trkpt><trkpt lat="44.85835873844278" lon="12.0566089478405"><ele>-5.6</ele><time>2026-03-28T15:32:53.999Z</time></trkpt><trkpt lat="44.85835607878983" lon="12.056454313599481"><ele>-5.8</ele><time>2026-03-28T15:32:55.999Z</time></trkpt><trkpt lat="44.85835033735368" lon="12.056318053093895"><ele>-6.0</ele><time>2026-03-28T15:32:57.999Z</time></trkpt><trkpt lat="44.85835230486601" lon="12.056188800523913"><ele>-6.0</ele><time>2026-03-28T15:32:59.999Z</time></trkpt><trkpt lat="44.8583541575558" lon="12.056057249469996"><ele>-6.0</ele><time>2026-03-28T15:33:02Z</time></trkpt><trkpt lat="44.858355380935976" lon="12.055929019891446"><ele>-6.0</ele><time>2026-03-28T15:33:04Z</time></trkpt><trkpt lat="44.85835262197604" lon="12.055791605922995"><ele>-6.0</ele><time>2026-03-28T15:33:06Z</time></trkpt><trkpt lat="44.858348119658125" lon="12.055649672156012"><ele>-6.0</ele><time>2026-03-28T15:33:08Z</time></trkpt><trkpt lat="44.85835085685506" lon="12.055520322091468"><ele>-6.0</ele><time>2026-03-28T15:33:10Z</time></trkpt><trkpt lat="44.85834692663197" lon="12.055402674113033"><ele>-6.0</ele><time>2026-03-28T15:33:12Z</time></trkpt><trkpt lat="44.85835146535231" lon="12.05528596790942"><ele>-6.0</ele><time>2026-03-28T15:33:14Z</time></trkpt><trkpt lat="44.85834814988273" lon="12.055147864862699"><ele>-6.0</ele><time>2026-03-28T15:33:16Z</time></trkpt><trkpt lat="44.858347486665906" lon="12.054997491375255"><ele>-6.0</ele><time>2026-03-28T15:33:18Z</time></trkpt><trkpt lat="44.858347899020764" lon="12.054837858106492"><ele>-5.999999999999999</ele><time>2026-03-28T15:33:20Z</time></trkpt><trkpt lat="44.85835634584046" lon="12.054671480723291"><ele>-6.0</ele><time>2026-03-28T15:33:22Z</time></trkpt><trkpt lat="44.85835868752856" lon="12.054577269945138"><ele>-6.0</ele><time>2026-03-28T15:33:23Z</time></trkpt><trkpt lat="44.85835804492168" lon="12.054487651421962"><ele>-6.0</ele><time>2026-03-28T15:33:24Z</time></trkpt><trkpt lat="44.8583559703656" lon="12.054398217980959"><ele>-6.0</ele><time>2026-03-28T15:33:25Z</time></trkpt><trkpt lat="44.858353396989536" lon="12.054307616611089"><ele>-5.999999999999999</ele><time>2026-03-28T15:33:26Z</time></trkpt><trkpt lat="44.85835180681994" lon="12.054212725888648"><ele>-6.0</ele><time>2026-03-28T15:33:27Z</time></trkpt><trkpt lat="44.858353594090374" lon="12.054120118902274"><ele>-6.0</ele><time>2026-03-28T15:33:28Z</time></trkpt><trkpt lat="44.85835299339035" lon="12.054023132252556"><ele>-6.0</ele><time>2026-03-28T15:33:29Z</time></trkpt><trkpt lat="44.85834850270094" lon="12.053923310795925"><ele>-6.0</ele><time>2026-03-28T15:33:30Z</time></trkpt><trkpt lat="44.85834507602481" lon="12.053826737127402"><ele>-6.0</ele><time>2026-03-28T15:33:31Z</time></trkpt><trkpt lat="44.85834187604714" lon="12.053654326714799"><ele>-6.0</ele><time>2026-03-28T15:33:33Z</time></trkpt><trkpt lat="44.85833882315705" lon="12.053563971107176"><ele>-6.0</ele><time>2026-03-28T15:33:34Z</time></trkpt><trkpt lat="44.85834257318032" lon="12.053406774954839"><ele>-6.0</ele><time>2026-03-28T15:33:36Z</time></trkpt><trkpt lat="44.85833827360931" lon="12.053317331165578"><ele>-6.0</ele><time>2026-03-28T15:33:37Z</time></trkpt><trkpt lat="44.85833937815883" lon="12.053151991179332"><ele>-6.0</ele><time>2026-03-28T15:33:39Z</time></trkpt><trkpt lat="44.85833222324444" lon="12.052992203434165"><ele>-6.0</ele><time>2026-03-28T15:33:41Z</time></trkpt><trkpt lat="44.858333339930596" lon="12.052825142226764"><ele>-6.0</ele><time>2026-03-28T15:33:43Z</time></trkpt><trkpt lat="44.85833820921248" lon="12.052657026460704"><ele>-5.999999999999999</ele><time>2026-03-28T15:33:45Z</time></trkpt><trkpt lat="44.858334949401566" lon="12.052567189669713"><ele>-6.0</ele><time>2026-03-28T15:33:46Z</time></trkpt><trkpt lat="44.85833070377584" lon="12.052477482050513"><ele>-6.0</ele><time>2026-03-28T15:33:47Z</time></trkpt><trkpt lat="44.858333490923805" lon="12.052387943359582"><ele>-6.0</ele><time>2026-03-28T15:33:48Z</time></trkpt><trkpt lat="44.858334555621845" lon="12.052295704403452"><ele>-6.0</ele><time>2026-03-28T15:33:49Z</time></trkpt><trkpt lat="44.85833404977477" lon="12.05220468443501"><ele>-5.999999999999999</ele><time>2026-03-28T15:33:50Z</time></trkpt><trkpt lat="44.858336978065914" lon="12.052115262420315"><ele>-6.0</ele><time>2026-03-28T15:33:51Z</time></trkpt><trkpt lat="44.85834568383338" lon="12.051945463440509"><ele>-6.0</ele><time>2026-03-28T15:33:53Z</time></trkpt><trkpt lat="44.85837675654029" lon="12.051786003141274"><ele>-6.0</ele><time>2026-03-28T15:33:55Z</time></trkpt><trkpt lat="44.85841462570159" lon="12.051646612494359"><ele>-6.0</ele><time>2026-03-28T15:33:57Z</time></trkpt><trkpt lat="44.85846328946057" lon="12.05151431720244"><ele>-6.0</ele><time>2026-03-28T15:33:59Z</time></trkpt><trkpt lat="44.85851981547405" lon="12.051379355221737"><ele>-6.0</ele><time>2026-03-28T15:34:01Z</time></trkpt><trkpt lat="44.858608369321715" lon="12.051276092756808"><ele>-6.0</ele><time>2026-03-28T15:34:03Z</time></trkpt><trkpt lat="44.858699425384856" lon="12.051169025811964"><ele>-6.0</ele><time>2026-03-28T15:34:04.999Z</time></trkpt><trkpt lat="44.85880143503629" lon="12.05106888704557"><ele>-6.0</ele><time>2026-03-28T15:34:06.999Z</time></trkpt><trkpt lat="44.85891456943554" lon="12.050982967357829"><ele>-6.0</ele><time>2026-03-28T15:34:08.999Z</time></trkpt><trkpt lat="44.85897423288689" lon="12.05093923925104"><ele>-6.0</ele><time>2026-03-28T15:34:09.999Z</time></trkpt><trkpt lat="44.859027878957626" lon="12.05087431645634"><ele>-5.999999999999999</ele><time>2026-03-28T15:34:10.999Z</time></trkpt><trkpt lat="44.859093034841536" lon="12.050841525801765"><ele>-6.0</ele><time>2026-03-28T15:34:11.999Z</time></trkpt><trkpt lat="44.859154079029324" lon="12.0507958597492"><ele>-6.0</ele><time>2026-03-28T15:34:12.999Z</time></trkpt><trkpt lat="44.85921899117192" lon="12.0507481371055"><ele>-6.0</ele><time>2026-03-28T15:34:13.999Z</time></trkpt><trkpt lat="44.8592807800266" lon="12.0507015482118"><ele>-6.0</ele><time>2026-03-28T15:34:14.999Z</time></trkpt><trkpt lat="44.85934027221514" lon="12.05066607741244"><ele>-5.999999999999999</ele><time>2026-03-28T15:34:15.999Z</time></trkpt><trkpt lat="44.85939846685391" lon="12.050628798503546"><ele>-6.0</ele><time>2026-03-28T15:34:16.999Z</time></trkpt><trkpt lat="44.85945527632763" lon="12.05058765032847"><ele>-6.142857142857142</ele><time>2026-03-28T15:34:17.999Z</time></trkpt><trkpt lat="44.859511244345114" lon="12.050542769723947"><ele>-6.285714285714286</ele><time>2026-03-28T15:34:18.999Z</time></trkpt><trkpt lat="44.85956847348609" lon="12.050501539268309"><ele>-6.428571428571429</ele><time>2026-03-28T15:34:19.999Z</time></trkpt><trkpt lat="44.8596264276212" lon="12.050463061909397"><ele>-6.571428571428571</ele><time>2026-03-28T15:34:20.999Z</time></trkpt><trkpt lat="44.85973791028192" lon="12.050386293677255"><ele>-6.714285714285714</ele><time>2026-03-28T15:34:22.999Z</time></trkpt><trkpt lat="44.85979472760747" lon="12.050343306242112"><ele>-6.857142857142857</ele><time>2026-03-28T15:34:23.999Z</time></trkpt><trkpt lat="44.85985038233166" lon="12.050297725645132"><ele>-7.0</ele><time>2026-03-28T15:34:24.999Z</time></trkpt><trkpt lat="44.8599075000863" lon="12.050252139040097"><ele>-7.0</ele><time>2026-03-28T15:34:25.999Z</time></trkpt><trkpt lat="44.85996885793456" lon="12.05021679735339"><ele>-7.0</ele><time>2026-03-28T15:34:26.999Z</time></trkpt><trkpt lat="44.860024924959404" lon="12.050173148535684"><ele>-7.0</ele><time>2026-03-28T15:34:27.999Z</time></trkpt><trkpt lat="44.86008723009791" lon="12.050131467982732"><ele>-7.0</ele><time>2026-03-28T15:34:28.999Z</time></trkpt><trkpt lat="44.8601483910918" lon="12.050086098802472"><ele>-7.0</ele><time>2026-03-28T15:34:29.999Z</time></trkpt><trkpt lat="44.86021329909522" lon="12.050040973006285"><ele>-7.0</ele><time>2026-03-28T15:34:30.999Z</time></trkpt><trkpt lat="44.86028041656915" lon="12.049993304872213"><ele>-7.0</ele><time>2026-03-28T15:34:31.999Z</time></trkpt><trkpt lat="44.860344278341394" lon="12.04994623622703"><ele>-7.000000000000001</ele><time>2026-03-28T15:34:32.999Z</time></trkpt><trkpt lat="44.86041140074204" lon="12.049901593820396"><ele>-7.0</ele><time>2026-03-28T15:34:33.999Z</time></trkpt><trkpt lat="44.86047923211993" lon="12.049852172686698"><ele>-7.0</ele><time>2026-03-28T15:34:34.999Z</time></trkpt><trkpt lat="44.860547165102076" lon="12.049804471147574"><ele>-7.0</ele><time>2026-03-28T15:34:35.999Z</time></trkpt><trkpt lat="44.86061378725123" lon="12.049755739279899"><ele>-7.000000000000001</ele><time>2026-03-28T15:34:36.999Z</time></trkpt><trkpt lat="44.86068150475688" lon="12.049703889677382"><ele>-7.0</ele><time>2026-03-28T15:34:37.999Z</time></trkpt><trkpt lat="44.86074920334663" lon="12.049654546293619"><ele>-7.000000000000001</ele><time>2026-03-28T15:34:38.999Z</time></trkpt><trkpt lat="44.860818421866554" lon="12.049608634540506"><ele>-7.0</ele><time>2026-03-28T15:34:39.999Z</time></trkpt><trkpt lat="44.86088843348328" lon="12.049558092256333"><ele>-7.0</ele><time>2026-03-28T15:34:40.999Z</time></trkpt><trkpt lat="44.86095816267151" lon="12.049506931166201"><ele>-7.0</ele><time>2026-03-28T15:34:41.999Z</time></trkpt><trkpt lat="44.8610274588221" lon="12.049459851315607"><ele>-7.000000000000001</ele><time>2026-03-28T15:34:42.999Z</time></trkpt><trkpt lat="44.86109668653237" lon="12.049411822164343"><ele>-7.0</ele><time>2026-03-28T15:34:43.999Z</time></trkpt><trkpt lat="44.86116313522004" lon="12.049361484399137"><ele>-6.666666666666667</ele><time>2026-03-28T15:34:44.999Z</time></trkpt><trkpt lat="44.86123131404029" lon="12.049313175059849"><ele>-6.333333333333334</ele><time>2026-03-28T15:34:45.999Z</time></trkpt><trkpt lat="44.86129904284052" lon="12.049263026119007"><ele>-6.0</ele><time>2026-03-28T15:34:46.999Z</time></trkpt><trkpt lat="44.86136630972996" lon="12.049210936205174"><ele>-5.666666666666667</ele><time>2026-03-28T15:34:47.999Z</time></trkpt><trkpt lat="44.86143445363761" lon="12.049159441372671"><ele>-5.333333333333334</ele><time>2026-03-28T15:34:48.999Z</time></trkpt><trkpt lat="44.86150296204742" lon="12.049107711714427"><ele>-5.0</ele><time>2026-03-28T15:34:49.999Z</time></trkpt><trkpt lat="44.86157133047749" lon="12.04905611718861"><ele>-5.0</ele><time>2026-03-28T15:34:50.999Z</time></trkpt><trkpt lat="44.861640942736976" lon="12.049007409151095"><ele>-5.0</ele><time>2026-03-28T15:34:51.999Z</time></trkpt><trkpt lat="44.86171047011508" lon="12.048961847253265"><ele>-5.0</ele><time>2026-03-28T15:34:52.999Z</time></trkpt><trkpt lat="44.86177917481303" lon="12.048911899380817"><ele>-5.0</ele><time>2026-03-28T15:34:53.999Z</time></trkpt><trkpt lat="44.86184664598102" lon="12.04886174789961"><ele>-5.0</ele><time>2026-03-28T15:34:54.999Z</time></trkpt><trkpt lat="44.86191509457828" lon="12.048811867785547"><ele>-5.0</ele><time>2026-03-28T15:34:55.999Z</time></trkpt><trkpt lat="44.86198298270188" lon="12.048759852206876"><ele>-5.166666666666667</ele><time>2026-03-28T15:34:56.999Z</time></trkpt><trkpt lat="44.8620514697281" lon="12.04870864094431"><ele>-5.333333333333334</ele><time>2026-03-28T15:34:57.999Z</time></trkpt><trkpt lat="44.86211998291959" lon="12.048659858636116"><ele>-5.5</ele><time>2026-03-28T15:34:58.999Z</time></trkpt><trkpt lat="44.86218702262629" lon="12.048609266107082"><ele>-5.666666666666667</ele><time>2026-03-28T15:34:59.999Z</time></trkpt><trkpt lat="44.862254708224235" lon="12.048558634652153"><ele>-5.833333333333333</ele><time>2026-03-28T15:35:00.999Z</time></trkpt><trkpt lat="44.862323362237646" lon="12.0485122599489"><ele>-6.0</ele><time>2026-03-28T15:35:01.999Z</time></trkpt><trkpt lat="44.86239072164507" lon="12.048461063435084"><ele>-6.0</ele><time>2026-03-28T15:35:02.999Z</time></trkpt><trkpt lat="44.862459618963655" lon="12.048414821580986"><ele>-6.0</ele><time>2026-03-28T15:35:03.999Z</time></trkpt><trkpt lat="44.86252632907809" lon="12.048361766194509"><ele>-6.0</ele><time>2026-03-28T15:35:04.999Z</time></trkpt><trkpt lat="44.862594783950726" lon="12.048313701069572"><ele>-6.0</ele><time>2026-03-28T15:35:05.999Z</time></trkpt><trkpt lat="44.862663461043134" lon="12.048266956897288"><ele>-6.0</ele><time>2026-03-28T15:35:06.999Z</time></trkpt><trkpt lat="44.86273176590135" lon="12.048217402695162"><ele>-6.0</ele><time>2026-03-28T15:35:08Z</time></trkpt><trkpt lat="44.86280052556227" lon="12.048169506213531"><ele>-6.0</ele><time>2026-03-28T15:35:09Z</time></trkpt><trkpt lat="44.862869013737814" lon="12.048121000549559"><ele>-6.0</ele><time>2026-03-28T15:35:10Z</time></trkpt><trkpt lat="44.862935032656964" lon="12.048070439919675"><ele>-6.0</ele><time>2026-03-28T15:35:11Z</time></trkpt><trkpt lat="44.86300315167639" lon="12.04802112373573"><ele>-6.0</ele><time>2026-03-28T15:35:12Z</time></trkpt><trkpt lat="44.86307130929088" lon="12.047970261599506"><ele>-6.0</ele><time>2026-03-28T15:35:13Z</time></trkpt><trkpt lat="44.863139710913586" lon="12.04792091532869"><ele>-6.0</ele><time>2026-03-28T15:35:14Z</time></trkpt><trkpt lat="44.863211028082404" lon="12.047876603780814"><ele>-6.0</ele><time>2026-03-28T15:35:15Z</time></trkpt><trkpt lat="44.863278313378416" lon="12.047830090698156"><ele>-6.0</ele><time>2026-03-28T15:35:16Z</time></trkpt><trkpt lat="44.86334585172201" lon="12.04778092321751"><ele>-6.0</ele><time>2026-03-28T15:35:17Z</time></trkpt><trkpt lat="44.86341465721322" lon="12.047733449276894"><ele>-6.0</ele><time>2026-03-28T15:35:18Z</time></trkpt><trkpt lat="44.863481722783796" lon="12.047682944056563"><ele>-6.0</ele><time>2026-03-28T15:35:19Z</time></trkpt><trkpt lat="44.863547146720116" lon="12.047633225688616"><ele>-6.0</ele><time>2026-03-28T15:35:20Z</time></trkpt><trkpt lat="44.86361439450139" lon="12.047586238203133"><ele>-6.333333333333333</ele><time>2026-03-28T15:35:21Z</time></trkpt><trkpt lat="44.863679862530155" lon="12.047539040138062"><ele>-6.666666666666666</ele><time>2026-03-28T15:35:22Z</time></trkpt><trkpt lat="44.86374596662396" lon="12.0474901221429"><ele>-7.0</ele><time>2026-03-28T15:35:23Z</time></trkpt><trkpt lat="44.86381359264085" lon="12.047443212069242"><ele>-7.333333333333333</ele><time>2026-03-28T15:35:24Z</time></trkpt><trkpt lat="44.863881231659114" lon="12.047394097038529"><ele>-7.666666666666666</ele><time>2026-03-28T15:35:25Z</time></trkpt><trkpt lat="44.863946784851514" lon="12.047344755588794"><ele>-8.0</ele><time>2026-03-28T15:35:26Z</time></trkpt><trkpt lat="44.86401389164963" lon="12.04729513540662"><ele>-7.999999999999999</ele><time>2026-03-28T15:35:27Z</time></trkpt><trkpt lat="44.86408206052988" lon="12.047245999199331"><ele>-8.0</ele><time>2026-03-28T15:35:28Z</time></trkpt><trkpt lat="44.86415128496217" lon="12.047199479852644"><ele>-8.0</ele><time>2026-03-28T15:35:29Z</time></trkpt><trkpt lat="44.8642175125422" lon="12.047148117779173"><ele>-8.0</ele><time>2026-03-28T15:35:30Z</time></trkpt><trkpt lat="44.86428325004543" lon="12.047098362064341"><ele>-7.999999999999999</ele><time>2026-03-28T15:35:31Z</time></trkpt><trkpt lat="44.86435106610767" lon="12.047051809120457"><ele>-8.0</ele><time>2026-03-28T15:35:32Z</time></trkpt><trkpt lat="44.86441787033968" lon="12.04700094844043"><ele>-7.7142857142857135</ele><time>2026-03-28T15:35:33Z</time></trkpt><trkpt lat="44.86448670799903" lon="12.046955846702158"><ele>-7.428571428571428</ele><time>2026-03-28T15:35:34Z</time></trkpt><trkpt lat="44.864554316231036" lon="12.046906477644228"><ele>-7.142857142857142</ele><time>2026-03-28T15:35:35Z</time></trkpt><trkpt lat="44.86461959254248" lon="12.046854406547194"><ele>-6.857142857142857</ele><time>2026-03-28T15:35:36Z</time></trkpt><trkpt lat="44.86468995500134" lon="12.046822958862736"><ele>-6.571428571428571</ele><time>2026-03-28T15:35:37Z</time></trkpt><trkpt lat="44.86475309205191" lon="12.046778035503642"><ele>-6.285714285714285</ele><time>2026-03-28T15:35:38Z</time></trkpt><trkpt lat="44.86481518626869" lon="12.04673385415065"><ele>-6.0</ele><time>2026-03-28T15:35:39Z</time></trkpt><trkpt lat="44.86487059563346" lon="12.046675476892057"><ele>-6.0</ele><time>2026-03-28T15:35:40Z</time></trkpt><trkpt lat="44.864931466708974" lon="12.046637395261937"><ele>-6.0</ele><time>2026-03-28T15:35:41Z</time></trkpt><trkpt lat="44.86498680243047" lon="12.046592618857192"><ele>-6.0</ele><time>2026-03-28T15:35:42Z</time></trkpt><trkpt lat="44.865042792022095" lon="12.046550710366095"><ele>-6.0</ele><time>2026-03-28T15:35:43Z</time></trkpt><trkpt lat="44.86515142614157" lon="12.046493376197546"><ele>-6.0</ele><time>2026-03-28T15:35:45Z</time></trkpt><trkpt lat="44.865247023013644" lon="12.04642290527325"><ele>-6.0</ele><time>2026-03-28T15:35:47Z</time></trkpt><trkpt lat="44.86533283874831" lon="12.046352635933554"><ele>-5.6</ele><time>2026-03-28T15:35:49Z</time></trkpt><trkpt lat="44.865420849324856" lon="12.04629450636635"><ele>-5.199999999999999</ele><time>2026-03-28T15:35:51Z</time></trkpt><trkpt lat="44.8655039702387" lon="12.04623043433016"><ele>-4.800000000000001</ele><time>2026-03-28T15:35:53Z</time></trkpt><trkpt lat="44.86559101506096" lon="12.046165777412545"><ele>-4.4</ele><time>2026-03-28T15:35:55Z</time></trkpt><trkpt lat="44.86568676456931" lon="12.046097089709356"><ele>-4.0</ele><time>2026-03-28T15:35:57Z</time></trkpt><trkpt lat="44.865784274217866" lon="12.046025569481937"><ele>-3.9999999999999996</ele><time>2026-03-28T15:35:59Z</time></trkpt><trkpt lat="44.86588166333654" lon="12.04594732882443"><ele>-4.0</ele><time>2026-03-28T15:36:01Z</time></trkpt><trkpt lat="44.86599134492181" lon="12.045875646299049"><ele>-4.0</ele><time>2026-03-28T15:36:03Z</time></trkpt><trkpt lat="44.866046607882375" lon="12.045830756273538"><ele>-4.0</ele><time>2026-03-28T15:36:04Z</time></trkpt><trkpt lat="44.86610457667696" lon="12.045786324809692"><ele>-3.9999999999999996</ele><time>2026-03-28T15:36:05Z</time></trkpt><trkpt lat="44.86616435820568" lon="12.045741292249485"><ele>-4.0</ele><time>2026-03-28T15:36:06Z</time></trkpt><trkpt lat="44.86622551304302" lon="12.04569954456374"><ele>-4.0</ele><time>2026-03-28T15:36:07Z</time></trkpt><trkpt lat="44.86628747837051" lon="12.045656224318103"><ele>-4.0</ele><time>2026-03-28T15:36:08Z</time></trkpt><trkpt lat="44.866345546908036" lon="12.045611288221489"><ele>-4.0</ele><time>2026-03-28T15:36:09Z</time></trkpt><trkpt lat="44.866461202294445" lon="12.045551363615655"><ele>-4.0</ele><time>2026-03-28T15:36:11Z</time></trkpt><trkpt lat="44.8665570373942" lon="12.045460830059781"><ele>-4.0</ele><time>2026-03-28T15:36:13Z</time></trkpt><trkpt lat="44.866654166702986" lon="12.045398829853065"><ele>-3.9999999999999996</ele><time>2026-03-28T15:36:14.999Z</time></trkpt><trkpt lat="44.86673435905571" lon="12.045333223406589"><ele>-4.0</ele><time>2026-03-28T15:36:16.999Z</time></trkpt><trkpt lat="44.86681319893235" lon="12.045299523048127"><ele>-4.0</ele><time>2026-03-28T15:36:18.999Z</time></trkpt><trkpt lat="44.86687497402725" lon="12.04525532528245"><ele>-4.0</ele><time>2026-03-28T15:36:20.999Z</time></trkpt><trkpt lat="44.86693834596433" lon="12.045196103517743"><ele>-3.9999999999999996</ele><time>2026-03-28T15:36:22.999Z</time></trkpt><trkpt lat="44.86702142436132" lon="12.045142609537093"><ele>-4.0</ele><time>2026-03-28T15:36:24.999Z</time></trkpt><trkpt lat="44.86710950693039" lon="12.045066752269863"><ele>-3.8000000000000003</ele><time>2026-03-28T15:36:26.999Z</time></trkpt><trkpt lat="44.86721273752214" lon="12.045013668043465"><ele>-3.6000000000000005</ele><time>2026-03-28T15:36:28.999Z</time></trkpt><trkpt lat="44.867302279234494" lon="12.044926410595016"><ele>-3.4</ele><time>2026-03-28T15:36:30.999Z</time></trkpt><trkpt lat="44.867397393398285" lon="12.044859581965246"><ele>-3.2</ele><time>2026-03-28T15:36:32.999Z</time></trkpt><trkpt lat="44.867490344802135" lon="12.04480437811687"><ele>-3.0</ele><time>2026-03-28T15:36:34.999Z</time></trkpt><trkpt lat="44.86757359038207" lon="12.044733608501517"><ele>-3.3333333333333335</ele><time>2026-03-28T15:36:36.999Z</time></trkpt><trkpt lat="44.867649501503685" lon="12.044690756849823"><ele>-3.666666666666667</ele><time>2026-03-28T15:36:38.999Z</time></trkpt><trkpt lat="44.86773678314374" lon="12.044663042426311"><ele>-4.0</ele><time>2026-03-28T15:36:40.999Z</time></trkpt><trkpt lat="44.8677874573128" lon="12.044572982050026"><ele>-4.333333333333334</ele><time>2026-03-28T15:36:42.999Z</time></trkpt><trkpt lat="44.86783761935261" lon="12.044477753857832"><ele>-4.666666666666667</ele><time>2026-03-28T15:36:45.999Z</time></trkpt><trkpt lat="44.86786658725323" lon="12.044392597545908"><ele>-5.0</ele><time>2026-03-28T15:37:37Z</time></trkpt><trkpt lat="44.86785745931483" lon="12.0442845863626"><ele>-5.0</ele><time>2026-03-28T15:37:44Z</time></trkpt><trkpt lat="44.86790047264259" lon="12.04419665744953"><ele>-5.0</ele><time>2026-03-28T15:37:47Z</time></trkpt><trkpt lat="44.867925618731725" lon="12.044114660602217"><ele>-5.0</ele><time>2026-03-28T15:37:50Z</time></trkpt><trkpt lat="44.867940610098394" lon="12.04401906563167"><ele>-5.0</ele><time>2026-03-28T15:37:54Z</time></trkpt><trkpt lat="44.86796519935628" lon="12.043924377962144"><ele>-5.0</ele><time>2026-03-28T15:37:59Z</time></trkpt><trkpt lat="44.867968224152136" lon="12.043803442443219"><ele>-5.0</ele><time>2026-03-28T15:38:32.999Z</time></trkpt><trkpt lat="44.86797334670047" lon="12.0437073087662"><ele>-5.0</ele><time>2026-03-28T15:38:34.999Z</time></trkpt><trkpt lat="44.86797136203583" lon="12.043586659934757"><ele>-5.0</ele><time>2026-03-28T15:38:36.999Z</time></trkpt><trkpt lat="44.86797611506998" lon="12.043454903451426"><ele>-5.0</ele><time>2026-03-28T15:38:38.999Z</time></trkpt><trkpt lat="44.8679674124613" lon="12.043307928424722"><ele>-5.0</ele><time>2026-03-28T15:38:40.999Z</time></trkpt><trkpt lat="44.86796686530626" lon="12.043136897907367"><ele>-5.0</ele><time>2026-03-28T15:38:42.999Z</time></trkpt><trkpt lat="44.867966762133065" lon="12.043044706359645"><ele>-5.0</ele><time>2026-03-28T15:38:43.999Z</time></trkpt><trkpt lat="44.867965629664326" lon="12.042950696815886"><ele>-5.0</ele><time>2026-03-28T15:38:44.999Z</time></trkpt><trkpt lat="44.8679622308689" lon="12.04285327790958"><ele>-5.0</ele><time>2026-03-28T15:38:45.999Z</time></trkpt><trkpt lat="44.867961342961415" lon="12.042754084613334"><ele>-5.0</ele><time>2026-03-28T15:38:46.999Z</time></trkpt><trkpt lat="44.867963701426405" lon="12.042655031435885"><ele>-5.0</ele><time>2026-03-28T15:38:47.999Z</time></trkpt><trkpt lat="44.867964084980514" lon="12.04255625363225"><ele>-5.0</ele><time>2026-03-28T15:38:48.999Z</time></trkpt><trkpt lat="44.86796332012688" lon="12.042455413805813"><ele>-5.0</ele><time>2026-03-28T15:38:49.999Z</time></trkpt><trkpt lat="44.867963111937456" lon="12.042353707843745"><ele>-5.0</ele><time>2026-03-28T15:38:50.999Z</time></trkpt><trkpt lat="44.86796232418127" lon="12.042250865132116"><ele>-4.857142857142857</ele><time>2026-03-28T15:38:51.999Z</time></trkpt><trkpt lat="44.86796237214837" lon="12.042147257294543"><ele>-4.714285714285714</ele><time>2026-03-28T15:38:52.999Z</time></trkpt><trkpt lat="44.8679596411432" lon="12.042044794283202"><ele>-4.571428571428571</ele><time>2026-03-28T15:38:53.999Z</time></trkpt><trkpt lat="44.867955551979065" lon="12.041945102110978"><ele>-4.428571428571429</ele><time>2026-03-28T15:38:54.999Z</time></trkpt><trkpt lat="44.86795241408343" lon="12.041850170971498"><ele>-4.285714285714286</ele><time>2026-03-28T15:38:55.999Z</time></trkpt><trkpt lat="44.86795852154503" lon="12.041755612157868"><ele>-4.142857142857142</ele><time>2026-03-28T15:38:56.999Z</time></trkpt><trkpt lat="44.86795267710949" lon="12.041660155675213"><ele>-4.0</ele><time>2026-03-28T15:38:57.999Z</time></trkpt><trkpt lat="44.86795279536346" lon="12.041563925827608"><ele>-3.8571428571428568</ele><time>2026-03-28T15:38:58.999Z</time></trkpt><trkpt lat="44.86795060668623" lon="12.041468659091645"><ele>-3.714285714285714</ele><time>2026-03-28T15:38:59.999Z</time></trkpt><trkpt lat="44.8679484012567" lon="12.041372412056377"><ele>-3.571428571428571</ele><time>2026-03-28T15:39:00.999Z</time></trkpt><trkpt lat="44.86794827053635" lon="12.04127560913271"><ele>-3.4285714285714284</ele><time>2026-03-28T15:39:01.999Z</time></trkpt><trkpt lat="44.86794772456613" lon="12.041181114865008"><ele>-3.2857142857142856</ele><time>2026-03-28T15:39:02.999Z</time></trkpt><trkpt lat="44.86794759287813" lon="12.04108551171673"><ele>-3.1428571428571423</ele><time>2026-03-28T15:39:03.999Z</time></trkpt><trkpt lat="44.867948074933615" lon="12.040988948967861"><ele>-3.0</ele><time>2026-03-28T15:39:04.999Z</time></trkpt><trkpt lat="44.86794893917852" lon="12.040896476764392"><ele>-2.9999999999999996</ele><time>2026-03-28T15:39:05.999Z</time></trkpt><trkpt lat="44.867946580870196" lon="12.04080130558695"><ele>-3.0</ele><time>2026-03-28T15:39:06.999Z</time></trkpt><trkpt lat="44.867942852115725" lon="12.040707039287556"><ele>-3.0</ele><time>2026-03-28T15:39:07.999Z</time></trkpt><trkpt lat="44.86794054930413" lon="12.040607974440055"><ele>-3.0</ele><time>2026-03-28T15:39:08.999Z</time></trkpt><trkpt lat="44.867940697589546" lon="12.04050995114777"><ele>-3.0</ele><time>2026-03-28T15:39:09.999Z</time></trkpt><trkpt lat="44.8679399161918" lon="12.040410073047369"><ele>-2.9999999999999996</ele><time>2026-03-28T15:39:10.999Z</time></trkpt><trkpt lat="44.86794178532905" lon="12.040309380237336"><ele>-3.0</ele><time>2026-03-28T15:39:11.999Z</time></trkpt><trkpt lat="44.8679410597338" lon="12.040206563889974"><ele>-3.3333333333333335</ele><time>2026-03-28T15:39:12.999Z</time></trkpt><trkpt lat="44.86793611295167" lon="12.040104851473048"><ele>-3.666666666666667</ele><time>2026-03-28T15:39:13.999Z</time></trkpt><trkpt lat="44.867940007545734" lon="12.039998805797104"><ele>-4.0</ele><time>2026-03-28T15:39:14.999Z</time></trkpt><trkpt lat="44.86793722443412" lon="12.039889217132053"><ele>-4.333333333333334</ele><time>2026-03-28T15:39:15.999Z</time></trkpt><trkpt lat="44.867934908563335" lon="12.039781382539958"><ele>-4.666666666666667</ele><time>2026-03-28T15:39:16.999Z</time></trkpt><trkpt lat="44.86793707506431" lon="12.039673086295018"><ele>-5.0</ele><time>2026-03-28T15:39:17.999Z</time></trkpt><trkpt lat="44.86792987141611" lon="12.039562201911131"><ele>-5.0</ele><time>2026-03-28T15:39:18.999Z</time></trkpt><trkpt lat="44.867927190266606" lon="12.039452023062418"><ele>-5.0</ele><time>2026-03-28T15:39:20Z</time></trkpt><trkpt lat="44.86792588892546" lon="12.039341980100348"><ele>-5.0</ele><time>2026-03-28T15:39:21Z</time></trkpt><trkpt lat="44.867927849341235" lon="12.03923744619533"><ele>-5.0</ele><time>2026-03-28T15:39:22Z</time></trkpt><trkpt lat="44.867928155461996" lon="12.039132808289418"><ele>-5.0</ele><time>2026-03-28T15:39:23Z</time></trkpt><trkpt lat="44.86792657951274" lon="12.039027311651088"><ele>-5.0</ele><time>2026-03-28T15:39:24Z</time></trkpt><trkpt lat="44.86792761636917" lon="12.038921990567777"><ele>-5.0</ele><time>2026-03-28T15:39:25Z</time></trkpt><trkpt lat="44.867926232039444" lon="12.038817430474484"><ele>-5.0</ele><time>2026-03-28T15:39:26Z</time></trkpt><trkpt lat="44.86792380137846" lon="12.038710168891175"><ele>-5.0</ele><time>2026-03-28T15:39:27Z</time></trkpt><trkpt lat="44.86792481434708" lon="12.03860282037194"><ele>-5.0</ele><time>2026-03-28T15:39:28Z</time></trkpt><trkpt lat="44.86792712785538" lon="12.038498360368287"><ele>-5.0</ele><time>2026-03-28T15:39:29Z</time></trkpt><trkpt lat="44.86792857267451" lon="12.03839180792269"><ele>-5.0</ele><time>2026-03-28T15:39:30Z</time></trkpt><trkpt lat="44.867930762816556" lon="12.038284241040424"><ele>-5.0</ele><time>2026-03-28T15:39:31Z</time></trkpt><trkpt lat="44.86792850754163" lon="12.038177187908225"><ele>-5.0</ele><time>2026-03-28T15:39:32Z</time></trkpt><trkpt lat="44.86792780720653" lon="12.038069821418135"><ele>-5.0</ele><time>2026-03-28T15:39:33Z</time></trkpt><trkpt lat="44.86792805128221" lon="12.037964982115342"><ele>-5.0</ele><time>2026-03-28T15:39:34Z</time></trkpt><trkpt lat="44.86792483193391" lon="12.037858332537102"><ele>-5.0</ele><time>2026-03-28T15:39:35Z</time></trkpt><trkpt lat="44.86792357202735" lon="12.037751423560188"><ele>-5.0</ele><time>2026-03-28T15:39:36Z</time></trkpt><trkpt lat="44.867922581828665" lon="12.037648053763654"><ele>-5.0</ele><time>2026-03-28T15:39:37Z</time></trkpt><trkpt lat="44.867920668321325" lon="12.037543855922829"><ele>-5.0</ele><time>2026-03-28T15:39:38Z</time></trkpt><trkpt lat="44.867918947523" lon="12.03744057235515"><ele>-5.0</ele><time>2026-03-28T15:39:39Z</time></trkpt><trkpt lat="44.867916179770766" lon="12.037335128523146"><ele>-5.0</ele><time>2026-03-28T15:39:40Z</time></trkpt><trkpt lat="44.86791570596162" lon="12.037229321748312"><ele>-5.0</ele><time>2026-03-28T15:39:41Z</time></trkpt><trkpt lat="44.86791505987757" lon="12.037125404474255"><ele>-5.0</ele><time>2026-03-28T15:39:42Z</time></trkpt><trkpt lat="44.86791508150219" lon="12.037016304492807"><ele>-5.0</ele><time>2026-03-28T15:39:43Z</time></trkpt><trkpt lat="44.8679170470361" lon="12.036910715431821"><ele>-5.166666666666667</ele><time>2026-03-28T15:39:44Z</time></trkpt><trkpt lat="44.86792044976801" lon="12.036803936576145"><ele>-5.333333333333334</ele><time>2026-03-28T15:39:45Z</time></trkpt><trkpt lat="44.867929252058126" lon="12.03669500090771"><ele>-5.5</ele><time>2026-03-28T15:39:46Z</time></trkpt><trkpt lat="44.86794124018276" lon="12.036585960267438"><ele>-5.666666666666667</ele><time>2026-03-28T15:39:47Z</time></trkpt><trkpt lat="44.867962153885365" lon="12.036480698550806"><ele>-5.833333333333333</ele><time>2026-03-28T15:39:48Z</time></trkpt><trkpt lat="44.867990913554145" lon="12.036380859315367"><ele>-6.0</ele><time>2026-03-28T15:39:49Z</time></trkpt><trkpt lat="44.8680433787745" lon="12.036296631845811"><ele>-6.0</ele><time>2026-03-28T15:39:50Z</time></trkpt><trkpt lat="44.868070131911324" lon="12.036194400972406"><ele>-6.0</ele><time>2026-03-28T15:39:51Z</time></trkpt><trkpt lat="44.86811471585947" lon="12.036108789821142"><ele>-6.0</ele><time>2026-03-28T15:39:52Z</time></trkpt><trkpt lat="44.86817708909787" lon="12.036044287012505"><ele>-6.0</ele><time>2026-03-28T15:39:53Z</time></trkpt><trkpt lat="44.86821652536204" lon="12.03595238466417"><ele>-6.0</ele><time>2026-03-28T15:39:54Z</time></trkpt><trkpt lat="44.86827251434632" lon="12.035878488000671"><ele>-6.0</ele><time>2026-03-28T15:39:55Z</time></trkpt><trkpt lat="44.868326619308554" lon="12.035807078421255"><ele>-5.999999999999999</ele><time>2026-03-28T15:39:56Z</time></trkpt><trkpt lat="44.86838126681197" lon="12.03573316178547"><ele>-6.0</ele><time>2026-03-28T15:39:57Z</time></trkpt><trkpt lat="44.868435111645915" lon="12.035658474038174"><ele>-6.0</ele><time>2026-03-28T15:39:58Z</time></trkpt><trkpt lat="44.86848315169774" lon="12.035581988288218"><ele>-6.0</ele><time>2026-03-28T15:39:59Z</time></trkpt><trkpt lat="44.868531767664294" lon="12.035506121746831"><ele>-6.0</ele><time>2026-03-28T15:40:00Z</time></trkpt><trkpt lat="44.868583477124965" lon="12.035428947384043"><ele>-5.999999999999999</ele><time>2026-03-28T15:40:01Z</time></trkpt><trkpt lat="44.868636686305166" lon="12.035357977000647"><ele>-6.0</ele><time>2026-03-28T15:40:02Z</time></trkpt><trkpt lat="44.86869177509556" lon="12.035285843158231"><ele>-5.7142857142857135</ele><time>2026-03-28T15:40:03Z</time></trkpt><trkpt lat="44.86874163873733" lon="12.03521109753908"><ele>-5.428571428571429</ele><time>2026-03-28T15:40:04Z</time></trkpt><trkpt lat="44.86879081371317" lon="12.035131807989226"><ele>-5.142857142857142</ele><time>2026-03-28T15:40:05Z</time></trkpt><trkpt lat="44.86884069861915" lon="12.035059164110399"><ele>-4.857142857142857</ele><time>2026-03-28T15:40:06Z</time></trkpt><trkpt lat="44.86889548265474" lon="12.034988381982208"><ele>-4.571428571428571</ele><time>2026-03-28T15:40:07Z</time></trkpt><trkpt lat="44.868947991170856" lon="12.034914856932586"><ele>-4.285714285714286</ele><time>2026-03-28T15:40:08Z</time></trkpt><trkpt lat="44.86899892007989" lon="12.034838142912482"><ele>-4.0</ele><time>2026-03-28T15:40:09Z</time></trkpt><trkpt lat="44.869051697996866" lon="12.034762766915303"><ele>-4.0</ele><time>2026-03-28T15:40:10Z</time></trkpt><trkpt lat="44.86910263783722" lon="12.034688371423812"><ele>-3.9999999999999996</ele><time>2026-03-28T15:40:11Z</time></trkpt><trkpt lat="44.86915443935932" lon="12.034611843173732"><ele>-4.0</ele><time>2026-03-28T15:40:12Z</time></trkpt><trkpt lat="44.86920591821895" lon="12.034536326306192"><ele>-4.0</ele><time>2026-03-28T15:40:13Z</time></trkpt><trkpt lat="44.869257799502265" lon="12.034464538166047"><ele>-3.9999999999999996</ele><time>2026-03-28T15:40:14Z</time></trkpt><trkpt lat="44.86930845463974" lon="12.034388553238852"><ele>-4.0</ele><time>2026-03-28T15:40:15Z</time></trkpt><trkpt lat="44.86935826970435" lon="12.034312501767104"><ele>-4.0</ele><time>2026-03-28T15:40:16Z</time></trkpt><trkpt lat="44.8694072551766" lon="12.034242956033003"><ele>-3.8571428571428568</ele><time>2026-03-28T15:40:17Z</time></trkpt><trkpt lat="44.86945494875921" lon="12.034176241528328"><ele>-3.714285714285714</ele><time>2026-03-28T15:40:18Z</time></trkpt><trkpt lat="44.869500886107694" lon="12.034111135384176"><ele>-3.571428571428571</ele><time>2026-03-28T15:40:19Z</time></trkpt><trkpt lat="44.86954980273798" lon="12.034046717088698"><ele>-3.4285714285714284</ele><time>2026-03-28T15:40:20Z</time></trkpt><trkpt lat="44.86959695758559" lon="12.033982422277187"><ele>-3.2857142857142856</ele><time>2026-03-28T15:40:21Z</time></trkpt><trkpt lat="44.869643867463765" lon="12.033910724609512"><ele>-3.1428571428571423</ele><time>2026-03-28T15:40:22Z</time></trkpt><trkpt lat="44.86969112920829" lon="12.033839513431456"><ele>-3.0</ele><time>2026-03-28T15:40:23Z</time></trkpt><trkpt lat="44.86973732601952" lon="12.033774327242828"><ele>-3.0</ele><time>2026-03-28T15:40:24Z</time></trkpt><trkpt lat="44.869823351041276" lon="12.033644346357464"><ele>-3.0</ele><time>2026-03-28T15:40:26Z</time></trkpt><trkpt lat="44.869869758012456" lon="12.033580806423336"><ele>-3.0</ele><time>2026-03-28T15:40:27Z</time></trkpt><trkpt lat="44.869915344280166" lon="12.033515907038854"><ele>-3.0</ele><time>2026-03-28T15:40:28Z</time></trkpt><trkpt lat="44.869960506189955" lon="12.033446864029242"><ele>-3.0</ele><time>2026-03-28T15:40:29Z</time></trkpt><trkpt lat="44.870006263699295" lon="12.033379139764174"><ele>-3.0</ele><time>2026-03-28T15:40:30Z</time></trkpt><trkpt lat="44.870052286398895" lon="12.033311442784878"><ele>-3.1428571428571423</ele><time>2026-03-28T15:40:31Z</time></trkpt><trkpt lat="44.87009766030081" lon="12.033242275225637"><ele>-3.2857142857142856</ele><time>2026-03-28T15:40:31.999Z</time></trkpt><trkpt lat="44.87014638636907" lon="12.033173318217806"><ele>-3.4285714285714284</ele><time>2026-03-28T15:40:32.999Z</time></trkpt><trkpt lat="44.87019483556819" lon="12.033104155941103"><ele>-3.571428571428571</ele><time>2026-03-28T15:40:33.999Z</time></trkpt><trkpt lat="44.87024310806457" lon="12.033032472789742"><ele>-3.714285714285714</ele><time>2026-03-28T15:40:34.999Z</time></trkpt><trkpt lat="44.87029100178475" lon="12.032961329258281"><ele>-3.8571428571428568</ele><time>2026-03-28T15:40:35.999Z</time></trkpt><trkpt lat="44.87034123661101" lon="12.032889369358035"><ele>-4.0</ele><time>2026-03-28T15:40:36.999Z</time></trkpt><trkpt lat="44.87038792386905" lon="12.032814789815633"><ele>-4.0</ele><time>2026-03-28T15:40:37.999Z</time></trkpt><trkpt lat="44.870438488634086" lon="12.032738918701172"><ele>-3.9999999999999996</ele><time>2026-03-28T15:40:38.999Z</time></trkpt><trkpt lat="44.87048794597148" lon="12.032666302018228"><ele>-4.0</ele><time>2026-03-28T15:40:39.999Z</time></trkpt><trkpt lat="44.87053644965596" lon="12.032591677570233"><ele>-4.0</ele><time>2026-03-28T15:40:40.999Z</time></trkpt><trkpt lat="44.870584119309456" lon="12.032513319590945"><ele>-3.9999999999999996</ele><time>2026-03-28T15:40:41.999Z</time></trkpt><trkpt lat="44.8706362591559" lon="12.032435833606556"><ele>-4.0</ele><time>2026-03-28T15:40:42.999Z</time></trkpt><trkpt lat="44.870689150585264" lon="12.032362209822308"><ele>-4.0</ele><time>2026-03-28T15:40:43.999Z</time></trkpt><trkpt lat="44.87074152486183" lon="12.0322875944807"><ele>-4.0</ele><time>2026-03-28T15:40:44.999Z</time></trkpt><trkpt lat="44.87079356713964" lon="12.032216377204316"><ele>-3.9999999999999996</ele><time>2026-03-28T15:40:45.999Z</time></trkpt><trkpt lat="44.87084520969909" lon="12.032147443326217"><ele>-4.0</ele><time>2026-03-28T15:40:46.999Z</time></trkpt><trkpt lat="44.87089519581816" lon="12.03207449799158"><ele>-4.0</ele><time>2026-03-28T15:40:47.999Z</time></trkpt><trkpt lat="44.87094151889804" lon="12.031996261141023"><ele>-3.9999999999999996</ele><time>2026-03-28T15:40:48.999Z</time></trkpt><trkpt lat="44.871000120609416" lon="12.031940988433169"><ele>-4.0</ele><time>2026-03-28T15:40:49.999Z</time></trkpt><trkpt lat="44.87103701877116" lon="12.031855619153118"><ele>-4.0</ele><time>2026-03-28T15:40:50.999Z</time></trkpt><trkpt lat="44.871087746453846" lon="12.031787314780049"><ele>-4.142857142857142</ele><time>2026-03-28T15:40:51.999Z</time></trkpt><trkpt lat="44.871137859692176" lon="12.031717181004545"><ele>-4.285714285714286</ele><time>2026-03-28T15:40:52.999Z</time></trkpt><trkpt lat="44.87118703479918" lon="12.031646873400131"><ele>-4.428571428571429</ele><time>2026-03-28T15:40:53.999Z</time></trkpt><trkpt lat="44.87123479918022" lon="12.031574723108113"><ele>-4.571428571428571</ele><time>2026-03-28T15:40:54.999Z</time></trkpt><trkpt lat="44.87128133568114" lon="12.031501459248204"><ele>-4.714285714285714</ele><time>2026-03-28T15:40:55.999Z</time></trkpt><trkpt lat="44.87133144291263" lon="12.031428973504815"><ele>-4.857142857142857</ele><time>2026-03-28T15:40:56.999Z</time></trkpt><trkpt lat="44.87138385729064" lon="12.031360098315238"><ele>-5.0</ele><time>2026-03-28T15:40:57.999Z</time></trkpt><trkpt lat="44.8714344994508" lon="12.031285010173296"><ele>-4.5</ele><time>2026-03-28T15:40:58.999Z</time></trkpt><trkpt lat="44.87148499162784" lon="12.031211339550506"><ele>-4.0</ele><time>2026-03-28T15:40:59.999Z</time></trkpt><trkpt lat="44.87153701456252" lon="12.031134606771186"><ele>-3.5</ele><time>2026-03-28T15:41:00.999Z</time></trkpt><trkpt lat="44.871589739424124" lon="12.031060728479908"><ele>-3.0</ele><time>2026-03-28T15:41:01.999Z</time></trkpt><trkpt lat="44.87164436008901" lon="12.030984157064378"><ele>-2.5</ele><time>2026-03-28T15:41:02.999Z</time></trkpt><trkpt lat="44.87170019664715" lon="12.03090731789115"><ele>-2.0</ele><time>2026-03-28T15:41:03.999Z</time></trkpt><trkpt lat="44.871754066029766" lon="12.030829862295302"><ele>-2.333333333333333</ele><time>2026-03-28T15:41:04.999Z</time></trkpt><trkpt lat="44.871804515705875" lon="12.030749336806535"><ele>-2.6666666666666665</ele><time>2026-03-28T15:41:05.999Z</time></trkpt><trkpt lat="44.87186537610206" lon="12.030673184121275"><ele>-3.0</ele><time>2026-03-28T15:41:06.999Z</time></trkpt><trkpt lat="44.87192059877572" lon="12.030597598448804"><ele>-3.333333333333333</ele><time>2026-03-28T15:41:07.999Z</time></trkpt><trkpt lat="44.87197339318981" lon="12.030515088953672"><ele>-3.6666666666666665</ele><time>2026-03-28T15:41:08.999Z</time></trkpt><trkpt lat="44.87202637837392" lon="12.030441976306221"><ele>-4.0</ele><time>2026-03-28T15:41:09.999Z</time></trkpt><trkpt lat="44.87207768030172" lon="12.030364052868414"><ele>-4.0</ele><time>2026-03-28T15:41:10.999Z</time></trkpt><trkpt lat="44.872125639126374" lon="12.030288045433766"><ele>-3.9999999999999996</ele><time>2026-03-28T15:41:11.999Z</time></trkpt><trkpt lat="44.87217939771488" lon="12.0302140565203"><ele>-4.0</ele><time>2026-03-28T15:41:12.999Z</time></trkpt><trkpt lat="44.872233021076255" lon="12.030142150248489"><ele>-4.0</ele><time>2026-03-28T15:41:13.999Z</time></trkpt><trkpt lat="44.872283858307775" lon="12.030067750692913"><ele>-3.9999999999999996</ele><time>2026-03-28T15:41:14.999Z</time></trkpt><trkpt lat="44.872331111173374" lon="12.029999706013294"><ele>-4.0</ele><time>2026-03-28T15:41:15.999Z</time></trkpt><trkpt lat="44.872379048133155" lon="12.029928911029632"><ele>-4.0</ele><time>2026-03-28T15:41:16.999Z</time></trkpt><trkpt lat="44.872429565839035" lon="12.029860798487347"><ele>-4.0</ele><time>2026-03-28T15:41:17.999Z</time></trkpt><trkpt lat="44.87247594395114" lon="12.029788452146622"><ele>-3.9999999999999996</ele><time>2026-03-28T15:41:18.999Z</time></trkpt><trkpt lat="44.872523048382035" lon="12.029717479486589"><ele>-4.0</ele><time>2026-03-28T15:41:19.999Z</time></trkpt><trkpt lat="44.87257189129471" lon="12.029646212463334"><ele>-4.0</ele><time>2026-03-28T15:41:20.999Z</time></trkpt><trkpt lat="44.87261768783093" lon="12.02957674632693"><ele>-3.9999999999999996</ele><time>2026-03-28T15:41:21.999Z</time></trkpt><trkpt lat="44.87266450400803" lon="12.02950778968377"><ele>-4.0</ele><time>2026-03-28T15:41:22.999Z</time></trkpt><trkpt lat="44.87271528424658" lon="12.029438297279876"><ele>-4.0</ele><time>2026-03-28T15:41:23.999Z</time></trkpt><trkpt lat="44.87276474945218" lon="12.029374750985962"><ele>-4.0</ele><time>2026-03-28T15:41:24.999Z</time></trkpt><trkpt lat="44.872812530031325" lon="12.029300733093757"><ele>-3.9999999999999996</ele><time>2026-03-28T15:41:26Z</time></trkpt><trkpt lat="44.872858115590425" lon="12.029219973212868"><ele>-4.0</ele><time>2026-03-28T15:41:27Z</time></trkpt><trkpt lat="44.87290506869289" lon="12.02914579520106"><ele>-4.0</ele><time>2026-03-28T15:41:28Z</time></trkpt><trkpt lat="44.872956248696724" lon="12.029075175982074"><ele>-3.9999999999999996</ele><time>2026-03-28T15:41:29Z</time></trkpt><trkpt lat="44.873004877863416" lon="12.029003978413567"><ele>-4.0</ele><time>2026-03-28T15:41:30Z</time></trkpt><trkpt lat="44.87305486913536" lon="12.028933645022569"><ele>-4.0</ele><time>2026-03-28T15:41:31Z</time></trkpt><trkpt lat="44.87310406801387" lon="12.028862459128044"><ele>-4.0</ele><time>2026-03-28T15:41:32Z</time></trkpt><trkpt lat="44.873152608622696" lon="12.02879083915347"><ele>-3.9999999999999996</ele><time>2026-03-28T15:41:33Z</time></trkpt><trkpt lat="44.873199036937066" lon="12.028717278609392"><ele>-4.0</ele><time>2026-03-28T15:41:34Z</time></trkpt><trkpt lat="44.873248151111476" lon="12.028643771567449"><ele>-4.0</ele><time>2026-03-28T15:41:35Z</time></trkpt><trkpt lat="44.8732982403461" lon="12.028572396716603"><ele>-3.9999999999999996</ele><time>2026-03-28T15:41:36Z</time></trkpt><trkpt lat="44.87334695381558" lon="12.028501020434485"><ele>-4.0</ele><time>2026-03-28T15:41:37Z</time></trkpt><trkpt lat="44.87339678640406" lon="12.028425893596589"><ele>-4.0</ele><time>2026-03-28T15:41:38Z</time></trkpt><trkpt lat="44.87344474299638" lon="12.028350743229842"><ele>-4.142857142857142</ele><time>2026-03-28T15:41:39Z</time></trkpt><trkpt lat="44.87350746423854" lon="12.028292106459304"><ele>-4.285714285714286</ele><time>2026-03-28T15:41:40Z</time></trkpt><trkpt lat="44.873557105981895" lon="12.02821997741423"><ele>-4.428571428571429</ele><time>2026-03-28T15:41:41Z</time></trkpt><trkpt lat="44.873606944694075" lon="12.028147562082669"><ele>-4.571428571428571</ele><time>2026-03-28T15:41:42Z</time></trkpt><trkpt lat="44.87364829422343" lon="12.028060288247007"><ele>-4.714285714285714</ele><time>2026-03-28T15:41:43Z</time></trkpt><trkpt lat="44.873699545602555" lon="12.027989891460647"><ele>-4.857142857142857</ele><time>2026-03-28T15:41:44Z</time></trkpt><trkpt lat="44.87375143488014" lon="12.027916334437004"><ele>-5.0</ele><time>2026-03-28T15:41:45Z</time></trkpt><trkpt lat="44.8738017228071" lon="12.027844448462615"><ele>-5.0</ele><time>2026-03-28T15:41:46Z</time></trkpt><trkpt lat="44.8738525585096" lon="12.027769214513286"><ele>-5.0</ele><time>2026-03-28T15:41:47Z</time></trkpt><trkpt lat="44.87390057502059" lon="12.027695598882662"><ele>-5.0</ele><time>2026-03-28T15:41:48Z</time></trkpt><trkpt lat="44.87395256183192" lon="12.02762098618691"><ele>-5.0</ele><time>2026-03-28T15:41:49Z</time></trkpt><trkpt lat="44.87400352680235" lon="12.027548840895731"><ele>-5.0</ele><time>2026-03-28T15:41:50Z</time></trkpt><trkpt lat="44.87405394140308" lon="12.027473762421561"><ele>-5.0</ele><time>2026-03-28T15:41:51Z</time></trkpt><trkpt lat="44.87410550569034" lon="12.027402172449982"><ele>-5.0</ele><time>2026-03-28T15:41:52Z</time></trkpt><trkpt lat="44.87415205055737" lon="12.027330200828402"><ele>-5.0</ele><time>2026-03-28T15:41:53Z</time></trkpt><trkpt lat="44.87419852365397" lon="12.027261081406603"><ele>-5.0</ele><time>2026-03-28T15:41:54Z</time></trkpt><trkpt lat="44.874246700441404" lon="12.027195863344957"><ele>-5.0</ele><time>2026-03-28T15:41:55Z</time></trkpt><trkpt lat="44.874293131801736" lon="12.027124867175463"><ele>-5.0</ele><time>2026-03-28T15:41:56Z</time></trkpt><trkpt lat="44.87434290918929" lon="12.027056516508598"><ele>-5.0</ele><time>2026-03-28T15:41:57Z</time></trkpt><trkpt lat="44.87439225848872" lon="12.026990411127539"><ele>-5.0</ele><time>2026-03-28T15:41:58Z</time></trkpt><trkpt lat="44.87444012917773" lon="12.026919733529088"><ele>-5.0</ele><time>2026-03-28T15:41:59Z</time></trkpt><trkpt lat="44.8744857928596" lon="12.026847162143014"><ele>-5.0</ele><time>2026-03-28T15:42:00Z</time></trkpt><trkpt lat="44.87453623977221" lon="12.026781083990072"><ele>-5.0</ele><time>2026-03-28T15:42:01Z</time></trkpt><trkpt lat="44.87458680085056" lon="12.026714403492816"><ele>-5.0</ele><time>2026-03-28T15:42:02Z</time></trkpt><trkpt lat="44.8746331730558" lon="12.026640561531005"><ele>-5.0</ele><time>2026-03-28T15:42:03Z</time></trkpt><trkpt lat="44.87468195643861" lon="12.026569671843546"><ele>-5.0</ele><time>2026-03-28T15:42:04Z</time></trkpt><trkpt lat="44.87472690308988" lon="12.026493805715017"><ele>-5.0</ele><time>2026-03-28T15:42:05Z</time></trkpt><trkpt lat="44.87477968807557" lon="12.026425123400548"><ele>-5.0</ele><time>2026-03-28T15:42:06Z</time></trkpt><trkpt lat="44.874824553633964" lon="12.02633973690397"><ele>-4.714285714285714</ele><time>2026-03-28T15:42:07Z</time></trkpt><trkpt lat="44.8748651744229" lon="12.026254553980564"><ele>-4.428571428571429</ele><time>2026-03-28T15:42:08Z</time></trkpt><trkpt lat="44.874888928020496" lon="12.02615424657315"><ele>-4.142857142857142</ele><time>2026-03-28T15:42:09Z</time></trkpt><trkpt lat="44.874927183180475" lon="12.026074413105896"><ele>-3.8571428571428568</ele><time>2026-03-28T15:42:10Z</time></trkpt><trkpt lat="44.87495200107051" lon="12.02597834498957"><ele>-3.571428571428571</ele><time>2026-03-28T15:42:11Z</time></trkpt><trkpt lat="44.874976832337794" lon="12.025883177990083"><ele>-3.2857142857142856</ele><time>2026-03-28T15:42:12Z</time></trkpt><trkpt lat="44.87500066908517" lon="12.025785755056575"><ele>-3.0</ele><time>2026-03-28T15:42:13Z</time></trkpt><trkpt lat="44.87501613743789" lon="12.025692607840465"><ele>-2.9999999999999996</ele><time>2026-03-28T15:42:14Z</time></trkpt><trkpt lat="44.87502570472881" lon="12.025602599218148"><ele>-3.0</ele><time>2026-03-28T15:42:15Z</time></trkpt><trkpt lat="44.87503456511832" lon="12.025504216894864"><ele>-3.0</ele><time>2026-03-28T15:42:16Z</time></trkpt><trkpt lat="44.875045220211874" lon="12.025407814378477"><ele>-3.0</ele><time>2026-03-28T15:42:17Z</time></trkpt><trkpt lat="44.87505703157594" lon="12.025315103903866"><ele>-3.0</ele><time>2026-03-28T15:42:18Z</time></trkpt><trkpt lat="44.87506189686867" lon="12.025217345828713"><ele>-2.9999999999999996</ele><time>2026-03-28T15:42:19Z</time></trkpt><trkpt lat="44.87506433158008" lon="12.025126368609284"><ele>-3.0</ele><time>2026-03-28T15:42:20Z</time></trkpt><trkpt lat="44.87506929855157" lon="12.025036850566371"><ele>-3.0</ele><time>2026-03-28T15:42:21Z</time></trkpt><trkpt lat="44.8750826066008" lon="12.024867172164294"><ele>-3.0</ele><time>2026-03-28T15:42:22.999Z</time></trkpt><trkpt lat="44.87509101101941" lon="12.024695671746628"><ele>-3.0</ele><time>2026-03-28T15:42:24.999Z</time></trkpt><trkpt lat="44.875096364971135" lon="12.024606798449653"><ele>-3.0</ele><time>2026-03-28T15:42:25.999Z</time></trkpt><trkpt lat="44.87510197252108" lon="12.024516255177337"><ele>-3.0</ele><time>2026-03-28T15:42:26.999Z</time></trkpt><trkpt lat="44.87511236113765" lon="12.024336988455904"><ele>-3.1428571428571423</ele><time>2026-03-28T15:42:28.999Z</time></trkpt><trkpt lat="44.875117003253564" lon="12.024241096523932"><ele>-3.2857142857142856</ele><time>2026-03-28T15:42:29.999Z</time></trkpt><trkpt lat="44.87512315325205" lon="12.024144961105367"><ele>-3.4285714285714284</ele><time>2026-03-28T15:42:30.999Z</time></trkpt><trkpt lat="44.87512697703675" lon="12.02404638073543"><ele>-3.571428571428571</ele><time>2026-03-28T15:42:31.999Z</time></trkpt><trkpt lat="44.87513122362398" lon="12.023948674462819"><ele>-3.714285714285714</ele><time>2026-03-28T15:42:32.999Z</time></trkpt><trkpt lat="44.87513536940966" lon="12.023848426064392"><ele>-3.8571428571428568</ele><time>2026-03-28T15:42:33.999Z</time></trkpt><trkpt lat="44.87514135890315" lon="12.023747220887785"><ele>-4.0</ele><time>2026-03-28T15:42:34.999Z</time></trkpt><trkpt lat="44.875151709232675" lon="12.023647016015948"><ele>-4.0</ele><time>2026-03-28T15:42:35.999Z</time></trkpt><trkpt lat="44.87515761714723" lon="12.023545743003591"><ele>-3.9999999999999996</ele><time>2026-03-28T15:42:36.999Z</time></trkpt><trkpt lat="44.87516111790933" lon="12.023444101060695"><ele>-4.0</ele><time>2026-03-28T15:42:37.999Z</time></trkpt><trkpt lat="44.875165914306976" lon="12.023342357833034"><ele>-4.0</ele><time>2026-03-28T15:42:38.999Z</time></trkpt><trkpt lat="44.87517276607425" lon="12.023242512512578"><ele>-3.9999999999999996</ele><time>2026-03-28T15:42:39.999Z</time></trkpt><trkpt lat="44.875179461651456" lon="12.023142114913838"><ele>-4.0</ele><time>2026-03-28T15:42:40.999Z</time></trkpt><trkpt lat="44.87518286247145" lon="12.023044562618482"><ele>-4.0</ele><time>2026-03-28T15:42:41.999Z</time></trkpt><trkpt lat="44.8751897725036" lon="12.022951103357217"><ele>-4.0</ele><time>2026-03-28T15:42:42.999Z</time></trkpt><trkpt lat="44.87519478872712" lon="12.022860063864"><ele>-3.9999999999999996</ele><time>2026-03-28T15:42:43.999Z</time></trkpt><trkpt lat="44.875198579222825" lon="12.022767452268747"><ele>-4.0</ele><time>2026-03-28T15:42:44.999Z</time></trkpt><trkpt lat="44.87520212952747" lon="12.022674109834082"><ele>-4.0</ele><time>2026-03-28T15:42:45.999Z</time></trkpt><trkpt lat="44.87520698975161" lon="12.022579598406024"><ele>-3.9999999999999996</ele><time>2026-03-28T15:42:46.999Z</time></trkpt><trkpt lat="44.87521387635178" lon="12.022485985539415"><ele>-4.0</ele><time>2026-03-28T15:42:47.999Z</time></trkpt><trkpt lat="44.87521932974631" lon="12.022393023365654"><ele>-4.0</ele><time>2026-03-28T15:42:48.999Z</time></trkpt><trkpt lat="44.87522327913019" lon="12.022303926951015"><ele>-3.8571428571428568</ele><time>2026-03-28T15:42:49.999Z</time></trkpt><trkpt lat="44.87522816582905" lon="12.022213113262975"><ele>-3.714285714285714</ele><time>2026-03-28T15:42:50.999Z</time></trkpt><trkpt lat="44.87523312826591" lon="12.022119623688754"><ele>-3.571428571428571</ele><time>2026-03-28T15:42:51.999Z</time></trkpt><trkpt lat="44.875239587436944" lon="12.02202356339707"><ele>-3.4285714285714284</ele><time>2026-03-28T15:42:52.999Z</time></trkpt><trkpt lat="44.87524391557739" lon="12.021927871000567"><ele>-3.2857142857142856</ele><time>2026-03-28T15:42:53.999Z</time></trkpt><trkpt lat="44.875252301898534" lon="12.021829462888128"><ele>-3.1428571428571423</ele><time>2026-03-28T15:42:54.999Z</time></trkpt><trkpt lat="44.87525687319315" lon="12.021730900069485"><ele>-3.0</ele><time>2026-03-28T15:42:55.999Z</time></trkpt><trkpt lat="44.875260455712926" lon="12.021632974440317"><ele>-2.9999999999999996</ele><time>2026-03-28T15:42:56.999Z</time></trkpt><trkpt lat="44.87526608880965" lon="12.021532315138456"><ele>-3.0</ele><time>2026-03-28T15:42:57.999Z</time></trkpt><trkpt lat="44.875283168411684" lon="12.021432926002335"><ele>-3.0</ele><time>2026-03-28T15:42:58.999Z</time></trkpt><trkpt lat="44.87530599070505" lon="12.021336192270528"><ele>-3.0</ele><time>2026-03-28T15:42:59.999Z</time></trkpt><trkpt lat="44.87533352669532" lon="12.021239186046177"><ele>-3.0</ele><time>2026-03-28T15:43:00.999Z</time></trkpt><trkpt lat="44.87536475731145" lon="12.021142612488742"><ele>-2.9999999999999996</ele><time>2026-03-28T15:43:01.999Z</time></trkpt><trkpt lat="44.875400240982806" lon="12.021050660183171"><ele>-3.0</ele><time>2026-03-28T15:43:02.999Z</time></trkpt><trkpt lat="44.87544377109231" lon="12.02096504598049"><ele>-2.9999999999999996</ele><time>2026-03-28T15:43:03.999Z</time></trkpt><trkpt lat="44.87549008463302" lon="12.020882506555974"><ele>-3.0</ele><time>2026-03-28T15:43:04.999Z</time></trkpt><trkpt lat="44.87554198053159" lon="12.02080510887404"><ele>-3.0</ele><time>2026-03-28T15:43:05.999Z</time></trkpt><trkpt lat="44.875597845828715" lon="12.020736391171141"><ele>-3.0</ele><time>2026-03-28T15:43:06.999Z</time></trkpt><trkpt lat="44.875655735871916" lon="12.020678859664978"><ele>-3.0</ele><time>2026-03-28T15:43:07.999Z</time></trkpt><trkpt lat="44.87571700990557" lon="12.020620090434239"><ele>-2.9999999999999996</ele><time>2026-03-28T15:43:08.999Z</time></trkpt><trkpt lat="44.87577728857212" lon="12.020564702164927"><ele>-3.0</ele><time>2026-03-28T15:43:09.999Z</time></trkpt><trkpt lat="44.875835234239815" lon="12.02050800092171"><ele>-3.1428571428571423</ele><time>2026-03-28T15:43:10.999Z</time></trkpt><trkpt lat="44.875892828209665" lon="12.020447079992447"><ele>-3.2857142857142856</ele><time>2026-03-28T15:43:11.999Z</time></trkpt><trkpt lat="44.87595019342493" lon="12.020388154550044"><ele>-3.4285714285714284</ele><time>2026-03-28T15:43:12.999Z</time></trkpt><trkpt lat="44.87600815180519" lon="12.02033084734295"><ele>-3.571428571428571</ele><time>2026-03-28T15:43:13.999Z</time></trkpt><trkpt lat="44.87606638837304" lon="12.02027099724876"><ele>-3.714285714285714</ele><time>2026-03-28T15:43:14.999Z</time></trkpt><trkpt lat="44.87612155165907" lon="12.020211741650098"><ele>-3.8571428571428568</ele><time>2026-03-28T15:43:15.999Z</time></trkpt><trkpt lat="44.876174410479834" lon="12.020155089992121"><ele>-4.0</ele><time>2026-03-28T15:43:16.999Z</time></trkpt><trkpt lat="44.87627855899866" lon="12.020057630995433"><ele>-4.0</ele><time>2026-03-28T15:43:18.999Z</time></trkpt><trkpt lat="44.876334742912825" lon="12.020007538841513"><ele>-3.9999999999999996</ele><time>2026-03-28T15:43:19.999Z</time></trkpt><trkpt lat="44.87638870468386" lon="12.019955436462725"><ele>-4.0</ele><time>2026-03-28T15:43:20.999Z</time></trkpt><trkpt lat="44.87643998684748" lon="12.019900102897457"><ele>-4.0</ele><time>2026-03-28T15:43:21.999Z</time></trkpt><trkpt lat="44.87649472304524" lon="12.019842915541588"><ele>-3.9999999999999996</ele><time>2026-03-28T15:43:22.999Z</time></trkpt><trkpt lat="44.87654694229606" lon="12.01979162014907"><ele>-4.0</ele><time>2026-03-28T15:43:23.999Z</time></trkpt><trkpt lat="44.87664486701427" lon="12.01969581342936"><ele>-4.0</ele><time>2026-03-28T15:43:25.999Z</time></trkpt><trkpt lat="44.8767356197989" lon="12.019599707844273"><ele>-3.833333333333333</ele><time>2026-03-28T15:43:27.999Z</time></trkpt><trkpt lat="44.87683508379514" lon="12.019511167886167"><ele>-3.6666666666666665</ele><time>2026-03-28T15:43:29.999Z</time></trkpt><trkpt lat="44.876933703266666" lon="12.01940916924058"><ele>-3.5</ele><time>2026-03-28T15:43:32Z</time></trkpt><trkpt lat="44.87698543780523" lon="12.019357983866575"><ele>-3.333333333333333</ele><time>2026-03-28T15:43:33Z</time></trkpt><trkpt lat="44.87703736781509" lon="12.019303552646088"><ele>-3.1666666666666665</ele><time>2026-03-28T15:43:34Z</time></trkpt><trkpt lat="44.87709141475009" lon="12.019247826274288"><ele>-3.0</ele><time>2026-03-28T15:43:35Z</time></trkpt><trkpt lat="44.87714506351105" lon="12.019193022250223"><ele>-2.9999999999999996</ele><time>2026-03-28T15:43:36Z</time></trkpt><trkpt lat="44.87720165625585" lon="12.019139560967151"><ele>-3.0</ele><time>2026-03-28T15:43:37Z</time></trkpt><trkpt lat="44.87725651974469" lon="12.019085154921518"><ele>-3.0</ele><time>2026-03-28T15:43:38Z</time></trkpt><trkpt lat="44.87731003974523" lon="12.019027301634766"><ele>-3.0</ele><time>2026-03-28T15:43:39Z</time></trkpt><trkpt lat="44.877363904601445" lon="12.01896310065813"><ele>-3.0</ele><time>2026-03-28T15:43:40Z</time></trkpt><trkpt lat="44.877414414480235" lon="12.018894744366682"><ele>-2.9999999999999996</ele><time>2026-03-28T15:43:41Z</time></trkpt><trkpt lat="44.87746225400497" lon="12.018821722843049"><ele>-3.0</ele><time>2026-03-28T15:43:42Z</time></trkpt><trkpt lat="44.877507683071045" lon="12.018746844963967"><ele>-2.9999999999999996</ele><time>2026-03-28T15:43:43Z</time></trkpt><trkpt lat="44.87755368100189" lon="12.01866956840229"><ele>-3.0</ele><time>2026-03-28T15:43:44Z</time></trkpt><trkpt lat="44.87759766456229" lon="12.018588662846174"><ele>-3.0</ele><time>2026-03-28T15:43:45Z</time></trkpt><trkpt lat="44.87763991672848" lon="12.018505324089254"><ele>-3.0</ele><time>2026-03-28T15:43:46Z</time></trkpt><trkpt lat="44.877675898036806" lon="12.018420377652502"><ele>-3.0</ele><time>2026-03-28T15:43:47Z</time></trkpt><trkpt lat="44.8777068827559" lon="12.01833638646038"><ele>-2.9999999999999996</ele><time>2026-03-28T15:43:48Z</time></trkpt><trkpt lat="44.87773416299301" lon="12.018246808636498"><ele>-3.0</ele><time>2026-03-28T15:43:49Z</time></trkpt><trkpt lat="44.877761656034366" lon="12.018155929426998"><ele>-2.8571428571428568</ele><time>2026-03-28T15:43:50Z</time></trkpt><trkpt lat="44.87778696529513" lon="12.018063209025927"><ele>-2.7142857142857144</ele><time>2026-03-28T15:43:51Z</time></trkpt><trkpt lat="44.87781078578175" lon="12.017969007785874"><ele>-2.571428571428571</ele><time>2026-03-28T15:43:52Z</time></trkpt><trkpt lat="44.87783670382542" lon="12.017878511977134"><ele>-2.4285714285714284</ele><time>2026-03-28T15:43:53Z</time></trkpt><trkpt lat="44.877859936224226" lon="12.01778408754556"><ele>-2.2857142857142856</ele><time>2026-03-28T15:43:54Z</time></trkpt><trkpt lat="44.8778832202444" lon="12.01769458753024"><ele>-2.142857142857143</ele><time>2026-03-28T15:43:55Z</time></trkpt><trkpt lat="44.87790666417765" lon="12.017611690530298"><ele>-2.0</ele><time>2026-03-28T15:43:56Z</time></trkpt><trkpt lat="44.87792920354674" lon="12.01752835972937"><ele>-1.8333333333333333</ele><time>2026-03-28T15:43:57Z</time></trkpt><trkpt lat="44.87795277229571" lon="12.017442007124862"><ele>-1.6666666666666665</ele><time>2026-03-28T15:43:58Z</time></trkpt><trkpt lat="44.87797419905464" lon="12.017353433494252"><ele>-1.5</ele><time>2026-03-28T15:43:59Z</time></trkpt><trkpt lat="44.878017365279" lon="12.017188952346348"><ele>-1.3333333333333333</ele><time>2026-03-28T15:44:01Z</time></trkpt><trkpt lat="44.87803987653481" lon="12.017103470511415"><ele>-1.1666666666666665</ele><time>2026-03-28T15:44:02Z</time></trkpt><trkpt lat="44.87806202635694" lon="12.017018162985298"><ele>-1.0</ele><time>2026-03-28T15:44:03Z</time></trkpt><trkpt lat="44.87808406378254" lon="12.016929098384"><ele>-1.0</ele><time>2026-03-28T15:44:04Z</time></trkpt><trkpt lat="44.87810684101395" lon="12.01683965646386"><ele>-0.9999999999999999</ele><time>2026-03-28T15:44:05Z</time></trkpt><trkpt lat="44.87812869377588" lon="12.016751838586503"><ele>-1.0</ele><time>2026-03-28T15:44:06Z</time></trkpt><trkpt lat="44.87815194150646" lon="12.016661897407923"><ele>-1.0</ele><time>2026-03-28T15:44:07Z</time></trkpt><trkpt lat="44.87817638221113" lon="12.01657200036981"><ele>-0.9999999999999999</ele><time>2026-03-28T15:44:08Z</time></trkpt><trkpt lat="44.87820090632906" lon="12.016481499136576"><ele>-1.0</ele><time>2026-03-28T15:44:09Z</time></trkpt><trkpt lat="44.87822282737992" lon="12.016389527675253"><ele>-1.0</ele><time>2026-03-28T15:44:10Z</time></trkpt><trkpt lat="44.87824662793607" lon="12.016296292837255"><ele>-1.3333333333333333</ele><time>2026-03-28T15:44:11Z</time></trkpt><trkpt lat="44.87827130729573" lon="12.016208482957685"><ele>-1.6666666666666665</ele><time>2026-03-28T15:44:12Z</time></trkpt><trkpt lat="44.87829707926019" lon="12.016118281261367"><ele>-2.0</ele><time>2026-03-28T15:44:13Z</time></trkpt><trkpt lat="44.87831845985567" lon="12.016032322754349"><ele>-2.3333333333333335</ele><time>2026-03-28T15:44:14Z</time></trkpt><trkpt lat="44.87833871005266" lon="12.015945275716046"><ele>-2.6666666666666665</ele><time>2026-03-28T15:44:15Z</time></trkpt><trkpt lat="44.87837954257308" lon="12.015783783734035"><ele>-3.0</ele><time>2026-03-28T15:44:17Z</time></trkpt><trkpt lat="44.87842641917687" lon="12.01563712577243"><ele>-3.0</ele><time>2026-03-28T15:44:19Z</time></trkpt><trkpt lat="44.87846745033963" lon="12.015468254550644"><ele>-3.0</ele><time>2026-03-28T15:44:21Z</time></trkpt><trkpt lat="44.87848952691803" lon="12.015384708344289"><ele>-3.0</ele><time>2026-03-28T15:44:22Z</time></trkpt><trkpt lat="44.878512231522826" lon="12.015296046973816"><ele>-3.0</ele><time>2026-03-28T15:44:23Z</time></trkpt><trkpt lat="44.87853528724598" lon="12.015209605260791"><ele>-3.0</ele><time>2026-03-28T15:44:24Z</time></trkpt><trkpt lat="44.87855761415347" lon="12.015122438646758"><ele>-3.0</ele><time>2026-03-28T15:44:25Z</time></trkpt><trkpt lat="44.878583721264384" lon="12.015035398871598"><ele>-3.2857142857142856</ele><time>2026-03-28T15:44:26Z</time></trkpt><trkpt lat="44.8786068598009" lon="12.014947316448904"><ele>-3.571428571428571</ele><time>2026-03-28T15:44:27Z</time></trkpt><trkpt lat="44.878628787177455" lon="12.014857675609509"><ele>-3.8571428571428568</ele><time>2026-03-28T15:44:28Z</time></trkpt><trkpt lat="44.878652401332936" lon="12.014764870725418"><ele>-4.142857142857142</ele><time>2026-03-28T15:44:29Z</time></trkpt><trkpt lat="44.87867462793087" lon="12.0146743358764"><ele>-4.428571428571429</ele><time>2026-03-28T15:44:30Z</time></trkpt><trkpt lat="44.878699599947694" lon="12.014585235067326"><ele>-4.714285714285714</ele><time>2026-03-28T15:44:31Z</time></trkpt><trkpt lat="44.878724961311256" lon="12.014500634439406"><ele>-5.0</ele><time>2026-03-28T15:44:32Z</time></trkpt><trkpt lat="44.87874444194142" lon="12.01441516599219"><ele>-5.0</ele><time>2026-03-28T15:44:32.999Z</time></trkpt><trkpt lat="44.87876544002073" lon="12.01433091238829"><ele>-5.0</ele><time>2026-03-28T15:44:33.999Z</time></trkpt><trkpt lat="44.87878745304186" lon="12.014245161250562"><ele>-5.0</ele><time>2026-03-28T15:44:34.999Z</time></trkpt><trkpt lat="44.878816651592096" lon="12.014091143939394"><ele>-5.0</ele><time>2026-03-28T15:44:36.999Z</time></trkpt><trkpt lat="44.87885841074058" lon="12.013951063469339"><ele>-5.0</ele><time>2026-03-28T15:44:38.999Z</time></trkpt><trkpt lat="44.878889921583095" lon="12.013819118395716"><ele>-5.0</ele><time>2026-03-28T15:44:40.999Z</time></trkpt><trkpt lat="44.87892813479925" lon="12.013695295553468"><ele>-5.0</ele><time>2026-03-28T15:44:42.999Z</time></trkpt><trkpt lat="44.878961907972624" lon="12.013571646139779"><ele>-5.0</ele><time>2026-03-28T15:44:44.999Z</time></trkpt><trkpt lat="44.87899748748174" lon="12.013447730624206"><ele>-5.0</ele><time>2026-03-28T15:44:46.999Z</time></trkpt><trkpt lat="44.879032116296464" lon="12.013319215296898"><ele>-5.0</ele><time>2026-03-28T15:44:48.999Z</time></trkpt><trkpt lat="44.87906855379333" lon="12.013187435975887"><ele>-5.0</ele><time>2026-03-28T15:44:50.999Z</time></trkpt><trkpt lat="44.87909947251959" lon="12.013050517005787"><ele>-5.0</ele><time>2026-03-28T15:44:52.999Z</time></trkpt><trkpt lat="44.879134510678014" lon="12.012911725448717"><ele>-5.0</ele><time>2026-03-28T15:44:54.999Z</time></trkpt><trkpt lat="44.87916722854379" lon="12.012781386883425"><ele>-5.0</ele><time>2026-03-28T15:44:56.999Z</time></trkpt><trkpt lat="44.87920322267071" lon="12.012656834794765"><ele>-5.0</ele><time>2026-03-28T15:44:58.999Z</time></trkpt><trkpt lat="44.87923238295347" lon="12.012530574005"><ele>-5.0</ele><time>2026-03-28T15:45:00.999Z</time></trkpt><trkpt lat="44.879268537298174" lon="12.012417351514486"><ele>-5.0</ele><time>2026-03-28T15:45:02.999Z</time></trkpt><trkpt lat="44.8792969680974" lon="12.01230108175408"><ele>-5.0</ele><time>2026-03-28T15:45:04.999Z</time></trkpt><trkpt lat="44.87933080192316" lon="12.012185698842845"><ele>-5.0</ele><time>2026-03-28T15:45:06.999Z</time></trkpt><trkpt lat="44.879365358399816" lon="12.01205469794576"><ele>-5.0</ele><time>2026-03-28T15:45:08.999Z</time></trkpt><trkpt lat="44.879402326504575" lon="12.011923447976722"><ele>-5.0</ele><time>2026-03-28T15:45:10.999Z</time></trkpt><trkpt lat="44.87943456683115" lon="12.011786477490729"><ele>-4.8</ele><time>2026-03-28T15:45:12.999Z</time></trkpt><trkpt lat="44.8794760373894" lon="12.011656627682383"><ele>-4.6</ele><time>2026-03-28T15:45:14.999Z</time></trkpt><trkpt lat="44.87950852545456" lon="12.011514990777622"><ele>-4.4</ele><time>2026-03-28T15:45:16.999Z</time></trkpt><trkpt lat="44.879547130313476" lon="12.01136072334752"><ele>-4.2</ele><time>2026-03-28T15:45:18.999Z</time></trkpt><trkpt lat="44.87958779838245" lon="12.011198233950529"><ele>-4.0</ele><time>2026-03-28T15:45:20.999Z</time></trkpt><trkpt lat="44.87960729719396" lon="12.011112348336296"><ele>-3.9999999999999996</ele><time>2026-03-28T15:45:21.999Z</time></trkpt><trkpt lat="44.87965689656825" lon="12.01094775378005"><ele>-4.0</ele><time>2026-03-28T15:45:23.999Z</time></trkpt><trkpt lat="44.879700414109095" lon="12.010787513730946"><ele>-4.0</ele><time>2026-03-28T15:45:25.999Z</time></trkpt><trkpt lat="44.87972168895873" lon="12.010703631854057"><ele>-4.0</ele><time>2026-03-28T15:45:26.999Z</time></trkpt><trkpt lat="44.87974532150844" lon="12.010619785204998"><ele>-3.9999999999999996</ele><time>2026-03-28T15:45:27.999Z</time></trkpt><trkpt lat="44.87976643840998" lon="12.01053291436001"><ele>-4.0</ele><time>2026-03-28T15:45:28.999Z</time></trkpt><trkpt lat="44.879788932245525" lon="12.010447508712398"><ele>-4.0</ele><time>2026-03-28T15:45:29.999Z</time></trkpt><trkpt lat="44.87980862967272" lon="12.010359689832727"><ele>-4.0</ele><time>2026-03-28T15:45:30.999Z</time></trkpt><trkpt lat="44.87985088903825" lon="12.01020485700782"><ele>-4.0</ele><time>2026-03-28T15:45:32.999Z</time></trkpt><trkpt lat="44.87988544414228" lon="12.01006128261543"><ele>-4.0</ele><time>2026-03-28T15:45:34.999Z</time></trkpt><trkpt lat="44.87992576664287" lon="12.009909595155294"><ele>-4.0</ele><time>2026-03-28T15:45:36.999Z</time></trkpt><trkpt lat="44.87997478612748" lon="12.009750257559727"><ele>-4.0</ele><time>2026-03-28T15:45:39Z</time></trkpt><trkpt lat="44.880012389508174" lon="12.009589884567635"><ele>-4.0</ele><time>2026-03-28T15:45:41Z</time></trkpt><trkpt lat="44.88004832315918" lon="12.009445929109338"><ele>-4.0</ele><time>2026-03-28T15:45:43Z</time></trkpt><trkpt lat="44.88008671263449" lon="12.009306668457274"><ele>-4.0</ele><time>2026-03-28T15:45:45Z</time></trkpt><trkpt lat="44.88012644228377" lon="12.009165917523722"><ele>-4.0</ele><time>2026-03-28T15:45:47Z</time></trkpt><trkpt lat="44.88016293227587" lon="12.009015365748585"><ele>-4.0</ele><time>2026-03-28T15:45:49Z</time></trkpt><trkpt lat="44.88020061613583" lon="12.00887445203415"><ele>-4.0</ele><time>2026-03-28T15:45:51Z</time></trkpt><trkpt lat="44.880250139328275" lon="12.008746076606315"><ele>-4.0</ele><time>2026-03-28T15:45:53Z</time></trkpt><trkpt lat="44.88029163619916" lon="12.008600949683386"><ele>-4.0</ele><time>2026-03-28T15:45:55Z</time></trkpt><trkpt lat="44.88031971598219" lon="12.00844407302182"><ele>-4.0</ele><time>2026-03-28T15:45:57Z</time></trkpt><trkpt lat="44.88035111604007" lon="12.008289143336194"><ele>-3.833333333333333</ele><time>2026-03-28T15:45:59Z</time></trkpt><trkpt lat="44.88039220711928" lon="12.008134373303138"><ele>-3.6666666666666665</ele><time>2026-03-28T15:46:01Z</time></trkpt><trkpt lat="44.88043165135791" lon="12.007973120520385"><ele>-3.5</ele><time>2026-03-28T15:46:03Z</time></trkpt><trkpt lat="44.88045467654231" lon="12.00788894920023"><ele>-3.333333333333333</ele><time>2026-03-28T15:46:04Z</time></trkpt><trkpt lat="44.88047275255167" lon="12.00780130797624"><ele>-3.1666666666666665</ele><time>2026-03-28T15:46:05Z</time></trkpt><trkpt lat="44.8804906181047" lon="12.00771230828339"><ele>-3.0</ele><time>2026-03-28T15:46:06Z</time></trkpt><trkpt lat="44.880509988218776" lon="12.007624300998488"><ele>-2.9999999999999996</ele><time>2026-03-28T15:46:07Z</time></trkpt><trkpt lat="44.88052591432676" lon="12.00753123063323"><ele>-3.0</ele><time>2026-03-28T15:46:08Z</time></trkpt><trkpt lat="44.88054175181133" lon="12.007431019797583"><ele>-3.0</ele><time>2026-03-28T15:46:09Z</time></trkpt><trkpt lat="44.880560257183916" lon="12.007336408986712"><ele>-3.0</ele><time>2026-03-28T15:46:10Z</time></trkpt><trkpt lat="44.88057502780461" lon="12.00723726544773"><ele>-3.0</ele><time>2026-03-28T15:46:11Z</time></trkpt><trkpt lat="44.880590306392556" lon="12.007136232612334"><ele>-2.9999999999999996</ele><time>2026-03-28T15:46:12Z</time></trkpt><trkpt lat="44.88060941922966" lon="12.007036231902067"><ele>-3.0</ele><time>2026-03-28T15:46:13Z</time></trkpt><trkpt lat="44.88062599678467" lon="12.00693693985898"><ele>-2.9999999999999996</ele><time>2026-03-28T15:46:14Z</time></trkpt><trkpt lat="44.88064247763062" lon="12.006835546931809"><ele>-3.0</ele><time>2026-03-28T15:46:15Z</time></trkpt><trkpt lat="44.88065701635758" lon="12.006737902703778"><ele>-3.0</ele><time>2026-03-28T15:46:16Z</time></trkpt><trkpt lat="44.88067411661338" lon="12.00664299971644"><ele>-3.0</ele><time>2026-03-28T15:46:17Z</time></trkpt><trkpt lat="44.880690916341834" lon="12.006548763738843"><ele>-3.0</ele><time>2026-03-28T15:46:18Z</time></trkpt><trkpt lat="44.88070836054105" lon="12.006450910613799"><ele>-2.9999999999999996</ele><time>2026-03-28T15:46:19Z</time></trkpt><trkpt lat="44.880723949690605" lon="12.006353972490967"><ele>-3.0</ele><time>2026-03-28T15:46:20Z</time></trkpt><trkpt lat="44.880737346874376" lon="12.006258881602585"><ele>-2.9999999999999996</ele><time>2026-03-28T15:46:21Z</time></trkpt><trkpt lat="44.88075315547152" lon="12.006163718379621"><ele>-3.0</ele><time>2026-03-28T15:46:22Z</time></trkpt><trkpt lat="44.88076794197852" lon="12.006070221659785"><ele>-3.0</ele><time>2026-03-28T15:46:23Z</time></trkpt><trkpt lat="44.88078429869476" lon="12.005974357213496"><ele>-3.0</ele><time>2026-03-28T15:46:24Z</time></trkpt><trkpt lat="44.88079824700559" lon="12.005879146237545"><ele>-3.0</ele><time>2026-03-28T15:46:25Z</time></trkpt><trkpt lat="44.88081271409813" lon="12.005781940836394"><ele>-2.9999999999999996</ele><time>2026-03-28T15:46:26Z</time></trkpt><trkpt lat="44.88082962458742" lon="12.005686185595824"><ele>-3.0</ele><time>2026-03-28T15:46:27Z</time></trkpt><trkpt lat="44.88084572781476" lon="12.00558898395028"><ele>-2.9999999999999996</ele><time>2026-03-28T15:46:28Z</time></trkpt><trkpt lat="44.88086136056806" lon="12.005491434807942"><ele>-3.0</ele><time>2026-03-28T15:46:29Z</time></trkpt><trkpt lat="44.88087538360888" lon="12.005394581579191"><ele>-3.0</ele><time>2026-03-28T15:46:30Z</time></trkpt><trkpt lat="44.880890877689005" lon="12.005294597101607"><ele>-3.0</ele><time>2026-03-28T15:46:31Z</time></trkpt><trkpt lat="44.88090892875519" lon="12.005196204508543"><ele>-3.0</ele><time>2026-03-28T15:46:32Z</time></trkpt><trkpt lat="44.88092732269354" lon="12.005097176112939"><ele>-2.9999999999999996</ele><time>2026-03-28T15:46:33Z</time></trkpt><trkpt lat="44.88094134894601" lon="12.005002347681286"><ele>-3.0</ele><time>2026-03-28T15:46:33.999Z</time></trkpt><trkpt lat="44.88095496557182" lon="12.00490693585837"><ele>-3.0</ele><time>2026-03-28T15:46:34.999Z</time></trkpt><trkpt lat="44.88096908070195" lon="12.004818636415292"><ele>-3.0</ele><time>2026-03-28T15:46:35.999Z</time></trkpt><trkpt lat="44.88099510538374" lon="12.004649305112384"><ele>-3.0</ele><time>2026-03-28T15:46:37.999Z</time></trkpt><trkpt lat="44.88102117043962" lon="12.004477986185012"><ele>-3.0</ele><time>2026-03-28T15:46:39.999Z</time></trkpt><trkpt lat="44.88103521074027" lon="12.004389280515115"><ele>-3.0</ele><time>2026-03-28T15:46:40.999Z</time></trkpt><trkpt lat="44.881048767695944" lon="12.00429996806697"><ele>-3.0</ele><time>2026-03-28T15:46:41.999Z</time></trkpt><trkpt lat="44.881061575952806" lon="12.004211546974451"><ele>-2.75</ele><time>2026-03-28T15:46:42.999Z</time></trkpt><trkpt lat="44.881087941479244" lon="12.004047380615278"><ele>-2.5</ele><time>2026-03-28T15:46:44.999Z</time></trkpt><trkpt lat="44.88110783272391" lon="12.003889613149285"><ele>-2.25</ele><time>2026-03-28T15:46:46.999Z</time></trkpt><trkpt lat="44.88113653003775" lon="12.003730598952819"><ele>-2.0</ele><time>2026-03-28T15:46:48.999Z</time></trkpt><trkpt lat="44.881165089867544" lon="12.003565115964848"><ele>-1.9999999999999998</ele><time>2026-03-28T15:46:50.999Z</time></trkpt><trkpt lat="44.88119346145908" lon="12.00339297629805"><ele>-2.0</ele><time>2026-03-28T15:46:52.999Z</time></trkpt><trkpt lat="44.88120414805659" lon="12.0033035736968"><ele>-2.0</ele><time>2026-03-28T15:46:53.999Z</time></trkpt><trkpt lat="44.881217365856074" lon="12.003213900382926"><ele>-2.0</ele><time>2026-03-28T15:46:54.999Z</time></trkpt><trkpt lat="44.881231403372674" lon="12.00312525388277"><ele>-1.9999999999999998</ele><time>2026-03-28T15:46:55.999Z</time></trkpt><trkpt lat="44.88125773732193" lon="12.002953670083969"><ele>-2.0</ele><time>2026-03-28T15:46:57.999Z</time></trkpt><trkpt lat="44.88127417819709" lon="12.002863327118305"><ele>-2.142857142857143</ele><time>2026-03-28T15:46:58.999Z</time></trkpt><trkpt lat="44.88129052646888" lon="12.00277296787782"><ele>-2.2857142857142856</ele><time>2026-03-28T15:46:59.999Z</time></trkpt><trkpt lat="44.88130388194703" lon="12.002680629828486"><ele>-2.4285714285714284</ele><time>2026-03-28T15:47:00.999Z</time></trkpt><trkpt lat="44.88131725552243" lon="12.002587320949248"><ele>-2.571428571428571</ele><time>2026-03-28T15:47:01.999Z</time></trkpt><trkpt lat="44.881333839254" lon="12.002497480077471"><ele>-2.7142857142857144</ele><time>2026-03-28T15:47:02.999Z</time></trkpt><trkpt lat="44.88134596866151" lon="12.00240500610676"><ele>-2.8571428571428568</ele><time>2026-03-28T15:47:03.999Z</time></trkpt><trkpt lat="44.88136184740486" lon="12.002311310864728"><ele>-3.0</ele><time>2026-03-28T15:47:04.999Z</time></trkpt><trkpt lat="44.8813778827883" lon="12.002220142696844"><ele>-3.1666666666666665</ele><time>2026-03-28T15:47:05.999Z</time></trkpt><trkpt lat="44.8813932230151" lon="12.002131044762047"><ele>-3.333333333333333</ele><time>2026-03-28T15:47:06.999Z</time></trkpt><trkpt lat="44.88141154209603" lon="12.002045255131362"><ele>-3.5</ele><time>2026-03-28T15:47:07.999Z</time></trkpt><trkpt lat="44.881431378791895" lon="12.001960928661914"><ele>-3.6666666666666665</ele><time>2026-03-28T15:47:08.999Z</time></trkpt><trkpt lat="44.881469881743364" lon="12.00179969910568"><ele>-3.833333333333333</ele><time>2026-03-28T15:47:10.999Z</time></trkpt><trkpt lat="44.88151545723626" lon="12.0016419567478"><ele>-4.0</ele><time>2026-03-28T15:47:12.999Z</time></trkpt><trkpt lat="44.8815495918765" lon="12.001489287138147"><ele>-4.0</ele><time>2026-03-28T15:47:14.999Z</time></trkpt><trkpt lat="44.88159302961003" lon="12.001347600751826"><ele>-4.0</ele><time>2026-03-28T15:47:16.999Z</time></trkpt><trkpt lat="44.881633687222305" lon="12.001191120546244"><ele>-4.0</ele><time>2026-03-28T15:47:18.999Z</time></trkpt><trkpt lat="44.88167794427123" lon="12.00102228698963"><ele>-4.0</ele><time>2026-03-28T15:47:20.999Z</time></trkpt><trkpt lat="44.88170403143444" lon="12.000938354392016"><ele>-4.0</ele><time>2026-03-28T15:47:21.999Z</time></trkpt><trkpt lat="44.88172733382329" lon="12.000854951819798"><ele>-4.0</ele><time>2026-03-28T15:47:22.999Z</time></trkpt><trkpt lat="44.88175116537993" lon="12.000768360481084"><ele>-4.0</ele><time>2026-03-28T15:47:23.999Z</time></trkpt><trkpt lat="44.881766923374784" lon="12.00067959104014"><ele>-4.0</ele><time>2026-03-28T15:47:24.999Z</time></trkpt><trkpt lat="44.88180565814564" lon="12.000521895799766"><ele>-4.0</ele><time>2026-03-28T15:47:26.999Z</time></trkpt><trkpt lat="44.88184310098404" lon="12.000366347619925"><ele>-4.0</ele><time>2026-03-28T15:47:28.999Z</time></trkpt><trkpt lat="44.881887919846115" lon="12.000233187265554"><ele>-3.8000000000000003</ele><time>2026-03-28T15:47:30.999Z</time></trkpt><trkpt lat="44.88191964655132" lon="12.000105552277626"><ele>-3.6000000000000005</ele><time>2026-03-28T15:47:32.999Z</time></trkpt><trkpt lat="44.8819642656691" lon="11.999973821956173"><ele>-3.4</ele><time>2026-03-28T15:47:34.999Z</time></trkpt><trkpt lat="44.88200132022919" lon="11.999820749630764"><ele>-3.2</ele><time>2026-03-28T15:47:36.999Z</time></trkpt><trkpt lat="44.88203630906987" lon="11.999666654263434"><ele>-3.0</ele><time>2026-03-28T15:47:38.999Z</time></trkpt><trkpt lat="44.88208195956266" lon="11.999505233525023"><ele>-3.0</ele><time>2026-03-28T15:47:40.999Z</time></trkpt><trkpt lat="44.88212040751581" lon="11.999347411831302"><ele>-3.0</ele><time>2026-03-28T15:47:42.999Z</time></trkpt><trkpt lat="44.882166428803174" lon="11.999204422219073"><ele>-3.0</ele><time>2026-03-28T15:47:45Z</time></trkpt><trkpt lat="44.882207197703174" lon="11.999049671642851"><ele>-3.0</ele><time>2026-03-28T15:47:47Z</time></trkpt><trkpt lat="44.88225182133882" lon="11.998886627911276"><ele>-2.9999999999999996</ele><time>2026-03-28T15:47:49Z</time></trkpt><trkpt lat="44.88227292826234" lon="11.998799230646332"><ele>-3.0</ele><time>2026-03-28T15:47:50Z</time></trkpt><trkpt lat="44.88229610086521" lon="11.998712912093362"><ele>-3.0</ele><time>2026-03-28T15:47:51Z</time></trkpt><trkpt lat="44.88231855132459" lon="11.99862631082273"><ele>-3.0</ele><time>2026-03-28T15:47:52Z</time></trkpt><trkpt lat="44.88234310157205" lon="11.99853783375827"><ele>-3.0</ele><time>2026-03-28T15:47:53Z</time></trkpt><trkpt lat="44.8823698103256" lon="11.998447319534975"><ele>-2.9999999999999996</ele><time>2026-03-28T15:47:54Z</time></trkpt><trkpt lat="44.88239272077402" lon="11.99835509133099"><ele>-3.0</ele><time>2026-03-28T15:47:55Z</time></trkpt><trkpt lat="44.8824152250038" lon="11.998261501268146"><ele>-3.0</ele><time>2026-03-28T15:47:56Z</time></trkpt><trkpt lat="44.882435381331064" lon="11.998174287852402"><ele>-3.0</ele><time>2026-03-28T15:47:57Z</time></trkpt><trkpt lat="44.88245827929699" lon="11.998080858666125"><ele>-3.0</ele><time>2026-03-28T15:47:58Z</time></trkpt><trkpt lat="44.8824782159835" lon="11.99799564314047"><ele>-3.0</ele><time>2026-03-28T15:47:59Z</time></trkpt><trkpt lat="44.882520494984234" lon="11.997837598034675"><ele>-3.0</ele><time>2026-03-28T15:48:01Z</time></trkpt><trkpt lat="44.88256045581293" lon="11.997687800752594"><ele>-3.0</ele><time>2026-03-28T15:48:03Z</time></trkpt><trkpt lat="44.882602362247155" lon="11.997546102087009"><ele>-2.8333333333333335</ele><time>2026-03-28T15:48:05Z</time></trkpt><trkpt lat="44.88264345362506" lon="11.99742047651935"><ele>-2.6666666666666665</ele><time>2026-03-28T15:48:07Z</time></trkpt><trkpt lat="44.882670789948484" lon="11.997291269511832"><ele>-2.5</ele><time>2026-03-28T15:48:09Z</time></trkpt><trkpt lat="44.882695447426876" lon="11.997173108036733"><ele>-2.333333333333333</ele><time>2026-03-28T15:48:11Z</time></trkpt><trkpt lat="44.88271032671157" lon="11.997059752224882"><ele>-2.1666666666666665</ele><time>2026-03-28T15:48:13Z</time></trkpt><trkpt lat="44.88271984934142" lon="11.996953180315945"><ele>-2.0</ele><time>2026-03-28T15:48:15Z</time></trkpt><trkpt lat="44.88271319546274" lon="11.996840650388016"><ele>-1.9999999999999998</ele><time>2026-03-28T15:48:17Z</time></trkpt><trkpt lat="44.88270577286139" lon="11.99671803649256"><ele>-2.0</ele><time>2026-03-28T15:48:19Z</time></trkpt><trkpt lat="44.88268884098685" lon="11.996597446016136"><ele>-2.0</ele><time>2026-03-28T15:48:21Z</time></trkpt><trkpt lat="44.882657861542256" lon="11.996474786036599"><ele>-2.0</ele><time>2026-03-28T15:48:23Z</time></trkpt><trkpt lat="44.88262991242398" lon="11.996351702614696"><ele>-1.9999999999999998</ele><time>2026-03-28T15:48:25Z</time></trkpt><trkpt lat="44.88259201018326" lon="11.996237540308517"><ele>-2.0</ele><time>2026-03-28T15:48:27Z</time></trkpt><trkpt lat="44.88254964119054" lon="11.996124407671514"><ele>-2.1666666666666665</ele><time>2026-03-28T15:48:29Z</time></trkpt><trkpt lat="44.88250642819045" lon="11.99601150742814"><ele>-2.333333333333333</ele><time>2026-03-28T15:48:31Z</time></trkpt><trkpt lat="44.882460339758275" lon="11.995901589486989"><ele>-2.5</ele><time>2026-03-28T15:48:33Z</time></trkpt><trkpt lat="44.88241621943808" lon="11.995790155459662"><ele>-2.6666666666666665</ele><time>2026-03-28T15:48:35Z</time></trkpt><trkpt lat="44.88237256952096" lon="11.995682717782408"><ele>-2.8333333333333335</ele><time>2026-03-28T15:48:36.999Z</time></trkpt><trkpt lat="44.88232585785661" lon="11.995579639109511"><ele>-3.0</ele><time>2026-03-28T15:48:38.999Z</time></trkpt><trkpt lat="44.882286280200795" lon="11.995476995178919"><ele>-3.2</ele><time>2026-03-28T15:48:40.999Z</time></trkpt><trkpt lat="44.882240561971045" lon="11.995378846521389"><ele>-3.4</ele><time>2026-03-28T15:48:42.999Z</time></trkpt><trkpt lat="44.88219748902755" lon="11.995270407568901"><ele>-3.6000000000000005</ele><time>2026-03-28T15:48:44.999Z</time></trkpt><trkpt lat="44.88214139310494" lon="11.995148006693867"><ele>-3.8000000000000003</ele><time>2026-03-28T15:48:46.999Z</time></trkpt><trkpt lat="44.882091722549504" lon="11.99501818244373"><ele>-4.0</ele><time>2026-03-28T15:48:48.999Z</time></trkpt><trkpt lat="44.88203329208856" lon="11.994892850803883"><ele>-4.0</ele><time>2026-03-28T15:48:50.999Z</time></trkpt><trkpt lat="44.88198012285062" lon="11.99475991497528"><ele>-4.0</ele><time>2026-03-28T15:48:52.999Z</time></trkpt><trkpt lat="44.881924199401986" lon="11.994612664767331"><ele>-4.0</ele><time>2026-03-28T15:48:54.999Z</time></trkpt><trkpt lat="44.881865739360265" lon="11.994467956956155"><ele>-4.0</ele><time>2026-03-28T15:48:56.999Z</time></trkpt><trkpt lat="44.881812407258224" lon="11.994333110515147"><ele>-4.0</ele><time>2026-03-28T15:48:58.999Z</time></trkpt><trkpt lat="44.88175756648105" lon="11.994212385446064"><ele>-4.0</ele><time>2026-03-28T15:49:00.999Z</time></trkpt><trkpt lat="44.88170079774351" lon="11.994088115847806"><ele>-4.0</ele><time>2026-03-28T15:49:02.999Z</time></trkpt><trkpt lat="44.88164864823312" lon="11.993956309585364"><ele>-4.0</ele><time>2026-03-28T15:49:04.999Z</time></trkpt><trkpt lat="44.881591040520966" lon="11.993811699048672"><ele>-4.0</ele><time>2026-03-28T15:49:06.999Z</time></trkpt><trkpt lat="44.881557573905496" lon="11.993734408202668"><ele>-3.6</ele><time>2026-03-28T15:49:07.999Z</time></trkpt><trkpt lat="44.88152445033257" lon="11.993655321076485"><ele>-3.2</ele><time>2026-03-28T15:49:08.999Z</time></trkpt><trkpt lat="44.881462982157494" lon="11.99350031420646"><ele>-2.8000000000000003</ele><time>2026-03-28T15:49:10.999Z</time></trkpt><trkpt lat="44.881399430149926" lon="11.993358042445388"><ele>-2.4000000000000004</ele><time>2026-03-28T15:49:12.999Z</time></trkpt><trkpt lat="44.881340319437626" lon="11.993221739717336"><ele>-2.0</ele><time>2026-03-28T15:49:14.999Z</time></trkpt><trkpt lat="44.8812862173031" lon="11.993080534762393"><ele>-2.0</ele><time>2026-03-28T15:49:16.999Z</time></trkpt><trkpt lat="44.881229643593386" lon="11.992953269977733"><ele>-2.0</ele><time>2026-03-28T15:49:18.999Z</time></trkpt><trkpt lat="44.881182050483" lon="11.992833032744867"><ele>-2.0</ele><time>2026-03-28T15:49:20.999Z</time></trkpt><trkpt lat="44.88113084717563" lon="11.992717495217239"><ele>-2.0</ele><time>2026-03-28T15:49:22.999Z</time></trkpt><trkpt lat="44.88108496765575" lon="11.992603744193325"><ele>-2.0</ele><time>2026-03-28T15:49:24.999Z</time></trkpt><trkpt lat="44.881043362053305" lon="11.99249559149665"><ele>-2.1666666666666665</ele><time>2026-03-28T15:49:26.999Z</time></trkpt><trkpt lat="44.88100185480584" lon="11.992391825133785"><ele>-2.333333333333333</ele><time>2026-03-28T15:49:28.999Z</time></trkpt><trkpt lat="44.880963651585596" lon="11.992292232199137"><ele>-2.5</ele><time>2026-03-28T15:49:30.999Z</time></trkpt><trkpt lat="44.880934887808905" lon="11.992188074719996"><ele>-2.6666666666666665</ele><time>2026-03-28T15:49:32.999Z</time></trkpt><trkpt lat="44.88089670258353" lon="11.992075966231099"><ele>-2.8333333333333335</ele><time>2026-03-28T15:49:34.999Z</time></trkpt><trkpt lat="44.88084869989518" lon="11.991957271673432"><ele>-3.0</ele><time>2026-03-28T15:49:36.999Z</time></trkpt><trkpt lat="44.88081387901087" lon="11.991842925535504"><ele>-3.1666666666666665</ele><time>2026-03-28T15:49:38.999Z</time></trkpt><trkpt lat="44.88078158432915" lon="11.991734115615582"><ele>-3.333333333333333</ele><time>2026-03-28T15:49:40.999Z</time></trkpt><trkpt lat="44.88075461332387" lon="11.991626259252163"><ele>-3.5</ele><time>2026-03-28T15:49:42.999Z</time></trkpt><trkpt lat="44.88072885506161" lon="11.99151979031303"><ele>-3.6666666666666665</ele><time>2026-03-28T15:49:44.999Z</time></trkpt><trkpt lat="44.88070167348138" lon="11.991411415447683"><ele>-3.833333333333333</ele><time>2026-03-28T15:49:46.999Z</time></trkpt><trkpt lat="44.88066620780541" lon="11.9912940007424"><ele>-4.0</ele><time>2026-03-28T15:49:48.999Z</time></trkpt><trkpt lat="44.88063025299993" lon="11.99116991669496"><ele>-4.166666666666666</ele><time>2026-03-28T15:49:51Z</time></trkpt><trkpt lat="44.88059762021068" lon="11.99104726946834"><ele>-4.333333333333333</ele><time>2026-03-28T15:49:53Z</time></trkpt><trkpt lat="44.88056310521722" lon="11.990932854630557"><ele>-4.5</ele><time>2026-03-28T15:49:55Z</time></trkpt><trkpt lat="44.880538955484454" lon="11.990814596033545"><ele>-4.666666666666667</ele><time>2026-03-28T15:49:57Z</time></trkpt><trkpt lat="44.8805186582979" lon="11.990695930926016"><ele>-4.833333333333334</ele><time>2026-03-28T15:49:59Z</time></trkpt><trkpt lat="44.88049706432559" lon="11.990577932052869"><ele>-5.0</ele><time>2026-03-28T15:50:01Z</time></trkpt><trkpt lat="44.88047913355195" lon="11.990459228742342"><ele>-5.0</ele><time>2026-03-28T15:50:03Z</time></trkpt><trkpt lat="44.88047506153808" lon="11.99034036517561"><ele>-5.0</ele><time>2026-03-28T15:50:05Z</time></trkpt><trkpt lat="44.88047053744273" lon="11.990223938376142"><ele>-5.0</ele><time>2026-03-28T15:50:07Z</time></trkpt><trkpt lat="44.88046467153122" lon="11.990101211602363"><ele>-5.0</ele><time>2026-03-28T15:50:09Z</time></trkpt><trkpt lat="44.88046460446285" lon="11.989972464873558"><ele>-5.0</ele><time>2026-03-28T15:50:11Z</time></trkpt><trkpt lat="44.880464551440646" lon="11.989845023903584"><ele>-5.0</ele><time>2026-03-28T15:50:13Z</time></trkpt><trkpt lat="44.88045843329184" lon="11.989702698170934"><ele>-5.0</ele><time>2026-03-28T15:50:15Z</time></trkpt><trkpt lat="44.88046397252325" lon="11.989553125487156"><ele>-5.0</ele><time>2026-03-28T15:50:17Z</time></trkpt><trkpt lat="44.88045640531982" lon="11.989407967968194"><ele>-5.0</ele><time>2026-03-28T15:50:19Z</time></trkpt><trkpt lat="44.88045250313122" lon="11.989274157721795"><ele>-5.0</ele><time>2026-03-28T15:50:21Z</time></trkpt><trkpt lat="44.88045257652402" lon="11.989144653014257"><ele>-5.0</ele><time>2026-03-28T15:50:23Z</time></trkpt><trkpt lat="44.880454441340575" lon="11.989020536512285"><ele>-4.833333333333334</ele><time>2026-03-28T15:50:25Z</time></trkpt><trkpt lat="44.88045202678005" lon="11.988888590271397"><ele>-4.666666666666667</ele><time>2026-03-28T15:50:27Z</time></trkpt><trkpt lat="44.88045353856098" lon="11.988762974308958"><ele>-4.5</ele><time>2026-03-28T15:50:29Z</time></trkpt><trkpt lat="44.88044948428638" lon="11.988642996709224"><ele>-4.333333333333333</ele><time>2026-03-28T15:50:31Z</time></trkpt><trkpt lat="44.880443861924206" lon="11.988521594230884"><ele>-4.166666666666666</ele><time>2026-03-28T15:50:33Z</time></trkpt><trkpt lat="44.8804447849983" lon="11.988412098314372"><ele>-4.0</ele><time>2026-03-28T15:50:35Z</time></trkpt><trkpt lat="44.880443505175116" lon="11.988301956793233"><ele>-4.0</ele><time>2026-03-28T15:50:37Z</time></trkpt><trkpt lat="44.880444875707845" lon="11.988175923175989"><ele>-4.0</ele><time>2026-03-28T15:50:39Z</time></trkpt><trkpt lat="44.88044568204904" lon="11.988042684243743"><ele>-4.0</ele><time>2026-03-28T15:50:41Z</time></trkpt><trkpt lat="44.88044632722353" lon="11.987905831598981"><ele>-4.0</ele><time>2026-03-28T15:50:43Z</time></trkpt><trkpt lat="44.88044254402144" lon="11.987749817498255"><ele>-4.0</ele><time>2026-03-28T15:50:45Z</time></trkpt><trkpt lat="44.88044044492627" lon="11.987590901684497"><ele>-3.75</ele><time>2026-03-28T15:50:47Z</time></trkpt><trkpt lat="44.88043299051687" lon="11.987428852466229"><ele>-3.5</ele><time>2026-03-28T15:50:49Z</time></trkpt><trkpt lat="44.88042657523021" lon="11.987261504121207"><ele>-3.25</ele><time>2026-03-28T15:50:51Z</time></trkpt><trkpt lat="44.88042452593136" lon="11.987102388975481"><ele>-3.0</ele><time>2026-03-28T15:50:53Z</time></trkpt><trkpt lat="44.880432230783406" lon="11.986953373066052"><ele>-3.0</ele><time>2026-03-28T15:50:55Z</time></trkpt><trkpt lat="44.88041714966948" lon="11.98681354018977"><ele>-3.0</ele><time>2026-03-28T15:50:57Z</time></trkpt><trkpt lat="44.88041712365097" lon="11.986684633689759"><ele>-3.0</ele><time>2026-03-28T15:50:59Z</time></trkpt><trkpt lat="44.880416023366664" lon="11.986562708175962"><ele>-3.0</ele><time>2026-03-28T15:51:00.999Z</time></trkpt><trkpt lat="44.88041558316901" lon="11.986441650919142"><ele>-3.0</ele><time>2026-03-28T15:51:02.999Z</time></trkpt><trkpt lat="44.880417071938005" lon="11.986300864360741"><ele>-3.0</ele><time>2026-03-28T15:51:04.999Z</time></trkpt><trkpt lat="44.88041567831151" lon="11.9861499865601"><ele>-3.0</ele><time>2026-03-28T15:51:06.999Z</time></trkpt><trkpt lat="44.88041710556361" lon="11.985990911340712"><ele>-3.0</ele><time>2026-03-28T15:51:08.999Z</time></trkpt><trkpt lat="44.880418463036136" lon="11.9858259936831"><ele>-3.0</ele><time>2026-03-28T15:51:10.999Z</time></trkpt><trkpt lat="44.88041411014489" lon="11.98566064009743"><ele>-2.8</ele><time>2026-03-28T15:51:12.999Z</time></trkpt><trkpt lat="44.880414673072835" lon="11.985509128354424"><ele>-2.5999999999999996</ele><time>2026-03-28T15:51:14.999Z</time></trkpt><trkpt lat="44.88040799369676" lon="11.985375222380188"><ele>-2.4000000000000004</ele><time>2026-03-28T15:51:16.999Z</time></trkpt><trkpt lat="44.88040550009078" lon="11.985246025295888"><ele>-2.2</ele><time>2026-03-28T15:51:18.999Z</time></trkpt><trkpt lat="44.88040739551352" lon="11.985133608084633"><ele>-2.0</ele><time>2026-03-28T15:51:20.999Z</time></trkpt><trkpt lat="44.88041319970836" lon="11.985022823958102"><ele>-1.9999999999999998</ele><time>2026-03-28T15:51:22.999Z</time></trkpt><trkpt lat="44.88044648488805" lon="11.984941099999215"><ele>-2.0</ele><time>2026-03-28T15:51:24.999Z</time></trkpt><trkpt lat="44.8804547683116" lon="11.984820812678334"><ele>-2.0</ele><time>2026-03-28T15:51:26.999Z</time></trkpt><trkpt lat="44.880451193744605" lon="11.984697218834961"><ele>-2.0</ele><time>2026-03-28T15:51:28.999Z</time></trkpt><trkpt lat="44.880456931391315" lon="11.984577875423623"><ele>-1.9999999999999998</ele><time>2026-03-28T15:51:30.999Z</time></trkpt><trkpt lat="44.88044008761931" lon="11.98447247130262"><ele>-2.0</ele><time>2026-03-28T15:51:32.999Z</time></trkpt><trkpt lat="44.880454546038784" lon="11.984352982666268"><ele>-2.0</ele><time>2026-03-28T15:51:34.999Z</time></trkpt><trkpt lat="44.88045142834522" lon="11.984216661821085"><ele>-2.0</ele><time>2026-03-28T15:51:36.999Z</time></trkpt><trkpt lat="44.880437222732674" lon="11.984071437225449"><ele>-2.0</ele><time>2026-03-28T15:51:38.999Z</time></trkpt><trkpt lat="44.8804586996815" lon="11.983938589806582"><ele>-2.0</ele><time>2026-03-28T15:51:40.999Z</time></trkpt><trkpt lat="44.88045950115676" lon="11.983816387382111"><ele>-2.0</ele><time>2026-03-28T15:51:42.999Z</time></trkpt><trkpt lat="44.88048979017492" lon="11.983710653688636"><ele>-1.9999999999999998</ele><time>2026-03-28T15:51:44.999Z</time></trkpt><trkpt lat="44.8805272196776" lon="11.983610692578441"><ele>-2.0</ele><time>2026-03-28T15:51:46.999Z</time></trkpt><trkpt lat="44.88056950532093" lon="11.983512253631103"><ele>-2.0</ele><time>2026-03-28T15:51:48.999Z</time></trkpt><trkpt lat="44.88061411750178" lon="11.983416295341618"><ele>-2.0</ele><time>2026-03-28T15:51:50.999Z</time></trkpt><trkpt lat="44.88066268186249" lon="11.983316711494732"><ele>-1.9999999999999998</ele><time>2026-03-28T15:51:52.999Z</time></trkpt><trkpt lat="44.88071061580314" lon="11.983222465389868"><ele>-2.0</ele><time>2026-03-28T15:51:54.999Z</time></trkpt><trkpt lat="44.88075603727839" lon="11.983136368045123"><ele>-2.142857142857143</ele><time>2026-03-28T15:51:57Z</time></trkpt><trkpt lat="44.88080067062914" lon="11.983052106633265"><ele>-2.2857142857142856</ele><time>2026-03-28T15:51:59Z</time></trkpt><trkpt lat="44.8808475320014" lon="11.982963894484728"><ele>-2.4285714285714284</ele><time>2026-03-28T15:52:01Z</time></trkpt><trkpt lat="44.88089398142094" lon="11.982879316777334"><ele>-2.571428571428571</ele><time>2026-03-28T15:52:03Z</time></trkpt><trkpt lat="44.88093470927092" lon="11.982805157505895"><ele>-2.7142857142857144</ele><time>2026-03-28T15:52:05Z</time></trkpt><trkpt lat="44.88097754012942" lon="11.982727168705766"><ele>-2.8571428571428568</ele><time>2026-03-28T15:52:07Z</time></trkpt><trkpt lat="44.88101757107601" lon="11.982654278363732"><ele>-3.0</ele><time>2026-03-28T15:52:09Z</time></trkpt><trkpt lat="44.88106122295541" lon="11.982574794769207"><ele>-3.0</ele><time>2026-03-28T15:52:11Z</time></trkpt><trkpt lat="44.88111025668632" lon="11.982485511537327"><ele>-3.0</ele><time>2026-03-28T15:52:13Z</time></trkpt><trkpt lat="44.88115544253491" lon="11.982403234650723"><ele>-3.0</ele><time>2026-03-28T15:52:15Z</time></trkpt><trkpt lat="44.8812015980159" lon="11.9823191924381"><ele>-3.0</ele><time>2026-03-28T15:52:17Z</time></trkpt><trkpt lat="44.88124853603936" lon="11.982233725148953"><ele>-3.0</ele><time>2026-03-28T15:52:19Z</time></trkpt><trkpt lat="44.88129767721255" lon="11.98214424640602"><ele>-3.0</ele><time>2026-03-28T15:52:21Z</time></trkpt><trkpt lat="44.88134678053923" lon="11.982054836470828"><ele>-3.0</ele><time>2026-03-28T15:52:23Z</time></trkpt><trkpt lat="44.881394212017945" lon="11.981967881225726"><ele>-3.0</ele><time>2026-03-28T15:52:25Z</time></trkpt><trkpt lat="44.88144201492102" lon="11.981879897047241"><ele>-3.0</ele><time>2026-03-28T15:52:27Z</time></trkpt><trkpt lat="44.88149009000161" lon="11.98179141181848"><ele>-3.0</ele><time>2026-03-28T15:52:29Z</time></trkpt><trkpt lat="44.881565329606055" lon="11.98173591129963"><ele>-3.0</ele><time>2026-03-28T15:52:31Z</time></trkpt><trkpt lat="44.881610743122934" lon="11.981645707384557"><ele>-3.0</ele><time>2026-03-28T15:52:33Z</time></trkpt><trkpt lat="44.88166000478745" lon="11.981559549788008"><ele>-2.9999999999999996</ele><time>2026-03-28T15:52:35Z</time></trkpt><trkpt lat="44.88170516505624" lon="11.981470146176132"><ele>-3.0</ele><time>2026-03-28T15:52:37Z</time></trkpt><trkpt lat="44.881754785006365" lon="11.981385972029255"><ele>-3.0</ele><time>2026-03-28T15:52:39Z</time></trkpt><trkpt lat="44.88179764813532" lon="11.9813013242835"><ele>-3.0</ele><time>2026-03-28T15:52:41Z</time></trkpt><trkpt lat="44.88183657696894" lon="11.98122220961203"><ele>-3.0</ele><time>2026-03-28T15:52:43Z</time></trkpt><trkpt lat="44.8818810488532" lon="11.981145780161212"><ele>-2.9999999999999996</ele><time>2026-03-28T15:52:45Z</time></trkpt><trkpt lat="44.88192873358818" lon="11.981055654089493"><ele>-3.0</ele><time>2026-03-28T15:52:47Z</time></trkpt><trkpt lat="44.881976203797116" lon="11.980963523947404"><ele>-3.1666666666666665</ele><time>2026-03-28T15:52:49Z</time></trkpt><trkpt lat="44.882026976142605" lon="11.98086787738832"><ele>-3.333333333333333</ele><time>2026-03-28T15:52:51Z</time></trkpt><trkpt lat="44.882078254187604" lon="11.980778203554255"><ele>-3.5</ele><time>2026-03-28T15:52:53Z</time></trkpt><trkpt lat="44.88212723171661" lon="11.980692972050905"><ele>-3.6666666666666665</ele><time>2026-03-28T15:52:55Z</time></trkpt><trkpt lat="44.88218147869998" lon="11.980604786975015"><ele>-3.833333333333333</ele><time>2026-03-28T15:52:57Z</time></trkpt><trkpt lat="44.882225023240494" lon="11.980503441124753"><ele>-4.0</ele><time>2026-03-28T15:52:59Z</time></trkpt><trkpt lat="44.88228048337369" lon="11.980409040695042"><ele>-3.9999999999999996</ele><time>2026-03-28T15:53:01Z</time></trkpt><trkpt lat="44.88232470501634" lon="11.980310366935859"><ele>-4.0</ele><time>2026-03-28T15:53:02.999Z</time></trkpt><trkpt lat="44.88237449540402" lon="11.980216677721055"><ele>-4.0</ele><time>2026-03-28T15:53:04.999Z</time></trkpt><trkpt lat="44.882421876761704" lon="11.980117910044369"><ele>-4.0</ele><time>2026-03-28T15:53:06.999Z</time></trkpt><trkpt lat="44.882473747568476" lon="11.980028645522259"><ele>-3.9999999999999996</ele><time>2026-03-28T15:53:08.999Z</time></trkpt><trkpt lat="44.8825331848356" lon="11.979941337351388"><ele>-4.0</ele><time>2026-03-28T15:53:10.999Z</time></trkpt><trkpt lat="44.88258872213552" lon="11.979836141526043"><ele>-3.833333333333333</ele><time>2026-03-28T15:53:12.999Z</time></trkpt><trkpt lat="44.882637603639346" lon="11.979731660788522"><ele>-3.6666666666666665</ele><time>2026-03-28T15:53:14.999Z</time></trkpt><trkpt lat="44.88269787449238" lon="11.979632403552273"><ele>-3.5</ele><time>2026-03-28T15:53:16.999Z</time></trkpt><trkpt lat="44.88274267226256" lon="11.979523946678613"><ele>-3.333333333333333</ele><time>2026-03-28T15:53:18.999Z</time></trkpt><trkpt lat="44.882791468756096" lon="11.97942563709884"><ele>-3.1666666666666665</ele><time>2026-03-28T15:53:20.999Z</time></trkpt><trkpt lat="44.88285122270381" lon="11.979326449792438"><ele>-3.0</ele><time>2026-03-28T15:53:22.999Z</time></trkpt><trkpt lat="44.88291204989392" lon="11.979213673257984"><ele>-2.8333333333333335</ele><time>2026-03-28T15:53:24.999Z</time></trkpt><trkpt lat="44.882969795526996" lon="11.979116383213556"><ele>-2.6666666666666665</ele><time>2026-03-28T15:53:26.999Z</time></trkpt><trkpt lat="44.883021548321985" lon="11.979016423551302"><ele>-2.5</ele><time>2026-03-28T15:53:28.999Z</time></trkpt><trkpt lat="44.88308219583277" lon="11.97893784440986"><ele>-2.333333333333333</ele><time>2026-03-28T15:53:30.999Z</time></trkpt><trkpt lat="44.883162798063964" lon="11.978934803503943"><ele>-2.1666666666666665</ele><time>2026-03-28T15:53:32.999Z</time></trkpt><trkpt lat="44.88322069875332" lon="11.979024795577844"><ele>-2.0</ele><time>2026-03-28T15:53:34.999Z</time></trkpt><trkpt lat="44.883297468310595" lon="11.979106110033122"><ele>-2.0</ele><time>2026-03-28T15:53:36.999Z</time></trkpt><trkpt lat="44.883390888713876" lon="11.979171426414467"><ele>-2.0</ele><time>2026-03-28T15:53:38.999Z</time></trkpt><trkpt lat="44.88349862971463" lon="11.979183595044377"><ele>-2.0</ele><time>2026-03-28T15:53:40.999Z</time></trkpt><trkpt lat="44.88359389605872" lon="11.979193480695239"><ele>-2.0</ele><time>2026-03-28T15:53:42.999Z</time></trkpt><trkpt lat="44.88368477820203" lon="11.979190558555345"><ele>-2.0</ele><time>2026-03-28T15:53:44.999Z</time></trkpt><trkpt lat="44.883786495832254" lon="11.97918608089556"><ele>-2.2</ele><time>2026-03-28T15:53:46.999Z</time></trkpt><trkpt lat="44.88388973562646" lon="11.979178992727805"><ele>-2.4000000000000004</ele><time>2026-03-28T15:53:48.999Z</time></trkpt><trkpt lat="44.883998135690355" lon="11.979186382935417"><ele>-2.5999999999999996</ele><time>2026-03-28T15:53:50.999Z</time></trkpt><trkpt lat="44.88411477262301" lon="11.979187146192936"><ele>-2.8</ele><time>2026-03-28T15:53:52.999Z</time></trkpt><trkpt lat="44.8842280132319" lon="11.979188516694082"><ele>-3.0</ele><time>2026-03-28T15:53:54.999Z</time></trkpt><trkpt lat="44.88434073154218" lon="11.979183354088224"><ele>-3.0</ele><time>2026-03-28T15:53:56.999Z</time></trkpt><trkpt lat="44.88444583024379" lon="11.979184854327608"><ele>-3.0</ele><time>2026-03-28T15:53:58.999Z</time></trkpt><trkpt lat="44.88454575892077" lon="11.97918361447931"><ele>-3.0</ele><time>2026-03-28T15:54:00.999Z</time></trkpt><trkpt lat="44.88464403257005" lon="11.979162651000145"><ele>-3.0</ele><time>2026-03-28T15:54:03Z</time></trkpt><trkpt lat="44.88467636832678" lon="11.979024531373232"><ele>-3.0</ele><time>2026-03-28T15:54:05Z</time></trkpt><trkpt lat="44.884661273171524" lon="11.978870244263913"><ele>-3.0</ele><time>2026-03-28T15:54:07Z</time></trkpt><trkpt lat="44.884676465428335" lon="11.978707488836367"><ele>-3.0</ele><time>2026-03-28T15:54:09Z</time></trkpt><trkpt lat="44.88468202296675" lon="11.97854088126305"><ele>-3.0</ele><time>2026-03-28T15:54:11Z</time></trkpt><trkpt lat="44.88467681110958" lon="11.978367689281436"><ele>-3.0</ele><time>2026-03-28T15:54:13Z</time></trkpt><trkpt lat="44.884670268205596" lon="11.978190467073057"><ele>-3.0</ele><time>2026-03-28T15:54:15Z</time></trkpt><trkpt lat="44.88466579874914" lon="11.978026827106074"><ele>-3.0</ele><time>2026-03-28T15:54:17Z</time></trkpt><trkpt lat="44.8846701719262" lon="11.977869901690054"><ele>-3.0</ele><time>2026-03-28T15:54:19Z</time></trkpt><trkpt lat="44.884655863789064" lon="11.977712125025102"><ele>-3.0</ele><time>2026-03-28T15:54:21Z</time></trkpt><trkpt lat="44.88465737980091" lon="11.977561448792365"><ele>-3.0</ele><time>2026-03-28T15:54:23Z</time></trkpt><trkpt lat="44.884666566862734" lon="11.977427953503426"><ele>-3.0</ele><time>2026-03-28T15:54:25Z</time></trkpt><trkpt lat="44.88470032657569" lon="11.977350143606097"><ele>-3.0</ele><time>2026-03-28T15:54:27Z</time></trkpt><trkpt lat="44.88477792482553" lon="11.977376419739025"><ele>-3.0</ele><time>2026-03-28T15:54:29Z</time></trkpt><trkpt lat="44.88486435772536" lon="11.977371661381792"><ele>-3.0</ele><time>2026-03-28T15:54:31Z</time></trkpt><trkpt lat="44.88496088933272" lon="11.97736568047839"><ele>-3.0</ele><time>2026-03-28T15:54:33Z</time></trkpt><trkpt lat="44.88506383831952" lon="11.977379527952387"><ele>-3.0</ele><time>2026-03-28T15:54:35Z</time></trkpt><trkpt lat="44.88517862816791" lon="11.977372588162014"><ele>-3.0</ele><time>2026-03-28T15:54:37Z</time></trkpt><trkpt lat="44.885296181913574" lon="11.977356886701328"><ele>-3.0</ele><time>2026-03-28T15:54:39Z</time></trkpt><trkpt lat="44.885360613481694" lon="11.97735423579827"><ele>-3.0</ele><time>2026-03-28T15:54:40Z</time></trkpt><trkpt lat="44.88542452047836" lon="11.977356901369019"><ele>-3.0</ele><time>2026-03-28T15:54:41Z</time></trkpt><trkpt lat="44.88555437110374" lon="11.977351206488352"><ele>-3.0</ele><time>2026-03-28T15:54:43Z</time></trkpt><trkpt lat="44.88561780682399" lon="11.977352312231071"><ele>-3.0</ele><time>2026-03-28T15:54:44Z</time></trkpt><trkpt lat="44.885681239338425" lon="11.97734904567765"><ele>-3.0</ele><time>2026-03-28T15:54:45Z</time></trkpt><trkpt lat="44.885792760148384" lon="11.97736758694991"><ele>-3.0</ele><time>2026-03-28T15:54:47Z</time></trkpt><trkpt lat="44.88591412723331" lon="11.977362253407339"><ele>-3.0</ele><time>2026-03-28T15:54:49Z</time></trkpt><trkpt lat="44.88602268677611" lon="11.977366090306388"><ele>-3.0</ele><time>2026-03-28T15:54:51Z</time></trkpt><trkpt lat="44.88613282315308" lon="11.977360901980271"><ele>-2.8</ele><time>2026-03-28T15:54:53Z</time></trkpt><trkpt lat="44.886236579136735" lon="11.977354433557755"><ele>-2.5999999999999996</ele><time>2026-03-28T15:54:55Z</time></trkpt><trkpt lat="44.88634252106391" lon="11.977350492890217"><ele>-2.4000000000000004</ele><time>2026-03-28T15:54:57Z</time></trkpt><trkpt lat="44.88645400231687" lon="11.977342543287953"><ele>-2.2</ele><time>2026-03-28T15:54:59Z</time></trkpt><trkpt lat="44.88655273990243" lon="11.977331730482343"><ele>-2.0</ele><time>2026-03-28T15:55:01Z</time></trkpt><trkpt lat="44.88664580020766" lon="11.977334653463666"><ele>-2.0</ele><time>2026-03-28T15:55:03Z</time></trkpt><trkpt lat="44.88673847874682" lon="11.97734636857685"><ele>-2.0</ele><time>2026-03-28T15:55:04.999Z</time></trkpt><trkpt lat="44.88684609312794" lon="11.97733902009668"><ele>-2.0</ele><time>2026-03-28T15:55:06.999Z</time></trkpt><trkpt lat="44.88695898926206" lon="11.977318137277717"><ele>-2.0</ele><time>2026-03-28T15:55:08.999Z</time></trkpt><trkpt lat="44.8870816291463" lon="11.977312212493867"><ele>-2.0</ele><time>2026-03-28T15:55:10.999Z</time></trkpt><trkpt lat="44.887145092871776" lon="11.97731664982994"><ele>-2.1666666666666665</ele><time>2026-03-28T15:55:11.999Z</time></trkpt><trkpt lat="44.88720829778944" lon="11.977317716510415"><ele>-2.333333333333333</ele><time>2026-03-28T15:55:12.999Z</time></trkpt><trkpt lat="44.88727704978461" lon="11.977307849456766"><ele>-2.5</ele><time>2026-03-28T15:55:13.999Z</time></trkpt><trkpt lat="44.8874026691855" lon="11.97730900602843"><ele>-2.6666666666666665</ele><time>2026-03-28T15:55:15.999Z</time></trkpt><trkpt lat="44.88750054649004" lon="11.977323586086392"><ele>-2.8333333333333335</ele><time>2026-03-28T15:55:17.999Z</time></trkpt><trkpt lat="44.887572881809646" lon="11.977323242725287"><ele>-3.0</ele><time>2026-03-28T15:55:19.999Z</time></trkpt><trkpt lat="44.88763845258076" lon="11.977316092413867"><ele>-3.2</ele><time>2026-03-28T15:55:21.999Z</time></trkpt><trkpt lat="44.88771300592761" lon="11.97732139639478"><ele>-3.4</ele><time>2026-03-28T15:55:23.999Z</time></trkpt><trkpt lat="44.88781145759333" lon="11.977309065735168"><ele>-3.6000000000000005</ele><time>2026-03-28T15:55:25.999Z</time></trkpt><trkpt lat="44.88791878527177" lon="11.977270510340503"><ele>-3.8000000000000003</ele><time>2026-03-28T15:55:27.999Z</time></trkpt><trkpt lat="44.88803483915954" lon="11.9772572534622"><ele>-4.0</ele><time>2026-03-28T15:55:29.999Z</time></trkpt><trkpt lat="44.88816005431749" lon="11.977264873560964"><ele>-4.0</ele><time>2026-03-28T15:55:31.999Z</time></trkpt><trkpt lat="44.88822457569461" lon="11.977259604807223"><ele>-3.9999999999999996</ele><time>2026-03-28T15:55:32.999Z</time></trkpt><trkpt lat="44.88829006730889" lon="11.97726437623882"><ele>-4.0</ele><time>2026-03-28T15:55:33.999Z</time></trkpt><trkpt lat="44.88835795189119" lon="11.977258649250567"><ele>-4.0</ele><time>2026-03-28T15:55:34.999Z</time></trkpt><trkpt lat="44.888424172393805" lon="11.977258561553365"><ele>-3.9999999999999996</ele><time>2026-03-28T15:55:35.999Z</time></trkpt><trkpt lat="44.888492307265885" lon="11.97725205194556"><ele>-4.0</ele><time>2026-03-28T15:55:36.999Z</time></trkpt><trkpt lat="44.88855951857442" lon="11.977244829396772"><ele>-4.0</ele><time>2026-03-28T15:55:37.999Z</time></trkpt><trkpt lat="44.88862426913617" lon="11.977245528359077"><ele>-4.0</ele><time>2026-03-28T15:55:38.999Z</time></trkpt><trkpt lat="44.88868769195235" lon="11.977248768432178"><ele>-4.0</ele><time>2026-03-28T15:55:39.999Z</time></trkpt><trkpt lat="44.88875114890393" lon="11.977244446910486"><ele>-4.0</ele><time>2026-03-28T15:55:40.999Z</time></trkpt><trkpt lat="44.88887162855426" lon="11.977243069320696"><ele>-4.0</ele><time>2026-03-28T15:55:42.999Z</time></trkpt><trkpt lat="44.88898336919212" lon="11.977243672415458"><ele>-4.0</ele><time>2026-03-28T15:55:44.999Z</time></trkpt><trkpt lat="44.88909182734116" lon="11.977234572863251"><ele>-4.0</ele><time>2026-03-28T15:55:46.999Z</time></trkpt><trkpt lat="44.889199388702934" lon="11.977197657269553"><ele>-4.0</ele><time>2026-03-28T15:55:48.999Z</time></trkpt><trkpt lat="44.88930007851675" lon="11.977194853506019"><ele>-4.0</ele><time>2026-03-28T15:55:50.999Z</time></trkpt><trkpt lat="44.88939716982489" lon="11.97719222168442"><ele>-4.0</ele><time>2026-03-28T15:55:52.999Z</time></trkpt><trkpt lat="44.889488053114874" lon="11.977192991811247"><ele>-4.0</ele><time>2026-03-28T15:55:54.999Z</time></trkpt><trkpt lat="44.88956603438379" lon="11.977161784508388"><ele>-4.4</ele><time>2026-03-28T15:55:56.999Z</time></trkpt><trkpt lat="44.88964493572736" lon="11.977164024857938"><ele>-4.800000000000001</ele><time>2026-03-28T15:55:58.999Z</time></trkpt><trkpt lat="44.88973670370869" lon="11.977160456999083"><ele>-5.199999999999999</ele><time>2026-03-28T15:56:00.999Z</time></trkpt><trkpt lat="44.88983335505532" lon="11.977157432409872"><ele>-5.6</ele><time>2026-03-28T15:56:02.999Z</time></trkpt><trkpt lat="44.88994140574873" lon="11.977161190911767"><ele>-6.0</ele><time>2026-03-28T15:56:04.999Z</time></trkpt><trkpt lat="44.890040384212675" lon="11.977162906706843"><ele>-6.0</ele><time>2026-03-28T15:56:06.999Z</time></trkpt><trkpt lat="44.8901438839511" lon="11.977157916626677"><ele>-6.0</ele><time>2026-03-28T15:56:09Z</time></trkpt><trkpt lat="44.89025334946513" lon="11.977152418744058"><ele>-6.0</ele><time>2026-03-28T15:56:11Z</time></trkpt><trkpt lat="44.89037500884823" lon="11.977151818225785"><ele>-6.0</ele><time>2026-03-28T15:56:13Z</time></trkpt><trkpt lat="44.89049785815598" lon="11.977150036113258"><ele>-6.0</ele><time>2026-03-28T15:56:15Z</time></trkpt><trkpt lat="44.890627991245175" lon="11.977146613437569"><ele>-6.0</ele><time>2026-03-28T15:56:17Z</time></trkpt><trkpt lat="44.89069108815579" lon="11.977145813963482"><ele>-6.0</ele><time>2026-03-28T15:56:18Z</time></trkpt><trkpt lat="44.89075681353397" lon="11.977141165224168"><ele>-6.0</ele><time>2026-03-28T15:56:19Z</time></trkpt><trkpt lat="44.890820529674045" lon="11.977138521380517"><ele>-6.0</ele><time>2026-03-28T15:56:20Z</time></trkpt><trkpt lat="44.8909438024997" lon="11.977139419938363"><ele>-6.0</ele><time>2026-03-28T15:56:22Z</time></trkpt><trkpt lat="44.89106632701444" lon="11.977141096489122"><ele>-5.8</ele><time>2026-03-28T15:56:24Z</time></trkpt><trkpt lat="44.89113343175206" lon="11.97713624668703"><ele>-5.6</ele><time>2026-03-28T15:56:25Z</time></trkpt><trkpt lat="44.89119885206014" lon="11.977135181559753"><ele>-5.4</ele><time>2026-03-28T15:56:26Z</time></trkpt><trkpt lat="44.891323024351415" lon="11.977129088218561"><ele>-5.2</ele><time>2026-03-28T15:56:28Z</time></trkpt><trkpt lat="44.8914392985786" lon="11.977127664713377"><ele>-5.0</ele><time>2026-03-28T15:56:30Z</time></trkpt><trkpt lat="44.89155002640358" lon="11.977123636660155"><ele>-5.0</ele><time>2026-03-28T15:56:32Z</time></trkpt><trkpt lat="44.891659533084145" lon="11.977120403511133"><ele>-5.0</ele><time>2026-03-28T15:56:34Z</time></trkpt><trkpt lat="44.8917640133528" lon="11.977118620455471"><ele>-5.0</ele><time>2026-03-28T15:56:36Z</time></trkpt><trkpt lat="44.89186467893823" lon="11.977113912666166"><ele>-5.0</ele><time>2026-03-28T15:56:38Z</time></trkpt><trkpt lat="44.89196309830343" lon="11.977107197322574"><ele>-5.0</ele><time>2026-03-28T15:56:40Z</time></trkpt><trkpt lat="44.89205649391677" lon="11.977104099236664"><ele>-5.166666666666667</ele><time>2026-03-28T15:56:42Z</time></trkpt><trkpt lat="44.89214445281381" lon="11.97710860602386"><ele>-5.333333333333334</ele><time>2026-03-28T15:56:44Z</time></trkpt><trkpt lat="44.892230537746535" lon="11.977107429905685"><ele>-5.5</ele><time>2026-03-28T15:56:46Z</time></trkpt><trkpt lat="44.89231200026264" lon="11.977105658475764"><ele>-5.666666666666667</ele><time>2026-03-28T15:56:48Z</time></trkpt><trkpt lat="44.892391670225244" lon="11.97710539304003"><ele>-5.833333333333333</ele><time>2026-03-28T15:56:50Z</time></trkpt><trkpt lat="44.89247069912936" lon="11.977098168814834"><ele>-6.0</ele><time>2026-03-28T15:56:52Z</time></trkpt><trkpt lat="44.89255028569446" lon="11.977098501960107"><ele>-6.166666666666667</ele><time>2026-03-28T15:56:54Z</time></trkpt><trkpt lat="44.89262765612994" lon="11.977096864842057"><ele>-6.333333333333334</ele><time>2026-03-28T15:56:56Z</time></trkpt><trkpt lat="44.89270115801912" lon="11.97709317753301"><ele>-6.5</ele><time>2026-03-28T15:56:58Z</time></trkpt><trkpt lat="44.89277267195236" lon="11.977092429871272"><ele>-6.666666666666667</ele><time>2026-03-28T15:57:00Z</time></trkpt><trkpt lat="44.892849435304896" lon="11.97709112133524"><ele>-6.833333333333334</ele><time>2026-03-28T15:57:02Z</time></trkpt><trkpt lat="44.892929145383796" lon="11.977088090740786"><ele>-7.0</ele><time>2026-03-28T15:57:04Z</time></trkpt><trkpt lat="44.89301026163295" lon="11.977090616323386"><ele>-7.000000000000001</ele><time>2026-03-28T15:57:06Z</time></trkpt><trkpt lat="44.89309230600713" lon="11.977088880514561"><ele>-7.0</ele><time>2026-03-28T15:57:08Z</time></trkpt><trkpt lat="44.89317361376746" lon="11.977084711097094"><ele>-7.0</ele><time>2026-03-28T15:57:09.999Z</time></trkpt><trkpt lat="44.893257335503456" lon="11.977090007442404"><ele>-7.0</ele><time>2026-03-28T15:57:11.999Z</time></trkpt><trkpt lat="44.89333976294698" lon="11.977083317344963"><ele>-7.000000000000001</ele><time>2026-03-28T15:57:13.999Z</time></trkpt><trkpt lat="44.89342582871249" lon="11.977079254377918"><ele>-7.0</ele><time>2026-03-28T15:57:15.999Z</time></trkpt><trkpt lat="44.89351528511555" lon="11.97707914115874"><ele>-6.666666666666667</ele><time>2026-03-28T15:57:17.999Z</time></trkpt><trkpt lat="44.893603681011776" lon="11.97707263444623"><ele>-6.333333333333334</ele><time>2026-03-28T15:57:19.999Z</time></trkpt><trkpt lat="44.89369362112859" lon="11.977072927661261"><ele>-6.0</ele><time>2026-03-28T15:57:21.999Z</time></trkpt><trkpt lat="44.89378291701712" lon="11.977068191942827"><ele>-5.666666666666667</ele><time>2026-03-28T15:57:23.999Z</time></trkpt><trkpt lat="44.89387021405356" lon="11.977067961371636"><ele>-5.333333333333334</ele><time>2026-03-28T15:57:25.999Z</time></trkpt><trkpt lat="44.89395470470699" lon="11.977064992436896"><ele>-5.0</ele><time>2026-03-28T15:57:27.999Z</time></trkpt><trkpt lat="44.89403952173582" lon="11.977064957901504"><ele>-5.0</ele><time>2026-03-28T15:57:29.999Z</time></trkpt><trkpt lat="44.89412428555023" lon="11.977059420369185"><ele>-5.0</ele><time>2026-03-28T15:57:31.999Z</time></trkpt><trkpt lat="44.894206937315204" lon="11.977058128175953"><ele>-5.0</ele><time>2026-03-28T15:57:33.999Z</time></trkpt><trkpt lat="44.89428875618403" lon="11.977051848804898"><ele>-5.0</ele><time>2026-03-28T15:57:35.999Z</time></trkpt><trkpt lat="44.89437364400519" lon="11.977046065146382"><ele>-5.0</ele><time>2026-03-28T15:57:37.999Z</time></trkpt><trkpt lat="44.89445466291385" lon="11.977043314883213"><ele>-5.0</ele><time>2026-03-28T15:57:39.999Z</time></trkpt><trkpt lat="44.89453919179371" lon="11.977045486320707"><ele>-5.166666666666667</ele><time>2026-03-28T15:57:41.999Z</time></trkpt><trkpt lat="44.894626378407835" lon="11.977036438716725"><ele>-5.333333333333334</ele><time>2026-03-28T15:57:43.999Z</time></trkpt><trkpt lat="44.89471296698244" lon="11.977038278814575"><ele>-5.5</ele><time>2026-03-28T15:57:45.999Z</time></trkpt><trkpt lat="44.89479343444868" lon="11.97703337849335"><ele>-5.666666666666667</ele><time>2026-03-28T15:57:47.999Z</time></trkpt><trkpt lat="44.89487290403536" lon="11.977038771512646"><ele>-5.833333333333333</ele><time>2026-03-28T15:57:49.999Z</time></trkpt><trkpt lat="44.8949451534104" lon="11.977024362489788"><ele>-6.0</ele><time>2026-03-28T15:57:51.999Z</time></trkpt><trkpt lat="44.89501542995013" lon="11.977025416925178"><ele>-6.0</ele><time>2026-03-28T15:57:53.999Z</time></trkpt><trkpt lat="44.89508213809712" lon="11.977024080834527"><ele>-6.0</ele><time>2026-03-28T15:57:55.999Z</time></trkpt><trkpt lat="44.89517011340121" lon="11.977022802261077"><ele>-6.0</ele><time>2026-03-28T15:57:58.999Z</time></trkpt><trkpt lat="44.895253664333325" lon="11.977026913285318"><ele>-6.0</ele><time>2026-03-28T15:59:06Z</time></trkpt><trkpt lat="44.895316504803866" lon="11.977021611735173"><ele>-6.0</ele><time>2026-03-28T15:59:08Z</time></trkpt><trkpt lat="44.89539026743478" lon="11.977020563390015"><ele>-6.0</ele><time>2026-03-28T15:59:10Z</time></trkpt><trkpt lat="44.895472166478946" lon="11.977020022887727"><ele>-6.166666666666667</ele><time>2026-03-28T15:59:12Z</time></trkpt><trkpt lat="44.89555444927978" lon="11.97701710986591"><ele>-6.333333333333334</ele><time>2026-03-28T15:59:14Z</time></trkpt><trkpt lat="44.89563564464031" lon="11.977015631061029"><ele>-6.5</ele><time>2026-03-28T15:59:16Z</time></trkpt><trkpt lat="44.89571440242789" lon="11.977011182816375"><ele>-6.666666666666667</ele><time>2026-03-28T15:59:18Z</time></trkpt><trkpt lat="44.895794090261916" lon="11.977009462804823"><ele>-6.833333333333334</ele><time>2026-03-28T15:59:20Z</time></trkpt><trkpt lat="44.895877839555" lon="11.977003650825075"><ele>-7.0</ele><time>2026-03-28T15:59:22Z</time></trkpt><trkpt lat="44.89596193003284" lon="11.977002342335021"><ele>-6.666666666666667</ele><time>2026-03-28T15:59:23.999Z</time></trkpt><trkpt lat="44.896043957138964" lon="11.976999028392155"><ele>-6.333333333333334</ele><time>2026-03-28T15:59:25.999Z</time></trkpt><trkpt lat="44.89612864542765" lon="11.97699897117431"><ele>-6.0</ele><time>2026-03-28T15:59:27.999Z</time></trkpt><trkpt lat="44.896214286536306" lon="11.976991965513207"><ele>-5.666666666666667</ele><time>2026-03-28T15:59:29.999Z</time></trkpt><trkpt lat="44.89630273502756" lon="11.97699249189288"><ele>-5.333333333333334</ele><time>2026-03-28T15:59:31.999Z</time></trkpt><trkpt lat="44.89638917719464" lon="11.976988866656306"><ele>-5.0</ele><time>2026-03-28T15:59:33.999Z</time></trkpt><trkpt lat="44.896474187701024" lon="11.976987329444006"><ele>-5.0</ele><time>2026-03-28T15:59:35.999Z</time></trkpt><trkpt lat="44.896554000024054" lon="11.976985724324043"><ele>-5.0</ele><time>2026-03-28T15:59:37.999Z</time></trkpt><trkpt lat="44.89663424074564" lon="11.976983502372269"><ele>-5.0</ele><time>2026-03-28T15:59:39.999Z</time></trkpt><trkpt lat="44.8967205301763" lon="11.976981379535637"><ele>-5.0</ele><time>2026-03-28T15:59:41.999Z</time></trkpt><trkpt lat="44.89680612542044" lon="11.976982185751838"><ele>-5.0</ele><time>2026-03-28T15:59:43.999Z</time></trkpt><trkpt lat="44.89689665327169" lon="11.976973866386935"><ele>-5.0</ele><time>2026-03-28T15:59:45.999Z</time></trkpt><trkpt lat="44.896983624766115" lon="11.976977274899987"><ele>-4.833333333333334</ele><time>2026-03-28T15:59:47.999Z</time></trkpt><trkpt lat="44.89706932771934" lon="11.976971840227083"><ele>-4.666666666666667</ele><time>2026-03-28T15:59:49.999Z</time></trkpt><trkpt lat="44.897152162154825" lon="11.976968937339343"><ele>-4.5</ele><time>2026-03-28T15:59:51.999Z</time></trkpt><trkpt lat="44.89723022593251" lon="11.976967403295193"><ele>-4.333333333333333</ele><time>2026-03-28T15:59:53.999Z</time></trkpt><trkpt lat="44.8973073612149" lon="11.97696008721669"><ele>-4.166666666666666</ele><time>2026-03-28T15:59:55.999Z</time></trkpt><trkpt lat="44.89737586825709" lon="11.976955397191727"><ele>-4.0</ele><time>2026-03-28T15:59:57.999Z</time></trkpt><trkpt lat="44.897442462707495" lon="11.976951949325429"><ele>-4.0</ele><time>2026-03-28T15:59:59.999Z</time></trkpt><trkpt lat="44.897507469339786" lon="11.97694692972986"><ele>-3.9999999999999996</ele><time>2026-03-28T16:00:01.999Z</time></trkpt><trkpt lat="44.89758310114933" lon="11.97694577824561"><ele>-4.0</ele><time>2026-03-28T16:00:03.999Z</time></trkpt><trkpt lat="44.897658817727354" lon="11.976943588710819"><ele>-4.0</ele><time>2026-03-28T16:00:05.999Z</time></trkpt><trkpt lat="44.89773395652312" lon="11.976951504669328"><ele>-3.9999999999999996</ele><time>2026-03-28T16:00:07.999Z</time></trkpt><trkpt lat="44.89780739944426" lon="11.97694911141599"><ele>-4.0</ele><time>2026-03-28T16:00:09.999Z</time></trkpt><trkpt lat="44.897880193445665" lon="11.976952165240824"><ele>-4.0</ele><time>2026-03-28T16:00:11.999Z</time></trkpt><trkpt lat="44.89795959902938" lon="11.976953316168892"><ele>-4.142857142857142</ele><time>2026-03-28T16:00:13.999Z</time></trkpt><trkpt lat="44.898035539952645" lon="11.976953476819576"><ele>-4.285714285714286</ele><time>2026-03-28T16:00:15.999Z</time></trkpt><trkpt lat="44.8981067059115" lon="11.976950906588586"><ele>-4.428571428571429</ele><time>2026-03-28T16:00:17.999Z</time></trkpt><trkpt lat="44.898173120129854" lon="11.976949989716847"><ele>-4.571428571428571</ele><time>2026-03-28T16:00:20Z</time></trkpt><trkpt lat="44.8982420931932" lon="11.976951374175934"><ele>-4.714285714285714</ele><time>2026-03-28T16:00:22Z</time></trkpt><trkpt lat="44.8983215605717" lon="11.976948189146007"><ele>-4.857142857142857</ele><time>2026-03-28T16:00:24Z</time></trkpt><trkpt lat="44.89839691242549" lon="11.976944263409784"><ele>-5.0</ele><time>2026-03-28T16:00:26Z</time></trkpt><trkpt lat="44.898468659113554" lon="11.976940551729435"><ele>-5.166666666666667</ele><time>2026-03-28T16:00:28Z</time></trkpt><trkpt lat="44.89853204781605" lon="11.976931918064027"><ele>-5.333333333333334</ele><time>2026-03-28T16:00:30Z</time></trkpt><trkpt lat="44.89861055256758" lon="11.976932450775275"><ele>-5.5</ele><time>2026-03-28T16:00:32Z</time></trkpt><trkpt lat="44.89869477487247" lon="11.97693239852432"><ele>-5.666666666666667</ele><time>2026-03-28T16:00:34Z</time></trkpt><trkpt lat="44.898779014585784" lon="11.976933777159621"><ele>-5.833333333333333</ele><time>2026-03-28T16:00:36Z</time></trkpt><trkpt lat="44.89887130161515" lon="11.97692534356456"><ele>-6.0</ele><time>2026-03-28T16:00:38Z</time></trkpt><trkpt lat="44.898963850980145" lon="11.976929607639207"><ele>-6.0</ele><time>2026-03-28T16:00:40Z</time></trkpt><trkpt lat="44.89905689799892" lon="11.976923121006916"><ele>-6.0</ele><time>2026-03-28T16:00:42Z</time></trkpt><trkpt lat="44.89915107627346" lon="11.976917342779593"><ele>-6.0</ele><time>2026-03-28T16:00:44Z</time></trkpt><trkpt lat="44.899243502693295" lon="11.9769169353869"><ele>-6.0</ele><time>2026-03-28T16:00:46Z</time></trkpt><trkpt lat="44.89933314477343" lon="11.976917710831906"><ele>-6.0</ele><time>2026-03-28T16:00:48Z</time></trkpt><trkpt lat="44.89942194851457" lon="11.97691305687511"><ele>-6.0</ele><time>2026-03-28T16:00:50Z</time></trkpt><trkpt lat="44.89951092058487" lon="11.976910008879411"><ele>-6.0</ele><time>2026-03-28T16:00:52Z</time></trkpt><trkpt lat="44.899600700346014" lon="11.976905568770096"><ele>-6.0</ele><time>2026-03-28T16:00:54Z</time></trkpt><trkpt lat="44.899690809380274" lon="11.976907700809802"><ele>-6.0</ele><time>2026-03-28T16:00:56Z</time></trkpt><trkpt lat="44.899777979716816" lon="11.976904635075368"><ele>-6.0</ele><time>2026-03-28T16:00:58Z</time></trkpt><trkpt lat="44.89986540309841" lon="11.976900057200329"><ele>-6.0</ele><time>2026-03-28T16:01:00Z</time></trkpt><trkpt lat="44.89995348242158" lon="11.976897425527163"><ele>-6.0</ele><time>2026-03-28T16:01:02Z</time></trkpt><trkpt lat="44.90003996368228" lon="11.976890221481346"><ele>-6.0</ele><time>2026-03-28T16:01:04Z</time></trkpt><trkpt lat="44.90012797736071" lon="11.976890850812987"><ele>-6.0</ele><time>2026-03-28T16:01:06Z</time></trkpt><trkpt lat="44.90020752545855" lon="11.976889119731188"><ele>-6.0</ele><time>2026-03-28T16:01:08Z</time></trkpt><trkpt lat="44.900288654212545" lon="11.976884785549604"><ele>-6.0</ele><time>2026-03-28T16:01:10Z</time></trkpt><trkpt lat="44.90037863459411" lon="11.976883629166124"><ele>-6.0</ele><time>2026-03-28T16:01:12Z</time></trkpt><trkpt lat="44.90046476002327" lon="11.976884056199934"><ele>-5.999999999999999</ele><time>2026-03-28T16:01:14Z</time></trkpt><trkpt lat="44.90054915985497" lon="11.97688149552496"><ele>-6.0</ele><time>2026-03-28T16:01:16Z</time></trkpt><trkpt lat="44.90062819216473" lon="11.976877947369351"><ele>-6.0</ele><time>2026-03-28T16:01:18Z</time></trkpt><trkpt lat="44.9007024905357" lon="11.976876577636924"><ele>-6.0</ele><time>2026-03-28T16:01:20Z</time></trkpt><trkpt lat="44.900778013106994" lon="11.976874771278972"><ele>-6.0</ele><time>2026-03-28T16:01:22Z</time></trkpt><trkpt lat="44.900845938933365" lon="11.976870214014495"><ele>-5.999999999999999</ele><time>2026-03-28T16:01:24Z</time></trkpt><trkpt lat="44.90091371390837" lon="11.976873501755284"><ele>-6.0</ele><time>2026-03-28T16:01:26Z</time></trkpt><trkpt lat="44.90098562665363" lon="11.976868467077043"><ele>-5.999999999999999</ele><time>2026-03-28T16:01:28Z</time></trkpt><trkpt lat="44.90105681474079" lon="11.976867756998915"><ele>-6.0</ele><time>2026-03-28T16:01:29.999Z</time></trkpt><trkpt lat="44.9011291223229" lon="11.976864052651724"><ele>-6.0</ele><time>2026-03-28T16:01:31.999Z</time></trkpt><trkpt lat="44.90120239071815" lon="11.976859011580306"><ele>-6.0</ele><time>2026-03-28T16:01:33.999Z</time></trkpt><trkpt lat="44.90127438973179" lon="11.976858926712806"><ele>-6.0</ele><time>2026-03-28T16:01:35.999Z</time></trkpt><trkpt lat="44.90134849018597" lon="11.976855986594082"><ele>-5.999999999999999</ele><time>2026-03-28T16:01:37.999Z</time></trkpt><trkpt lat="44.90141855873248" lon="11.97685436589514"><ele>-6.0</ele><time>2026-03-28T16:01:39.999Z</time></trkpt><trkpt lat="44.901490714016546" lon="11.976850470324722"><ele>-5.999999999999999</ele><time>2026-03-28T16:01:41.999Z</time></trkpt><trkpt lat="44.90156264533288" lon="11.976851434591694"><ele>-6.0</ele><time>2026-03-28T16:01:43.999Z</time></trkpt><trkpt lat="44.90162822013187" lon="11.976849984316663"><ele>-6.0</ele><time>2026-03-28T16:01:45.999Z</time></trkpt><trkpt lat="44.90171082872101" lon="11.976844163124731"><ele>-6.0</ele><time>2026-03-28T16:01:48.999Z</time></trkpt><trkpt lat="44.90178161528234" lon="11.9768396904026"><ele>-6.0</ele><time>2026-03-28T16:01:50.999Z</time></trkpt><trkpt lat="44.90185805158988" lon="11.97684248629347"><ele>-5.999999999999999</ele><time>2026-03-28T16:01:52.999Z</time></trkpt><trkpt lat="44.90193058561091" lon="11.976841229935491"><ele>-6.0</ele><time>2026-03-28T16:01:54.999Z</time></trkpt><trkpt lat="44.90200235675942" lon="11.976841402275195"><ele>-5.999999999999999</ele><time>2026-03-28T16:01:56.999Z</time></trkpt><trkpt lat="44.902071018585445" lon="11.976836373765456"><ele>-6.0</ele><time>2026-03-28T16:01:58.999Z</time></trkpt><trkpt lat="44.90215147200596" lon="11.976831750570447"><ele>-6.0</ele><time>2026-03-28T16:02:00.999Z</time></trkpt><trkpt lat="44.90222714465076" lon="11.976830378519804"><ele>-6.0</ele><time>2026-03-28T16:02:02.999Z</time></trkpt><trkpt lat="44.90230066290198" lon="11.976826839074686"><ele>-6.0</ele><time>2026-03-28T16:02:04.999Z</time></trkpt><trkpt lat="44.90237055357737" lon="11.976824585811139"><ele>-5.999999999999999</ele><time>2026-03-28T16:02:06.999Z</time></trkpt><trkpt lat="44.90243480328413" lon="11.976818338379111"><ele>-6.0</ele><time>2026-03-28T16:02:08.999Z</time></trkpt><trkpt lat="44.90252797016904" lon="11.97681309027858"><ele>-6.0</ele><time>2026-03-28T16:02:11.999Z</time></trkpt><trkpt lat="44.902609878140545" lon="11.976812744142777"><ele>-6.0</ele><time>2026-03-28T16:02:14.999Z</time></trkpt><trkpt lat="44.90269855820773" lon="11.976801500961988"><ele>-6.0</ele><time>2026-03-28T16:02:17.999Z</time></trkpt><trkpt lat="44.90277520164821" lon="11.976805266976244"><ele>-6.0</ele><time>2026-03-28T16:02:19.999Z</time></trkpt><trkpt lat="44.90285575011719" lon="11.976805536675045"><ele>-6.0</ele><time>2026-03-28T16:02:21.999Z</time></trkpt><trkpt lat="44.902937886430806" lon="11.976810090377828"><ele>-6.0</ele><time>2026-03-28T16:02:23.999Z</time></trkpt><trkpt lat="44.90301920321812" lon="11.976799582158584"><ele>-6.0</ele><time>2026-03-28T16:02:26Z</time></trkpt><trkpt lat="44.903094397304095" lon="11.976797595915523"><ele>-6.0</ele><time>2026-03-28T16:02:28Z</time></trkpt><trkpt lat="44.90316778089828" lon="11.97679800868751"><ele>-6.0</ele><time>2026-03-28T16:02:30Z</time></trkpt><trkpt lat="44.903246336889225" lon="11.976796142901488"><ele>-6.0</ele><time>2026-03-28T16:02:32Z</time></trkpt><trkpt lat="44.90332603617858" lon="11.976791642803908"><ele>-6.0</ele><time>2026-03-28T16:02:34Z</time></trkpt><trkpt lat="44.90340525142641" lon="11.976788281191698"><ele>-6.0</ele><time>2026-03-28T16:02:36Z</time></trkpt><trkpt lat="44.903487315941206" lon="11.976787782078276"><ele>-6.0</ele><time>2026-03-28T16:02:38Z</time></trkpt><trkpt lat="44.90356496506893" lon="11.976783869786928"><ele>-6.0</ele><time>2026-03-28T16:02:40Z</time></trkpt><trkpt lat="44.90363810809794" lon="11.976780207036283"><ele>-6.0</ele><time>2026-03-28T16:02:42Z</time></trkpt><trkpt lat="44.90371322873172" lon="11.976781839635255"><ele>-6.0</ele><time>2026-03-28T16:02:44Z</time></trkpt><trkpt lat="44.90379261655592" lon="11.976781961210834"><ele>-6.0</ele><time>2026-03-28T16:02:46Z</time></trkpt><trkpt lat="44.903871603214945" lon="11.976782891796312"><ele>-6.0</ele><time>2026-03-28T16:02:48Z</time></trkpt><trkpt lat="44.903946976642864" lon="11.976782874839266"><ele>-5.999999999999999</ele><time>2026-03-28T16:02:50Z</time></trkpt><trkpt lat="44.90401391950076" lon="11.976779900228385"><ele>-6.0</ele><time>2026-03-28T16:02:52Z</time></trkpt><trkpt lat="44.90408644826202" lon="11.976775475447774"><ele>-6.0</ele><time>2026-03-28T16:02:54Z</time></trkpt><trkpt lat="44.904161127155824" lon="11.976762224999277"><ele>-6.0</ele><time>2026-03-28T16:02:56Z</time></trkpt><trkpt lat="44.90422710712971" lon="11.976759996632326"><ele>-6.0</ele><time>2026-03-28T16:02:58Z</time></trkpt><trkpt lat="44.90429188061589" lon="11.976767971021845"><ele>-5.999999999999999</ele><time>2026-03-28T16:03:00Z</time></trkpt><trkpt lat="44.904366808175496" lon="11.976767563441824"><ele>-6.0</ele><time>2026-03-28T16:03:02Z</time></trkpt><trkpt lat="44.90443459171625" lon="11.976773119968819"><ele>-5.857142857142857</ele><time>2026-03-28T16:03:04Z</time></trkpt><trkpt lat="44.90450349565268" lon="11.976772248981465"><ele>-5.714285714285714</ele><time>2026-03-28T16:03:06Z</time></trkpt><trkpt lat="44.90458216331737" lon="11.976756622310708"><ele>-5.571428571428571</ele><time>2026-03-28T16:03:08Z</time></trkpt><trkpt lat="44.90465138013707" lon="11.97675042904775"><ele>-5.428571428571429</ele><time>2026-03-28T16:03:10Z</time></trkpt><trkpt lat="44.90471621266533" lon="11.976764165263319"><ele>-5.285714285714286</ele><time>2026-03-28T16:03:12Z</time></trkpt><trkpt lat="44.90478503442879" lon="11.976764022312492"><ele>-5.142857142857142</ele><time>2026-03-28T16:03:14Z</time></trkpt><trkpt lat="44.90486324694398" lon="11.976767910872297"><ele>-5.0</ele><time>2026-03-28T16:03:16Z</time></trkpt><trkpt lat="44.904944017886464" lon="11.97676954799787"><ele>-5.0</ele><time>2026-03-28T16:03:18Z</time></trkpt><trkpt lat="44.90502584097285" lon="11.976763576071507"><ele>-5.0</ele><time>2026-03-28T16:03:20Z</time></trkpt><trkpt lat="44.90510967978976" lon="11.976760646145536"><ele>-5.0</ele><time>2026-03-28T16:03:22Z</time></trkpt><trkpt lat="44.905196434212094" lon="11.976758446666185"><ele>-5.0</ele><time>2026-03-28T16:03:24Z</time></trkpt><trkpt lat="44.905278911482846" lon="11.976745578429005"><ele>-5.0</ele><time>2026-03-28T16:03:26Z</time></trkpt><trkpt lat="44.90535662483869" lon="11.976739664826768"><ele>-5.0</ele><time>2026-03-28T16:03:28Z</time></trkpt><trkpt lat="44.905430608197534" lon="11.976738215066407"><ele>-4.857142857142857</ele><time>2026-03-28T16:03:29.999Z</time></trkpt><trkpt lat="44.90550091800504" lon="11.976740835698475"><ele>-4.714285714285714</ele><time>2026-03-28T16:03:31.999Z</time></trkpt><trkpt lat="44.90556426436084" lon="11.97672743289031"><ele>-4.571428571428571</ele><time>2026-03-28T16:03:33.999Z</time></trkpt><trkpt lat="44.90565043670814" lon="11.976747056532991"><ele>-4.428571428571429</ele><time>2026-03-28T16:03:36.999Z</time></trkpt><trkpt lat="44.90572081946082" lon="11.976751985949853"><ele>-4.285714285714286</ele><time>2026-03-28T16:03:38.999Z</time></trkpt><trkpt lat="44.90577612839353" lon="11.976828434520634"><ele>-4.142857142857142</ele><time>2026-03-28T16:03:40.999Z</time></trkpt><trkpt lat="44.905790925437984" lon="11.976925791310203"><ele>-4.0</ele><time>2026-03-28T16:03:42.999Z</time></trkpt><trkpt lat="44.90580504924694" lon="11.977017889185142"><ele>-3.9999999999999996</ele><time>2026-03-28T16:03:44.999Z</time></trkpt><trkpt lat="44.90582519057227" lon="11.977108119493975"><ele>-4.0</ele><time>2026-03-28T16:03:46.999Z</time></trkpt><trkpt lat="44.905839505301344" lon="11.977203015379416"><ele>-4.0</ele><time>2026-03-28T16:03:48.999Z</time></trkpt><trkpt lat="44.905857978524885" lon="11.977301250055369"><ele>-4.0</ele><time>2026-03-28T16:03:50.999Z</time></trkpt><trkpt lat="44.90587199161898" lon="11.977403175195189"><ele>-3.9999999999999996</ele><time>2026-03-28T16:03:52.999Z</time></trkpt><trkpt lat="44.90589350603662" lon="11.977516456449116"><ele>-4.0</ele><time>2026-03-28T16:03:54.999Z</time></trkpt><trkpt lat="44.905916308207544" lon="11.977634134812211"><ele>-4.333333333333333</ele><time>2026-03-28T16:03:56.999Z</time></trkpt><trkpt lat="44.90593729534007" lon="11.977752085803296"><ele>-4.666666666666666</ele><time>2026-03-28T16:03:58.999Z</time></trkpt><trkpt lat="44.90595987681464" lon="11.977873302811194"><ele>-5.0</ele><time>2026-03-28T16:04:00.999Z</time></trkpt><trkpt lat="44.90597646267799" lon="11.977996857673228"><ele>-5.333333333333333</ele><time>2026-03-28T16:04:02.999Z</time></trkpt><trkpt lat="44.90601246786143" lon="11.978109959219426"><ele>-5.666666666666667</ele><time>2026-03-28T16:04:04.999Z</time></trkpt><trkpt lat="44.90603778633326" lon="11.978220437561438"><ele>-6.0</ele><time>2026-03-28T16:04:06.999Z</time></trkpt><trkpt lat="44.90605272106596" lon="11.978332954073348"><ele>-6.0</ele><time>2026-03-28T16:04:08.999Z</time></trkpt><trkpt lat="44.90606500058424" lon="11.978458879719772"><ele>-6.0</ele><time>2026-03-28T16:04:10.999Z</time></trkpt><trkpt lat="44.90608918884521" lon="11.978577250183374"><ele>-6.0</ele><time>2026-03-28T16:04:12.999Z</time></trkpt><trkpt lat="44.90610950695711" lon="11.978697234479629"><ele>-6.0</ele><time>2026-03-28T16:04:14.999Z</time></trkpt><trkpt lat="44.906132638616626" lon="11.978815960571596"><ele>-6.0</ele><time>2026-03-28T16:04:16.999Z</time></trkpt><trkpt lat="44.90615217589752" lon="11.978929933168896"><ele>-6.0</ele><time>2026-03-28T16:04:18.999Z</time></trkpt><trkpt lat="44.90617089474421" lon="11.979040085157452"><ele>-6.0</ele><time>2026-03-28T16:04:20.999Z</time></trkpt><trkpt lat="44.906181296538904" lon="11.979149694618409"><ele>-6.0</ele><time>2026-03-28T16:04:22.999Z</time></trkpt><trkpt lat="44.90620610844704" lon="11.97925576477909"><ele>-6.0</ele><time>2026-03-28T16:04:24.999Z</time></trkpt><trkpt lat="44.90622002979867" lon="11.979360934363267"><ele>-6.0</ele><time>2026-03-28T16:04:26.999Z</time></trkpt><trkpt lat="44.906249519670176" lon="11.979469590510426"><ele>-6.0</ele><time>2026-03-28T16:04:28.999Z</time></trkpt><trkpt lat="44.90627468068989" lon="11.979599271513912"><ele>-6.0</ele><time>2026-03-28T16:04:30.999Z</time></trkpt><trkpt lat="44.906301549257755" lon="11.979731197069384"><ele>-5.833333333333333</ele><time>2026-03-28T16:04:33Z</time></trkpt><trkpt lat="44.90632318092092" lon="11.979867702890994"><ele>-5.666666666666667</ele><time>2026-03-28T16:04:35Z</time></trkpt><trkpt lat="44.90634128228304" lon="11.979997095701734"><ele>-5.5</ele><time>2026-03-28T16:04:37Z</time></trkpt><trkpt lat="44.90635791464108" lon="11.980100171299409"><ele>-5.333333333333334</ele><time>2026-03-28T16:04:39Z</time></trkpt><trkpt lat="44.906372932812396" lon="11.980211035324169"><ele>-5.166666666666667</ele><time>2026-03-28T16:04:41Z</time></trkpt><trkpt lat="44.906391773502584" lon="11.980329480986113"><ele>-5.0</ele><time>2026-03-28T16:04:43Z</time></trkpt><trkpt lat="44.906411842513805" lon="11.980444859343296"><ele>-5.0</ele><time>2026-03-28T16:04:45Z</time></trkpt><trkpt lat="44.90643472784181" lon="11.98055198491883"><ele>-5.0</ele><time>2026-03-28T16:04:47Z</time></trkpt><trkpt lat="44.906460533379764" lon="11.980659472726074"><ele>-5.0</ele><time>2026-03-28T16:04:49Z</time></trkpt><trkpt lat="44.90647686148894" lon="11.980779690056178"><ele>-5.0</ele><time>2026-03-28T16:04:51Z</time></trkpt><trkpt lat="44.906498913462045" lon="11.980903279190317"><ele>-5.0</ele><time>2026-03-28T16:04:53Z</time></trkpt><trkpt lat="44.90651942841701" lon="11.981026532039127"><ele>-5.0</ele><time>2026-03-28T16:04:55Z</time></trkpt><trkpt lat="44.906544581273835" lon="11.98115023557066"><ele>-5.0</ele><time>2026-03-28T16:04:57Z</time></trkpt><trkpt lat="44.90655939557532" lon="11.981278246135998"><ele>-5.0</ele><time>2026-03-28T16:04:59Z</time></trkpt><trkpt lat="44.906577024704966" lon="11.981388878826813"><ele>-5.0</ele><time>2026-03-28T16:05:01Z</time></trkpt><trkpt lat="44.906605916631094" lon="11.981504692951885"><ele>-5.0</ele><time>2026-03-28T16:05:03Z</time></trkpt><trkpt lat="44.90663133441217" lon="11.981629840643164"><ele>-5.0</ele><time>2026-03-28T16:05:05Z</time></trkpt><trkpt lat="44.906652197399616" lon="11.981757657946751"><ele>-5.0</ele><time>2026-03-28T16:05:07Z</time></trkpt><trkpt lat="44.90667139947978" lon="11.981886645991231"><ele>-5.0</ele><time>2026-03-28T16:05:09Z</time></trkpt><trkpt lat="44.90668848356678" lon="11.982011826410941"><ele>-5.0</ele><time>2026-03-28T16:05:11Z</time></trkpt><trkpt lat="44.90671150227786" lon="11.982145048647828"><ele>-5.0</ele><time>2026-03-28T16:05:13Z</time></trkpt><trkpt lat="44.90673707421978" lon="11.982268277662653"><ele>-5.0</ele><time>2026-03-28T16:05:15Z</time></trkpt><trkpt lat="44.9067564331139" lon="11.982389367351438"><ele>-5.0</ele><time>2026-03-28T16:05:17Z</time></trkpt><trkpt lat="44.90677826233204" lon="11.98249909967829"><ele>-5.0</ele><time>2026-03-28T16:05:19Z</time></trkpt><trkpt lat="44.90679272709898" lon="11.982616016111203"><ele>-5.0</ele><time>2026-03-28T16:05:21Z</time></trkpt><trkpt lat="44.90681261152974" lon="11.982732144713689"><ele>-5.0</ele><time>2026-03-28T16:05:23Z</time></trkpt><trkpt lat="44.906833729165605" lon="11.982832376218457"><ele>-5.0</ele><time>2026-03-28T16:05:25Z</time></trkpt><trkpt lat="44.906853550558594" lon="11.982925605841546"><ele>-5.0</ele><time>2026-03-28T16:05:27Z</time></trkpt><trkpt lat="44.90687103774921" lon="11.983020899223469"><ele>-5.0</ele><time>2026-03-28T16:05:29Z</time></trkpt><trkpt lat="44.906890979332026" lon="11.983125484822356"><ele>-5.0</ele><time>2026-03-28T16:05:31Z</time></trkpt><trkpt lat="44.90690793888952" lon="11.983218829142823"><ele>-5.0</ele><time>2026-03-28T16:05:32.999Z</time></trkpt><trkpt lat="44.906921544272805" lon="11.983346524922021"><ele>-5.166666666666667</ele><time>2026-03-28T16:05:35.999Z</time></trkpt><trkpt lat="44.90694540112488" lon="11.983470962231301"><ele>-5.333333333333334</ele><time>2026-03-28T16:05:38.999Z</time></trkpt><trkpt lat="44.90696534869679" lon="11.983584817611616"><ele>-5.5</ele><time>2026-03-28T16:05:41.999Z</time></trkpt><trkpt lat="44.90698562617419" lon="11.983710819620114"><ele>-5.666666666666667</ele><time>2026-03-28T16:05:44.999Z</time></trkpt><trkpt lat="44.9070006128302" lon="11.983806326745384"><ele>-5.833333333333333</ele><time>2026-03-28T16:05:46.999Z</time></trkpt><trkpt lat="44.907020383836446" lon="11.983919582681875"><ele>-6.0</ele><time>2026-03-28T16:05:48.999Z</time></trkpt><trkpt lat="44.907039544126626" lon="11.98403246898966"><ele>-6.0</ele><time>2026-03-28T16:05:50.999Z</time></trkpt><trkpt lat="44.90706228361376" lon="11.984143638953578"><ele>-6.0</ele><time>2026-03-28T16:05:52.999Z</time></trkpt><trkpt lat="44.90708097110393" lon="11.984264122234519"><ele>-6.0</ele><time>2026-03-28T16:05:54.999Z</time></trkpt><trkpt lat="44.90709954296722" lon="11.984379997979207"><ele>-6.0</ele><time>2026-03-28T16:05:56.999Z</time></trkpt><trkpt lat="44.907122830164354" lon="11.984497518318731"><ele>-6.0</ele><time>2026-03-28T16:05:58.999Z</time></trkpt><trkpt lat="44.90713918660985" lon="11.98461808953609"><ele>-6.0</ele><time>2026-03-28T16:06:00.999Z</time></trkpt><trkpt lat="44.907159621050155" lon="11.98472775393043"><ele>-5.857142857142857</ele><time>2026-03-28T16:06:02.999Z</time></trkpt><trkpt lat="44.907177660172245" lon="11.984828185245595"><ele>-5.714285714285714</ele><time>2026-03-28T16:06:04.999Z</time></trkpt><trkpt lat="44.90719471362761" lon="11.984924492498493"><ele>-5.571428571428571</ele><time>2026-03-28T16:06:06.999Z</time></trkpt><trkpt lat="44.90720890931274" lon="11.985020152223438"><ele>-5.428571428571429</ele><time>2026-03-28T16:06:08.999Z</time></trkpt><trkpt lat="44.90722765324166" lon="11.985109877399422"><ele>-5.285714285714286</ele><time>2026-03-28T16:06:10.999Z</time></trkpt><trkpt lat="44.90724371990934" lon="11.985214357938354"><ele>-5.142857142857142</ele><time>2026-03-28T16:06:12.999Z</time></trkpt><trkpt lat="44.90725991387293" lon="11.98532342392235"><ele>-5.0</ele><time>2026-03-28T16:06:14.999Z</time></trkpt><trkpt lat="44.907277362844866" lon="11.9854113283207"><ele>-5.0</ele><time>2026-03-28T16:06:16.999Z</time></trkpt><trkpt lat="44.90729292187327" lon="11.985509093149297"><ele>-5.0</ele><time>2026-03-28T16:06:18.999Z</time></trkpt><trkpt lat="44.9073112291901" lon="11.985605714760403"><ele>-5.0</ele><time>2026-03-28T16:06:20.999Z</time></trkpt><trkpt lat="44.90733063353238" lon="11.985713711155286"><ele>-5.0</ele><time>2026-03-28T16:06:23.999Z</time></trkpt><trkpt lat="44.90735030481906" lon="11.985840150078038"><ele>-5.0</ele><time>2026-03-28T16:06:26.999Z</time></trkpt><trkpt lat="44.907372480264584" lon="11.985955782063808"><ele>-5.0</ele><time>2026-03-28T16:06:29.999Z</time></trkpt><trkpt lat="44.90739021889229" lon="11.986050787115996"><ele>-5.166666666666667</ele><time>2026-03-28T16:06:31.999Z</time></trkpt><trkpt lat="44.907404491904614" lon="11.986151469215333"><ele>-5.333333333333334</ele><time>2026-03-28T16:06:33.999Z</time></trkpt><trkpt lat="44.90742371077368" lon="11.986244429381085"><ele>-5.5</ele><time>2026-03-28T16:06:35.999Z</time></trkpt><trkpt lat="44.907440662236134" lon="11.986336795288002"><ele>-5.666666666666667</ele><time>2026-03-28T16:06:38Z</time></trkpt><trkpt lat="44.90746917672121" lon="11.986462463964715"><ele>-5.833333333333333</ele><time>2026-03-28T16:06:41Z</time></trkpt><trkpt lat="44.90750200565709" lon="11.986583215473665"><ele>-6.0</ele><time>2026-03-28T16:06:44Z</time></trkpt><trkpt lat="44.90750440290869" lon="11.98667458064451"><ele>-6.166666666666667</ele><time>2026-03-28T16:06:46Z</time></trkpt><trkpt lat="44.90752051431277" lon="11.986783533082319"><ele>-6.333333333333334</ele><time>2026-03-28T16:06:48Z</time></trkpt><trkpt lat="44.90754030519644" lon="11.986899402502187"><ele>-6.5</ele><time>2026-03-28T16:06:50Z</time></trkpt><trkpt lat="44.90755949336006" lon="11.98700054147116"><ele>-6.666666666666667</ele><time>2026-03-28T16:06:52Z</time></trkpt><trkpt lat="44.90757935161705" lon="11.987096536626206"><ele>-6.833333333333334</ele><time>2026-03-28T16:06:54Z</time></trkpt><trkpt lat="44.90759878623321" lon="11.987193051575359"><ele>-7.0</ele><time>2026-03-28T16:06:56Z</time></trkpt><trkpt lat="44.90761303113487" lon="11.987291421327908"><ele>-6.714285714285714</ele><time>2026-03-28T16:06:58Z</time></trkpt><trkpt lat="44.90763172544709" lon="11.987391945431952"><ele>-6.428571428571429</ele><time>2026-03-28T16:07:00Z</time></trkpt><trkpt lat="44.90765223387304" lon="11.98748874563159"><ele>-6.142857142857142</ele><time>2026-03-28T16:07:02Z</time></trkpt><trkpt lat="44.90766748018557" lon="11.987590806384347"><ele>-5.857142857142858</ele><time>2026-03-28T16:07:04Z</time></trkpt><trkpt lat="44.90769050249841" lon="11.987685880803618"><ele>-5.571428571428571</ele><time>2026-03-28T16:07:06Z</time></trkpt><trkpt lat="44.90769996238488" lon="11.987782610609022"><ele>-5.285714285714286</ele><time>2026-03-28T16:07:08Z</time></trkpt><trkpt lat="44.907720086859996" lon="11.987882635933063"><ele>-5.0</ele><time>2026-03-28T16:07:10Z</time></trkpt><trkpt lat="44.90773701696859" lon="11.987975393427913"><ele>-5.0</ele><time>2026-03-28T16:07:12Z</time></trkpt><trkpt lat="44.90775193571074" lon="11.988065616975009"><ele>-5.0</ele><time>2026-03-28T16:07:14Z</time></trkpt><trkpt lat="44.90776589992615" lon="11.988156888220404"><ele>-5.0</ele><time>2026-03-28T16:07:16Z</time></trkpt><trkpt lat="44.907783485147455" lon="11.988267778135732"><ele>-5.0</ele><time>2026-03-28T16:07:18Z</time></trkpt><trkpt lat="44.907803483922706" lon="11.98838134228523"><ele>-5.0</ele><time>2026-03-28T16:07:20Z</time></trkpt><trkpt lat="44.907825413110466" lon="11.988485343978738"><ele>-5.0</ele><time>2026-03-28T16:07:22Z</time></trkpt><trkpt lat="44.907836010794874" lon="11.988594226758138"><ele>-5.0</ele><time>2026-03-28T16:07:24Z</time></trkpt><trkpt lat="44.907858367268645" lon="11.988696247365239"><ele>-5.0</ele><time>2026-03-28T16:07:26Z</time></trkpt><trkpt lat="44.907878572470956" lon="11.98878976091955"><ele>-5.0</ele><time>2026-03-28T16:07:28Z</time></trkpt><trkpt lat="44.90789582272738" lon="11.98888848465233"><ele>-5.0</ele><time>2026-03-28T16:07:30Z</time></trkpt><trkpt lat="44.90791508897769" lon="11.988989002051436"><ele>-5.0</ele><time>2026-03-28T16:07:32Z</time></trkpt><trkpt lat="44.90793007139163" lon="11.989079019484802"><ele>-5.0</ele><time>2026-03-28T16:07:34Z</time></trkpt><trkpt lat="44.907945231139934" lon="11.989182779717538"><ele>-5.0</ele><time>2026-03-28T16:07:36Z</time></trkpt><trkpt lat="44.907961601955556" lon="11.989290573060558"><ele>-4.833333333333334</ele><time>2026-03-28T16:07:38Z</time></trkpt><trkpt lat="44.90798046161318" lon="11.989391228186598"><ele>-4.666666666666667</ele><time>2026-03-28T16:07:40Z</time></trkpt><trkpt lat="44.907996393984384" lon="11.989491513016118"><ele>-4.5</ele><time>2026-03-28T16:07:41.999Z</time></trkpt><trkpt lat="44.90802182389843" lon="11.989599400498957"><ele>-4.333333333333333</ele><time>2026-03-28T16:07:43.999Z</time></trkpt><trkpt lat="44.90804442532758" lon="11.989713582028397"><ele>-4.166666666666666</ele><time>2026-03-28T16:07:45.999Z</time></trkpt><trkpt lat="44.90806177272961" lon="11.989820135020107"><ele>-4.0</ele><time>2026-03-28T16:07:47.999Z</time></trkpt><trkpt lat="44.90808240201583" lon="11.989915346027994"><ele>-4.0</ele><time>2026-03-28T16:07:49.999Z</time></trkpt><trkpt lat="44.90808743763908" lon="11.990008449337823"><ele>-3.9999999999999996</ele><time>2026-03-28T16:07:51.999Z</time></trkpt><trkpt lat="44.90811794325639" lon="11.990092271735346"><ele>-4.0</ele><time>2026-03-28T16:07:53.999Z</time></trkpt><trkpt lat="44.90812682915357" lon="11.99022495661738"><ele>-4.0</ele><time>2026-03-28T16:07:56.999Z</time></trkpt><trkpt lat="44.9081511791642" lon="11.99032075363853"><ele>-3.9999999999999996</ele><time>2026-03-28T16:07:58.999Z</time></trkpt><trkpt lat="44.90815636670701" lon="11.990411711530877"><ele>-4.0</ele><time>2026-03-28T16:08:00.999Z</time></trkpt><trkpt lat="44.90817507076851" lon="11.99049691813685"><ele>-4.0</ele><time>2026-03-28T16:08:02.999Z</time></trkpt><trkpt lat="44.90819841621691" lon="11.990604915526063"><ele>-3.9999999999999996</ele><time>2026-03-28T16:08:05.999Z</time></trkpt><trkpt lat="44.90820106256175" lon="11.990711673429972"><ele>-4.0</ele><time>2026-03-28T16:08:08.999Z</time></trkpt><trkpt lat="44.90822877915488" lon="11.990834659947824"><ele>-4.0</ele><time>2026-03-28T16:08:11.999Z</time></trkpt><trkpt lat="44.90824986056043" lon="11.990928425014808"><ele>-4.0</ele><time>2026-03-28T16:08:13.999Z</time></trkpt><trkpt lat="44.90826184400357" lon="11.991029133313228"><ele>-3.9999999999999996</ele><time>2026-03-28T16:08:16.999Z</time></trkpt><trkpt lat="44.90834776524709" lon="11.991038522089429"><ele>-4.0</ele><time>2026-03-28T16:08:18.999Z</time></trkpt><trkpt lat="44.908425419291106" lon="11.991043079679372"><ele>-4.0</ele><time>2026-03-28T16:08:22.999Z</time></trkpt><trkpt lat="44.908488754098485" lon="11.99104699283204"><ele>-4.0</ele><time>2026-03-28T16:08:24.999Z</time></trkpt><trkpt lat="44.9085808129529" lon="11.991053203011587"><ele>-4.0</ele><time>2026-03-28T16:08:26.999Z</time></trkpt><trkpt lat="44.9086776206397" lon="11.9910595709638"><ele>-4.0</ele><time>2026-03-28T16:08:28.999Z</time></trkpt><trkpt lat="44.90877857251449" lon="11.991066211521376"><ele>-4.0</ele><time>2026-03-28T16:08:30.999Z</time></trkpt><trkpt lat="44.90888853450977" lon="11.991073444757419"><ele>-4.0</ele><time>2026-03-28T16:08:32.999Z</time></trkpt><trkpt lat="44.90900099504212" lon="11.9910808423459"><ele>-4.0</ele><time>2026-03-28T16:08:34.999Z</time></trkpt><trkpt lat="44.909123283176854" lon="11.99108888639072"><ele>-4.0</ele><time>2026-03-28T16:08:36.999Z</time></trkpt><trkpt lat="44.90918769931192" lon="11.991072952645059"><ele>-4.0</ele><time>2026-03-28T16:08:37.999Z</time></trkpt><trkpt lat="44.90930778068352" lon="11.991082701556072"><ele>-4.0</ele><time>2026-03-28T16:08:39.999Z</time></trkpt><trkpt lat="44.90942845319868" lon="11.991108659569875"><ele>-4.333333333333333</ele><time>2026-03-28T16:08:41.999Z</time></trkpt><trkpt lat="44.90949136351688" lon="11.991112491156086"><ele>-4.666666666666666</ele><time>2026-03-28T16:08:42.999Z</time></trkpt><trkpt lat="44.909618124204165" lon="11.99112021158019"><ele>-5.0</ele><time>2026-03-28T16:08:45Z</time></trkpt><trkpt lat="44.909681770411105" lon="11.99112408798511"><ele>-5.333333333333333</ele><time>2026-03-28T16:08:46Z</time></trkpt><trkpt lat="44.90980300663007" lon="11.99113147194088"><ele>-5.666666666666667</ele><time>2026-03-28T16:08:48Z</time></trkpt><trkpt lat="44.90986594841785" lon="11.99113530544334"><ele>-6.0</ele><time>2026-03-28T16:08:49Z</time></trkpt><trkpt lat="44.90992942306769" lon="11.991139171399443"><ele>-6.0</ele><time>2026-03-28T16:08:50Z</time></trkpt><trkpt lat="44.91005431226861" lon="11.991146777839868"><ele>-6.0</ele><time>2026-03-28T16:08:52Z</time></trkpt><trkpt lat="44.91017722549686" lon="11.991154263934368"><ele>-6.0</ele><time>2026-03-28T16:08:54Z</time></trkpt><trkpt lat="44.910294641978936" lon="11.991161415245147"><ele>-6.0</ele><time>2026-03-28T16:08:56Z</time></trkpt><trkpt lat="44.91035781177998" lon="11.991165263945927"><ele>-6.0</ele><time>2026-03-28T16:08:57Z</time></trkpt><trkpt lat="44.9104826246867" lon="11.991172624876096"><ele>-6.25</ele><time>2026-03-28T16:08:59Z</time></trkpt><trkpt lat="44.91060300871464" lon="11.991179724605008"><ele>-6.5</ele><time>2026-03-28T16:09:01Z</time></trkpt><trkpt lat="44.91072461225941" lon="11.991186896257123"><ele>-6.75</ele><time>2026-03-28T16:09:03Z</time></trkpt><trkpt lat="44.910838822232904" lon="11.991193706133132"><ele>-7.0</ele><time>2026-03-28T16:09:05Z</time></trkpt><trkpt lat="44.91095355716466" lon="11.991200563618488"><ele>-7.0</ele><time>2026-03-28T16:09:07Z</time></trkpt><trkpt lat="44.91107233479641" lon="11.991208384953072"><ele>-6.999999999999999</ele><time>2026-03-28T16:09:09Z</time></trkpt><trkpt lat="44.911177580681674" lon="11.99121541268805"><ele>-6.999999999999999</ele><time>2026-03-28T16:09:11Z</time></trkpt><trkpt lat="44.911277054654185" lon="11.9912025518903"><ele>-7.0</ele><time>2026-03-28T16:09:13Z</time></trkpt><trkpt lat="44.91136990000364" lon="11.991228256681417"><ele>-7.0</ele><time>2026-03-28T16:09:15Z</time></trkpt><trkpt lat="44.91145275267071" lon="11.991219909420366"><ele>-7.000000000000001</ele><time>2026-03-28T16:09:17Z</time></trkpt><trkpt lat="44.911532016044674" lon="11.991219998973289"><ele>-7.0</ele><time>2026-03-28T16:09:19Z</time></trkpt><trkpt lat="44.911603659763664" lon="11.991224202022908"><ele>-7.0</ele><time>2026-03-28T16:09:21Z</time></trkpt><trkpt lat="44.911673868972215" lon="11.991226125650718"><ele>-7.0</ele><time>2026-03-28T16:09:23Z</time></trkpt><trkpt lat="44.91176393543952" lon="11.9912543498629"><ele>-7.000000000000001</ele><time>2026-03-28T16:09:26Z</time></trkpt><trkpt lat="44.91184937852369" lon="11.991266566866168"><ele>-7.0</ele><time>2026-03-28T16:09:29Z</time></trkpt><trkpt lat="44.91191789924573" lon="11.991263481950655"><ele>-6.833333333333334</ele><time>2026-03-28T16:09:31Z</time></trkpt><trkpt lat="44.91198911590147" lon="11.99126359186494"><ele>-6.666666666666667</ele><time>2026-03-28T16:09:33Z</time></trkpt><trkpt lat="44.912052811161445" lon="11.991267017552024"><ele>-6.5</ele><time>2026-03-28T16:09:35Z</time></trkpt><trkpt lat="44.91214531595997" lon="11.991273763439915"><ele>-6.333333333333334</ele><time>2026-03-28T16:09:38Z</time></trkpt><trkpt lat="44.91223120463497" lon="11.991277969398885"><ele>-6.166666666666667</ele><time>2026-03-28T16:09:41Z</time></trkpt><trkpt lat="44.9123218819192" lon="11.991279256411461"><ele>-6.0</ele><time>2026-03-28T16:09:44Z</time></trkpt><trkpt lat="44.912388489859836" lon="11.991282899047885"><ele>-5.999999999999999</ele><time>2026-03-28T16:09:45.999Z</time></trkpt><trkpt lat="44.912456904471625" lon="11.991292169287883"><ele>-6.0</ele><time>2026-03-28T16:09:47.999Z</time></trkpt><trkpt lat="44.91252954381283" lon="11.991289415583832"><ele>-6.0</ele><time>2026-03-28T16:09:49.999Z</time></trkpt><trkpt lat="44.91260034372827" lon="11.991295346264451"><ele>-6.0</ele><time>2026-03-28T16:09:51.999Z</time></trkpt><trkpt lat="44.91267240566999" lon="11.991295790473698"><ele>-6.0</ele><time>2026-03-28T16:09:53.999Z</time></trkpt><trkpt lat="44.91274098143949" lon="11.991302367136788"><ele>-5.999999999999999</ele><time>2026-03-28T16:09:55.999Z</time></trkpt><trkpt lat="44.91281200836804" lon="11.991307876192016"><ele>-6.0</ele><time>2026-03-28T16:09:57.999Z</time></trkpt><trkpt lat="44.91287736967554" lon="11.991312637602753"><ele>-5.857142857142857</ele><time>2026-03-28T16:09:59.999Z</time></trkpt><trkpt lat="44.91297382819098" lon="11.99131159674732"><ele>-5.714285714285714</ele><time>2026-03-28T16:10:02.999Z</time></trkpt><trkpt lat="44.91303998308487" lon="11.991312538184893"><ele>-5.571428571428571</ele><time>2026-03-28T16:10:04.999Z</time></trkpt><trkpt lat="44.913106828318725" lon="11.991318834569164"><ele>-5.428571428571429</ele><time>2026-03-28T16:10:06.999Z</time></trkpt><trkpt lat="44.91318290454983" lon="11.99131092660288"><ele>-5.285714285714286</ele><time>2026-03-28T16:10:09.999Z</time></trkpt><trkpt lat="44.913248386190794" lon="11.991319264715875"><ele>-5.142857142857142</ele><time>2026-03-28T16:10:13.999Z</time></trkpt><trkpt lat="44.91332226556566" lon="11.991318771344641"><ele>-5.0</ele><time>2026-03-28T16:10:27.999Z</time></trkpt><trkpt lat="44.913402708503924" lon="11.991318919006783"><ele>-5.0</ele><time>2026-03-28T16:10:30.999Z</time></trkpt><trkpt lat="44.91348927238149" lon="11.991324115464813"><ele>-5.0</ele><time>2026-03-28T16:10:33.999Z</time></trkpt><trkpt lat="44.91356809457179" lon="11.991326904109057"><ele>-5.0</ele><time>2026-03-28T16:10:36.999Z</time></trkpt><trkpt lat="44.913643882937144" lon="11.991327797035376"><ele>-5.0</ele><time>2026-03-28T16:10:39.999Z</time></trkpt><trkpt lat="44.91370736028489" lon="11.991328289685764"><ele>-5.0</ele><time>2026-03-28T16:10:41.999Z</time></trkpt><trkpt lat="44.91377112266755" lon="11.991329777247316"><ele>-5.0</ele><time>2026-03-28T16:10:43.999Z</time></trkpt><trkpt lat="44.9138685724461" lon="11.991325721906051"><ele>-5.0</ele><time>2026-03-28T16:10:46.999Z</time></trkpt><trkpt lat="44.91394252930662" lon="11.99132330572484"><ele>-5.0</ele><time>2026-03-28T16:10:48.999Z</time></trkpt><trkpt lat="44.9140262630783" lon="11.991319996653962"><ele>-5.0</ele><time>2026-03-28T16:10:51Z</time></trkpt><trkpt lat="44.91410892631098" lon="11.991323953260865"><ele>-5.0</ele><time>2026-03-28T16:10:53Z</time></trkpt><trkpt lat="44.91419581045847" lon="11.991325413692756"><ele>-5.0</ele><time>2026-03-28T16:10:55Z</time></trkpt><trkpt lat="44.91428051191186" lon="11.99132338689825"><ele>-5.0</ele><time>2026-03-28T16:10:57Z</time></trkpt><trkpt lat="44.91437032488607" lon="11.991311882815236"><ele>-4.833333333333334</ele><time>2026-03-28T16:10:59Z</time></trkpt><trkpt lat="44.91444495266911" lon="11.991311001510287"><ele>-4.666666666666667</ele><time>2026-03-28T16:11:01Z</time></trkpt><trkpt lat="44.9145209241276" lon="11.991315852153566"><ele>-4.5</ele><time>2026-03-28T16:11:03Z</time></trkpt><trkpt lat="44.91459916996177" lon="11.991311832916388"><ele>-4.333333333333333</ele><time>2026-03-28T16:11:05Z</time></trkpt><trkpt lat="44.9146925860723" lon="11.991309137055481"><ele>-4.166666666666666</ele><time>2026-03-28T16:11:07Z</time></trkpt><trkpt lat="44.91479022245769" lon="11.99130986136396"><ele>-4.0</ele><time>2026-03-28T16:11:09Z</time></trkpt><trkpt lat="44.914886283034136" lon="11.991324826917621"><ele>-3.9999999999999996</ele><time>2026-03-28T16:11:11Z</time></trkpt><trkpt lat="44.91498240021937" lon="11.99132320272472"><ele>-4.0</ele><time>2026-03-28T16:11:13Z</time></trkpt><trkpt lat="44.91507812779226" lon="11.99130040107196"><ele>-4.0</ele><time>2026-03-28T16:11:15Z</time></trkpt><trkpt lat="44.91516540950876" lon="11.991303972837986"><ele>-4.0</ele><time>2026-03-28T16:11:17Z</time></trkpt><trkpt lat="44.91524307235604" lon="11.99130160209971"><ele>-3.9999999999999996</ele><time>2026-03-28T16:11:19Z</time></trkpt><trkpt lat="44.91531832283034" lon="11.99130201473874"><ele>-4.0</ele><time>2026-03-28T16:11:21Z</time></trkpt><trkpt lat="44.91539298097988" lon="11.991294303541512"><ele>-4.166666666666666</ele><time>2026-03-28T16:11:23Z</time></trkpt><trkpt lat="44.91547218576572" lon="11.991314926306355"><ele>-4.333333333333333</ele><time>2026-03-28T16:11:25Z</time></trkpt><trkpt lat="44.91555356176257" lon="11.991313551210446"><ele>-4.5</ele><time>2026-03-28T16:11:27Z</time></trkpt><trkpt lat="44.9156381325068" lon="11.991289251640572"><ele>-4.666666666666667</ele><time>2026-03-28T16:11:29Z</time></trkpt><trkpt lat="44.91571671173902" lon="11.991287759025427"><ele>-4.833333333333334</ele><time>2026-03-28T16:11:31Z</time></trkpt><trkpt lat="44.91578667387626" lon="11.991309612072001"><ele>-5.0</ele><time>2026-03-28T16:11:33Z</time></trkpt><trkpt lat="44.91585169514726" lon="11.991308513338447"><ele>-5.166666666666667</ele><time>2026-03-28T16:11:35Z</time></trkpt><trkpt lat="44.91591910139349" lon="11.991307374304366"><ele>-5.333333333333334</ele><time>2026-03-28T16:11:37Z</time></trkpt><trkpt lat="44.91600228693098" lon="11.991297784053126"><ele>-5.5</ele><time>2026-03-28T16:11:40Z</time></trkpt><trkpt lat="44.91607792578268" lon="11.991305323152746"><ele>-5.666666666666667</ele><time>2026-03-28T16:11:45Z</time></trkpt><trkpt lat="44.916147112726534" lon="11.991304667614768"><ele>-5.833333333333333</ele><time>2026-03-28T16:11:48Z</time></trkpt><trkpt lat="44.91624089796174" lon="11.991303779011886"><ele>-6.0</ele><time>2026-03-28T16:11:51Z</time></trkpt><trkpt lat="44.91630893396418" lon="11.991303134377851"><ele>-6.0</ele><time>2026-03-28T16:11:53Z</time></trkpt><trkpt lat="44.91639514104585" lon="11.991281338381688"><ele>-6.0</ele><time>2026-03-28T16:11:56Z</time></trkpt><trkpt lat="44.91648863039728" lon="11.991290033958995"><ele>-6.0</ele><time>2026-03-28T16:11:58.999Z</time></trkpt><trkpt lat="44.916556075133485" lon="11.991287644997684"><ele>-6.0</ele><time>2026-03-28T16:12:00.999Z</time></trkpt><trkpt lat="44.91662939198843" lon="11.991289685182918"><ele>-6.0</ele><time>2026-03-28T16:12:02.999Z</time></trkpt><trkpt lat="44.91669897448453" lon="11.99129761354186"><ele>-6.0</ele><time>2026-03-28T16:12:04.999Z</time></trkpt><trkpt lat="44.91676163414207" lon="11.99128289798005"><ele>-6.166666666666667</ele><time>2026-03-28T16:12:06.999Z</time></trkpt><trkpt lat="44.91686205550439" lon="11.991288980631944"><ele>-6.333333333333334</ele><time>2026-03-28T16:12:09.999Z</time></trkpt><trkpt lat="44.916933987765745" lon="11.991282783085975"><ele>-6.5</ele><time>2026-03-28T16:12:11.999Z</time></trkpt><trkpt lat="44.91700178942912" lon="11.991277611300115"><ele>-6.666666666666667</ele><time>2026-03-28T16:12:13.999Z</time></trkpt><trkpt lat="44.91706636480647" lon="11.991277449367049"><ele>-6.833333333333334</ele><time>2026-03-28T16:12:15.999Z</time></trkpt><trkpt lat="44.917152683333455" lon="11.99129273368915"><ele>-7.0</ele><time>2026-03-28T16:12:18.999Z</time></trkpt><trkpt lat="44.91723056134194" lon="11.991282106094273"><ele>-7.0</ele><time>2026-03-28T16:12:21.999Z</time></trkpt><trkpt lat="44.917298057385295" lon="11.991290465771206"><ele>-7.0</ele><time>2026-03-28T16:12:23.999Z</time></trkpt><trkpt lat="44.9173893859642" lon="11.991279815104349"><ele>-7.0</ele><time>2026-03-28T16:12:26.999Z</time></trkpt><trkpt lat="44.91746358433027" lon="11.991277617682423"><ele>-7.0</ele><time>2026-03-28T16:12:29.999Z</time></trkpt><trkpt lat="44.917535192194634" lon="11.991288629657998"><ele>-7.0</ele><time>2026-03-28T16:12:32.999Z</time></trkpt><trkpt lat="44.917600258149136" lon="11.991287558415204"><ele>-7.0</ele><time>2026-03-28T16:12:35.999Z</time></trkpt><trkpt lat="44.91767323232165" lon="11.991264527262036"><ele>-7.0</ele><time>2026-03-28T16:12:38.999Z</time></trkpt><trkpt lat="44.917769200921576" lon="11.99128477695388"><ele>-7.142857142857142</ele><time>2026-03-28T16:12:41.999Z</time></trkpt><trkpt lat="44.91783772071929" lon="11.991260520718814"><ele>-7.285714285714286</ele><time>2026-03-28T16:12:43.999Z</time></trkpt><trkpt lat="44.917915644590494" lon="11.991282365914627"><ele>-7.428571428571429</ele><time>2026-03-28T16:12:45.999Z</time></trkpt><trkpt lat="44.917988674846654" lon="11.991281330656726"><ele>-7.571428571428571</ele><time>2026-03-28T16:12:47.999Z</time></trkpt><trkpt lat="44.91805667566632" lon="11.991259578676232"><ele>-7.7142857142857135</ele><time>2026-03-28T16:12:49.999Z</time></trkpt><trkpt lat="44.918126198427494" lon="11.991263297131093"><ele>-7.857142857142857</ele><time>2026-03-28T16:12:51.999Z</time></trkpt><trkpt lat="44.91819570874398" lon="11.991278819009368"><ele>-8.0</ele><time>2026-03-28T16:12:53.999Z</time></trkpt><trkpt lat="44.91826067505232" lon="11.99127823088132"><ele>-8.0</ele><time>2026-03-28T16:12:56Z</time></trkpt><trkpt lat="44.91832585803398" lon="11.991256967382025"><ele>-7.999999999999999</ele><time>2026-03-28T16:12:58Z</time></trkpt><trkpt lat="44.91838921864543" lon="11.991260189724642"><ele>-8.0</ele><time>2026-03-28T16:13:00Z</time></trkpt><trkpt lat="44.918453232700365" lon="11.991272651869508"><ele>-8.0</ele><time>2026-03-28T16:13:02Z</time></trkpt><trkpt lat="44.91853276648403" lon="11.9912672846877"><ele>-7.999999999999999</ele><time>2026-03-28T16:13:05Z</time></trkpt><trkpt lat="44.91859822964718" lon="11.991267768325242"><ele>-8.0</ele><time>2026-03-28T16:13:07Z</time></trkpt><trkpt lat="44.918671450781936" lon="11.991265776164667"><ele>-8.0</ele><time>2026-03-28T16:13:09Z</time></trkpt><trkpt lat="44.918744857223004" lon="11.991254177815964"><ele>-7.833333333333333</ele><time>2026-03-28T16:13:11Z</time></trkpt><trkpt lat="44.91882698502058" lon="11.991263495004473"><ele>-7.666666666666666</ele><time>2026-03-28T16:13:13Z</time></trkpt><trkpt lat="44.91891295557171" lon="11.991264773157836"><ele>-7.5</ele><time>2026-03-28T16:13:15Z</time></trkpt><trkpt lat="44.918997121085184" lon="11.991249098910387"><ele>-7.333333333333334</ele><time>2026-03-28T16:13:17Z</time></trkpt><trkpt lat="44.919085953718756" lon="11.991247162007403"><ele>-7.166666666666667</ele><time>2026-03-28T16:13:19Z</time></trkpt><trkpt lat="44.919181234490516" lon="11.991243034618906"><ele>-7.0</ele><time>2026-03-28T16:13:21Z</time></trkpt><trkpt lat="44.919279438149466" lon="11.991251534285608"><ele>-7.0</ele><time>2026-03-28T16:13:23Z</time></trkpt><trkpt lat="44.919373861978144" lon="11.991249860497376"><ele>-6.999999999999999</ele><time>2026-03-28T16:13:25Z</time></trkpt><trkpt lat="44.919475344054135" lon="11.991241838288973"><ele>-6.999999999999999</ele><time>2026-03-28T16:13:27Z</time></trkpt><trkpt lat="44.91957654703291" lon="11.991236921811174"><ele>-7.0</ele><time>2026-03-28T16:13:29Z</time></trkpt><trkpt lat="44.91967329714271" lon="11.991256247639727"><ele>-7.0</ele><time>2026-03-28T16:13:31Z</time></trkpt><trkpt lat="44.91978122674048" lon="11.991254211805876"><ele>-7.0</ele><time>2026-03-28T16:13:33Z</time></trkpt><trkpt lat="44.91988227829612" lon="11.991231179385567"><ele>-6.999999999999999</ele><time>2026-03-28T16:13:35Z</time></trkpt><trkpt lat="44.91998520635253" lon="11.991234406689943"><ele>-6.999999999999999</ele><time>2026-03-28T16:13:37Z</time></trkpt><trkpt lat="44.920091275182514" lon="11.991231579607573"><ele>-7.0</ele><time>2026-03-28T16:13:39Z</time></trkpt><trkpt lat="44.9201910907886" lon="11.99123284907683"><ele>-7.0</ele><time>2026-03-28T16:13:41Z</time></trkpt><trkpt lat="44.92029345625389" lon="11.99122375059056"><ele>-6.8</ele><time>2026-03-28T16:13:43Z</time></trkpt><trkpt lat="44.9203979708316" lon="11.991227866795377"><ele>-6.6</ele><time>2026-03-28T16:13:45Z</time></trkpt><trkpt lat="44.920499539368464" lon="11.991224674404897"><ele>-6.3999999999999995</ele><time>2026-03-28T16:13:47Z</time></trkpt><trkpt lat="44.92060664597636" lon="11.991220292344481"><ele>-6.199999999999999</ele><time>2026-03-28T16:13:49Z</time></trkpt><trkpt lat="44.92070548189511" lon="11.991216462260502"><ele>-6.0</ele><time>2026-03-28T16:13:51Z</time></trkpt><trkpt lat="44.92080536944675" lon="11.991221484694258"><ele>-6.0</ele><time>2026-03-28T16:13:52.999Z</time></trkpt><trkpt lat="44.92089878938966" lon="11.991229268668144"><ele>-6.0</ele><time>2026-03-28T16:13:54.999Z</time></trkpt><trkpt lat="44.92097732342254" lon="11.991225128644853"><ele>-6.0</ele><time>2026-03-28T16:13:56.999Z</time></trkpt><trkpt lat="44.92105205632767" lon="11.991233892936222"><ele>-6.0</ele><time>2026-03-28T16:13:59.999Z</time></trkpt><trkpt lat="44.92113370985138" lon="11.991216989276165"><ele>-6.0</ele><time>2026-03-28T16:27:04.999Z</time></trkpt><trkpt lat="44.92120724863234" lon="11.99122552356151"><ele>-6.0</ele><time>2026-03-28T16:27:06.999Z</time></trkpt><trkpt lat="44.92130403543273" lon="11.991229503667988"><ele>-6.0</ele><time>2026-03-28T16:27:08.999Z</time></trkpt><trkpt lat="44.921410645556385" lon="11.991218953539121"><ele>-6.0</ele><time>2026-03-28T16:27:10.999Z</time></trkpt><trkpt lat="44.92151947832803" lon="11.991222734626872"><ele>-6.0</ele><time>2026-03-28T16:27:12.999Z</time></trkpt><trkpt lat="44.92163898713751" lon="11.991221018522575"><ele>-6.0</ele><time>2026-03-28T16:27:14.999Z</time></trkpt><trkpt lat="44.92175207772377" lon="11.991218133454879"><ele>-6.0</ele><time>2026-03-28T16:27:16.999Z</time></trkpt><trkpt lat="44.92187032222529" lon="11.991216350211673"><ele>-6.0</ele><time>2026-03-28T16:27:18.999Z</time></trkpt><trkpt lat="44.92198298977365" lon="11.991210390561465"><ele>-6.0</ele><time>2026-03-28T16:27:20.999Z</time></trkpt><trkpt lat="44.92209765403415" lon="11.991219621394727"><ele>-6.0</ele><time>2026-03-28T16:27:22.999Z</time></trkpt><trkpt lat="44.92221032523606" lon="11.991214125625445"><ele>-6.0</ele><time>2026-03-28T16:27:24.999Z</time></trkpt><trkpt lat="44.92232962328222" lon="11.99121956797422"><ele>-6.0</ele><time>2026-03-28T16:27:26.999Z</time></trkpt><trkpt lat="44.922441774553974" lon="11.991218186424168"><ele>-6.0</ele><time>2026-03-28T16:27:28.999Z</time></trkpt><trkpt lat="44.92255366483563" lon="11.991215157260381"><ele>-6.0</ele><time>2026-03-28T16:27:30.999Z</time></trkpt><trkpt lat="44.92265855821148" lon="11.991216911276227"><ele>-6.0</ele><time>2026-03-28T16:27:32.999Z</time></trkpt><trkpt lat="44.92275202601024" lon="11.991214875554709"><ele>-6.0</ele><time>2026-03-28T16:27:34.999Z</time></trkpt><trkpt lat="44.92284246823814" lon="11.991207801514486"><ele>-6.199999999999999</ele><time>2026-03-28T16:27:36.999Z</time></trkpt><trkpt lat="44.92293844184417" lon="11.991201871452873"><ele>-6.3999999999999995</ele><time>2026-03-28T16:27:39Z</time></trkpt><trkpt lat="44.92303902096745" lon="11.99120747633878"><ele>-6.6</ele><time>2026-03-28T16:27:41Z</time></trkpt><trkpt lat="44.923139623467165" lon="11.991212062630012"><ele>-6.8</ele><time>2026-03-28T16:27:43Z</time></trkpt><trkpt lat="44.92324560338113" lon="11.99122000675052"><ele>-7.0</ele><time>2026-03-28T16:27:45Z</time></trkpt><trkpt lat="44.923347286835224" lon="11.991212693885345"><ele>-7.0</ele><time>2026-03-28T16:27:47Z</time></trkpt><trkpt lat="44.92343678904789" lon="11.991204471565146"><ele>-6.999999999999999</ele><time>2026-03-28T16:27:49Z</time></trkpt><trkpt lat="44.92352459678046" lon="11.99120315427744"><ele>-6.999999999999999</ele><time>2026-03-28T16:27:51Z</time></trkpt><trkpt lat="44.92362862428581" lon="11.99120510358261"><ele>-7.0</ele><time>2026-03-28T16:27:53Z</time></trkpt><trkpt lat="44.92371855462572" lon="11.991208263553954"><ele>-7.0</ele><time>2026-03-28T16:27:55Z</time></trkpt><trkpt lat="44.923816153819914" lon="11.991206319639154"><ele>-7.0</ele><time>2026-03-28T16:27:57Z</time></trkpt><trkpt lat="44.923912567794886" lon="11.991202110076905"><ele>-6.999999999999999</ele><time>2026-03-28T16:27:59Z</time></trkpt><trkpt lat="44.92400781786462" lon="11.991197607482004"><ele>-6.999999999999999</ele><time>2026-03-28T16:28:01Z</time></trkpt><trkpt lat="44.92409679432155" lon="11.991202493328794"><ele>-7.0</ele><time>2026-03-28T16:28:03Z</time></trkpt><trkpt lat="44.924181767620134" lon="11.991199991788788"><ele>-7.0</ele><time>2026-03-28T16:28:05Z</time></trkpt><trkpt lat="44.92427435145096" lon="11.99120299405771"><ele>-7.000000000000001</ele><time>2026-03-28T16:28:07Z</time></trkpt><trkpt lat="44.92436142321844" lon="11.99119829015809"><ele>-7.0</ele><time>2026-03-28T16:28:09Z</time></trkpt><trkpt lat="44.92442823254819" lon="11.991136789493591"><ele>-7.0</ele><time>2026-03-28T16:28:11Z</time></trkpt><trkpt lat="44.92448610290643" lon="11.991045606218325"><ele>-7.0</ele><time>2026-03-28T16:28:13Z</time></trkpt><trkpt lat="44.92448208377412" lon="11.990916536640405"><ele>-7.000000000000001</ele><time>2026-03-28T16:28:15Z</time></trkpt><trkpt lat="44.92447696782957" lon="11.990801166133505"><ele>-7.0</ele><time>2026-03-28T16:28:17Z</time></trkpt><trkpt lat="44.92447222096637" lon="11.990695286337274"><ele>-6.833333333333334</ele><time>2026-03-28T16:28:19Z</time></trkpt><trkpt lat="44.92447019140051" lon="11.990596621448207"><ele>-6.666666666666667</ele><time>2026-03-28T16:28:21Z</time></trkpt><trkpt lat="44.92446803306756" lon="11.990499217206688"><ele>-6.5</ele><time>2026-03-28T16:28:23Z</time></trkpt><trkpt lat="44.92446576704496" lon="11.990396952906105"><ele>-6.333333333333334</ele><time>2026-03-28T16:28:25Z</time></trkpt><trkpt lat="44.924463444252225" lon="11.990287110524001"><ele>-6.166666666666667</ele><time>2026-03-28T16:28:27Z</time></trkpt><trkpt lat="44.924461643004825" lon="11.990190663228002"><ele>-6.0</ele><time>2026-03-28T16:28:29Z</time></trkpt><trkpt lat="44.92445909254199" lon="11.990054099430845"><ele>-6.166666666666667</ele><time>2026-03-28T16:28:32Z</time></trkpt><trkpt lat="44.92445713329155" lon="11.989949191473052"><ele>-6.333333333333334</ele><time>2026-03-28T16:28:34Z</time></trkpt><trkpt lat="44.92445505865062" lon="11.989838105504045"><ele>-6.5</ele><time>2026-03-28T16:28:35.999Z</time></trkpt><trkpt lat="44.92445276293168" lon="11.989715182037205"><ele>-6.666666666666667</ele><time>2026-03-28T16:28:37.999Z</time></trkpt><trkpt lat="44.9244504926059" lon="11.989593617936759"><ele>-6.833333333333334</ele><time>2026-03-28T16:28:39.999Z</time></trkpt><trkpt lat="44.924448219847555" lon="11.989471923705842"><ele>-7.0</ele><time>2026-03-28T16:28:41.999Z</time></trkpt><trkpt lat="44.92443484417775" lon="11.98935559890028"><ele>-7.000000000000001</ele><time>2026-03-28T16:28:44.999Z</time></trkpt><trkpt lat="44.92443383481357" lon="11.989238333911555"><ele>-7.0</ele><time>2026-03-28T16:28:47.999Z</time></trkpt><trkpt lat="44.924442113957795" lon="11.989144985336004"><ele>-7.0</ele><time>2026-03-28T16:28:49.999Z</time></trkpt><trkpt lat="44.92442416095767" lon="11.98904569079597"><ele>-7.0</ele><time>2026-03-28T16:28:51.999Z</time></trkpt><trkpt lat="44.924430434111336" lon="11.988955828284597"><ele>-7.000000000000001</ele><time>2026-03-28T16:28:53.999Z</time></trkpt><trkpt lat="44.92442425468626" lon="11.988830815952685"><ele>-7.0</ele><time>2026-03-28T16:28:56.999Z</time></trkpt><trkpt lat="44.9244340406232" lon="11.988713576308625"><ele>-6.833333333333334</ele><time>2026-03-28T16:28:59.999Z</time></trkpt><trkpt lat="44.92443187372946" lon="11.98859799170952"><ele>-6.666666666666667</ele><time>2026-03-28T16:29:02.999Z</time></trkpt><trkpt lat="44.924429661124194" lon="11.988479969116925"><ele>-6.5</ele><time>2026-03-28T16:29:05.999Z</time></trkpt><trkpt lat="44.924322759047925" lon="11.98847449230552"><ele>-6.333333333333334</ele><time>2026-03-28T16:29:08.999Z</time></trkpt><trkpt lat="44.92424468267246" lon="11.988491821113401"><ele>-6.166666666666667</ele><time>2026-03-28T16:29:12.999Z</time></trkpt><trkpt lat="44.924180540086375" lon="11.988462159818118"><ele>-6.0</ele><time>2026-03-28T16:29:16.999Z</time></trkpt><trkpt lat="44.92419191537875" lon="11.98800146152466"><ele>-6.0</ele><time>2026-03-28T16:29:45Z</time></trkpt></trkseg></trk></gpx>